<?xml version="1.0" encoding="UTF-8" standalone="no" ?>
<gpx xmlns="http://www.topografix.com/GPX/1/1" xmlns:xsi="http://www.w3.org/2001/XMLSchema-instance" xsi:schemaLocation="http://www.topografix.com/GPX/1/1 http://www.topografix.com/GPX/1/1/gpx.xsd" version="1.1" creator="VisuGPX - https://www.visugpx.com">
  <metadata>
    <name>joclare et col de Albe 6 aout 2021</name>
    <desc><![CDATA[Trace AlpineQuest 06/08/2021 09:04:49]]></desc>
  </metadata>
  <trk>
    <name><![CDATA[joclare et col de Albe 6 aout 2021_1]]></name>
    <trkseg>
      <trkpt lat="42.64971" lon="1.70358">
        <ele>1705.259</ele>
        <time>2021-08-06T07:04:49Z</time>
      </trkpt>
      <trkpt lat="42.64967" lon="1.70347">
        <ele>1704.94</ele>
        <time>2021-08-06T07:04:51Z</time>
      </trkpt>
      <trkpt lat="42.64964" lon="1.70348">
        <ele>1700.366</ele>
        <time>2021-08-06T07:04:53Z</time>
      </trkpt>
      <trkpt lat="42.64963" lon="1.70349">
        <ele>1702.016</ele>
        <time>2021-08-06T07:04:55Z</time>
      </trkpt>
      <trkpt lat="42.64959" lon="1.7035">
        <ele>1698.781</ele>
        <time>2021-08-06T07:04:57Z</time>
      </trkpt>
      <trkpt lat="42.64956" lon="1.7035">
        <ele>1705.778</ele>
        <time>2021-08-06T07:04:59Z</time>
      </trkpt>
      <trkpt lat="42.64954" lon="1.70351">
        <ele>1707.099</ele>
        <time>2021-08-06T07:05:01Z</time>
      </trkpt>
      <trkpt lat="42.64952" lon="1.70351">
        <ele>1703.142</ele>
        <time>2021-08-06T07:05:03Z</time>
      </trkpt>
      <trkpt lat="42.64952" lon="1.70352">
        <ele>1702.933</ele>
        <time>2021-08-06T07:05:05Z</time>
      </trkpt>
      <trkpt lat="42.64951" lon="1.70352">
        <ele>1704.684</ele>
        <time>2021-08-06T07:05:07Z</time>
      </trkpt>
      <trkpt lat="42.6495" lon="1.70352">
        <ele>1704.066</ele>
        <time>2021-08-06T07:05:09Z</time>
      </trkpt>
      <trkpt lat="42.64951" lon="1.70352">
        <ele>1702.046</ele>
        <time>2021-08-06T07:05:11Z</time>
      </trkpt>
      <trkpt lat="42.64951" lon="1.70352">
        <ele>1700.978</ele>
        <time>2021-08-06T07:05:13Z</time>
      </trkpt>
      <trkpt lat="42.64951" lon="1.70354">
        <ele>1700.489</ele>
        <time>2021-08-06T07:05:15Z</time>
      </trkpt>
      <trkpt lat="42.64951" lon="1.70355">
        <ele>1699.653</ele>
        <time>2021-08-06T07:05:17Z</time>
      </trkpt>
      <trkpt lat="42.64951" lon="1.70355">
        <ele>1699.399</ele>
        <time>2021-08-06T07:05:19Z</time>
      </trkpt>
      <trkpt lat="42.6495" lon="1.70355">
        <ele>1698.573</ele>
        <time>2021-08-06T07:05:21Z</time>
      </trkpt>
      <trkpt lat="42.64948" lon="1.70354">
        <ele>1704.197</ele>
        <time>2021-08-06T07:05:23Z</time>
      </trkpt>
      <trkpt lat="42.64946" lon="1.70355">
        <ele>1703.352</ele>
        <time>2021-08-06T07:05:25Z</time>
      </trkpt>
      <trkpt lat="42.64946" lon="1.70354">
        <ele>1702.174</ele>
        <time>2021-08-06T07:05:27Z</time>
      </trkpt>
      <trkpt lat="42.64945" lon="1.70354">
        <ele>1703.162</ele>
        <time>2021-08-06T07:05:29Z</time>
      </trkpt>
      <trkpt lat="42.64946" lon="1.70355">
        <ele>1702.359</ele>
        <time>2021-08-06T07:05:31Z</time>
      </trkpt>
      <trkpt lat="42.64947" lon="1.70355">
        <ele>1701.62</ele>
        <time>2021-08-06T07:05:33Z</time>
      </trkpt>
      <trkpt lat="42.64947" lon="1.70355">
        <ele>1701.738</ele>
        <time>2021-08-06T07:05:35Z</time>
      </trkpt>
      <trkpt lat="42.64946" lon="1.70357">
        <ele>1704.884</ele>
        <time>2021-08-06T07:05:37Z</time>
      </trkpt>
      <trkpt lat="42.64945" lon="1.70356">
        <ele>1709.232</ele>
        <time>2021-08-06T07:05:39Z</time>
      </trkpt>
      <trkpt lat="42.64944" lon="1.70356">
        <ele>1710.097</ele>
        <time>2021-08-06T07:05:41Z</time>
      </trkpt>
      <trkpt lat="42.64943" lon="1.70355">
        <ele>1707.839</ele>
        <time>2021-08-06T07:05:43Z</time>
      </trkpt>
      <trkpt lat="42.64943" lon="1.70357">
        <ele>1707.135</ele>
        <time>2021-08-06T07:05:45Z</time>
      </trkpt>
      <trkpt lat="42.64944" lon="1.70357">
        <ele>1704.939</ele>
        <time>2021-08-06T07:05:47Z</time>
      </trkpt>
      <trkpt lat="42.64941" lon="1.70357">
        <ele>1702.85</ele>
        <time>2021-08-06T07:05:49Z</time>
      </trkpt>
      <trkpt lat="42.64941" lon="1.70358">
        <ele>1700.901</ele>
        <time>2021-08-06T07:05:51Z</time>
      </trkpt>
      <trkpt lat="42.64942" lon="1.70357">
        <ele>1699.762</ele>
        <time>2021-08-06T07:05:53Z</time>
      </trkpt>
      <trkpt lat="42.64943" lon="1.70357">
        <ele>1699.616</ele>
        <time>2021-08-06T07:05:55Z</time>
      </trkpt>
      <trkpt lat="42.64942" lon="1.70357">
        <ele>1698.783</ele>
        <time>2021-08-06T07:05:57Z</time>
      </trkpt>
      <trkpt lat="42.64941" lon="1.70357">
        <ele>1696.828</ele>
        <time>2021-08-06T07:05:59Z</time>
      </trkpt>
      <trkpt lat="42.64939" lon="1.70357">
        <ele>1695.401</ele>
        <time>2021-08-06T07:06:01Z</time>
      </trkpt>
      <trkpt lat="42.64937" lon="1.70356">
        <ele>1695.304</ele>
        <time>2021-08-06T07:06:03Z</time>
      </trkpt>
      <trkpt lat="42.64936" lon="1.70355">
        <ele>1694.852</ele>
        <time>2021-08-06T07:06:05Z</time>
      </trkpt>
      <trkpt lat="42.64935" lon="1.70353">
        <ele>1694.44</ele>
        <time>2021-08-06T07:06:07Z</time>
      </trkpt>
      <trkpt lat="42.64933" lon="1.70351">
        <ele>1695.071</ele>
        <time>2021-08-06T07:06:09Z</time>
      </trkpt>
      <trkpt lat="42.64932" lon="1.70349">
        <ele>1695.63</ele>
        <time>2021-08-06T07:06:11Z</time>
      </trkpt>
      <trkpt lat="42.64931" lon="1.70347">
        <ele>1695.241</ele>
        <time>2021-08-06T07:06:13Z</time>
      </trkpt>
      <trkpt lat="42.6493" lon="1.70344">
        <ele>1697.473</ele>
        <time>2021-08-06T07:06:15Z</time>
      </trkpt>
      <trkpt lat="42.64928" lon="1.70342">
        <ele>1697.493</ele>
        <time>2021-08-06T07:06:17Z</time>
      </trkpt>
      <trkpt lat="42.64926" lon="1.70342">
        <ele>1698.02</ele>
        <time>2021-08-06T07:06:19Z</time>
      </trkpt>
      <trkpt lat="42.64925" lon="1.7034">
        <ele>1697.691</ele>
        <time>2021-08-06T07:06:21Z</time>
      </trkpt>
      <trkpt lat="42.64923" lon="1.70339">
        <ele>1697.818</ele>
        <time>2021-08-06T07:06:23Z</time>
      </trkpt>
      <trkpt lat="42.64922" lon="1.70337">
        <ele>1697.355</ele>
        <time>2021-08-06T07:06:25Z</time>
      </trkpt>
      <trkpt lat="42.64921" lon="1.70336">
        <ele>1696.035</ele>
        <time>2021-08-06T07:06:27Z</time>
      </trkpt>
      <trkpt lat="42.6492" lon="1.70334">
        <ele>1694.831</ele>
        <time>2021-08-06T07:06:29Z</time>
      </trkpt>
      <trkpt lat="42.64918" lon="1.70332">
        <ele>1695.748</ele>
        <time>2021-08-06T07:06:31Z</time>
      </trkpt>
      <trkpt lat="42.64917" lon="1.70329">
        <ele>1697.43</ele>
        <time>2021-08-06T07:06:33Z</time>
      </trkpt>
      <trkpt lat="42.64916" lon="1.70326">
        <ele>1697.775</ele>
        <time>2021-08-06T07:06:35Z</time>
      </trkpt>
      <trkpt lat="42.64914" lon="1.70324">
        <ele>1697.631</ele>
        <time>2021-08-06T07:06:37Z</time>
      </trkpt>
      <trkpt lat="42.64912" lon="1.70323">
        <ele>1697.634</ele>
        <time>2021-08-06T07:06:39Z</time>
      </trkpt>
      <trkpt lat="42.64911" lon="1.70322">
        <ele>1698.457</ele>
        <time>2021-08-06T07:06:41Z</time>
      </trkpt>
      <trkpt lat="42.6491" lon="1.70322">
        <ele>1698.179</ele>
        <time>2021-08-06T07:06:43Z</time>
      </trkpt>
      <trkpt lat="42.64908" lon="1.7032">
        <ele>1697.841</ele>
        <time>2021-08-06T07:06:45Z</time>
      </trkpt>
      <trkpt lat="42.64907" lon="1.70321">
        <ele>1697.74</ele>
        <time>2021-08-06T07:06:47Z</time>
      </trkpt>
      <trkpt lat="42.64905" lon="1.70322">
        <ele>1697.653</ele>
        <time>2021-08-06T07:06:49Z</time>
      </trkpt>
      <trkpt lat="42.64904" lon="1.70322">
        <ele>1693.134</ele>
        <time>2021-08-06T07:06:51Z</time>
      </trkpt>
      <trkpt lat="42.64903" lon="1.70324">
        <ele>1689.918</ele>
        <time>2021-08-06T07:06:53Z</time>
      </trkpt>
      <trkpt lat="42.64902" lon="1.70328">
        <ele>1689.585</ele>
        <time>2021-08-06T07:06:55Z</time>
      </trkpt>
      <trkpt lat="42.64901" lon="1.7033">
        <ele>1687.956</ele>
        <time>2021-08-06T07:06:57Z</time>
      </trkpt>
      <trkpt lat="42.649" lon="1.70331">
        <ele>1689.238</ele>
        <time>2021-08-06T07:06:59Z</time>
      </trkpt>
      <trkpt lat="42.64898" lon="1.70332">
        <ele>1690.243</ele>
        <time>2021-08-06T07:07:01Z</time>
      </trkpt>
      <trkpt lat="42.64895" lon="1.70333">
        <ele>1691.749</ele>
        <time>2021-08-06T07:07:03Z</time>
      </trkpt>
      <trkpt lat="42.64892" lon="1.70333">
        <ele>1691.344</ele>
        <time>2021-08-06T07:07:05Z</time>
      </trkpt>
      <trkpt lat="42.64891" lon="1.70334">
        <ele>1690.691</ele>
        <time>2021-08-06T07:07:07Z</time>
      </trkpt>
      <trkpt lat="42.64889" lon="1.70333">
        <ele>1691.826</ele>
        <time>2021-08-06T07:07:09Z</time>
      </trkpt>
      <trkpt lat="42.64887" lon="1.70333">
        <ele>1691.063</ele>
        <time>2021-08-06T07:07:11Z</time>
      </trkpt>
      <trkpt lat="42.64885" lon="1.70332">
        <ele>1691.515</ele>
        <time>2021-08-06T07:07:13Z</time>
      </trkpt>
      <trkpt lat="42.64882" lon="1.70331">
        <ele>1692.278</ele>
        <time>2021-08-06T07:07:15Z</time>
      </trkpt>
      <trkpt lat="42.6488" lon="1.70331">
        <ele>1691.668</ele>
        <time>2021-08-06T07:07:17Z</time>
      </trkpt>
      <trkpt lat="42.64878" lon="1.7033">
        <ele>1692.074</ele>
        <time>2021-08-06T07:07:19Z</time>
      </trkpt>
      <trkpt lat="42.64876" lon="1.70329">
        <ele>1690.563</ele>
        <time>2021-08-06T07:07:21Z</time>
      </trkpt>
      <trkpt lat="42.64875" lon="1.70328">
        <ele>1691.049</ele>
        <time>2021-08-06T07:07:23Z</time>
      </trkpt>
      <trkpt lat="42.64874" lon="1.70327">
        <ele>1690.695</ele>
        <time>2021-08-06T07:07:25Z</time>
      </trkpt>
      <trkpt lat="42.64873" lon="1.70327">
        <ele>1692.526</ele>
        <time>2021-08-06T07:07:27Z</time>
      </trkpt>
      <trkpt lat="42.64871" lon="1.70328">
        <ele>1693.002</ele>
        <time>2021-08-06T07:07:29Z</time>
      </trkpt>
      <trkpt lat="42.64871" lon="1.70329">
        <ele>1691.473</ele>
        <time>2021-08-06T07:07:31Z</time>
      </trkpt>
      <trkpt lat="42.64871" lon="1.70329">
        <ele>1693.032</ele>
        <time>2021-08-06T07:07:33Z</time>
      </trkpt>
      <trkpt lat="42.6487" lon="1.70329">
        <ele>1693.547</ele>
        <time>2021-08-06T07:07:35Z</time>
      </trkpt>
      <trkpt lat="42.64869" lon="1.70329">
        <ele>1694.046</ele>
        <time>2021-08-06T07:07:37Z</time>
      </trkpt>
      <trkpt lat="42.6487" lon="1.70328">
        <ele>1693.998</ele>
        <time>2021-08-06T07:07:39Z</time>
      </trkpt>
      <trkpt lat="42.6487" lon="1.70328">
        <ele>1694.104</ele>
        <time>2021-08-06T07:07:41Z</time>
      </trkpt>
      <trkpt lat="42.6487" lon="1.70329">
        <ele>1694.658</ele>
        <time>2021-08-06T07:07:43Z</time>
      </trkpt>
      <trkpt lat="42.6487" lon="1.70329">
        <ele>1694.845</ele>
        <time>2021-08-06T07:07:45Z</time>
      </trkpt>
      <trkpt lat="42.64871" lon="1.70328">
        <ele>1694.88</ele>
        <time>2021-08-06T07:07:47Z</time>
      </trkpt>
      <trkpt lat="42.64871" lon="1.70328">
        <ele>1696.083</ele>
        <time>2021-08-06T07:07:49Z</time>
      </trkpt>
      <trkpt lat="42.64871" lon="1.70327">
        <ele>1696.535</ele>
        <time>2021-08-06T07:07:51Z</time>
      </trkpt>
      <trkpt lat="42.64872" lon="1.70326">
        <ele>1696.151</ele>
        <time>2021-08-06T07:07:53Z</time>
      </trkpt>
      <trkpt lat="42.64872" lon="1.70325">
        <ele>1695.485</ele>
        <time>2021-08-06T07:07:55Z</time>
      </trkpt>
      <trkpt lat="42.64871" lon="1.70325">
        <ele>1693.653</ele>
        <time>2021-08-06T07:07:57Z</time>
      </trkpt>
      <trkpt lat="42.6487" lon="1.70325">
        <ele>1694.438</ele>
        <time>2021-08-06T07:07:59Z</time>
      </trkpt>
      <trkpt lat="42.6487" lon="1.70325">
        <ele>1693.988</ele>
        <time>2021-08-06T07:08:01Z</time>
      </trkpt>
      <trkpt lat="42.64869" lon="1.70325">
        <ele>1693.489</ele>
        <time>2021-08-06T07:08:03Z</time>
      </trkpt>
      <trkpt lat="42.64865" lon="1.70325">
        <ele>1692.29</ele>
        <time>2021-08-06T07:08:05Z</time>
      </trkpt>
      <trkpt lat="42.64862" lon="1.70325">
        <ele>1692.368</ele>
        <time>2021-08-06T07:08:07Z</time>
      </trkpt>
      <trkpt lat="42.64859" lon="1.70325">
        <ele>1692.108</ele>
        <time>2021-08-06T07:08:09Z</time>
      </trkpt>
      <trkpt lat="42.64857" lon="1.70324">
        <ele>1693.785</ele>
        <time>2021-08-06T07:08:11Z</time>
      </trkpt>
      <trkpt lat="42.64855" lon="1.70324">
        <ele>1692.992</ele>
        <time>2021-08-06T07:08:13Z</time>
      </trkpt>
      <trkpt lat="42.64853" lon="1.70323">
        <ele>1694.07</ele>
        <time>2021-08-06T07:08:15Z</time>
      </trkpt>
      <trkpt lat="42.64852" lon="1.70323">
        <ele>1693.361</ele>
        <time>2021-08-06T07:08:17Z</time>
      </trkpt>
      <trkpt lat="42.64852" lon="1.70323">
        <ele>1692.407</ele>
        <time>2021-08-06T07:08:19Z</time>
      </trkpt>
      <trkpt lat="42.64852" lon="1.70323">
        <ele>1692.054</ele>
        <time>2021-08-06T07:08:21Z</time>
      </trkpt>
      <trkpt lat="42.6485" lon="1.70323">
        <ele>1692.114</ele>
        <time>2021-08-06T07:08:23Z</time>
      </trkpt>
      <trkpt lat="42.64848" lon="1.70323">
        <ele>1690.76</ele>
        <time>2021-08-06T07:08:25Z</time>
      </trkpt>
      <trkpt lat="42.64846" lon="1.70323">
        <ele>1690.418</ele>
        <time>2021-08-06T07:08:27Z</time>
      </trkpt>
      <trkpt lat="42.64844" lon="1.70322">
        <ele>1690.323</ele>
        <time>2021-08-06T07:08:29Z</time>
      </trkpt>
      <trkpt lat="42.64841" lon="1.7032">
        <ele>1691.007</ele>
        <time>2021-08-06T07:08:31Z</time>
      </trkpt>
      <trkpt lat="42.64839" lon="1.7032">
        <ele>1689.916</ele>
        <time>2021-08-06T07:08:33Z</time>
      </trkpt>
      <trkpt lat="42.64837" lon="1.7032">
        <ele>1689.843</ele>
        <time>2021-08-06T07:08:35Z</time>
      </trkpt>
      <trkpt lat="42.64834" lon="1.7032">
        <ele>1690.688</ele>
        <time>2021-08-06T07:08:37Z</time>
      </trkpt>
      <trkpt lat="42.64831" lon="1.7032">
        <ele>1689.959</ele>
        <time>2021-08-06T07:08:39Z</time>
      </trkpt>
      <trkpt lat="42.64829" lon="1.7032">
        <ele>1690.119</ele>
        <time>2021-08-06T07:08:41Z</time>
      </trkpt>
      <trkpt lat="42.64826" lon="1.70319">
        <ele>1690.789</ele>
        <time>2021-08-06T07:08:43Z</time>
      </trkpt>
      <trkpt lat="42.64824" lon="1.70318">
        <ele>1692.322</ele>
        <time>2021-08-06T07:08:45Z</time>
      </trkpt>
      <trkpt lat="42.64821" lon="1.70316">
        <ele>1692.471</ele>
        <time>2021-08-06T07:08:47Z</time>
      </trkpt>
      <trkpt lat="42.6482" lon="1.70314">
        <ele>1692.366</ele>
        <time>2021-08-06T07:08:49Z</time>
      </trkpt>
      <trkpt lat="42.64818" lon="1.70312">
        <ele>1692.196</ele>
        <time>2021-08-06T07:08:51Z</time>
      </trkpt>
      <trkpt lat="42.64816" lon="1.70311">
        <ele>1692.438</ele>
        <time>2021-08-06T07:08:53Z</time>
      </trkpt>
      <trkpt lat="42.64814" lon="1.7031">
        <ele>1692.565</ele>
        <time>2021-08-06T07:08:55Z</time>
      </trkpt>
      <trkpt lat="42.64811" lon="1.70311">
        <ele>1692.057</ele>
        <time>2021-08-06T07:08:57Z</time>
      </trkpt>
      <trkpt lat="42.64809" lon="1.70312">
        <ele>1692.858</ele>
        <time>2021-08-06T07:08:59Z</time>
      </trkpt>
      <trkpt lat="42.64806" lon="1.70312">
        <ele>1692.645</ele>
        <time>2021-08-06T07:09:01Z</time>
      </trkpt>
      <trkpt lat="42.64804" lon="1.70311">
        <ele>1692.507</ele>
        <time>2021-08-06T07:09:03Z</time>
      </trkpt>
      <trkpt lat="42.64801" lon="1.7031">
        <ele>1694.464</ele>
        <time>2021-08-06T07:09:05Z</time>
      </trkpt>
      <trkpt lat="42.64798" lon="1.70307">
        <ele>1694.896</ele>
        <time>2021-08-06T07:09:07Z</time>
      </trkpt>
      <trkpt lat="42.64796" lon="1.70306">
        <ele>1695.127</ele>
        <time>2021-08-06T07:09:09Z</time>
      </trkpt>
      <trkpt lat="42.64793" lon="1.70305">
        <ele>1696.097</ele>
        <time>2021-08-06T07:09:11Z</time>
      </trkpt>
      <trkpt lat="42.64791" lon="1.70305">
        <ele>1697.144</ele>
        <time>2021-08-06T07:09:13Z</time>
      </trkpt>
      <trkpt lat="42.64788" lon="1.70306">
        <ele>1698.288</ele>
        <time>2021-08-06T07:09:15Z</time>
      </trkpt>
      <trkpt lat="42.64786" lon="1.70305">
        <ele>1698.135</ele>
        <time>2021-08-06T07:09:17Z</time>
      </trkpt>
      <trkpt lat="42.64783" lon="1.70304">
        <ele>1698.265</ele>
        <time>2021-08-06T07:09:19Z</time>
      </trkpt>
      <trkpt lat="42.64781" lon="1.70303">
        <ele>1698.074</ele>
        <time>2021-08-06T07:09:21Z</time>
      </trkpt>
      <trkpt lat="42.64779" lon="1.70302">
        <ele>1698.342</ele>
        <time>2021-08-06T07:09:23Z</time>
      </trkpt>
      <trkpt lat="42.64777" lon="1.703">
        <ele>1699.341</ele>
        <time>2021-08-06T07:09:25Z</time>
      </trkpt>
      <trkpt lat="42.64774" lon="1.70299">
        <ele>1698.791</ele>
        <time>2021-08-06T07:09:27Z</time>
      </trkpt>
      <trkpt lat="42.64772" lon="1.70298">
        <ele>1700.153</ele>
        <time>2021-08-06T07:09:29Z</time>
      </trkpt>
      <trkpt lat="42.6477" lon="1.70297">
        <ele>1700.241</ele>
        <time>2021-08-06T07:09:31Z</time>
      </trkpt>
      <trkpt lat="42.64768" lon="1.70295">
        <ele>1699.391</ele>
        <time>2021-08-06T07:09:33Z</time>
      </trkpt>
      <trkpt lat="42.64766" lon="1.70293">
        <ele>1699.377</ele>
        <time>2021-08-06T07:09:35Z</time>
      </trkpt>
      <trkpt lat="42.64764" lon="1.70291">
        <ele>1699.584</ele>
        <time>2021-08-06T07:09:37Z</time>
      </trkpt>
      <trkpt lat="42.64763" lon="1.70289">
        <ele>1700.144</ele>
        <time>2021-08-06T07:09:39Z</time>
      </trkpt>
      <trkpt lat="42.64762" lon="1.70286">
        <ele>1702.1</ele>
        <time>2021-08-06T07:09:41Z</time>
      </trkpt>
      <trkpt lat="42.64762" lon="1.70284">
        <ele>1701.614</ele>
        <time>2021-08-06T07:09:43Z</time>
      </trkpt>
      <trkpt lat="42.64761" lon="1.70282">
        <ele>1701.929</ele>
        <time>2021-08-06T07:09:45Z</time>
      </trkpt>
      <trkpt lat="42.64759" lon="1.70281">
        <ele>1702.658</ele>
        <time>2021-08-06T07:09:47Z</time>
      </trkpt>
      <trkpt lat="42.64761" lon="1.70285">
        <ele>1697.31</ele>
        <time>2021-08-06T07:09:49Z</time>
      </trkpt>
      <trkpt lat="42.64761" lon="1.70286">
        <ele>1697.111</ele>
        <time>2021-08-06T07:09:51Z</time>
      </trkpt>
      <trkpt lat="42.6476" lon="1.70286">
        <ele>1698.784</ele>
        <time>2021-08-06T07:09:53Z</time>
      </trkpt>
      <trkpt lat="42.6476" lon="1.70286">
        <ele>1698.783</ele>
        <time>2021-08-06T07:09:55Z</time>
      </trkpt>
      <trkpt lat="42.6476" lon="1.70286">
        <ele>1698.792</ele>
        <time>2021-08-06T07:09:57Z</time>
      </trkpt>
      <trkpt lat="42.64759" lon="1.70286">
        <ele>1698.946</ele>
        <time>2021-08-06T07:09:59Z</time>
      </trkpt>
      <trkpt lat="42.64757" lon="1.70285">
        <ele>1700.863</ele>
        <time>2021-08-06T07:10:01Z</time>
      </trkpt>
      <trkpt lat="42.64757" lon="1.70288">
        <ele>1697.034</ele>
        <time>2021-08-06T07:10:03Z</time>
      </trkpt>
      <trkpt lat="42.64756" lon="1.70287">
        <ele>1698.658</ele>
        <time>2021-08-06T07:10:05Z</time>
      </trkpt>
      <trkpt lat="42.64754" lon="1.70284">
        <ele>1700.282</ele>
        <time>2021-08-06T07:10:07Z</time>
      </trkpt>
      <trkpt lat="42.64753" lon="1.70283">
        <ele>1700.807</ele>
        <time>2021-08-06T07:10:09Z</time>
      </trkpt>
      <trkpt lat="42.64751" lon="1.70284">
        <ele>1700.584</ele>
        <time>2021-08-06T07:10:11Z</time>
      </trkpt>
      <trkpt lat="42.6475" lon="1.70286">
        <ele>1698.672</ele>
        <time>2021-08-06T07:10:13Z</time>
      </trkpt>
      <trkpt lat="42.64748" lon="1.70287">
        <ele>1697.636</ele>
        <time>2021-08-06T07:10:15Z</time>
      </trkpt>
      <trkpt lat="42.64746" lon="1.70287">
        <ele>1697.363</ele>
        <time>2021-08-06T07:10:17Z</time>
      </trkpt>
      <trkpt lat="42.64745" lon="1.70288">
        <ele>1697.158</ele>
        <time>2021-08-06T07:10:19Z</time>
      </trkpt>
      <trkpt lat="42.64743" lon="1.70289">
        <ele>1695.933</ele>
        <time>2021-08-06T07:10:21Z</time>
      </trkpt>
      <trkpt lat="42.64741" lon="1.7029">
        <ele>1695.644</ele>
        <time>2021-08-06T07:10:23Z</time>
      </trkpt>
      <trkpt lat="42.64739" lon="1.7029">
        <ele>1695.026</ele>
        <time>2021-08-06T07:10:25Z</time>
      </trkpt>
      <trkpt lat="42.64737" lon="1.7029">
        <ele>1695.435</ele>
        <time>2021-08-06T07:10:27Z</time>
      </trkpt>
      <trkpt lat="42.64735" lon="1.70291">
        <ele>1694.378</ele>
        <time>2021-08-06T07:10:29Z</time>
      </trkpt>
      <trkpt lat="42.64734" lon="1.70292">
        <ele>1694.8</ele>
        <time>2021-08-06T07:10:31Z</time>
      </trkpt>
      <trkpt lat="42.64732" lon="1.70292">
        <ele>1695.16</ele>
        <time>2021-08-06T07:10:33Z</time>
      </trkpt>
      <trkpt lat="42.64729" lon="1.70292">
        <ele>1695.876</ele>
        <time>2021-08-06T07:10:35Z</time>
      </trkpt>
      <trkpt lat="42.64727" lon="1.70292">
        <ele>1696.966</ele>
        <time>2021-08-06T07:10:37Z</time>
      </trkpt>
      <trkpt lat="42.64724" lon="1.70292">
        <ele>1696.512</ele>
        <time>2021-08-06T07:10:39Z</time>
      </trkpt>
      <trkpt lat="42.64723" lon="1.70293">
        <ele>1696.115</ele>
        <time>2021-08-06T07:10:41Z</time>
      </trkpt>
      <trkpt lat="42.64721" lon="1.70294">
        <ele>1695.905</ele>
        <time>2021-08-06T07:10:43Z</time>
      </trkpt>
      <trkpt lat="42.64718" lon="1.70294">
        <ele>1696.649</ele>
        <time>2021-08-06T07:10:45Z</time>
      </trkpt>
      <trkpt lat="42.64716" lon="1.70295">
        <ele>1697.16</ele>
        <time>2021-08-06T07:10:47Z</time>
      </trkpt>
      <trkpt lat="42.64714" lon="1.70296">
        <ele>1696.951</ele>
        <time>2021-08-06T07:10:49Z</time>
      </trkpt>
      <trkpt lat="42.64712" lon="1.70298">
        <ele>1696.725</ele>
        <time>2021-08-06T07:10:51Z</time>
      </trkpt>
      <trkpt lat="42.64711" lon="1.703">
        <ele>1697.583</ele>
        <time>2021-08-06T07:10:53Z</time>
      </trkpt>
      <trkpt lat="42.64709" lon="1.70301">
        <ele>1698.491</ele>
        <time>2021-08-06T07:10:55Z</time>
      </trkpt>
      <trkpt lat="42.64707" lon="1.70302">
        <ele>1699.837</ele>
        <time>2021-08-06T07:10:57Z</time>
      </trkpt>
      <trkpt lat="42.64706" lon="1.70304">
        <ele>1700.293</ele>
        <time>2021-08-06T07:10:59Z</time>
      </trkpt>
      <trkpt lat="42.64704" lon="1.70305">
        <ele>1700.322</ele>
        <time>2021-08-06T07:11:01Z</time>
      </trkpt>
      <trkpt lat="42.64703" lon="1.70305">
        <ele>1700.055</ele>
        <time>2021-08-06T07:11:03Z</time>
      </trkpt>
      <trkpt lat="42.64701" lon="1.70306">
        <ele>1700.967</ele>
        <time>2021-08-06T07:11:05Z</time>
      </trkpt>
      <trkpt lat="42.647" lon="1.70306">
        <ele>1699.752</ele>
        <time>2021-08-06T07:11:07Z</time>
      </trkpt>
      <trkpt lat="42.64699" lon="1.70304">
        <ele>1700.27</ele>
        <time>2021-08-06T07:11:09Z</time>
      </trkpt>
      <trkpt lat="42.64697" lon="1.70303">
        <ele>1701.551</ele>
        <time>2021-08-06T07:11:11Z</time>
      </trkpt>
      <trkpt lat="42.64695" lon="1.70303">
        <ele>1702.609</ele>
        <time>2021-08-06T07:11:13Z</time>
      </trkpt>
      <trkpt lat="42.64694" lon="1.70304">
        <ele>1703.063</ele>
        <time>2021-08-06T07:11:15Z</time>
      </trkpt>
      <trkpt lat="42.64692" lon="1.70304">
        <ele>1705.631</ele>
        <time>2021-08-06T07:11:17Z</time>
      </trkpt>
      <trkpt lat="42.6469" lon="1.70303">
        <ele>1706.111</ele>
        <time>2021-08-06T07:11:19Z</time>
      </trkpt>
      <trkpt lat="42.64689" lon="1.70302">
        <ele>1706.542</ele>
        <time>2021-08-06T07:11:21Z</time>
      </trkpt>
      <trkpt lat="42.64687" lon="1.70301">
        <ele>1706.553</ele>
        <time>2021-08-06T07:11:23Z</time>
      </trkpt>
      <trkpt lat="42.64686" lon="1.70299">
        <ele>1707.233</ele>
        <time>2021-08-06T07:11:25Z</time>
      </trkpt>
      <trkpt lat="42.64685" lon="1.70299">
        <ele>1706.404</ele>
        <time>2021-08-06T07:11:27Z</time>
      </trkpt>
      <trkpt lat="42.64683" lon="1.70298">
        <ele>1706.463</ele>
        <time>2021-08-06T07:11:29Z</time>
      </trkpt>
      <trkpt lat="42.64682" lon="1.70298">
        <ele>1707.37</ele>
        <time>2021-08-06T07:11:31Z</time>
      </trkpt>
      <trkpt lat="42.64681" lon="1.70298">
        <ele>1708.275</ele>
        <time>2021-08-06T07:11:33Z</time>
      </trkpt>
      <trkpt lat="42.6468" lon="1.70298">
        <ele>1708.881</ele>
        <time>2021-08-06T07:11:35Z</time>
      </trkpt>
      <trkpt lat="42.64678" lon="1.70295">
        <ele>1710.079</ele>
        <time>2021-08-06T07:11:38Z</time>
      </trkpt>
      <trkpt lat="42.64678" lon="1.70293">
        <ele>1709.86</ele>
        <time>2021-08-06T07:11:40Z</time>
      </trkpt>
      <trkpt lat="42.64678" lon="1.70293">
        <ele>1707.691</ele>
        <time>2021-08-06T07:11:42Z</time>
      </trkpt>
      <trkpt lat="42.64677" lon="1.70292">
        <ele>1706.924</ele>
        <time>2021-08-06T07:11:44Z</time>
      </trkpt>
      <trkpt lat="42.64676" lon="1.70291">
        <ele>1707.684</ele>
        <time>2021-08-06T07:11:46Z</time>
      </trkpt>
      <trkpt lat="42.64674" lon="1.70291">
        <ele>1710.24</ele>
        <time>2021-08-06T07:11:48Z</time>
      </trkpt>
      <trkpt lat="42.64672" lon="1.70291">
        <ele>1711.621</ele>
        <time>2021-08-06T07:11:50Z</time>
      </trkpt>
      <trkpt lat="42.64671" lon="1.7029">
        <ele>1712.601</ele>
        <time>2021-08-06T07:11:52Z</time>
      </trkpt>
      <trkpt lat="42.6467" lon="1.7029">
        <ele>1713.558</ele>
        <time>2021-08-06T07:11:54Z</time>
      </trkpt>
      <trkpt lat="42.64669" lon="1.70291">
        <ele>1714.517</ele>
        <time>2021-08-06T07:11:56Z</time>
      </trkpt>
      <trkpt lat="42.64667" lon="1.70291">
        <ele>1714.932</ele>
        <time>2021-08-06T07:11:58Z</time>
      </trkpt>
      <trkpt lat="42.64666" lon="1.70291">
        <ele>1713.656</ele>
        <time>2021-08-06T07:12:00Z</time>
      </trkpt>
      <trkpt lat="42.64664" lon="1.70291">
        <ele>1714.354</ele>
        <time>2021-08-06T07:12:02Z</time>
      </trkpt>
      <trkpt lat="42.64662" lon="1.70291">
        <ele>1714.605</ele>
        <time>2021-08-06T07:12:04Z</time>
      </trkpt>
      <trkpt lat="42.6466" lon="1.70291">
        <ele>1714.059</ele>
        <time>2021-08-06T07:12:06Z</time>
      </trkpt>
      <trkpt lat="42.64658" lon="1.7029">
        <ele>1713.81</ele>
        <time>2021-08-06T07:12:08Z</time>
      </trkpt>
      <trkpt lat="42.64657" lon="1.70289">
        <ele>1712.477</ele>
        <time>2021-08-06T07:12:10Z</time>
      </trkpt>
      <trkpt lat="42.64655" lon="1.70288">
        <ele>1711.967</ele>
        <time>2021-08-06T07:12:12Z</time>
      </trkpt>
      <trkpt lat="42.64654" lon="1.70286">
        <ele>1710.809</ele>
        <time>2021-08-06T07:12:14Z</time>
      </trkpt>
      <trkpt lat="42.64652" lon="1.70286">
        <ele>1711.573</ele>
        <time>2021-08-06T07:12:16Z</time>
      </trkpt>
      <trkpt lat="42.6465" lon="1.70285">
        <ele>1711.154</ele>
        <time>2021-08-06T07:12:18Z</time>
      </trkpt>
      <trkpt lat="42.64648" lon="1.70283">
        <ele>1710.211</ele>
        <time>2021-08-06T07:12:20Z</time>
      </trkpt>
      <trkpt lat="42.64646" lon="1.70282">
        <ele>1709.386</ele>
        <time>2021-08-06T07:12:22Z</time>
      </trkpt>
      <trkpt lat="42.64645" lon="1.70281">
        <ele>1709.345</ele>
        <time>2021-08-06T07:12:24Z</time>
      </trkpt>
      <trkpt lat="42.64643" lon="1.7028">
        <ele>1708.978</ele>
        <time>2021-08-06T07:12:26Z</time>
      </trkpt>
      <trkpt lat="42.6464" lon="1.7028">
        <ele>1710.488</ele>
        <time>2021-08-06T07:12:28Z</time>
      </trkpt>
      <trkpt lat="42.64638" lon="1.70279">
        <ele>1709.928</ele>
        <time>2021-08-06T07:12:30Z</time>
      </trkpt>
      <trkpt lat="42.64636" lon="1.70278">
        <ele>1709.627</ele>
        <time>2021-08-06T07:12:32Z</time>
      </trkpt>
      <trkpt lat="42.64634" lon="1.70278">
        <ele>1710.166</ele>
        <time>2021-08-06T07:12:34Z</time>
      </trkpt>
      <trkpt lat="42.64632" lon="1.70277">
        <ele>1710.524</ele>
        <time>2021-08-06T07:12:36Z</time>
      </trkpt>
      <trkpt lat="42.64629" lon="1.70277">
        <ele>1711.47</ele>
        <time>2021-08-06T07:12:38Z</time>
      </trkpt>
      <trkpt lat="42.64626" lon="1.70277">
        <ele>1713.269</ele>
        <time>2021-08-06T07:12:40Z</time>
      </trkpt>
      <trkpt lat="42.64623" lon="1.70276">
        <ele>1713.252</ele>
        <time>2021-08-06T07:12:42Z</time>
      </trkpt>
      <trkpt lat="42.64621" lon="1.70275">
        <ele>1713.317</ele>
        <time>2021-08-06T07:12:44Z</time>
      </trkpt>
      <trkpt lat="42.64619" lon="1.70274">
        <ele>1712.228</ele>
        <time>2021-08-06T07:12:46Z</time>
      </trkpt>
      <trkpt lat="42.64616" lon="1.70273">
        <ele>1713.1</ele>
        <time>2021-08-06T07:12:48Z</time>
      </trkpt>
      <trkpt lat="42.64614" lon="1.70272">
        <ele>1712.872</ele>
        <time>2021-08-06T07:12:50Z</time>
      </trkpt>
      <trkpt lat="42.64612" lon="1.7027">
        <ele>1713.126</ele>
        <time>2021-08-06T07:12:52Z</time>
      </trkpt>
      <trkpt lat="42.6461" lon="1.7027">
        <ele>1714.087</ele>
        <time>2021-08-06T07:12:54Z</time>
      </trkpt>
      <trkpt lat="42.64608" lon="1.7027">
        <ele>1713.432</ele>
        <time>2021-08-06T07:12:56Z</time>
      </trkpt>
      <trkpt lat="42.64605" lon="1.7027">
        <ele>1714.163</ele>
        <time>2021-08-06T07:12:58Z</time>
      </trkpt>
      <trkpt lat="42.64603" lon="1.70271">
        <ele>1714.338</ele>
        <time>2021-08-06T07:13:00Z</time>
      </trkpt>
      <trkpt lat="42.646" lon="1.70272">
        <ele>1714.109</ele>
        <time>2021-08-06T07:13:02Z</time>
      </trkpt>
      <trkpt lat="42.64597" lon="1.70273">
        <ele>1714.254</ele>
        <time>2021-08-06T07:13:04Z</time>
      </trkpt>
      <trkpt lat="42.64595" lon="1.70273">
        <ele>1713.65</ele>
        <time>2021-08-06T07:13:06Z</time>
      </trkpt>
      <trkpt lat="42.64593" lon="1.70274">
        <ele>1713.459</ele>
        <time>2021-08-06T07:13:08Z</time>
      </trkpt>
      <trkpt lat="42.6459" lon="1.70274">
        <ele>1713.233</ele>
        <time>2021-08-06T07:13:10Z</time>
      </trkpt>
      <trkpt lat="42.64588" lon="1.70273">
        <ele>1714.265</ele>
        <time>2021-08-06T07:13:12Z</time>
      </trkpt>
      <trkpt lat="42.64586" lon="1.70272">
        <ele>1713.574</ele>
        <time>2021-08-06T07:13:14Z</time>
      </trkpt>
      <trkpt lat="42.64585" lon="1.70272">
        <ele>1712.767</ele>
        <time>2021-08-06T07:13:16Z</time>
      </trkpt>
      <trkpt lat="42.64582" lon="1.70271">
        <ele>1714.291</ele>
        <time>2021-08-06T07:13:18Z</time>
      </trkpt>
      <trkpt lat="42.6458" lon="1.7027">
        <ele>1714.337</ele>
        <time>2021-08-06T07:13:20Z</time>
      </trkpt>
      <trkpt lat="42.64578" lon="1.7027">
        <ele>1713.022</ele>
        <time>2021-08-06T07:13:22Z</time>
      </trkpt>
      <trkpt lat="42.64577" lon="1.70268">
        <ele>1712.72</ele>
        <time>2021-08-06T07:13:24Z</time>
      </trkpt>
      <trkpt lat="42.64575" lon="1.70267">
        <ele>1712.868</ele>
        <time>2021-08-06T07:13:26Z</time>
      </trkpt>
      <trkpt lat="42.64573" lon="1.70266">
        <ele>1712.637</ele>
        <time>2021-08-06T07:13:28Z</time>
      </trkpt>
      <trkpt lat="42.64571" lon="1.70265">
        <ele>1712.319</ele>
        <time>2021-08-06T07:13:30Z</time>
      </trkpt>
      <trkpt lat="42.64569" lon="1.70265">
        <ele>1710.604</ele>
        <time>2021-08-06T07:13:32Z</time>
      </trkpt>
      <trkpt lat="42.64566" lon="1.70265">
        <ele>1713.983</ele>
        <time>2021-08-06T07:13:34Z</time>
      </trkpt>
      <trkpt lat="42.64564" lon="1.70266">
        <ele>1715.547</ele>
        <time>2021-08-06T07:13:36Z</time>
      </trkpt>
      <trkpt lat="42.64562" lon="1.70267">
        <ele>1715.978</ele>
        <time>2021-08-06T07:13:38Z</time>
      </trkpt>
      <trkpt lat="42.64561" lon="1.70267">
        <ele>1716.078</ele>
        <time>2021-08-06T07:13:40Z</time>
      </trkpt>
      <trkpt lat="42.64561" lon="1.70268">
        <ele>1716.204</ele>
        <time>2021-08-06T07:13:42Z</time>
      </trkpt>
      <trkpt lat="42.6456" lon="1.70267">
        <ele>1717.693</ele>
        <time>2021-08-06T07:13:44Z</time>
      </trkpt>
      <trkpt lat="42.64558" lon="1.70264">
        <ele>1718.439</ele>
        <time>2021-08-06T07:13:46Z</time>
      </trkpt>
      <trkpt lat="42.64555" lon="1.70263">
        <ele>1719.312</ele>
        <time>2021-08-06T07:13:48Z</time>
      </trkpt>
      <trkpt lat="42.64553" lon="1.70264">
        <ele>1721.054</ele>
        <time>2021-08-06T07:13:50Z</time>
      </trkpt>
      <trkpt lat="42.64552" lon="1.70266">
        <ele>1720.98</ele>
        <time>2021-08-06T07:13:52Z</time>
      </trkpt>
      <trkpt lat="42.6455" lon="1.70267">
        <ele>1721.477</ele>
        <time>2021-08-06T07:13:54Z</time>
      </trkpt>
      <trkpt lat="42.64549" lon="1.70265">
        <ele>1722.561</ele>
        <time>2021-08-06T07:13:56Z</time>
      </trkpt>
      <trkpt lat="42.64547" lon="1.70263">
        <ele>1722.498</ele>
        <time>2021-08-06T07:13:58Z</time>
      </trkpt>
      <trkpt lat="42.64546" lon="1.70261">
        <ele>1723.274</ele>
        <time>2021-08-06T07:14:00Z</time>
      </trkpt>
      <trkpt lat="42.64545" lon="1.70258">
        <ele>1726.254</ele>
        <time>2021-08-06T07:14:02Z</time>
      </trkpt>
      <trkpt lat="42.64543" lon="1.70258">
        <ele>1726.923</ele>
        <time>2021-08-06T07:14:04Z</time>
      </trkpt>
      <trkpt lat="42.64543" lon="1.70257">
        <ele>1727.353</ele>
        <time>2021-08-06T07:14:06Z</time>
      </trkpt>
      <trkpt lat="42.64545" lon="1.7026">
        <ele>1725.426</ele>
        <time>2021-08-06T07:14:08Z</time>
      </trkpt>
      <trkpt lat="42.64545" lon="1.7026">
        <ele>1725.733</ele>
        <time>2021-08-06T07:14:10Z</time>
      </trkpt>
      <trkpt lat="42.64544" lon="1.7026">
        <ele>1725.853</ele>
        <time>2021-08-06T07:14:12Z</time>
      </trkpt>
      <trkpt lat="42.64545" lon="1.7026">
        <ele>1725.927</ele>
        <time>2021-08-06T07:14:14Z</time>
      </trkpt>
      <trkpt lat="42.64545" lon="1.7026">
        <ele>1725.907</ele>
        <time>2021-08-06T07:14:16Z</time>
      </trkpt>
      <trkpt lat="42.64544" lon="1.7026">
        <ele>1724.854</ele>
        <time>2021-08-06T07:14:18Z</time>
      </trkpt>
      <trkpt lat="42.64544" lon="1.7026">
        <ele>1724.684</ele>
        <time>2021-08-06T07:14:20Z</time>
      </trkpt>
      <trkpt lat="42.64543" lon="1.70259">
        <ele>1725.866</ele>
        <time>2021-08-06T07:14:22Z</time>
      </trkpt>
      <trkpt lat="42.64543" lon="1.70259">
        <ele>1726.873</ele>
        <time>2021-08-06T07:14:24Z</time>
      </trkpt>
      <trkpt lat="42.64543" lon="1.70259">
        <ele>1726.823</ele>
        <time>2021-08-06T07:14:26Z</time>
      </trkpt>
      <trkpt lat="42.64543" lon="1.70259">
        <ele>1726.094</ele>
        <time>2021-08-06T07:14:28Z</time>
      </trkpt>
      <trkpt lat="42.64542" lon="1.70259">
        <ele>1725.745</ele>
        <time>2021-08-06T07:14:30Z</time>
      </trkpt>
      <trkpt lat="42.64541" lon="1.70259">
        <ele>1724.494</ele>
        <time>2021-08-06T07:14:32Z</time>
      </trkpt>
      <trkpt lat="42.6454" lon="1.70258">
        <ele>1723.57</ele>
        <time>2021-08-06T07:14:34Z</time>
      </trkpt>
      <trkpt lat="42.64538" lon="1.70256">
        <ele>1724.244</ele>
        <time>2021-08-06T07:14:36Z</time>
      </trkpt>
      <trkpt lat="42.64537" lon="1.70259">
        <ele>1723.651</ele>
        <time>2021-08-06T07:14:38Z</time>
      </trkpt>
      <trkpt lat="42.64536" lon="1.7026">
        <ele>1722.5</ele>
        <time>2021-08-06T07:14:40Z</time>
      </trkpt>
      <trkpt lat="42.64534" lon="1.70258">
        <ele>1722.354</ele>
        <time>2021-08-06T07:14:42Z</time>
      </trkpt>
      <trkpt lat="42.64533" lon="1.70258">
        <ele>1721.692</ele>
        <time>2021-08-06T07:14:44Z</time>
      </trkpt>
      <trkpt lat="42.64531" lon="1.70258">
        <ele>1721.882</ele>
        <time>2021-08-06T07:14:46Z</time>
      </trkpt>
      <trkpt lat="42.6453" lon="1.70259">
        <ele>1721.941</ele>
        <time>2021-08-06T07:14:48Z</time>
      </trkpt>
      <trkpt lat="42.64528" lon="1.70259">
        <ele>1721.513</ele>
        <time>2021-08-06T07:14:50Z</time>
      </trkpt>
      <trkpt lat="42.64527" lon="1.70259">
        <ele>1720.629</ele>
        <time>2021-08-06T07:14:52Z</time>
      </trkpt>
      <trkpt lat="42.64526" lon="1.70257">
        <ele>1719.469</ele>
        <time>2021-08-06T07:14:54Z</time>
      </trkpt>
      <trkpt lat="42.64524" lon="1.70256">
        <ele>1718.563</ele>
        <time>2021-08-06T07:14:56Z</time>
      </trkpt>
      <trkpt lat="42.64523" lon="1.70257">
        <ele>1716.092</ele>
        <time>2021-08-06T07:14:58Z</time>
      </trkpt>
      <trkpt lat="42.64522" lon="1.70258">
        <ele>1714.195</ele>
        <time>2021-08-06T07:15:00Z</time>
      </trkpt>
      <trkpt lat="42.6452" lon="1.70259">
        <ele>1713.157</ele>
        <time>2021-08-06T07:15:02Z</time>
      </trkpt>
      <trkpt lat="42.64518" lon="1.70259">
        <ele>1713.028</ele>
        <time>2021-08-06T07:15:04Z</time>
      </trkpt>
      <trkpt lat="42.64516" lon="1.7026">
        <ele>1711.968</ele>
        <time>2021-08-06T07:15:06Z</time>
      </trkpt>
      <trkpt lat="42.64514" lon="1.70261">
        <ele>1711.713</ele>
        <time>2021-08-06T07:15:08Z</time>
      </trkpt>
      <trkpt lat="42.64513" lon="1.70263">
        <ele>1710.779</ele>
        <time>2021-08-06T07:15:10Z</time>
      </trkpt>
      <trkpt lat="42.64511" lon="1.70262">
        <ele>1712.457</ele>
        <time>2021-08-06T07:15:12Z</time>
      </trkpt>
      <trkpt lat="42.64509" lon="1.70261">
        <ele>1712.732</ele>
        <time>2021-08-06T07:15:14Z</time>
      </trkpt>
      <trkpt lat="42.64507" lon="1.70262">
        <ele>1715.07</ele>
        <time>2021-08-06T07:15:16Z</time>
      </trkpt>
      <trkpt lat="42.64506" lon="1.70265">
        <ele>1714.748</ele>
        <time>2021-08-06T07:15:18Z</time>
      </trkpt>
      <trkpt lat="42.64506" lon="1.70267">
        <ele>1714.8</ele>
        <time>2021-08-06T07:15:20Z</time>
      </trkpt>
      <trkpt lat="42.64507" lon="1.70268">
        <ele>1712.852</ele>
        <time>2021-08-06T07:15:22Z</time>
      </trkpt>
      <trkpt lat="42.64507" lon="1.70268">
        <ele>1712.842</ele>
        <time>2021-08-06T07:15:24Z</time>
      </trkpt>
      <trkpt lat="42.64507" lon="1.70268">
        <ele>1712.836</ele>
        <time>2021-08-06T07:15:26Z</time>
      </trkpt>
      <trkpt lat="42.64507" lon="1.70268">
        <ele>1712.855</ele>
        <time>2021-08-06T07:15:28Z</time>
      </trkpt>
      <trkpt lat="42.64506" lon="1.70268">
        <ele>1712.459</ele>
        <time>2021-08-06T07:15:30Z</time>
      </trkpt>
      <trkpt lat="42.64504" lon="1.70269">
        <ele>1715.069</ele>
        <time>2021-08-06T07:15:32Z</time>
      </trkpt>
      <trkpt lat="42.64503" lon="1.7027">
        <ele>1715.319</ele>
        <time>2021-08-06T07:15:34Z</time>
      </trkpt>
      <trkpt lat="42.64501" lon="1.70269">
        <ele>1715.321</ele>
        <time>2021-08-06T07:15:36Z</time>
      </trkpt>
      <trkpt lat="42.64498" lon="1.70268">
        <ele>1716.548</ele>
        <time>2021-08-06T07:15:38Z</time>
      </trkpt>
      <trkpt lat="42.64496" lon="1.70267">
        <ele>1716.467</ele>
        <time>2021-08-06T07:15:40Z</time>
      </trkpt>
      <trkpt lat="42.64493" lon="1.70266">
        <ele>1716.035</ele>
        <time>2021-08-06T07:15:42Z</time>
      </trkpt>
      <trkpt lat="42.64492" lon="1.70266">
        <ele>1713.935</ele>
        <time>2021-08-06T07:15:44Z</time>
      </trkpt>
      <trkpt lat="42.6449" lon="1.70265">
        <ele>1714.711</ele>
        <time>2021-08-06T07:15:46Z</time>
      </trkpt>
      <trkpt lat="42.64489" lon="1.70265">
        <ele>1713.837</ele>
        <time>2021-08-06T07:15:48Z</time>
      </trkpt>
      <trkpt lat="42.64487" lon="1.70265">
        <ele>1714.715</ele>
        <time>2021-08-06T07:15:50Z</time>
      </trkpt>
      <trkpt lat="42.64485" lon="1.70265">
        <ele>1715.365</ele>
        <time>2021-08-06T07:15:52Z</time>
      </trkpt>
      <trkpt lat="42.64483" lon="1.70265">
        <ele>1714.506</ele>
        <time>2021-08-06T07:15:54Z</time>
      </trkpt>
      <trkpt lat="42.64482" lon="1.70266">
        <ele>1715.855</ele>
        <time>2021-08-06T07:15:56Z</time>
      </trkpt>
      <trkpt lat="42.64481" lon="1.70267">
        <ele>1716.131</ele>
        <time>2021-08-06T07:15:58Z</time>
      </trkpt>
      <trkpt lat="42.6448" lon="1.70269">
        <ele>1716.111</ele>
        <time>2021-08-06T07:16:00Z</time>
      </trkpt>
      <trkpt lat="42.6448" lon="1.70272">
        <ele>1716.08</ele>
        <time>2021-08-06T07:16:02Z</time>
      </trkpt>
      <trkpt lat="42.64479" lon="1.70273">
        <ele>1715.199</ele>
        <time>2021-08-06T07:16:04Z</time>
      </trkpt>
      <trkpt lat="42.64478" lon="1.70274">
        <ele>1713.843</ele>
        <time>2021-08-06T07:16:06Z</time>
      </trkpt>
      <trkpt lat="42.64476" lon="1.70274">
        <ele>1713.57</ele>
        <time>2021-08-06T07:16:08Z</time>
      </trkpt>
      <trkpt lat="42.64474" lon="1.70273">
        <ele>1713.121</ele>
        <time>2021-08-06T07:16:10Z</time>
      </trkpt>
      <trkpt lat="42.64473" lon="1.70272">
        <ele>1712.46</ele>
        <time>2021-08-06T07:16:12Z</time>
      </trkpt>
      <trkpt lat="42.64472" lon="1.7027">
        <ele>1712.166</ele>
        <time>2021-08-06T07:16:14Z</time>
      </trkpt>
      <trkpt lat="42.6447" lon="1.7027">
        <ele>1710.698</ele>
        <time>2021-08-06T07:16:16Z</time>
      </trkpt>
      <trkpt lat="42.64469" lon="1.7027">
        <ele>1709.289</ele>
        <time>2021-08-06T07:16:18Z</time>
      </trkpt>
      <trkpt lat="42.64467" lon="1.70269">
        <ele>1709.715</ele>
        <time>2021-08-06T07:16:20Z</time>
      </trkpt>
      <trkpt lat="42.64465" lon="1.70269">
        <ele>1709.346</ele>
        <time>2021-08-06T07:16:22Z</time>
      </trkpt>
      <trkpt lat="42.64463" lon="1.70269">
        <ele>1709.149</ele>
        <time>2021-08-06T07:16:24Z</time>
      </trkpt>
      <trkpt lat="42.64461" lon="1.70268">
        <ele>1710.241</ele>
        <time>2021-08-06T07:16:26Z</time>
      </trkpt>
      <trkpt lat="42.64459" lon="1.70268">
        <ele>1710.856</ele>
        <time>2021-08-06T07:16:28Z</time>
      </trkpt>
      <trkpt lat="42.64457" lon="1.70268">
        <ele>1710.332</ele>
        <time>2021-08-06T07:16:30Z</time>
      </trkpt>
      <trkpt lat="42.64455" lon="1.70269">
        <ele>1711.31</ele>
        <time>2021-08-06T07:16:32Z</time>
      </trkpt>
      <trkpt lat="42.64453" lon="1.7027">
        <ele>1711.103</ele>
        <time>2021-08-06T07:16:34Z</time>
      </trkpt>
      <trkpt lat="42.64451" lon="1.7027">
        <ele>1711.147</ele>
        <time>2021-08-06T07:16:36Z</time>
      </trkpt>
      <trkpt lat="42.64449" lon="1.70271">
        <ele>1711.394</ele>
        <time>2021-08-06T07:16:38Z</time>
      </trkpt>
      <trkpt lat="42.64446" lon="1.70271">
        <ele>1711.63</ele>
        <time>2021-08-06T07:16:40Z</time>
      </trkpt>
      <trkpt lat="42.64444" lon="1.70271">
        <ele>1712.708</ele>
        <time>2021-08-06T07:16:42Z</time>
      </trkpt>
      <trkpt lat="42.64442" lon="1.70271">
        <ele>1712.922</ele>
        <time>2021-08-06T07:16:44Z</time>
      </trkpt>
      <trkpt lat="42.6444" lon="1.70271">
        <ele>1712.892</ele>
        <time>2021-08-06T07:16:46Z</time>
      </trkpt>
      <trkpt lat="42.64438" lon="1.70272">
        <ele>1713.144</ele>
        <time>2021-08-06T07:16:48Z</time>
      </trkpt>
      <trkpt lat="42.64436" lon="1.70272">
        <ele>1713.025</ele>
        <time>2021-08-06T07:16:50Z</time>
      </trkpt>
      <trkpt lat="42.64434" lon="1.70273">
        <ele>1712.041</ele>
        <time>2021-08-06T07:16:52Z</time>
      </trkpt>
      <trkpt lat="42.64433" lon="1.70274">
        <ele>1712.761</ele>
        <time>2021-08-06T07:16:54Z</time>
      </trkpt>
      <trkpt lat="42.64431" lon="1.70275">
        <ele>1712.783</ele>
        <time>2021-08-06T07:16:56Z</time>
      </trkpt>
      <trkpt lat="42.64428" lon="1.70274">
        <ele>1715.936</ele>
        <time>2021-08-06T07:16:58Z</time>
      </trkpt>
      <trkpt lat="42.64426" lon="1.70274">
        <ele>1716.715</ele>
        <time>2021-08-06T07:17:00Z</time>
      </trkpt>
      <trkpt lat="42.64424" lon="1.70275">
        <ele>1716.853</ele>
        <time>2021-08-06T07:17:02Z</time>
      </trkpt>
      <trkpt lat="42.64422" lon="1.70276">
        <ele>1716.823</ele>
        <time>2021-08-06T07:17:04Z</time>
      </trkpt>
      <trkpt lat="42.64419" lon="1.70276">
        <ele>1717.317</ele>
        <time>2021-08-06T07:17:06Z</time>
      </trkpt>
      <trkpt lat="42.64417" lon="1.70276">
        <ele>1717.374</ele>
        <time>2021-08-06T07:17:08Z</time>
      </trkpt>
      <trkpt lat="42.64415" lon="1.70275">
        <ele>1717.985</ele>
        <time>2021-08-06T07:17:10Z</time>
      </trkpt>
      <trkpt lat="42.64414" lon="1.70275">
        <ele>1717.625</ele>
        <time>2021-08-06T07:17:12Z</time>
      </trkpt>
      <trkpt lat="42.64413" lon="1.70274">
        <ele>1717.553</ele>
        <time>2021-08-06T07:17:14Z</time>
      </trkpt>
      <trkpt lat="42.64411" lon="1.70273">
        <ele>1716.872</ele>
        <time>2021-08-06T07:17:16Z</time>
      </trkpt>
      <trkpt lat="42.64409" lon="1.70273">
        <ele>1715.734</ele>
        <time>2021-08-06T07:17:18Z</time>
      </trkpt>
      <trkpt lat="42.64408" lon="1.70272">
        <ele>1715.531</ele>
        <time>2021-08-06T07:17:20Z</time>
      </trkpt>
      <trkpt lat="42.64406" lon="1.70272">
        <ele>1716.125</ele>
        <time>2021-08-06T07:17:22Z</time>
      </trkpt>
      <trkpt lat="42.64404" lon="1.70271">
        <ele>1717.172</ele>
        <time>2021-08-06T07:17:24Z</time>
      </trkpt>
      <trkpt lat="42.64402" lon="1.70273">
        <ele>1717.437</ele>
        <time>2021-08-06T07:17:26Z</time>
      </trkpt>
      <trkpt lat="42.64401" lon="1.70273">
        <ele>1717.089</ele>
        <time>2021-08-06T07:17:28Z</time>
      </trkpt>
      <trkpt lat="42.64399" lon="1.70273">
        <ele>1717.217</ele>
        <time>2021-08-06T07:17:30Z</time>
      </trkpt>
      <trkpt lat="42.64397" lon="1.70274">
        <ele>1717.541</ele>
        <time>2021-08-06T07:17:32Z</time>
      </trkpt>
      <trkpt lat="42.64395" lon="1.70274">
        <ele>1717.919</ele>
        <time>2021-08-06T07:17:34Z</time>
      </trkpt>
      <trkpt lat="42.64393" lon="1.70274">
        <ele>1718.619</ele>
        <time>2021-08-06T07:17:36Z</time>
      </trkpt>
      <trkpt lat="42.64391" lon="1.70274">
        <ele>1718.13</ele>
        <time>2021-08-06T07:17:38Z</time>
      </trkpt>
      <trkpt lat="42.64389" lon="1.70274">
        <ele>1719.081</ele>
        <time>2021-08-06T07:17:40Z</time>
      </trkpt>
      <trkpt lat="42.64387" lon="1.70273">
        <ele>1719.807</ele>
        <time>2021-08-06T07:17:42Z</time>
      </trkpt>
      <trkpt lat="42.64385" lon="1.70273">
        <ele>1720.68</ele>
        <time>2021-08-06T07:17:44Z</time>
      </trkpt>
      <trkpt lat="42.64382" lon="1.70273">
        <ele>1721.411</ele>
        <time>2021-08-06T07:17:46Z</time>
      </trkpt>
      <trkpt lat="42.6438" lon="1.70273">
        <ele>1721.427</ele>
        <time>2021-08-06T07:17:48Z</time>
      </trkpt>
      <trkpt lat="42.64378" lon="1.70273">
        <ele>1721.941</ele>
        <time>2021-08-06T07:17:50Z</time>
      </trkpt>
      <trkpt lat="42.64376" lon="1.70274">
        <ele>1722.454</ele>
        <time>2021-08-06T07:17:52Z</time>
      </trkpt>
      <trkpt lat="42.64374" lon="1.70274">
        <ele>1722.624</ele>
        <time>2021-08-06T07:17:54Z</time>
      </trkpt>
      <trkpt lat="42.64372" lon="1.70275">
        <ele>1722.974</ele>
        <time>2021-08-06T07:17:56Z</time>
      </trkpt>
      <trkpt lat="42.6437" lon="1.70275">
        <ele>1723.416</ele>
        <time>2021-08-06T07:17:58Z</time>
      </trkpt>
      <trkpt lat="42.64368" lon="1.70276">
        <ele>1723.656</ele>
        <time>2021-08-06T07:18:00Z</time>
      </trkpt>
      <trkpt lat="42.64367" lon="1.70277">
        <ele>1723.36</ele>
        <time>2021-08-06T07:18:02Z</time>
      </trkpt>
      <trkpt lat="42.64366" lon="1.70278">
        <ele>1723.898</ele>
        <time>2021-08-06T07:18:04Z</time>
      </trkpt>
      <trkpt lat="42.64364" lon="1.70278">
        <ele>1723.817</ele>
        <time>2021-08-06T07:18:06Z</time>
      </trkpt>
      <trkpt lat="42.64362" lon="1.70279">
        <ele>1723.941</ele>
        <time>2021-08-06T07:18:08Z</time>
      </trkpt>
      <trkpt lat="42.6436" lon="1.70279">
        <ele>1724.456</ele>
        <time>2021-08-06T07:18:10Z</time>
      </trkpt>
      <trkpt lat="42.64358" lon="1.70279">
        <ele>1725.842</ele>
        <time>2021-08-06T07:18:12Z</time>
      </trkpt>
      <trkpt lat="42.64357" lon="1.7028">
        <ele>1725.977</ele>
        <time>2021-08-06T07:18:14Z</time>
      </trkpt>
      <trkpt lat="42.64355" lon="1.70281">
        <ele>1724.635</ele>
        <time>2021-08-06T07:18:16Z</time>
      </trkpt>
      <trkpt lat="42.64353" lon="1.70282">
        <ele>1725.157</ele>
        <time>2021-08-06T07:18:18Z</time>
      </trkpt>
      <trkpt lat="42.64352" lon="1.70284">
        <ele>1726.075</ele>
        <time>2021-08-06T07:18:20Z</time>
      </trkpt>
      <trkpt lat="42.64349" lon="1.70284">
        <ele>1726.978</ele>
        <time>2021-08-06T07:18:22Z</time>
      </trkpt>
      <trkpt lat="42.64348" lon="1.70285">
        <ele>1727.056</ele>
        <time>2021-08-06T07:18:24Z</time>
      </trkpt>
      <trkpt lat="42.64346" lon="1.70286">
        <ele>1727.434</ele>
        <time>2021-08-06T07:18:26Z</time>
      </trkpt>
      <trkpt lat="42.64345" lon="1.70287">
        <ele>1727.041</ele>
        <time>2021-08-06T07:18:28Z</time>
      </trkpt>
      <trkpt lat="42.64344" lon="1.70287">
        <ele>1727.434</ele>
        <time>2021-08-06T07:18:30Z</time>
      </trkpt>
      <trkpt lat="42.64343" lon="1.70287">
        <ele>1728.16</ele>
        <time>2021-08-06T07:18:32Z</time>
      </trkpt>
      <trkpt lat="42.64342" lon="1.70288">
        <ele>1728.051</ele>
        <time>2021-08-06T07:18:34Z</time>
      </trkpt>
      <trkpt lat="42.6434" lon="1.70289">
        <ele>1729.153</ele>
        <time>2021-08-06T07:18:36Z</time>
      </trkpt>
      <trkpt lat="42.64339" lon="1.70289">
        <ele>1729.75</ele>
        <time>2021-08-06T07:18:38Z</time>
      </trkpt>
      <trkpt lat="42.64338" lon="1.70291">
        <ele>1730.96</ele>
        <time>2021-08-06T07:18:40Z</time>
      </trkpt>
      <trkpt lat="42.64336" lon="1.70291">
        <ele>1731.229</ele>
        <time>2021-08-06T07:18:42Z</time>
      </trkpt>
      <trkpt lat="42.64335" lon="1.70293">
        <ele>1730.286</ele>
        <time>2021-08-06T07:18:44Z</time>
      </trkpt>
      <trkpt lat="42.64333" lon="1.70294">
        <ele>1729.582</ele>
        <time>2021-08-06T07:18:46Z</time>
      </trkpt>
      <trkpt lat="42.64332" lon="1.70295">
        <ele>1729.079</ele>
        <time>2021-08-06T07:18:48Z</time>
      </trkpt>
      <trkpt lat="42.6433" lon="1.70296">
        <ele>1728.406</ele>
        <time>2021-08-06T07:18:50Z</time>
      </trkpt>
      <trkpt lat="42.64328" lon="1.70297">
        <ele>1728.851</ele>
        <time>2021-08-06T07:18:52Z</time>
      </trkpt>
      <trkpt lat="42.64327" lon="1.70298">
        <ele>1730.219</ele>
        <time>2021-08-06T07:18:54Z</time>
      </trkpt>
      <trkpt lat="42.64326" lon="1.70299">
        <ele>1730.246</ele>
        <time>2021-08-06T07:18:56Z</time>
      </trkpt>
      <trkpt lat="42.64325" lon="1.70301">
        <ele>1729.596</ele>
        <time>2021-08-06T07:18:58Z</time>
      </trkpt>
      <trkpt lat="42.64323" lon="1.70301">
        <ele>1729.443</ele>
        <time>2021-08-06T07:19:00Z</time>
      </trkpt>
      <trkpt lat="42.64322" lon="1.70302">
        <ele>1729.751</ele>
        <time>2021-08-06T07:19:02Z</time>
      </trkpt>
      <trkpt lat="42.64321" lon="1.70303">
        <ele>1728.997</ele>
        <time>2021-08-06T07:19:04Z</time>
      </trkpt>
      <trkpt lat="42.64319" lon="1.70304">
        <ele>1729.943</ele>
        <time>2021-08-06T07:19:06Z</time>
      </trkpt>
      <trkpt lat="42.64318" lon="1.70307">
        <ele>1730.12</ele>
        <time>2021-08-06T07:19:08Z</time>
      </trkpt>
      <trkpt lat="42.64317" lon="1.70308">
        <ele>1730.546</ele>
        <time>2021-08-06T07:19:10Z</time>
      </trkpt>
      <trkpt lat="42.64316" lon="1.7031">
        <ele>1730.232</ele>
        <time>2021-08-06T07:19:12Z</time>
      </trkpt>
      <trkpt lat="42.64316" lon="1.70311">
        <ele>1730.762</ele>
        <time>2021-08-06T07:19:14Z</time>
      </trkpt>
      <trkpt lat="42.64314" lon="1.70313">
        <ele>1731.027</ele>
        <time>2021-08-06T07:19:16Z</time>
      </trkpt>
      <trkpt lat="42.64313" lon="1.70315">
        <ele>1730.48</ele>
        <time>2021-08-06T07:19:18Z</time>
      </trkpt>
      <trkpt lat="42.6431" lon="1.70316">
        <ele>1730.192</ele>
        <time>2021-08-06T07:19:20Z</time>
      </trkpt>
      <trkpt lat="42.64308" lon="1.70316">
        <ele>1731.856</ele>
        <time>2021-08-06T07:19:22Z</time>
      </trkpt>
      <trkpt lat="42.64306" lon="1.70315">
        <ele>1732.41</ele>
        <time>2021-08-06T07:19:24Z</time>
      </trkpt>
      <trkpt lat="42.64305" lon="1.70314">
        <ele>1731.384</ele>
        <time>2021-08-06T07:19:26Z</time>
      </trkpt>
      <trkpt lat="42.64303" lon="1.70313">
        <ele>1732.362</ele>
        <time>2021-08-06T07:19:28Z</time>
      </trkpt>
      <trkpt lat="42.64301" lon="1.70314">
        <ele>1731.828</ele>
        <time>2021-08-06T07:19:30Z</time>
      </trkpt>
      <trkpt lat="42.64299" lon="1.70314">
        <ele>1733.147</ele>
        <time>2021-08-06T07:19:32Z</time>
      </trkpt>
      <trkpt lat="42.64297" lon="1.70313">
        <ele>1733.112</ele>
        <time>2021-08-06T07:19:34Z</time>
      </trkpt>
      <trkpt lat="42.64295" lon="1.70313">
        <ele>1733.506</ele>
        <time>2021-08-06T07:19:36Z</time>
      </trkpt>
      <trkpt lat="42.64293" lon="1.70313">
        <ele>1734.686</ele>
        <time>2021-08-06T07:19:38Z</time>
      </trkpt>
      <trkpt lat="42.64291" lon="1.70312">
        <ele>1734.187</ele>
        <time>2021-08-06T07:19:40Z</time>
      </trkpt>
      <trkpt lat="42.6429" lon="1.70312">
        <ele>1734.529</ele>
        <time>2021-08-06T07:19:42Z</time>
      </trkpt>
      <trkpt lat="42.64288" lon="1.70313">
        <ele>1734.656</ele>
        <time>2021-08-06T07:19:44Z</time>
      </trkpt>
      <trkpt lat="42.64287" lon="1.70314">
        <ele>1733.785</ele>
        <time>2021-08-06T07:19:46Z</time>
      </trkpt>
      <trkpt lat="42.64284" lon="1.70313">
        <ele>1733.945</ele>
        <time>2021-08-06T07:19:48Z</time>
      </trkpt>
      <trkpt lat="42.64283" lon="1.70313">
        <ele>1734.528</ele>
        <time>2021-08-06T07:19:50Z</time>
      </trkpt>
      <trkpt lat="42.64281" lon="1.70314">
        <ele>1733.164</ele>
        <time>2021-08-06T07:19:52Z</time>
      </trkpt>
      <trkpt lat="42.6428" lon="1.70315">
        <ele>1733.408</ele>
        <time>2021-08-06T07:19:54Z</time>
      </trkpt>
      <trkpt lat="42.64279" lon="1.70316">
        <ele>1735.117</ele>
        <time>2021-08-06T07:19:56Z</time>
      </trkpt>
      <trkpt lat="42.64278" lon="1.70316">
        <ele>1735.324</ele>
        <time>2021-08-06T07:19:58Z</time>
      </trkpt>
      <trkpt lat="42.64276" lon="1.70316">
        <ele>1736.086</ele>
        <time>2021-08-06T07:20:00Z</time>
      </trkpt>
      <trkpt lat="42.64275" lon="1.70316">
        <ele>1735.016</ele>
        <time>2021-08-06T07:20:02Z</time>
      </trkpt>
      <trkpt lat="42.64273" lon="1.70315">
        <ele>1735.565</ele>
        <time>2021-08-06T07:20:04Z</time>
      </trkpt>
      <trkpt lat="42.64272" lon="1.70316">
        <ele>1735.641</ele>
        <time>2021-08-06T07:20:06Z</time>
      </trkpt>
      <trkpt lat="42.64272" lon="1.70318">
        <ele>1736.9</ele>
        <time>2021-08-06T07:20:08Z</time>
      </trkpt>
      <trkpt lat="42.64271" lon="1.7032">
        <ele>1737.646</ele>
        <time>2021-08-06T07:20:10Z</time>
      </trkpt>
      <trkpt lat="42.64271" lon="1.70321">
        <ele>1737.545</ele>
        <time>2021-08-06T07:20:12Z</time>
      </trkpt>
      <trkpt lat="42.64269" lon="1.70321">
        <ele>1736.23</ele>
        <time>2021-08-06T07:20:14Z</time>
      </trkpt>
      <trkpt lat="42.64268" lon="1.70321">
        <ele>1737.182</ele>
        <time>2021-08-06T07:20:16Z</time>
      </trkpt>
      <trkpt lat="42.64267" lon="1.70321">
        <ele>1736.576</ele>
        <time>2021-08-06T07:20:18Z</time>
      </trkpt>
      <trkpt lat="42.64266" lon="1.7032">
        <ele>1737.002</ele>
        <time>2021-08-06T07:20:20Z</time>
      </trkpt>
      <trkpt lat="42.64265" lon="1.70319">
        <ele>1737.347</ele>
        <time>2021-08-06T07:20:22Z</time>
      </trkpt>
      <trkpt lat="42.64263" lon="1.70318">
        <ele>1738.187</ele>
        <time>2021-08-06T07:20:24Z</time>
      </trkpt>
      <trkpt lat="42.64262" lon="1.70318">
        <ele>1737.989</ele>
        <time>2021-08-06T07:20:26Z</time>
      </trkpt>
      <trkpt lat="42.6426" lon="1.70318">
        <ele>1739.076</ele>
        <time>2021-08-06T07:20:28Z</time>
      </trkpt>
      <trkpt lat="42.64258" lon="1.70318">
        <ele>1740.518</ele>
        <time>2021-08-06T07:20:30Z</time>
      </trkpt>
      <trkpt lat="42.64256" lon="1.70317">
        <ele>1740.034</ele>
        <time>2021-08-06T07:20:32Z</time>
      </trkpt>
      <trkpt lat="42.64254" lon="1.70318">
        <ele>1739.808</ele>
        <time>2021-08-06T07:20:34Z</time>
      </trkpt>
      <trkpt lat="42.64253" lon="1.70317">
        <ele>1739.438</ele>
        <time>2021-08-06T07:20:36Z</time>
      </trkpt>
      <trkpt lat="42.64251" lon="1.70318">
        <ele>1740.055</ele>
        <time>2021-08-06T07:20:38Z</time>
      </trkpt>
      <trkpt lat="42.64249" lon="1.70318">
        <ele>1740.292</ele>
        <time>2021-08-06T07:20:40Z</time>
      </trkpt>
      <trkpt lat="42.64248" lon="1.70319">
        <ele>1740.756</ele>
        <time>2021-08-06T07:20:42Z</time>
      </trkpt>
      <trkpt lat="42.64245" lon="1.7032">
        <ele>1741.858</ele>
        <time>2021-08-06T07:20:44Z</time>
      </trkpt>
      <trkpt lat="42.64243" lon="1.70322">
        <ele>1741.964</ele>
        <time>2021-08-06T07:20:46Z</time>
      </trkpt>
      <trkpt lat="42.64241" lon="1.70323">
        <ele>1744.226</ele>
        <time>2021-08-06T07:20:48Z</time>
      </trkpt>
      <trkpt lat="42.6424" lon="1.70323">
        <ele>1743.072</ele>
        <time>2021-08-06T07:20:50Z</time>
      </trkpt>
      <trkpt lat="42.64239" lon="1.70323">
        <ele>1744.388</ele>
        <time>2021-08-06T07:20:52Z</time>
      </trkpt>
      <trkpt lat="42.64238" lon="1.70324">
        <ele>1744.992</ele>
        <time>2021-08-06T07:20:54Z</time>
      </trkpt>
      <trkpt lat="42.64237" lon="1.70325">
        <ele>1744.681</ele>
        <time>2021-08-06T07:20:56Z</time>
      </trkpt>
      <trkpt lat="42.64236" lon="1.70327">
        <ele>1744.708</ele>
        <time>2021-08-06T07:20:58Z</time>
      </trkpt>
      <trkpt lat="42.64236" lon="1.70328">
        <ele>1745.428</ele>
        <time>2021-08-06T07:21:00Z</time>
      </trkpt>
      <trkpt lat="42.64235" lon="1.70328">
        <ele>1744.869</ele>
        <time>2021-08-06T07:21:02Z</time>
      </trkpt>
      <trkpt lat="42.64234" lon="1.7033">
        <ele>1745.651</ele>
        <time>2021-08-06T07:21:04Z</time>
      </trkpt>
      <trkpt lat="42.64233" lon="1.70331">
        <ele>1745.907</ele>
        <time>2021-08-06T07:21:06Z</time>
      </trkpt>
      <trkpt lat="42.64232" lon="1.70332">
        <ele>1746.006</ele>
        <time>2021-08-06T07:21:08Z</time>
      </trkpt>
      <trkpt lat="42.6423" lon="1.70333">
        <ele>1746.054</ele>
        <time>2021-08-06T07:21:10Z</time>
      </trkpt>
      <trkpt lat="42.64229" lon="1.70334">
        <ele>1745.818</ele>
        <time>2021-08-06T07:21:12Z</time>
      </trkpt>
      <trkpt lat="42.64228" lon="1.70335">
        <ele>1746.564</ele>
        <time>2021-08-06T07:21:14Z</time>
      </trkpt>
      <trkpt lat="42.64226" lon="1.70336">
        <ele>1747.401</ele>
        <time>2021-08-06T07:21:16Z</time>
      </trkpt>
      <trkpt lat="42.64225" lon="1.70338">
        <ele>1747.831</ele>
        <time>2021-08-06T07:21:18Z</time>
      </trkpt>
      <trkpt lat="42.64223" lon="1.70339">
        <ele>1747.992</ele>
        <time>2021-08-06T07:21:20Z</time>
      </trkpt>
      <trkpt lat="42.64222" lon="1.7034">
        <ele>1748.118</ele>
        <time>2021-08-06T07:21:22Z</time>
      </trkpt>
      <trkpt lat="42.64221" lon="1.70341">
        <ele>1748.048</ele>
        <time>2021-08-06T07:21:24Z</time>
      </trkpt>
      <trkpt lat="42.64219" lon="1.70341">
        <ele>1748.055</ele>
        <time>2021-08-06T07:21:26Z</time>
      </trkpt>
      <trkpt lat="42.64218" lon="1.70343">
        <ele>1748.478</ele>
        <time>2021-08-06T07:21:28Z</time>
      </trkpt>
      <trkpt lat="42.64217" lon="1.70344">
        <ele>1748.228</ele>
        <time>2021-08-06T07:21:30Z</time>
      </trkpt>
      <trkpt lat="42.64215" lon="1.70344">
        <ele>1748.181</ele>
        <time>2021-08-06T07:21:32Z</time>
      </trkpt>
      <trkpt lat="42.64214" lon="1.70344">
        <ele>1748.463</ele>
        <time>2021-08-06T07:21:34Z</time>
      </trkpt>
      <trkpt lat="42.64213" lon="1.70345">
        <ele>1748.86</ele>
        <time>2021-08-06T07:21:36Z</time>
      </trkpt>
      <trkpt lat="42.64212" lon="1.70347">
        <ele>1749.683</ele>
        <time>2021-08-06T07:21:38Z</time>
      </trkpt>
      <trkpt lat="42.64212" lon="1.70349">
        <ele>1749.497</ele>
        <time>2021-08-06T07:21:40Z</time>
      </trkpt>
      <trkpt lat="42.64212" lon="1.70351">
        <ele>1749.061</ele>
        <time>2021-08-06T07:21:42Z</time>
      </trkpt>
      <trkpt lat="42.64211" lon="1.70352">
        <ele>1749.772</ele>
        <time>2021-08-06T07:21:44Z</time>
      </trkpt>
      <trkpt lat="42.64211" lon="1.70354">
        <ele>1750.147</ele>
        <time>2021-08-06T07:21:46Z</time>
      </trkpt>
      <trkpt lat="42.6421" lon="1.70355">
        <ele>1750.495</ele>
        <time>2021-08-06T07:21:48Z</time>
      </trkpt>
      <trkpt lat="42.64209" lon="1.70357">
        <ele>1750.613</ele>
        <time>2021-08-06T07:21:50Z</time>
      </trkpt>
      <trkpt lat="42.64208" lon="1.70358">
        <ele>1752.364</ele>
        <time>2021-08-06T07:21:52Z</time>
      </trkpt>
      <trkpt lat="42.64207" lon="1.7036">
        <ele>1751.981</ele>
        <time>2021-08-06T07:21:54Z</time>
      </trkpt>
      <trkpt lat="42.64206" lon="1.70361">
        <ele>1751.367</ele>
        <time>2021-08-06T07:21:56Z</time>
      </trkpt>
      <trkpt lat="42.64205" lon="1.70363">
        <ele>1752.768</ele>
        <time>2021-08-06T07:21:58Z</time>
      </trkpt>
      <trkpt lat="42.64204" lon="1.70364">
        <ele>1751.617</ele>
        <time>2021-08-06T07:22:00Z</time>
      </trkpt>
      <trkpt lat="42.64203" lon="1.70365">
        <ele>1751.515</ele>
        <time>2021-08-06T07:22:02Z</time>
      </trkpt>
      <trkpt lat="42.64202" lon="1.70367">
        <ele>1751.989</ele>
        <time>2021-08-06T07:22:04Z</time>
      </trkpt>
      <trkpt lat="42.64201" lon="1.70369">
        <ele>1751.94</ele>
        <time>2021-08-06T07:22:06Z</time>
      </trkpt>
      <trkpt lat="42.64201" lon="1.70371">
        <ele>1751.757</ele>
        <time>2021-08-06T07:22:08Z</time>
      </trkpt>
      <trkpt lat="42.64201" lon="1.70373">
        <ele>1752.495</ele>
        <time>2021-08-06T07:22:10Z</time>
      </trkpt>
      <trkpt lat="42.64201" lon="1.70374">
        <ele>1752.693</ele>
        <time>2021-08-06T07:22:12Z</time>
      </trkpt>
      <trkpt lat="42.64201" lon="1.70376">
        <ele>1752.696</ele>
        <time>2021-08-06T07:22:14Z</time>
      </trkpt>
      <trkpt lat="42.64202" lon="1.70378">
        <ele>1753.549</ele>
        <time>2021-08-06T07:22:16Z</time>
      </trkpt>
      <trkpt lat="42.64203" lon="1.7038">
        <ele>1753.221</ele>
        <time>2021-08-06T07:22:18Z</time>
      </trkpt>
      <trkpt lat="42.64202" lon="1.70381">
        <ele>1753.693</ele>
        <time>2021-08-06T07:22:20Z</time>
      </trkpt>
      <trkpt lat="42.64201" lon="1.70382">
        <ele>1753.871</ele>
        <time>2021-08-06T07:22:22Z</time>
      </trkpt>
      <trkpt lat="42.64201" lon="1.70384">
        <ele>1754.676</ele>
        <time>2021-08-06T07:22:24Z</time>
      </trkpt>
      <trkpt lat="42.64199" lon="1.70385">
        <ele>1755.472</ele>
        <time>2021-08-06T07:22:26Z</time>
      </trkpt>
      <trkpt lat="42.64198" lon="1.70386">
        <ele>1755.077</ele>
        <time>2021-08-06T07:22:28Z</time>
      </trkpt>
      <trkpt lat="42.64197" lon="1.70387">
        <ele>1756.394</ele>
        <time>2021-08-06T07:22:30Z</time>
      </trkpt>
      <trkpt lat="42.64195" lon="1.70388">
        <ele>1756.488</ele>
        <time>2021-08-06T07:22:32Z</time>
      </trkpt>
      <trkpt lat="42.64195" lon="1.7039">
        <ele>1756.922</ele>
        <time>2021-08-06T07:22:34Z</time>
      </trkpt>
      <trkpt lat="42.64196" lon="1.70391">
        <ele>1756.15</ele>
        <time>2021-08-06T07:22:36Z</time>
      </trkpt>
      <trkpt lat="42.64195" lon="1.70393">
        <ele>1757.224</ele>
        <time>2021-08-06T07:22:38Z</time>
      </trkpt>
      <trkpt lat="42.64194" lon="1.70395">
        <ele>1757.054</ele>
        <time>2021-08-06T07:22:40Z</time>
      </trkpt>
      <trkpt lat="42.64193" lon="1.70396">
        <ele>1758.35</ele>
        <time>2021-08-06T07:22:42Z</time>
      </trkpt>
      <trkpt lat="42.64191" lon="1.70397">
        <ele>1759.387</ele>
        <time>2021-08-06T07:22:44Z</time>
      </trkpt>
      <trkpt lat="42.6419" lon="1.70398">
        <ele>1759.377</ele>
        <time>2021-08-06T07:22:46Z</time>
      </trkpt>
      <trkpt lat="42.64189" lon="1.70399">
        <ele>1759.645</ele>
        <time>2021-08-06T07:22:48Z</time>
      </trkpt>
      <trkpt lat="42.64188" lon="1.704">
        <ele>1759.196</ele>
        <time>2021-08-06T07:22:50Z</time>
      </trkpt>
      <trkpt lat="42.64187" lon="1.70402">
        <ele>1758.98</ele>
        <time>2021-08-06T07:22:52Z</time>
      </trkpt>
      <trkpt lat="42.64186" lon="1.70403">
        <ele>1759.286</ele>
        <time>2021-08-06T07:22:54Z</time>
      </trkpt>
      <trkpt lat="42.64184" lon="1.70404">
        <ele>1758.605</ele>
        <time>2021-08-06T07:22:56Z</time>
      </trkpt>
      <trkpt lat="42.64183" lon="1.70405">
        <ele>1760.734</ele>
        <time>2021-08-06T07:22:58Z</time>
      </trkpt>
      <trkpt lat="42.64182" lon="1.70406">
        <ele>1760.304</ele>
        <time>2021-08-06T07:23:00Z</time>
      </trkpt>
      <trkpt lat="42.64181" lon="1.70406">
        <ele>1760.076</ele>
        <time>2021-08-06T07:23:02Z</time>
      </trkpt>
      <trkpt lat="42.64179" lon="1.70407">
        <ele>1761.547</ele>
        <time>2021-08-06T07:23:04Z</time>
      </trkpt>
      <trkpt lat="42.64178" lon="1.70407">
        <ele>1760.524</ele>
        <time>2021-08-06T07:23:06Z</time>
      </trkpt>
      <trkpt lat="42.64177" lon="1.70408">
        <ele>1761.993</ele>
        <time>2021-08-06T07:23:08Z</time>
      </trkpt>
      <trkpt lat="42.64176" lon="1.70409">
        <ele>1762.624</ele>
        <time>2021-08-06T07:23:10Z</time>
      </trkpt>
      <trkpt lat="42.64175" lon="1.70409">
        <ele>1763.656</ele>
        <time>2021-08-06T07:23:12Z</time>
      </trkpt>
      <trkpt lat="42.64175" lon="1.70411">
        <ele>1763.79</ele>
        <time>2021-08-06T07:23:14Z</time>
      </trkpt>
      <trkpt lat="42.64174" lon="1.70412">
        <ele>1762.952</ele>
        <time>2021-08-06T07:23:16Z</time>
      </trkpt>
      <trkpt lat="42.64173" lon="1.70414">
        <ele>1763.616</ele>
        <time>2021-08-06T07:23:18Z</time>
      </trkpt>
      <trkpt lat="42.64172" lon="1.70417">
        <ele>1764.56</ele>
        <time>2021-08-06T07:23:20Z</time>
      </trkpt>
      <trkpt lat="42.64171" lon="1.70419">
        <ele>1765.28</ele>
        <time>2021-08-06T07:23:22Z</time>
      </trkpt>
      <trkpt lat="42.64171" lon="1.70421">
        <ele>1765.136</ele>
        <time>2021-08-06T07:23:24Z</time>
      </trkpt>
      <trkpt lat="42.64171" lon="1.70423">
        <ele>1765.487</ele>
        <time>2021-08-06T07:23:26Z</time>
      </trkpt>
      <trkpt lat="42.64171" lon="1.70425">
        <ele>1766.477</ele>
        <time>2021-08-06T07:23:28Z</time>
      </trkpt>
      <trkpt lat="42.64171" lon="1.70427">
        <ele>1766.091</ele>
        <time>2021-08-06T07:23:30Z</time>
      </trkpt>
      <trkpt lat="42.6417" lon="1.70429">
        <ele>1768.336</ele>
        <time>2021-08-06T07:23:32Z</time>
      </trkpt>
      <trkpt lat="42.6417" lon="1.70431">
        <ele>1768.387</ele>
        <time>2021-08-06T07:23:34Z</time>
      </trkpt>
      <trkpt lat="42.64169" lon="1.70432">
        <ele>1768.56</ele>
        <time>2021-08-06T07:23:36Z</time>
      </trkpt>
      <trkpt lat="42.64168" lon="1.70434">
        <ele>1768.903</ele>
        <time>2021-08-06T07:23:38Z</time>
      </trkpt>
      <trkpt lat="42.64169" lon="1.70435">
        <ele>1768.844</ele>
        <time>2021-08-06T07:23:40Z</time>
      </trkpt>
      <trkpt lat="42.64169" lon="1.70437">
        <ele>1768.866</ele>
        <time>2021-08-06T07:23:42Z</time>
      </trkpt>
      <trkpt lat="42.64168" lon="1.70438">
        <ele>1770.144</ele>
        <time>2021-08-06T07:23:44Z</time>
      </trkpt>
      <trkpt lat="42.64166" lon="1.7044">
        <ele>1770.872</ele>
        <time>2021-08-06T07:23:46Z</time>
      </trkpt>
      <trkpt lat="42.64165" lon="1.7044">
        <ele>1770.313</ele>
        <time>2021-08-06T07:23:48Z</time>
      </trkpt>
      <trkpt lat="42.64165" lon="1.70442">
        <ele>1770.696</ele>
        <time>2021-08-06T07:23:50Z</time>
      </trkpt>
      <trkpt lat="42.64165" lon="1.70444">
        <ele>1771.195</ele>
        <time>2021-08-06T07:23:52Z</time>
      </trkpt>
      <trkpt lat="42.64166" lon="1.70445">
        <ele>1770.76</ele>
        <time>2021-08-06T07:23:54Z</time>
      </trkpt>
      <trkpt lat="42.64167" lon="1.70446">
        <ele>1772.405</ele>
        <time>2021-08-06T07:23:56Z</time>
      </trkpt>
      <trkpt lat="42.64169" lon="1.70447">
        <ele>1773.188</ele>
        <time>2021-08-06T07:23:58Z</time>
      </trkpt>
      <trkpt lat="42.64169" lon="1.70449">
        <ele>1774.364</ele>
        <time>2021-08-06T07:24:00Z</time>
      </trkpt>
      <trkpt lat="42.64168" lon="1.7045">
        <ele>1773.053</ele>
        <time>2021-08-06T07:24:02Z</time>
      </trkpt>
      <trkpt lat="42.64168" lon="1.70452">
        <ele>1774.707</ele>
        <time>2021-08-06T07:24:04Z</time>
      </trkpt>
      <trkpt lat="42.64166" lon="1.70453">
        <ele>1775.038</ele>
        <time>2021-08-06T07:24:06Z</time>
      </trkpt>
      <trkpt lat="42.64165" lon="1.70453">
        <ele>1775.061</ele>
        <time>2021-08-06T07:24:08Z</time>
      </trkpt>
      <trkpt lat="42.64163" lon="1.70453">
        <ele>1775.762</ele>
        <time>2021-08-06T07:24:10Z</time>
      </trkpt>
      <trkpt lat="42.64162" lon="1.70452">
        <ele>1776.822</ele>
        <time>2021-08-06T07:24:12Z</time>
      </trkpt>
      <trkpt lat="42.64162" lon="1.70452">
        <ele>1776.832</ele>
        <time>2021-08-06T07:24:14Z</time>
      </trkpt>
      <trkpt lat="42.64162" lon="1.70454">
        <ele>1777.312</ele>
        <time>2021-08-06T07:24:16Z</time>
      </trkpt>
      <trkpt lat="42.64164" lon="1.70455">
        <ele>1777.379</ele>
        <time>2021-08-06T07:24:18Z</time>
      </trkpt>
      <trkpt lat="42.64166" lon="1.70455">
        <ele>1777.842</ele>
        <time>2021-08-06T07:24:20Z</time>
      </trkpt>
      <trkpt lat="42.64167" lon="1.70454">
        <ele>1777.394</ele>
        <time>2021-08-06T07:24:22Z</time>
      </trkpt>
      <trkpt lat="42.64169" lon="1.70455">
        <ele>1777.496</ele>
        <time>2021-08-06T07:24:24Z</time>
      </trkpt>
      <trkpt lat="42.6417" lon="1.70457">
        <ele>1778.278</ele>
        <time>2021-08-06T07:24:26Z</time>
      </trkpt>
      <trkpt lat="42.6417" lon="1.70458">
        <ele>1779.073</ele>
        <time>2021-08-06T07:24:28Z</time>
      </trkpt>
      <trkpt lat="42.64171" lon="1.7046">
        <ele>1780.577</ele>
        <time>2021-08-06T07:24:30Z</time>
      </trkpt>
      <trkpt lat="42.6417" lon="1.70461">
        <ele>1780.733</ele>
        <time>2021-08-06T07:24:32Z</time>
      </trkpt>
      <trkpt lat="42.6417" lon="1.70462">
        <ele>1781.028</ele>
        <time>2021-08-06T07:24:34Z</time>
      </trkpt>
      <trkpt lat="42.64172" lon="1.70463">
        <ele>1781.172</ele>
        <time>2021-08-06T07:24:36Z</time>
      </trkpt>
      <trkpt lat="42.64173" lon="1.70462">
        <ele>1781.574</ele>
        <time>2021-08-06T07:24:38Z</time>
      </trkpt>
      <trkpt lat="42.64174" lon="1.70462">
        <ele>1782.013</ele>
        <time>2021-08-06T07:24:40Z</time>
      </trkpt>
      <trkpt lat="42.64175" lon="1.70463">
        <ele>1782.747</ele>
        <time>2021-08-06T07:24:42Z</time>
      </trkpt>
      <trkpt lat="42.64176" lon="1.70464">
        <ele>1784.087</ele>
        <time>2021-08-06T07:24:44Z</time>
      </trkpt>
      <trkpt lat="42.64176" lon="1.70465">
        <ele>1786.145</ele>
        <time>2021-08-06T07:24:46Z</time>
      </trkpt>
      <trkpt lat="42.64177" lon="1.70465">
        <ele>1786.896</ele>
        <time>2021-08-06T07:24:48Z</time>
      </trkpt>
      <trkpt lat="42.64178" lon="1.70466">
        <ele>1785.673</ele>
        <time>2021-08-06T07:24:50Z</time>
      </trkpt>
      <trkpt lat="42.64179" lon="1.70467">
        <ele>1785.819</ele>
        <time>2021-08-06T07:24:52Z</time>
      </trkpt>
      <trkpt lat="42.64179" lon="1.70468">
        <ele>1786.729</ele>
        <time>2021-08-06T07:24:54Z</time>
      </trkpt>
      <trkpt lat="42.64178" lon="1.7047">
        <ele>1787.002</ele>
        <time>2021-08-06T07:24:56Z</time>
      </trkpt>
      <trkpt lat="42.64178" lon="1.70471">
        <ele>1787.422</ele>
        <time>2021-08-06T07:24:58Z</time>
      </trkpt>
      <trkpt lat="42.64177" lon="1.70472">
        <ele>1788.882</ele>
        <time>2021-08-06T07:25:00Z</time>
      </trkpt>
      <trkpt lat="42.64176" lon="1.70472">
        <ele>1788.411</ele>
        <time>2021-08-06T07:25:02Z</time>
      </trkpt>
      <trkpt lat="42.64175" lon="1.70474">
        <ele>1788.383</ele>
        <time>2021-08-06T07:25:04Z</time>
      </trkpt>
      <trkpt lat="42.64175" lon="1.70475">
        <ele>1787.737</ele>
        <time>2021-08-06T07:25:06Z</time>
      </trkpt>
      <trkpt lat="42.64174" lon="1.70475">
        <ele>1786.404</ele>
        <time>2021-08-06T07:25:08Z</time>
      </trkpt>
      <trkpt lat="42.64172" lon="1.70475">
        <ele>1787.002</ele>
        <time>2021-08-06T07:25:10Z</time>
      </trkpt>
      <trkpt lat="42.6417" lon="1.70475">
        <ele>1788.873</ele>
        <time>2021-08-06T07:25:12Z</time>
      </trkpt>
      <trkpt lat="42.6417" lon="1.70476">
        <ele>1789.512</ele>
        <time>2021-08-06T07:25:14Z</time>
      </trkpt>
      <trkpt lat="42.6417" lon="1.70478">
        <ele>1788.406</ele>
        <time>2021-08-06T07:25:16Z</time>
      </trkpt>
      <trkpt lat="42.6417" lon="1.70479">
        <ele>1789.553</ele>
        <time>2021-08-06T07:25:18Z</time>
      </trkpt>
      <trkpt lat="42.64169" lon="1.7048">
        <ele>1789.575</ele>
        <time>2021-08-06T07:25:20Z</time>
      </trkpt>
      <trkpt lat="42.64169" lon="1.70481">
        <ele>1788.01</ele>
        <time>2021-08-06T07:25:22Z</time>
      </trkpt>
      <trkpt lat="42.64168" lon="1.70482">
        <ele>1788.24</ele>
        <time>2021-08-06T07:25:24Z</time>
      </trkpt>
      <trkpt lat="42.64167" lon="1.70483">
        <ele>1787.797</ele>
        <time>2021-08-06T07:25:26Z</time>
      </trkpt>
      <trkpt lat="42.64165" lon="1.70484">
        <ele>1788.183</ele>
        <time>2021-08-06T07:25:28Z</time>
      </trkpt>
      <trkpt lat="42.64164" lon="1.70485">
        <ele>1788.52</ele>
        <time>2021-08-06T07:25:30Z</time>
      </trkpt>
      <trkpt lat="42.64163" lon="1.70486">
        <ele>1789.236</ele>
        <time>2021-08-06T07:25:32Z</time>
      </trkpt>
      <trkpt lat="42.64163" lon="1.70488">
        <ele>1790.27</ele>
        <time>2021-08-06T07:25:34Z</time>
      </trkpt>
      <trkpt lat="42.64161" lon="1.70489">
        <ele>1790.272</ele>
        <time>2021-08-06T07:25:36Z</time>
      </trkpt>
      <trkpt lat="42.6416" lon="1.70491">
        <ele>1790.999</ele>
        <time>2021-08-06T07:25:38Z</time>
      </trkpt>
      <trkpt lat="42.64159" lon="1.70493">
        <ele>1791.744</ele>
        <time>2021-08-06T07:25:41Z</time>
      </trkpt>
      <trkpt lat="42.64159" lon="1.70494">
        <ele>1791.653</ele>
        <time>2021-08-06T07:25:43Z</time>
      </trkpt>
      <trkpt lat="42.64158" lon="1.70495">
        <ele>1791.691</ele>
        <time>2021-08-06T07:25:45Z</time>
      </trkpt>
      <trkpt lat="42.64157" lon="1.70496">
        <ele>1791.892</ele>
        <time>2021-08-06T07:25:47Z</time>
      </trkpt>
      <trkpt lat="42.64155" lon="1.70496">
        <ele>1791.746</ele>
        <time>2021-08-06T07:25:49Z</time>
      </trkpt>
      <trkpt lat="42.64153" lon="1.70497">
        <ele>1791.344</ele>
        <time>2021-08-06T07:25:51Z</time>
      </trkpt>
      <trkpt lat="42.64152" lon="1.70497">
        <ele>1791.471</ele>
        <time>2021-08-06T07:25:53Z</time>
      </trkpt>
      <trkpt lat="42.6415" lon="1.70498">
        <ele>1793.373</ele>
        <time>2021-08-06T07:25:55Z</time>
      </trkpt>
      <trkpt lat="42.64149" lon="1.70498">
        <ele>1793.993</ele>
        <time>2021-08-06T07:25:57Z</time>
      </trkpt>
      <trkpt lat="42.64148" lon="1.70499">
        <ele>1794.874</ele>
        <time>2021-08-06T07:25:59Z</time>
      </trkpt>
      <trkpt lat="42.64147" lon="1.70499">
        <ele>1794.349</ele>
        <time>2021-08-06T07:26:01Z</time>
      </trkpt>
      <trkpt lat="42.64146" lon="1.705">
        <ele>1794.315</ele>
        <time>2021-08-06T07:26:03Z</time>
      </trkpt>
      <trkpt lat="42.64144" lon="1.70501">
        <ele>1793.786</ele>
        <time>2021-08-06T07:26:05Z</time>
      </trkpt>
      <trkpt lat="42.64143" lon="1.70502">
        <ele>1793.606</ele>
        <time>2021-08-06T07:26:07Z</time>
      </trkpt>
      <trkpt lat="42.64141" lon="1.70503">
        <ele>1793.702</ele>
        <time>2021-08-06T07:26:09Z</time>
      </trkpt>
      <trkpt lat="42.6414" lon="1.70503">
        <ele>1794.613</ele>
        <time>2021-08-06T07:26:11Z</time>
      </trkpt>
      <trkpt lat="42.64138" lon="1.70504">
        <ele>1794.546</ele>
        <time>2021-08-06T07:26:13Z</time>
      </trkpt>
      <trkpt lat="42.64137" lon="1.70506">
        <ele>1795.24</ele>
        <time>2021-08-06T07:26:15Z</time>
      </trkpt>
      <trkpt lat="42.64136" lon="1.70507">
        <ele>1794.703</ele>
        <time>2021-08-06T07:26:17Z</time>
      </trkpt>
      <trkpt lat="42.64135" lon="1.70509">
        <ele>1794.854</ele>
        <time>2021-08-06T07:26:19Z</time>
      </trkpt>
      <trkpt lat="42.64133" lon="1.70509">
        <ele>1796.143</ele>
        <time>2021-08-06T07:26:21Z</time>
      </trkpt>
      <trkpt lat="42.64132" lon="1.7051">
        <ele>1795.957</ele>
        <time>2021-08-06T07:26:23Z</time>
      </trkpt>
      <trkpt lat="42.64131" lon="1.70511">
        <ele>1796.55</ele>
        <time>2021-08-06T07:26:25Z</time>
      </trkpt>
      <trkpt lat="42.64129" lon="1.70512">
        <ele>1796.447</ele>
        <time>2021-08-06T07:26:27Z</time>
      </trkpt>
      <trkpt lat="42.64128" lon="1.70513">
        <ele>1797.483</ele>
        <time>2021-08-06T07:26:29Z</time>
      </trkpt>
      <trkpt lat="42.64127" lon="1.70515">
        <ele>1798.912</ele>
        <time>2021-08-06T07:26:31Z</time>
      </trkpt>
      <trkpt lat="42.64127" lon="1.70517">
        <ele>1799.69</ele>
        <time>2021-08-06T07:26:33Z</time>
      </trkpt>
      <trkpt lat="42.64127" lon="1.70519">
        <ele>1799.09</ele>
        <time>2021-08-06T07:26:35Z</time>
      </trkpt>
      <trkpt lat="42.64126" lon="1.70521">
        <ele>1800.325</ele>
        <time>2021-08-06T07:26:37Z</time>
      </trkpt>
      <trkpt lat="42.64126" lon="1.70522">
        <ele>1799.484</ele>
        <time>2021-08-06T07:26:39Z</time>
      </trkpt>
      <trkpt lat="42.64125" lon="1.70524">
        <ele>1800.075</ele>
        <time>2021-08-06T07:26:41Z</time>
      </trkpt>
      <trkpt lat="42.64125" lon="1.70526">
        <ele>1799.255</ele>
        <time>2021-08-06T07:26:43Z</time>
      </trkpt>
      <trkpt lat="42.64126" lon="1.70527">
        <ele>1800.048</ele>
        <time>2021-08-06T07:26:45Z</time>
      </trkpt>
      <trkpt lat="42.64127" lon="1.70529">
        <ele>1800.968</ele>
        <time>2021-08-06T07:26:47Z</time>
      </trkpt>
      <trkpt lat="42.64127" lon="1.70531">
        <ele>1801.494</ele>
        <time>2021-08-06T07:26:49Z</time>
      </trkpt>
      <trkpt lat="42.64127" lon="1.70532">
        <ele>1802.073</ele>
        <time>2021-08-06T07:26:51Z</time>
      </trkpt>
      <trkpt lat="42.64126" lon="1.70534">
        <ele>1802.111</ele>
        <time>2021-08-06T07:26:53Z</time>
      </trkpt>
      <trkpt lat="42.64125" lon="1.70535">
        <ele>1802.031</ele>
        <time>2021-08-06T07:26:55Z</time>
      </trkpt>
      <trkpt lat="42.64124" lon="1.70536">
        <ele>1801.747</ele>
        <time>2021-08-06T07:26:57Z</time>
      </trkpt>
      <trkpt lat="42.64124" lon="1.70537">
        <ele>1802.529</ele>
        <time>2021-08-06T07:26:59Z</time>
      </trkpt>
      <trkpt lat="42.64123" lon="1.70538">
        <ele>1802.057</ele>
        <time>2021-08-06T07:27:01Z</time>
      </trkpt>
      <trkpt lat="42.64123" lon="1.7054">
        <ele>1802.602</ele>
        <time>2021-08-06T07:27:03Z</time>
      </trkpt>
      <trkpt lat="42.64123" lon="1.70541">
        <ele>1802.932</ele>
        <time>2021-08-06T07:27:05Z</time>
      </trkpt>
      <trkpt lat="42.64123" lon="1.70543">
        <ele>1801.94</ele>
        <time>2021-08-06T07:27:07Z</time>
      </trkpt>
      <trkpt lat="42.64122" lon="1.70545">
        <ele>1802.01</ele>
        <time>2021-08-06T07:27:09Z</time>
      </trkpt>
      <trkpt lat="42.64121" lon="1.70546">
        <ele>1802.834</ele>
        <time>2021-08-06T07:27:11Z</time>
      </trkpt>
      <trkpt lat="42.6412" lon="1.70548">
        <ele>1803.196</ele>
        <time>2021-08-06T07:27:13Z</time>
      </trkpt>
      <trkpt lat="42.6412" lon="1.7055">
        <ele>1803.873</ele>
        <time>2021-08-06T07:27:15Z</time>
      </trkpt>
      <trkpt lat="42.64119" lon="1.70551">
        <ele>1804.607</ele>
        <time>2021-08-06T07:27:17Z</time>
      </trkpt>
      <trkpt lat="42.64118" lon="1.70552">
        <ele>1804.9</ele>
        <time>2021-08-06T07:27:19Z</time>
      </trkpt>
      <trkpt lat="42.64117" lon="1.70554">
        <ele>1805.592</ele>
        <time>2021-08-06T07:27:21Z</time>
      </trkpt>
      <trkpt lat="42.64117" lon="1.70556">
        <ele>1807.22</ele>
        <time>2021-08-06T07:27:23Z</time>
      </trkpt>
      <trkpt lat="42.64117" lon="1.70557">
        <ele>1807.17</ele>
        <time>2021-08-06T07:27:25Z</time>
      </trkpt>
      <trkpt lat="42.64116" lon="1.70559">
        <ele>1807.195</ele>
        <time>2021-08-06T07:27:27Z</time>
      </trkpt>
      <trkpt lat="42.64115" lon="1.70561">
        <ele>1806.111</ele>
        <time>2021-08-06T07:27:29Z</time>
      </trkpt>
      <trkpt lat="42.64115" lon="1.70563">
        <ele>1806.147</ele>
        <time>2021-08-06T07:27:31Z</time>
      </trkpt>
      <trkpt lat="42.64114" lon="1.70566">
        <ele>1806.321</ele>
        <time>2021-08-06T07:27:33Z</time>
      </trkpt>
      <trkpt lat="42.64114" lon="1.70569">
        <ele>1807.56</ele>
        <time>2021-08-06T07:27:35Z</time>
      </trkpt>
      <trkpt lat="42.64114" lon="1.70571">
        <ele>1808.656</ele>
        <time>2021-08-06T07:27:37Z</time>
      </trkpt>
      <trkpt lat="42.64114" lon="1.70573">
        <ele>1807.278</ele>
        <time>2021-08-06T07:27:39Z</time>
      </trkpt>
      <trkpt lat="42.64114" lon="1.70575">
        <ele>1808.596</ele>
        <time>2021-08-06T07:27:41Z</time>
      </trkpt>
      <trkpt lat="42.64114" lon="1.70577">
        <ele>1807.845</ele>
        <time>2021-08-06T07:27:43Z</time>
      </trkpt>
      <trkpt lat="42.64114" lon="1.70578">
        <ele>1807.636</ele>
        <time>2021-08-06T07:27:45Z</time>
      </trkpt>
      <trkpt lat="42.64114" lon="1.7058">
        <ele>1808.373</ele>
        <time>2021-08-06T07:27:47Z</time>
      </trkpt>
      <trkpt lat="42.64115" lon="1.70582">
        <ele>1809.02</ele>
        <time>2021-08-06T07:27:49Z</time>
      </trkpt>
      <trkpt lat="42.64115" lon="1.70583">
        <ele>1808.678</ele>
        <time>2021-08-06T07:27:51Z</time>
      </trkpt>
      <trkpt lat="42.64115" lon="1.70584">
        <ele>1809.314</ele>
        <time>2021-08-06T07:27:53Z</time>
      </trkpt>
      <trkpt lat="42.64115" lon="1.70586">
        <ele>1809.491</ele>
        <time>2021-08-06T07:27:55Z</time>
      </trkpt>
      <trkpt lat="42.64116" lon="1.70588">
        <ele>1810.051</ele>
        <time>2021-08-06T07:27:57Z</time>
      </trkpt>
      <trkpt lat="42.64115" lon="1.7059">
        <ele>1810.867</ele>
        <time>2021-08-06T07:27:59Z</time>
      </trkpt>
      <trkpt lat="42.64114" lon="1.70591">
        <ele>1811.168</ele>
        <time>2021-08-06T07:28:01Z</time>
      </trkpt>
      <trkpt lat="42.64113" lon="1.70592">
        <ele>1811.192</ele>
        <time>2021-08-06T07:28:03Z</time>
      </trkpt>
      <trkpt lat="42.64112" lon="1.70593">
        <ele>1811.969</ele>
        <time>2021-08-06T07:28:05Z</time>
      </trkpt>
      <trkpt lat="42.64111" lon="1.70595">
        <ele>1812.838</ele>
        <time>2021-08-06T07:28:07Z</time>
      </trkpt>
      <trkpt lat="42.64111" lon="1.70597">
        <ele>1813.4</ele>
        <time>2021-08-06T07:28:09Z</time>
      </trkpt>
      <trkpt lat="42.64111" lon="1.70599">
        <ele>1813.688</ele>
        <time>2021-08-06T07:28:11Z</time>
      </trkpt>
      <trkpt lat="42.64111" lon="1.70601">
        <ele>1813.404</ele>
        <time>2021-08-06T07:28:13Z</time>
      </trkpt>
      <trkpt lat="42.64112" lon="1.70603">
        <ele>1813.378</ele>
        <time>2021-08-06T07:28:15Z</time>
      </trkpt>
      <trkpt lat="42.64112" lon="1.70605">
        <ele>1815.463</ele>
        <time>2021-08-06T07:28:17Z</time>
      </trkpt>
      <trkpt lat="42.64111" lon="1.70606">
        <ele>1815.502</ele>
        <time>2021-08-06T07:28:19Z</time>
      </trkpt>
      <trkpt lat="42.64111" lon="1.70608">
        <ele>1815.658</ele>
        <time>2021-08-06T07:28:21Z</time>
      </trkpt>
      <trkpt lat="42.64109" lon="1.70609">
        <ele>1816.728</ele>
        <time>2021-08-06T07:28:23Z</time>
      </trkpt>
      <trkpt lat="42.64108" lon="1.70609">
        <ele>1817.353</ele>
        <time>2021-08-06T07:28:25Z</time>
      </trkpt>
      <trkpt lat="42.64106" lon="1.7061">
        <ele>1818.343</ele>
        <time>2021-08-06T07:28:27Z</time>
      </trkpt>
      <trkpt lat="42.64105" lon="1.7061">
        <ele>1819.616</ele>
        <time>2021-08-06T07:28:29Z</time>
      </trkpt>
      <trkpt lat="42.64104" lon="1.70611">
        <ele>1818.983</ele>
        <time>2021-08-06T07:28:31Z</time>
      </trkpt>
      <trkpt lat="42.64104" lon="1.70613">
        <ele>1818.177</ele>
        <time>2021-08-06T07:28:33Z</time>
      </trkpt>
      <trkpt lat="42.64103" lon="1.70615">
        <ele>1819.453</ele>
        <time>2021-08-06T07:28:35Z</time>
      </trkpt>
      <trkpt lat="42.64103" lon="1.70616">
        <ele>1819.614</ele>
        <time>2021-08-06T07:28:37Z</time>
      </trkpt>
      <trkpt lat="42.64102" lon="1.70618">
        <ele>1819.258</ele>
        <time>2021-08-06T07:28:39Z</time>
      </trkpt>
      <trkpt lat="42.64102" lon="1.7062">
        <ele>1819.628</ele>
        <time>2021-08-06T07:28:41Z</time>
      </trkpt>
      <trkpt lat="42.64101" lon="1.70621">
        <ele>1819.939</ele>
        <time>2021-08-06T07:28:43Z</time>
      </trkpt>
      <trkpt lat="42.64101" lon="1.70622">
        <ele>1820.047</ele>
        <time>2021-08-06T07:28:45Z</time>
      </trkpt>
      <trkpt lat="42.641" lon="1.70624">
        <ele>1820.125</ele>
        <time>2021-08-06T07:28:47Z</time>
      </trkpt>
      <trkpt lat="42.64101" lon="1.70625">
        <ele>1820.706</ele>
        <time>2021-08-06T07:28:49Z</time>
      </trkpt>
      <trkpt lat="42.641" lon="1.70627">
        <ele>1822.434</ele>
        <time>2021-08-06T07:28:51Z</time>
      </trkpt>
      <trkpt lat="42.64099" lon="1.70629">
        <ele>1822.646</ele>
        <time>2021-08-06T07:28:53Z</time>
      </trkpt>
      <trkpt lat="42.64099" lon="1.70629">
        <ele>1822.649</ele>
        <time>2021-08-06T07:28:55Z</time>
      </trkpt>
      <trkpt lat="42.64098" lon="1.70631">
        <ele>1822.67</ele>
        <time>2021-08-06T07:28:57Z</time>
      </trkpt>
      <trkpt lat="42.64097" lon="1.70632">
        <ele>1821.951</ele>
        <time>2021-08-06T07:28:59Z</time>
      </trkpt>
      <trkpt lat="42.64097" lon="1.70633">
        <ele>1821.973</ele>
        <time>2021-08-06T07:29:01Z</time>
      </trkpt>
      <trkpt lat="42.64096" lon="1.70634">
        <ele>1821.959</ele>
        <time>2021-08-06T07:29:03Z</time>
      </trkpt>
      <trkpt lat="42.64097" lon="1.70636">
        <ele>1821.756</ele>
        <time>2021-08-06T07:29:05Z</time>
      </trkpt>
      <trkpt lat="42.64098" lon="1.70638">
        <ele>1821.848</ele>
        <time>2021-08-06T07:29:07Z</time>
      </trkpt>
      <trkpt lat="42.64097" lon="1.7064">
        <ele>1822.123</ele>
        <time>2021-08-06T07:29:09Z</time>
      </trkpt>
      <trkpt lat="42.64097" lon="1.70642">
        <ele>1822.832</ele>
        <time>2021-08-06T07:29:11Z</time>
      </trkpt>
      <trkpt lat="42.64098" lon="1.70644">
        <ele>1822.903</ele>
        <time>2021-08-06T07:29:13Z</time>
      </trkpt>
      <trkpt lat="42.64097" lon="1.70645">
        <ele>1823.064</ele>
        <time>2021-08-06T07:29:15Z</time>
      </trkpt>
      <trkpt lat="42.64097" lon="1.70647">
        <ele>1823.593</ele>
        <time>2021-08-06T07:29:17Z</time>
      </trkpt>
      <trkpt lat="42.64097" lon="1.70648">
        <ele>1822.318</ele>
        <time>2021-08-06T07:29:19Z</time>
      </trkpt>
      <trkpt lat="42.64097" lon="1.7065">
        <ele>1823.122</ele>
        <time>2021-08-06T07:29:21Z</time>
      </trkpt>
      <trkpt lat="42.64097" lon="1.70652">
        <ele>1823.579</ele>
        <time>2021-08-06T07:29:23Z</time>
      </trkpt>
      <trkpt lat="42.64096" lon="1.70653">
        <ele>1823.97</ele>
        <time>2021-08-06T07:29:25Z</time>
      </trkpt>
      <trkpt lat="42.64095" lon="1.70655">
        <ele>1824.118</ele>
        <time>2021-08-06T07:29:27Z</time>
      </trkpt>
      <trkpt lat="42.64095" lon="1.70657">
        <ele>1824.368</ele>
        <time>2021-08-06T07:29:29Z</time>
      </trkpt>
      <trkpt lat="42.64094" lon="1.70659">
        <ele>1824.56</ele>
        <time>2021-08-06T07:29:31Z</time>
      </trkpt>
      <trkpt lat="42.64093" lon="1.70661">
        <ele>1825.511</ele>
        <time>2021-08-06T07:29:33Z</time>
      </trkpt>
      <trkpt lat="42.64093" lon="1.70662">
        <ele>1825.153</ele>
        <time>2021-08-06T07:29:35Z</time>
      </trkpt>
      <trkpt lat="42.64092" lon="1.70663">
        <ele>1826.485</ele>
        <time>2021-08-06T07:29:37Z</time>
      </trkpt>
      <trkpt lat="42.64091" lon="1.70664">
        <ele>1825.941</ele>
        <time>2021-08-06T07:29:39Z</time>
      </trkpt>
      <trkpt lat="42.6409" lon="1.70666">
        <ele>1825.848</ele>
        <time>2021-08-06T07:29:41Z</time>
      </trkpt>
      <trkpt lat="42.6409" lon="1.70668">
        <ele>1826.407</ele>
        <time>2021-08-06T07:29:43Z</time>
      </trkpt>
      <trkpt lat="42.64089" lon="1.7067">
        <ele>1827.388</ele>
        <time>2021-08-06T07:29:45Z</time>
      </trkpt>
      <trkpt lat="42.64089" lon="1.70671">
        <ele>1827.556</ele>
        <time>2021-08-06T07:29:47Z</time>
      </trkpt>
      <trkpt lat="42.64089" lon="1.70673">
        <ele>1827.972</ele>
        <time>2021-08-06T07:29:49Z</time>
      </trkpt>
      <trkpt lat="42.6409" lon="1.70674">
        <ele>1827.525</ele>
        <time>2021-08-06T07:29:51Z</time>
      </trkpt>
      <trkpt lat="42.64089" lon="1.70675">
        <ele>1828.741</ele>
        <time>2021-08-06T07:29:53Z</time>
      </trkpt>
      <trkpt lat="42.64089" lon="1.70676">
        <ele>1829.047</ele>
        <time>2021-08-06T07:29:55Z</time>
      </trkpt>
      <trkpt lat="42.64089" lon="1.70677">
        <ele>1828.792</ele>
        <time>2021-08-06T07:29:57Z</time>
      </trkpt>
      <trkpt lat="42.64089" lon="1.70677">
        <ele>1828.795</ele>
        <time>2021-08-06T07:29:59Z</time>
      </trkpt>
      <trkpt lat="42.64089" lon="1.70677">
        <ele>1828.803</ele>
        <time>2021-08-06T07:30:01Z</time>
      </trkpt>
      <trkpt lat="42.64089" lon="1.70677">
        <ele>1828.803</ele>
        <time>2021-08-06T07:30:03Z</time>
      </trkpt>
      <trkpt lat="42.64089" lon="1.70677">
        <ele>1828.805</ele>
        <time>2021-08-06T07:30:05Z</time>
      </trkpt>
      <trkpt lat="42.64089" lon="1.70677">
        <ele>1828.808</ele>
        <time>2021-08-06T07:30:07Z</time>
      </trkpt>
      <trkpt lat="42.64089" lon="1.70677">
        <ele>1828.816</ele>
        <time>2021-08-06T07:30:09Z</time>
      </trkpt>
      <trkpt lat="42.64089" lon="1.70677">
        <ele>1828.818</ele>
        <time>2021-08-06T07:30:11Z</time>
      </trkpt>
      <trkpt lat="42.64089" lon="1.70677">
        <ele>1827.697</ele>
        <time>2021-08-06T07:30:13Z</time>
      </trkpt>
      <trkpt lat="42.64088" lon="1.70678">
        <ele>1827.721</ele>
        <time>2021-08-06T07:30:15Z</time>
      </trkpt>
      <trkpt lat="42.64088" lon="1.70677">
        <ele>1827.719</ele>
        <time>2021-08-06T07:30:17Z</time>
      </trkpt>
      <trkpt lat="42.64088" lon="1.70677">
        <ele>1827.707</ele>
        <time>2021-08-06T07:30:19Z</time>
      </trkpt>
      <trkpt lat="42.64088" lon="1.70677">
        <ele>1827.453</ele>
        <time>2021-08-06T07:30:21Z</time>
      </trkpt>
      <trkpt lat="42.64088" lon="1.70676">
        <ele>1827.163</ele>
        <time>2021-08-06T07:30:23Z</time>
      </trkpt>
      <trkpt lat="42.64088" lon="1.70676">
        <ele>1827.193</ele>
        <time>2021-08-06T07:30:25Z</time>
      </trkpt>
      <trkpt lat="42.64088" lon="1.70676">
        <ele>1827.206</ele>
        <time>2021-08-06T07:30:27Z</time>
      </trkpt>
      <trkpt lat="42.64088" lon="1.70676">
        <ele>1827.215</ele>
        <time>2021-08-06T07:30:29Z</time>
      </trkpt>
      <trkpt lat="42.64088" lon="1.70676">
        <ele>1827.243</ele>
        <time>2021-08-06T07:30:31Z</time>
      </trkpt>
      <trkpt lat="42.64088" lon="1.70676">
        <ele>1827.252</ele>
        <time>2021-08-06T07:30:33Z</time>
      </trkpt>
      <trkpt lat="42.64088" lon="1.70676">
        <ele>1827.293</ele>
        <time>2021-08-06T07:30:35Z</time>
      </trkpt>
      <trkpt lat="42.64088" lon="1.70676">
        <ele>1827.671</ele>
        <time>2021-08-06T07:30:37Z</time>
      </trkpt>
      <trkpt lat="42.64088" lon="1.70676">
        <ele>1827.648</ele>
        <time>2021-08-06T07:30:39Z</time>
      </trkpt>
      <trkpt lat="42.64088" lon="1.70676">
        <ele>1827.632</ele>
        <time>2021-08-06T07:30:41Z</time>
      </trkpt>
      <trkpt lat="42.64088" lon="1.70676">
        <ele>1827.644</ele>
        <time>2021-08-06T07:30:43Z</time>
      </trkpt>
      <trkpt lat="42.64088" lon="1.70676">
        <ele>1827.656</ele>
        <time>2021-08-06T07:30:45Z</time>
      </trkpt>
      <trkpt lat="42.64088" lon="1.70676">
        <ele>1827.674</ele>
        <time>2021-08-06T07:30:47Z</time>
      </trkpt>
      <trkpt lat="42.64088" lon="1.70676">
        <ele>1827.681</ele>
        <time>2021-08-06T07:30:49Z</time>
      </trkpt>
      <trkpt lat="42.64088" lon="1.70676">
        <ele>1827.676</ele>
        <time>2021-08-06T07:30:51Z</time>
      </trkpt>
      <trkpt lat="42.64088" lon="1.70676">
        <ele>1827.66</ele>
        <time>2021-08-06T07:30:53Z</time>
      </trkpt>
      <trkpt lat="42.64088" lon="1.70676">
        <ele>1827.636</ele>
        <time>2021-08-06T07:30:55Z</time>
      </trkpt>
      <trkpt lat="42.64088" lon="1.70676">
        <ele>1827.609</ele>
        <time>2021-08-06T07:30:57Z</time>
      </trkpt>
      <trkpt lat="42.64088" lon="1.70676">
        <ele>1827.603</ele>
        <time>2021-08-06T07:30:59Z</time>
      </trkpt>
      <trkpt lat="42.64088" lon="1.70676">
        <ele>1827.599</ele>
        <time>2021-08-06T07:31:01Z</time>
      </trkpt>
      <trkpt lat="42.64088" lon="1.70676">
        <ele>1827.598</ele>
        <time>2021-08-06T07:31:03Z</time>
      </trkpt>
      <trkpt lat="42.64088" lon="1.70676">
        <ele>1826.753</ele>
        <time>2021-08-06T07:31:05Z</time>
      </trkpt>
      <trkpt lat="42.64088" lon="1.70676">
        <ele>1826.727</ele>
        <time>2021-08-06T07:31:07Z</time>
      </trkpt>
      <trkpt lat="42.64088" lon="1.70676">
        <ele>1826.737</ele>
        <time>2021-08-06T07:31:09Z</time>
      </trkpt>
      <trkpt lat="42.64088" lon="1.70676">
        <ele>1826.719</ele>
        <time>2021-08-06T07:31:11Z</time>
      </trkpt>
      <trkpt lat="42.64088" lon="1.70676">
        <ele>1826.605</ele>
        <time>2021-08-06T07:31:13Z</time>
      </trkpt>
      <trkpt lat="42.64088" lon="1.70676">
        <ele>1826.576</ele>
        <time>2021-08-06T07:31:15Z</time>
      </trkpt>
      <trkpt lat="42.64088" lon="1.70676">
        <ele>1826.573</ele>
        <time>2021-08-06T07:31:17Z</time>
      </trkpt>
      <trkpt lat="42.64088" lon="1.70676">
        <ele>1826.57</ele>
        <time>2021-08-06T07:31:19Z</time>
      </trkpt>
      <trkpt lat="42.64088" lon="1.70676">
        <ele>1826.571</ele>
        <time>2021-08-06T07:31:21Z</time>
      </trkpt>
      <trkpt lat="42.64088" lon="1.70676">
        <ele>1826.57</ele>
        <time>2021-08-06T07:31:23Z</time>
      </trkpt>
      <trkpt lat="42.64088" lon="1.70676">
        <ele>1826.58</ele>
        <time>2021-08-06T07:31:25Z</time>
      </trkpt>
      <trkpt lat="42.64088" lon="1.70676">
        <ele>1826.569</ele>
        <time>2021-08-06T07:31:27Z</time>
      </trkpt>
      <trkpt lat="42.64088" lon="1.70676">
        <ele>1826.563</ele>
        <time>2021-08-06T07:31:29Z</time>
      </trkpt>
      <trkpt lat="42.64088" lon="1.70676">
        <ele>1826.564</ele>
        <time>2021-08-06T07:31:31Z</time>
      </trkpt>
      <trkpt lat="42.64088" lon="1.70676">
        <ele>1826.705</ele>
        <time>2021-08-06T07:31:33Z</time>
      </trkpt>
      <trkpt lat="42.64088" lon="1.70676">
        <ele>1826.65</ele>
        <time>2021-08-06T07:31:35Z</time>
      </trkpt>
      <trkpt lat="42.64088" lon="1.70676">
        <ele>1826.652</ele>
        <time>2021-08-06T07:31:37Z</time>
      </trkpt>
      <trkpt lat="42.64088" lon="1.70676">
        <ele>1826.645</ele>
        <time>2021-08-06T07:31:39Z</time>
      </trkpt>
      <trkpt lat="42.64088" lon="1.70676">
        <ele>1827.227</ele>
        <time>2021-08-06T07:31:41Z</time>
      </trkpt>
      <trkpt lat="42.64087" lon="1.70675">
        <ele>1827.742</ele>
        <time>2021-08-06T07:31:43Z</time>
      </trkpt>
      <trkpt lat="42.64087" lon="1.70675">
        <ele>1827.765</ele>
        <time>2021-08-06T07:31:45Z</time>
      </trkpt>
      <trkpt lat="42.64087" lon="1.70676">
        <ele>1827.751</ele>
        <time>2021-08-06T07:31:47Z</time>
      </trkpt>
      <trkpt lat="42.64087" lon="1.70676">
        <ele>1827.731</ele>
        <time>2021-08-06T07:31:49Z</time>
      </trkpt>
      <trkpt lat="42.64087" lon="1.70676">
        <ele>1827.724</ele>
        <time>2021-08-06T07:31:51Z</time>
      </trkpt>
      <trkpt lat="42.64087" lon="1.70676">
        <ele>1827.734</ele>
        <time>2021-08-06T07:31:53Z</time>
      </trkpt>
      <trkpt lat="42.64087" lon="1.70676">
        <ele>1827.732</ele>
        <time>2021-08-06T07:31:55Z</time>
      </trkpt>
      <trkpt lat="42.64087" lon="1.70676">
        <ele>1827.726</ele>
        <time>2021-08-06T07:31:57Z</time>
      </trkpt>
      <trkpt lat="42.64087" lon="1.70676">
        <ele>1827.727</ele>
        <time>2021-08-06T07:31:59Z</time>
      </trkpt>
      <trkpt lat="42.64087" lon="1.70676">
        <ele>1827.74</ele>
        <time>2021-08-06T07:32:01Z</time>
      </trkpt>
      <trkpt lat="42.64087" lon="1.70676">
        <ele>1827.725</ele>
        <time>2021-08-06T07:32:03Z</time>
      </trkpt>
      <trkpt lat="42.64088" lon="1.70676">
        <ele>1826.968</ele>
        <time>2021-08-06T07:32:05Z</time>
      </trkpt>
      <trkpt lat="42.64088" lon="1.70678">
        <ele>1827.706</ele>
        <time>2021-08-06T07:32:07Z</time>
      </trkpt>
      <trkpt lat="42.64088" lon="1.7068">
        <ele>1826.419</ele>
        <time>2021-08-06T07:32:09Z</time>
      </trkpt>
      <trkpt lat="42.64086" lon="1.70684">
        <ele>1828.723</ele>
        <time>2021-08-06T07:32:11Z</time>
      </trkpt>
      <trkpt lat="42.64086" lon="1.70687">
        <ele>1828.721</ele>
        <time>2021-08-06T07:32:13Z</time>
      </trkpt>
      <trkpt lat="42.64085" lon="1.70688">
        <ele>1830.453</ele>
        <time>2021-08-06T07:32:15Z</time>
      </trkpt>
      <trkpt lat="42.64083" lon="1.70691">
        <ele>1832.334</ele>
        <time>2021-08-06T07:32:17Z</time>
      </trkpt>
      <trkpt lat="42.64082" lon="1.70694">
        <ele>1831.666</ele>
        <time>2021-08-06T07:32:19Z</time>
      </trkpt>
      <trkpt lat="42.64082" lon="1.70696">
        <ele>1832.644</ele>
        <time>2021-08-06T07:32:21Z</time>
      </trkpt>
      <trkpt lat="42.64082" lon="1.70699">
        <ele>1833.073</ele>
        <time>2021-08-06T07:32:23Z</time>
      </trkpt>
      <trkpt lat="42.64081" lon="1.70701">
        <ele>1833.365</ele>
        <time>2021-08-06T07:32:25Z</time>
      </trkpt>
      <trkpt lat="42.64081" lon="1.70703">
        <ele>1833.489</ele>
        <time>2021-08-06T07:32:27Z</time>
      </trkpt>
      <trkpt lat="42.6408" lon="1.70706">
        <ele>1834.252</ele>
        <time>2021-08-06T07:32:29Z</time>
      </trkpt>
      <trkpt lat="42.6408" lon="1.70708">
        <ele>1833.709</ele>
        <time>2021-08-06T07:32:31Z</time>
      </trkpt>
      <trkpt lat="42.6408" lon="1.70709">
        <ele>1834.035</ele>
        <time>2021-08-06T07:32:33Z</time>
      </trkpt>
      <trkpt lat="42.64079" lon="1.70711">
        <ele>1834.125</ele>
        <time>2021-08-06T07:32:35Z</time>
      </trkpt>
      <trkpt lat="42.64079" lon="1.70713">
        <ele>1833.681</ele>
        <time>2021-08-06T07:32:37Z</time>
      </trkpt>
      <trkpt lat="42.64079" lon="1.70715">
        <ele>1834.524</ele>
        <time>2021-08-06T07:32:39Z</time>
      </trkpt>
      <trkpt lat="42.64078" lon="1.70716">
        <ele>1836.653</ele>
        <time>2021-08-06T07:32:41Z</time>
      </trkpt>
      <trkpt lat="42.64076" lon="1.70716">
        <ele>1836.603</ele>
        <time>2021-08-06T07:32:43Z</time>
      </trkpt>
      <trkpt lat="42.64075" lon="1.70716">
        <ele>1836.502</ele>
        <time>2021-08-06T07:32:45Z</time>
      </trkpt>
      <trkpt lat="42.64073" lon="1.70717">
        <ele>1837.696</ele>
        <time>2021-08-06T07:32:47Z</time>
      </trkpt>
      <trkpt lat="42.64072" lon="1.70718">
        <ele>1838.403</ele>
        <time>2021-08-06T07:32:49Z</time>
      </trkpt>
      <trkpt lat="42.64073" lon="1.7072">
        <ele>1837.905</ele>
        <time>2021-08-06T07:32:51Z</time>
      </trkpt>
      <trkpt lat="42.64072" lon="1.70721">
        <ele>1838.493</ele>
        <time>2021-08-06T07:32:53Z</time>
      </trkpt>
      <trkpt lat="42.64072" lon="1.70722">
        <ele>1838.164</ele>
        <time>2021-08-06T07:32:55Z</time>
      </trkpt>
      <trkpt lat="42.64072" lon="1.70724">
        <ele>1837.427</ele>
        <time>2021-08-06T07:32:57Z</time>
      </trkpt>
      <trkpt lat="42.64072" lon="1.70726">
        <ele>1837.228</ele>
        <time>2021-08-06T07:32:59Z</time>
      </trkpt>
      <trkpt lat="42.64071" lon="1.70728">
        <ele>1837.028</ele>
        <time>2021-08-06T07:33:01Z</time>
      </trkpt>
      <trkpt lat="42.6407" lon="1.70729">
        <ele>1836.376</ele>
        <time>2021-08-06T07:33:03Z</time>
      </trkpt>
      <trkpt lat="42.6407" lon="1.70731">
        <ele>1836.827</ele>
        <time>2021-08-06T07:33:05Z</time>
      </trkpt>
      <trkpt lat="42.64069" lon="1.70732">
        <ele>1837.336</ele>
        <time>2021-08-06T07:33:07Z</time>
      </trkpt>
      <trkpt lat="42.64068" lon="1.70733">
        <ele>1837.66</ele>
        <time>2021-08-06T07:33:09Z</time>
      </trkpt>
      <trkpt lat="42.64067" lon="1.70735">
        <ele>1838.796</ele>
        <time>2021-08-06T07:33:11Z</time>
      </trkpt>
      <trkpt lat="42.64065" lon="1.70736">
        <ele>1839.225</ele>
        <time>2021-08-06T07:33:13Z</time>
      </trkpt>
      <trkpt lat="42.64064" lon="1.70738">
        <ele>1838.981</ele>
        <time>2021-08-06T07:33:15Z</time>
      </trkpt>
      <trkpt lat="42.64064" lon="1.7074">
        <ele>1838.663</ele>
        <time>2021-08-06T07:33:17Z</time>
      </trkpt>
      <trkpt lat="42.64063" lon="1.70742">
        <ele>1837.119</ele>
        <time>2021-08-06T07:33:19Z</time>
      </trkpt>
      <trkpt lat="42.64061" lon="1.70744">
        <ele>1837.482</ele>
        <time>2021-08-06T07:33:21Z</time>
      </trkpt>
      <trkpt lat="42.6406" lon="1.70746">
        <ele>1837.614</ele>
        <time>2021-08-06T07:33:23Z</time>
      </trkpt>
      <trkpt lat="42.64059" lon="1.70749">
        <ele>1837.904</ele>
        <time>2021-08-06T07:33:25Z</time>
      </trkpt>
      <trkpt lat="42.64058" lon="1.70752">
        <ele>1837.998</ele>
        <time>2021-08-06T07:33:27Z</time>
      </trkpt>
      <trkpt lat="42.64057" lon="1.70754">
        <ele>1837.641</ele>
        <time>2021-08-06T07:33:29Z</time>
      </trkpt>
      <trkpt lat="42.64055" lon="1.70756">
        <ele>1837.332</ele>
        <time>2021-08-06T07:33:31Z</time>
      </trkpt>
      <trkpt lat="42.64055" lon="1.70758">
        <ele>1837.09</ele>
        <time>2021-08-06T07:33:33Z</time>
      </trkpt>
      <trkpt lat="42.64054" lon="1.7076">
        <ele>1837.813</ele>
        <time>2021-08-06T07:33:35Z</time>
      </trkpt>
      <trkpt lat="42.64052" lon="1.70762">
        <ele>1838.395</ele>
        <time>2021-08-06T07:33:37Z</time>
      </trkpt>
      <trkpt lat="42.6405" lon="1.70764">
        <ele>1838.275</ele>
        <time>2021-08-06T07:33:39Z</time>
      </trkpt>
      <trkpt lat="42.64049" lon="1.70766">
        <ele>1837.889</ele>
        <time>2021-08-06T07:33:41Z</time>
      </trkpt>
      <trkpt lat="42.64048" lon="1.70766">
        <ele>1838.395</ele>
        <time>2021-08-06T07:33:43Z</time>
      </trkpt>
      <trkpt lat="42.64046" lon="1.70767">
        <ele>1838.957</ele>
        <time>2021-08-06T07:33:45Z</time>
      </trkpt>
      <trkpt lat="42.64044" lon="1.70769">
        <ele>1839.346</ele>
        <time>2021-08-06T07:33:47Z</time>
      </trkpt>
      <trkpt lat="42.64043" lon="1.70771">
        <ele>1838.953</ele>
        <time>2021-08-06T07:33:49Z</time>
      </trkpt>
      <trkpt lat="42.64041" lon="1.70772">
        <ele>1839.695</ele>
        <time>2021-08-06T07:33:51Z</time>
      </trkpt>
      <trkpt lat="42.64038" lon="1.70772">
        <ele>1839.695</ele>
        <time>2021-08-06T07:33:53Z</time>
      </trkpt>
      <trkpt lat="42.64036" lon="1.70773">
        <ele>1840.049</ele>
        <time>2021-08-06T07:33:55Z</time>
      </trkpt>
      <trkpt lat="42.64035" lon="1.70776">
        <ele>1840.667</ele>
        <time>2021-08-06T07:33:57Z</time>
      </trkpt>
      <trkpt lat="42.64034" lon="1.70778">
        <ele>1840.635</ele>
        <time>2021-08-06T07:33:59Z</time>
      </trkpt>
      <trkpt lat="42.64032" lon="1.7078">
        <ele>1841.025</ele>
        <time>2021-08-06T07:34:01Z</time>
      </trkpt>
      <trkpt lat="42.64031" lon="1.70781">
        <ele>1842.416</ele>
        <time>2021-08-06T07:34:03Z</time>
      </trkpt>
      <trkpt lat="42.64031" lon="1.70781">
        <ele>1842.033</ele>
        <time>2021-08-06T07:34:05Z</time>
      </trkpt>
      <trkpt lat="42.64031" lon="1.70784">
        <ele>1842.098</ele>
        <time>2021-08-06T07:34:07Z</time>
      </trkpt>
      <trkpt lat="42.6403" lon="1.70786">
        <ele>1842.577</ele>
        <time>2021-08-06T07:34:09Z</time>
      </trkpt>
      <trkpt lat="42.64029" lon="1.70786">
        <ele>1842.127</ele>
        <time>2021-08-06T07:34:11Z</time>
      </trkpt>
      <trkpt lat="42.64028" lon="1.70788">
        <ele>1842.519</ele>
        <time>2021-08-06T07:34:13Z</time>
      </trkpt>
      <trkpt lat="42.64027" lon="1.70789">
        <ele>1842.078</ele>
        <time>2021-08-06T07:34:15Z</time>
      </trkpt>
      <trkpt lat="42.64026" lon="1.7079">
        <ele>1841.697</ele>
        <time>2021-08-06T07:34:17Z</time>
      </trkpt>
      <trkpt lat="42.64025" lon="1.70792">
        <ele>1841.524</ele>
        <time>2021-08-06T07:34:19Z</time>
      </trkpt>
      <trkpt lat="42.64025" lon="1.70794">
        <ele>1841.756</ele>
        <time>2021-08-06T07:34:21Z</time>
      </trkpt>
      <trkpt lat="42.64024" lon="1.70795">
        <ele>1842.217</ele>
        <time>2021-08-06T07:34:23Z</time>
      </trkpt>
      <trkpt lat="42.64023" lon="1.70797">
        <ele>1842.036</ele>
        <time>2021-08-06T07:34:25Z</time>
      </trkpt>
      <trkpt lat="42.64022" lon="1.70799">
        <ele>1842.416</ele>
        <time>2021-08-06T07:34:27Z</time>
      </trkpt>
      <trkpt lat="42.64022" lon="1.70801">
        <ele>1843.293</ele>
        <time>2021-08-06T07:34:29Z</time>
      </trkpt>
      <trkpt lat="42.6402" lon="1.70801">
        <ele>1843.168</ele>
        <time>2021-08-06T07:34:31Z</time>
      </trkpt>
      <trkpt lat="42.64019" lon="1.70798">
        <ele>1842.177</ele>
        <time>2021-08-06T07:34:33Z</time>
      </trkpt>
      <trkpt lat="42.64017" lon="1.70799">
        <ele>1842.663</ele>
        <time>2021-08-06T07:34:35Z</time>
      </trkpt>
      <trkpt lat="42.64016" lon="1.708">
        <ele>1842.661</ele>
        <time>2021-08-06T07:34:37Z</time>
      </trkpt>
      <trkpt lat="42.64015" lon="1.70802">
        <ele>1842.708</ele>
        <time>2021-08-06T07:34:39Z</time>
      </trkpt>
      <trkpt lat="42.64014" lon="1.70804">
        <ele>1843.593</ele>
        <time>2021-08-06T07:34:41Z</time>
      </trkpt>
      <trkpt lat="42.64012" lon="1.70805">
        <ele>1843.813</ele>
        <time>2021-08-06T07:34:43Z</time>
      </trkpt>
      <trkpt lat="42.64011" lon="1.70805">
        <ele>1843.764</ele>
        <time>2021-08-06T07:34:45Z</time>
      </trkpt>
      <trkpt lat="42.6401" lon="1.70807">
        <ele>1843.501</ele>
        <time>2021-08-06T07:34:47Z</time>
      </trkpt>
      <trkpt lat="42.64009" lon="1.70808">
        <ele>1843.769</ele>
        <time>2021-08-06T07:34:49Z</time>
      </trkpt>
      <trkpt lat="42.64007" lon="1.7081">
        <ele>1844.287</ele>
        <time>2021-08-06T07:34:51Z</time>
      </trkpt>
      <trkpt lat="42.64006" lon="1.70811">
        <ele>1844.343</ele>
        <time>2021-08-06T07:34:53Z</time>
      </trkpt>
      <trkpt lat="42.64005" lon="1.70814">
        <ele>1844.747</ele>
        <time>2021-08-06T07:34:55Z</time>
      </trkpt>
      <trkpt lat="42.64005" lon="1.70816">
        <ele>1844.965</ele>
        <time>2021-08-06T07:34:57Z</time>
      </trkpt>
      <trkpt lat="42.64005" lon="1.70818">
        <ele>1845.317</ele>
        <time>2021-08-06T07:34:59Z</time>
      </trkpt>
      <trkpt lat="42.64004" lon="1.7082">
        <ele>1844.861</ele>
        <time>2021-08-06T07:35:01Z</time>
      </trkpt>
      <trkpt lat="42.64004" lon="1.70822">
        <ele>1845.324</ele>
        <time>2021-08-06T07:35:03Z</time>
      </trkpt>
      <trkpt lat="42.64004" lon="1.70825">
        <ele>1845.249</ele>
        <time>2021-08-06T07:35:05Z</time>
      </trkpt>
      <trkpt lat="42.64003" lon="1.70827">
        <ele>1845.63</ele>
        <time>2021-08-06T07:35:07Z</time>
      </trkpt>
      <trkpt lat="42.64002" lon="1.70829">
        <ele>1846.498</ele>
        <time>2021-08-06T07:35:09Z</time>
      </trkpt>
      <trkpt lat="42.64002" lon="1.70831">
        <ele>1846.797</ele>
        <time>2021-08-06T07:35:11Z</time>
      </trkpt>
      <trkpt lat="42.64002" lon="1.70833">
        <ele>1846.506</ele>
        <time>2021-08-06T07:35:13Z</time>
      </trkpt>
      <trkpt lat="42.64002" lon="1.70834">
        <ele>1846.527</ele>
        <time>2021-08-06T07:35:15Z</time>
      </trkpt>
      <trkpt lat="42.64001" lon="1.70836">
        <ele>1847.048</ele>
        <time>2021-08-06T07:35:17Z</time>
      </trkpt>
      <trkpt lat="42.64" lon="1.70836">
        <ele>1848.126</ele>
        <time>2021-08-06T07:35:19Z</time>
      </trkpt>
      <trkpt lat="42.64" lon="1.70837">
        <ele>1848.634</ele>
        <time>2021-08-06T07:35:21Z</time>
      </trkpt>
      <trkpt lat="42.63999" lon="1.70838">
        <ele>1848.342</ele>
        <time>2021-08-06T07:35:23Z</time>
      </trkpt>
      <trkpt lat="42.63999" lon="1.7084">
        <ele>1848.854</ele>
        <time>2021-08-06T07:35:25Z</time>
      </trkpt>
      <trkpt lat="42.64" lon="1.70842">
        <ele>1848.431</ele>
        <time>2021-08-06T07:35:27Z</time>
      </trkpt>
      <trkpt lat="42.64" lon="1.70843">
        <ele>1848.5</ele>
        <time>2021-08-06T07:35:29Z</time>
      </trkpt>
      <trkpt lat="42.64" lon="1.70845">
        <ele>1849.208</ele>
        <time>2021-08-06T07:35:31Z</time>
      </trkpt>
      <trkpt lat="42.63999" lon="1.70847">
        <ele>1849.905</ele>
        <time>2021-08-06T07:35:33Z</time>
      </trkpt>
      <trkpt lat="42.63998" lon="1.70848">
        <ele>1849.755</ele>
        <time>2021-08-06T07:35:35Z</time>
      </trkpt>
      <trkpt lat="42.63998" lon="1.70849">
        <ele>1850.12</ele>
        <time>2021-08-06T07:35:37Z</time>
      </trkpt>
      <trkpt lat="42.63998" lon="1.70851">
        <ele>1851.074</ele>
        <time>2021-08-06T07:35:39Z</time>
      </trkpt>
      <trkpt lat="42.63999" lon="1.70852">
        <ele>1850.854</ele>
        <time>2021-08-06T07:35:41Z</time>
      </trkpt>
      <trkpt lat="42.63999" lon="1.70854">
        <ele>1850.788</ele>
        <time>2021-08-06T07:35:43Z</time>
      </trkpt>
      <trkpt lat="42.63998" lon="1.70856">
        <ele>1850.908</ele>
        <time>2021-08-06T07:35:45Z</time>
      </trkpt>
      <trkpt lat="42.63997" lon="1.70857">
        <ele>1849.818</ele>
        <time>2021-08-06T07:35:47Z</time>
      </trkpt>
      <trkpt lat="42.63997" lon="1.70859">
        <ele>1850.276</ele>
        <time>2021-08-06T07:35:49Z</time>
      </trkpt>
      <trkpt lat="42.63996" lon="1.70861">
        <ele>1850.931</ele>
        <time>2021-08-06T07:35:51Z</time>
      </trkpt>
      <trkpt lat="42.63995" lon="1.70862">
        <ele>1851.012</ele>
        <time>2021-08-06T07:35:53Z</time>
      </trkpt>
      <trkpt lat="42.63994" lon="1.70864">
        <ele>1850.999</ele>
        <time>2021-08-06T07:35:55Z</time>
      </trkpt>
      <trkpt lat="42.63993" lon="1.70866">
        <ele>1850.961</ele>
        <time>2021-08-06T07:35:57Z</time>
      </trkpt>
      <trkpt lat="42.63992" lon="1.70868">
        <ele>1851.039</ele>
        <time>2021-08-06T07:35:59Z</time>
      </trkpt>
      <trkpt lat="42.63991" lon="1.70871">
        <ele>1851.322</ele>
        <time>2021-08-06T07:36:01Z</time>
      </trkpt>
      <trkpt lat="42.6399" lon="1.70873">
        <ele>1851.287</ele>
        <time>2021-08-06T07:36:03Z</time>
      </trkpt>
      <trkpt lat="42.63989" lon="1.70876">
        <ele>1852.047</ele>
        <time>2021-08-06T07:36:05Z</time>
      </trkpt>
      <trkpt lat="42.63989" lon="1.70878">
        <ele>1852.792</ele>
        <time>2021-08-06T07:36:07Z</time>
      </trkpt>
      <trkpt lat="42.63989" lon="1.70881">
        <ele>1853.614</ele>
        <time>2021-08-06T07:36:09Z</time>
      </trkpt>
      <trkpt lat="42.63989" lon="1.70883">
        <ele>1854.21</ele>
        <time>2021-08-06T07:36:11Z</time>
      </trkpt>
      <trkpt lat="42.6399" lon="1.70886">
        <ele>1854.112</ele>
        <time>2021-08-06T07:36:13Z</time>
      </trkpt>
      <trkpt lat="42.6399" lon="1.70888">
        <ele>1854.396</ele>
        <time>2021-08-06T07:36:15Z</time>
      </trkpt>
      <trkpt lat="42.63989" lon="1.7089">
        <ele>1853.684</ele>
        <time>2021-08-06T07:36:17Z</time>
      </trkpt>
      <trkpt lat="42.63989" lon="1.70892">
        <ele>1853.638</ele>
        <time>2021-08-06T07:36:19Z</time>
      </trkpt>
      <trkpt lat="42.63987" lon="1.70894">
        <ele>1853.665</ele>
        <time>2021-08-06T07:36:21Z</time>
      </trkpt>
      <trkpt lat="42.63987" lon="1.70896">
        <ele>1853.785</ele>
        <time>2021-08-06T07:36:23Z</time>
      </trkpt>
      <trkpt lat="42.63986" lon="1.70897">
        <ele>1854.83</ele>
        <time>2021-08-06T07:36:25Z</time>
      </trkpt>
      <trkpt lat="42.63986" lon="1.70899">
        <ele>1854.991</ele>
        <time>2021-08-06T07:36:27Z</time>
      </trkpt>
      <trkpt lat="42.63985" lon="1.70901">
        <ele>1854.801</ele>
        <time>2021-08-06T07:36:29Z</time>
      </trkpt>
      <trkpt lat="42.63985" lon="1.70903">
        <ele>1855.286</ele>
        <time>2021-08-06T07:36:31Z</time>
      </trkpt>
      <trkpt lat="42.63985" lon="1.70905">
        <ele>1854.962</ele>
        <time>2021-08-06T07:36:33Z</time>
      </trkpt>
      <trkpt lat="42.63986" lon="1.70907">
        <ele>1855.673</ele>
        <time>2021-08-06T07:36:35Z</time>
      </trkpt>
      <trkpt lat="42.63986" lon="1.70909">
        <ele>1856.294</ele>
        <time>2021-08-06T07:36:37Z</time>
      </trkpt>
      <trkpt lat="42.63987" lon="1.7091">
        <ele>1856.119</ele>
        <time>2021-08-06T07:36:39Z</time>
      </trkpt>
      <trkpt lat="42.63988" lon="1.70912">
        <ele>1855.608</ele>
        <time>2021-08-06T07:36:41Z</time>
      </trkpt>
      <trkpt lat="42.63989" lon="1.70914">
        <ele>1855.265</ele>
        <time>2021-08-06T07:36:43Z</time>
      </trkpt>
      <trkpt lat="42.63989" lon="1.70916">
        <ele>1854.674</ele>
        <time>2021-08-06T07:36:45Z</time>
      </trkpt>
      <trkpt lat="42.63989" lon="1.70918">
        <ele>1855.42</ele>
        <time>2021-08-06T07:36:47Z</time>
      </trkpt>
      <trkpt lat="42.63989" lon="1.7092">
        <ele>1855.72</ele>
        <time>2021-08-06T07:36:49Z</time>
      </trkpt>
      <trkpt lat="42.63989" lon="1.70921">
        <ele>1855.774</ele>
        <time>2021-08-06T07:36:51Z</time>
      </trkpt>
      <trkpt lat="42.63989" lon="1.70923">
        <ele>1855.96</ele>
        <time>2021-08-06T07:36:53Z</time>
      </trkpt>
      <trkpt lat="42.63989" lon="1.70925">
        <ele>1856.502</ele>
        <time>2021-08-06T07:36:55Z</time>
      </trkpt>
      <trkpt lat="42.63989" lon="1.70927">
        <ele>1856.468</ele>
        <time>2021-08-06T07:36:57Z</time>
      </trkpt>
      <trkpt lat="42.63989" lon="1.70928">
        <ele>1856.853</ele>
        <time>2021-08-06T07:36:59Z</time>
      </trkpt>
      <trkpt lat="42.63989" lon="1.7093">
        <ele>1857.267</ele>
        <time>2021-08-06T07:37:01Z</time>
      </trkpt>
      <trkpt lat="42.6399" lon="1.70932">
        <ele>1857.786</ele>
        <time>2021-08-06T07:37:03Z</time>
      </trkpt>
      <trkpt lat="42.6399" lon="1.70933">
        <ele>1858.004</ele>
        <time>2021-08-06T07:37:05Z</time>
      </trkpt>
      <trkpt lat="42.63989" lon="1.70935">
        <ele>1858.343</ele>
        <time>2021-08-06T07:37:07Z</time>
      </trkpt>
      <trkpt lat="42.63989" lon="1.70937">
        <ele>1859.046</ele>
        <time>2021-08-06T07:37:09Z</time>
      </trkpt>
      <trkpt lat="42.63989" lon="1.70938">
        <ele>1859.623</ele>
        <time>2021-08-06T07:37:11Z</time>
      </trkpt>
      <trkpt lat="42.63989" lon="1.7094">
        <ele>1860.101</ele>
        <time>2021-08-06T07:37:13Z</time>
      </trkpt>
      <trkpt lat="42.63989" lon="1.70942">
        <ele>1859.883</ele>
        <time>2021-08-06T07:37:15Z</time>
      </trkpt>
      <trkpt lat="42.6399" lon="1.70944">
        <ele>1859.16</ele>
        <time>2021-08-06T07:37:17Z</time>
      </trkpt>
      <trkpt lat="42.63989" lon="1.70946">
        <ele>1858.72</ele>
        <time>2021-08-06T07:37:19Z</time>
      </trkpt>
      <trkpt lat="42.63989" lon="1.70948">
        <ele>1858.168</ele>
        <time>2021-08-06T07:37:21Z</time>
      </trkpt>
      <trkpt lat="42.63989" lon="1.7095">
        <ele>1858.238</ele>
        <time>2021-08-06T07:37:23Z</time>
      </trkpt>
      <trkpt lat="42.6399" lon="1.70952">
        <ele>1858.484</ele>
        <time>2021-08-06T07:37:25Z</time>
      </trkpt>
      <trkpt lat="42.63991" lon="1.70954">
        <ele>1859.581</ele>
        <time>2021-08-06T07:37:27Z</time>
      </trkpt>
      <trkpt lat="42.63991" lon="1.70957">
        <ele>1860.455</ele>
        <time>2021-08-06T07:37:29Z</time>
      </trkpt>
      <trkpt lat="42.63992" lon="1.70959">
        <ele>1860.861</ele>
        <time>2021-08-06T07:37:31Z</time>
      </trkpt>
      <trkpt lat="42.63992" lon="1.70961">
        <ele>1861.204</ele>
        <time>2021-08-06T07:37:33Z</time>
      </trkpt>
      <trkpt lat="42.63993" lon="1.70963">
        <ele>1860.788</ele>
        <time>2021-08-06T07:37:35Z</time>
      </trkpt>
      <trkpt lat="42.63993" lon="1.70965">
        <ele>1860.867</ele>
        <time>2021-08-06T07:37:37Z</time>
      </trkpt>
      <trkpt lat="42.63993" lon="1.70967">
        <ele>1860.364</ele>
        <time>2021-08-06T07:37:39Z</time>
      </trkpt>
      <trkpt lat="42.63993" lon="1.70969">
        <ele>1860.547</ele>
        <time>2021-08-06T07:37:41Z</time>
      </trkpt>
      <trkpt lat="42.63992" lon="1.70971">
        <ele>1860.754</ele>
        <time>2021-08-06T07:37:43Z</time>
      </trkpt>
      <trkpt lat="42.63991" lon="1.70973">
        <ele>1860.559</ele>
        <time>2021-08-06T07:37:46Z</time>
      </trkpt>
      <trkpt lat="42.63991" lon="1.70975">
        <ele>1860.257</ele>
        <time>2021-08-06T07:37:48Z</time>
      </trkpt>
      <trkpt lat="42.6399" lon="1.70978">
        <ele>1860.454</ele>
        <time>2021-08-06T07:37:50Z</time>
      </trkpt>
      <trkpt lat="42.63991" lon="1.7098">
        <ele>1860.369</ele>
        <time>2021-08-06T07:37:52Z</time>
      </trkpt>
      <trkpt lat="42.63991" lon="1.70982">
        <ele>1860.671</ele>
        <time>2021-08-06T07:37:54Z</time>
      </trkpt>
      <trkpt lat="42.63991" lon="1.70983">
        <ele>1860.693</ele>
        <time>2021-08-06T07:37:56Z</time>
      </trkpt>
      <trkpt lat="42.63991" lon="1.70986">
        <ele>1861.332</ele>
        <time>2021-08-06T07:37:58Z</time>
      </trkpt>
      <trkpt lat="42.63992" lon="1.70988">
        <ele>1861.036</ele>
        <time>2021-08-06T07:38:00Z</time>
      </trkpt>
      <trkpt lat="42.63992" lon="1.7099">
        <ele>1860.433</ele>
        <time>2021-08-06T07:38:02Z</time>
      </trkpt>
      <trkpt lat="42.63992" lon="1.70992">
        <ele>1859.875</ele>
        <time>2021-08-06T07:38:04Z</time>
      </trkpt>
      <trkpt lat="42.63992" lon="1.70994">
        <ele>1860.021</ele>
        <time>2021-08-06T07:38:06Z</time>
      </trkpt>
      <trkpt lat="42.63992" lon="1.70996">
        <ele>1860.457</ele>
        <time>2021-08-06T07:38:08Z</time>
      </trkpt>
      <trkpt lat="42.63991" lon="1.70999">
        <ele>1861.524</ele>
        <time>2021-08-06T07:38:10Z</time>
      </trkpt>
      <trkpt lat="42.63991" lon="1.71002">
        <ele>1861.157</ele>
        <time>2021-08-06T07:38:12Z</time>
      </trkpt>
      <trkpt lat="42.63991" lon="1.71004">
        <ele>1862.224</ele>
        <time>2021-08-06T07:38:14Z</time>
      </trkpt>
      <trkpt lat="42.63991" lon="1.71006">
        <ele>1861.619</ele>
        <time>2021-08-06T07:38:16Z</time>
      </trkpt>
      <trkpt lat="42.63991" lon="1.71009">
        <ele>1862.434</ele>
        <time>2021-08-06T07:38:18Z</time>
      </trkpt>
      <trkpt lat="42.6399" lon="1.71011">
        <ele>1863.127</ele>
        <time>2021-08-06T07:38:20Z</time>
      </trkpt>
      <trkpt lat="42.6399" lon="1.71013">
        <ele>1863.339</ele>
        <time>2021-08-06T07:38:22Z</time>
      </trkpt>
      <trkpt lat="42.6399" lon="1.71015">
        <ele>1862.992</ele>
        <time>2021-08-06T07:38:24Z</time>
      </trkpt>
      <trkpt lat="42.63991" lon="1.71017">
        <ele>1864.205</ele>
        <time>2021-08-06T07:38:26Z</time>
      </trkpt>
      <trkpt lat="42.63991" lon="1.71019">
        <ele>1864.451</ele>
        <time>2021-08-06T07:38:28Z</time>
      </trkpt>
      <trkpt lat="42.63991" lon="1.71021">
        <ele>1864.999</ele>
        <time>2021-08-06T07:38:30Z</time>
      </trkpt>
      <trkpt lat="42.6399" lon="1.71024">
        <ele>1866.826</ele>
        <time>2021-08-06T07:38:32Z</time>
      </trkpt>
      <trkpt lat="42.6399" lon="1.71026">
        <ele>1866.81</ele>
        <time>2021-08-06T07:38:34Z</time>
      </trkpt>
      <trkpt lat="42.63989" lon="1.71028">
        <ele>1867.443</ele>
        <time>2021-08-06T07:38:36Z</time>
      </trkpt>
      <trkpt lat="42.6399" lon="1.7103">
        <ele>1867.191</ele>
        <time>2021-08-06T07:38:38Z</time>
      </trkpt>
      <trkpt lat="42.6399" lon="1.71032">
        <ele>1866.976</ele>
        <time>2021-08-06T07:38:40Z</time>
      </trkpt>
      <trkpt lat="42.63991" lon="1.71034">
        <ele>1866.909</ele>
        <time>2021-08-06T07:38:42Z</time>
      </trkpt>
      <trkpt lat="42.63991" lon="1.71036">
        <ele>1867.717</ele>
        <time>2021-08-06T07:38:44Z</time>
      </trkpt>
      <trkpt lat="42.63991" lon="1.71038">
        <ele>1867.498</ele>
        <time>2021-08-06T07:38:46Z</time>
      </trkpt>
      <trkpt lat="42.63991" lon="1.7104">
        <ele>1866.727</ele>
        <time>2021-08-06T07:38:48Z</time>
      </trkpt>
      <trkpt lat="42.63991" lon="1.71041">
        <ele>1866.975</ele>
        <time>2021-08-06T07:38:50Z</time>
      </trkpt>
      <trkpt lat="42.63991" lon="1.71041">
        <ele>1866.98</ele>
        <time>2021-08-06T07:38:52Z</time>
      </trkpt>
      <trkpt lat="42.63991" lon="1.71044">
        <ele>1863.814</ele>
        <time>2021-08-06T07:38:54Z</time>
      </trkpt>
      <trkpt lat="42.63993" lon="1.71047">
        <ele>1863.901</ele>
        <time>2021-08-06T07:38:56Z</time>
      </trkpt>
      <trkpt lat="42.63992" lon="1.71049">
        <ele>1864.14</ele>
        <time>2021-08-06T07:38:58Z</time>
      </trkpt>
      <trkpt lat="42.6399" lon="1.71051">
        <ele>1864.25</ele>
        <time>2021-08-06T07:39:00Z</time>
      </trkpt>
      <trkpt lat="42.63989" lon="1.71054">
        <ele>1865.735</ele>
        <time>2021-08-06T07:39:02Z</time>
      </trkpt>
      <trkpt lat="42.63989" lon="1.71057">
        <ele>1866.312</ele>
        <time>2021-08-06T07:39:04Z</time>
      </trkpt>
      <trkpt lat="42.63988" lon="1.7106">
        <ele>1867.275</ele>
        <time>2021-08-06T07:39:06Z</time>
      </trkpt>
      <trkpt lat="42.63987" lon="1.71062">
        <ele>1867.108</ele>
        <time>2021-08-06T07:39:08Z</time>
      </trkpt>
      <trkpt lat="42.63988" lon="1.71065">
        <ele>1867.055</ele>
        <time>2021-08-06T07:39:10Z</time>
      </trkpt>
      <trkpt lat="42.63987" lon="1.71067">
        <ele>1867.928</ele>
        <time>2021-08-06T07:39:12Z</time>
      </trkpt>
      <trkpt lat="42.63987" lon="1.7107">
        <ele>1868.513</ele>
        <time>2021-08-06T07:39:14Z</time>
      </trkpt>
      <trkpt lat="42.63988" lon="1.71073">
        <ele>1869.488</ele>
        <time>2021-08-06T07:39:16Z</time>
      </trkpt>
      <trkpt lat="42.63988" lon="1.71075">
        <ele>1870.534</ele>
        <time>2021-08-06T07:39:18Z</time>
      </trkpt>
      <trkpt lat="42.63988" lon="1.71078">
        <ele>1871.053</ele>
        <time>2021-08-06T07:39:20Z</time>
      </trkpt>
      <trkpt lat="42.63987" lon="1.71081">
        <ele>1871.659</ele>
        <time>2021-08-06T07:39:22Z</time>
      </trkpt>
      <trkpt lat="42.63986" lon="1.71083">
        <ele>1872.535</ele>
        <time>2021-08-06T07:39:24Z</time>
      </trkpt>
      <trkpt lat="42.63986" lon="1.71086">
        <ele>1873.078</ele>
        <time>2021-08-06T07:39:26Z</time>
      </trkpt>
      <trkpt lat="42.63986" lon="1.71088">
        <ele>1873.66</ele>
        <time>2021-08-06T07:39:28Z</time>
      </trkpt>
      <trkpt lat="42.63987" lon="1.7109">
        <ele>1873.006</ele>
        <time>2021-08-06T07:39:30Z</time>
      </trkpt>
      <trkpt lat="42.63988" lon="1.71092">
        <ele>1872.261</ele>
        <time>2021-08-06T07:39:32Z</time>
      </trkpt>
      <trkpt lat="42.63987" lon="1.71094">
        <ele>1872.567</ele>
        <time>2021-08-06T07:39:34Z</time>
      </trkpt>
      <trkpt lat="42.63987" lon="1.71095">
        <ele>1872.689</ele>
        <time>2021-08-06T07:39:36Z</time>
      </trkpt>
      <trkpt lat="42.63987" lon="1.71098">
        <ele>1873.235</ele>
        <time>2021-08-06T07:39:38Z</time>
      </trkpt>
      <trkpt lat="42.63987" lon="1.711">
        <ele>1873.486</ele>
        <time>2021-08-06T07:39:40Z</time>
      </trkpt>
      <trkpt lat="42.63987" lon="1.71102">
        <ele>1873.474</ele>
        <time>2021-08-06T07:39:42Z</time>
      </trkpt>
      <trkpt lat="42.63987" lon="1.71104">
        <ele>1874.543</ele>
        <time>2021-08-06T07:39:44Z</time>
      </trkpt>
      <trkpt lat="42.63987" lon="1.71107">
        <ele>1874.737</ele>
        <time>2021-08-06T07:39:46Z</time>
      </trkpt>
      <trkpt lat="42.63987" lon="1.71109">
        <ele>1874.448</ele>
        <time>2021-08-06T07:39:48Z</time>
      </trkpt>
      <trkpt lat="42.63987" lon="1.71111">
        <ele>1875.013</ele>
        <time>2021-08-06T07:39:50Z</time>
      </trkpt>
      <trkpt lat="42.63988" lon="1.71113">
        <ele>1875.024</ele>
        <time>2021-08-06T07:39:52Z</time>
      </trkpt>
      <trkpt lat="42.63988" lon="1.71115">
        <ele>1875.382</ele>
        <time>2021-08-06T07:39:54Z</time>
      </trkpt>
      <trkpt lat="42.6399" lon="1.71116">
        <ele>1873.965</ele>
        <time>2021-08-06T07:39:56Z</time>
      </trkpt>
      <trkpt lat="42.6399" lon="1.71118">
        <ele>1874.075</ele>
        <time>2021-08-06T07:39:58Z</time>
      </trkpt>
      <trkpt lat="42.6399" lon="1.7112">
        <ele>1874.264</ele>
        <time>2021-08-06T07:40:00Z</time>
      </trkpt>
      <trkpt lat="42.63991" lon="1.71122">
        <ele>1874.393</ele>
        <time>2021-08-06T07:40:02Z</time>
      </trkpt>
      <trkpt lat="42.63991" lon="1.71124">
        <ele>1875.654</ele>
        <time>2021-08-06T07:40:04Z</time>
      </trkpt>
      <trkpt lat="42.63991" lon="1.71126">
        <ele>1876.143</ele>
        <time>2021-08-06T07:40:06Z</time>
      </trkpt>
      <trkpt lat="42.63991" lon="1.71127">
        <ele>1875.736</ele>
        <time>2021-08-06T07:40:08Z</time>
      </trkpt>
      <trkpt lat="42.63991" lon="1.71127">
        <ele>1875.752</ele>
        <time>2021-08-06T07:40:10Z</time>
      </trkpt>
      <trkpt lat="42.63991" lon="1.71127">
        <ele>1875.753</ele>
        <time>2021-08-06T07:40:12Z</time>
      </trkpt>
      <trkpt lat="42.63991" lon="1.71127">
        <ele>1875.779</ele>
        <time>2021-08-06T07:40:14Z</time>
      </trkpt>
      <trkpt lat="42.63991" lon="1.71127">
        <ele>1875.785</ele>
        <time>2021-08-06T07:40:16Z</time>
      </trkpt>
      <trkpt lat="42.63991" lon="1.71127">
        <ele>1875.786</ele>
        <time>2021-08-06T07:40:18Z</time>
      </trkpt>
      <trkpt lat="42.63991" lon="1.71127">
        <ele>1875.797</ele>
        <time>2021-08-06T07:40:20Z</time>
      </trkpt>
      <trkpt lat="42.63991" lon="1.71127">
        <ele>1875.812</ele>
        <time>2021-08-06T07:40:22Z</time>
      </trkpt>
      <trkpt lat="42.63991" lon="1.71127">
        <ele>1875.82</ele>
        <time>2021-08-06T07:40:24Z</time>
      </trkpt>
      <trkpt lat="42.63991" lon="1.71127">
        <ele>1875.831</ele>
        <time>2021-08-06T07:40:26Z</time>
      </trkpt>
      <trkpt lat="42.63991" lon="1.71127">
        <ele>1875.847</ele>
        <time>2021-08-06T07:40:28Z</time>
      </trkpt>
      <trkpt lat="42.63991" lon="1.71127">
        <ele>1875.864</ele>
        <time>2021-08-06T07:40:30Z</time>
      </trkpt>
      <trkpt lat="42.63991" lon="1.71127">
        <ele>1875.882</ele>
        <time>2021-08-06T07:40:32Z</time>
      </trkpt>
      <trkpt lat="42.63991" lon="1.71128">
        <ele>1876.032</ele>
        <time>2021-08-06T07:40:34Z</time>
      </trkpt>
      <trkpt lat="42.63991" lon="1.71129">
        <ele>1876.259</ele>
        <time>2021-08-06T07:40:36Z</time>
      </trkpt>
      <trkpt lat="42.6399" lon="1.71131">
        <ele>1876.552</ele>
        <time>2021-08-06T07:40:38Z</time>
      </trkpt>
      <trkpt lat="42.6399" lon="1.71132">
        <ele>1876.428</ele>
        <time>2021-08-06T07:40:40Z</time>
      </trkpt>
      <trkpt lat="42.63989" lon="1.71134">
        <ele>1877.92</ele>
        <time>2021-08-06T07:40:42Z</time>
      </trkpt>
      <trkpt lat="42.63988" lon="1.71136">
        <ele>1879.547</ele>
        <time>2021-08-06T07:40:44Z</time>
      </trkpt>
      <trkpt lat="42.63989" lon="1.71139">
        <ele>1880.553</ele>
        <time>2021-08-06T07:40:46Z</time>
      </trkpt>
      <trkpt lat="42.63989" lon="1.7114">
        <ele>1880.232</ele>
        <time>2021-08-06T07:40:48Z</time>
      </trkpt>
      <trkpt lat="42.63988" lon="1.71141">
        <ele>1881.327</ele>
        <time>2021-08-06T07:40:50Z</time>
      </trkpt>
      <trkpt lat="42.63989" lon="1.71143">
        <ele>1881.909</ele>
        <time>2021-08-06T07:40:52Z</time>
      </trkpt>
      <trkpt lat="42.63989" lon="1.71146">
        <ele>1882.147</ele>
        <time>2021-08-06T07:40:54Z</time>
      </trkpt>
      <trkpt lat="42.6399" lon="1.71149">
        <ele>1882.995</ele>
        <time>2021-08-06T07:40:56Z</time>
      </trkpt>
      <trkpt lat="42.6399" lon="1.71152">
        <ele>1883.402</ele>
        <time>2021-08-06T07:40:58Z</time>
      </trkpt>
      <trkpt lat="42.6399" lon="1.71155">
        <ele>1883.295</ele>
        <time>2021-08-06T07:41:00Z</time>
      </trkpt>
      <trkpt lat="42.6399" lon="1.71157">
        <ele>1883.984</ele>
        <time>2021-08-06T07:41:02Z</time>
      </trkpt>
      <trkpt lat="42.6399" lon="1.71159">
        <ele>1883.675</ele>
        <time>2021-08-06T07:41:04Z</time>
      </trkpt>
      <trkpt lat="42.6399" lon="1.7116">
        <ele>1883.719</ele>
        <time>2021-08-06T07:41:06Z</time>
      </trkpt>
      <trkpt lat="42.63989" lon="1.71162">
        <ele>1884.307</ele>
        <time>2021-08-06T07:41:08Z</time>
      </trkpt>
      <trkpt lat="42.63988" lon="1.71164">
        <ele>1885.364</ele>
        <time>2021-08-06T07:41:10Z</time>
      </trkpt>
      <trkpt lat="42.63988" lon="1.71167">
        <ele>1886.573</ele>
        <time>2021-08-06T07:41:12Z</time>
      </trkpt>
      <trkpt lat="42.63987" lon="1.71171">
        <ele>1887.917</ele>
        <time>2021-08-06T07:41:14Z</time>
      </trkpt>
      <trkpt lat="42.63987" lon="1.71173">
        <ele>1887.889</ele>
        <time>2021-08-06T07:41:16Z</time>
      </trkpt>
      <trkpt lat="42.63988" lon="1.71176">
        <ele>1888.364</ele>
        <time>2021-08-06T07:41:18Z</time>
      </trkpt>
      <trkpt lat="42.63987" lon="1.71179">
        <ele>1889.742</ele>
        <time>2021-08-06T07:41:20Z</time>
      </trkpt>
      <trkpt lat="42.63987" lon="1.7118">
        <ele>1889.849</ele>
        <time>2021-08-06T07:41:22Z</time>
      </trkpt>
      <trkpt lat="42.63987" lon="1.71183">
        <ele>1891.231</ele>
        <time>2021-08-06T07:41:24Z</time>
      </trkpt>
      <trkpt lat="42.63987" lon="1.71182">
        <ele>1890.536</ele>
        <time>2021-08-06T07:41:26Z</time>
      </trkpt>
      <trkpt lat="42.63987" lon="1.71182">
        <ele>1890.555</ele>
        <time>2021-08-06T07:41:28Z</time>
      </trkpt>
      <trkpt lat="42.63987" lon="1.71182">
        <ele>1890.548</ele>
        <time>2021-08-06T07:41:30Z</time>
      </trkpt>
      <trkpt lat="42.63987" lon="1.71182">
        <ele>1890.543</ele>
        <time>2021-08-06T07:41:32Z</time>
      </trkpt>
      <trkpt lat="42.63987" lon="1.71182">
        <ele>1890.55</ele>
        <time>2021-08-06T07:41:34Z</time>
      </trkpt>
      <trkpt lat="42.63987" lon="1.71183">
        <ele>1890.1</ele>
        <time>2021-08-06T07:41:36Z</time>
      </trkpt>
      <trkpt lat="42.63987" lon="1.71183">
        <ele>1890.359</ele>
        <time>2021-08-06T07:41:38Z</time>
      </trkpt>
      <trkpt lat="42.63987" lon="1.71183">
        <ele>1890.598</ele>
        <time>2021-08-06T07:41:40Z</time>
      </trkpt>
      <trkpt lat="42.63987" lon="1.71183">
        <ele>1890.595</ele>
        <time>2021-08-06T07:41:42Z</time>
      </trkpt>
      <trkpt lat="42.63987" lon="1.71183">
        <ele>1890.6</ele>
        <time>2021-08-06T07:41:44Z</time>
      </trkpt>
      <trkpt lat="42.63987" lon="1.71183">
        <ele>1890.611</ele>
        <time>2021-08-06T07:41:46Z</time>
      </trkpt>
      <trkpt lat="42.63987" lon="1.71183">
        <ele>1890.613</ele>
        <time>2021-08-06T07:41:48Z</time>
      </trkpt>
      <trkpt lat="42.63987" lon="1.71183">
        <ele>1890.613</ele>
        <time>2021-08-06T07:41:50Z</time>
      </trkpt>
      <trkpt lat="42.63987" lon="1.71183">
        <ele>1890.616</ele>
        <time>2021-08-06T07:41:52Z</time>
      </trkpt>
      <trkpt lat="42.63987" lon="1.71183">
        <ele>1890.619</ele>
        <time>2021-08-06T07:41:54Z</time>
      </trkpt>
      <trkpt lat="42.63987" lon="1.71183">
        <ele>1890.635</ele>
        <time>2021-08-06T07:41:56Z</time>
      </trkpt>
      <trkpt lat="42.63987" lon="1.71183">
        <ele>1890.629</ele>
        <time>2021-08-06T07:41:58Z</time>
      </trkpt>
      <trkpt lat="42.63987" lon="1.71183">
        <ele>1890.611</ele>
        <time>2021-08-06T07:42:01Z</time>
      </trkpt>
      <trkpt lat="42.63987" lon="1.71183">
        <ele>1890.601</ele>
        <time>2021-08-06T07:42:03Z</time>
      </trkpt>
      <trkpt lat="42.63987" lon="1.71183">
        <ele>1890.572</ele>
        <time>2021-08-06T07:42:05Z</time>
      </trkpt>
      <trkpt lat="42.63987" lon="1.71183">
        <ele>1890.543</ele>
        <time>2021-08-06T07:42:07Z</time>
      </trkpt>
      <trkpt lat="42.63987" lon="1.71182">
        <ele>1891.097</ele>
        <time>2021-08-06T07:42:09Z</time>
      </trkpt>
      <trkpt lat="42.63987" lon="1.71181">
        <ele>1891.11</ele>
        <time>2021-08-06T07:42:11Z</time>
      </trkpt>
      <trkpt lat="42.63987" lon="1.71181">
        <ele>1891.263</ele>
        <time>2021-08-06T07:42:13Z</time>
      </trkpt>
      <trkpt lat="42.63987" lon="1.71181">
        <ele>1891.261</ele>
        <time>2021-08-06T07:42:15Z</time>
      </trkpt>
      <trkpt lat="42.63987" lon="1.71181">
        <ele>1891.265</ele>
        <time>2021-08-06T07:42:17Z</time>
      </trkpt>
      <trkpt lat="42.63987" lon="1.71181">
        <ele>1891.268</ele>
        <time>2021-08-06T07:42:19Z</time>
      </trkpt>
      <trkpt lat="42.63987" lon="1.71181">
        <ele>1891.266</ele>
        <time>2021-08-06T07:42:21Z</time>
      </trkpt>
      <trkpt lat="42.63987" lon="1.71181">
        <ele>1891.26</ele>
        <time>2021-08-06T07:42:23Z</time>
      </trkpt>
      <trkpt lat="42.63987" lon="1.71181">
        <ele>1891.262</ele>
        <time>2021-08-06T07:42:25Z</time>
      </trkpt>
      <trkpt lat="42.63988" lon="1.71181">
        <ele>1891.264</ele>
        <time>2021-08-06T07:42:27Z</time>
      </trkpt>
      <trkpt lat="42.63988" lon="1.71181">
        <ele>1891.258</ele>
        <time>2021-08-06T07:42:29Z</time>
      </trkpt>
      <trkpt lat="42.63988" lon="1.71181">
        <ele>1891.276</ele>
        <time>2021-08-06T07:42:31Z</time>
      </trkpt>
      <trkpt lat="42.63987" lon="1.71181">
        <ele>1891.308</ele>
        <time>2021-08-06T07:42:33Z</time>
      </trkpt>
      <trkpt lat="42.63987" lon="1.71181">
        <ele>1891.335</ele>
        <time>2021-08-06T07:42:35Z</time>
      </trkpt>
      <trkpt lat="42.63987" lon="1.71181">
        <ele>1891.343</ele>
        <time>2021-08-06T07:42:37Z</time>
      </trkpt>
      <trkpt lat="42.63988" lon="1.71181">
        <ele>1891.315</ele>
        <time>2021-08-06T07:42:39Z</time>
      </trkpt>
      <trkpt lat="42.63988" lon="1.71181">
        <ele>1891.299</ele>
        <time>2021-08-06T07:42:41Z</time>
      </trkpt>
      <trkpt lat="42.63988" lon="1.71181">
        <ele>1891.294</ele>
        <time>2021-08-06T07:42:43Z</time>
      </trkpt>
      <trkpt lat="42.63988" lon="1.71181">
        <ele>1891.291</ele>
        <time>2021-08-06T07:42:45Z</time>
      </trkpt>
      <trkpt lat="42.63988" lon="1.71181">
        <ele>1890.883</ele>
        <time>2021-08-06T07:42:47Z</time>
      </trkpt>
      <trkpt lat="42.63988" lon="1.7118">
        <ele>1891.063</ele>
        <time>2021-08-06T07:42:49Z</time>
      </trkpt>
      <trkpt lat="42.63988" lon="1.7118">
        <ele>1891.073</ele>
        <time>2021-08-06T07:42:51Z</time>
      </trkpt>
      <trkpt lat="42.63988" lon="1.71179">
        <ele>1891.075</ele>
        <time>2021-08-06T07:42:53Z</time>
      </trkpt>
      <trkpt lat="42.63988" lon="1.71179">
        <ele>1891.089</ele>
        <time>2021-08-06T07:42:55Z</time>
      </trkpt>
      <trkpt lat="42.63988" lon="1.71179">
        <ele>1891.089</ele>
        <time>2021-08-06T07:42:57Z</time>
      </trkpt>
      <trkpt lat="42.63988" lon="1.71179">
        <ele>1891.1</ele>
        <time>2021-08-06T07:42:59Z</time>
      </trkpt>
      <trkpt lat="42.63988" lon="1.71179">
        <ele>1891.102</ele>
        <time>2021-08-06T07:43:01Z</time>
      </trkpt>
      <trkpt lat="42.63988" lon="1.71179">
        <ele>1891.114</ele>
        <time>2021-08-06T07:43:03Z</time>
      </trkpt>
      <trkpt lat="42.63988" lon="1.71179">
        <ele>1891.119</ele>
        <time>2021-08-06T07:43:05Z</time>
      </trkpt>
      <trkpt lat="42.63988" lon="1.71179">
        <ele>1891.122</ele>
        <time>2021-08-06T07:43:07Z</time>
      </trkpt>
      <trkpt lat="42.63988" lon="1.71179">
        <ele>1891.12</ele>
        <time>2021-08-06T07:43:09Z</time>
      </trkpt>
      <trkpt lat="42.63988" lon="1.71179">
        <ele>1891.103</ele>
        <time>2021-08-06T07:43:11Z</time>
      </trkpt>
      <trkpt lat="42.63988" lon="1.71179">
        <ele>1891.111</ele>
        <time>2021-08-06T07:43:13Z</time>
      </trkpt>
      <trkpt lat="42.63988" lon="1.71179">
        <ele>1891.116</ele>
        <time>2021-08-06T07:43:15Z</time>
      </trkpt>
      <trkpt lat="42.63988" lon="1.71179">
        <ele>1891.124</ele>
        <time>2021-08-06T07:43:17Z</time>
      </trkpt>
      <trkpt lat="42.63988" lon="1.71179">
        <ele>1891.117</ele>
        <time>2021-08-06T07:43:19Z</time>
      </trkpt>
      <trkpt lat="42.63988" lon="1.71179">
        <ele>1891.112</ele>
        <time>2021-08-06T07:43:21Z</time>
      </trkpt>
      <trkpt lat="42.63988" lon="1.71179">
        <ele>1891.126</ele>
        <time>2021-08-06T07:43:23Z</time>
      </trkpt>
      <trkpt lat="42.63988" lon="1.71179">
        <ele>1891.125</ele>
        <time>2021-08-06T07:43:25Z</time>
      </trkpt>
      <trkpt lat="42.63988" lon="1.71179">
        <ele>1891.115</ele>
        <time>2021-08-06T07:43:27Z</time>
      </trkpt>
      <trkpt lat="42.63988" lon="1.71179">
        <ele>1891.108</ele>
        <time>2021-08-06T07:43:29Z</time>
      </trkpt>
      <trkpt lat="42.63988" lon="1.71179">
        <ele>1891.112</ele>
        <time>2021-08-06T07:43:31Z</time>
      </trkpt>
      <trkpt lat="42.63988" lon="1.71179">
        <ele>1891.11</ele>
        <time>2021-08-06T07:43:33Z</time>
      </trkpt>
      <trkpt lat="42.63988" lon="1.71179">
        <ele>1891.098</ele>
        <time>2021-08-06T07:43:35Z</time>
      </trkpt>
      <trkpt lat="42.63988" lon="1.71179">
        <ele>1891.091</ele>
        <time>2021-08-06T07:43:37Z</time>
      </trkpt>
      <trkpt lat="42.63988" lon="1.71179">
        <ele>1891.09</ele>
        <time>2021-08-06T07:43:39Z</time>
      </trkpt>
      <trkpt lat="42.63988" lon="1.71179">
        <ele>1891.082</ele>
        <time>2021-08-06T07:43:41Z</time>
      </trkpt>
      <trkpt lat="42.63988" lon="1.71179">
        <ele>1891.077</ele>
        <time>2021-08-06T07:43:43Z</time>
      </trkpt>
      <trkpt lat="42.63988" lon="1.71179">
        <ele>1891.077</ele>
        <time>2021-08-06T07:43:45Z</time>
      </trkpt>
      <trkpt lat="42.63988" lon="1.71179">
        <ele>1891.077</ele>
        <time>2021-08-06T07:43:47Z</time>
      </trkpt>
      <trkpt lat="42.63988" lon="1.71179">
        <ele>1891.082</ele>
        <time>2021-08-06T07:43:49Z</time>
      </trkpt>
      <trkpt lat="42.63988" lon="1.7118">
        <ele>1891.442</ele>
        <time>2021-08-06T07:43:51Z</time>
      </trkpt>
      <trkpt lat="42.63988" lon="1.7118">
        <ele>1891.446</ele>
        <time>2021-08-06T07:43:53Z</time>
      </trkpt>
      <trkpt lat="42.63988" lon="1.7118">
        <ele>1892.064</ele>
        <time>2021-08-06T07:43:55Z</time>
      </trkpt>
      <trkpt lat="42.63988" lon="1.7118">
        <ele>1892.079</ele>
        <time>2021-08-06T07:43:57Z</time>
      </trkpt>
      <trkpt lat="42.63988" lon="1.7118">
        <ele>1892.089</ele>
        <time>2021-08-06T07:43:59Z</time>
      </trkpt>
      <trkpt lat="42.63988" lon="1.7118">
        <ele>1892.087</ele>
        <time>2021-08-06T07:44:01Z</time>
      </trkpt>
      <trkpt lat="42.63988" lon="1.7118">
        <ele>1892.09</ele>
        <time>2021-08-06T07:44:03Z</time>
      </trkpt>
      <trkpt lat="42.63988" lon="1.7118">
        <ele>1892.087</ele>
        <time>2021-08-06T07:44:05Z</time>
      </trkpt>
      <trkpt lat="42.63988" lon="1.7118">
        <ele>1892.078</ele>
        <time>2021-08-06T07:44:07Z</time>
      </trkpt>
      <trkpt lat="42.63988" lon="1.7118">
        <ele>1892.083</ele>
        <time>2021-08-06T07:44:09Z</time>
      </trkpt>
      <trkpt lat="42.63988" lon="1.7118">
        <ele>1892.08</ele>
        <time>2021-08-06T07:44:11Z</time>
      </trkpt>
      <trkpt lat="42.63988" lon="1.7118">
        <ele>1892.081</ele>
        <time>2021-08-06T07:44:13Z</time>
      </trkpt>
      <trkpt lat="42.63988" lon="1.7118">
        <ele>1892.08</ele>
        <time>2021-08-06T07:44:15Z</time>
      </trkpt>
      <trkpt lat="42.63988" lon="1.7118">
        <ele>1892.082</ele>
        <time>2021-08-06T07:44:17Z</time>
      </trkpt>
      <trkpt lat="42.63988" lon="1.7118">
        <ele>1892.074</ele>
        <time>2021-08-06T07:44:19Z</time>
      </trkpt>
      <trkpt lat="42.63988" lon="1.7118">
        <ele>1892.081</ele>
        <time>2021-08-06T07:44:21Z</time>
      </trkpt>
      <trkpt lat="42.63988" lon="1.7118">
        <ele>1892.943</ele>
        <time>2021-08-06T07:44:23Z</time>
      </trkpt>
      <trkpt lat="42.63988" lon="1.71179">
        <ele>1892.986</ele>
        <time>2021-08-06T07:44:25Z</time>
      </trkpt>
      <trkpt lat="42.63988" lon="1.71179">
        <ele>1892.994</ele>
        <time>2021-08-06T07:44:27Z</time>
      </trkpt>
      <trkpt lat="42.63988" lon="1.71179">
        <ele>1893.001</ele>
        <time>2021-08-06T07:44:29Z</time>
      </trkpt>
      <trkpt lat="42.63988" lon="1.71179">
        <ele>1893.272</ele>
        <time>2021-08-06T07:44:31Z</time>
      </trkpt>
      <trkpt lat="42.63989" lon="1.7118">
        <ele>1893.204</ele>
        <time>2021-08-06T07:44:33Z</time>
      </trkpt>
      <trkpt lat="42.63989" lon="1.7118">
        <ele>1893.193</ele>
        <time>2021-08-06T07:44:35Z</time>
      </trkpt>
      <trkpt lat="42.63989" lon="1.7118">
        <ele>1892.749</ele>
        <time>2021-08-06T07:44:37Z</time>
      </trkpt>
      <trkpt lat="42.63989" lon="1.7118">
        <ele>1892.755</ele>
        <time>2021-08-06T07:44:39Z</time>
      </trkpt>
      <trkpt lat="42.63989" lon="1.7118">
        <ele>1892.764</ele>
        <time>2021-08-06T07:44:41Z</time>
      </trkpt>
      <trkpt lat="42.63989" lon="1.7118">
        <ele>1892.768</ele>
        <time>2021-08-06T07:44:43Z</time>
      </trkpt>
      <trkpt lat="42.63989" lon="1.7118">
        <ele>1892.77</ele>
        <time>2021-08-06T07:44:45Z</time>
      </trkpt>
      <trkpt lat="42.63989" lon="1.7118">
        <ele>1893.046</ele>
        <time>2021-08-06T07:44:47Z</time>
      </trkpt>
      <trkpt lat="42.63989" lon="1.7118">
        <ele>1893.051</ele>
        <time>2021-08-06T07:44:49Z</time>
      </trkpt>
      <trkpt lat="42.63989" lon="1.7118">
        <ele>1893.04</ele>
        <time>2021-08-06T07:44:51Z</time>
      </trkpt>
      <trkpt lat="42.63989" lon="1.7118">
        <ele>1893.038</ele>
        <time>2021-08-06T07:44:53Z</time>
      </trkpt>
      <trkpt lat="42.63989" lon="1.7118">
        <ele>1893.039</ele>
        <time>2021-08-06T07:44:55Z</time>
      </trkpt>
      <trkpt lat="42.63989" lon="1.7118">
        <ele>1893.043</ele>
        <time>2021-08-06T07:44:57Z</time>
      </trkpt>
      <trkpt lat="42.63989" lon="1.7118">
        <ele>1893.046</ele>
        <time>2021-08-06T07:44:59Z</time>
      </trkpt>
      <trkpt lat="42.63989" lon="1.7118">
        <ele>1893.046</ele>
        <time>2021-08-06T07:45:01Z</time>
      </trkpt>
      <trkpt lat="42.63989" lon="1.7118">
        <ele>1893.051</ele>
        <time>2021-08-06T07:45:03Z</time>
      </trkpt>
      <trkpt lat="42.63989" lon="1.7118">
        <ele>1893.048</ele>
        <time>2021-08-06T07:45:05Z</time>
      </trkpt>
      <trkpt lat="42.63989" lon="1.7118">
        <ele>1893.054</ele>
        <time>2021-08-06T07:45:07Z</time>
      </trkpt>
      <trkpt lat="42.63989" lon="1.7118">
        <ele>1893.054</ele>
        <time>2021-08-06T07:45:09Z</time>
      </trkpt>
      <trkpt lat="42.63989" lon="1.7118">
        <ele>1893.051</ele>
        <time>2021-08-06T07:45:11Z</time>
      </trkpt>
      <trkpt lat="42.63989" lon="1.7118">
        <ele>1893.047</ele>
        <time>2021-08-06T07:45:13Z</time>
      </trkpt>
      <trkpt lat="42.63988" lon="1.7118">
        <ele>1893.035</ele>
        <time>2021-08-06T07:45:15Z</time>
      </trkpt>
      <trkpt lat="42.63988" lon="1.7118">
        <ele>1893.037</ele>
        <time>2021-08-06T07:45:17Z</time>
      </trkpt>
      <trkpt lat="42.63988" lon="1.7118">
        <ele>1893.041</ele>
        <time>2021-08-06T07:45:19Z</time>
      </trkpt>
      <trkpt lat="42.63988" lon="1.7118">
        <ele>1893.041</ele>
        <time>2021-08-06T07:45:21Z</time>
      </trkpt>
      <trkpt lat="42.63988" lon="1.7118">
        <ele>1893.038</ele>
        <time>2021-08-06T07:45:23Z</time>
      </trkpt>
      <trkpt lat="42.63988" lon="1.7118">
        <ele>1893.033</ele>
        <time>2021-08-06T07:45:25Z</time>
      </trkpt>
      <trkpt lat="42.63989" lon="1.7118">
        <ele>1893.031</ele>
        <time>2021-08-06T07:45:27Z</time>
      </trkpt>
      <trkpt lat="42.63988" lon="1.7118">
        <ele>1893.033</ele>
        <time>2021-08-06T07:45:29Z</time>
      </trkpt>
      <trkpt lat="42.63988" lon="1.7118">
        <ele>1893.04</ele>
        <time>2021-08-06T07:45:31Z</time>
      </trkpt>
      <trkpt lat="42.63988" lon="1.7118">
        <ele>1893.045</ele>
        <time>2021-08-06T07:45:33Z</time>
      </trkpt>
      <trkpt lat="42.63988" lon="1.7118">
        <ele>1893.044</ele>
        <time>2021-08-06T07:45:35Z</time>
      </trkpt>
      <trkpt lat="42.63988" lon="1.7118">
        <ele>1893.043</ele>
        <time>2021-08-06T07:45:37Z</time>
      </trkpt>
      <trkpt lat="42.63989" lon="1.71181">
        <ele>1892.878</ele>
        <time>2021-08-06T07:45:39Z</time>
      </trkpt>
      <trkpt lat="42.63989" lon="1.71181">
        <ele>1892.718</ele>
        <time>2021-08-06T07:45:41Z</time>
      </trkpt>
      <trkpt lat="42.63989" lon="1.71181">
        <ele>1892.714</ele>
        <time>2021-08-06T07:45:43Z</time>
      </trkpt>
      <trkpt lat="42.63989" lon="1.71181">
        <ele>1892.706</ele>
        <time>2021-08-06T07:45:45Z</time>
      </trkpt>
      <trkpt lat="42.63989" lon="1.71181">
        <ele>1892.703</ele>
        <time>2021-08-06T07:45:47Z</time>
      </trkpt>
      <trkpt lat="42.63989" lon="1.71181">
        <ele>1892.7</ele>
        <time>2021-08-06T07:45:49Z</time>
      </trkpt>
      <trkpt lat="42.63989" lon="1.71181">
        <ele>1892.697</ele>
        <time>2021-08-06T07:45:51Z</time>
      </trkpt>
      <trkpt lat="42.63989" lon="1.71181">
        <ele>1892.689</ele>
        <time>2021-08-06T07:45:53Z</time>
      </trkpt>
      <trkpt lat="42.63989" lon="1.71181">
        <ele>1892.68</ele>
        <time>2021-08-06T07:45:55Z</time>
      </trkpt>
      <trkpt lat="42.63989" lon="1.71181">
        <ele>1892.674</ele>
        <time>2021-08-06T07:45:57Z</time>
      </trkpt>
      <trkpt lat="42.63989" lon="1.71181">
        <ele>1892.674</ele>
        <time>2021-08-06T07:45:59Z</time>
      </trkpt>
      <trkpt lat="42.63989" lon="1.71181">
        <ele>1892.674</ele>
        <time>2021-08-06T07:46:01Z</time>
      </trkpt>
      <trkpt lat="42.63989" lon="1.71181">
        <ele>1892.679</ele>
        <time>2021-08-06T07:46:03Z</time>
      </trkpt>
      <trkpt lat="42.63989" lon="1.71181">
        <ele>1892.678</ele>
        <time>2021-08-06T07:46:05Z</time>
      </trkpt>
      <trkpt lat="42.63989" lon="1.71181">
        <ele>1892.674</ele>
        <time>2021-08-06T07:46:07Z</time>
      </trkpt>
      <trkpt lat="42.63989" lon="1.71181">
        <ele>1892.671</ele>
        <time>2021-08-06T07:46:09Z</time>
      </trkpt>
      <trkpt lat="42.63989" lon="1.71181">
        <ele>1892.677</ele>
        <time>2021-08-06T07:46:11Z</time>
      </trkpt>
      <trkpt lat="42.63989" lon="1.71181">
        <ele>1892.682</ele>
        <time>2021-08-06T07:46:13Z</time>
      </trkpt>
      <trkpt lat="42.63989" lon="1.71181">
        <ele>1892.682</ele>
        <time>2021-08-06T07:46:15Z</time>
      </trkpt>
      <trkpt lat="42.63989" lon="1.71181">
        <ele>1892.688</ele>
        <time>2021-08-06T07:46:17Z</time>
      </trkpt>
      <trkpt lat="42.63989" lon="1.71181">
        <ele>1892.691</ele>
        <time>2021-08-06T07:46:19Z</time>
      </trkpt>
      <trkpt lat="42.63989" lon="1.71181">
        <ele>1892.691</ele>
        <time>2021-08-06T07:46:21Z</time>
      </trkpt>
      <trkpt lat="42.63989" lon="1.71181">
        <ele>1892.692</ele>
        <time>2021-08-06T07:46:23Z</time>
      </trkpt>
      <trkpt lat="42.63989" lon="1.71181">
        <ele>1892.691</ele>
        <time>2021-08-06T07:46:25Z</time>
      </trkpt>
      <trkpt lat="42.63989" lon="1.71181">
        <ele>1892.691</ele>
        <time>2021-08-06T07:46:27Z</time>
      </trkpt>
      <trkpt lat="42.63989" lon="1.71181">
        <ele>1892.683</ele>
        <time>2021-08-06T07:46:29Z</time>
      </trkpt>
      <trkpt lat="42.63989" lon="1.71181">
        <ele>1892.683</ele>
        <time>2021-08-06T07:46:31Z</time>
      </trkpt>
      <trkpt lat="42.63989" lon="1.71181">
        <ele>1892.681</ele>
        <time>2021-08-06T07:46:33Z</time>
      </trkpt>
      <trkpt lat="42.63989" lon="1.71181">
        <ele>1892.68</ele>
        <time>2021-08-06T07:46:35Z</time>
      </trkpt>
      <trkpt lat="42.63989" lon="1.71181">
        <ele>1892.675</ele>
        <time>2021-08-06T07:46:37Z</time>
      </trkpt>
      <trkpt lat="42.63989" lon="1.7118">
        <ele>1892.675</ele>
        <time>2021-08-06T07:46:39Z</time>
      </trkpt>
      <trkpt lat="42.63989" lon="1.7118">
        <ele>1892.671</ele>
        <time>2021-08-06T07:46:41Z</time>
      </trkpt>
      <trkpt lat="42.63989" lon="1.7118">
        <ele>1892.671</ele>
        <time>2021-08-06T07:46:43Z</time>
      </trkpt>
      <trkpt lat="42.63989" lon="1.7118">
        <ele>1892.672</ele>
        <time>2021-08-06T07:46:45Z</time>
      </trkpt>
      <trkpt lat="42.63989" lon="1.7118">
        <ele>1892.672</ele>
        <time>2021-08-06T07:46:47Z</time>
      </trkpt>
      <trkpt lat="42.63989" lon="1.7118">
        <ele>1892.67</ele>
        <time>2021-08-06T07:46:49Z</time>
      </trkpt>
      <trkpt lat="42.63989" lon="1.7118">
        <ele>1892.675</ele>
        <time>2021-08-06T07:46:51Z</time>
      </trkpt>
      <trkpt lat="42.63989" lon="1.7118">
        <ele>1892.678</ele>
        <time>2021-08-06T07:46:53Z</time>
      </trkpt>
      <trkpt lat="42.63989" lon="1.7118">
        <ele>1892.676</ele>
        <time>2021-08-06T07:46:55Z</time>
      </trkpt>
      <trkpt lat="42.63989" lon="1.7118">
        <ele>1892.683</ele>
        <time>2021-08-06T07:46:57Z</time>
      </trkpt>
      <trkpt lat="42.63989" lon="1.7118">
        <ele>1892.691</ele>
        <time>2021-08-06T07:46:59Z</time>
      </trkpt>
      <trkpt lat="42.63989" lon="1.7118">
        <ele>1892.698</ele>
        <time>2021-08-06T07:47:01Z</time>
      </trkpt>
      <trkpt lat="42.63989" lon="1.7118">
        <ele>1892.699</ele>
        <time>2021-08-06T07:47:03Z</time>
      </trkpt>
      <trkpt lat="42.63989" lon="1.7118">
        <ele>1892.699</ele>
        <time>2021-08-06T07:47:05Z</time>
      </trkpt>
      <trkpt lat="42.63989" lon="1.7118">
        <ele>1892.702</ele>
        <time>2021-08-06T07:47:07Z</time>
      </trkpt>
      <trkpt lat="42.63989" lon="1.7118">
        <ele>1892.706</ele>
        <time>2021-08-06T07:47:09Z</time>
      </trkpt>
      <trkpt lat="42.63989" lon="1.7118">
        <ele>1892.708</ele>
        <time>2021-08-06T07:47:11Z</time>
      </trkpt>
      <trkpt lat="42.63989" lon="1.7118">
        <ele>1892.712</ele>
        <time>2021-08-06T07:47:13Z</time>
      </trkpt>
      <trkpt lat="42.63989" lon="1.7118">
        <ele>1892.718</ele>
        <time>2021-08-06T07:47:15Z</time>
      </trkpt>
      <trkpt lat="42.63989" lon="1.7118">
        <ele>1892.72</ele>
        <time>2021-08-06T07:47:17Z</time>
      </trkpt>
      <trkpt lat="42.63989" lon="1.7118">
        <ele>1892.725</ele>
        <time>2021-08-06T07:47:19Z</time>
      </trkpt>
      <trkpt lat="42.63989" lon="1.7118">
        <ele>1892.732</ele>
        <time>2021-08-06T07:47:21Z</time>
      </trkpt>
      <trkpt lat="42.63989" lon="1.7118">
        <ele>1892.731</ele>
        <time>2021-08-06T07:47:23Z</time>
      </trkpt>
      <trkpt lat="42.63989" lon="1.7118">
        <ele>1892.736</ele>
        <time>2021-08-06T07:47:25Z</time>
      </trkpt>
      <trkpt lat="42.63989" lon="1.7118">
        <ele>1892.733</ele>
        <time>2021-08-06T07:47:27Z</time>
      </trkpt>
      <trkpt lat="42.63989" lon="1.71181">
        <ele>1893.117</ele>
        <time>2021-08-06T07:47:29Z</time>
      </trkpt>
      <trkpt lat="42.6399" lon="1.71182">
        <ele>1893.722</ele>
        <time>2021-08-06T07:47:31Z</time>
      </trkpt>
      <trkpt lat="42.6399" lon="1.71185">
        <ele>1895.255</ele>
        <time>2021-08-06T07:47:33Z</time>
      </trkpt>
      <trkpt lat="42.63991" lon="1.71187">
        <ele>1896.778</ele>
        <time>2021-08-06T07:47:35Z</time>
      </trkpt>
      <trkpt lat="42.63991" lon="1.71189">
        <ele>1897.757</ele>
        <time>2021-08-06T07:47:37Z</time>
      </trkpt>
      <trkpt lat="42.63992" lon="1.71191">
        <ele>1897.884</ele>
        <time>2021-08-06T07:47:39Z</time>
      </trkpt>
      <trkpt lat="42.63993" lon="1.71192">
        <ele>1898.336</ele>
        <time>2021-08-06T07:47:41Z</time>
      </trkpt>
      <trkpt lat="42.63993" lon="1.71194">
        <ele>1898.904</ele>
        <time>2021-08-06T07:47:43Z</time>
      </trkpt>
      <trkpt lat="42.63994" lon="1.71196">
        <ele>1898.642</ele>
        <time>2021-08-06T07:47:45Z</time>
      </trkpt>
      <trkpt lat="42.63994" lon="1.71197">
        <ele>1899.01</ele>
        <time>2021-08-06T07:47:47Z</time>
      </trkpt>
      <trkpt lat="42.63995" lon="1.71199">
        <ele>1899.31</ele>
        <time>2021-08-06T07:47:49Z</time>
      </trkpt>
      <trkpt lat="42.63996" lon="1.712">
        <ele>1899.27</ele>
        <time>2021-08-06T07:47:51Z</time>
      </trkpt>
      <trkpt lat="42.63997" lon="1.71201">
        <ele>1898.869</ele>
        <time>2021-08-06T07:47:53Z</time>
      </trkpt>
      <trkpt lat="42.63999" lon="1.71201">
        <ele>1898.839</ele>
        <time>2021-08-06T07:47:55Z</time>
      </trkpt>
      <trkpt lat="42.64" lon="1.71202">
        <ele>1899.022</ele>
        <time>2021-08-06T07:47:57Z</time>
      </trkpt>
      <trkpt lat="42.64001" lon="1.71203">
        <ele>1898.702</ele>
        <time>2021-08-06T07:47:59Z</time>
      </trkpt>
      <trkpt lat="42.64002" lon="1.71204">
        <ele>1898.985</ele>
        <time>2021-08-06T07:48:01Z</time>
      </trkpt>
      <trkpt lat="42.64003" lon="1.71205">
        <ele>1898.776</ele>
        <time>2021-08-06T07:48:03Z</time>
      </trkpt>
      <trkpt lat="42.64004" lon="1.71207">
        <ele>1898.18</ele>
        <time>2021-08-06T07:48:05Z</time>
      </trkpt>
      <trkpt lat="42.64005" lon="1.71208">
        <ele>1897.981</ele>
        <time>2021-08-06T07:48:07Z</time>
      </trkpt>
      <trkpt lat="42.64006" lon="1.7121">
        <ele>1899.502</ele>
        <time>2021-08-06T07:48:09Z</time>
      </trkpt>
      <trkpt lat="42.64007" lon="1.71213">
        <ele>1900.291</ele>
        <time>2021-08-06T07:48:11Z</time>
      </trkpt>
      <trkpt lat="42.64008" lon="1.71214">
        <ele>1901.007</ele>
        <time>2021-08-06T07:48:13Z</time>
      </trkpt>
      <trkpt lat="42.64009" lon="1.71216">
        <ele>1901.037</ele>
        <time>2021-08-06T07:48:15Z</time>
      </trkpt>
      <trkpt lat="42.6401" lon="1.71216">
        <ele>1900.715</ele>
        <time>2021-08-06T07:48:17Z</time>
      </trkpt>
      <trkpt lat="42.64011" lon="1.71218">
        <ele>1901.53</ele>
        <time>2021-08-06T07:48:19Z</time>
      </trkpt>
      <trkpt lat="42.64013" lon="1.71218">
        <ele>1901.497</ele>
        <time>2021-08-06T07:48:21Z</time>
      </trkpt>
      <trkpt lat="42.64014" lon="1.71218">
        <ele>1901.468</ele>
        <time>2021-08-06T07:48:23Z</time>
      </trkpt>
      <trkpt lat="42.64015" lon="1.7122">
        <ele>1902.13</ele>
        <time>2021-08-06T07:48:25Z</time>
      </trkpt>
      <trkpt lat="42.64016" lon="1.71222">
        <ele>1902.009</ele>
        <time>2021-08-06T07:48:27Z</time>
      </trkpt>
      <trkpt lat="42.64017" lon="1.71224">
        <ele>1902.794</ele>
        <time>2021-08-06T07:48:29Z</time>
      </trkpt>
      <trkpt lat="42.64019" lon="1.71225">
        <ele>1903.198</ele>
        <time>2021-08-06T07:48:31Z</time>
      </trkpt>
      <trkpt lat="42.6402" lon="1.71227">
        <ele>1902.481</ele>
        <time>2021-08-06T07:48:33Z</time>
      </trkpt>
      <trkpt lat="42.64021" lon="1.71229">
        <ele>1903.022</ele>
        <time>2021-08-06T07:48:35Z</time>
      </trkpt>
      <trkpt lat="42.64022" lon="1.7123">
        <ele>1902.557</ele>
        <time>2021-08-06T07:48:37Z</time>
      </trkpt>
      <trkpt lat="42.64024" lon="1.71231">
        <ele>1903.009</ele>
        <time>2021-08-06T07:48:39Z</time>
      </trkpt>
      <trkpt lat="42.64026" lon="1.71232">
        <ele>1902.839</ele>
        <time>2021-08-06T07:48:41Z</time>
      </trkpt>
      <trkpt lat="42.64028" lon="1.71234">
        <ele>1903.482</ele>
        <time>2021-08-06T07:48:43Z</time>
      </trkpt>
      <trkpt lat="42.64029" lon="1.71236">
        <ele>1903.313</ele>
        <time>2021-08-06T07:48:45Z</time>
      </trkpt>
      <trkpt lat="42.64031" lon="1.71238">
        <ele>1902.732</ele>
        <time>2021-08-06T07:48:47Z</time>
      </trkpt>
      <trkpt lat="42.64032" lon="1.71239">
        <ele>1902.508</ele>
        <time>2021-08-06T07:48:49Z</time>
      </trkpt>
      <trkpt lat="42.64033" lon="1.71242">
        <ele>1902.923</ele>
        <time>2021-08-06T07:48:51Z</time>
      </trkpt>
      <trkpt lat="42.64034" lon="1.71243">
        <ele>1902.835</ele>
        <time>2021-08-06T07:48:53Z</time>
      </trkpt>
      <trkpt lat="42.64035" lon="1.71246">
        <ele>1903.669</ele>
        <time>2021-08-06T07:48:55Z</time>
      </trkpt>
      <trkpt lat="42.64035" lon="1.71248">
        <ele>1903.834</ele>
        <time>2021-08-06T07:48:57Z</time>
      </trkpt>
      <trkpt lat="42.64035" lon="1.71251">
        <ele>1903.319</ele>
        <time>2021-08-06T07:48:59Z</time>
      </trkpt>
      <trkpt lat="42.64036" lon="1.71253">
        <ele>1903.244</ele>
        <time>2021-08-06T07:49:01Z</time>
      </trkpt>
      <trkpt lat="42.64037" lon="1.71255">
        <ele>1903.594</ele>
        <time>2021-08-06T07:49:03Z</time>
      </trkpt>
      <trkpt lat="42.64038" lon="1.71256">
        <ele>1902.915</ele>
        <time>2021-08-06T07:49:05Z</time>
      </trkpt>
      <trkpt lat="42.64039" lon="1.71258">
        <ele>1902.676</ele>
        <time>2021-08-06T07:49:07Z</time>
      </trkpt>
      <trkpt lat="42.6404" lon="1.7126">
        <ele>1902.478</ele>
        <time>2021-08-06T07:49:09Z</time>
      </trkpt>
      <trkpt lat="42.64041" lon="1.71262">
        <ele>1902.537</ele>
        <time>2021-08-06T07:49:11Z</time>
      </trkpt>
      <trkpt lat="42.64042" lon="1.71264">
        <ele>1903.273</ele>
        <time>2021-08-06T07:49:13Z</time>
      </trkpt>
      <trkpt lat="42.64043" lon="1.71266">
        <ele>1904.181</ele>
        <time>2021-08-06T07:49:15Z</time>
      </trkpt>
      <trkpt lat="42.64044" lon="1.71267">
        <ele>1903.755</ele>
        <time>2021-08-06T07:49:17Z</time>
      </trkpt>
      <trkpt lat="42.64045" lon="1.71268">
        <ele>1903.296</ele>
        <time>2021-08-06T07:49:19Z</time>
      </trkpt>
      <trkpt lat="42.64046" lon="1.71269">
        <ele>1902.434</ele>
        <time>2021-08-06T07:49:21Z</time>
      </trkpt>
      <trkpt lat="42.64047" lon="1.71271">
        <ele>1902.706</ele>
        <time>2021-08-06T07:49:23Z</time>
      </trkpt>
      <trkpt lat="42.64048" lon="1.71273">
        <ele>1903.986</ele>
        <time>2021-08-06T07:49:25Z</time>
      </trkpt>
      <trkpt lat="42.64048" lon="1.71275">
        <ele>1904.194</ele>
        <time>2021-08-06T07:49:27Z</time>
      </trkpt>
      <trkpt lat="42.64049" lon="1.71277">
        <ele>1904.206</ele>
        <time>2021-08-06T07:49:29Z</time>
      </trkpt>
      <trkpt lat="42.6405" lon="1.71279">
        <ele>1903.592</ele>
        <time>2021-08-06T07:49:31Z</time>
      </trkpt>
      <trkpt lat="42.64051" lon="1.71281">
        <ele>1903.192</ele>
        <time>2021-08-06T07:49:33Z</time>
      </trkpt>
      <trkpt lat="42.64051" lon="1.71284">
        <ele>1903.92</ele>
        <time>2021-08-06T07:49:35Z</time>
      </trkpt>
      <trkpt lat="42.64052" lon="1.71286">
        <ele>1902.893</ele>
        <time>2021-08-06T07:49:37Z</time>
      </trkpt>
      <trkpt lat="42.64053" lon="1.71288">
        <ele>1902.544</ele>
        <time>2021-08-06T07:49:39Z</time>
      </trkpt>
      <trkpt lat="42.64053" lon="1.71291">
        <ele>1902.427</ele>
        <time>2021-08-06T07:49:41Z</time>
      </trkpt>
      <trkpt lat="42.64054" lon="1.71293">
        <ele>1902.279</ele>
        <time>2021-08-06T07:49:43Z</time>
      </trkpt>
      <trkpt lat="42.64053" lon="1.71296">
        <ele>1902.238</ele>
        <time>2021-08-06T07:49:45Z</time>
      </trkpt>
      <trkpt lat="42.64054" lon="1.71299">
        <ele>1902.904</ele>
        <time>2021-08-06T07:49:47Z</time>
      </trkpt>
      <trkpt lat="42.64054" lon="1.71302">
        <ele>1903.302</ele>
        <time>2021-08-06T07:49:49Z</time>
      </trkpt>
      <trkpt lat="42.64054" lon="1.71306">
        <ele>1903.726</ele>
        <time>2021-08-06T07:49:51Z</time>
      </trkpt>
      <trkpt lat="42.64054" lon="1.71308">
        <ele>1904.124</ele>
        <time>2021-08-06T07:49:53Z</time>
      </trkpt>
      <trkpt lat="42.64054" lon="1.71311">
        <ele>1904.307</ele>
        <time>2021-08-06T07:49:55Z</time>
      </trkpt>
      <trkpt lat="42.64054" lon="1.71313">
        <ele>1904.344</ele>
        <time>2021-08-06T07:49:57Z</time>
      </trkpt>
      <trkpt lat="42.64054" lon="1.71316">
        <ele>1904.433</ele>
        <time>2021-08-06T07:49:59Z</time>
      </trkpt>
      <trkpt lat="42.64054" lon="1.71319">
        <ele>1904.247</ele>
        <time>2021-08-06T07:50:01Z</time>
      </trkpt>
      <trkpt lat="42.64054" lon="1.71321">
        <ele>1904.201</ele>
        <time>2021-08-06T07:50:03Z</time>
      </trkpt>
      <trkpt lat="42.64055" lon="1.71323">
        <ele>1903.974</ele>
        <time>2021-08-06T07:50:05Z</time>
      </trkpt>
      <trkpt lat="42.64056" lon="1.71325">
        <ele>1904.735</ele>
        <time>2021-08-06T07:50:07Z</time>
      </trkpt>
      <trkpt lat="42.64057" lon="1.71328">
        <ele>1904.694</ele>
        <time>2021-08-06T07:50:09Z</time>
      </trkpt>
      <trkpt lat="42.64057" lon="1.7133">
        <ele>1905.117</ele>
        <time>2021-08-06T07:50:11Z</time>
      </trkpt>
      <trkpt lat="42.64058" lon="1.71333">
        <ele>1904.708</ele>
        <time>2021-08-06T07:50:13Z</time>
      </trkpt>
      <trkpt lat="42.64059" lon="1.71335">
        <ele>1904.483</ele>
        <time>2021-08-06T07:50:15Z</time>
      </trkpt>
      <trkpt lat="42.6406" lon="1.71338">
        <ele>1905.105</ele>
        <time>2021-08-06T07:50:17Z</time>
      </trkpt>
      <trkpt lat="42.6406" lon="1.7134">
        <ele>1904.809</ele>
        <time>2021-08-06T07:50:19Z</time>
      </trkpt>
      <trkpt lat="42.64059" lon="1.71344">
        <ele>1906.298</ele>
        <time>2021-08-06T07:50:21Z</time>
      </trkpt>
      <trkpt lat="42.64059" lon="1.71347">
        <ele>1906.871</ele>
        <time>2021-08-06T07:50:23Z</time>
      </trkpt>
      <trkpt lat="42.64058" lon="1.7135">
        <ele>1907.426</ele>
        <time>2021-08-06T07:50:25Z</time>
      </trkpt>
      <trkpt lat="42.64058" lon="1.71352">
        <ele>1907.733</ele>
        <time>2021-08-06T07:50:27Z</time>
      </trkpt>
      <trkpt lat="42.64059" lon="1.71355">
        <ele>1907.449</ele>
        <time>2021-08-06T07:50:29Z</time>
      </trkpt>
      <trkpt lat="42.64059" lon="1.71359">
        <ele>1907.894</ele>
        <time>2021-08-06T07:50:31Z</time>
      </trkpt>
      <trkpt lat="42.64059" lon="1.71362">
        <ele>1908.703</ele>
        <time>2021-08-06T07:50:33Z</time>
      </trkpt>
      <trkpt lat="42.64058" lon="1.71365">
        <ele>1908.655</ele>
        <time>2021-08-06T07:50:35Z</time>
      </trkpt>
      <trkpt lat="42.64057" lon="1.71369">
        <ele>1908.632</ele>
        <time>2021-08-06T07:50:37Z</time>
      </trkpt>
      <trkpt lat="42.64055" lon="1.71372">
        <ele>1909.893</ele>
        <time>2021-08-06T07:50:39Z</time>
      </trkpt>
      <trkpt lat="42.64054" lon="1.71375">
        <ele>1910.135</ele>
        <time>2021-08-06T07:50:41Z</time>
      </trkpt>
      <trkpt lat="42.64054" lon="1.71378">
        <ele>1909.581</ele>
        <time>2021-08-06T07:50:43Z</time>
      </trkpt>
      <trkpt lat="42.64053" lon="1.71381">
        <ele>1909.771</ele>
        <time>2021-08-06T07:50:45Z</time>
      </trkpt>
      <trkpt lat="42.64052" lon="1.71385">
        <ele>1910.702</ele>
        <time>2021-08-06T07:50:47Z</time>
      </trkpt>
      <trkpt lat="42.64053" lon="1.71387">
        <ele>1910.744</ele>
        <time>2021-08-06T07:50:49Z</time>
      </trkpt>
      <trkpt lat="42.64053" lon="1.7139">
        <ele>1910.75</ele>
        <time>2021-08-06T07:50:51Z</time>
      </trkpt>
      <trkpt lat="42.64052" lon="1.71391">
        <ele>1910.919</ele>
        <time>2021-08-06T07:50:53Z</time>
      </trkpt>
      <trkpt lat="42.64051" lon="1.71392">
        <ele>1910.933</ele>
        <time>2021-08-06T07:50:55Z</time>
      </trkpt>
      <trkpt lat="42.6405" lon="1.71394">
        <ele>1911.098</ele>
        <time>2021-08-06T07:50:57Z</time>
      </trkpt>
      <trkpt lat="42.64049" lon="1.71396">
        <ele>1911.311</ele>
        <time>2021-08-06T07:50:59Z</time>
      </trkpt>
      <trkpt lat="42.64047" lon="1.71398">
        <ele>1912.591</ele>
        <time>2021-08-06T07:51:01Z</time>
      </trkpt>
      <trkpt lat="42.64046" lon="1.714">
        <ele>1913.058</ele>
        <time>2021-08-06T07:51:03Z</time>
      </trkpt>
      <trkpt lat="42.64044" lon="1.71401">
        <ele>1912.873</ele>
        <time>2021-08-06T07:51:05Z</time>
      </trkpt>
      <trkpt lat="42.64043" lon="1.71403">
        <ele>1913.19</ele>
        <time>2021-08-06T07:51:07Z</time>
      </trkpt>
      <trkpt lat="42.64042" lon="1.71405">
        <ele>1914.096</ele>
        <time>2021-08-06T07:51:09Z</time>
      </trkpt>
      <trkpt lat="42.64042" lon="1.71407">
        <ele>1914.029</ele>
        <time>2021-08-06T07:51:11Z</time>
      </trkpt>
      <trkpt lat="42.64043" lon="1.71409">
        <ele>1914.109</ele>
        <time>2021-08-06T07:51:13Z</time>
      </trkpt>
      <trkpt lat="42.64043" lon="1.71411">
        <ele>1913.512</ele>
        <time>2021-08-06T07:51:15Z</time>
      </trkpt>
      <trkpt lat="42.64043" lon="1.71414">
        <ele>1913.69</ele>
        <time>2021-08-06T07:51:17Z</time>
      </trkpt>
      <trkpt lat="42.64043" lon="1.71417">
        <ele>1913.3</ele>
        <time>2021-08-06T07:51:19Z</time>
      </trkpt>
      <trkpt lat="42.64043" lon="1.7142">
        <ele>1913.336</ele>
        <time>2021-08-06T07:51:21Z</time>
      </trkpt>
      <trkpt lat="42.64042" lon="1.71424">
        <ele>1913.459</ele>
        <time>2021-08-06T07:51:23Z</time>
      </trkpt>
      <trkpt lat="42.64042" lon="1.71427">
        <ele>1913.46</ele>
        <time>2021-08-06T07:51:25Z</time>
      </trkpt>
      <trkpt lat="42.64043" lon="1.71429">
        <ele>1913.328</ele>
        <time>2021-08-06T07:51:27Z</time>
      </trkpt>
      <trkpt lat="42.64042" lon="1.71432">
        <ele>1913.314</ele>
        <time>2021-08-06T07:51:29Z</time>
      </trkpt>
      <trkpt lat="42.64042" lon="1.71435">
        <ele>1913.026</ele>
        <time>2021-08-06T07:51:31Z</time>
      </trkpt>
      <trkpt lat="42.64042" lon="1.71438">
        <ele>1913.589</ele>
        <time>2021-08-06T07:51:33Z</time>
      </trkpt>
      <trkpt lat="42.64042" lon="1.7144">
        <ele>1913.131</ele>
        <time>2021-08-06T07:51:35Z</time>
      </trkpt>
      <trkpt lat="42.64041" lon="1.71443">
        <ele>1913.527</ele>
        <time>2021-08-06T07:51:37Z</time>
      </trkpt>
      <trkpt lat="42.64041" lon="1.71446">
        <ele>1913.568</ele>
        <time>2021-08-06T07:51:39Z</time>
      </trkpt>
      <trkpt lat="42.6404" lon="1.71449">
        <ele>1913.678</ele>
        <time>2021-08-06T07:51:41Z</time>
      </trkpt>
      <trkpt lat="42.64039" lon="1.71452">
        <ele>1913.997</ele>
        <time>2021-08-06T07:51:43Z</time>
      </trkpt>
      <trkpt lat="42.64038" lon="1.71455">
        <ele>1914.447</ele>
        <time>2021-08-06T07:51:45Z</time>
      </trkpt>
      <trkpt lat="42.64037" lon="1.71458">
        <ele>1914.627</ele>
        <time>2021-08-06T07:51:47Z</time>
      </trkpt>
      <trkpt lat="42.64036" lon="1.71461">
        <ele>1915.061</ele>
        <time>2021-08-06T07:51:49Z</time>
      </trkpt>
      <trkpt lat="42.64035" lon="1.71465">
        <ele>1915.098</ele>
        <time>2021-08-06T07:51:51Z</time>
      </trkpt>
      <trkpt lat="42.64035" lon="1.71468">
        <ele>1915.054</ele>
        <time>2021-08-06T07:51:53Z</time>
      </trkpt>
      <trkpt lat="42.64034" lon="1.71471">
        <ele>1914.866</ele>
        <time>2021-08-06T07:51:55Z</time>
      </trkpt>
      <trkpt lat="42.64034" lon="1.71473">
        <ele>1914.312</ele>
        <time>2021-08-06T07:51:57Z</time>
      </trkpt>
      <trkpt lat="42.64034" lon="1.71477">
        <ele>1914.623</ele>
        <time>2021-08-06T07:51:59Z</time>
      </trkpt>
      <trkpt lat="42.64034" lon="1.71481">
        <ele>1914.858</ele>
        <time>2021-08-06T07:52:01Z</time>
      </trkpt>
      <trkpt lat="42.64034" lon="1.71484">
        <ele>1915.232</ele>
        <time>2021-08-06T07:52:03Z</time>
      </trkpt>
      <trkpt lat="42.64034" lon="1.71487">
        <ele>1915.301</ele>
        <time>2021-08-06T07:52:05Z</time>
      </trkpt>
      <trkpt lat="42.64033" lon="1.71489">
        <ele>1915.8</ele>
        <time>2021-08-06T07:52:07Z</time>
      </trkpt>
      <trkpt lat="42.64033" lon="1.71492">
        <ele>1915.982</ele>
        <time>2021-08-06T07:52:09Z</time>
      </trkpt>
      <trkpt lat="42.64031" lon="1.71495">
        <ele>1916.606</ele>
        <time>2021-08-06T07:52:11Z</time>
      </trkpt>
      <trkpt lat="42.64031" lon="1.71498">
        <ele>1916.733</ele>
        <time>2021-08-06T07:52:13Z</time>
      </trkpt>
      <trkpt lat="42.64031" lon="1.71502">
        <ele>1917.213</ele>
        <time>2021-08-06T07:52:15Z</time>
      </trkpt>
      <trkpt lat="42.6403" lon="1.71504">
        <ele>1917.449</ele>
        <time>2021-08-06T07:52:17Z</time>
      </trkpt>
      <trkpt lat="42.64031" lon="1.71506">
        <ele>1917.324</ele>
        <time>2021-08-06T07:52:19Z</time>
      </trkpt>
      <trkpt lat="42.64031" lon="1.71509">
        <ele>1916.783</ele>
        <time>2021-08-06T07:52:21Z</time>
      </trkpt>
      <trkpt lat="42.64031" lon="1.71511">
        <ele>1916.41</ele>
        <time>2021-08-06T07:52:23Z</time>
      </trkpt>
      <trkpt lat="42.64031" lon="1.71514">
        <ele>1916.651</ele>
        <time>2021-08-06T07:52:25Z</time>
      </trkpt>
      <trkpt lat="42.64031" lon="1.71517">
        <ele>1917.235</ele>
        <time>2021-08-06T07:52:27Z</time>
      </trkpt>
      <trkpt lat="42.6403" lon="1.7152">
        <ele>1917.576</ele>
        <time>2021-08-06T07:52:29Z</time>
      </trkpt>
      <trkpt lat="42.6403" lon="1.71523">
        <ele>1917.941</ele>
        <time>2021-08-06T07:52:31Z</time>
      </trkpt>
      <trkpt lat="42.64029" lon="1.71525">
        <ele>1917.922</ele>
        <time>2021-08-06T07:52:33Z</time>
      </trkpt>
      <trkpt lat="42.6403" lon="1.71528">
        <ele>1918.336</ele>
        <time>2021-08-06T07:52:35Z</time>
      </trkpt>
      <trkpt lat="42.6403" lon="1.7153">
        <ele>1919.239</ele>
        <time>2021-08-06T07:52:37Z</time>
      </trkpt>
      <trkpt lat="42.6403" lon="1.71533">
        <ele>1918.937</ele>
        <time>2021-08-06T07:52:39Z</time>
      </trkpt>
      <trkpt lat="42.6403" lon="1.71535">
        <ele>1919.151</ele>
        <time>2021-08-06T07:52:41Z</time>
      </trkpt>
      <trkpt lat="42.64029" lon="1.71538">
        <ele>1919.94</ele>
        <time>2021-08-06T07:52:43Z</time>
      </trkpt>
      <trkpt lat="42.64029" lon="1.7154">
        <ele>1920.085</ele>
        <time>2021-08-06T07:52:45Z</time>
      </trkpt>
      <trkpt lat="42.64028" lon="1.71543">
        <ele>1920.253</ele>
        <time>2021-08-06T07:52:47Z</time>
      </trkpt>
      <trkpt lat="42.64027" lon="1.71545">
        <ele>1920.493</ele>
        <time>2021-08-06T07:52:49Z</time>
      </trkpt>
      <trkpt lat="42.64026" lon="1.71547">
        <ele>1920.673</ele>
        <time>2021-08-06T07:52:51Z</time>
      </trkpt>
      <trkpt lat="42.64025" lon="1.71549">
        <ele>1920.921</ele>
        <time>2021-08-06T07:52:53Z</time>
      </trkpt>
      <trkpt lat="42.64024" lon="1.71551">
        <ele>1921.002</ele>
        <time>2021-08-06T07:52:55Z</time>
      </trkpt>
      <trkpt lat="42.64023" lon="1.71553">
        <ele>1920.775</ele>
        <time>2021-08-06T07:52:57Z</time>
      </trkpt>
      <trkpt lat="42.64023" lon="1.71556">
        <ele>1921.717</ele>
        <time>2021-08-06T07:52:59Z</time>
      </trkpt>
      <trkpt lat="42.64022" lon="1.7156">
        <ele>1922.365</ele>
        <time>2021-08-06T07:53:01Z</time>
      </trkpt>
      <trkpt lat="42.64021" lon="1.71562">
        <ele>1922.311</ele>
        <time>2021-08-06T07:53:03Z</time>
      </trkpt>
      <trkpt lat="42.6402" lon="1.71565">
        <ele>1922.845</ele>
        <time>2021-08-06T07:53:05Z</time>
      </trkpt>
      <trkpt lat="42.64019" lon="1.71567">
        <ele>1923.447</ele>
        <time>2021-08-06T07:53:07Z</time>
      </trkpt>
      <trkpt lat="42.64019" lon="1.71569">
        <ele>1923.679</ele>
        <time>2021-08-06T07:53:09Z</time>
      </trkpt>
      <trkpt lat="42.64018" lon="1.71571">
        <ele>1922.964</ele>
        <time>2021-08-06T07:53:11Z</time>
      </trkpt>
      <trkpt lat="42.64017" lon="1.71573">
        <ele>1923.731</ele>
        <time>2021-08-06T07:53:13Z</time>
      </trkpt>
      <trkpt lat="42.64017" lon="1.71575">
        <ele>1923.221</ele>
        <time>2021-08-06T07:53:15Z</time>
      </trkpt>
      <trkpt lat="42.64018" lon="1.71577">
        <ele>1922.917</ele>
        <time>2021-08-06T07:53:17Z</time>
      </trkpt>
      <trkpt lat="42.64019" lon="1.7158">
        <ele>1923.001</ele>
        <time>2021-08-06T07:53:19Z</time>
      </trkpt>
      <trkpt lat="42.64019" lon="1.71584">
        <ele>1923.516</ele>
        <time>2021-08-06T07:53:21Z</time>
      </trkpt>
      <trkpt lat="42.64019" lon="1.71586">
        <ele>1923.395</ele>
        <time>2021-08-06T07:53:23Z</time>
      </trkpt>
      <trkpt lat="42.64019" lon="1.71588">
        <ele>1923.424</ele>
        <time>2021-08-06T07:53:25Z</time>
      </trkpt>
      <trkpt lat="42.64019" lon="1.7159">
        <ele>1924.31</ele>
        <time>2021-08-06T07:53:27Z</time>
      </trkpt>
      <trkpt lat="42.64019" lon="1.71593">
        <ele>1925.05</ele>
        <time>2021-08-06T07:53:29Z</time>
      </trkpt>
      <trkpt lat="42.64018" lon="1.71596">
        <ele>1925.218</ele>
        <time>2021-08-06T07:53:31Z</time>
      </trkpt>
      <trkpt lat="42.64018" lon="1.71599">
        <ele>1925.205</ele>
        <time>2021-08-06T07:53:33Z</time>
      </trkpt>
      <trkpt lat="42.64017" lon="1.71602">
        <ele>1928.506</ele>
        <time>2021-08-06T07:53:35Z</time>
      </trkpt>
      <trkpt lat="42.64018" lon="1.71606">
        <ele>1929.071</ele>
        <time>2021-08-06T07:53:37Z</time>
      </trkpt>
      <trkpt lat="42.64017" lon="1.71608">
        <ele>1930.47</ele>
        <time>2021-08-06T07:53:39Z</time>
      </trkpt>
      <trkpt lat="42.64015" lon="1.71609">
        <ele>1927.819</ele>
        <time>2021-08-06T07:53:41Z</time>
      </trkpt>
      <trkpt lat="42.64013" lon="1.71609">
        <ele>1926.039</ele>
        <time>2021-08-06T07:53:43Z</time>
      </trkpt>
      <trkpt lat="42.64011" lon="1.7161">
        <ele>1924.709</ele>
        <time>2021-08-06T07:53:45Z</time>
      </trkpt>
      <trkpt lat="42.64008" lon="1.71613">
        <ele>1926.023</ele>
        <time>2021-08-06T07:53:47Z</time>
      </trkpt>
      <trkpt lat="42.64007" lon="1.71615">
        <ele>1927.819</ele>
        <time>2021-08-06T07:53:49Z</time>
      </trkpt>
      <trkpt lat="42.64005" lon="1.71617">
        <ele>1926.913</ele>
        <time>2021-08-06T07:53:51Z</time>
      </trkpt>
      <trkpt lat="42.64002" lon="1.71619">
        <ele>1927.489</ele>
        <time>2021-08-06T07:53:53Z</time>
      </trkpt>
      <trkpt lat="42.64" lon="1.71622">
        <ele>1927.172</ele>
        <time>2021-08-06T07:53:55Z</time>
      </trkpt>
      <trkpt lat="42.63999" lon="1.71624">
        <ele>1928.08</ele>
        <time>2021-08-06T07:53:57Z</time>
      </trkpt>
      <trkpt lat="42.63998" lon="1.71625">
        <ele>1926.825</ele>
        <time>2021-08-06T07:53:59Z</time>
      </trkpt>
      <trkpt lat="42.63996" lon="1.71626">
        <ele>1926.387</ele>
        <time>2021-08-06T07:54:01Z</time>
      </trkpt>
      <trkpt lat="42.63996" lon="1.71627">
        <ele>1925.891</ele>
        <time>2021-08-06T07:54:03Z</time>
      </trkpt>
      <trkpt lat="42.63995" lon="1.71629">
        <ele>1925.594</ele>
        <time>2021-08-06T07:54:05Z</time>
      </trkpt>
      <trkpt lat="42.63994" lon="1.7163">
        <ele>1925.779</ele>
        <time>2021-08-06T07:54:07Z</time>
      </trkpt>
      <trkpt lat="42.63993" lon="1.71632">
        <ele>1926.113</ele>
        <time>2021-08-06T07:54:09Z</time>
      </trkpt>
      <trkpt lat="42.63992" lon="1.71633">
        <ele>1926.733</ele>
        <time>2021-08-06T07:54:11Z</time>
      </trkpt>
      <trkpt lat="42.63991" lon="1.71635">
        <ele>1926.342</ele>
        <time>2021-08-06T07:54:13Z</time>
      </trkpt>
      <trkpt lat="42.63991" lon="1.71638">
        <ele>1927.45</ele>
        <time>2021-08-06T07:54:15Z</time>
      </trkpt>
      <trkpt lat="42.6399" lon="1.7164">
        <ele>1928.118</ele>
        <time>2021-08-06T07:54:17Z</time>
      </trkpt>
      <trkpt lat="42.63989" lon="1.71642">
        <ele>1928.139</ele>
        <time>2021-08-06T07:54:19Z</time>
      </trkpt>
      <trkpt lat="42.63988" lon="1.71645">
        <ele>1928.122</ele>
        <time>2021-08-06T07:54:21Z</time>
      </trkpt>
      <trkpt lat="42.63987" lon="1.71647">
        <ele>1928.653</ele>
        <time>2021-08-06T07:54:23Z</time>
      </trkpt>
      <trkpt lat="42.63987" lon="1.7165">
        <ele>1929.228</ele>
        <time>2021-08-06T07:54:25Z</time>
      </trkpt>
      <trkpt lat="42.63986" lon="1.71652">
        <ele>1928.887</ele>
        <time>2021-08-06T07:54:27Z</time>
      </trkpt>
      <trkpt lat="42.63985" lon="1.71654">
        <ele>1929.004</ele>
        <time>2021-08-06T07:54:29Z</time>
      </trkpt>
      <trkpt lat="42.63985" lon="1.71657">
        <ele>1930.012</ele>
        <time>2021-08-06T07:54:31Z</time>
      </trkpt>
      <trkpt lat="42.63984" lon="1.71659">
        <ele>1930.303</ele>
        <time>2021-08-06T07:54:33Z</time>
      </trkpt>
      <trkpt lat="42.63983" lon="1.71661">
        <ele>1931.112</ele>
        <time>2021-08-06T07:54:35Z</time>
      </trkpt>
      <trkpt lat="42.63983" lon="1.71664">
        <ele>1931.179</ele>
        <time>2021-08-06T07:54:37Z</time>
      </trkpt>
      <trkpt lat="42.63982" lon="1.71666">
        <ele>1929.956</ele>
        <time>2021-08-06T07:54:39Z</time>
      </trkpt>
      <trkpt lat="42.63982" lon="1.71669">
        <ele>1929.934</ele>
        <time>2021-08-06T07:54:41Z</time>
      </trkpt>
      <trkpt lat="42.6398" lon="1.7167">
        <ele>1929.855</ele>
        <time>2021-08-06T07:54:43Z</time>
      </trkpt>
      <trkpt lat="42.63979" lon="1.71672">
        <ele>1929.876</ele>
        <time>2021-08-06T07:54:45Z</time>
      </trkpt>
      <trkpt lat="42.63978" lon="1.71675">
        <ele>1929.683</ele>
        <time>2021-08-06T07:54:47Z</time>
      </trkpt>
      <trkpt lat="42.63977" lon="1.71677">
        <ele>1929.592</ele>
        <time>2021-08-06T07:54:49Z</time>
      </trkpt>
      <trkpt lat="42.63976" lon="1.7168">
        <ele>1929.157</ele>
        <time>2021-08-06T07:54:51Z</time>
      </trkpt>
      <trkpt lat="42.63975" lon="1.71683">
        <ele>1929.081</ele>
        <time>2021-08-06T07:54:53Z</time>
      </trkpt>
      <trkpt lat="42.63974" lon="1.71685">
        <ele>1927.93</ele>
        <time>2021-08-06T07:54:55Z</time>
      </trkpt>
      <trkpt lat="42.63974" lon="1.71688">
        <ele>1927.074</ele>
        <time>2021-08-06T07:54:57Z</time>
      </trkpt>
      <trkpt lat="42.63972" lon="1.7169">
        <ele>1928.004</ele>
        <time>2021-08-06T07:54:59Z</time>
      </trkpt>
      <trkpt lat="42.63971" lon="1.71693">
        <ele>1927.47</ele>
        <time>2021-08-06T07:55:01Z</time>
      </trkpt>
      <trkpt lat="42.6397" lon="1.71696">
        <ele>1927.949</ele>
        <time>2021-08-06T07:55:03Z</time>
      </trkpt>
      <trkpt lat="42.6397" lon="1.71699">
        <ele>1928.206</ele>
        <time>2021-08-06T07:55:05Z</time>
      </trkpt>
      <trkpt lat="42.63969" lon="1.71702">
        <ele>1927.543</ele>
        <time>2021-08-06T07:55:07Z</time>
      </trkpt>
      <trkpt lat="42.63968" lon="1.71705">
        <ele>1928.266</ele>
        <time>2021-08-06T07:55:09Z</time>
      </trkpt>
      <trkpt lat="42.63967" lon="1.71708">
        <ele>1927.801</ele>
        <time>2021-08-06T07:55:11Z</time>
      </trkpt>
      <trkpt lat="42.63967" lon="1.71711">
        <ele>1928.099</ele>
        <time>2021-08-06T07:55:13Z</time>
      </trkpt>
      <trkpt lat="42.63967" lon="1.71713">
        <ele>1928.655</ele>
        <time>2021-08-06T07:55:15Z</time>
      </trkpt>
      <trkpt lat="42.63966" lon="1.71716">
        <ele>1928.41</ele>
        <time>2021-08-06T07:55:17Z</time>
      </trkpt>
      <trkpt lat="42.63965" lon="1.71718">
        <ele>1928.067</ele>
        <time>2021-08-06T07:55:19Z</time>
      </trkpt>
      <trkpt lat="42.63965" lon="1.7172">
        <ele>1927.588</ele>
        <time>2021-08-06T07:55:21Z</time>
      </trkpt>
      <trkpt lat="42.63964" lon="1.71723">
        <ele>1927.573</ele>
        <time>2021-08-06T07:55:23Z</time>
      </trkpt>
      <trkpt lat="42.63964" lon="1.71725">
        <ele>1927.368</ele>
        <time>2021-08-06T07:55:25Z</time>
      </trkpt>
      <trkpt lat="42.63963" lon="1.71727">
        <ele>1927.642</ele>
        <time>2021-08-06T07:55:27Z</time>
      </trkpt>
      <trkpt lat="42.63961" lon="1.7173">
        <ele>1930.241</ele>
        <time>2021-08-06T07:55:29Z</time>
      </trkpt>
      <trkpt lat="42.63958" lon="1.71732">
        <ele>1930.618</ele>
        <time>2021-08-06T07:55:31Z</time>
      </trkpt>
      <trkpt lat="42.63956" lon="1.71734">
        <ele>1931.293</ele>
        <time>2021-08-06T07:55:33Z</time>
      </trkpt>
      <trkpt lat="42.63955" lon="1.71736">
        <ele>1931.427</ele>
        <time>2021-08-06T07:55:35Z</time>
      </trkpt>
      <trkpt lat="42.63953" lon="1.71736">
        <ele>1932.453</ele>
        <time>2021-08-06T07:55:37Z</time>
      </trkpt>
      <trkpt lat="42.63951" lon="1.71736">
        <ele>1932.12</ele>
        <time>2021-08-06T07:55:39Z</time>
      </trkpt>
      <trkpt lat="42.6395" lon="1.71737">
        <ele>1931.947</ele>
        <time>2021-08-06T07:55:41Z</time>
      </trkpt>
      <trkpt lat="42.63949" lon="1.71738">
        <ele>1932.828</ele>
        <time>2021-08-06T07:55:43Z</time>
      </trkpt>
      <trkpt lat="42.63947" lon="1.7174">
        <ele>1932.791</ele>
        <time>2021-08-06T07:55:45Z</time>
      </trkpt>
      <trkpt lat="42.63946" lon="1.71741">
        <ele>1932.738</ele>
        <time>2021-08-06T07:55:47Z</time>
      </trkpt>
      <trkpt lat="42.63945" lon="1.71743">
        <ele>1932.744</ele>
        <time>2021-08-06T07:55:49Z</time>
      </trkpt>
      <trkpt lat="42.63944" lon="1.71745">
        <ele>1933.676</ele>
        <time>2021-08-06T07:55:51Z</time>
      </trkpt>
      <trkpt lat="42.63943" lon="1.71747">
        <ele>1933.364</ele>
        <time>2021-08-06T07:55:53Z</time>
      </trkpt>
      <trkpt lat="42.63943" lon="1.71748">
        <ele>1933.241</ele>
        <time>2021-08-06T07:55:54Z</time>
      </trkpt>
      <trkpt lat="42.63941" lon="1.71751">
        <ele>1932.18</ele>
        <time>2021-08-06T07:55:57Z</time>
      </trkpt>
      <trkpt lat="42.6394" lon="1.71753">
        <ele>1932.966</ele>
        <time>2021-08-06T07:55:59Z</time>
      </trkpt>
      <trkpt lat="42.63939" lon="1.71756">
        <ele>1933.288</ele>
        <time>2021-08-06T07:56:01Z</time>
      </trkpt>
      <trkpt lat="42.63937" lon="1.71758">
        <ele>1933.214</ele>
        <time>2021-08-06T07:56:03Z</time>
      </trkpt>
      <trkpt lat="42.63936" lon="1.71761">
        <ele>1933.532</ele>
        <time>2021-08-06T07:56:05Z</time>
      </trkpt>
      <trkpt lat="42.63934" lon="1.71764">
        <ele>1934.822</ele>
        <time>2021-08-06T07:56:07Z</time>
      </trkpt>
      <trkpt lat="42.63935" lon="1.71768">
        <ele>1937.08</ele>
        <time>2021-08-06T07:56:09Z</time>
      </trkpt>
      <trkpt lat="42.63935" lon="1.71772">
        <ele>1937.761</ele>
        <time>2021-08-06T07:56:11Z</time>
      </trkpt>
      <trkpt lat="42.63935" lon="1.71776">
        <ele>1939.184</ele>
        <time>2021-08-06T07:56:13Z</time>
      </trkpt>
      <trkpt lat="42.63936" lon="1.71778">
        <ele>1939.262</ele>
        <time>2021-08-06T07:56:15Z</time>
      </trkpt>
      <trkpt lat="42.63935" lon="1.7178">
        <ele>1939.212</ele>
        <time>2021-08-06T07:56:17Z</time>
      </trkpt>
      <trkpt lat="42.63934" lon="1.71782">
        <ele>1937.819</ele>
        <time>2021-08-06T07:56:19Z</time>
      </trkpt>
      <trkpt lat="42.63933" lon="1.71784">
        <ele>1938.468</ele>
        <time>2021-08-06T07:56:21Z</time>
      </trkpt>
      <trkpt lat="42.63932" lon="1.71786">
        <ele>1938.646</ele>
        <time>2021-08-06T07:56:23Z</time>
      </trkpt>
      <trkpt lat="42.63931" lon="1.71788">
        <ele>1939.679</ele>
        <time>2021-08-06T07:56:25Z</time>
      </trkpt>
      <trkpt lat="42.6393" lon="1.71791">
        <ele>1939.716</ele>
        <time>2021-08-06T07:56:27Z</time>
      </trkpt>
      <trkpt lat="42.63928" lon="1.71795">
        <ele>1940.959</ele>
        <time>2021-08-06T07:56:29Z</time>
      </trkpt>
      <trkpt lat="42.63926" lon="1.71798">
        <ele>1942.765</ele>
        <time>2021-08-06T07:56:31Z</time>
      </trkpt>
      <trkpt lat="42.63925" lon="1.71801">
        <ele>1942.88</ele>
        <time>2021-08-06T07:56:33Z</time>
      </trkpt>
      <trkpt lat="42.63924" lon="1.71802">
        <ele>1942.924</ele>
        <time>2021-08-06T07:56:35Z</time>
      </trkpt>
      <trkpt lat="42.63923" lon="1.71804">
        <ele>1941.156</ele>
        <time>2021-08-06T07:56:37Z</time>
      </trkpt>
      <trkpt lat="42.63923" lon="1.71804">
        <ele>1940.213</ele>
        <time>2021-08-06T07:56:39Z</time>
      </trkpt>
      <trkpt lat="42.63923" lon="1.71804">
        <ele>1940.168</ele>
        <time>2021-08-06T07:56:41Z</time>
      </trkpt>
      <trkpt lat="42.63923" lon="1.71805">
        <ele>1940.308</ele>
        <time>2021-08-06T07:56:43Z</time>
      </trkpt>
      <trkpt lat="42.63922" lon="1.71806">
        <ele>1940.005</ele>
        <time>2021-08-06T07:56:45Z</time>
      </trkpt>
      <trkpt lat="42.63921" lon="1.71808">
        <ele>1939.371</ele>
        <time>2021-08-06T07:56:47Z</time>
      </trkpt>
      <trkpt lat="42.63921" lon="1.7181">
        <ele>1938.87</ele>
        <time>2021-08-06T07:56:49Z</time>
      </trkpt>
      <trkpt lat="42.6392" lon="1.71811">
        <ele>1939.44</ele>
        <time>2021-08-06T07:56:51Z</time>
      </trkpt>
      <trkpt lat="42.63919" lon="1.71813">
        <ele>1940.445</ele>
        <time>2021-08-06T07:56:53Z</time>
      </trkpt>
      <trkpt lat="42.63918" lon="1.71815">
        <ele>1940.469</ele>
        <time>2021-08-06T07:56:55Z</time>
      </trkpt>
      <trkpt lat="42.63917" lon="1.71817">
        <ele>1939.894</ele>
        <time>2021-08-06T07:56:57Z</time>
      </trkpt>
      <trkpt lat="42.63916" lon="1.71819">
        <ele>1938.669</ele>
        <time>2021-08-06T07:56:59Z</time>
      </trkpt>
      <trkpt lat="42.63914" lon="1.71821">
        <ele>1938.523</ele>
        <time>2021-08-06T07:57:01Z</time>
      </trkpt>
      <trkpt lat="42.63912" lon="1.71823">
        <ele>1938.582</ele>
        <time>2021-08-06T07:57:03Z</time>
      </trkpt>
      <trkpt lat="42.63911" lon="1.71825">
        <ele>1938.453</ele>
        <time>2021-08-06T07:57:05Z</time>
      </trkpt>
      <trkpt lat="42.63909" lon="1.71827">
        <ele>1939.013</ele>
        <time>2021-08-06T07:57:07Z</time>
      </trkpt>
      <trkpt lat="42.63907" lon="1.71829">
        <ele>1938.873</ele>
        <time>2021-08-06T07:57:09Z</time>
      </trkpt>
      <trkpt lat="42.63906" lon="1.71831">
        <ele>1939.26</ele>
        <time>2021-08-06T07:57:11Z</time>
      </trkpt>
      <trkpt lat="42.63905" lon="1.71833">
        <ele>1940.033</ele>
        <time>2021-08-06T07:57:13Z</time>
      </trkpt>
      <trkpt lat="42.63904" lon="1.71835">
        <ele>1939.899</ele>
        <time>2021-08-06T07:57:15Z</time>
      </trkpt>
      <trkpt lat="42.63902" lon="1.71838">
        <ele>1939.773</ele>
        <time>2021-08-06T07:57:17Z</time>
      </trkpt>
      <trkpt lat="42.63901" lon="1.7184">
        <ele>1939.451</ele>
        <time>2021-08-06T07:57:19Z</time>
      </trkpt>
      <trkpt lat="42.639" lon="1.71842">
        <ele>1939.985</ele>
        <time>2021-08-06T07:57:21Z</time>
      </trkpt>
      <trkpt lat="42.63898" lon="1.71843">
        <ele>1940.116</ele>
        <time>2021-08-06T07:57:23Z</time>
      </trkpt>
      <trkpt lat="42.63896" lon="1.71844">
        <ele>1939.999</ele>
        <time>2021-08-06T07:57:25Z</time>
      </trkpt>
      <trkpt lat="42.63895" lon="1.71846">
        <ele>1940.386</ele>
        <time>2021-08-06T07:57:27Z</time>
      </trkpt>
      <trkpt lat="42.63893" lon="1.71847">
        <ele>1940.396</ele>
        <time>2021-08-06T07:57:29Z</time>
      </trkpt>
      <trkpt lat="42.63892" lon="1.71848">
        <ele>1940.221</ele>
        <time>2021-08-06T07:57:31Z</time>
      </trkpt>
      <trkpt lat="42.6389" lon="1.71848">
        <ele>1940.105</ele>
        <time>2021-08-06T07:57:33Z</time>
      </trkpt>
      <trkpt lat="42.63888" lon="1.71849">
        <ele>1939.452</ele>
        <time>2021-08-06T07:57:35Z</time>
      </trkpt>
      <trkpt lat="42.63887" lon="1.71851">
        <ele>1939.808</ele>
        <time>2021-08-06T07:57:37Z</time>
      </trkpt>
      <trkpt lat="42.63885" lon="1.71853">
        <ele>1939.766</ele>
        <time>2021-08-06T07:57:39Z</time>
      </trkpt>
      <trkpt lat="42.63883" lon="1.71855">
        <ele>1939.435</ele>
        <time>2021-08-06T07:57:41Z</time>
      </trkpt>
      <trkpt lat="42.63882" lon="1.71857">
        <ele>1939.737</ele>
        <time>2021-08-06T07:57:43Z</time>
      </trkpt>
      <trkpt lat="42.63881" lon="1.71857">
        <ele>1938.614</ele>
        <time>2021-08-06T07:57:45Z</time>
      </trkpt>
      <trkpt lat="42.63879" lon="1.71858">
        <ele>1938.632</ele>
        <time>2021-08-06T07:57:47Z</time>
      </trkpt>
      <trkpt lat="42.63878" lon="1.7186">
        <ele>1938.576</ele>
        <time>2021-08-06T07:57:49Z</time>
      </trkpt>
      <trkpt lat="42.63877" lon="1.7186">
        <ele>1939.748</ele>
        <time>2021-08-06T07:57:51Z</time>
      </trkpt>
      <trkpt lat="42.63875" lon="1.7186">
        <ele>1940.328</ele>
        <time>2021-08-06T07:57:53Z</time>
      </trkpt>
      <trkpt lat="42.63873" lon="1.7186">
        <ele>1940.496</ele>
        <time>2021-08-06T07:57:55Z</time>
      </trkpt>
      <trkpt lat="42.63872" lon="1.71861">
        <ele>1940.886</ele>
        <time>2021-08-06T07:57:57Z</time>
      </trkpt>
      <trkpt lat="42.6387" lon="1.71863">
        <ele>1941.433</ele>
        <time>2021-08-06T07:57:59Z</time>
      </trkpt>
      <trkpt lat="42.63869" lon="1.71865">
        <ele>1941.466</ele>
        <time>2021-08-06T07:58:01Z</time>
      </trkpt>
      <trkpt lat="42.63868" lon="1.71867">
        <ele>1941.892</ele>
        <time>2021-08-06T07:58:03Z</time>
      </trkpt>
      <trkpt lat="42.63866" lon="1.71869">
        <ele>1941.587</ele>
        <time>2021-08-06T07:58:05Z</time>
      </trkpt>
      <trkpt lat="42.63866" lon="1.71872">
        <ele>1942.253</ele>
        <time>2021-08-06T07:58:07Z</time>
      </trkpt>
      <trkpt lat="42.63865" lon="1.71876">
        <ele>1942.983</ele>
        <time>2021-08-06T07:58:09Z</time>
      </trkpt>
      <trkpt lat="42.63864" lon="1.71878">
        <ele>1943.059</ele>
        <time>2021-08-06T07:58:11Z</time>
      </trkpt>
      <trkpt lat="42.63864" lon="1.7188">
        <ele>1943.283</ele>
        <time>2021-08-06T07:58:13Z</time>
      </trkpt>
      <trkpt lat="42.63862" lon="1.71881">
        <ele>1942.824</ele>
        <time>2021-08-06T07:58:15Z</time>
      </trkpt>
      <trkpt lat="42.6386" lon="1.71881">
        <ele>1943.181</ele>
        <time>2021-08-06T07:58:17Z</time>
      </trkpt>
      <trkpt lat="42.63859" lon="1.71882">
        <ele>1943.876</ele>
        <time>2021-08-06T07:58:19Z</time>
      </trkpt>
      <trkpt lat="42.63857" lon="1.71882">
        <ele>1944.53</ele>
        <time>2021-08-06T07:58:21Z</time>
      </trkpt>
      <trkpt lat="42.63855" lon="1.71883">
        <ele>1944.364</ele>
        <time>2021-08-06T07:58:23Z</time>
      </trkpt>
      <trkpt lat="42.63853" lon="1.71884">
        <ele>1944.664</ele>
        <time>2021-08-06T07:58:25Z</time>
      </trkpt>
      <trkpt lat="42.63852" lon="1.71885">
        <ele>1944.746</ele>
        <time>2021-08-06T07:58:27Z</time>
      </trkpt>
      <trkpt lat="42.6385" lon="1.71886">
        <ele>1944.926</ele>
        <time>2021-08-06T07:58:29Z</time>
      </trkpt>
      <trkpt lat="42.63848" lon="1.71887">
        <ele>1944.268</ele>
        <time>2021-08-06T07:58:31Z</time>
      </trkpt>
      <trkpt lat="42.63846" lon="1.71888">
        <ele>1944.591</ele>
        <time>2021-08-06T07:58:33Z</time>
      </trkpt>
      <trkpt lat="42.63844" lon="1.7189">
        <ele>1944.779</ele>
        <time>2021-08-06T07:58:35Z</time>
      </trkpt>
      <trkpt lat="42.63841" lon="1.7189">
        <ele>1944.469</ele>
        <time>2021-08-06T07:58:37Z</time>
      </trkpt>
      <trkpt lat="42.63839" lon="1.71891">
        <ele>1944.437</ele>
        <time>2021-08-06T07:58:39Z</time>
      </trkpt>
      <trkpt lat="42.63836" lon="1.71893">
        <ele>1943.851</ele>
        <time>2021-08-06T07:58:41Z</time>
      </trkpt>
      <trkpt lat="42.63834" lon="1.71894">
        <ele>1944.379</ele>
        <time>2021-08-06T07:58:43Z</time>
      </trkpt>
      <trkpt lat="42.63832" lon="1.71895">
        <ele>1944.651</ele>
        <time>2021-08-06T07:58:45Z</time>
      </trkpt>
      <trkpt lat="42.6383" lon="1.71896">
        <ele>1944.111</ele>
        <time>2021-08-06T07:58:47Z</time>
      </trkpt>
      <trkpt lat="42.63829" lon="1.71898">
        <ele>1943.592</ele>
        <time>2021-08-06T07:58:49Z</time>
      </trkpt>
      <trkpt lat="42.63827" lon="1.71899">
        <ele>1943.825</ele>
        <time>2021-08-06T07:58:51Z</time>
      </trkpt>
      <trkpt lat="42.63825" lon="1.719">
        <ele>1944.003</ele>
        <time>2021-08-06T07:58:53Z</time>
      </trkpt>
      <trkpt lat="42.63823" lon="1.71901">
        <ele>1943.815</ele>
        <time>2021-08-06T07:58:55Z</time>
      </trkpt>
      <trkpt lat="42.6382" lon="1.71903">
        <ele>1943.671</ele>
        <time>2021-08-06T07:58:57Z</time>
      </trkpt>
      <trkpt lat="42.63817" lon="1.71904">
        <ele>1943.857</ele>
        <time>2021-08-06T07:58:59Z</time>
      </trkpt>
      <trkpt lat="42.63815" lon="1.71907">
        <ele>1943.373</ele>
        <time>2021-08-06T07:59:01Z</time>
      </trkpt>
      <trkpt lat="42.63813" lon="1.71908">
        <ele>1943.108</ele>
        <time>2021-08-06T07:59:03Z</time>
      </trkpt>
      <trkpt lat="42.63811" lon="1.71909">
        <ele>1943.412</ele>
        <time>2021-08-06T07:59:05Z</time>
      </trkpt>
      <trkpt lat="42.63809" lon="1.7191">
        <ele>1943.689</ele>
        <time>2021-08-06T07:59:07Z</time>
      </trkpt>
      <trkpt lat="42.63807" lon="1.71911">
        <ele>1944.108</ele>
        <time>2021-08-06T07:59:09Z</time>
      </trkpt>
      <trkpt lat="42.63804" lon="1.71912">
        <ele>1944.527</ele>
        <time>2021-08-06T07:59:11Z</time>
      </trkpt>
      <trkpt lat="42.63802" lon="1.71913">
        <ele>1944.177</ele>
        <time>2021-08-06T07:59:13Z</time>
      </trkpt>
      <trkpt lat="42.638" lon="1.71913">
        <ele>1944.176</ele>
        <time>2021-08-06T07:59:15Z</time>
      </trkpt>
      <trkpt lat="42.63798" lon="1.71913">
        <ele>1943.741</ele>
        <time>2021-08-06T07:59:17Z</time>
      </trkpt>
      <trkpt lat="42.63796" lon="1.71914">
        <ele>1943.599</ele>
        <time>2021-08-06T07:59:19Z</time>
      </trkpt>
      <trkpt lat="42.63793" lon="1.71915">
        <ele>1943.853</ele>
        <time>2021-08-06T07:59:21Z</time>
      </trkpt>
      <trkpt lat="42.63791" lon="1.71916">
        <ele>1944.227</ele>
        <time>2021-08-06T07:59:23Z</time>
      </trkpt>
      <trkpt lat="42.63788" lon="1.71917">
        <ele>1944.262</ele>
        <time>2021-08-06T07:59:25Z</time>
      </trkpt>
      <trkpt lat="42.63786" lon="1.71917">
        <ele>1944.828</ele>
        <time>2021-08-06T07:59:27Z</time>
      </trkpt>
      <trkpt lat="42.63783" lon="1.71917">
        <ele>1945.116</ele>
        <time>2021-08-06T07:59:29Z</time>
      </trkpt>
      <trkpt lat="42.63781" lon="1.71917">
        <ele>1945.441</ele>
        <time>2021-08-06T07:59:31Z</time>
      </trkpt>
      <trkpt lat="42.63779" lon="1.71918">
        <ele>1945.47</ele>
        <time>2021-08-06T07:59:33Z</time>
      </trkpt>
      <trkpt lat="42.63777" lon="1.71918">
        <ele>1945.343</ele>
        <time>2021-08-06T07:59:35Z</time>
      </trkpt>
      <trkpt lat="42.63774" lon="1.71919">
        <ele>1945.066</ele>
        <time>2021-08-06T07:59:37Z</time>
      </trkpt>
      <trkpt lat="42.63771" lon="1.7192">
        <ele>1944.834</ele>
        <time>2021-08-06T07:59:39Z</time>
      </trkpt>
      <trkpt lat="42.63769" lon="1.7192">
        <ele>1944.822</ele>
        <time>2021-08-06T07:59:41Z</time>
      </trkpt>
      <trkpt lat="42.63767" lon="1.71921">
        <ele>1944.213</ele>
        <time>2021-08-06T07:59:43Z</time>
      </trkpt>
      <trkpt lat="42.63765" lon="1.71922">
        <ele>1944.772</ele>
        <time>2021-08-06T07:59:45Z</time>
      </trkpt>
      <trkpt lat="42.63763" lon="1.71922">
        <ele>1944.596</ele>
        <time>2021-08-06T07:59:47Z</time>
      </trkpt>
      <trkpt lat="42.63761" lon="1.71923">
        <ele>1943.934</ele>
        <time>2021-08-06T07:59:49Z</time>
      </trkpt>
      <trkpt lat="42.63759" lon="1.71923">
        <ele>1943.882</ele>
        <time>2021-08-06T07:59:51Z</time>
      </trkpt>
      <trkpt lat="42.63757" lon="1.71923">
        <ele>1944.351</ele>
        <time>2021-08-06T07:59:53Z</time>
      </trkpt>
      <trkpt lat="42.63755" lon="1.71923">
        <ele>1944.108</ele>
        <time>2021-08-06T07:59:55Z</time>
      </trkpt>
      <trkpt lat="42.63753" lon="1.71923">
        <ele>1943.995</ele>
        <time>2021-08-06T07:59:57Z</time>
      </trkpt>
      <trkpt lat="42.63752" lon="1.71923">
        <ele>1944.445</ele>
        <time>2021-08-06T07:59:59Z</time>
      </trkpt>
      <trkpt lat="42.6375" lon="1.71923">
        <ele>1944.406</ele>
        <time>2021-08-06T08:00:01Z</time>
      </trkpt>
      <trkpt lat="42.63748" lon="1.71923">
        <ele>1944.831</ele>
        <time>2021-08-06T08:00:03Z</time>
      </trkpt>
      <trkpt lat="42.63747" lon="1.71924">
        <ele>1945.2</ele>
        <time>2021-08-06T08:00:05Z</time>
      </trkpt>
      <trkpt lat="42.63745" lon="1.71926">
        <ele>1945.749</ele>
        <time>2021-08-06T08:00:07Z</time>
      </trkpt>
      <trkpt lat="42.63744" lon="1.71927">
        <ele>1946.879</ele>
        <time>2021-08-06T08:00:09Z</time>
      </trkpt>
      <trkpt lat="42.63743" lon="1.71927">
        <ele>1946.957</ele>
        <time>2021-08-06T08:00:11Z</time>
      </trkpt>
      <trkpt lat="42.63741" lon="1.71929">
        <ele>1947.124</ele>
        <time>2021-08-06T08:00:13Z</time>
      </trkpt>
      <trkpt lat="42.6374" lon="1.7193">
        <ele>1946.864</ele>
        <time>2021-08-06T08:00:15Z</time>
      </trkpt>
      <trkpt lat="42.63739" lon="1.71931">
        <ele>1947.746</ele>
        <time>2021-08-06T08:00:17Z</time>
      </trkpt>
      <trkpt lat="42.63738" lon="1.71932">
        <ele>1948.21</ele>
        <time>2021-08-06T08:00:19Z</time>
      </trkpt>
      <trkpt lat="42.63737" lon="1.71932">
        <ele>1949.231</ele>
        <time>2021-08-06T08:00:21Z</time>
      </trkpt>
      <trkpt lat="42.63735" lon="1.71932">
        <ele>1949.569</ele>
        <time>2021-08-06T08:00:23Z</time>
      </trkpt>
      <trkpt lat="42.63734" lon="1.71932">
        <ele>1950.265</ele>
        <time>2021-08-06T08:00:25Z</time>
      </trkpt>
      <trkpt lat="42.63732" lon="1.71932">
        <ele>1950.929</ele>
        <time>2021-08-06T08:00:27Z</time>
      </trkpt>
      <trkpt lat="42.6373" lon="1.71932">
        <ele>1951.186</ele>
        <time>2021-08-06T08:00:29Z</time>
      </trkpt>
      <trkpt lat="42.63728" lon="1.71933">
        <ele>1951.331</ele>
        <time>2021-08-06T08:00:31Z</time>
      </trkpt>
      <trkpt lat="42.63727" lon="1.71934">
        <ele>1951.416</ele>
        <time>2021-08-06T08:00:33Z</time>
      </trkpt>
      <trkpt lat="42.63726" lon="1.71936">
        <ele>1951.485</ele>
        <time>2021-08-06T08:00:35Z</time>
      </trkpt>
      <trkpt lat="42.63725" lon="1.71937">
        <ele>1951.31</ele>
        <time>2021-08-06T08:00:37Z</time>
      </trkpt>
      <trkpt lat="42.63724" lon="1.71939">
        <ele>1951.404</ele>
        <time>2021-08-06T08:00:39Z</time>
      </trkpt>
      <trkpt lat="42.63723" lon="1.71941">
        <ele>1951.452</ele>
        <time>2021-08-06T08:00:41Z</time>
      </trkpt>
      <trkpt lat="42.63722" lon="1.71942">
        <ele>1951.842</ele>
        <time>2021-08-06T08:00:43Z</time>
      </trkpt>
      <trkpt lat="42.63721" lon="1.71944">
        <ele>1951.406</ele>
        <time>2021-08-06T08:00:45Z</time>
      </trkpt>
      <trkpt lat="42.63721" lon="1.71946">
        <ele>1951.562</ele>
        <time>2021-08-06T08:00:47Z</time>
      </trkpt>
      <trkpt lat="42.6372" lon="1.71947">
        <ele>1951.728</ele>
        <time>2021-08-06T08:00:49Z</time>
      </trkpt>
      <trkpt lat="42.6372" lon="1.71949">
        <ele>1951.793</ele>
        <time>2021-08-06T08:00:51Z</time>
      </trkpt>
      <trkpt lat="42.63719" lon="1.71951">
        <ele>1951.599</ele>
        <time>2021-08-06T08:00:53Z</time>
      </trkpt>
      <trkpt lat="42.63718" lon="1.71953">
        <ele>1950.993</ele>
        <time>2021-08-06T08:00:55Z</time>
      </trkpt>
      <trkpt lat="42.63717" lon="1.71954">
        <ele>1951.262</ele>
        <time>2021-08-06T08:00:57Z</time>
      </trkpt>
      <trkpt lat="42.63716" lon="1.71955">
        <ele>1952.185</ele>
        <time>2021-08-06T08:00:59Z</time>
      </trkpt>
      <trkpt lat="42.63714" lon="1.71957">
        <ele>1952.087</ele>
        <time>2021-08-06T08:01:01Z</time>
      </trkpt>
      <trkpt lat="42.63713" lon="1.71958">
        <ele>1952.246</ele>
        <time>2021-08-06T08:01:03Z</time>
      </trkpt>
      <trkpt lat="42.63712" lon="1.7196">
        <ele>1953.155</ele>
        <time>2021-08-06T08:01:05Z</time>
      </trkpt>
      <trkpt lat="42.6371" lon="1.71963">
        <ele>1953.465</ele>
        <time>2021-08-06T08:01:07Z</time>
      </trkpt>
      <trkpt lat="42.6371" lon="1.71965">
        <ele>1954.409</ele>
        <time>2021-08-06T08:01:09Z</time>
      </trkpt>
      <trkpt lat="42.63708" lon="1.71967">
        <ele>1955.138</ele>
        <time>2021-08-06T08:01:11Z</time>
      </trkpt>
      <trkpt lat="42.63707" lon="1.71969">
        <ele>1954.596</ele>
        <time>2021-08-06T08:01:13Z</time>
      </trkpt>
      <trkpt lat="42.63706" lon="1.71971">
        <ele>1954.399</ele>
        <time>2021-08-06T08:01:15Z</time>
      </trkpt>
      <trkpt lat="42.63705" lon="1.71973">
        <ele>1953.771</ele>
        <time>2021-08-06T08:01:17Z</time>
      </trkpt>
      <trkpt lat="42.63704" lon="1.71974">
        <ele>1954.275</ele>
        <time>2021-08-06T08:01:19Z</time>
      </trkpt>
      <trkpt lat="42.63702" lon="1.71975">
        <ele>1955.378</ele>
        <time>2021-08-06T08:01:21Z</time>
      </trkpt>
      <trkpt lat="42.637" lon="1.71976">
        <ele>1955.451</ele>
        <time>2021-08-06T08:01:23Z</time>
      </trkpt>
      <trkpt lat="42.63699" lon="1.71978">
        <ele>1956.092</ele>
        <time>2021-08-06T08:01:25Z</time>
      </trkpt>
      <trkpt lat="42.63698" lon="1.71981">
        <ele>1956.595</ele>
        <time>2021-08-06T08:01:27Z</time>
      </trkpt>
      <trkpt lat="42.63697" lon="1.71983">
        <ele>1956.269</ele>
        <time>2021-08-06T08:01:29Z</time>
      </trkpt>
      <trkpt lat="42.63694" lon="1.71984">
        <ele>1956.08</ele>
        <time>2021-08-06T08:01:31Z</time>
      </trkpt>
      <trkpt lat="42.63692" lon="1.71984">
        <ele>1956.337</ele>
        <time>2021-08-06T08:01:33Z</time>
      </trkpt>
      <trkpt lat="42.6369" lon="1.71984">
        <ele>1955.876</ele>
        <time>2021-08-06T08:01:35Z</time>
      </trkpt>
      <trkpt lat="42.63688" lon="1.71985">
        <ele>1956.05</ele>
        <time>2021-08-06T08:01:37Z</time>
      </trkpt>
      <trkpt lat="42.63687" lon="1.71987">
        <ele>1956.398</ele>
        <time>2021-08-06T08:01:39Z</time>
      </trkpt>
      <trkpt lat="42.63685" lon="1.71988">
        <ele>1957.505</ele>
        <time>2021-08-06T08:01:41Z</time>
      </trkpt>
      <trkpt lat="42.63683" lon="1.71987">
        <ele>1957.824</ele>
        <time>2021-08-06T08:01:43Z</time>
      </trkpt>
      <trkpt lat="42.63681" lon="1.71987">
        <ele>1957.525</ele>
        <time>2021-08-06T08:01:45Z</time>
      </trkpt>
      <trkpt lat="42.6368" lon="1.71987">
        <ele>1957.578</ele>
        <time>2021-08-06T08:01:47Z</time>
      </trkpt>
      <trkpt lat="42.63678" lon="1.71987">
        <ele>1957.843</ele>
        <time>2021-08-06T08:01:49Z</time>
      </trkpt>
      <trkpt lat="42.63676" lon="1.71988">
        <ele>1957.877</ele>
        <time>2021-08-06T08:01:51Z</time>
      </trkpt>
      <trkpt lat="42.63673" lon="1.71988">
        <ele>1957.774</ele>
        <time>2021-08-06T08:01:53Z</time>
      </trkpt>
      <trkpt lat="42.6367" lon="1.71991">
        <ele>1956.709</ele>
        <time>2021-08-06T08:01:56Z</time>
      </trkpt>
      <trkpt lat="42.63668" lon="1.71992">
        <ele>1956.168</ele>
        <time>2021-08-06T08:01:58Z</time>
      </trkpt>
      <trkpt lat="42.63666" lon="1.71992">
        <ele>1957.053</ele>
        <time>2021-08-06T08:02:00Z</time>
      </trkpt>
      <trkpt lat="42.63665" lon="1.71993">
        <ele>1957.739</ele>
        <time>2021-08-06T08:02:02Z</time>
      </trkpt>
      <trkpt lat="42.63663" lon="1.71993">
        <ele>1958.662</ele>
        <time>2021-08-06T08:02:04Z</time>
      </trkpt>
      <trkpt lat="42.63662" lon="1.71993">
        <ele>1958.279</ele>
        <time>2021-08-06T08:02:06Z</time>
      </trkpt>
      <trkpt lat="42.63661" lon="1.71991">
        <ele>1957.141</ele>
        <time>2021-08-06T08:02:08Z</time>
      </trkpt>
      <trkpt lat="42.63659" lon="1.71992">
        <ele>1957.642</ele>
        <time>2021-08-06T08:02:10Z</time>
      </trkpt>
      <trkpt lat="42.63658" lon="1.71994">
        <ele>1958.193</ele>
        <time>2021-08-06T08:02:12Z</time>
      </trkpt>
      <trkpt lat="42.63657" lon="1.71997">
        <ele>1957.907</ele>
        <time>2021-08-06T08:02:14Z</time>
      </trkpt>
      <trkpt lat="42.63656" lon="1.71998">
        <ele>1958.328</ele>
        <time>2021-08-06T08:02:16Z</time>
      </trkpt>
      <trkpt lat="42.63654" lon="1.72">
        <ele>1958.731</ele>
        <time>2021-08-06T08:02:18Z</time>
      </trkpt>
      <trkpt lat="42.63653" lon="1.72001">
        <ele>1960.15</ele>
        <time>2021-08-06T08:02:20Z</time>
      </trkpt>
      <trkpt lat="42.63652" lon="1.72001">
        <ele>1960.251</ele>
        <time>2021-08-06T08:02:22Z</time>
      </trkpt>
      <trkpt lat="42.6365" lon="1.72001">
        <ele>1961.669</ele>
        <time>2021-08-06T08:02:24Z</time>
      </trkpt>
      <trkpt lat="42.63649" lon="1.72003">
        <ele>1961.665</ele>
        <time>2021-08-06T08:02:26Z</time>
      </trkpt>
      <trkpt lat="42.63649" lon="1.72005">
        <ele>1960.846</ele>
        <time>2021-08-06T08:02:28Z</time>
      </trkpt>
      <trkpt lat="42.63649" lon="1.72007">
        <ele>1961.37</ele>
        <time>2021-08-06T08:02:30Z</time>
      </trkpt>
      <trkpt lat="42.63649" lon="1.72009">
        <ele>1960.933</ele>
        <time>2021-08-06T08:02:32Z</time>
      </trkpt>
      <trkpt lat="42.63649" lon="1.72011">
        <ele>1960.747</ele>
        <time>2021-08-06T08:02:34Z</time>
      </trkpt>
      <trkpt lat="42.63648" lon="1.72013">
        <ele>1961.431</ele>
        <time>2021-08-06T08:02:36Z</time>
      </trkpt>
      <trkpt lat="42.63646" lon="1.72014">
        <ele>1962.472</ele>
        <time>2021-08-06T08:02:38Z</time>
      </trkpt>
      <trkpt lat="42.63645" lon="1.72015">
        <ele>1962.604</ele>
        <time>2021-08-06T08:02:40Z</time>
      </trkpt>
      <trkpt lat="42.63644" lon="1.72016">
        <ele>1963.591</ele>
        <time>2021-08-06T08:02:42Z</time>
      </trkpt>
      <trkpt lat="42.63643" lon="1.72018">
        <ele>1964.098</ele>
        <time>2021-08-06T08:02:44Z</time>
      </trkpt>
      <trkpt lat="42.63641" lon="1.7202">
        <ele>1964.666</ele>
        <time>2021-08-06T08:02:46Z</time>
      </trkpt>
      <trkpt lat="42.6364" lon="1.72021">
        <ele>1964.838</ele>
        <time>2021-08-06T08:02:48Z</time>
      </trkpt>
      <trkpt lat="42.63639" lon="1.72023">
        <ele>1965.416</ele>
        <time>2021-08-06T08:02:50Z</time>
      </trkpt>
      <trkpt lat="42.63638" lon="1.72025">
        <ele>1966.314</ele>
        <time>2021-08-06T08:02:52Z</time>
      </trkpt>
      <trkpt lat="42.63636" lon="1.72026">
        <ele>1966.428</ele>
        <time>2021-08-06T08:02:54Z</time>
      </trkpt>
      <trkpt lat="42.63634" lon="1.72028">
        <ele>1966.874</ele>
        <time>2021-08-06T08:02:56Z</time>
      </trkpt>
      <trkpt lat="42.63633" lon="1.72029">
        <ele>1966.472</ele>
        <time>2021-08-06T08:02:58Z</time>
      </trkpt>
      <trkpt lat="42.63631" lon="1.7203">
        <ele>1967.098</ele>
        <time>2021-08-06T08:03:00Z</time>
      </trkpt>
      <trkpt lat="42.63629" lon="1.72031">
        <ele>1967.991</ele>
        <time>2021-08-06T08:03:02Z</time>
      </trkpt>
      <trkpt lat="42.63628" lon="1.72033">
        <ele>1968.268</ele>
        <time>2021-08-06T08:03:04Z</time>
      </trkpt>
      <trkpt lat="42.63627" lon="1.72035">
        <ele>1968.014</ele>
        <time>2021-08-06T08:03:06Z</time>
      </trkpt>
      <trkpt lat="42.63625" lon="1.72036">
        <ele>1968.014</ele>
        <time>2021-08-06T08:03:08Z</time>
      </trkpt>
      <trkpt lat="42.63624" lon="1.72038">
        <ele>1968.301</ele>
        <time>2021-08-06T08:03:10Z</time>
      </trkpt>
      <trkpt lat="42.63622" lon="1.72041">
        <ele>1968.267</ele>
        <time>2021-08-06T08:03:12Z</time>
      </trkpt>
      <trkpt lat="42.63621" lon="1.72043">
        <ele>1968.611</ele>
        <time>2021-08-06T08:03:14Z</time>
      </trkpt>
      <trkpt lat="42.63619" lon="1.72044">
        <ele>1968.434</ele>
        <time>2021-08-06T08:03:16Z</time>
      </trkpt>
      <trkpt lat="42.63618" lon="1.72047">
        <ele>1968.722</ele>
        <time>2021-08-06T08:03:18Z</time>
      </trkpt>
      <trkpt lat="42.63617" lon="1.72049">
        <ele>1969.304</ele>
        <time>2021-08-06T08:03:20Z</time>
      </trkpt>
      <trkpt lat="42.63615" lon="1.7205">
        <ele>1969.77</ele>
        <time>2021-08-06T08:03:22Z</time>
      </trkpt>
      <trkpt lat="42.63613" lon="1.72052">
        <ele>1970.474</ele>
        <time>2021-08-06T08:03:24Z</time>
      </trkpt>
      <trkpt lat="42.63612" lon="1.72055">
        <ele>1971.01</ele>
        <time>2021-08-06T08:03:26Z</time>
      </trkpt>
      <trkpt lat="42.63611" lon="1.72059">
        <ele>1971.294</ele>
        <time>2021-08-06T08:03:28Z</time>
      </trkpt>
      <trkpt lat="42.63611" lon="1.72062">
        <ele>1971.324</ele>
        <time>2021-08-06T08:03:30Z</time>
      </trkpt>
      <trkpt lat="42.6361" lon="1.72066">
        <ele>1971.676</ele>
        <time>2021-08-06T08:03:32Z</time>
      </trkpt>
      <trkpt lat="42.6361" lon="1.72068">
        <ele>1971.24</ele>
        <time>2021-08-06T08:03:34Z</time>
      </trkpt>
      <trkpt lat="42.6361" lon="1.7207">
        <ele>1970.686</ele>
        <time>2021-08-06T08:03:36Z</time>
      </trkpt>
      <trkpt lat="42.63609" lon="1.72072">
        <ele>1970.53</ele>
        <time>2021-08-06T08:03:38Z</time>
      </trkpt>
      <trkpt lat="42.63608" lon="1.72074">
        <ele>1969.6</ele>
        <time>2021-08-06T08:03:40Z</time>
      </trkpt>
      <trkpt lat="42.63608" lon="1.72076">
        <ele>1969.979</ele>
        <time>2021-08-06T08:03:42Z</time>
      </trkpt>
      <trkpt lat="42.63607" lon="1.72078">
        <ele>1970.083</ele>
        <time>2021-08-06T08:03:44Z</time>
      </trkpt>
      <trkpt lat="42.63607" lon="1.7208">
        <ele>1970.439</ele>
        <time>2021-08-06T08:03:46Z</time>
      </trkpt>
      <trkpt lat="42.63606" lon="1.72083">
        <ele>1970.763</ele>
        <time>2021-08-06T08:03:48Z</time>
      </trkpt>
      <trkpt lat="42.63605" lon="1.72085">
        <ele>1970.881</ele>
        <time>2021-08-06T08:03:50Z</time>
      </trkpt>
      <trkpt lat="42.63604" lon="1.72086">
        <ele>1971.266</ele>
        <time>2021-08-06T08:03:52Z</time>
      </trkpt>
      <trkpt lat="42.63603" lon="1.72088">
        <ele>1971.384</ele>
        <time>2021-08-06T08:03:54Z</time>
      </trkpt>
      <trkpt lat="42.63602" lon="1.72089">
        <ele>1971.056</ele>
        <time>2021-08-06T08:03:56Z</time>
      </trkpt>
      <trkpt lat="42.63601" lon="1.72091">
        <ele>1971.892</ele>
        <time>2021-08-06T08:03:58Z</time>
      </trkpt>
      <trkpt lat="42.636" lon="1.72093">
        <ele>1973.024</ele>
        <time>2021-08-06T08:04:00Z</time>
      </trkpt>
      <trkpt lat="42.63598" lon="1.72094">
        <ele>1973.868</ele>
        <time>2021-08-06T08:04:02Z</time>
      </trkpt>
      <trkpt lat="42.63597" lon="1.72097">
        <ele>1974.013</ele>
        <time>2021-08-06T08:04:04Z</time>
      </trkpt>
      <trkpt lat="42.63597" lon="1.72099">
        <ele>1974.651</ele>
        <time>2021-08-06T08:04:06Z</time>
      </trkpt>
      <trkpt lat="42.63596" lon="1.72102">
        <ele>1975.267</ele>
        <time>2021-08-06T08:04:08Z</time>
      </trkpt>
      <trkpt lat="42.63595" lon="1.72105">
        <ele>1974.491</ele>
        <time>2021-08-06T08:04:10Z</time>
      </trkpt>
      <trkpt lat="42.63594" lon="1.72107">
        <ele>1974.769</ele>
        <time>2021-08-06T08:04:12Z</time>
      </trkpt>
      <trkpt lat="42.63593" lon="1.72109">
        <ele>1975.13</ele>
        <time>2021-08-06T08:04:14Z</time>
      </trkpt>
      <trkpt lat="42.63593" lon="1.72111">
        <ele>1975.581</ele>
        <time>2021-08-06T08:04:16Z</time>
      </trkpt>
      <trkpt lat="42.63592" lon="1.72114">
        <ele>1975.071</ele>
        <time>2021-08-06T08:04:18Z</time>
      </trkpt>
      <trkpt lat="42.63592" lon="1.72116">
        <ele>1975.192</ele>
        <time>2021-08-06T08:04:20Z</time>
      </trkpt>
      <trkpt lat="42.6359" lon="1.72118">
        <ele>1975.789</ele>
        <time>2021-08-06T08:04:22Z</time>
      </trkpt>
      <trkpt lat="42.63588" lon="1.72118">
        <ele>1977.691</ele>
        <time>2021-08-06T08:04:24Z</time>
      </trkpt>
      <trkpt lat="42.63587" lon="1.7212">
        <ele>1978.754</ele>
        <time>2021-08-06T08:04:26Z</time>
      </trkpt>
      <trkpt lat="42.63585" lon="1.72122">
        <ele>1979.505</ele>
        <time>2021-08-06T08:04:28Z</time>
      </trkpt>
      <trkpt lat="42.63584" lon="1.72123">
        <ele>1979.266</ele>
        <time>2021-08-06T08:04:30Z</time>
      </trkpt>
      <trkpt lat="42.63583" lon="1.72125">
        <ele>1979.752</ele>
        <time>2021-08-06T08:04:32Z</time>
      </trkpt>
      <trkpt lat="42.63582" lon="1.72127">
        <ele>1979.793</ele>
        <time>2021-08-06T08:04:34Z</time>
      </trkpt>
      <trkpt lat="42.6358" lon="1.72128">
        <ele>1980.15</ele>
        <time>2021-08-06T08:04:36Z</time>
      </trkpt>
      <trkpt lat="42.63579" lon="1.72131">
        <ele>1980.161</ele>
        <time>2021-08-06T08:04:38Z</time>
      </trkpt>
      <trkpt lat="42.63578" lon="1.72132">
        <ele>1979.709</ele>
        <time>2021-08-06T08:04:40Z</time>
      </trkpt>
      <trkpt lat="42.63577" lon="1.72135">
        <ele>1979.623</ele>
        <time>2021-08-06T08:04:42Z</time>
      </trkpt>
      <trkpt lat="42.63576" lon="1.72137">
        <ele>1980.411</ele>
        <time>2021-08-06T08:04:44Z</time>
      </trkpt>
      <trkpt lat="42.63575" lon="1.72138">
        <ele>1979.932</ele>
        <time>2021-08-06T08:04:46Z</time>
      </trkpt>
      <trkpt lat="42.63573" lon="1.7214">
        <ele>1980.503</ele>
        <time>2021-08-06T08:04:48Z</time>
      </trkpt>
      <trkpt lat="42.63572" lon="1.72141">
        <ele>1980.538</ele>
        <time>2021-08-06T08:04:50Z</time>
      </trkpt>
      <trkpt lat="42.6357" lon="1.72143">
        <ele>1980.306</ele>
        <time>2021-08-06T08:04:52Z</time>
      </trkpt>
      <trkpt lat="42.63569" lon="1.72145">
        <ele>1980.013</ele>
        <time>2021-08-06T08:04:54Z</time>
      </trkpt>
      <trkpt lat="42.63569" lon="1.72148">
        <ele>1979.663</ele>
        <time>2021-08-06T08:04:56Z</time>
      </trkpt>
      <trkpt lat="42.63567" lon="1.72149">
        <ele>1979.969</ele>
        <time>2021-08-06T08:04:58Z</time>
      </trkpt>
      <trkpt lat="42.63566" lon="1.7215">
        <ele>1980.139</ele>
        <time>2021-08-06T08:05:00Z</time>
      </trkpt>
      <trkpt lat="42.63564" lon="1.72151">
        <ele>1979.505</ele>
        <time>2021-08-06T08:05:02Z</time>
      </trkpt>
      <trkpt lat="42.63563" lon="1.72154">
        <ele>1979.325</ele>
        <time>2021-08-06T08:05:04Z</time>
      </trkpt>
      <trkpt lat="42.63561" lon="1.72155">
        <ele>1980.108</ele>
        <time>2021-08-06T08:05:06Z</time>
      </trkpt>
      <trkpt lat="42.6356" lon="1.72157">
        <ele>1980.746</ele>
        <time>2021-08-06T08:05:08Z</time>
      </trkpt>
      <trkpt lat="42.63558" lon="1.72158">
        <ele>1981.699</ele>
        <time>2021-08-06T08:05:10Z</time>
      </trkpt>
      <trkpt lat="42.63557" lon="1.72159">
        <ele>1981.88</ele>
        <time>2021-08-06T08:05:12Z</time>
      </trkpt>
      <trkpt lat="42.63555" lon="1.72161">
        <ele>1982.745</ele>
        <time>2021-08-06T08:05:14Z</time>
      </trkpt>
      <trkpt lat="42.63553" lon="1.72162">
        <ele>1983.411</ele>
        <time>2021-08-06T08:05:16Z</time>
      </trkpt>
      <trkpt lat="42.63552" lon="1.72165">
        <ele>1983.889</ele>
        <time>2021-08-06T08:05:18Z</time>
      </trkpt>
      <trkpt lat="42.6355" lon="1.72167">
        <ele>1983.783</ele>
        <time>2021-08-06T08:05:20Z</time>
      </trkpt>
      <trkpt lat="42.63549" lon="1.72168">
        <ele>1984.187</ele>
        <time>2021-08-06T08:05:22Z</time>
      </trkpt>
      <trkpt lat="42.63547" lon="1.72171">
        <ele>1985.387</ele>
        <time>2021-08-06T08:05:24Z</time>
      </trkpt>
      <trkpt lat="42.63546" lon="1.72173">
        <ele>1986.512</ele>
        <time>2021-08-06T08:05:26Z</time>
      </trkpt>
      <trkpt lat="42.63545" lon="1.72176">
        <ele>1986.439</ele>
        <time>2021-08-06T08:05:28Z</time>
      </trkpt>
      <trkpt lat="42.63543" lon="1.72178">
        <ele>1986.443</ele>
        <time>2021-08-06T08:05:30Z</time>
      </trkpt>
      <trkpt lat="42.63542" lon="1.7218">
        <ele>1986.149</ele>
        <time>2021-08-06T08:05:32Z</time>
      </trkpt>
      <trkpt lat="42.63541" lon="1.72183">
        <ele>1986.434</ele>
        <time>2021-08-06T08:05:34Z</time>
      </trkpt>
      <trkpt lat="42.6354" lon="1.72185">
        <ele>1986.824</ele>
        <time>2021-08-06T08:05:36Z</time>
      </trkpt>
      <trkpt lat="42.63538" lon="1.72187">
        <ele>1987.376</ele>
        <time>2021-08-06T08:05:38Z</time>
      </trkpt>
      <trkpt lat="42.63537" lon="1.72189">
        <ele>1987.041</ele>
        <time>2021-08-06T08:05:40Z</time>
      </trkpt>
      <trkpt lat="42.63535" lon="1.7219">
        <ele>1987.596</ele>
        <time>2021-08-06T08:05:42Z</time>
      </trkpt>
      <trkpt lat="42.63533" lon="1.72191">
        <ele>1988.062</ele>
        <time>2021-08-06T08:05:44Z</time>
      </trkpt>
      <trkpt lat="42.63531" lon="1.72193">
        <ele>1988.777</ele>
        <time>2021-08-06T08:05:46Z</time>
      </trkpt>
      <trkpt lat="42.6353" lon="1.72194">
        <ele>1989.133</ele>
        <time>2021-08-06T08:05:48Z</time>
      </trkpt>
      <trkpt lat="42.6353" lon="1.72196">
        <ele>1989.112</ele>
        <time>2021-08-06T08:05:50Z</time>
      </trkpt>
      <trkpt lat="42.63529" lon="1.72198">
        <ele>1990.136</ele>
        <time>2021-08-06T08:05:52Z</time>
      </trkpt>
      <trkpt lat="42.63529" lon="1.722">
        <ele>1990.619</ele>
        <time>2021-08-06T08:05:54Z</time>
      </trkpt>
      <trkpt lat="42.63528" lon="1.72201">
        <ele>1990.477</ele>
        <time>2021-08-06T08:05:56Z</time>
      </trkpt>
      <trkpt lat="42.63528" lon="1.72203">
        <ele>1991.292</ele>
        <time>2021-08-06T08:05:58Z</time>
      </trkpt>
      <trkpt lat="42.63528" lon="1.72205">
        <ele>1990.396</ele>
        <time>2021-08-06T08:06:00Z</time>
      </trkpt>
      <trkpt lat="42.63528" lon="1.72207">
        <ele>1989.58</ele>
        <time>2021-08-06T08:06:02Z</time>
      </trkpt>
      <trkpt lat="42.63527" lon="1.72208">
        <ele>1989.376</ele>
        <time>2021-08-06T08:06:04Z</time>
      </trkpt>
      <trkpt lat="42.63526" lon="1.7221">
        <ele>1989.431</ele>
        <time>2021-08-06T08:06:06Z</time>
      </trkpt>
      <trkpt lat="42.63526" lon="1.72211">
        <ele>1989.677</ele>
        <time>2021-08-06T08:06:08Z</time>
      </trkpt>
      <trkpt lat="42.63526" lon="1.72212">
        <ele>1989.025</ele>
        <time>2021-08-06T08:06:10Z</time>
      </trkpt>
      <trkpt lat="42.63525" lon="1.72213">
        <ele>1990.019</ele>
        <time>2021-08-06T08:06:12Z</time>
      </trkpt>
      <trkpt lat="42.63524" lon="1.72214">
        <ele>1990.323</ele>
        <time>2021-08-06T08:06:14Z</time>
      </trkpt>
      <trkpt lat="42.63523" lon="1.72215">
        <ele>1990.253</ele>
        <time>2021-08-06T08:06:16Z</time>
      </trkpt>
      <trkpt lat="42.63523" lon="1.72217">
        <ele>1991.218</ele>
        <time>2021-08-06T08:06:18Z</time>
      </trkpt>
      <trkpt lat="42.63523" lon="1.72218">
        <ele>1991.878</ele>
        <time>2021-08-06T08:06:20Z</time>
      </trkpt>
      <trkpt lat="42.63523" lon="1.7222">
        <ele>1992.407</ele>
        <time>2021-08-06T08:06:22Z</time>
      </trkpt>
      <trkpt lat="42.63522" lon="1.72222">
        <ele>1993.304</ele>
        <time>2021-08-06T08:06:24Z</time>
      </trkpt>
      <trkpt lat="42.63522" lon="1.72223">
        <ele>1993.411</ele>
        <time>2021-08-06T08:06:26Z</time>
      </trkpt>
      <trkpt lat="42.63521" lon="1.72224">
        <ele>1993.779</ele>
        <time>2021-08-06T08:06:28Z</time>
      </trkpt>
      <trkpt lat="42.63521" lon="1.72225">
        <ele>1993.91</ele>
        <time>2021-08-06T08:06:30Z</time>
      </trkpt>
      <trkpt lat="42.6352" lon="1.72226">
        <ele>1993.682</ele>
        <time>2021-08-06T08:06:32Z</time>
      </trkpt>
      <trkpt lat="42.6352" lon="1.72227">
        <ele>1993.536</ele>
        <time>2021-08-06T08:06:34Z</time>
      </trkpt>
      <trkpt lat="42.63519" lon="1.72228">
        <ele>1993.77</ele>
        <time>2021-08-06T08:06:36Z</time>
      </trkpt>
      <trkpt lat="42.63518" lon="1.72229">
        <ele>1995.008</ele>
        <time>2021-08-06T08:06:38Z</time>
      </trkpt>
      <trkpt lat="42.63517" lon="1.7223">
        <ele>1995.186</ele>
        <time>2021-08-06T08:06:40Z</time>
      </trkpt>
      <trkpt lat="42.63516" lon="1.72231">
        <ele>1994.684</ele>
        <time>2021-08-06T08:06:42Z</time>
      </trkpt>
      <trkpt lat="42.63515" lon="1.72233">
        <ele>1994.272</ele>
        <time>2021-08-06T08:06:44Z</time>
      </trkpt>
      <trkpt lat="42.63514" lon="1.72235">
        <ele>1994.711</ele>
        <time>2021-08-06T08:06:46Z</time>
      </trkpt>
      <trkpt lat="42.63514" lon="1.72236">
        <ele>1994.644</ele>
        <time>2021-08-06T08:06:47Z</time>
      </trkpt>
      <trkpt lat="42.63513" lon="1.72239">
        <ele>1994.123</ele>
        <time>2021-08-06T08:06:50Z</time>
      </trkpt>
      <trkpt lat="42.63512" lon="1.72241">
        <ele>1994.182</ele>
        <time>2021-08-06T08:06:52Z</time>
      </trkpt>
      <trkpt lat="42.63511" lon="1.72243">
        <ele>1994.755</ele>
        <time>2021-08-06T08:06:54Z</time>
      </trkpt>
      <trkpt lat="42.63509" lon="1.72244">
        <ele>1993.616</ele>
        <time>2021-08-06T08:06:56Z</time>
      </trkpt>
      <trkpt lat="42.63507" lon="1.72245">
        <ele>1994.603</ele>
        <time>2021-08-06T08:06:58Z</time>
      </trkpt>
      <trkpt lat="42.63506" lon="1.72245">
        <ele>1995.132</ele>
        <time>2021-08-06T08:07:00Z</time>
      </trkpt>
      <trkpt lat="42.63505" lon="1.72247">
        <ele>1995.829</ele>
        <time>2021-08-06T08:07:02Z</time>
      </trkpt>
      <trkpt lat="42.63504" lon="1.72248">
        <ele>1995.69</ele>
        <time>2021-08-06T08:07:04Z</time>
      </trkpt>
      <trkpt lat="42.63503" lon="1.72251">
        <ele>1996.37</ele>
        <time>2021-08-06T08:07:06Z</time>
      </trkpt>
      <trkpt lat="42.63502" lon="1.72252">
        <ele>1996.86</ele>
        <time>2021-08-06T08:07:08Z</time>
      </trkpt>
      <trkpt lat="42.63502" lon="1.72254">
        <ele>1996.966</ele>
        <time>2021-08-06T08:07:10Z</time>
      </trkpt>
      <trkpt lat="42.63502" lon="1.72255">
        <ele>1997.302</ele>
        <time>2021-08-06T08:07:12Z</time>
      </trkpt>
      <trkpt lat="42.63502" lon="1.72256">
        <ele>1996.586</ele>
        <time>2021-08-06T08:07:14Z</time>
      </trkpt>
      <trkpt lat="42.635" lon="1.72257">
        <ele>1996.701</ele>
        <time>2021-08-06T08:07:16Z</time>
      </trkpt>
      <trkpt lat="42.63499" lon="1.72259">
        <ele>1997.621</ele>
        <time>2021-08-06T08:07:18Z</time>
      </trkpt>
      <trkpt lat="42.63498" lon="1.72261">
        <ele>1996.8</ele>
        <time>2021-08-06T08:07:20Z</time>
      </trkpt>
      <trkpt lat="42.63497" lon="1.72262">
        <ele>1996.3</ele>
        <time>2021-08-06T08:07:22Z</time>
      </trkpt>
      <trkpt lat="42.63497" lon="1.72264">
        <ele>1997.345</ele>
        <time>2021-08-06T08:07:24Z</time>
      </trkpt>
      <trkpt lat="42.63495" lon="1.72265">
        <ele>1997.006</ele>
        <time>2021-08-06T08:07:26Z</time>
      </trkpt>
      <trkpt lat="42.63493" lon="1.72267">
        <ele>1996.832</ele>
        <time>2021-08-06T08:07:28Z</time>
      </trkpt>
      <trkpt lat="42.63492" lon="1.72269">
        <ele>1997.356</ele>
        <time>2021-08-06T08:07:30Z</time>
      </trkpt>
      <trkpt lat="42.63492" lon="1.72272">
        <ele>1996.998</ele>
        <time>2021-08-06T08:07:32Z</time>
      </trkpt>
      <trkpt lat="42.6349" lon="1.72274">
        <ele>1997.319</ele>
        <time>2021-08-06T08:07:34Z</time>
      </trkpt>
      <trkpt lat="42.63489" lon="1.72276">
        <ele>1997.836</ele>
        <time>2021-08-06T08:07:36Z</time>
      </trkpt>
      <trkpt lat="42.63488" lon="1.7228">
        <ele>1998.533</ele>
        <time>2021-08-06T08:07:38Z</time>
      </trkpt>
      <trkpt lat="42.63487" lon="1.72283">
        <ele>1996.11</ele>
        <time>2021-08-06T08:07:40Z</time>
      </trkpt>
      <trkpt lat="42.63487" lon="1.72285">
        <ele>1994.304</ele>
        <time>2021-08-06T08:07:42Z</time>
      </trkpt>
      <trkpt lat="42.63485" lon="1.72288">
        <ele>1995.039</ele>
        <time>2021-08-06T08:07:44Z</time>
      </trkpt>
      <trkpt lat="42.63484" lon="1.72289">
        <ele>1996.116</ele>
        <time>2021-08-06T08:07:46Z</time>
      </trkpt>
      <trkpt lat="42.63483" lon="1.7229">
        <ele>1996.247</ele>
        <time>2021-08-06T08:07:48Z</time>
      </trkpt>
      <trkpt lat="42.63482" lon="1.72292">
        <ele>1996.627</ele>
        <time>2021-08-06T08:07:50Z</time>
      </trkpt>
      <trkpt lat="42.63482" lon="1.72294">
        <ele>1995.97</ele>
        <time>2021-08-06T08:07:52Z</time>
      </trkpt>
      <trkpt lat="42.63481" lon="1.72294">
        <ele>1998.27</ele>
        <time>2021-08-06T08:07:54Z</time>
      </trkpt>
      <trkpt lat="42.63481" lon="1.72296">
        <ele>1997.93</ele>
        <time>2021-08-06T08:07:56Z</time>
      </trkpt>
      <trkpt lat="42.6348" lon="1.72296">
        <ele>1998.663</ele>
        <time>2021-08-06T08:07:58Z</time>
      </trkpt>
      <trkpt lat="42.63478" lon="1.72298">
        <ele>1998.315</ele>
        <time>2021-08-06T08:08:00Z</time>
      </trkpt>
      <trkpt lat="42.63477" lon="1.72298">
        <ele>1998.063</ele>
        <time>2021-08-06T08:08:02Z</time>
      </trkpt>
      <trkpt lat="42.63476" lon="1.72299">
        <ele>1998.209</ele>
        <time>2021-08-06T08:08:04Z</time>
      </trkpt>
      <trkpt lat="42.63474" lon="1.723">
        <ele>1998.098</ele>
        <time>2021-08-06T08:08:06Z</time>
      </trkpt>
      <trkpt lat="42.63473" lon="1.72301">
        <ele>1998.96</ele>
        <time>2021-08-06T08:08:08Z</time>
      </trkpt>
      <trkpt lat="42.63473" lon="1.72303">
        <ele>1999.347</ele>
        <time>2021-08-06T08:08:10Z</time>
      </trkpt>
      <trkpt lat="42.63472" lon="1.72304">
        <ele>2000.942</ele>
        <time>2021-08-06T08:08:12Z</time>
      </trkpt>
      <trkpt lat="42.63471" lon="1.72305">
        <ele>2002.795</ele>
        <time>2021-08-06T08:08:14Z</time>
      </trkpt>
      <trkpt lat="42.6347" lon="1.72306">
        <ele>2003.575</ele>
        <time>2021-08-06T08:08:16Z</time>
      </trkpt>
      <trkpt lat="42.63469" lon="1.72307">
        <ele>2003.708</ele>
        <time>2021-08-06T08:08:18Z</time>
      </trkpt>
      <trkpt lat="42.63468" lon="1.72308">
        <ele>2003.76</ele>
        <time>2021-08-06T08:08:20Z</time>
      </trkpt>
      <trkpt lat="42.63466" lon="1.72309">
        <ele>2004.658</ele>
        <time>2021-08-06T08:08:22Z</time>
      </trkpt>
      <trkpt lat="42.63465" lon="1.7231">
        <ele>2004.394</ele>
        <time>2021-08-06T08:08:24Z</time>
      </trkpt>
      <trkpt lat="42.63465" lon="1.72312">
        <ele>2005.298</ele>
        <time>2021-08-06T08:08:26Z</time>
      </trkpt>
      <trkpt lat="42.63464" lon="1.72314">
        <ele>2006.161</ele>
        <time>2021-08-06T08:08:28Z</time>
      </trkpt>
      <trkpt lat="42.63464" lon="1.72316">
        <ele>2007.421</ele>
        <time>2021-08-06T08:08:30Z</time>
      </trkpt>
      <trkpt lat="42.63462" lon="1.72316">
        <ele>2008.118</ele>
        <time>2021-08-06T08:08:32Z</time>
      </trkpt>
      <trkpt lat="42.63461" lon="1.72317">
        <ele>2008.939</ele>
        <time>2021-08-06T08:08:34Z</time>
      </trkpt>
      <trkpt lat="42.6346" lon="1.72318">
        <ele>2009.922</ele>
        <time>2021-08-06T08:08:36Z</time>
      </trkpt>
      <trkpt lat="42.63459" lon="1.72319">
        <ele>2010.147</ele>
        <time>2021-08-06T08:08:38Z</time>
      </trkpt>
      <trkpt lat="42.63458" lon="1.72319">
        <ele>2011.727</ele>
        <time>2021-08-06T08:08:40Z</time>
      </trkpt>
      <trkpt lat="42.63458" lon="1.7232">
        <ele>2012.357</ele>
        <time>2021-08-06T08:08:42Z</time>
      </trkpt>
      <trkpt lat="42.63456" lon="1.72321">
        <ele>2013.377</ele>
        <time>2021-08-06T08:08:44Z</time>
      </trkpt>
      <trkpt lat="42.63456" lon="1.72322">
        <ele>2014.143</ele>
        <time>2021-08-06T08:08:46Z</time>
      </trkpt>
      <trkpt lat="42.63455" lon="1.72323">
        <ele>2015.149</ele>
        <time>2021-08-06T08:08:48Z</time>
      </trkpt>
      <trkpt lat="42.63454" lon="1.72324">
        <ele>2015.387</ele>
        <time>2021-08-06T08:08:50Z</time>
      </trkpt>
      <trkpt lat="42.63453" lon="1.72325">
        <ele>2015.078</ele>
        <time>2021-08-06T08:08:52Z</time>
      </trkpt>
      <trkpt lat="42.63451" lon="1.72326">
        <ele>2015.085</ele>
        <time>2021-08-06T08:08:54Z</time>
      </trkpt>
      <trkpt lat="42.6345" lon="1.72326">
        <ele>2016.135</ele>
        <time>2021-08-06T08:08:56Z</time>
      </trkpt>
      <trkpt lat="42.63449" lon="1.72328">
        <ele>2016.334</ele>
        <time>2021-08-06T08:08:58Z</time>
      </trkpt>
      <trkpt lat="42.63448" lon="1.72329">
        <ele>2016.462</ele>
        <time>2021-08-06T08:09:00Z</time>
      </trkpt>
      <trkpt lat="42.63446" lon="1.7233">
        <ele>2016.266</ele>
        <time>2021-08-06T08:09:02Z</time>
      </trkpt>
      <trkpt lat="42.63444" lon="1.72331">
        <ele>2015.721</ele>
        <time>2021-08-06T08:09:04Z</time>
      </trkpt>
      <trkpt lat="42.63442" lon="1.72333">
        <ele>2015.684</ele>
        <time>2021-08-06T08:09:06Z</time>
      </trkpt>
      <trkpt lat="42.63441" lon="1.72334">
        <ele>2014.983</ele>
        <time>2021-08-06T08:09:08Z</time>
      </trkpt>
      <trkpt lat="42.63439" lon="1.72335">
        <ele>2015.56</ele>
        <time>2021-08-06T08:09:10Z</time>
      </trkpt>
      <trkpt lat="42.63437" lon="1.72337">
        <ele>2015.878</ele>
        <time>2021-08-06T08:09:12Z</time>
      </trkpt>
      <trkpt lat="42.63435" lon="1.72338">
        <ele>2016.353</ele>
        <time>2021-08-06T08:09:14Z</time>
      </trkpt>
      <trkpt lat="42.63433" lon="1.72339">
        <ele>2016.003</ele>
        <time>2021-08-06T08:09:16Z</time>
      </trkpt>
      <trkpt lat="42.6343" lon="1.7234">
        <ele>2016.155</ele>
        <time>2021-08-06T08:09:18Z</time>
      </trkpt>
      <trkpt lat="42.63428" lon="1.72341">
        <ele>2015.443</ele>
        <time>2021-08-06T08:09:20Z</time>
      </trkpt>
      <trkpt lat="42.63427" lon="1.72343">
        <ele>2015.14</ele>
        <time>2021-08-06T08:09:22Z</time>
      </trkpt>
      <trkpt lat="42.63426" lon="1.72345">
        <ele>2014.734</ele>
        <time>2021-08-06T08:09:24Z</time>
      </trkpt>
      <trkpt lat="42.63424" lon="1.72347">
        <ele>2015.402</ele>
        <time>2021-08-06T08:09:26Z</time>
      </trkpt>
      <trkpt lat="42.63423" lon="1.7235">
        <ele>2014.94</ele>
        <time>2021-08-06T08:09:28Z</time>
      </trkpt>
      <trkpt lat="42.63423" lon="1.72352">
        <ele>2015.247</ele>
        <time>2021-08-06T08:09:30Z</time>
      </trkpt>
      <trkpt lat="42.63421" lon="1.72354">
        <ele>2014.507</ele>
        <time>2021-08-06T08:09:32Z</time>
      </trkpt>
      <trkpt lat="42.63421" lon="1.72357">
        <ele>2013.809</ele>
        <time>2021-08-06T08:09:34Z</time>
      </trkpt>
      <trkpt lat="42.6342" lon="1.72359">
        <ele>2013.833</ele>
        <time>2021-08-06T08:09:36Z</time>
      </trkpt>
      <trkpt lat="42.63419" lon="1.72361">
        <ele>2014.176</ele>
        <time>2021-08-06T08:09:38Z</time>
      </trkpt>
      <trkpt lat="42.63417" lon="1.72363">
        <ele>2014.303</ele>
        <time>2021-08-06T08:09:40Z</time>
      </trkpt>
      <trkpt lat="42.63416" lon="1.72364">
        <ele>2015.503</ele>
        <time>2021-08-06T08:09:42Z</time>
      </trkpt>
      <trkpt lat="42.63414" lon="1.72366">
        <ele>2015.72</ele>
        <time>2021-08-06T08:09:44Z</time>
      </trkpt>
      <trkpt lat="42.63412" lon="1.72367">
        <ele>2016.361</ele>
        <time>2021-08-06T08:09:46Z</time>
      </trkpt>
      <trkpt lat="42.63411" lon="1.72368">
        <ele>2016.654</ele>
        <time>2021-08-06T08:09:48Z</time>
      </trkpt>
      <trkpt lat="42.63409" lon="1.72369">
        <ele>2015.956</ele>
        <time>2021-08-06T08:09:50Z</time>
      </trkpt>
      <trkpt lat="42.63408" lon="1.72369">
        <ele>2016.034</ele>
        <time>2021-08-06T08:09:52Z</time>
      </trkpt>
      <trkpt lat="42.63406" lon="1.72369">
        <ele>2016.594</ele>
        <time>2021-08-06T08:09:54Z</time>
      </trkpt>
      <trkpt lat="42.63405" lon="1.7237">
        <ele>2016.413</ele>
        <time>2021-08-06T08:09:56Z</time>
      </trkpt>
      <trkpt lat="42.63403" lon="1.7237">
        <ele>2015.848</ele>
        <time>2021-08-06T08:09:58Z</time>
      </trkpt>
      <trkpt lat="42.63402" lon="1.7237">
        <ele>2015.584</ele>
        <time>2021-08-06T08:10:00Z</time>
      </trkpt>
      <trkpt lat="42.634" lon="1.72369">
        <ele>2015.435</ele>
        <time>2021-08-06T08:10:02Z</time>
      </trkpt>
      <trkpt lat="42.63399" lon="1.72369">
        <ele>2015.34</ele>
        <time>2021-08-06T08:10:04Z</time>
      </trkpt>
      <trkpt lat="42.63398" lon="1.72371">
        <ele>2015.676</ele>
        <time>2021-08-06T08:10:06Z</time>
      </trkpt>
      <trkpt lat="42.63397" lon="1.72373">
        <ele>2014.821</ele>
        <time>2021-08-06T08:10:08Z</time>
      </trkpt>
      <trkpt lat="42.63396" lon="1.72373">
        <ele>2015.67</ele>
        <time>2021-08-06T08:10:10Z</time>
      </trkpt>
      <trkpt lat="42.63393" lon="1.72372">
        <ele>2014.807</ele>
        <time>2021-08-06T08:10:12Z</time>
      </trkpt>
      <trkpt lat="42.63389" lon="1.72371">
        <ele>2013.907</ele>
        <time>2021-08-06T08:10:14Z</time>
      </trkpt>
      <trkpt lat="42.63385" lon="1.72369">
        <ele>2012.234</ele>
        <time>2021-08-06T08:10:16Z</time>
      </trkpt>
      <trkpt lat="42.63384" lon="1.72369">
        <ele>2012.549</ele>
        <time>2021-08-06T08:10:18Z</time>
      </trkpt>
      <trkpt lat="42.63383" lon="1.7237">
        <ele>2012.194</ele>
        <time>2021-08-06T08:10:20Z</time>
      </trkpt>
      <trkpt lat="42.63381" lon="1.7237">
        <ele>2011.188</ele>
        <time>2021-08-06T08:10:22Z</time>
      </trkpt>
      <trkpt lat="42.63379" lon="1.72369">
        <ele>2011.4</ele>
        <time>2021-08-06T08:10:24Z</time>
      </trkpt>
      <trkpt lat="42.63378" lon="1.72368">
        <ele>2010.999</ele>
        <time>2021-08-06T08:10:26Z</time>
      </trkpt>
      <trkpt lat="42.63376" lon="1.72368">
        <ele>2010.721</ele>
        <time>2021-08-06T08:10:28Z</time>
      </trkpt>
      <trkpt lat="42.63375" lon="1.72368">
        <ele>2009.891</ele>
        <time>2021-08-06T08:10:30Z</time>
      </trkpt>
      <trkpt lat="42.63375" lon="1.72367">
        <ele>2010.179</ele>
        <time>2021-08-06T08:10:32Z</time>
      </trkpt>
      <trkpt lat="42.63375" lon="1.72367">
        <ele>2010.6</ele>
        <time>2021-08-06T08:10:34Z</time>
      </trkpt>
      <trkpt lat="42.63376" lon="1.72367">
        <ele>2010.584</ele>
        <time>2021-08-06T08:10:36Z</time>
      </trkpt>
      <trkpt lat="42.63375" lon="1.72367">
        <ele>2010.671</ele>
        <time>2021-08-06T08:10:38Z</time>
      </trkpt>
      <trkpt lat="42.63373" lon="1.72368">
        <ele>2009.513</ele>
        <time>2021-08-06T08:10:40Z</time>
      </trkpt>
      <trkpt lat="42.63372" lon="1.7237">
        <ele>2009.655</ele>
        <time>2021-08-06T08:10:42Z</time>
      </trkpt>
      <trkpt lat="42.6337" lon="1.7237">
        <ele>2009.888</ele>
        <time>2021-08-06T08:10:44Z</time>
      </trkpt>
      <trkpt lat="42.63369" lon="1.72372">
        <ele>2010.751</ele>
        <time>2021-08-06T08:10:46Z</time>
      </trkpt>
      <trkpt lat="42.63368" lon="1.72374">
        <ele>2011.216</ele>
        <time>2021-08-06T08:10:48Z</time>
      </trkpt>
      <trkpt lat="42.63367" lon="1.72374">
        <ele>2011.879</ele>
        <time>2021-08-06T08:10:50Z</time>
      </trkpt>
      <trkpt lat="42.63366" lon="1.72373">
        <ele>2012.025</ele>
        <time>2021-08-06T08:10:52Z</time>
      </trkpt>
      <trkpt lat="42.63364" lon="1.72372">
        <ele>2012.886</ele>
        <time>2021-08-06T08:10:54Z</time>
      </trkpt>
      <trkpt lat="42.63364" lon="1.72371">
        <ele>2012.855</ele>
        <time>2021-08-06T08:10:56Z</time>
      </trkpt>
      <trkpt lat="42.63363" lon="1.72371">
        <ele>2013.273</ele>
        <time>2021-08-06T08:10:58Z</time>
      </trkpt>
      <trkpt lat="42.63362" lon="1.72371">
        <ele>2013.142</ele>
        <time>2021-08-06T08:11:00Z</time>
      </trkpt>
      <trkpt lat="42.63361" lon="1.72372">
        <ele>2012.975</ele>
        <time>2021-08-06T08:11:02Z</time>
      </trkpt>
      <trkpt lat="42.63359" lon="1.72372">
        <ele>2013.084</ele>
        <time>2021-08-06T08:11:04Z</time>
      </trkpt>
      <trkpt lat="42.63358" lon="1.72372">
        <ele>2012.739</ele>
        <time>2021-08-06T08:11:06Z</time>
      </trkpt>
      <trkpt lat="42.63356" lon="1.72373">
        <ele>2013.075</ele>
        <time>2021-08-06T08:11:08Z</time>
      </trkpt>
      <trkpt lat="42.63354" lon="1.72375">
        <ele>2013.45</ele>
        <time>2021-08-06T08:11:10Z</time>
      </trkpt>
      <trkpt lat="42.63353" lon="1.72377">
        <ele>2013.188</ele>
        <time>2021-08-06T08:11:12Z</time>
      </trkpt>
      <trkpt lat="42.63352" lon="1.72378">
        <ele>2012.999</ele>
        <time>2021-08-06T08:11:14Z</time>
      </trkpt>
      <trkpt lat="42.6335" lon="1.7238">
        <ele>2012.574</ele>
        <time>2021-08-06T08:11:16Z</time>
      </trkpt>
      <trkpt lat="42.63348" lon="1.72382">
        <ele>2013.26</ele>
        <time>2021-08-06T08:11:18Z</time>
      </trkpt>
      <trkpt lat="42.63346" lon="1.72383">
        <ele>2014.324</ele>
        <time>2021-08-06T08:11:20Z</time>
      </trkpt>
      <trkpt lat="42.63345" lon="1.72384">
        <ele>2015.087</ele>
        <time>2021-08-06T08:11:22Z</time>
      </trkpt>
      <trkpt lat="42.63344" lon="1.72385">
        <ele>2016.04</ele>
        <time>2021-08-06T08:11:24Z</time>
      </trkpt>
      <trkpt lat="42.63342" lon="1.72385">
        <ele>2017.119</ele>
        <time>2021-08-06T08:11:26Z</time>
      </trkpt>
      <trkpt lat="42.63341" lon="1.72385">
        <ele>2016.98</ele>
        <time>2021-08-06T08:11:28Z</time>
      </trkpt>
      <trkpt lat="42.6334" lon="1.72386">
        <ele>2017.407</ele>
        <time>2021-08-06T08:11:30Z</time>
      </trkpt>
      <trkpt lat="42.63339" lon="1.72387">
        <ele>2017.623</ele>
        <time>2021-08-06T08:11:32Z</time>
      </trkpt>
      <trkpt lat="42.63338" lon="1.72388">
        <ele>2017.494</ele>
        <time>2021-08-06T08:11:34Z</time>
      </trkpt>
      <trkpt lat="42.63337" lon="1.72388">
        <ele>2018.087</ele>
        <time>2021-08-06T08:11:36Z</time>
      </trkpt>
      <trkpt lat="42.63336" lon="1.72387">
        <ele>2018.855</ele>
        <time>2021-08-06T08:11:38Z</time>
      </trkpt>
      <trkpt lat="42.63334" lon="1.72387">
        <ele>2019.09</ele>
        <time>2021-08-06T08:11:40Z</time>
      </trkpt>
      <trkpt lat="42.63333" lon="1.72387">
        <ele>2019.19</ele>
        <time>2021-08-06T08:11:42Z</time>
      </trkpt>
      <trkpt lat="42.63332" lon="1.72386">
        <ele>2020.112</ele>
        <time>2021-08-06T08:11:44Z</time>
      </trkpt>
      <trkpt lat="42.63331" lon="1.72385">
        <ele>2020.143</ele>
        <time>2021-08-06T08:11:46Z</time>
      </trkpt>
      <trkpt lat="42.6333" lon="1.72384">
        <ele>2020.334</ele>
        <time>2021-08-06T08:11:48Z</time>
      </trkpt>
      <trkpt lat="42.63329" lon="1.72384">
        <ele>2020.374</ele>
        <time>2021-08-06T08:11:50Z</time>
      </trkpt>
      <trkpt lat="42.63327" lon="1.72383">
        <ele>2021.832</ele>
        <time>2021-08-06T08:11:52Z</time>
      </trkpt>
      <trkpt lat="42.63326" lon="1.72383">
        <ele>2022.899</ele>
        <time>2021-08-06T08:11:54Z</time>
      </trkpt>
      <trkpt lat="42.63325" lon="1.72384">
        <ele>2022.118</ele>
        <time>2021-08-06T08:11:56Z</time>
      </trkpt>
      <trkpt lat="42.63324" lon="1.72383">
        <ele>2022.222</ele>
        <time>2021-08-06T08:11:58Z</time>
      </trkpt>
      <trkpt lat="42.63322" lon="1.72383">
        <ele>2022.53</ele>
        <time>2021-08-06T08:12:00Z</time>
      </trkpt>
      <trkpt lat="42.63321" lon="1.72383">
        <ele>2022.447</ele>
        <time>2021-08-06T08:12:02Z</time>
      </trkpt>
      <trkpt lat="42.6332" lon="1.72383">
        <ele>2022.672</ele>
        <time>2021-08-06T08:12:04Z</time>
      </trkpt>
      <trkpt lat="42.63319" lon="1.72382">
        <ele>2023.222</ele>
        <time>2021-08-06T08:12:06Z</time>
      </trkpt>
      <trkpt lat="42.63318" lon="1.72381">
        <ele>2023.441</ele>
        <time>2021-08-06T08:12:08Z</time>
      </trkpt>
      <trkpt lat="42.63317" lon="1.7238">
        <ele>2023.332</ele>
        <time>2021-08-06T08:12:10Z</time>
      </trkpt>
      <trkpt lat="42.63316" lon="1.7238">
        <ele>2023.258</ele>
        <time>2021-08-06T08:12:12Z</time>
      </trkpt>
      <trkpt lat="42.63315" lon="1.72381">
        <ele>2023.216</ele>
        <time>2021-08-06T08:12:14Z</time>
      </trkpt>
      <trkpt lat="42.63314" lon="1.72382">
        <ele>2022.906</ele>
        <time>2021-08-06T08:12:16Z</time>
      </trkpt>
      <trkpt lat="42.63313" lon="1.72382">
        <ele>2022.74</ele>
        <time>2021-08-06T08:12:18Z</time>
      </trkpt>
      <trkpt lat="42.63311" lon="1.72381">
        <ele>2022.583</ele>
        <time>2021-08-06T08:12:20Z</time>
      </trkpt>
      <trkpt lat="42.6331" lon="1.72381">
        <ele>2023.619</ele>
        <time>2021-08-06T08:12:22Z</time>
      </trkpt>
      <trkpt lat="42.63309" lon="1.72381">
        <ele>2024.522</ele>
        <time>2021-08-06T08:12:24Z</time>
      </trkpt>
      <trkpt lat="42.63308" lon="1.72381">
        <ele>2025.251</ele>
        <time>2021-08-06T08:12:26Z</time>
      </trkpt>
      <trkpt lat="42.63306" lon="1.72381">
        <ele>2025.42</ele>
        <time>2021-08-06T08:12:28Z</time>
      </trkpt>
      <trkpt lat="42.63305" lon="1.72381">
        <ele>2026.118</ele>
        <time>2021-08-06T08:12:30Z</time>
      </trkpt>
      <trkpt lat="42.63304" lon="1.72381">
        <ele>2026.385</ele>
        <time>2021-08-06T08:12:32Z</time>
      </trkpt>
      <trkpt lat="42.63303" lon="1.7238">
        <ele>2026.719</ele>
        <time>2021-08-06T08:12:34Z</time>
      </trkpt>
      <trkpt lat="42.63301" lon="1.7238">
        <ele>2026.976</ele>
        <time>2021-08-06T08:12:36Z</time>
      </trkpt>
      <trkpt lat="42.633" lon="1.7238">
        <ele>2027.401</ele>
        <time>2021-08-06T08:12:38Z</time>
      </trkpt>
      <trkpt lat="42.63298" lon="1.72379">
        <ele>2027.744</ele>
        <time>2021-08-06T08:12:40Z</time>
      </trkpt>
      <trkpt lat="42.63296" lon="1.7238">
        <ele>2027.454</ele>
        <time>2021-08-06T08:12:42Z</time>
      </trkpt>
      <trkpt lat="42.63295" lon="1.72381">
        <ele>2029.127</ele>
        <time>2021-08-06T08:12:44Z</time>
      </trkpt>
      <trkpt lat="42.63294" lon="1.72381">
        <ele>2029.255</ele>
        <time>2021-08-06T08:12:46Z</time>
      </trkpt>
      <trkpt lat="42.63292" lon="1.72382">
        <ele>2029.783</ele>
        <time>2021-08-06T08:12:48Z</time>
      </trkpt>
      <trkpt lat="42.63291" lon="1.72383">
        <ele>2029.968</ele>
        <time>2021-08-06T08:12:50Z</time>
      </trkpt>
      <trkpt lat="42.6329" lon="1.72384">
        <ele>2030.123</ele>
        <time>2021-08-06T08:12:52Z</time>
      </trkpt>
      <trkpt lat="42.63289" lon="1.72386">
        <ele>2030.455</ele>
        <time>2021-08-06T08:12:54Z</time>
      </trkpt>
      <trkpt lat="42.63289" lon="1.72388">
        <ele>2030.711</ele>
        <time>2021-08-06T08:12:56Z</time>
      </trkpt>
      <trkpt lat="42.63288" lon="1.7239">
        <ele>2030.726</ele>
        <time>2021-08-06T08:12:58Z</time>
      </trkpt>
      <trkpt lat="42.63287" lon="1.72392">
        <ele>2030.39</ele>
        <time>2021-08-06T08:13:00Z</time>
      </trkpt>
      <trkpt lat="42.63286" lon="1.72393">
        <ele>2030.266</ele>
        <time>2021-08-06T08:13:02Z</time>
      </trkpt>
      <trkpt lat="42.63285" lon="1.72395">
        <ele>2030.399</ele>
        <time>2021-08-06T08:13:04Z</time>
      </trkpt>
      <trkpt lat="42.63285" lon="1.72397">
        <ele>2030.199</ele>
        <time>2021-08-06T08:13:06Z</time>
      </trkpt>
      <trkpt lat="42.63284" lon="1.72398">
        <ele>2030.557</ele>
        <time>2021-08-06T08:13:08Z</time>
      </trkpt>
      <trkpt lat="42.63283" lon="1.724">
        <ele>2030.262</ele>
        <time>2021-08-06T08:13:10Z</time>
      </trkpt>
      <trkpt lat="42.63282" lon="1.72401">
        <ele>2030.117</ele>
        <time>2021-08-06T08:13:12Z</time>
      </trkpt>
      <trkpt lat="42.63281" lon="1.72403">
        <ele>2030.37</ele>
        <time>2021-08-06T08:13:14Z</time>
      </trkpt>
      <trkpt lat="42.6328" lon="1.72405">
        <ele>2030.997</ele>
        <time>2021-08-06T08:13:16Z</time>
      </trkpt>
      <trkpt lat="42.63279" lon="1.72406">
        <ele>2030.954</ele>
        <time>2021-08-06T08:13:18Z</time>
      </trkpt>
      <trkpt lat="42.63278" lon="1.72408">
        <ele>2031.207</ele>
        <time>2021-08-06T08:13:20Z</time>
      </trkpt>
      <trkpt lat="42.63278" lon="1.7241">
        <ele>2031.17</ele>
        <time>2021-08-06T08:13:22Z</time>
      </trkpt>
      <trkpt lat="42.63278" lon="1.72411">
        <ele>2031.314</ele>
        <time>2021-08-06T08:13:24Z</time>
      </trkpt>
      <trkpt lat="42.63277" lon="1.72413">
        <ele>2031.388</ele>
        <time>2021-08-06T08:13:26Z</time>
      </trkpt>
      <trkpt lat="42.63276" lon="1.72414">
        <ele>2031.988</ele>
        <time>2021-08-06T08:13:28Z</time>
      </trkpt>
      <trkpt lat="42.63276" lon="1.72415">
        <ele>2032.643</ele>
        <time>2021-08-06T08:13:30Z</time>
      </trkpt>
      <trkpt lat="42.63276" lon="1.72417">
        <ele>2032.721</ele>
        <time>2021-08-06T08:13:32Z</time>
      </trkpt>
      <trkpt lat="42.63275" lon="1.72418">
        <ele>2033.339</ele>
        <time>2021-08-06T08:13:34Z</time>
      </trkpt>
      <trkpt lat="42.63275" lon="1.7242">
        <ele>2033.622</ele>
        <time>2021-08-06T08:13:36Z</time>
      </trkpt>
      <trkpt lat="42.63274" lon="1.72421">
        <ele>2035.088</ele>
        <time>2021-08-06T08:13:38Z</time>
      </trkpt>
      <trkpt lat="42.63273" lon="1.72421">
        <ele>2035.241</ele>
        <time>2021-08-06T08:13:40Z</time>
      </trkpt>
      <trkpt lat="42.63272" lon="1.72422">
        <ele>2036.561</ele>
        <time>2021-08-06T08:13:42Z</time>
      </trkpt>
      <trkpt lat="42.63272" lon="1.72423">
        <ele>2037.238</ele>
        <time>2021-08-06T08:13:44Z</time>
      </trkpt>
      <trkpt lat="42.63271" lon="1.72424">
        <ele>2036.872</ele>
        <time>2021-08-06T08:13:46Z</time>
      </trkpt>
      <trkpt lat="42.6327" lon="1.72424">
        <ele>2036.938</ele>
        <time>2021-08-06T08:13:48Z</time>
      </trkpt>
      <trkpt lat="42.63269" lon="1.72424">
        <ele>2037.542</ele>
        <time>2021-08-06T08:13:50Z</time>
      </trkpt>
      <trkpt lat="42.63268" lon="1.72424">
        <ele>2038.217</ele>
        <time>2021-08-06T08:13:52Z</time>
      </trkpt>
      <trkpt lat="42.63267" lon="1.72424">
        <ele>2038.65</ele>
        <time>2021-08-06T08:13:54Z</time>
      </trkpt>
      <trkpt lat="42.63266" lon="1.72425">
        <ele>2038.081</ele>
        <time>2021-08-06T08:13:56Z</time>
      </trkpt>
      <trkpt lat="42.63266" lon="1.72426">
        <ele>2039.838</ele>
        <time>2021-08-06T08:13:58Z</time>
      </trkpt>
      <trkpt lat="42.63265" lon="1.72427">
        <ele>2039.744</ele>
        <time>2021-08-06T08:14:00Z</time>
      </trkpt>
      <trkpt lat="42.63264" lon="1.72427">
        <ele>2039.222</ele>
        <time>2021-08-06T08:14:02Z</time>
      </trkpt>
      <trkpt lat="42.63264" lon="1.72428">
        <ele>2039.265</ele>
        <time>2021-08-06T08:14:04Z</time>
      </trkpt>
      <trkpt lat="42.63264" lon="1.72429">
        <ele>2040.33</ele>
        <time>2021-08-06T08:14:06Z</time>
      </trkpt>
      <trkpt lat="42.63263" lon="1.72429">
        <ele>2040.401</ele>
        <time>2021-08-06T08:14:08Z</time>
      </trkpt>
      <trkpt lat="42.63262" lon="1.72429">
        <ele>2041.849</ele>
        <time>2021-08-06T08:14:10Z</time>
      </trkpt>
      <trkpt lat="42.63261" lon="1.7243">
        <ele>2041.853</ele>
        <time>2021-08-06T08:14:12Z</time>
      </trkpt>
      <trkpt lat="42.6326" lon="1.72431">
        <ele>2042.394</ele>
        <time>2021-08-06T08:14:14Z</time>
      </trkpt>
      <trkpt lat="42.63259" lon="1.72431">
        <ele>2042.141</ele>
        <time>2021-08-06T08:14:16Z</time>
      </trkpt>
      <trkpt lat="42.63258" lon="1.72431">
        <ele>2042.077</ele>
        <time>2021-08-06T08:14:18Z</time>
      </trkpt>
      <trkpt lat="42.63258" lon="1.72432">
        <ele>2042.261</ele>
        <time>2021-08-06T08:14:20Z</time>
      </trkpt>
      <trkpt lat="42.63257" lon="1.72432">
        <ele>2042.065</ele>
        <time>2021-08-06T08:14:22Z</time>
      </trkpt>
      <trkpt lat="42.63256" lon="1.72433">
        <ele>2042.375</ele>
        <time>2021-08-06T08:14:24Z</time>
      </trkpt>
      <trkpt lat="42.63255" lon="1.72434">
        <ele>2041.815</ele>
        <time>2021-08-06T08:14:26Z</time>
      </trkpt>
      <trkpt lat="42.63254" lon="1.72434">
        <ele>2042.681</ele>
        <time>2021-08-06T08:14:28Z</time>
      </trkpt>
      <trkpt lat="42.63253" lon="1.72435">
        <ele>2042.173</ele>
        <time>2021-08-06T08:14:30Z</time>
      </trkpt>
      <trkpt lat="42.63253" lon="1.72435">
        <ele>2042.047</ele>
        <time>2021-08-06T08:14:32Z</time>
      </trkpt>
      <trkpt lat="42.63252" lon="1.72436">
        <ele>2042.47</ele>
        <time>2021-08-06T08:14:34Z</time>
      </trkpt>
      <trkpt lat="42.63252" lon="1.72436">
        <ele>2042.474</ele>
        <time>2021-08-06T08:14:36Z</time>
      </trkpt>
      <trkpt lat="42.63251" lon="1.72436">
        <ele>2042.437</ele>
        <time>2021-08-06T08:14:38Z</time>
      </trkpt>
      <trkpt lat="42.63251" lon="1.72438">
        <ele>2041.736</ele>
        <time>2021-08-06T08:14:40Z</time>
      </trkpt>
      <trkpt lat="42.6325" lon="1.72439">
        <ele>2041.837</ele>
        <time>2021-08-06T08:14:42Z</time>
      </trkpt>
      <trkpt lat="42.63249" lon="1.7244">
        <ele>2042.174</ele>
        <time>2021-08-06T08:14:44Z</time>
      </trkpt>
      <trkpt lat="42.63249" lon="1.7244">
        <ele>2042.479</ele>
        <time>2021-08-06T08:14:46Z</time>
      </trkpt>
      <trkpt lat="42.63249" lon="1.72441">
        <ele>2042.64</ele>
        <time>2021-08-06T08:14:48Z</time>
      </trkpt>
      <trkpt lat="42.63249" lon="1.72441">
        <ele>2042.64</ele>
        <time>2021-08-06T08:14:50Z</time>
      </trkpt>
      <trkpt lat="42.63249" lon="1.72441">
        <ele>2043.896</ele>
        <time>2021-08-06T08:14:52Z</time>
      </trkpt>
      <trkpt lat="42.63249" lon="1.72442">
        <ele>2045.273</ele>
        <time>2021-08-06T08:14:54Z</time>
      </trkpt>
      <trkpt lat="42.63249" lon="1.72443">
        <ele>2046.397</ele>
        <time>2021-08-06T08:14:56Z</time>
      </trkpt>
      <trkpt lat="42.63249" lon="1.72444">
        <ele>2046.81</ele>
        <time>2021-08-06T08:14:58Z</time>
      </trkpt>
      <trkpt lat="42.63251" lon="1.72445">
        <ele>2046.946</ele>
        <time>2021-08-06T08:15:00Z</time>
      </trkpt>
      <trkpt lat="42.63252" lon="1.72445">
        <ele>2047.088</ele>
        <time>2021-08-06T08:15:02Z</time>
      </trkpt>
      <trkpt lat="42.63253" lon="1.72446">
        <ele>2046.73</ele>
        <time>2021-08-06T08:15:04Z</time>
      </trkpt>
      <trkpt lat="42.63253" lon="1.72447">
        <ele>2046.372</ele>
        <time>2021-08-06T08:15:06Z</time>
      </trkpt>
      <trkpt lat="42.63254" lon="1.72448">
        <ele>2046.444</ele>
        <time>2021-08-06T08:15:08Z</time>
      </trkpt>
      <trkpt lat="42.63254" lon="1.72448">
        <ele>2045.948</ele>
        <time>2021-08-06T08:15:10Z</time>
      </trkpt>
      <trkpt lat="42.63253" lon="1.72449">
        <ele>2045.229</ele>
        <time>2021-08-06T08:15:12Z</time>
      </trkpt>
      <trkpt lat="42.63253" lon="1.72449">
        <ele>2046.954</ele>
        <time>2021-08-06T08:15:14Z</time>
      </trkpt>
      <trkpt lat="42.63252" lon="1.72449">
        <ele>2047.332</ele>
        <time>2021-08-06T08:15:16Z</time>
      </trkpt>
      <trkpt lat="42.6325" lon="1.72449">
        <ele>2047.058</ele>
        <time>2021-08-06T08:15:18Z</time>
      </trkpt>
      <trkpt lat="42.63249" lon="1.7245">
        <ele>2047.56</ele>
        <time>2021-08-06T08:15:20Z</time>
      </trkpt>
      <trkpt lat="42.63248" lon="1.72451">
        <ele>2047.748</ele>
        <time>2021-08-06T08:15:22Z</time>
      </trkpt>
      <trkpt lat="42.63248" lon="1.7245">
        <ele>2048.776</ele>
        <time>2021-08-06T08:15:24Z</time>
      </trkpt>
      <trkpt lat="42.63247" lon="1.7245">
        <ele>2049.111</ele>
        <time>2021-08-06T08:15:26Z</time>
      </trkpt>
      <trkpt lat="42.63246" lon="1.72451">
        <ele>2048.874</ele>
        <time>2021-08-06T08:15:28Z</time>
      </trkpt>
      <trkpt lat="42.63246" lon="1.72452">
        <ele>2049.16</ele>
        <time>2021-08-06T08:15:30Z</time>
      </trkpt>
      <trkpt lat="42.63245" lon="1.72454">
        <ele>2049.351</ele>
        <time>2021-08-06T08:15:32Z</time>
      </trkpt>
      <trkpt lat="42.63246" lon="1.72454">
        <ele>2049.575</ele>
        <time>2021-08-06T08:15:34Z</time>
      </trkpt>
      <trkpt lat="42.63246" lon="1.72455">
        <ele>2050.224</ele>
        <time>2021-08-06T08:15:36Z</time>
      </trkpt>
      <trkpt lat="42.63245" lon="1.72455">
        <ele>2051.113</ele>
        <time>2021-08-06T08:15:38Z</time>
      </trkpt>
      <trkpt lat="42.63245" lon="1.72455">
        <ele>2051.582</ele>
        <time>2021-08-06T08:15:40Z</time>
      </trkpt>
      <trkpt lat="42.63244" lon="1.72456">
        <ele>2051.29</ele>
        <time>2021-08-06T08:15:42Z</time>
      </trkpt>
      <trkpt lat="42.63243" lon="1.72456">
        <ele>2052.125</ele>
        <time>2021-08-06T08:15:44Z</time>
      </trkpt>
      <trkpt lat="42.63241" lon="1.72456">
        <ele>2051.387</ele>
        <time>2021-08-06T08:15:46Z</time>
      </trkpt>
      <trkpt lat="42.6324" lon="1.72458">
        <ele>2051.271</ele>
        <time>2021-08-06T08:15:48Z</time>
      </trkpt>
      <trkpt lat="42.63239" lon="1.72458">
        <ele>2051.822</ele>
        <time>2021-08-06T08:15:50Z</time>
      </trkpt>
      <trkpt lat="42.63238" lon="1.72459">
        <ele>2052.182</ele>
        <time>2021-08-06T08:15:52Z</time>
      </trkpt>
      <trkpt lat="42.63237" lon="1.72461">
        <ele>2052.002</ele>
        <time>2021-08-06T08:15:54Z</time>
      </trkpt>
      <trkpt lat="42.63237" lon="1.72461">
        <ele>2052.668</ele>
        <time>2021-08-06T08:15:56Z</time>
      </trkpt>
      <trkpt lat="42.63235" lon="1.72462">
        <ele>2052.857</ele>
        <time>2021-08-06T08:15:58Z</time>
      </trkpt>
      <trkpt lat="42.63234" lon="1.72463">
        <ele>2052.894</ele>
        <time>2021-08-06T08:16:00Z</time>
      </trkpt>
      <trkpt lat="42.63234" lon="1.72464">
        <ele>2052.982</ele>
        <time>2021-08-06T08:16:02Z</time>
      </trkpt>
      <trkpt lat="42.63234" lon="1.72465">
        <ele>2053.023</ele>
        <time>2021-08-06T08:16:04Z</time>
      </trkpt>
      <trkpt lat="42.63233" lon="1.72466">
        <ele>2053.894</ele>
        <time>2021-08-06T08:16:06Z</time>
      </trkpt>
      <trkpt lat="42.63232" lon="1.72466">
        <ele>2054.146</ele>
        <time>2021-08-06T08:16:08Z</time>
      </trkpt>
      <trkpt lat="42.63231" lon="1.72466">
        <ele>2055.279</ele>
        <time>2021-08-06T08:16:10Z</time>
      </trkpt>
      <trkpt lat="42.6323" lon="1.72467">
        <ele>2056.619</ele>
        <time>2021-08-06T08:16:12Z</time>
      </trkpt>
      <trkpt lat="42.63229" lon="1.72468">
        <ele>2056.668</ele>
        <time>2021-08-06T08:16:14Z</time>
      </trkpt>
      <trkpt lat="42.63229" lon="1.72469">
        <ele>2056.746</ele>
        <time>2021-08-06T08:16:16Z</time>
      </trkpt>
      <trkpt lat="42.63229" lon="1.7247">
        <ele>2057.099</ele>
        <time>2021-08-06T08:16:18Z</time>
      </trkpt>
      <trkpt lat="42.63228" lon="1.7247">
        <ele>2056.885</ele>
        <time>2021-08-06T08:16:20Z</time>
      </trkpt>
      <trkpt lat="42.63227" lon="1.72471">
        <ele>2057.527</ele>
        <time>2021-08-06T08:16:22Z</time>
      </trkpt>
      <trkpt lat="42.63226" lon="1.72472">
        <ele>2057.279</ele>
        <time>2021-08-06T08:16:24Z</time>
      </trkpt>
      <trkpt lat="42.63224" lon="1.72473">
        <ele>2058.16</ele>
        <time>2021-08-06T08:16:26Z</time>
      </trkpt>
      <trkpt lat="42.63223" lon="1.72474">
        <ele>2058.259</ele>
        <time>2021-08-06T08:16:28Z</time>
      </trkpt>
      <trkpt lat="42.63223" lon="1.72475">
        <ele>2058.531</ele>
        <time>2021-08-06T08:16:30Z</time>
      </trkpt>
      <trkpt lat="42.63223" lon="1.72477">
        <ele>2059.419</ele>
        <time>2021-08-06T08:16:32Z</time>
      </trkpt>
      <trkpt lat="42.63222" lon="1.72478">
        <ele>2059.628</ele>
        <time>2021-08-06T08:16:34Z</time>
      </trkpt>
      <trkpt lat="42.63221" lon="1.72479">
        <ele>2060.085</ele>
        <time>2021-08-06T08:16:36Z</time>
      </trkpt>
      <trkpt lat="42.6322" lon="1.72479">
        <ele>2060.51</ele>
        <time>2021-08-06T08:16:38Z</time>
      </trkpt>
      <trkpt lat="42.63219" lon="1.7248">
        <ele>2060.853</ele>
        <time>2021-08-06T08:16:40Z</time>
      </trkpt>
      <trkpt lat="42.63218" lon="1.7248">
        <ele>2060.809</ele>
        <time>2021-08-06T08:16:42Z</time>
      </trkpt>
      <trkpt lat="42.63217" lon="1.72481">
        <ele>2061.617</ele>
        <time>2021-08-06T08:16:44Z</time>
      </trkpt>
      <trkpt lat="42.63216" lon="1.72481">
        <ele>2060.993</ele>
        <time>2021-08-06T08:16:46Z</time>
      </trkpt>
      <trkpt lat="42.63215" lon="1.72481">
        <ele>2061.689</ele>
        <time>2021-08-06T08:16:48Z</time>
      </trkpt>
      <trkpt lat="42.63213" lon="1.72481">
        <ele>2062.214</ele>
        <time>2021-08-06T08:16:50Z</time>
      </trkpt>
      <trkpt lat="42.63212" lon="1.72482">
        <ele>2062.826</ele>
        <time>2021-08-06T08:16:52Z</time>
      </trkpt>
      <trkpt lat="42.63211" lon="1.72483">
        <ele>2063.387</ele>
        <time>2021-08-06T08:16:54Z</time>
      </trkpt>
      <trkpt lat="42.63209" lon="1.72483">
        <ele>2063.973</ele>
        <time>2021-08-06T08:16:56Z</time>
      </trkpt>
      <trkpt lat="42.63209" lon="1.72484">
        <ele>2063.372</ele>
        <time>2021-08-06T08:16:58Z</time>
      </trkpt>
      <trkpt lat="42.63208" lon="1.72485">
        <ele>2062.854</ele>
        <time>2021-08-06T08:17:00Z</time>
      </trkpt>
      <trkpt lat="42.63206" lon="1.72486">
        <ele>2063.376</ele>
        <time>2021-08-06T08:17:02Z</time>
      </trkpt>
      <trkpt lat="42.63205" lon="1.72486">
        <ele>2064.466</ele>
        <time>2021-08-06T08:17:04Z</time>
      </trkpt>
      <trkpt lat="42.63204" lon="1.72486">
        <ele>2063.791</ele>
        <time>2021-08-06T08:17:06Z</time>
      </trkpt>
      <trkpt lat="42.63204" lon="1.72486">
        <ele>2065.46</ele>
        <time>2021-08-06T08:17:08Z</time>
      </trkpt>
      <trkpt lat="42.63202" lon="1.72486">
        <ele>2064.963</ele>
        <time>2021-08-06T08:17:10Z</time>
      </trkpt>
      <trkpt lat="42.63201" lon="1.72487">
        <ele>2065.001</ele>
        <time>2021-08-06T08:17:12Z</time>
      </trkpt>
      <trkpt lat="42.632" lon="1.72488">
        <ele>2065.103</ele>
        <time>2021-08-06T08:17:14Z</time>
      </trkpt>
      <trkpt lat="42.63199" lon="1.72488">
        <ele>2066.337</ele>
        <time>2021-08-06T08:17:16Z</time>
      </trkpt>
      <trkpt lat="42.63198" lon="1.72489">
        <ele>2066.785</ele>
        <time>2021-08-06T08:17:18Z</time>
      </trkpt>
      <trkpt lat="42.63196" lon="1.72489">
        <ele>2067.153</ele>
        <time>2021-08-06T08:17:20Z</time>
      </trkpt>
      <trkpt lat="42.63195" lon="1.72489">
        <ele>2067.552</ele>
        <time>2021-08-06T08:17:22Z</time>
      </trkpt>
      <trkpt lat="42.63194" lon="1.72489">
        <ele>2067.356</ele>
        <time>2021-08-06T08:17:24Z</time>
      </trkpt>
      <trkpt lat="42.63193" lon="1.7249">
        <ele>2067.708</ele>
        <time>2021-08-06T08:17:26Z</time>
      </trkpt>
      <trkpt lat="42.63192" lon="1.72491">
        <ele>2067.589</ele>
        <time>2021-08-06T08:17:28Z</time>
      </trkpt>
      <trkpt lat="42.63192" lon="1.72492">
        <ele>2067.687</ele>
        <time>2021-08-06T08:17:30Z</time>
      </trkpt>
      <trkpt lat="42.63191" lon="1.72492">
        <ele>2067.014</ele>
        <time>2021-08-06T08:17:32Z</time>
      </trkpt>
      <trkpt lat="42.6319" lon="1.72493">
        <ele>2067.761</ele>
        <time>2021-08-06T08:17:34Z</time>
      </trkpt>
      <trkpt lat="42.63189" lon="1.72493">
        <ele>2068.49</ele>
        <time>2021-08-06T08:17:36Z</time>
      </trkpt>
      <trkpt lat="42.63188" lon="1.72494">
        <ele>2069.486</ele>
        <time>2021-08-06T08:17:38Z</time>
      </trkpt>
      <trkpt lat="42.63187" lon="1.72494">
        <ele>2069.953</ele>
        <time>2021-08-06T08:17:40Z</time>
      </trkpt>
      <trkpt lat="42.63186" lon="1.72494">
        <ele>2069.495</ele>
        <time>2021-08-06T08:17:42Z</time>
      </trkpt>
      <trkpt lat="42.63185" lon="1.72494">
        <ele>2070.354</ele>
        <time>2021-08-06T08:17:44Z</time>
      </trkpt>
      <trkpt lat="42.63184" lon="1.72495">
        <ele>2070.976</ele>
        <time>2021-08-06T08:17:46Z</time>
      </trkpt>
      <trkpt lat="42.63184" lon="1.72495">
        <ele>2072.007</ele>
        <time>2021-08-06T08:17:48Z</time>
      </trkpt>
      <trkpt lat="42.63182" lon="1.72495">
        <ele>2072.466</ele>
        <time>2021-08-06T08:17:50Z</time>
      </trkpt>
      <trkpt lat="42.63181" lon="1.72496">
        <ele>2073.343</ele>
        <time>2021-08-06T08:17:52Z</time>
      </trkpt>
      <trkpt lat="42.6318" lon="1.72496">
        <ele>2072.784</ele>
        <time>2021-08-06T08:17:54Z</time>
      </trkpt>
      <trkpt lat="42.6318" lon="1.72497">
        <ele>2073.078</ele>
        <time>2021-08-06T08:17:56Z</time>
      </trkpt>
      <trkpt lat="42.63179" lon="1.72497">
        <ele>2073.765</ele>
        <time>2021-08-06T08:17:58Z</time>
      </trkpt>
      <trkpt lat="42.63177" lon="1.72498">
        <ele>2075.002</ele>
        <time>2021-08-06T08:18:00Z</time>
      </trkpt>
      <trkpt lat="42.63177" lon="1.72499">
        <ele>2075.418</ele>
        <time>2021-08-06T08:18:02Z</time>
      </trkpt>
      <trkpt lat="42.63176" lon="1.725">
        <ele>2075.591</ele>
        <time>2021-08-06T08:18:04Z</time>
      </trkpt>
      <trkpt lat="42.63175" lon="1.72501">
        <ele>2075.504</ele>
        <time>2021-08-06T08:18:06Z</time>
      </trkpt>
      <trkpt lat="42.63174" lon="1.72502">
        <ele>2075.156</ele>
        <time>2021-08-06T08:18:08Z</time>
      </trkpt>
      <trkpt lat="42.63173" lon="1.72502">
        <ele>2075.912</ele>
        <time>2021-08-06T08:18:10Z</time>
      </trkpt>
      <trkpt lat="42.63172" lon="1.72502">
        <ele>2075.847</ele>
        <time>2021-08-06T08:18:12Z</time>
      </trkpt>
      <trkpt lat="42.63171" lon="1.72503">
        <ele>2075.061</ele>
        <time>2021-08-06T08:18:14Z</time>
      </trkpt>
      <trkpt lat="42.6317" lon="1.72504">
        <ele>2075.565</ele>
        <time>2021-08-06T08:18:16Z</time>
      </trkpt>
      <trkpt lat="42.63169" lon="1.72504">
        <ele>2076.573</ele>
        <time>2021-08-06T08:18:18Z</time>
      </trkpt>
      <trkpt lat="42.63168" lon="1.72505">
        <ele>2077.262</ele>
        <time>2021-08-06T08:18:20Z</time>
      </trkpt>
      <trkpt lat="42.63167" lon="1.72506">
        <ele>2078.036</ele>
        <time>2021-08-06T08:18:22Z</time>
      </trkpt>
      <trkpt lat="42.63165" lon="1.72507">
        <ele>2077.797</ele>
        <time>2021-08-06T08:18:24Z</time>
      </trkpt>
      <trkpt lat="42.63164" lon="1.72508">
        <ele>2077.949</ele>
        <time>2021-08-06T08:18:26Z</time>
      </trkpt>
      <trkpt lat="42.63163" lon="1.72509">
        <ele>2078.709</ele>
        <time>2021-08-06T08:18:28Z</time>
      </trkpt>
      <trkpt lat="42.63162" lon="1.7251">
        <ele>2078.765</ele>
        <time>2021-08-06T08:18:30Z</time>
      </trkpt>
      <trkpt lat="42.63162" lon="1.72511">
        <ele>2079.034</ele>
        <time>2021-08-06T08:18:32Z</time>
      </trkpt>
      <trkpt lat="42.63161" lon="1.72512">
        <ele>2080.04</ele>
        <time>2021-08-06T08:18:34Z</time>
      </trkpt>
      <trkpt lat="42.6316" lon="1.72513">
        <ele>2079.451</ele>
        <time>2021-08-06T08:18:36Z</time>
      </trkpt>
      <trkpt lat="42.63159" lon="1.72514">
        <ele>2080.059</ele>
        <time>2021-08-06T08:18:38Z</time>
      </trkpt>
      <trkpt lat="42.63158" lon="1.72514">
        <ele>2080.963</ele>
        <time>2021-08-06T08:18:40Z</time>
      </trkpt>
      <trkpt lat="42.63157" lon="1.72516">
        <ele>2081.531</ele>
        <time>2021-08-06T08:18:42Z</time>
      </trkpt>
      <trkpt lat="42.63155" lon="1.72517">
        <ele>2081.648</ele>
        <time>2021-08-06T08:18:44Z</time>
      </trkpt>
      <trkpt lat="42.63154" lon="1.72518">
        <ele>2082.145</ele>
        <time>2021-08-06T08:18:46Z</time>
      </trkpt>
      <trkpt lat="42.63152" lon="1.72519">
        <ele>2082.479</ele>
        <time>2021-08-06T08:18:48Z</time>
      </trkpt>
      <trkpt lat="42.6315" lon="1.7252">
        <ele>2082.829</ele>
        <time>2021-08-06T08:18:50Z</time>
      </trkpt>
      <trkpt lat="42.63148" lon="1.72521">
        <ele>2082.585</ele>
        <time>2021-08-06T08:18:52Z</time>
      </trkpt>
      <trkpt lat="42.63147" lon="1.72523">
        <ele>2083.179</ele>
        <time>2021-08-06T08:18:54Z</time>
      </trkpt>
      <trkpt lat="42.63145" lon="1.72525">
        <ele>2083.102</ele>
        <time>2021-08-06T08:18:56Z</time>
      </trkpt>
      <trkpt lat="42.63143" lon="1.72526">
        <ele>2083.535</ele>
        <time>2021-08-06T08:18:58Z</time>
      </trkpt>
      <trkpt lat="42.63142" lon="1.72527">
        <ele>2082.871</ele>
        <time>2021-08-06T08:19:00Z</time>
      </trkpt>
      <trkpt lat="42.6314" lon="1.72529">
        <ele>2083.068</ele>
        <time>2021-08-06T08:19:02Z</time>
      </trkpt>
      <trkpt lat="42.63138" lon="1.7253">
        <ele>2082.618</ele>
        <time>2021-08-06T08:19:04Z</time>
      </trkpt>
      <trkpt lat="42.63136" lon="1.72532">
        <ele>2082.356</ele>
        <time>2021-08-06T08:19:06Z</time>
      </trkpt>
      <trkpt lat="42.63134" lon="1.72534">
        <ele>2082.079</ele>
        <time>2021-08-06T08:19:08Z</time>
      </trkpt>
      <trkpt lat="42.63132" lon="1.72536">
        <ele>2082.968</ele>
        <time>2021-08-06T08:19:10Z</time>
      </trkpt>
      <trkpt lat="42.63131" lon="1.72537">
        <ele>2082.715</ele>
        <time>2021-08-06T08:19:12Z</time>
      </trkpt>
      <trkpt lat="42.63129" lon="1.72538">
        <ele>2081.866</ele>
        <time>2021-08-06T08:19:14Z</time>
      </trkpt>
      <trkpt lat="42.63128" lon="1.7254">
        <ele>2082.838</ele>
        <time>2021-08-06T08:19:16Z</time>
      </trkpt>
      <trkpt lat="42.63127" lon="1.72541">
        <ele>2083.777</ele>
        <time>2021-08-06T08:19:18Z</time>
      </trkpt>
      <trkpt lat="42.63126" lon="1.72543">
        <ele>2083.76</ele>
        <time>2021-08-06T08:19:20Z</time>
      </trkpt>
      <trkpt lat="42.63125" lon="1.72543">
        <ele>2084.741</ele>
        <time>2021-08-06T08:19:22Z</time>
      </trkpt>
      <trkpt lat="42.63123" lon="1.72543">
        <ele>2085.417</ele>
        <time>2021-08-06T08:19:24Z</time>
      </trkpt>
      <trkpt lat="42.63122" lon="1.72543">
        <ele>2085.957</ele>
        <time>2021-08-06T08:19:26Z</time>
      </trkpt>
      <trkpt lat="42.63121" lon="1.72543">
        <ele>2086.773</ele>
        <time>2021-08-06T08:19:28Z</time>
      </trkpt>
      <trkpt lat="42.63119" lon="1.72544">
        <ele>2086.512</ele>
        <time>2021-08-06T08:19:30Z</time>
      </trkpt>
      <trkpt lat="42.63118" lon="1.72546">
        <ele>2086.756</ele>
        <time>2021-08-06T08:19:32Z</time>
      </trkpt>
      <trkpt lat="42.63118" lon="1.72547">
        <ele>2087.091</ele>
        <time>2021-08-06T08:19:34Z</time>
      </trkpt>
      <trkpt lat="42.63119" lon="1.72549">
        <ele>2087.708</ele>
        <time>2021-08-06T08:19:36Z</time>
      </trkpt>
      <trkpt lat="42.63119" lon="1.72551">
        <ele>2087.957</ele>
        <time>2021-08-06T08:19:38Z</time>
      </trkpt>
      <trkpt lat="42.63118" lon="1.72553">
        <ele>2087.61</ele>
        <time>2021-08-06T08:19:40Z</time>
      </trkpt>
      <trkpt lat="42.63116" lon="1.72555">
        <ele>2086.023</ele>
        <time>2021-08-06T08:19:42Z</time>
      </trkpt>
      <trkpt lat="42.63114" lon="1.72556">
        <ele>2086.009</ele>
        <time>2021-08-06T08:19:44Z</time>
      </trkpt>
      <trkpt lat="42.63114" lon="1.7256">
        <ele>2087.024</ele>
        <time>2021-08-06T08:19:46Z</time>
      </trkpt>
      <trkpt lat="42.63114" lon="1.72563">
        <ele>2086.871</ele>
        <time>2021-08-06T08:19:48Z</time>
      </trkpt>
      <trkpt lat="42.63113" lon="1.72566">
        <ele>2090.074</ele>
        <time>2021-08-06T08:19:50Z</time>
      </trkpt>
      <trkpt lat="42.63113" lon="1.72568">
        <ele>2091.103</ele>
        <time>2021-08-06T08:19:52Z</time>
      </trkpt>
      <trkpt lat="42.63112" lon="1.7257">
        <ele>2090.809</ele>
        <time>2021-08-06T08:19:54Z</time>
      </trkpt>
      <trkpt lat="42.63112" lon="1.72571">
        <ele>2091.224</ele>
        <time>2021-08-06T08:19:56Z</time>
      </trkpt>
      <trkpt lat="42.63111" lon="1.72572">
        <ele>2091.652</ele>
        <time>2021-08-06T08:19:58Z</time>
      </trkpt>
      <trkpt lat="42.63111" lon="1.72572">
        <ele>2088.67</ele>
        <time>2021-08-06T08:20:00Z</time>
      </trkpt>
      <trkpt lat="42.6311" lon="1.72573">
        <ele>2087.488</ele>
        <time>2021-08-06T08:20:02Z</time>
      </trkpt>
      <trkpt lat="42.63109" lon="1.72571">
        <ele>2088.727</ele>
        <time>2021-08-06T08:20:04Z</time>
      </trkpt>
      <trkpt lat="42.63108" lon="1.72571">
        <ele>2091.497</ele>
        <time>2021-08-06T08:20:06Z</time>
      </trkpt>
      <trkpt lat="42.63106" lon="1.72572">
        <ele>2092.894</ele>
        <time>2021-08-06T08:20:08Z</time>
      </trkpt>
      <trkpt lat="42.63105" lon="1.72572">
        <ele>2092.792</ele>
        <time>2021-08-06T08:20:10Z</time>
      </trkpt>
      <trkpt lat="42.63104" lon="1.72571">
        <ele>2092.054</ele>
        <time>2021-08-06T08:20:12Z</time>
      </trkpt>
      <trkpt lat="42.63103" lon="1.7257">
        <ele>2091.901</ele>
        <time>2021-08-06T08:20:14Z</time>
      </trkpt>
      <trkpt lat="42.63102" lon="1.72568">
        <ele>2092.797</ele>
        <time>2021-08-06T08:20:16Z</time>
      </trkpt>
      <trkpt lat="42.63101" lon="1.72567">
        <ele>2092.582</ele>
        <time>2021-08-06T08:20:18Z</time>
      </trkpt>
      <trkpt lat="42.631" lon="1.72566">
        <ele>2092.028</ele>
        <time>2021-08-06T08:20:20Z</time>
      </trkpt>
      <trkpt lat="42.63099" lon="1.72563">
        <ele>2090.883</ele>
        <time>2021-08-06T08:20:22Z</time>
      </trkpt>
      <trkpt lat="42.63099" lon="1.72562">
        <ele>2091.196</ele>
        <time>2021-08-06T08:20:24Z</time>
      </trkpt>
      <trkpt lat="42.63098" lon="1.72561">
        <ele>2091.966</ele>
        <time>2021-08-06T08:20:26Z</time>
      </trkpt>
      <trkpt lat="42.63098" lon="1.7256">
        <ele>2092.58</ele>
        <time>2021-08-06T08:20:28Z</time>
      </trkpt>
      <trkpt lat="42.63097" lon="1.72558">
        <ele>2093.36</ele>
        <time>2021-08-06T08:20:30Z</time>
      </trkpt>
      <trkpt lat="42.63096" lon="1.72557">
        <ele>2094.349</ele>
        <time>2021-08-06T08:20:32Z</time>
      </trkpt>
      <trkpt lat="42.63095" lon="1.72556">
        <ele>2095.772</ele>
        <time>2021-08-06T08:20:34Z</time>
      </trkpt>
      <trkpt lat="42.63094" lon="1.72556">
        <ele>2096.05</ele>
        <time>2021-08-06T08:20:36Z</time>
      </trkpt>
      <trkpt lat="42.63093" lon="1.72555">
        <ele>2096.406</ele>
        <time>2021-08-06T08:20:38Z</time>
      </trkpt>
      <trkpt lat="42.63092" lon="1.72555">
        <ele>2096.159</ele>
        <time>2021-08-06T08:20:40Z</time>
      </trkpt>
      <trkpt lat="42.63091" lon="1.72554">
        <ele>2096.216</ele>
        <time>2021-08-06T08:20:42Z</time>
      </trkpt>
      <trkpt lat="42.6309" lon="1.72554">
        <ele>2097.441</ele>
        <time>2021-08-06T08:20:44Z</time>
      </trkpt>
      <trkpt lat="42.63088" lon="1.72555">
        <ele>2097.863</ele>
        <time>2021-08-06T08:20:46Z</time>
      </trkpt>
      <trkpt lat="42.63087" lon="1.72556">
        <ele>2098.294</ele>
        <time>2021-08-06T08:20:48Z</time>
      </trkpt>
      <trkpt lat="42.63085" lon="1.72557">
        <ele>2097.733</ele>
        <time>2021-08-06T08:20:50Z</time>
      </trkpt>
      <trkpt lat="42.63084" lon="1.72557">
        <ele>2097.955</ele>
        <time>2021-08-06T08:20:52Z</time>
      </trkpt>
      <trkpt lat="42.63082" lon="1.72558">
        <ele>2098.698</ele>
        <time>2021-08-06T08:20:54Z</time>
      </trkpt>
      <trkpt lat="42.63081" lon="1.72559">
        <ele>2098.334</ele>
        <time>2021-08-06T08:20:56Z</time>
      </trkpt>
      <trkpt lat="42.6308" lon="1.72559">
        <ele>2098.878</ele>
        <time>2021-08-06T08:20:58Z</time>
      </trkpt>
      <trkpt lat="42.63078" lon="1.72558">
        <ele>2098.617</ele>
        <time>2021-08-06T08:21:00Z</time>
      </trkpt>
      <trkpt lat="42.63077" lon="1.72558">
        <ele>2098.736</ele>
        <time>2021-08-06T08:21:02Z</time>
      </trkpt>
      <trkpt lat="42.63075" lon="1.72558">
        <ele>2098.007</ele>
        <time>2021-08-06T08:21:04Z</time>
      </trkpt>
      <trkpt lat="42.63072" lon="1.72557">
        <ele>2097.525</ele>
        <time>2021-08-06T08:21:06Z</time>
      </trkpt>
      <trkpt lat="42.6307" lon="1.72558">
        <ele>2096.93</ele>
        <time>2021-08-06T08:21:08Z</time>
      </trkpt>
      <trkpt lat="42.63068" lon="1.72558">
        <ele>2096.39</ele>
        <time>2021-08-06T08:21:10Z</time>
      </trkpt>
      <trkpt lat="42.63066" lon="1.72559">
        <ele>2096.078</ele>
        <time>2021-08-06T08:21:12Z</time>
      </trkpt>
      <trkpt lat="42.63065" lon="1.72559">
        <ele>2096.406</ele>
        <time>2021-08-06T08:21:14Z</time>
      </trkpt>
      <trkpt lat="42.63063" lon="1.7256">
        <ele>2096.901</ele>
        <time>2021-08-06T08:21:16Z</time>
      </trkpt>
      <trkpt lat="42.63062" lon="1.72561">
        <ele>2097.414</ele>
        <time>2021-08-06T08:21:18Z</time>
      </trkpt>
      <trkpt lat="42.63061" lon="1.72563">
        <ele>2097.47</ele>
        <time>2021-08-06T08:21:20Z</time>
      </trkpt>
      <trkpt lat="42.6306" lon="1.72565">
        <ele>2097.309</ele>
        <time>2021-08-06T08:21:22Z</time>
      </trkpt>
      <trkpt lat="42.63058" lon="1.72565">
        <ele>2097.582</ele>
        <time>2021-08-06T08:21:24Z</time>
      </trkpt>
      <trkpt lat="42.63056" lon="1.72566">
        <ele>2098.149</ele>
        <time>2021-08-06T08:21:26Z</time>
      </trkpt>
      <trkpt lat="42.63055" lon="1.72568">
        <ele>2098.436</ele>
        <time>2021-08-06T08:21:28Z</time>
      </trkpt>
      <trkpt lat="42.63054" lon="1.72569">
        <ele>2097.993</ele>
        <time>2021-08-06T08:21:30Z</time>
      </trkpt>
      <trkpt lat="42.63054" lon="1.72571">
        <ele>2098.363</ele>
        <time>2021-08-06T08:21:32Z</time>
      </trkpt>
      <trkpt lat="42.63053" lon="1.72571">
        <ele>2097.436</ele>
        <time>2021-08-06T08:21:34Z</time>
      </trkpt>
      <trkpt lat="42.63052" lon="1.72571">
        <ele>2098.37</ele>
        <time>2021-08-06T08:21:36Z</time>
      </trkpt>
      <trkpt lat="42.63051" lon="1.72571">
        <ele>2098.214</ele>
        <time>2021-08-06T08:21:38Z</time>
      </trkpt>
      <trkpt lat="42.6305" lon="1.72572">
        <ele>2098.045</ele>
        <time>2021-08-06T08:21:40Z</time>
      </trkpt>
      <trkpt lat="42.63049" lon="1.72573">
        <ele>2097.501</ele>
        <time>2021-08-06T08:21:42Z</time>
      </trkpt>
      <trkpt lat="42.63048" lon="1.72574">
        <ele>2096.85</ele>
        <time>2021-08-06T08:21:44Z</time>
      </trkpt>
      <trkpt lat="42.63047" lon="1.72574">
        <ele>2096.955</ele>
        <time>2021-08-06T08:21:46Z</time>
      </trkpt>
      <trkpt lat="42.63046" lon="1.72575">
        <ele>2097.443</ele>
        <time>2021-08-06T08:21:48Z</time>
      </trkpt>
      <trkpt lat="42.63046" lon="1.72576">
        <ele>2097.061</ele>
        <time>2021-08-06T08:21:50Z</time>
      </trkpt>
      <trkpt lat="42.63045" lon="1.72577">
        <ele>2097.647</ele>
        <time>2021-08-06T08:21:52Z</time>
      </trkpt>
      <trkpt lat="42.63044" lon="1.72577">
        <ele>2098.073</ele>
        <time>2021-08-06T08:21:54Z</time>
      </trkpt>
      <trkpt lat="42.63043" lon="1.72578">
        <ele>2097.746</ele>
        <time>2021-08-06T08:21:56Z</time>
      </trkpt>
      <trkpt lat="42.63041" lon="1.72578">
        <ele>2096.926</ele>
        <time>2021-08-06T08:21:58Z</time>
      </trkpt>
      <trkpt lat="42.6304" lon="1.72579">
        <ele>2096.406</ele>
        <time>2021-08-06T08:22:00Z</time>
      </trkpt>
      <trkpt lat="42.63039" lon="1.7258">
        <ele>2096.172</ele>
        <time>2021-08-06T08:22:02Z</time>
      </trkpt>
      <trkpt lat="42.63039" lon="1.72581">
        <ele>2096.843</ele>
        <time>2021-08-06T08:22:04Z</time>
      </trkpt>
      <trkpt lat="42.63038" lon="1.72582">
        <ele>2096.961</ele>
        <time>2021-08-06T08:22:06Z</time>
      </trkpt>
      <trkpt lat="42.63037" lon="1.72583">
        <ele>2097.073</ele>
        <time>2021-08-06T08:22:08Z</time>
      </trkpt>
      <trkpt lat="42.63037" lon="1.72582">
        <ele>2097.915</ele>
        <time>2021-08-06T08:22:10Z</time>
      </trkpt>
      <trkpt lat="42.63036" lon="1.72581">
        <ele>2098.312</ele>
        <time>2021-08-06T08:22:12Z</time>
      </trkpt>
      <trkpt lat="42.63035" lon="1.72581">
        <ele>2098.952</ele>
        <time>2021-08-06T08:22:14Z</time>
      </trkpt>
      <trkpt lat="42.63035" lon="1.72581">
        <ele>2099.148</ele>
        <time>2021-08-06T08:22:16Z</time>
      </trkpt>
      <trkpt lat="42.63034" lon="1.72582">
        <ele>2098.92</ele>
        <time>2021-08-06T08:22:18Z</time>
      </trkpt>
      <trkpt lat="42.63033" lon="1.72582">
        <ele>2099.577</ele>
        <time>2021-08-06T08:22:20Z</time>
      </trkpt>
      <trkpt lat="42.63031" lon="1.72583">
        <ele>2099.873</ele>
        <time>2021-08-06T08:22:22Z</time>
      </trkpt>
      <trkpt lat="42.6303" lon="1.72584">
        <ele>2099.458</ele>
        <time>2021-08-06T08:22:24Z</time>
      </trkpt>
      <trkpt lat="42.6303" lon="1.72585">
        <ele>2098.915</ele>
        <time>2021-08-06T08:22:26Z</time>
      </trkpt>
      <trkpt lat="42.63029" lon="1.72585">
        <ele>2098.926</ele>
        <time>2021-08-06T08:22:28Z</time>
      </trkpt>
      <trkpt lat="42.63028" lon="1.72584">
        <ele>2099.631</ele>
        <time>2021-08-06T08:22:30Z</time>
      </trkpt>
      <trkpt lat="42.63028" lon="1.72584">
        <ele>2099.611</ele>
        <time>2021-08-06T08:22:32Z</time>
      </trkpt>
      <trkpt lat="42.63028" lon="1.72585">
        <ele>2100.317</ele>
        <time>2021-08-06T08:22:34Z</time>
      </trkpt>
      <trkpt lat="42.63028" lon="1.72586">
        <ele>2100.435</ele>
        <time>2021-08-06T08:22:36Z</time>
      </trkpt>
      <trkpt lat="42.63027" lon="1.72588">
        <ele>2100.74</ele>
        <time>2021-08-06T08:22:38Z</time>
      </trkpt>
      <trkpt lat="42.63027" lon="1.72589">
        <ele>2101.143</ele>
        <time>2021-08-06T08:22:40Z</time>
      </trkpt>
      <trkpt lat="42.63024" lon="1.72587">
        <ele>2101.369</ele>
        <time>2021-08-06T08:22:42Z</time>
      </trkpt>
      <trkpt lat="42.63022" lon="1.72588">
        <ele>2101.025</ele>
        <time>2021-08-06T08:22:44Z</time>
      </trkpt>
      <trkpt lat="42.63021" lon="1.72589">
        <ele>2100.922</ele>
        <time>2021-08-06T08:22:46Z</time>
      </trkpt>
      <trkpt lat="42.63021" lon="1.72589">
        <ele>2100.73</ele>
        <time>2021-08-06T08:22:48Z</time>
      </trkpt>
      <trkpt lat="42.63021" lon="1.72589">
        <ele>2100.729</ele>
        <time>2021-08-06T08:22:50Z</time>
      </trkpt>
      <trkpt lat="42.63021" lon="1.72589">
        <ele>2100.727</ele>
        <time>2021-08-06T08:22:52Z</time>
      </trkpt>
      <trkpt lat="42.63021" lon="1.72589">
        <ele>2100.727</ele>
        <time>2021-08-06T08:22:54Z</time>
      </trkpt>
      <trkpt lat="42.63021" lon="1.72589">
        <ele>2100.731</ele>
        <time>2021-08-06T08:22:56Z</time>
      </trkpt>
      <trkpt lat="42.63021" lon="1.72589">
        <ele>2101.647</ele>
        <time>2021-08-06T08:22:58Z</time>
      </trkpt>
      <trkpt lat="42.63021" lon="1.7259">
        <ele>2101.65</ele>
        <time>2021-08-06T08:23:00Z</time>
      </trkpt>
      <trkpt lat="42.63021" lon="1.7259">
        <ele>2101.656</ele>
        <time>2021-08-06T08:23:02Z</time>
      </trkpt>
      <trkpt lat="42.63021" lon="1.7259">
        <ele>2101.657</ele>
        <time>2021-08-06T08:23:04Z</time>
      </trkpt>
      <trkpt lat="42.63021" lon="1.7259">
        <ele>2101.653</ele>
        <time>2021-08-06T08:23:06Z</time>
      </trkpt>
      <trkpt lat="42.63021" lon="1.7259">
        <ele>2101.65</ele>
        <time>2021-08-06T08:23:08Z</time>
      </trkpt>
      <trkpt lat="42.63021" lon="1.7259">
        <ele>2101.654</ele>
        <time>2021-08-06T08:23:10Z</time>
      </trkpt>
      <trkpt lat="42.63021" lon="1.7259">
        <ele>2101.656</ele>
        <time>2021-08-06T08:23:12Z</time>
      </trkpt>
      <trkpt lat="42.63021" lon="1.7259">
        <ele>2101.657</ele>
        <time>2021-08-06T08:23:14Z</time>
      </trkpt>
      <trkpt lat="42.63021" lon="1.7259">
        <ele>2101.659</ele>
        <time>2021-08-06T08:23:16Z</time>
      </trkpt>
      <trkpt lat="42.63021" lon="1.7259">
        <ele>2101.657</ele>
        <time>2021-08-06T08:23:18Z</time>
      </trkpt>
      <trkpt lat="42.63021" lon="1.7259">
        <ele>2101.649</ele>
        <time>2021-08-06T08:23:20Z</time>
      </trkpt>
      <trkpt lat="42.63021" lon="1.7259">
        <ele>2101.332</ele>
        <time>2021-08-06T08:23:22Z</time>
      </trkpt>
      <trkpt lat="42.63021" lon="1.7259">
        <ele>2101.364</ele>
        <time>2021-08-06T08:23:24Z</time>
      </trkpt>
      <trkpt lat="42.63021" lon="1.7259">
        <ele>2101.364</ele>
        <time>2021-08-06T08:23:26Z</time>
      </trkpt>
      <trkpt lat="42.63021" lon="1.7259">
        <ele>2101.355</ele>
        <time>2021-08-06T08:23:28Z</time>
      </trkpt>
      <trkpt lat="42.63021" lon="1.7259">
        <ele>2101.351</ele>
        <time>2021-08-06T08:23:30Z</time>
      </trkpt>
      <trkpt lat="42.63021" lon="1.7259">
        <ele>2101.338</ele>
        <time>2021-08-06T08:23:32Z</time>
      </trkpt>
      <trkpt lat="42.63021" lon="1.7259">
        <ele>2101.344</ele>
        <time>2021-08-06T08:23:34Z</time>
      </trkpt>
      <trkpt lat="42.63021" lon="1.7259">
        <ele>2101.347</ele>
        <time>2021-08-06T08:23:36Z</time>
      </trkpt>
      <trkpt lat="42.63021" lon="1.7259">
        <ele>2101.345</ele>
        <time>2021-08-06T08:23:38Z</time>
      </trkpt>
      <trkpt lat="42.63021" lon="1.7259">
        <ele>2101.346</ele>
        <time>2021-08-06T08:23:40Z</time>
      </trkpt>
      <trkpt lat="42.63021" lon="1.7259">
        <ele>2101.351</ele>
        <time>2021-08-06T08:23:42Z</time>
      </trkpt>
      <trkpt lat="42.63021" lon="1.7259">
        <ele>2101.371</ele>
        <time>2021-08-06T08:23:44Z</time>
      </trkpt>
      <trkpt lat="42.6302" lon="1.72591">
        <ele>2101.605</ele>
        <time>2021-08-06T08:23:46Z</time>
      </trkpt>
      <trkpt lat="42.6302" lon="1.72592">
        <ele>2100.583</ele>
        <time>2021-08-06T08:23:48Z</time>
      </trkpt>
      <trkpt lat="42.63019" lon="1.72592">
        <ele>2100.22</ele>
        <time>2021-08-06T08:23:50Z</time>
      </trkpt>
      <trkpt lat="42.63019" lon="1.72592">
        <ele>2100.218</ele>
        <time>2021-08-06T08:23:52Z</time>
      </trkpt>
      <trkpt lat="42.63019" lon="1.72592">
        <ele>2100.221</ele>
        <time>2021-08-06T08:23:54Z</time>
      </trkpt>
      <trkpt lat="42.63019" lon="1.72592">
        <ele>2100.218</ele>
        <time>2021-08-06T08:23:56Z</time>
      </trkpt>
      <trkpt lat="42.63019" lon="1.72592">
        <ele>2099.758</ele>
        <time>2021-08-06T08:23:58Z</time>
      </trkpt>
      <trkpt lat="42.63019" lon="1.72592">
        <ele>2099.807</ele>
        <time>2021-08-06T08:24:00Z</time>
      </trkpt>
      <trkpt lat="42.63019" lon="1.72592">
        <ele>2099.804</ele>
        <time>2021-08-06T08:24:02Z</time>
      </trkpt>
      <trkpt lat="42.63019" lon="1.72592">
        <ele>2099.792</ele>
        <time>2021-08-06T08:24:04Z</time>
      </trkpt>
      <trkpt lat="42.63019" lon="1.72592">
        <ele>2099.789</ele>
        <time>2021-08-06T08:24:06Z</time>
      </trkpt>
      <trkpt lat="42.63019" lon="1.72592">
        <ele>2099.775</ele>
        <time>2021-08-06T08:24:08Z</time>
      </trkpt>
      <trkpt lat="42.63019" lon="1.72592">
        <ele>2099.783</ele>
        <time>2021-08-06T08:24:10Z</time>
      </trkpt>
      <trkpt lat="42.6302" lon="1.72592">
        <ele>2099.893</ele>
        <time>2021-08-06T08:24:12Z</time>
      </trkpt>
      <trkpt lat="42.6302" lon="1.72592">
        <ele>2099.89</ele>
        <time>2021-08-06T08:24:14Z</time>
      </trkpt>
      <trkpt lat="42.6302" lon="1.72592">
        <ele>2099.897</ele>
        <time>2021-08-06T08:24:16Z</time>
      </trkpt>
      <trkpt lat="42.6302" lon="1.72592">
        <ele>2099.899</ele>
        <time>2021-08-06T08:24:18Z</time>
      </trkpt>
      <trkpt lat="42.6302" lon="1.72592">
        <ele>2099.893</ele>
        <time>2021-08-06T08:24:20Z</time>
      </trkpt>
      <trkpt lat="42.6302" lon="1.72592">
        <ele>2099.894</ele>
        <time>2021-08-06T08:24:22Z</time>
      </trkpt>
      <trkpt lat="42.6302" lon="1.72592">
        <ele>2099.891</ele>
        <time>2021-08-06T08:24:24Z</time>
      </trkpt>
      <trkpt lat="42.6302" lon="1.72592">
        <ele>2099.901</ele>
        <time>2021-08-06T08:24:26Z</time>
      </trkpt>
      <trkpt lat="42.6302" lon="1.72592">
        <ele>2099.895</ele>
        <time>2021-08-06T08:24:28Z</time>
      </trkpt>
      <trkpt lat="42.6302" lon="1.72592">
        <ele>2099.886</ele>
        <time>2021-08-06T08:24:30Z</time>
      </trkpt>
      <trkpt lat="42.6302" lon="1.72592">
        <ele>2099.841</ele>
        <time>2021-08-06T08:24:32Z</time>
      </trkpt>
      <trkpt lat="42.6302" lon="1.72592">
        <ele>2099.838</ele>
        <time>2021-08-06T08:24:34Z</time>
      </trkpt>
      <trkpt lat="42.6302" lon="1.72592">
        <ele>2099.836</ele>
        <time>2021-08-06T08:24:36Z</time>
      </trkpt>
      <trkpt lat="42.6302" lon="1.72592">
        <ele>2099.845</ele>
        <time>2021-08-06T08:24:38Z</time>
      </trkpt>
      <trkpt lat="42.63019" lon="1.72593">
        <ele>2100.485</ele>
        <time>2021-08-06T08:24:40Z</time>
      </trkpt>
      <trkpt lat="42.63019" lon="1.72593">
        <ele>2100.568</ele>
        <time>2021-08-06T08:24:42Z</time>
      </trkpt>
      <trkpt lat="42.63018" lon="1.72593">
        <ele>2100.518</ele>
        <time>2021-08-06T08:24:44Z</time>
      </trkpt>
      <trkpt lat="42.63018" lon="1.72593">
        <ele>2100.513</ele>
        <time>2021-08-06T08:24:46Z</time>
      </trkpt>
      <trkpt lat="42.63018" lon="1.72593">
        <ele>2100.516</ele>
        <time>2021-08-06T08:24:48Z</time>
      </trkpt>
      <trkpt lat="42.63018" lon="1.72593">
        <ele>2100.515</ele>
        <time>2021-08-06T08:24:50Z</time>
      </trkpt>
      <trkpt lat="42.63018" lon="1.72593">
        <ele>2100.518</ele>
        <time>2021-08-06T08:24:52Z</time>
      </trkpt>
      <trkpt lat="42.63018" lon="1.72593">
        <ele>2100.517</ele>
        <time>2021-08-06T08:24:54Z</time>
      </trkpt>
      <trkpt lat="42.63018" lon="1.72593">
        <ele>2100.527</ele>
        <time>2021-08-06T08:24:56Z</time>
      </trkpt>
      <trkpt lat="42.63018" lon="1.72593">
        <ele>2100.521</ele>
        <time>2021-08-06T08:24:58Z</time>
      </trkpt>
      <trkpt lat="42.63018" lon="1.72593">
        <ele>2100.519</ele>
        <time>2021-08-06T08:25:00Z</time>
      </trkpt>
      <trkpt lat="42.63018" lon="1.72593">
        <ele>2100.519</ele>
        <time>2021-08-06T08:25:02Z</time>
      </trkpt>
      <trkpt lat="42.63018" lon="1.72593">
        <ele>2100.34</ele>
        <time>2021-08-06T08:25:04Z</time>
      </trkpt>
      <trkpt lat="42.63018" lon="1.72594">
        <ele>2099.942</ele>
        <time>2021-08-06T08:25:06Z</time>
      </trkpt>
      <trkpt lat="42.63017" lon="1.72594">
        <ele>2100.159</ele>
        <time>2021-08-06T08:25:08Z</time>
      </trkpt>
      <trkpt lat="42.63017" lon="1.72594">
        <ele>2100.162</ele>
        <time>2021-08-06T08:25:10Z</time>
      </trkpt>
      <trkpt lat="42.63017" lon="1.72594">
        <ele>2100.173</ele>
        <time>2021-08-06T08:25:12Z</time>
      </trkpt>
      <trkpt lat="42.63017" lon="1.72594">
        <ele>2100.176</ele>
        <time>2021-08-06T08:25:14Z</time>
      </trkpt>
      <trkpt lat="42.63017" lon="1.72594">
        <ele>2100.18</ele>
        <time>2021-08-06T08:25:16Z</time>
      </trkpt>
      <trkpt lat="42.63017" lon="1.72594">
        <ele>2100.173</ele>
        <time>2021-08-06T08:25:18Z</time>
      </trkpt>
      <trkpt lat="42.63017" lon="1.72594">
        <ele>2100.182</ele>
        <time>2021-08-06T08:25:20Z</time>
      </trkpt>
      <trkpt lat="42.63017" lon="1.72594">
        <ele>2100.189</ele>
        <time>2021-08-06T08:25:22Z</time>
      </trkpt>
      <trkpt lat="42.63017" lon="1.72594">
        <ele>2100.187</ele>
        <time>2021-08-06T08:25:24Z</time>
      </trkpt>
      <trkpt lat="42.63017" lon="1.72594">
        <ele>2100.186</ele>
        <time>2021-08-06T08:25:26Z</time>
      </trkpt>
      <trkpt lat="42.63017" lon="1.72594">
        <ele>2100.187</ele>
        <time>2021-08-06T08:25:28Z</time>
      </trkpt>
      <trkpt lat="42.63017" lon="1.72594">
        <ele>2100.193</ele>
        <time>2021-08-06T08:25:30Z</time>
      </trkpt>
      <trkpt lat="42.63017" lon="1.72594">
        <ele>2099.885</ele>
        <time>2021-08-06T08:25:32Z</time>
      </trkpt>
      <trkpt lat="42.63018" lon="1.72594">
        <ele>2099.891</ele>
        <time>2021-08-06T08:25:34Z</time>
      </trkpt>
      <trkpt lat="42.63018" lon="1.72594">
        <ele>2099.894</ele>
        <time>2021-08-06T08:25:36Z</time>
      </trkpt>
      <trkpt lat="42.63018" lon="1.72594">
        <ele>2099.891</ele>
        <time>2021-08-06T08:25:38Z</time>
      </trkpt>
      <trkpt lat="42.63018" lon="1.72594">
        <ele>2099.897</ele>
        <time>2021-08-06T08:25:40Z</time>
      </trkpt>
      <trkpt lat="42.63018" lon="1.72594">
        <ele>2099.894</ele>
        <time>2021-08-06T08:25:42Z</time>
      </trkpt>
      <trkpt lat="42.63018" lon="1.72594">
        <ele>2099.896</ele>
        <time>2021-08-06T08:25:44Z</time>
      </trkpt>
      <trkpt lat="42.63018" lon="1.72594">
        <ele>2100.031</ele>
        <time>2021-08-06T08:25:46Z</time>
      </trkpt>
      <trkpt lat="42.63017" lon="1.72594">
        <ele>2100.053</ele>
        <time>2021-08-06T08:25:48Z</time>
      </trkpt>
      <trkpt lat="42.63017" lon="1.72594">
        <ele>2100.381</ele>
        <time>2021-08-06T08:25:50Z</time>
      </trkpt>
      <trkpt lat="42.63017" lon="1.72594">
        <ele>2100.384</ele>
        <time>2021-08-06T08:25:52Z</time>
      </trkpt>
      <trkpt lat="42.63017" lon="1.72595">
        <ele>2100.839</ele>
        <time>2021-08-06T08:25:54Z</time>
      </trkpt>
      <trkpt lat="42.63016" lon="1.72596">
        <ele>2100.531</ele>
        <time>2021-08-06T08:25:56Z</time>
      </trkpt>
      <trkpt lat="42.63016" lon="1.72597">
        <ele>2100.655</ele>
        <time>2021-08-06T08:25:58Z</time>
      </trkpt>
      <trkpt lat="42.63016" lon="1.72597">
        <ele>2100.659</ele>
        <time>2021-08-06T08:26:00Z</time>
      </trkpt>
      <trkpt lat="42.63016" lon="1.72597">
        <ele>2100.656</ele>
        <time>2021-08-06T08:26:02Z</time>
      </trkpt>
      <trkpt lat="42.63016" lon="1.72597">
        <ele>2100.657</ele>
        <time>2021-08-06T08:26:04Z</time>
      </trkpt>
      <trkpt lat="42.63016" lon="1.72597">
        <ele>2100.657</ele>
        <time>2021-08-06T08:26:06Z</time>
      </trkpt>
      <trkpt lat="42.63016" lon="1.72597">
        <ele>2100.66</ele>
        <time>2021-08-06T08:26:08Z</time>
      </trkpt>
      <trkpt lat="42.63016" lon="1.72597">
        <ele>2100.655</ele>
        <time>2021-08-06T08:26:10Z</time>
      </trkpt>
      <trkpt lat="42.63016" lon="1.72597">
        <ele>2100.648</ele>
        <time>2021-08-06T08:26:12Z</time>
      </trkpt>
      <trkpt lat="42.63016" lon="1.72597">
        <ele>2100.651</ele>
        <time>2021-08-06T08:26:14Z</time>
      </trkpt>
      <trkpt lat="42.63016" lon="1.72597">
        <ele>2100.835</ele>
        <time>2021-08-06T08:26:16Z</time>
      </trkpt>
      <trkpt lat="42.63016" lon="1.72596">
        <ele>2100.832</ele>
        <time>2021-08-06T08:26:18Z</time>
      </trkpt>
      <trkpt lat="42.63015" lon="1.72597">
        <ele>2100.773</ele>
        <time>2021-08-06T08:26:20Z</time>
      </trkpt>
      <trkpt lat="42.63014" lon="1.72599">
        <ele>2101.106</ele>
        <time>2021-08-06T08:26:22Z</time>
      </trkpt>
      <trkpt lat="42.63013" lon="1.726">
        <ele>2100.895</ele>
        <time>2021-08-06T08:26:24Z</time>
      </trkpt>
      <trkpt lat="42.63013" lon="1.72601">
        <ele>2101.456</ele>
        <time>2021-08-06T08:26:26Z</time>
      </trkpt>
      <trkpt lat="42.63011" lon="1.72602">
        <ele>2102.158</ele>
        <time>2021-08-06T08:26:28Z</time>
      </trkpt>
      <trkpt lat="42.63011" lon="1.72602">
        <ele>2102.678</ele>
        <time>2021-08-06T08:26:30Z</time>
      </trkpt>
      <trkpt lat="42.63012" lon="1.72602">
        <ele>2102.69</ele>
        <time>2021-08-06T08:26:32Z</time>
      </trkpt>
      <trkpt lat="42.63012" lon="1.72602">
        <ele>2102.685</ele>
        <time>2021-08-06T08:26:34Z</time>
      </trkpt>
      <trkpt lat="42.63012" lon="1.72602">
        <ele>2102.688</ele>
        <time>2021-08-06T08:26:36Z</time>
      </trkpt>
      <trkpt lat="42.63012" lon="1.72602">
        <ele>2102.69</ele>
        <time>2021-08-06T08:26:38Z</time>
      </trkpt>
      <trkpt lat="42.63012" lon="1.72602">
        <ele>2102.685</ele>
        <time>2021-08-06T08:26:40Z</time>
      </trkpt>
      <trkpt lat="42.63012" lon="1.72602">
        <ele>2102.673</ele>
        <time>2021-08-06T08:26:42Z</time>
      </trkpt>
      <trkpt lat="42.63012" lon="1.72602">
        <ele>2102.67</ele>
        <time>2021-08-06T08:26:44Z</time>
      </trkpt>
      <trkpt lat="42.63012" lon="1.72602">
        <ele>2102.669</ele>
        <time>2021-08-06T08:26:46Z</time>
      </trkpt>
      <trkpt lat="42.63012" lon="1.72602">
        <ele>2102.68</ele>
        <time>2021-08-06T08:26:48Z</time>
      </trkpt>
      <trkpt lat="42.63012" lon="1.72602">
        <ele>2102.202</ele>
        <time>2021-08-06T08:26:50Z</time>
      </trkpt>
      <trkpt lat="42.63012" lon="1.72602">
        <ele>2102.197</ele>
        <time>2021-08-06T08:26:52Z</time>
      </trkpt>
      <trkpt lat="42.63012" lon="1.72602">
        <ele>2102.196</ele>
        <time>2021-08-06T08:26:54Z</time>
      </trkpt>
      <trkpt lat="42.63012" lon="1.72602">
        <ele>2102.194</ele>
        <time>2021-08-06T08:26:56Z</time>
      </trkpt>
      <trkpt lat="42.63012" lon="1.72602">
        <ele>2102.195</ele>
        <time>2021-08-06T08:26:58Z</time>
      </trkpt>
      <trkpt lat="42.63012" lon="1.72602">
        <ele>2102.199</ele>
        <time>2021-08-06T08:27:00Z</time>
      </trkpt>
      <trkpt lat="42.63012" lon="1.72602">
        <ele>2102.201</ele>
        <time>2021-08-06T08:27:02Z</time>
      </trkpt>
      <trkpt lat="42.63012" lon="1.72602">
        <ele>2102.194</ele>
        <time>2021-08-06T08:27:04Z</time>
      </trkpt>
      <trkpt lat="42.63012" lon="1.72602">
        <ele>2102.193</ele>
        <time>2021-08-06T08:27:06Z</time>
      </trkpt>
      <trkpt lat="42.63012" lon="1.72602">
        <ele>2102.195</ele>
        <time>2021-08-06T08:27:08Z</time>
      </trkpt>
      <trkpt lat="42.63012" lon="1.72602">
        <ele>2102.198</ele>
        <time>2021-08-06T08:27:10Z</time>
      </trkpt>
      <trkpt lat="42.63013" lon="1.72602">
        <ele>2102.195</ele>
        <time>2021-08-06T08:27:12Z</time>
      </trkpt>
      <trkpt lat="42.63013" lon="1.72602">
        <ele>2102.196</ele>
        <time>2021-08-06T08:27:14Z</time>
      </trkpt>
      <trkpt lat="42.63013" lon="1.72602">
        <ele>2102.192</ele>
        <time>2021-08-06T08:27:16Z</time>
      </trkpt>
      <trkpt lat="42.63013" lon="1.72602">
        <ele>2102.189</ele>
        <time>2021-08-06T08:27:18Z</time>
      </trkpt>
      <trkpt lat="42.63013" lon="1.72602">
        <ele>2102.178</ele>
        <time>2021-08-06T08:27:20Z</time>
      </trkpt>
      <trkpt lat="42.63013" lon="1.72602">
        <ele>2102.162</ele>
        <time>2021-08-06T08:27:22Z</time>
      </trkpt>
      <trkpt lat="42.63013" lon="1.72602">
        <ele>2102.146</ele>
        <time>2021-08-06T08:27:24Z</time>
      </trkpt>
      <trkpt lat="42.63013" lon="1.72602">
        <ele>2102.148</ele>
        <time>2021-08-06T08:27:26Z</time>
      </trkpt>
      <trkpt lat="42.63013" lon="1.72602">
        <ele>2102.146</ele>
        <time>2021-08-06T08:27:28Z</time>
      </trkpt>
      <trkpt lat="42.63013" lon="1.72602">
        <ele>2102.144</ele>
        <time>2021-08-06T08:27:30Z</time>
      </trkpt>
      <trkpt lat="42.63013" lon="1.72602">
        <ele>2102.152</ele>
        <time>2021-08-06T08:27:32Z</time>
      </trkpt>
      <trkpt lat="42.63013" lon="1.72602">
        <ele>2102.151</ele>
        <time>2021-08-06T08:27:34Z</time>
      </trkpt>
      <trkpt lat="42.63013" lon="1.72602">
        <ele>2102.144</ele>
        <time>2021-08-06T08:27:36Z</time>
      </trkpt>
      <trkpt lat="42.63013" lon="1.72602">
        <ele>2102.145</ele>
        <time>2021-08-06T08:27:38Z</time>
      </trkpt>
      <trkpt lat="42.63013" lon="1.72602">
        <ele>2102.144</ele>
        <time>2021-08-06T08:27:40Z</time>
      </trkpt>
      <trkpt lat="42.63013" lon="1.72602">
        <ele>2102.14</ele>
        <time>2021-08-06T08:27:42Z</time>
      </trkpt>
      <trkpt lat="42.63013" lon="1.72602">
        <ele>2102.143</ele>
        <time>2021-08-06T08:27:44Z</time>
      </trkpt>
      <trkpt lat="42.63013" lon="1.72602">
        <ele>2102.146</ele>
        <time>2021-08-06T08:27:46Z</time>
      </trkpt>
      <trkpt lat="42.63013" lon="1.72602">
        <ele>2102.146</ele>
        <time>2021-08-06T08:27:48Z</time>
      </trkpt>
      <trkpt lat="42.63013" lon="1.72602">
        <ele>2102.147</ele>
        <time>2021-08-06T08:27:50Z</time>
      </trkpt>
      <trkpt lat="42.63013" lon="1.72602">
        <ele>2102.155</ele>
        <time>2021-08-06T08:27:52Z</time>
      </trkpt>
      <trkpt lat="42.63013" lon="1.72602">
        <ele>2102.164</ele>
        <time>2021-08-06T08:27:54Z</time>
      </trkpt>
      <trkpt lat="42.63013" lon="1.72602">
        <ele>2102.169</ele>
        <time>2021-08-06T08:27:56Z</time>
      </trkpt>
      <trkpt lat="42.63012" lon="1.72602">
        <ele>2102.304</ele>
        <time>2021-08-06T08:27:58Z</time>
      </trkpt>
      <trkpt lat="42.63012" lon="1.72602">
        <ele>2102.299</ele>
        <time>2021-08-06T08:28:00Z</time>
      </trkpt>
      <trkpt lat="42.63012" lon="1.72602">
        <ele>2102.304</ele>
        <time>2021-08-06T08:28:02Z</time>
      </trkpt>
      <trkpt lat="42.63012" lon="1.72602">
        <ele>2102.301</ele>
        <time>2021-08-06T08:28:04Z</time>
      </trkpt>
      <trkpt lat="42.63012" lon="1.72602">
        <ele>2102.302</ele>
        <time>2021-08-06T08:28:06Z</time>
      </trkpt>
      <trkpt lat="42.63012" lon="1.72602">
        <ele>2102.3</ele>
        <time>2021-08-06T08:28:08Z</time>
      </trkpt>
      <trkpt lat="42.63012" lon="1.72602">
        <ele>2101.872</ele>
        <time>2021-08-06T08:28:10Z</time>
      </trkpt>
      <trkpt lat="42.63012" lon="1.72602">
        <ele>2102.566</ele>
        <time>2021-08-06T08:28:12Z</time>
      </trkpt>
      <trkpt lat="42.63012" lon="1.72602">
        <ele>2102.556</ele>
        <time>2021-08-06T08:28:14Z</time>
      </trkpt>
      <trkpt lat="42.63012" lon="1.72602">
        <ele>2102.558</ele>
        <time>2021-08-06T08:28:16Z</time>
      </trkpt>
      <trkpt lat="42.63012" lon="1.72602">
        <ele>2102.607</ele>
        <time>2021-08-06T08:28:18Z</time>
      </trkpt>
      <trkpt lat="42.63012" lon="1.72602">
        <ele>2102.61</ele>
        <time>2021-08-06T08:28:20Z</time>
      </trkpt>
      <trkpt lat="42.63011" lon="1.72602">
        <ele>2103.137</ele>
        <time>2021-08-06T08:28:22Z</time>
      </trkpt>
      <trkpt lat="42.63011" lon="1.72603">
        <ele>2103.494</ele>
        <time>2021-08-06T08:28:24Z</time>
      </trkpt>
      <trkpt lat="42.63009" lon="1.72604">
        <ele>2103.788</ele>
        <time>2021-08-06T08:28:26Z</time>
      </trkpt>
      <trkpt lat="42.63009" lon="1.72605">
        <ele>2103.281</ele>
        <time>2021-08-06T08:28:28Z</time>
      </trkpt>
      <trkpt lat="42.63009" lon="1.72605">
        <ele>2103.317</ele>
        <time>2021-08-06T08:28:30Z</time>
      </trkpt>
      <trkpt lat="42.63008" lon="1.72606">
        <ele>2103.353</ele>
        <time>2021-08-06T08:28:32Z</time>
      </trkpt>
      <trkpt lat="42.63007" lon="1.72606">
        <ele>2102.846</ele>
        <time>2021-08-06T08:28:34Z</time>
      </trkpt>
      <trkpt lat="42.63004" lon="1.72606">
        <ele>2102.868</ele>
        <time>2021-08-06T08:28:36Z</time>
      </trkpt>
      <trkpt lat="42.63002" lon="1.72605">
        <ele>2102.976</ele>
        <time>2021-08-06T08:28:38Z</time>
      </trkpt>
      <trkpt lat="42.63" lon="1.72605">
        <ele>2103.243</ele>
        <time>2021-08-06T08:28:40Z</time>
      </trkpt>
      <trkpt lat="42.63" lon="1.72604">
        <ele>2103.618</ele>
        <time>2021-08-06T08:28:42Z</time>
      </trkpt>
      <trkpt lat="42.62998" lon="1.72604">
        <ele>2103.725</ele>
        <time>2021-08-06T08:28:44Z</time>
      </trkpt>
      <trkpt lat="42.62997" lon="1.72604">
        <ele>2103.641</ele>
        <time>2021-08-06T08:28:46Z</time>
      </trkpt>
      <trkpt lat="42.62996" lon="1.72604">
        <ele>2103.761</ele>
        <time>2021-08-06T08:28:48Z</time>
      </trkpt>
      <trkpt lat="42.62996" lon="1.72603">
        <ele>2104.496</ele>
        <time>2021-08-06T08:28:50Z</time>
      </trkpt>
      <trkpt lat="42.62995" lon="1.72601">
        <ele>2105.037</ele>
        <time>2021-08-06T08:28:52Z</time>
      </trkpt>
      <trkpt lat="42.62993" lon="1.72598">
        <ele>2104.143</ele>
        <time>2021-08-06T08:28:54Z</time>
      </trkpt>
      <trkpt lat="42.62991" lon="1.72594">
        <ele>2104.319</ele>
        <time>2021-08-06T08:28:56Z</time>
      </trkpt>
      <trkpt lat="42.62989" lon="1.72593">
        <ele>2104.336</ele>
        <time>2021-08-06T08:28:58Z</time>
      </trkpt>
      <trkpt lat="42.62987" lon="1.72592">
        <ele>2104.114</ele>
        <time>2021-08-06T08:29:00Z</time>
      </trkpt>
      <trkpt lat="42.62987" lon="1.72588">
        <ele>2103.997</ele>
        <time>2021-08-06T08:29:02Z</time>
      </trkpt>
      <trkpt lat="42.62985" lon="1.72585">
        <ele>2104.536</ele>
        <time>2021-08-06T08:29:04Z</time>
      </trkpt>
      <trkpt lat="42.62984" lon="1.72583">
        <ele>2104.355</ele>
        <time>2021-08-06T08:29:06Z</time>
      </trkpt>
      <trkpt lat="42.62984" lon="1.72581">
        <ele>2103.628</ele>
        <time>2021-08-06T08:29:08Z</time>
      </trkpt>
      <trkpt lat="42.62984" lon="1.72577">
        <ele>2103.318</ele>
        <time>2021-08-06T08:29:10Z</time>
      </trkpt>
      <trkpt lat="42.62984" lon="1.72574">
        <ele>2102.036</ele>
        <time>2021-08-06T08:29:12Z</time>
      </trkpt>
      <trkpt lat="42.62984" lon="1.72572">
        <ele>2101.498</ele>
        <time>2021-08-06T08:29:14Z</time>
      </trkpt>
      <trkpt lat="42.62985" lon="1.7257">
        <ele>2102.283</ele>
        <time>2021-08-06T08:29:16Z</time>
      </trkpt>
      <trkpt lat="42.62984" lon="1.72567">
        <ele>2102.685</ele>
        <time>2021-08-06T08:29:18Z</time>
      </trkpt>
      <trkpt lat="42.62985" lon="1.72566">
        <ele>2103.238</ele>
        <time>2021-08-06T08:29:20Z</time>
      </trkpt>
      <trkpt lat="42.62985" lon="1.72564">
        <ele>2103.792</ele>
        <time>2021-08-06T08:29:22Z</time>
      </trkpt>
      <trkpt lat="42.62986" lon="1.72564">
        <ele>2103.936</ele>
        <time>2021-08-06T08:29:24Z</time>
      </trkpt>
      <trkpt lat="42.62987" lon="1.72563">
        <ele>2105.386</ele>
        <time>2021-08-06T08:29:26Z</time>
      </trkpt>
      <trkpt lat="42.62988" lon="1.72559">
        <ele>2105.87</ele>
        <time>2021-08-06T08:29:28Z</time>
      </trkpt>
      <trkpt lat="42.62989" lon="1.72558">
        <ele>2104.605</ele>
        <time>2021-08-06T08:29:30Z</time>
      </trkpt>
      <trkpt lat="42.62989" lon="1.72557">
        <ele>2105.262</ele>
        <time>2021-08-06T08:29:32Z</time>
      </trkpt>
      <trkpt lat="42.6299" lon="1.72555">
        <ele>2106.14</ele>
        <time>2021-08-06T08:29:34Z</time>
      </trkpt>
      <trkpt lat="42.6299" lon="1.72555">
        <ele>2106.287</ele>
        <time>2021-08-06T08:29:36Z</time>
      </trkpt>
      <trkpt lat="42.62989" lon="1.72554">
        <ele>2107.046</ele>
        <time>2021-08-06T08:29:38Z</time>
      </trkpt>
      <trkpt lat="42.62989" lon="1.72554">
        <ele>2107.28</ele>
        <time>2021-08-06T08:29:40Z</time>
      </trkpt>
      <trkpt lat="42.6299" lon="1.72553">
        <ele>2107.685</ele>
        <time>2021-08-06T08:29:42Z</time>
      </trkpt>
      <trkpt lat="42.6299" lon="1.72553">
        <ele>2107.745</ele>
        <time>2021-08-06T08:29:44Z</time>
      </trkpt>
      <trkpt lat="42.6299" lon="1.72553">
        <ele>2107.748</ele>
        <time>2021-08-06T08:29:46Z</time>
      </trkpt>
      <trkpt lat="42.6299" lon="1.72553">
        <ele>2108.25</ele>
        <time>2021-08-06T08:29:48Z</time>
      </trkpt>
      <trkpt lat="42.6299" lon="1.72554">
        <ele>2108.355</ele>
        <time>2021-08-06T08:29:50Z</time>
      </trkpt>
      <trkpt lat="42.62991" lon="1.72556">
        <ele>2108.314</ele>
        <time>2021-08-06T08:29:52Z</time>
      </trkpt>
      <trkpt lat="42.62991" lon="1.72556">
        <ele>2108.53</ele>
        <time>2021-08-06T08:29:54Z</time>
      </trkpt>
      <trkpt lat="42.62991" lon="1.72556">
        <ele>2108.678</ele>
        <time>2021-08-06T08:29:56Z</time>
      </trkpt>
      <trkpt lat="42.62991" lon="1.72556">
        <ele>2108.661</ele>
        <time>2021-08-06T08:29:58Z</time>
      </trkpt>
      <trkpt lat="42.62991" lon="1.72556">
        <ele>2108.66</ele>
        <time>2021-08-06T08:30:00Z</time>
      </trkpt>
      <trkpt lat="42.62991" lon="1.72556">
        <ele>2108.661</ele>
        <time>2021-08-06T08:30:02Z</time>
      </trkpt>
      <trkpt lat="42.62991" lon="1.72556">
        <ele>2108.653</ele>
        <time>2021-08-06T08:30:04Z</time>
      </trkpt>
      <trkpt lat="42.62991" lon="1.72556">
        <ele>2108.643</ele>
        <time>2021-08-06T08:30:06Z</time>
      </trkpt>
      <trkpt lat="42.62991" lon="1.72556">
        <ele>2108.276</ele>
        <time>2021-08-06T08:30:08Z</time>
      </trkpt>
      <trkpt lat="42.62991" lon="1.72557">
        <ele>2108.912</ele>
        <time>2021-08-06T08:30:10Z</time>
      </trkpt>
      <trkpt lat="42.62991" lon="1.72557">
        <ele>2108.909</ele>
        <time>2021-08-06T08:30:12Z</time>
      </trkpt>
      <trkpt lat="42.62992" lon="1.72558">
        <ele>2109.127</ele>
        <time>2021-08-06T08:30:14Z</time>
      </trkpt>
      <trkpt lat="42.62992" lon="1.72558">
        <ele>2109.125</ele>
        <time>2021-08-06T08:30:16Z</time>
      </trkpt>
      <trkpt lat="42.62992" lon="1.72558">
        <ele>2109.122</ele>
        <time>2021-08-06T08:30:18Z</time>
      </trkpt>
      <trkpt lat="42.62992" lon="1.72558">
        <ele>2109.112</ele>
        <time>2021-08-06T08:30:20Z</time>
      </trkpt>
      <trkpt lat="42.62992" lon="1.72558">
        <ele>2109.11</ele>
        <time>2021-08-06T08:30:22Z</time>
      </trkpt>
      <trkpt lat="42.62991" lon="1.72558">
        <ele>2108.95</ele>
        <time>2021-08-06T08:30:24Z</time>
      </trkpt>
      <trkpt lat="42.62991" lon="1.72558">
        <ele>2108.941</ele>
        <time>2021-08-06T08:30:26Z</time>
      </trkpt>
      <trkpt lat="42.62991" lon="1.72558">
        <ele>2108.936</ele>
        <time>2021-08-06T08:30:28Z</time>
      </trkpt>
      <trkpt lat="42.62991" lon="1.72558">
        <ele>2108.48</ele>
        <time>2021-08-06T08:30:30Z</time>
      </trkpt>
      <trkpt lat="42.62991" lon="1.72558">
        <ele>2108.18</ele>
        <time>2021-08-06T08:30:32Z</time>
      </trkpt>
      <trkpt lat="42.62991" lon="1.72558">
        <ele>2108.174</ele>
        <time>2021-08-06T08:30:34Z</time>
      </trkpt>
      <trkpt lat="42.62991" lon="1.72558">
        <ele>2108.169</ele>
        <time>2021-08-06T08:30:36Z</time>
      </trkpt>
      <trkpt lat="42.62991" lon="1.72558">
        <ele>2108.117</ele>
        <time>2021-08-06T08:30:38Z</time>
      </trkpt>
      <trkpt lat="42.62991" lon="1.72557">
        <ele>2108.354</ele>
        <time>2021-08-06T08:30:40Z</time>
      </trkpt>
      <trkpt lat="42.6299" lon="1.72558">
        <ele>2107.769</ele>
        <time>2021-08-06T08:30:42Z</time>
      </trkpt>
      <trkpt lat="42.6299" lon="1.72561">
        <ele>2106.851</ele>
        <time>2021-08-06T08:30:44Z</time>
      </trkpt>
      <trkpt lat="42.6299" lon="1.72564">
        <ele>2107</ele>
        <time>2021-08-06T08:30:46Z</time>
      </trkpt>
      <trkpt lat="42.62989" lon="1.72566">
        <ele>2106.251</ele>
        <time>2021-08-06T08:30:48Z</time>
      </trkpt>
      <trkpt lat="42.62988" lon="1.72568">
        <ele>2105.067</ele>
        <time>2021-08-06T08:30:50Z</time>
      </trkpt>
      <trkpt lat="42.62986" lon="1.72569">
        <ele>2105.449</ele>
        <time>2021-08-06T08:30:52Z</time>
      </trkpt>
      <trkpt lat="42.62984" lon="1.72571">
        <ele>2105.478</ele>
        <time>2021-08-06T08:30:54Z</time>
      </trkpt>
      <trkpt lat="42.62984" lon="1.72575">
        <ele>2104.931</ele>
        <time>2021-08-06T08:30:56Z</time>
      </trkpt>
      <trkpt lat="42.62983" lon="1.72578">
        <ele>2105.509</ele>
        <time>2021-08-06T08:30:58Z</time>
      </trkpt>
      <trkpt lat="42.6298" lon="1.7258">
        <ele>2104.561</ele>
        <time>2021-08-06T08:31:00Z</time>
      </trkpt>
      <trkpt lat="42.62978" lon="1.72582">
        <ele>2104.187</ele>
        <time>2021-08-06T08:31:02Z</time>
      </trkpt>
      <trkpt lat="42.62975" lon="1.72583">
        <ele>2103.378</ele>
        <time>2021-08-06T08:31:04Z</time>
      </trkpt>
      <trkpt lat="42.62974" lon="1.72583">
        <ele>2104.064</ele>
        <time>2021-08-06T08:31:06Z</time>
      </trkpt>
      <trkpt lat="42.62973" lon="1.72585">
        <ele>2103.445</ele>
        <time>2021-08-06T08:31:08Z</time>
      </trkpt>
      <trkpt lat="42.62971" lon="1.72586">
        <ele>2103.21</ele>
        <time>2021-08-06T08:31:10Z</time>
      </trkpt>
      <trkpt lat="42.6297" lon="1.72587">
        <ele>2103.24</ele>
        <time>2021-08-06T08:31:12Z</time>
      </trkpt>
      <trkpt lat="42.62968" lon="1.72585">
        <ele>2103.817</ele>
        <time>2021-08-06T08:31:14Z</time>
      </trkpt>
      <trkpt lat="42.62966" lon="1.72585">
        <ele>2104.202</ele>
        <time>2021-08-06T08:31:16Z</time>
      </trkpt>
      <trkpt lat="42.62965" lon="1.72585">
        <ele>2104.039</ele>
        <time>2021-08-06T08:31:18Z</time>
      </trkpt>
      <trkpt lat="42.62964" lon="1.72585">
        <ele>2103.898</ele>
        <time>2021-08-06T08:31:20Z</time>
      </trkpt>
      <trkpt lat="42.62963" lon="1.72585">
        <ele>2103.868</ele>
        <time>2021-08-06T08:31:22Z</time>
      </trkpt>
      <trkpt lat="42.62961" lon="1.72585">
        <ele>2104.413</ele>
        <time>2021-08-06T08:31:24Z</time>
      </trkpt>
      <trkpt lat="42.62961" lon="1.72584">
        <ele>2104.556</ele>
        <time>2021-08-06T08:31:26Z</time>
      </trkpt>
      <trkpt lat="42.6296" lon="1.72583">
        <ele>2104.779</ele>
        <time>2021-08-06T08:31:28Z</time>
      </trkpt>
      <trkpt lat="42.62959" lon="1.72581">
        <ele>2105.345</ele>
        <time>2021-08-06T08:31:30Z</time>
      </trkpt>
      <trkpt lat="42.62958" lon="1.72581">
        <ele>2105.31</ele>
        <time>2021-08-06T08:31:32Z</time>
      </trkpt>
      <trkpt lat="42.62957" lon="1.72579">
        <ele>2105.217</ele>
        <time>2021-08-06T08:31:34Z</time>
      </trkpt>
      <trkpt lat="42.62956" lon="1.72577">
        <ele>2105.391</ele>
        <time>2021-08-06T08:31:36Z</time>
      </trkpt>
      <trkpt lat="42.62954" lon="1.72577">
        <ele>2105.387</ele>
        <time>2021-08-06T08:31:38Z</time>
      </trkpt>
      <trkpt lat="42.62951" lon="1.72577">
        <ele>2105.291</ele>
        <time>2021-08-06T08:31:40Z</time>
      </trkpt>
      <trkpt lat="42.62948" lon="1.72575">
        <ele>2106.405</ele>
        <time>2021-08-06T08:31:42Z</time>
      </trkpt>
      <trkpt lat="42.62946" lon="1.72574">
        <ele>2106.781</ele>
        <time>2021-08-06T08:31:44Z</time>
      </trkpt>
      <trkpt lat="42.62946" lon="1.72571">
        <ele>2107.209</ele>
        <time>2021-08-06T08:31:46Z</time>
      </trkpt>
      <trkpt lat="42.62945" lon="1.72569">
        <ele>2106.731</ele>
        <time>2021-08-06T08:31:48Z</time>
      </trkpt>
      <trkpt lat="42.62943" lon="1.72569">
        <ele>2107.548</ele>
        <time>2021-08-06T08:31:50Z</time>
      </trkpt>
      <trkpt lat="42.62942" lon="1.72569">
        <ele>2107.445</ele>
        <time>2021-08-06T08:31:52Z</time>
      </trkpt>
      <trkpt lat="42.6294" lon="1.7257">
        <ele>2107.023</ele>
        <time>2021-08-06T08:31:54Z</time>
      </trkpt>
      <trkpt lat="42.62938" lon="1.72571">
        <ele>2107.518</ele>
        <time>2021-08-06T08:31:56Z</time>
      </trkpt>
      <trkpt lat="42.62936" lon="1.72572">
        <ele>2107.134</ele>
        <time>2021-08-06T08:31:58Z</time>
      </trkpt>
      <trkpt lat="42.62934" lon="1.72573">
        <ele>2107.59</ele>
        <time>2021-08-06T08:32:00Z</time>
      </trkpt>
      <trkpt lat="42.62933" lon="1.72575">
        <ele>2107.739</ele>
        <time>2021-08-06T08:32:02Z</time>
      </trkpt>
      <trkpt lat="42.62932" lon="1.72577">
        <ele>2107.123</ele>
        <time>2021-08-06T08:32:04Z</time>
      </trkpt>
      <trkpt lat="42.6293" lon="1.72578">
        <ele>2107.468</ele>
        <time>2021-08-06T08:32:06Z</time>
      </trkpt>
      <trkpt lat="42.62928" lon="1.72578">
        <ele>2107.011</ele>
        <time>2021-08-06T08:32:08Z</time>
      </trkpt>
      <trkpt lat="42.62927" lon="1.72579">
        <ele>2106.256</ele>
        <time>2021-08-06T08:32:10Z</time>
      </trkpt>
      <trkpt lat="42.62925" lon="1.7258">
        <ele>2105.672</ele>
        <time>2021-08-06T08:32:12Z</time>
      </trkpt>
      <trkpt lat="42.62923" lon="1.72579">
        <ele>2106.657</ele>
        <time>2021-08-06T08:32:14Z</time>
      </trkpt>
      <trkpt lat="42.62921" lon="1.72579">
        <ele>2106.647</ele>
        <time>2021-08-06T08:32:16Z</time>
      </trkpt>
      <trkpt lat="42.62919" lon="1.72578">
        <ele>2106.549</ele>
        <time>2021-08-06T08:32:18Z</time>
      </trkpt>
      <trkpt lat="42.62917" lon="1.72578">
        <ele>2105.318</ele>
        <time>2021-08-06T08:32:20Z</time>
      </trkpt>
      <trkpt lat="42.62915" lon="1.7258">
        <ele>2105.553</ele>
        <time>2021-08-06T08:32:22Z</time>
      </trkpt>
      <trkpt lat="42.62913" lon="1.72581">
        <ele>2105.214</ele>
        <time>2021-08-06T08:32:24Z</time>
      </trkpt>
      <trkpt lat="42.62911" lon="1.72583">
        <ele>2105.336</ele>
        <time>2021-08-06T08:32:26Z</time>
      </trkpt>
      <trkpt lat="42.6291" lon="1.72584">
        <ele>2105.255</ele>
        <time>2021-08-06T08:32:28Z</time>
      </trkpt>
      <trkpt lat="42.62908" lon="1.72584">
        <ele>2105.063</ele>
        <time>2021-08-06T08:32:30Z</time>
      </trkpt>
      <trkpt lat="42.62907" lon="1.72585">
        <ele>2104.466</ele>
        <time>2021-08-06T08:32:32Z</time>
      </trkpt>
      <trkpt lat="42.62906" lon="1.72586">
        <ele>2105.814</ele>
        <time>2021-08-06T08:32:34Z</time>
      </trkpt>
      <trkpt lat="42.62904" lon="1.72587">
        <ele>2107.053</ele>
        <time>2021-08-06T08:32:36Z</time>
      </trkpt>
      <trkpt lat="42.62903" lon="1.72588">
        <ele>2106.434</ele>
        <time>2021-08-06T08:32:38Z</time>
      </trkpt>
      <trkpt lat="42.62901" lon="1.7259">
        <ele>2106.025</ele>
        <time>2021-08-06T08:32:40Z</time>
      </trkpt>
      <trkpt lat="42.62899" lon="1.72592">
        <ele>2105.664</ele>
        <time>2021-08-06T08:32:42Z</time>
      </trkpt>
      <trkpt lat="42.62897" lon="1.72594">
        <ele>2105.843</ele>
        <time>2021-08-06T08:32:44Z</time>
      </trkpt>
      <trkpt lat="42.62896" lon="1.72595">
        <ele>2106.451</ele>
        <time>2021-08-06T08:32:46Z</time>
      </trkpt>
      <trkpt lat="42.62894" lon="1.72597">
        <ele>2106.313</ele>
        <time>2021-08-06T08:32:48Z</time>
      </trkpt>
      <trkpt lat="42.62891" lon="1.72599">
        <ele>2106.477</ele>
        <time>2021-08-06T08:32:50Z</time>
      </trkpt>
      <trkpt lat="42.6289" lon="1.72601">
        <ele>2106.574</ele>
        <time>2021-08-06T08:32:52Z</time>
      </trkpt>
      <trkpt lat="42.62888" lon="1.72604">
        <ele>2106.527</ele>
        <time>2021-08-06T08:32:54Z</time>
      </trkpt>
      <trkpt lat="42.62886" lon="1.72606">
        <ele>2106.466</ele>
        <time>2021-08-06T08:32:56Z</time>
      </trkpt>
      <trkpt lat="42.62885" lon="1.72608">
        <ele>2105.645</ele>
        <time>2021-08-06T08:32:58Z</time>
      </trkpt>
      <trkpt lat="42.62883" lon="1.72609">
        <ele>2104.975</ele>
        <time>2021-08-06T08:33:00Z</time>
      </trkpt>
      <trkpt lat="42.6288" lon="1.7261">
        <ele>2104.637</ele>
        <time>2021-08-06T08:33:02Z</time>
      </trkpt>
      <trkpt lat="42.62878" lon="1.72611">
        <ele>2104.956</ele>
        <time>2021-08-06T08:33:04Z</time>
      </trkpt>
      <trkpt lat="42.62876" lon="1.72612">
        <ele>2104.724</ele>
        <time>2021-08-06T08:33:06Z</time>
      </trkpt>
      <trkpt lat="42.62874" lon="1.72613">
        <ele>2104.953</ele>
        <time>2021-08-06T08:33:08Z</time>
      </trkpt>
      <trkpt lat="42.62872" lon="1.72615">
        <ele>2105.113</ele>
        <time>2021-08-06T08:33:10Z</time>
      </trkpt>
      <trkpt lat="42.6287" lon="1.72617">
        <ele>2104.741</ele>
        <time>2021-08-06T08:33:12Z</time>
      </trkpt>
      <trkpt lat="42.62868" lon="1.72618">
        <ele>2104.328</ele>
        <time>2021-08-06T08:33:14Z</time>
      </trkpt>
      <trkpt lat="42.62866" lon="1.72619">
        <ele>2104.772</ele>
        <time>2021-08-06T08:33:16Z</time>
      </trkpt>
      <trkpt lat="42.62863" lon="1.7262">
        <ele>2103.535</ele>
        <time>2021-08-06T08:33:18Z</time>
      </trkpt>
      <trkpt lat="42.62861" lon="1.72621">
        <ele>2102.987</ele>
        <time>2021-08-06T08:33:20Z</time>
      </trkpt>
      <trkpt lat="42.62859" lon="1.72621">
        <ele>2102.576</ele>
        <time>2021-08-06T08:33:22Z</time>
      </trkpt>
      <trkpt lat="42.62857" lon="1.72622">
        <ele>2102.327</ele>
        <time>2021-08-06T08:33:24Z</time>
      </trkpt>
      <trkpt lat="42.62855" lon="1.72624">
        <ele>2102.783</ele>
        <time>2021-08-06T08:33:26Z</time>
      </trkpt>
      <trkpt lat="42.62854" lon="1.72627">
        <ele>2103.23</ele>
        <time>2021-08-06T08:33:28Z</time>
      </trkpt>
      <trkpt lat="42.62852" lon="1.72628">
        <ele>2102.995</ele>
        <time>2021-08-06T08:33:30Z</time>
      </trkpt>
      <trkpt lat="42.62851" lon="1.7263">
        <ele>2103.173</ele>
        <time>2021-08-06T08:33:32Z</time>
      </trkpt>
      <trkpt lat="42.62851" lon="1.72632">
        <ele>2103.865</ele>
        <time>2021-08-06T08:33:34Z</time>
      </trkpt>
      <trkpt lat="42.62851" lon="1.72634">
        <ele>2103.869</ele>
        <time>2021-08-06T08:33:36Z</time>
      </trkpt>
      <trkpt lat="42.62849" lon="1.72636">
        <ele>2103.661</ele>
        <time>2021-08-06T08:33:38Z</time>
      </trkpt>
      <trkpt lat="42.62848" lon="1.72637">
        <ele>2104.558</ele>
        <time>2021-08-06T08:33:40Z</time>
      </trkpt>
      <trkpt lat="42.62847" lon="1.72637">
        <ele>2104.254</ele>
        <time>2021-08-06T08:33:42Z</time>
      </trkpt>
      <trkpt lat="42.62845" lon="1.72637">
        <ele>2104.32</ele>
        <time>2021-08-06T08:33:44Z</time>
      </trkpt>
      <trkpt lat="42.62844" lon="1.72636">
        <ele>2103.356</ele>
        <time>2021-08-06T08:33:46Z</time>
      </trkpt>
      <trkpt lat="42.62845" lon="1.72636">
        <ele>2103.571</ele>
        <time>2021-08-06T08:33:48Z</time>
      </trkpt>
      <trkpt lat="42.62844" lon="1.72636">
        <ele>2103.337</ele>
        <time>2021-08-06T08:33:50Z</time>
      </trkpt>
      <trkpt lat="42.62842" lon="1.72636">
        <ele>2103.057</ele>
        <time>2021-08-06T08:33:52Z</time>
      </trkpt>
      <trkpt lat="42.6284" lon="1.72637">
        <ele>2101.257</ele>
        <time>2021-08-06T08:33:54Z</time>
      </trkpt>
      <trkpt lat="42.62838" lon="1.72636">
        <ele>2101.396</ele>
        <time>2021-08-06T08:33:56Z</time>
      </trkpt>
      <trkpt lat="42.62837" lon="1.72635">
        <ele>2101.043</ele>
        <time>2021-08-06T08:33:58Z</time>
      </trkpt>
      <trkpt lat="42.62837" lon="1.72635">
        <ele>2101.352</ele>
        <time>2021-08-06T08:34:00Z</time>
      </trkpt>
      <trkpt lat="42.62837" lon="1.72635">
        <ele>2101.479</ele>
        <time>2021-08-06T08:34:02Z</time>
      </trkpt>
      <trkpt lat="42.62837" lon="1.72635">
        <ele>2101.486</ele>
        <time>2021-08-06T08:34:04Z</time>
      </trkpt>
      <trkpt lat="42.62837" lon="1.72636">
        <ele>2102.667</ele>
        <time>2021-08-06T08:34:06Z</time>
      </trkpt>
      <trkpt lat="42.62836" lon="1.72637">
        <ele>2102.3</ele>
        <time>2021-08-06T08:34:08Z</time>
      </trkpt>
      <trkpt lat="42.62835" lon="1.72639">
        <ele>2102.668</ele>
        <time>2021-08-06T08:34:10Z</time>
      </trkpt>
      <trkpt lat="42.62834" lon="1.72642">
        <ele>2101.247</ele>
        <time>2021-08-06T08:34:12Z</time>
      </trkpt>
      <trkpt lat="42.62833" lon="1.72644">
        <ele>2100.104</ele>
        <time>2021-08-06T08:34:14Z</time>
      </trkpt>
      <trkpt lat="42.62834" lon="1.72646">
        <ele>2101.002</ele>
        <time>2021-08-06T08:34:16Z</time>
      </trkpt>
      <trkpt lat="42.62834" lon="1.72646">
        <ele>2101.017</ele>
        <time>2021-08-06T08:34:18Z</time>
      </trkpt>
      <trkpt lat="42.62834" lon="1.72646">
        <ele>2101.027</ele>
        <time>2021-08-06T08:34:20Z</time>
      </trkpt>
      <trkpt lat="42.62834" lon="1.72646">
        <ele>2101.038</ele>
        <time>2021-08-06T08:34:22Z</time>
      </trkpt>
      <trkpt lat="42.62834" lon="1.72647">
        <ele>2101.169</ele>
        <time>2021-08-06T08:34:24Z</time>
      </trkpt>
      <trkpt lat="42.62834" lon="1.72647">
        <ele>2101.171</ele>
        <time>2021-08-06T08:34:26Z</time>
      </trkpt>
      <trkpt lat="42.62834" lon="1.72649">
        <ele>2102.076</ele>
        <time>2021-08-06T08:34:28Z</time>
      </trkpt>
      <trkpt lat="42.62834" lon="1.72649">
        <ele>2101.843</ele>
        <time>2021-08-06T08:34:30Z</time>
      </trkpt>
      <trkpt lat="42.62833" lon="1.72651">
        <ele>2103.71</ele>
        <time>2021-08-06T08:34:32Z</time>
      </trkpt>
      <trkpt lat="42.62832" lon="1.72653">
        <ele>2104.87</ele>
        <time>2021-08-06T08:34:34Z</time>
      </trkpt>
      <trkpt lat="42.62832" lon="1.72655">
        <ele>2105.235</ele>
        <time>2021-08-06T08:34:36Z</time>
      </trkpt>
      <trkpt lat="42.6283" lon="1.72656">
        <ele>2105.722</ele>
        <time>2021-08-06T08:34:38Z</time>
      </trkpt>
      <trkpt lat="42.62829" lon="1.72657">
        <ele>2106.001</ele>
        <time>2021-08-06T08:34:40Z</time>
      </trkpt>
      <trkpt lat="42.62828" lon="1.7266">
        <ele>2106.44</ele>
        <time>2021-08-06T08:34:42Z</time>
      </trkpt>
      <trkpt lat="42.62826" lon="1.72661">
        <ele>2106.723</ele>
        <time>2021-08-06T08:34:44Z</time>
      </trkpt>
      <trkpt lat="42.62826" lon="1.7266">
        <ele>2106.639</ele>
        <time>2021-08-06T08:34:46Z</time>
      </trkpt>
      <trkpt lat="42.62826" lon="1.72661">
        <ele>2107.94</ele>
        <time>2021-08-06T08:34:48Z</time>
      </trkpt>
      <trkpt lat="42.62822" lon="1.72663">
        <ele>2106.585</ele>
        <time>2021-08-06T08:34:50Z</time>
      </trkpt>
      <trkpt lat="42.62819" lon="1.72666">
        <ele>2107.417</ele>
        <time>2021-08-06T08:34:52Z</time>
      </trkpt>
      <trkpt lat="42.62816" lon="1.72669">
        <ele>2109.033</ele>
        <time>2021-08-06T08:34:54Z</time>
      </trkpt>
      <trkpt lat="42.62815" lon="1.72671">
        <ele>2105.871</ele>
        <time>2021-08-06T08:34:56Z</time>
      </trkpt>
      <trkpt lat="42.62811" lon="1.72668">
        <ele>2105.904</ele>
        <time>2021-08-06T08:34:58Z</time>
      </trkpt>
      <trkpt lat="42.6281" lon="1.72671">
        <ele>2107.799</ele>
        <time>2021-08-06T08:35:00Z</time>
      </trkpt>
      <trkpt lat="42.6281" lon="1.72673">
        <ele>2106.682</ele>
        <time>2021-08-06T08:35:02Z</time>
      </trkpt>
      <trkpt lat="42.6281" lon="1.72675">
        <ele>2107.268</ele>
        <time>2021-08-06T08:35:04Z</time>
      </trkpt>
      <trkpt lat="42.6281" lon="1.72678">
        <ele>2107.672</ele>
        <time>2021-08-06T08:35:06Z</time>
      </trkpt>
      <trkpt lat="42.6281" lon="1.72681">
        <ele>2108.505</ele>
        <time>2021-08-06T08:35:08Z</time>
      </trkpt>
      <trkpt lat="42.62809" lon="1.72683">
        <ele>2109.781</ele>
        <time>2021-08-06T08:35:10Z</time>
      </trkpt>
      <trkpt lat="42.62808" lon="1.72683">
        <ele>2106.054</ele>
        <time>2021-08-06T08:35:12Z</time>
      </trkpt>
      <trkpt lat="42.62808" lon="1.72685">
        <ele>2105.764</ele>
        <time>2021-08-06T08:35:14Z</time>
      </trkpt>
      <trkpt lat="42.62807" lon="1.72687">
        <ele>2106.827</ele>
        <time>2021-08-06T08:35:16Z</time>
      </trkpt>
      <trkpt lat="42.62807" lon="1.72689">
        <ele>2107.036</ele>
        <time>2021-08-06T08:35:18Z</time>
      </trkpt>
      <trkpt lat="42.62806" lon="1.72691">
        <ele>2107.572</ele>
        <time>2021-08-06T08:35:20Z</time>
      </trkpt>
      <trkpt lat="42.62805" lon="1.72691">
        <ele>2108.518</ele>
        <time>2021-08-06T08:35:22Z</time>
      </trkpt>
      <trkpt lat="42.62804" lon="1.72691">
        <ele>2108.484</ele>
        <time>2021-08-06T08:35:24Z</time>
      </trkpt>
      <trkpt lat="42.62803" lon="1.72692">
        <ele>2108.252</ele>
        <time>2021-08-06T08:35:26Z</time>
      </trkpt>
      <trkpt lat="42.62802" lon="1.72691">
        <ele>2108.212</ele>
        <time>2021-08-06T08:35:28Z</time>
      </trkpt>
      <trkpt lat="42.62801" lon="1.72691">
        <ele>2106.984</ele>
        <time>2021-08-06T08:35:30Z</time>
      </trkpt>
      <trkpt lat="42.628" lon="1.7269">
        <ele>2106.466</ele>
        <time>2021-08-06T08:35:32Z</time>
      </trkpt>
      <trkpt lat="42.62799" lon="1.72692">
        <ele>2107.251</ele>
        <time>2021-08-06T08:35:34Z</time>
      </trkpt>
      <trkpt lat="42.62799" lon="1.72694">
        <ele>2107.677</ele>
        <time>2021-08-06T08:35:36Z</time>
      </trkpt>
      <trkpt lat="42.62798" lon="1.72696">
        <ele>2108.322</ele>
        <time>2021-08-06T08:35:38Z</time>
      </trkpt>
      <trkpt lat="42.62798" lon="1.72696">
        <ele>2108.698</ele>
        <time>2021-08-06T08:35:40Z</time>
      </trkpt>
      <trkpt lat="42.62797" lon="1.72696">
        <ele>2109.999</ele>
        <time>2021-08-06T08:35:42Z</time>
      </trkpt>
      <trkpt lat="42.62796" lon="1.72697">
        <ele>2109.371</ele>
        <time>2021-08-06T08:35:44Z</time>
      </trkpt>
      <trkpt lat="42.62795" lon="1.72698">
        <ele>2110.521</ele>
        <time>2021-08-06T08:35:46Z</time>
      </trkpt>
      <trkpt lat="42.62794" lon="1.72698">
        <ele>2111.028</ele>
        <time>2021-08-06T08:35:48Z</time>
      </trkpt>
      <trkpt lat="42.62794" lon="1.72699">
        <ele>2110.795</ele>
        <time>2021-08-06T08:35:50Z</time>
      </trkpt>
      <trkpt lat="42.62793" lon="1.72699">
        <ele>2110.956</ele>
        <time>2021-08-06T08:35:52Z</time>
      </trkpt>
      <trkpt lat="42.62792" lon="1.72697">
        <ele>2112.172</ele>
        <time>2021-08-06T08:35:54Z</time>
      </trkpt>
      <trkpt lat="42.62791" lon="1.72696">
        <ele>2111.829</ele>
        <time>2021-08-06T08:35:56Z</time>
      </trkpt>
      <trkpt lat="42.6279" lon="1.72693">
        <ele>2112.861</ele>
        <time>2021-08-06T08:35:58Z</time>
      </trkpt>
      <trkpt lat="42.6279" lon="1.72691">
        <ele>2114.538</ele>
        <time>2021-08-06T08:36:00Z</time>
      </trkpt>
      <trkpt lat="42.6279" lon="1.7269">
        <ele>2114.759</ele>
        <time>2021-08-06T08:36:02Z</time>
      </trkpt>
      <trkpt lat="42.62788" lon="1.72689">
        <ele>2115.471</ele>
        <time>2021-08-06T08:36:04Z</time>
      </trkpt>
      <trkpt lat="42.62787" lon="1.72689">
        <ele>2116.414</ele>
        <time>2021-08-06T08:36:06Z</time>
      </trkpt>
      <trkpt lat="42.62786" lon="1.72688">
        <ele>2116.815</ele>
        <time>2021-08-06T08:36:08Z</time>
      </trkpt>
      <trkpt lat="42.62785" lon="1.72688">
        <ele>2116.914</ele>
        <time>2021-08-06T08:36:10Z</time>
      </trkpt>
      <trkpt lat="42.62783" lon="1.72688">
        <ele>2116.132</ele>
        <time>2021-08-06T08:36:12Z</time>
      </trkpt>
      <trkpt lat="42.62783" lon="1.72687">
        <ele>2116.222</ele>
        <time>2021-08-06T08:36:14Z</time>
      </trkpt>
      <trkpt lat="42.62782" lon="1.72686">
        <ele>2116.16</ele>
        <time>2021-08-06T08:36:16Z</time>
      </trkpt>
      <trkpt lat="42.62782" lon="1.72686">
        <ele>2116.272</ele>
        <time>2021-08-06T08:36:18Z</time>
      </trkpt>
      <trkpt lat="42.62781" lon="1.72686">
        <ele>2117.685</ele>
        <time>2021-08-06T08:36:20Z</time>
      </trkpt>
      <trkpt lat="42.62781" lon="1.72686">
        <ele>2117.936</ele>
        <time>2021-08-06T08:36:22Z</time>
      </trkpt>
      <trkpt lat="42.62781" lon="1.72688">
        <ele>2118.104</ele>
        <time>2021-08-06T08:36:24Z</time>
      </trkpt>
      <trkpt lat="42.62781" lon="1.7269">
        <ele>2117.403</ele>
        <time>2021-08-06T08:36:26Z</time>
      </trkpt>
      <trkpt lat="42.62781" lon="1.72692">
        <ele>2117.722</ele>
        <time>2021-08-06T08:36:28Z</time>
      </trkpt>
      <trkpt lat="42.6278" lon="1.72691">
        <ele>2117.41</ele>
        <time>2021-08-06T08:36:30Z</time>
      </trkpt>
      <trkpt lat="42.6278" lon="1.72689">
        <ele>2119.121</ele>
        <time>2021-08-06T08:36:32Z</time>
      </trkpt>
      <trkpt lat="42.62779" lon="1.72688">
        <ele>2120.704</ele>
        <time>2021-08-06T08:36:34Z</time>
      </trkpt>
      <trkpt lat="42.62778" lon="1.72688">
        <ele>2120.868</ele>
        <time>2021-08-06T08:36:36Z</time>
      </trkpt>
      <trkpt lat="42.62778" lon="1.72687">
        <ele>2121.722</ele>
        <time>2021-08-06T08:36:38Z</time>
      </trkpt>
      <trkpt lat="42.62778" lon="1.72685">
        <ele>2122.375</ele>
        <time>2021-08-06T08:36:40Z</time>
      </trkpt>
      <trkpt lat="42.62777" lon="1.72684">
        <ele>2122.742</ele>
        <time>2021-08-06T08:36:42Z</time>
      </trkpt>
      <trkpt lat="42.62776" lon="1.72683">
        <ele>2122.663</ele>
        <time>2021-08-06T08:36:44Z</time>
      </trkpt>
      <trkpt lat="42.62776" lon="1.72682">
        <ele>2123.134</ele>
        <time>2021-08-06T08:36:46Z</time>
      </trkpt>
      <trkpt lat="42.62776" lon="1.72683">
        <ele>2123.35</ele>
        <time>2021-08-06T08:36:48Z</time>
      </trkpt>
      <trkpt lat="42.62776" lon="1.72684">
        <ele>2123.318</ele>
        <time>2021-08-06T08:36:50Z</time>
      </trkpt>
      <trkpt lat="42.62775" lon="1.72685">
        <ele>2123.169</ele>
        <time>2021-08-06T08:36:52Z</time>
      </trkpt>
      <trkpt lat="42.62774" lon="1.72685">
        <ele>2124.218</ele>
        <time>2021-08-06T08:36:54Z</time>
      </trkpt>
      <trkpt lat="42.62773" lon="1.72685">
        <ele>2125.022</ele>
        <time>2021-08-06T08:36:56Z</time>
      </trkpt>
      <trkpt lat="42.62773" lon="1.72686">
        <ele>2125.506</ele>
        <time>2021-08-06T08:36:58Z</time>
      </trkpt>
      <trkpt lat="42.62772" lon="1.72686">
        <ele>2125.005</ele>
        <time>2021-08-06T08:37:00Z</time>
      </trkpt>
      <trkpt lat="42.62771" lon="1.72686">
        <ele>2124.993</ele>
        <time>2021-08-06T08:37:02Z</time>
      </trkpt>
      <trkpt lat="42.6277" lon="1.72687">
        <ele>2124.898</ele>
        <time>2021-08-06T08:37:04Z</time>
      </trkpt>
      <trkpt lat="42.62769" lon="1.72688">
        <ele>2124.642</ele>
        <time>2021-08-06T08:37:06Z</time>
      </trkpt>
      <trkpt lat="42.62768" lon="1.72688">
        <ele>2124.628</ele>
        <time>2021-08-06T08:37:08Z</time>
      </trkpt>
      <trkpt lat="42.62767" lon="1.72689">
        <ele>2124.904</ele>
        <time>2021-08-06T08:37:10Z</time>
      </trkpt>
      <trkpt lat="42.62766" lon="1.7269">
        <ele>2124.677</ele>
        <time>2021-08-06T08:37:12Z</time>
      </trkpt>
      <trkpt lat="42.62766" lon="1.7269">
        <ele>2125.048</ele>
        <time>2021-08-06T08:37:14Z</time>
      </trkpt>
      <trkpt lat="42.62764" lon="1.72691">
        <ele>2125.729</ele>
        <time>2021-08-06T08:37:16Z</time>
      </trkpt>
      <trkpt lat="42.62763" lon="1.72691">
        <ele>2126.243</ele>
        <time>2021-08-06T08:37:18Z</time>
      </trkpt>
      <trkpt lat="42.62762" lon="1.72692">
        <ele>2127.17</ele>
        <time>2021-08-06T08:37:20Z</time>
      </trkpt>
      <trkpt lat="42.62761" lon="1.72691">
        <ele>2127.84</ele>
        <time>2021-08-06T08:37:22Z</time>
      </trkpt>
      <trkpt lat="42.62759" lon="1.72691">
        <ele>2126.962</ele>
        <time>2021-08-06T08:37:24Z</time>
      </trkpt>
      <trkpt lat="42.62758" lon="1.72692">
        <ele>2126.201</ele>
        <time>2021-08-06T08:37:26Z</time>
      </trkpt>
      <trkpt lat="42.62756" lon="1.72692">
        <ele>2125.56</ele>
        <time>2021-08-06T08:37:28Z</time>
      </trkpt>
      <trkpt lat="42.62755" lon="1.72692">
        <ele>2124.739</ele>
        <time>2021-08-06T08:37:30Z</time>
      </trkpt>
      <trkpt lat="42.62753" lon="1.72693">
        <ele>2124.131</ele>
        <time>2021-08-06T08:37:32Z</time>
      </trkpt>
      <trkpt lat="42.62751" lon="1.72694">
        <ele>2124.189</ele>
        <time>2021-08-06T08:37:34Z</time>
      </trkpt>
      <trkpt lat="42.6275" lon="1.72695">
        <ele>2123.539</ele>
        <time>2021-08-06T08:37:36Z</time>
      </trkpt>
      <trkpt lat="42.62748" lon="1.72694">
        <ele>2124.019</ele>
        <time>2021-08-06T08:37:38Z</time>
      </trkpt>
      <trkpt lat="42.62747" lon="1.72694">
        <ele>2124.294</ele>
        <time>2021-08-06T08:37:40Z</time>
      </trkpt>
      <trkpt lat="42.62745" lon="1.72693">
        <ele>2124.653</ele>
        <time>2021-08-06T08:37:42Z</time>
      </trkpt>
      <trkpt lat="42.62744" lon="1.72692">
        <ele>2125.731</ele>
        <time>2021-08-06T08:37:44Z</time>
      </trkpt>
      <trkpt lat="42.62743" lon="1.72692">
        <ele>2126.14</ele>
        <time>2021-08-06T08:37:46Z</time>
      </trkpt>
      <trkpt lat="42.62741" lon="1.72691">
        <ele>2127.274</ele>
        <time>2021-08-06T08:37:48Z</time>
      </trkpt>
      <trkpt lat="42.6274" lon="1.7269">
        <ele>2127.271</ele>
        <time>2021-08-06T08:37:50Z</time>
      </trkpt>
      <trkpt lat="42.62739" lon="1.72689">
        <ele>2127.349</ele>
        <time>2021-08-06T08:37:52Z</time>
      </trkpt>
      <trkpt lat="42.62739" lon="1.72687">
        <ele>2128.286</ele>
        <time>2021-08-06T08:37:54Z</time>
      </trkpt>
      <trkpt lat="42.62738" lon="1.72686">
        <ele>2128.423</ele>
        <time>2021-08-06T08:37:56Z</time>
      </trkpt>
      <trkpt lat="42.62738" lon="1.72686">
        <ele>2128.478</ele>
        <time>2021-08-06T08:37:57Z</time>
      </trkpt>
      <trkpt lat="42.62736" lon="1.72687">
        <ele>2128.988</ele>
        <time>2021-08-06T08:38:00Z</time>
      </trkpt>
      <trkpt lat="42.62736" lon="1.72687">
        <ele>2128.989</ele>
        <time>2021-08-06T08:38:02Z</time>
      </trkpt>
      <trkpt lat="42.62736" lon="1.72687">
        <ele>2128.98</ele>
        <time>2021-08-06T08:38:04Z</time>
      </trkpt>
      <trkpt lat="42.62736" lon="1.72687">
        <ele>2128.981</ele>
        <time>2021-08-06T08:38:06Z</time>
      </trkpt>
      <trkpt lat="42.62736" lon="1.72686">
        <ele>2128.579</ele>
        <time>2021-08-06T08:38:08Z</time>
      </trkpt>
      <trkpt lat="42.62735" lon="1.72686">
        <ele>2128.589</ele>
        <time>2021-08-06T08:38:10Z</time>
      </trkpt>
      <trkpt lat="42.62734" lon="1.72687">
        <ele>2128.546</ele>
        <time>2021-08-06T08:38:12Z</time>
      </trkpt>
      <trkpt lat="42.62734" lon="1.72688">
        <ele>2128.576</ele>
        <time>2021-08-06T08:38:14Z</time>
      </trkpt>
      <trkpt lat="42.62734" lon="1.72688">
        <ele>2128.574</ele>
        <time>2021-08-06T08:38:16Z</time>
      </trkpt>
      <trkpt lat="42.62734" lon="1.72688">
        <ele>2128.838</ele>
        <time>2021-08-06T08:38:18Z</time>
      </trkpt>
      <trkpt lat="42.62734" lon="1.72687">
        <ele>2128.67</ele>
        <time>2021-08-06T08:38:20Z</time>
      </trkpt>
      <trkpt lat="42.62733" lon="1.72686">
        <ele>2128.763</ele>
        <time>2021-08-06T08:38:22Z</time>
      </trkpt>
      <trkpt lat="42.62733" lon="1.72685">
        <ele>2129.523</ele>
        <time>2021-08-06T08:38:24Z</time>
      </trkpt>
      <trkpt lat="42.62733" lon="1.72685">
        <ele>2129.651</ele>
        <time>2021-08-06T08:38:26Z</time>
      </trkpt>
      <trkpt lat="42.62732" lon="1.72683">
        <ele>2129.953</ele>
        <time>2021-08-06T08:38:28Z</time>
      </trkpt>
      <trkpt lat="42.62731" lon="1.72681">
        <ele>2129.472</ele>
        <time>2021-08-06T08:38:30Z</time>
      </trkpt>
      <trkpt lat="42.6273" lon="1.72679">
        <ele>2129.519</ele>
        <time>2021-08-06T08:38:32Z</time>
      </trkpt>
      <trkpt lat="42.6273" lon="1.72679">
        <ele>2129.529</ele>
        <time>2021-08-06T08:38:34Z</time>
      </trkpt>
      <trkpt lat="42.6273" lon="1.72679">
        <ele>2129.312</ele>
        <time>2021-08-06T08:38:36Z</time>
      </trkpt>
      <trkpt lat="42.62728" lon="1.72677">
        <ele>2129.542</ele>
        <time>2021-08-06T08:38:38Z</time>
      </trkpt>
      <trkpt lat="42.62727" lon="1.72676">
        <ele>2129.329</ele>
        <time>2021-08-06T08:38:40Z</time>
      </trkpt>
      <trkpt lat="42.62727" lon="1.72674">
        <ele>2129.1</ele>
        <time>2021-08-06T08:38:42Z</time>
      </trkpt>
      <trkpt lat="42.62727" lon="1.72674">
        <ele>2129.688</ele>
        <time>2021-08-06T08:38:44Z</time>
      </trkpt>
      <trkpt lat="42.62727" lon="1.72675">
        <ele>2129.693</ele>
        <time>2021-08-06T08:38:46Z</time>
      </trkpt>
      <trkpt lat="42.62727" lon="1.72675">
        <ele>2129.69</ele>
        <time>2021-08-06T08:38:48Z</time>
      </trkpt>
      <trkpt lat="42.62726" lon="1.72674">
        <ele>2129.623</ele>
        <time>2021-08-06T08:38:50Z</time>
      </trkpt>
      <trkpt lat="42.62724" lon="1.72673">
        <ele>2130.494</ele>
        <time>2021-08-06T08:38:52Z</time>
      </trkpt>
      <trkpt lat="42.62723" lon="1.72673">
        <ele>2130.115</ele>
        <time>2021-08-06T08:38:54Z</time>
      </trkpt>
      <trkpt lat="42.62722" lon="1.72671">
        <ele>2129.744</ele>
        <time>2021-08-06T08:38:56Z</time>
      </trkpt>
      <trkpt lat="42.62721" lon="1.7267">
        <ele>2129.866</ele>
        <time>2021-08-06T08:38:58Z</time>
      </trkpt>
      <trkpt lat="42.62719" lon="1.72669">
        <ele>2130.379</ele>
        <time>2021-08-06T08:39:00Z</time>
      </trkpt>
      <trkpt lat="42.62718" lon="1.72667">
        <ele>2129.803</ele>
        <time>2021-08-06T08:39:02Z</time>
      </trkpt>
      <trkpt lat="42.62717" lon="1.72667">
        <ele>2129.863</ele>
        <time>2021-08-06T08:39:04Z</time>
      </trkpt>
      <trkpt lat="42.62717" lon="1.72666">
        <ele>2130.453</ele>
        <time>2021-08-06T08:39:06Z</time>
      </trkpt>
      <trkpt lat="42.62717" lon="1.72667">
        <ele>2130.337</ele>
        <time>2021-08-06T08:39:08Z</time>
      </trkpt>
      <trkpt lat="42.62717" lon="1.72666">
        <ele>2130.127</ele>
        <time>2021-08-06T08:39:10Z</time>
      </trkpt>
      <trkpt lat="42.62716" lon="1.72664">
        <ele>2130.012</ele>
        <time>2021-08-06T08:39:12Z</time>
      </trkpt>
      <trkpt lat="42.62715" lon="1.72663">
        <ele>2129.177</ele>
        <time>2021-08-06T08:39:14Z</time>
      </trkpt>
      <trkpt lat="42.62714" lon="1.72661">
        <ele>2129.807</ele>
        <time>2021-08-06T08:39:16Z</time>
      </trkpt>
      <trkpt lat="42.62714" lon="1.72659">
        <ele>2130.038</ele>
        <time>2021-08-06T08:39:18Z</time>
      </trkpt>
      <trkpt lat="42.62713" lon="1.72661">
        <ele>2129.709</ele>
        <time>2021-08-06T08:39:20Z</time>
      </trkpt>
      <trkpt lat="42.62712" lon="1.72662">
        <ele>2129.323</ele>
        <time>2021-08-06T08:39:22Z</time>
      </trkpt>
      <trkpt lat="42.62711" lon="1.72662">
        <ele>2129.528</ele>
        <time>2021-08-06T08:39:24Z</time>
      </trkpt>
      <trkpt lat="42.62709" lon="1.72662">
        <ele>2128.625</ele>
        <time>2021-08-06T08:39:26Z</time>
      </trkpt>
      <trkpt lat="42.62707" lon="1.72662">
        <ele>2128.679</ele>
        <time>2021-08-06T08:39:28Z</time>
      </trkpt>
      <trkpt lat="42.62706" lon="1.72662">
        <ele>2128.313</ele>
        <time>2021-08-06T08:39:30Z</time>
      </trkpt>
      <trkpt lat="42.62705" lon="1.72662">
        <ele>2128.383</ele>
        <time>2021-08-06T08:39:32Z</time>
      </trkpt>
      <trkpt lat="42.62703" lon="1.72661">
        <ele>2128.1</ele>
        <time>2021-08-06T08:39:34Z</time>
      </trkpt>
      <trkpt lat="42.62702" lon="1.7266">
        <ele>2127.558</ele>
        <time>2021-08-06T08:39:36Z</time>
      </trkpt>
      <trkpt lat="42.627" lon="1.7266">
        <ele>2128.21</ele>
        <time>2021-08-06T08:39:38Z</time>
      </trkpt>
      <trkpt lat="42.62698" lon="1.7266">
        <ele>2127.325</ele>
        <time>2021-08-06T08:39:40Z</time>
      </trkpt>
      <trkpt lat="42.62697" lon="1.72659">
        <ele>2127.448</ele>
        <time>2021-08-06T08:39:42Z</time>
      </trkpt>
      <trkpt lat="42.62695" lon="1.72657">
        <ele>2127.391</ele>
        <time>2021-08-06T08:39:44Z</time>
      </trkpt>
      <trkpt lat="42.62694" lon="1.72655">
        <ele>2127.2</ele>
        <time>2021-08-06T08:39:46Z</time>
      </trkpt>
      <trkpt lat="42.62693" lon="1.72653">
        <ele>2125.995</ele>
        <time>2021-08-06T08:39:48Z</time>
      </trkpt>
      <trkpt lat="42.62692" lon="1.72653">
        <ele>2126.088</ele>
        <time>2021-08-06T08:39:50Z</time>
      </trkpt>
      <trkpt lat="42.62691" lon="1.72653">
        <ele>2125.9</ele>
        <time>2021-08-06T08:39:52Z</time>
      </trkpt>
      <trkpt lat="42.6269" lon="1.72653">
        <ele>2125.845</ele>
        <time>2021-08-06T08:39:54Z</time>
      </trkpt>
      <trkpt lat="42.62689" lon="1.72652">
        <ele>2125.744</ele>
        <time>2021-08-06T08:39:56Z</time>
      </trkpt>
      <trkpt lat="42.62688" lon="1.72652">
        <ele>2125.428</ele>
        <time>2021-08-06T08:39:58Z</time>
      </trkpt>
      <trkpt lat="42.62687" lon="1.72652">
        <ele>2124.82</ele>
        <time>2021-08-06T08:40:00Z</time>
      </trkpt>
      <trkpt lat="42.62686" lon="1.72652">
        <ele>2125.163</ele>
        <time>2021-08-06T08:40:02Z</time>
      </trkpt>
      <trkpt lat="42.62684" lon="1.72651">
        <ele>2125.09</ele>
        <time>2021-08-06T08:40:04Z</time>
      </trkpt>
      <trkpt lat="42.62683" lon="1.72651">
        <ele>2124.357</ele>
        <time>2021-08-06T08:40:06Z</time>
      </trkpt>
      <trkpt lat="42.62681" lon="1.7265">
        <ele>2124.965</ele>
        <time>2021-08-06T08:40:08Z</time>
      </trkpt>
      <trkpt lat="42.62679" lon="1.7265">
        <ele>2125.935</ele>
        <time>2021-08-06T08:40:10Z</time>
      </trkpt>
      <trkpt lat="42.62678" lon="1.72648">
        <ele>2125.899</ele>
        <time>2021-08-06T08:40:12Z</time>
      </trkpt>
      <trkpt lat="42.62676" lon="1.72646">
        <ele>2125.609</ele>
        <time>2021-08-06T08:40:14Z</time>
      </trkpt>
      <trkpt lat="42.62675" lon="1.72644">
        <ele>2126.379</ele>
        <time>2021-08-06T08:40:16Z</time>
      </trkpt>
      <trkpt lat="42.62674" lon="1.72641">
        <ele>2127.812</ele>
        <time>2021-08-06T08:40:18Z</time>
      </trkpt>
      <trkpt lat="42.62672" lon="1.7264">
        <ele>2129.91</ele>
        <time>2021-08-06T08:40:20Z</time>
      </trkpt>
      <trkpt lat="42.6267" lon="1.72639">
        <ele>2129.115</ele>
        <time>2021-08-06T08:40:22Z</time>
      </trkpt>
      <trkpt lat="42.62667" lon="1.72637">
        <ele>2129.043</ele>
        <time>2021-08-06T08:40:24Z</time>
      </trkpt>
      <trkpt lat="42.62665" lon="1.72635">
        <ele>2129.153</ele>
        <time>2021-08-06T08:40:26Z</time>
      </trkpt>
      <trkpt lat="42.62662" lon="1.72633">
        <ele>2130.555</ele>
        <time>2021-08-06T08:40:28Z</time>
      </trkpt>
      <trkpt lat="42.62661" lon="1.72631">
        <ele>2131.179</ele>
        <time>2021-08-06T08:40:30Z</time>
      </trkpt>
      <trkpt lat="42.6266" lon="1.7263">
        <ele>2131.741</ele>
        <time>2021-08-06T08:40:32Z</time>
      </trkpt>
      <trkpt lat="42.62659" lon="1.72628">
        <ele>2131.647</ele>
        <time>2021-08-06T08:40:34Z</time>
      </trkpt>
      <trkpt lat="42.62657" lon="1.72626">
        <ele>2131.804</ele>
        <time>2021-08-06T08:40:36Z</time>
      </trkpt>
      <trkpt lat="42.62657" lon="1.72625">
        <ele>2131.328</ele>
        <time>2021-08-06T08:40:38Z</time>
      </trkpt>
      <trkpt lat="42.62657" lon="1.72624">
        <ele>2131.428</ele>
        <time>2021-08-06T08:40:40Z</time>
      </trkpt>
      <trkpt lat="42.62655" lon="1.72622">
        <ele>2131.662</ele>
        <time>2021-08-06T08:40:42Z</time>
      </trkpt>
      <trkpt lat="42.62653" lon="1.72622">
        <ele>2130.939</ele>
        <time>2021-08-06T08:40:44Z</time>
      </trkpt>
      <trkpt lat="42.62651" lon="1.72622">
        <ele>2130.8</ele>
        <time>2021-08-06T08:40:46Z</time>
      </trkpt>
      <trkpt lat="42.6265" lon="1.72622">
        <ele>2130.508</ele>
        <time>2021-08-06T08:40:48Z</time>
      </trkpt>
      <trkpt lat="42.62648" lon="1.72622">
        <ele>2130.459</ele>
        <time>2021-08-06T08:40:50Z</time>
      </trkpt>
      <trkpt lat="42.62646" lon="1.72622">
        <ele>2130.648</ele>
        <time>2021-08-06T08:40:52Z</time>
      </trkpt>
      <trkpt lat="42.62644" lon="1.72623">
        <ele>2130.369</ele>
        <time>2021-08-06T08:40:54Z</time>
      </trkpt>
      <trkpt lat="42.62642" lon="1.72624">
        <ele>2129.995</ele>
        <time>2021-08-06T08:40:56Z</time>
      </trkpt>
      <trkpt lat="42.62641" lon="1.72624">
        <ele>2130.021</ele>
        <time>2021-08-06T08:40:58Z</time>
      </trkpt>
      <trkpt lat="42.62639" lon="1.72624">
        <ele>2130.673</ele>
        <time>2021-08-06T08:41:00Z</time>
      </trkpt>
      <trkpt lat="42.62637" lon="1.72624">
        <ele>2130.53</ele>
        <time>2021-08-06T08:41:02Z</time>
      </trkpt>
      <trkpt lat="42.62636" lon="1.72625">
        <ele>2130.475</ele>
        <time>2021-08-06T08:41:04Z</time>
      </trkpt>
      <trkpt lat="42.62634" lon="1.72625">
        <ele>2129.906</ele>
        <time>2021-08-06T08:41:06Z</time>
      </trkpt>
      <trkpt lat="42.62632" lon="1.72625">
        <ele>2130.181</ele>
        <time>2021-08-06T08:41:08Z</time>
      </trkpt>
      <trkpt lat="42.6263" lon="1.72625">
        <ele>2130.256</ele>
        <time>2021-08-06T08:41:10Z</time>
      </trkpt>
      <trkpt lat="42.62628" lon="1.72625">
        <ele>2130.706</ele>
        <time>2021-08-06T08:41:12Z</time>
      </trkpt>
      <trkpt lat="42.62627" lon="1.72626">
        <ele>2130.188</ele>
        <time>2021-08-06T08:41:14Z</time>
      </trkpt>
      <trkpt lat="42.62626" lon="1.72626">
        <ele>2130.597</ele>
        <time>2021-08-06T08:41:16Z</time>
      </trkpt>
      <trkpt lat="42.62624" lon="1.72626">
        <ele>2129.728</ele>
        <time>2021-08-06T08:41:18Z</time>
      </trkpt>
      <trkpt lat="42.62622" lon="1.72626">
        <ele>2130.172</ele>
        <time>2021-08-06T08:41:20Z</time>
      </trkpt>
      <trkpt lat="42.62621" lon="1.72627">
        <ele>2130.595</ele>
        <time>2021-08-06T08:41:22Z</time>
      </trkpt>
      <trkpt lat="42.62619" lon="1.72628">
        <ele>2130.911</ele>
        <time>2021-08-06T08:41:24Z</time>
      </trkpt>
      <trkpt lat="42.62617" lon="1.72628">
        <ele>2130.54</ele>
        <time>2021-08-06T08:41:26Z</time>
      </trkpt>
      <trkpt lat="42.62615" lon="1.72627">
        <ele>2130.254</ele>
        <time>2021-08-06T08:41:28Z</time>
      </trkpt>
      <trkpt lat="42.62612" lon="1.72626">
        <ele>2129.29</ele>
        <time>2021-08-06T08:41:30Z</time>
      </trkpt>
      <trkpt lat="42.6261" lon="1.72626">
        <ele>2129.19</ele>
        <time>2021-08-06T08:41:32Z</time>
      </trkpt>
      <trkpt lat="42.62608" lon="1.72626">
        <ele>2129.403</ele>
        <time>2021-08-06T08:41:34Z</time>
      </trkpt>
      <trkpt lat="42.62607" lon="1.72626">
        <ele>2129.655</ele>
        <time>2021-08-06T08:41:36Z</time>
      </trkpt>
      <trkpt lat="42.62605" lon="1.72625">
        <ele>2129.326</ele>
        <time>2021-08-06T08:41:38Z</time>
      </trkpt>
      <trkpt lat="42.62603" lon="1.72624">
        <ele>2129.538</ele>
        <time>2021-08-06T08:41:40Z</time>
      </trkpt>
      <trkpt lat="42.62601" lon="1.72624">
        <ele>2129.812</ele>
        <time>2021-08-06T08:41:42Z</time>
      </trkpt>
      <trkpt lat="42.626" lon="1.72622">
        <ele>2129.26</ele>
        <time>2021-08-06T08:41:44Z</time>
      </trkpt>
      <trkpt lat="42.62598" lon="1.72621">
        <ele>2129.433</ele>
        <time>2021-08-06T08:41:46Z</time>
      </trkpt>
      <trkpt lat="42.62596" lon="1.72619">
        <ele>2129.767</ele>
        <time>2021-08-06T08:41:48Z</time>
      </trkpt>
      <trkpt lat="42.62594" lon="1.72618">
        <ele>2129.465</ele>
        <time>2021-08-06T08:41:50Z</time>
      </trkpt>
      <trkpt lat="42.62591" lon="1.72617">
        <ele>2129.642</ele>
        <time>2021-08-06T08:41:52Z</time>
      </trkpt>
      <trkpt lat="42.62589" lon="1.72616">
        <ele>2129.545</ele>
        <time>2021-08-06T08:41:54Z</time>
      </trkpt>
      <trkpt lat="42.62587" lon="1.72615">
        <ele>2129.713</ele>
        <time>2021-08-06T08:41:56Z</time>
      </trkpt>
      <trkpt lat="42.62585" lon="1.72613">
        <ele>2129.363</ele>
        <time>2021-08-06T08:41:58Z</time>
      </trkpt>
      <trkpt lat="42.62584" lon="1.72612">
        <ele>2128.963</ele>
        <time>2021-08-06T08:42:00Z</time>
      </trkpt>
      <trkpt lat="42.62581" lon="1.72611">
        <ele>2129.449</ele>
        <time>2021-08-06T08:42:02Z</time>
      </trkpt>
      <trkpt lat="42.62579" lon="1.7261">
        <ele>2129.212</ele>
        <time>2021-08-06T08:42:04Z</time>
      </trkpt>
      <trkpt lat="42.62578" lon="1.72608">
        <ele>2128.876</ele>
        <time>2021-08-06T08:42:06Z</time>
      </trkpt>
      <trkpt lat="42.62576" lon="1.72607">
        <ele>2128.681</ele>
        <time>2021-08-06T08:42:08Z</time>
      </trkpt>
      <trkpt lat="42.62574" lon="1.72606">
        <ele>2129.171</ele>
        <time>2021-08-06T08:42:10Z</time>
      </trkpt>
      <trkpt lat="42.62573" lon="1.72605">
        <ele>2128.769</ele>
        <time>2021-08-06T08:42:12Z</time>
      </trkpt>
      <trkpt lat="42.62571" lon="1.72603">
        <ele>2128.106</ele>
        <time>2021-08-06T08:42:14Z</time>
      </trkpt>
      <trkpt lat="42.6257" lon="1.72602">
        <ele>2127.358</ele>
        <time>2021-08-06T08:42:16Z</time>
      </trkpt>
      <trkpt lat="42.62569" lon="1.726">
        <ele>2127.391</ele>
        <time>2021-08-06T08:42:18Z</time>
      </trkpt>
      <trkpt lat="42.62568" lon="1.72599">
        <ele>2127.268</ele>
        <time>2021-08-06T08:42:20Z</time>
      </trkpt>
      <trkpt lat="42.62566" lon="1.72598">
        <ele>2127.18</ele>
        <time>2021-08-06T08:42:22Z</time>
      </trkpt>
      <trkpt lat="42.62564" lon="1.72597">
        <ele>2126.769</ele>
        <time>2021-08-06T08:42:24Z</time>
      </trkpt>
      <trkpt lat="42.62564" lon="1.72595">
        <ele>2126.9</ele>
        <time>2021-08-06T08:42:26Z</time>
      </trkpt>
      <trkpt lat="42.62563" lon="1.72594">
        <ele>2127.494</ele>
        <time>2021-08-06T08:42:28Z</time>
      </trkpt>
      <trkpt lat="42.62561" lon="1.72595">
        <ele>2127.479</ele>
        <time>2021-08-06T08:42:30Z</time>
      </trkpt>
      <trkpt lat="42.6256" lon="1.72596">
        <ele>2126.741</ele>
        <time>2021-08-06T08:42:32Z</time>
      </trkpt>
      <trkpt lat="42.62558" lon="1.72595">
        <ele>2126.879</ele>
        <time>2021-08-06T08:42:34Z</time>
      </trkpt>
      <trkpt lat="42.62557" lon="1.72595">
        <ele>2127.318</ele>
        <time>2021-08-06T08:42:36Z</time>
      </trkpt>
      <trkpt lat="42.62556" lon="1.72594">
        <ele>2127.57</ele>
        <time>2021-08-06T08:42:38Z</time>
      </trkpt>
      <trkpt lat="42.62555" lon="1.72593">
        <ele>2127.657</ele>
        <time>2021-08-06T08:42:40Z</time>
      </trkpt>
      <trkpt lat="42.62554" lon="1.72592">
        <ele>2127.803</ele>
        <time>2021-08-06T08:42:42Z</time>
      </trkpt>
      <trkpt lat="42.62553" lon="1.72593">
        <ele>2128.06</ele>
        <time>2021-08-06T08:42:44Z</time>
      </trkpt>
      <trkpt lat="42.62552" lon="1.72592">
        <ele>2129.121</ele>
        <time>2021-08-06T08:42:46Z</time>
      </trkpt>
      <trkpt lat="42.62551" lon="1.72591">
        <ele>2129.35</ele>
        <time>2021-08-06T08:42:48Z</time>
      </trkpt>
      <trkpt lat="42.6255" lon="1.72591">
        <ele>2129.563</ele>
        <time>2021-08-06T08:42:50Z</time>
      </trkpt>
      <trkpt lat="42.62549" lon="1.72591">
        <ele>2129.719</ele>
        <time>2021-08-06T08:42:52Z</time>
      </trkpt>
      <trkpt lat="42.62548" lon="1.72589">
        <ele>2129.84</ele>
        <time>2021-08-06T08:42:54Z</time>
      </trkpt>
      <trkpt lat="42.62547" lon="1.72587">
        <ele>2130.011</ele>
        <time>2021-08-06T08:42:56Z</time>
      </trkpt>
      <trkpt lat="42.62546" lon="1.72586">
        <ele>2130.39</ele>
        <time>2021-08-06T08:42:58Z</time>
      </trkpt>
      <trkpt lat="42.62544" lon="1.72585">
        <ele>2130.594</ele>
        <time>2021-08-06T08:43:00Z</time>
      </trkpt>
      <trkpt lat="42.62543" lon="1.72587">
        <ele>2130.453</ele>
        <time>2021-08-06T08:43:02Z</time>
      </trkpt>
      <trkpt lat="42.62542" lon="1.72589">
        <ele>2131.28</ele>
        <time>2021-08-06T08:43:04Z</time>
      </trkpt>
      <trkpt lat="42.6254" lon="1.7259">
        <ele>2131.902</ele>
        <time>2021-08-06T08:43:06Z</time>
      </trkpt>
      <trkpt lat="42.62537" lon="1.72591">
        <ele>2132.14</ele>
        <time>2021-08-06T08:43:08Z</time>
      </trkpt>
      <trkpt lat="42.62536" lon="1.72591">
        <ele>2132.297</ele>
        <time>2021-08-06T08:43:10Z</time>
      </trkpt>
      <trkpt lat="42.62535" lon="1.72592">
        <ele>2131.908</ele>
        <time>2021-08-06T08:43:12Z</time>
      </trkpt>
      <trkpt lat="42.62534" lon="1.72592">
        <ele>2132.519</ele>
        <time>2021-08-06T08:43:14Z</time>
      </trkpt>
      <trkpt lat="42.62533" lon="1.72591">
        <ele>2132.279</ele>
        <time>2021-08-06T08:43:16Z</time>
      </trkpt>
      <trkpt lat="42.62532" lon="1.72591">
        <ele>2131.734</ele>
        <time>2021-08-06T08:43:18Z</time>
      </trkpt>
      <trkpt lat="42.62531" lon="1.72589">
        <ele>2131.128</ele>
        <time>2021-08-06T08:43:20Z</time>
      </trkpt>
      <trkpt lat="42.6253" lon="1.72588">
        <ele>2130.559</ele>
        <time>2021-08-06T08:43:22Z</time>
      </trkpt>
      <trkpt lat="42.62529" lon="1.72587">
        <ele>2129.586</ele>
        <time>2021-08-06T08:43:24Z</time>
      </trkpt>
      <trkpt lat="42.62529" lon="1.72585">
        <ele>2129.995</ele>
        <time>2021-08-06T08:43:26Z</time>
      </trkpt>
      <trkpt lat="42.62528" lon="1.72584">
        <ele>2129.688</ele>
        <time>2021-08-06T08:43:28Z</time>
      </trkpt>
      <trkpt lat="42.62527" lon="1.72583">
        <ele>2129.256</ele>
        <time>2021-08-06T08:43:30Z</time>
      </trkpt>
      <trkpt lat="42.62526" lon="1.72582">
        <ele>2129.06</ele>
        <time>2021-08-06T08:43:32Z</time>
      </trkpt>
      <trkpt lat="42.62526" lon="1.72582">
        <ele>2129.057</ele>
        <time>2021-08-06T08:43:34Z</time>
      </trkpt>
      <trkpt lat="42.62526" lon="1.72582">
        <ele>2129.054</ele>
        <time>2021-08-06T08:43:36Z</time>
      </trkpt>
      <trkpt lat="42.62526" lon="1.72582">
        <ele>2129.054</ele>
        <time>2021-08-06T08:43:38Z</time>
      </trkpt>
      <trkpt lat="42.62525" lon="1.72582">
        <ele>2129.202</ele>
        <time>2021-08-06T08:43:40Z</time>
      </trkpt>
      <trkpt lat="42.62523" lon="1.72582">
        <ele>2129.261</ele>
        <time>2021-08-06T08:43:42Z</time>
      </trkpt>
      <trkpt lat="42.62522" lon="1.7258">
        <ele>2129.182</ele>
        <time>2021-08-06T08:43:44Z</time>
      </trkpt>
      <trkpt lat="42.62523" lon="1.72577">
        <ele>2131.788</ele>
        <time>2021-08-06T08:43:46Z</time>
      </trkpt>
      <trkpt lat="42.62522" lon="1.72576">
        <ele>2131.741</ele>
        <time>2021-08-06T08:43:48Z</time>
      </trkpt>
      <trkpt lat="42.62521" lon="1.72575">
        <ele>2131.432</ele>
        <time>2021-08-06T08:43:50Z</time>
      </trkpt>
      <trkpt lat="42.62521" lon="1.72575">
        <ele>2131.647</ele>
        <time>2021-08-06T08:43:52Z</time>
      </trkpt>
      <trkpt lat="42.6252" lon="1.72574">
        <ele>2131.505</ele>
        <time>2021-08-06T08:43:54Z</time>
      </trkpt>
      <trkpt lat="42.62519" lon="1.72574">
        <ele>2131.57</ele>
        <time>2021-08-06T08:43:56Z</time>
      </trkpt>
      <trkpt lat="42.62518" lon="1.72573">
        <ele>2132.314</ele>
        <time>2021-08-06T08:43:58Z</time>
      </trkpt>
      <trkpt lat="42.62517" lon="1.72572">
        <ele>2132.581</ele>
        <time>2021-08-06T08:44:00Z</time>
      </trkpt>
      <trkpt lat="42.62516" lon="1.7257">
        <ele>2132.792</ele>
        <time>2021-08-06T08:44:02Z</time>
      </trkpt>
      <trkpt lat="42.62515" lon="1.72568">
        <ele>2133.004</ele>
        <time>2021-08-06T08:44:04Z</time>
      </trkpt>
      <trkpt lat="42.62514" lon="1.72568">
        <ele>2133.096</ele>
        <time>2021-08-06T08:44:06Z</time>
      </trkpt>
      <trkpt lat="42.62513" lon="1.72568">
        <ele>2133.121</ele>
        <time>2021-08-06T08:44:08Z</time>
      </trkpt>
      <trkpt lat="42.62512" lon="1.7257">
        <ele>2133.11</ele>
        <time>2021-08-06T08:44:10Z</time>
      </trkpt>
      <trkpt lat="42.62511" lon="1.72572">
        <ele>2133.395</ele>
        <time>2021-08-06T08:44:12Z</time>
      </trkpt>
      <trkpt lat="42.6251" lon="1.72574">
        <ele>2132.874</ele>
        <time>2021-08-06T08:44:14Z</time>
      </trkpt>
      <trkpt lat="42.62509" lon="1.72576">
        <ele>2132.797</ele>
        <time>2021-08-06T08:44:16Z</time>
      </trkpt>
      <trkpt lat="42.62507" lon="1.72578">
        <ele>2132.945</ele>
        <time>2021-08-06T08:44:18Z</time>
      </trkpt>
      <trkpt lat="42.62505" lon="1.72578">
        <ele>2133.51</ele>
        <time>2021-08-06T08:44:20Z</time>
      </trkpt>
      <trkpt lat="42.62504" lon="1.72578">
        <ele>2132.487</ele>
        <time>2021-08-06T08:44:22Z</time>
      </trkpt>
      <trkpt lat="42.62503" lon="1.72579">
        <ele>2132.134</ele>
        <time>2021-08-06T08:44:24Z</time>
      </trkpt>
      <trkpt lat="42.62502" lon="1.72581">
        <ele>2132.421</ele>
        <time>2021-08-06T08:44:26Z</time>
      </trkpt>
      <trkpt lat="42.625" lon="1.72582">
        <ele>2133.15</ele>
        <time>2021-08-06T08:44:28Z</time>
      </trkpt>
      <trkpt lat="42.62499" lon="1.72583">
        <ele>2133.204</ele>
        <time>2021-08-06T08:44:30Z</time>
      </trkpt>
      <trkpt lat="42.62498" lon="1.72584">
        <ele>2132.786</ele>
        <time>2021-08-06T08:44:32Z</time>
      </trkpt>
      <trkpt lat="42.62496" lon="1.72584">
        <ele>2132.529</ele>
        <time>2021-08-06T08:44:34Z</time>
      </trkpt>
      <trkpt lat="42.62494" lon="1.72585">
        <ele>2132.197</ele>
        <time>2021-08-06T08:44:36Z</time>
      </trkpt>
      <trkpt lat="42.62493" lon="1.72585">
        <ele>2132.363</ele>
        <time>2021-08-06T08:44:38Z</time>
      </trkpt>
      <trkpt lat="42.62491" lon="1.72586">
        <ele>2132.617</ele>
        <time>2021-08-06T08:44:40Z</time>
      </trkpt>
      <trkpt lat="42.62489" lon="1.72586">
        <ele>2132.217</ele>
        <time>2021-08-06T08:44:42Z</time>
      </trkpt>
      <trkpt lat="42.62487" lon="1.72585">
        <ele>2131.925</ele>
        <time>2021-08-06T08:44:44Z</time>
      </trkpt>
      <trkpt lat="42.62484" lon="1.72583">
        <ele>2131.828</ele>
        <time>2021-08-06T08:44:46Z</time>
      </trkpt>
      <trkpt lat="42.62482" lon="1.72581">
        <ele>2130.053</ele>
        <time>2021-08-06T08:44:48Z</time>
      </trkpt>
      <trkpt lat="42.6248" lon="1.72578">
        <ele>2129.3</ele>
        <time>2021-08-06T08:44:50Z</time>
      </trkpt>
      <trkpt lat="42.62478" lon="1.72576">
        <ele>2130.072</ele>
        <time>2021-08-06T08:44:52Z</time>
      </trkpt>
      <trkpt lat="42.62475" lon="1.72576">
        <ele>2129.747</ele>
        <time>2021-08-06T08:44:54Z</time>
      </trkpt>
      <trkpt lat="42.62473" lon="1.72576">
        <ele>2128.98</ele>
        <time>2021-08-06T08:44:56Z</time>
      </trkpt>
      <trkpt lat="42.62473" lon="1.72576">
        <ele>2128.435</ele>
        <time>2021-08-06T08:44:58Z</time>
      </trkpt>
      <trkpt lat="42.62473" lon="1.72576">
        <ele>2127.26</ele>
        <time>2021-08-06T08:45:00Z</time>
      </trkpt>
      <trkpt lat="42.62473" lon="1.72576">
        <ele>2128.029</ele>
        <time>2021-08-06T08:45:02Z</time>
      </trkpt>
      <trkpt lat="42.62472" lon="1.72576">
        <ele>2127.617</ele>
        <time>2021-08-06T08:45:04Z</time>
      </trkpt>
      <trkpt lat="42.62471" lon="1.72576">
        <ele>2127.306</ele>
        <time>2021-08-06T08:45:06Z</time>
      </trkpt>
      <trkpt lat="42.62471" lon="1.72575">
        <ele>2127.986</ele>
        <time>2021-08-06T08:45:08Z</time>
      </trkpt>
      <trkpt lat="42.6247" lon="1.72575">
        <ele>2128.006</ele>
        <time>2021-08-06T08:45:10Z</time>
      </trkpt>
      <trkpt lat="42.62469" lon="1.72575">
        <ele>2128.277</ele>
        <time>2021-08-06T08:45:12Z</time>
      </trkpt>
      <trkpt lat="42.6247" lon="1.72577">
        <ele>2129.153</ele>
        <time>2021-08-06T08:45:14Z</time>
      </trkpt>
      <trkpt lat="42.6247" lon="1.72578">
        <ele>2129.828</ele>
        <time>2021-08-06T08:45:16Z</time>
      </trkpt>
      <trkpt lat="42.6247" lon="1.72578">
        <ele>2128.886</ele>
        <time>2021-08-06T08:45:18Z</time>
      </trkpt>
      <trkpt lat="42.62469" lon="1.72579">
        <ele>2128.448</ele>
        <time>2021-08-06T08:45:20Z</time>
      </trkpt>
      <trkpt lat="42.62468" lon="1.7258">
        <ele>2128.685</ele>
        <time>2021-08-06T08:45:22Z</time>
      </trkpt>
      <trkpt lat="42.62467" lon="1.72581">
        <ele>2130.155</ele>
        <time>2021-08-06T08:45:24Z</time>
      </trkpt>
      <trkpt lat="42.62466" lon="1.72582">
        <ele>2131.266</ele>
        <time>2021-08-06T08:45:26Z</time>
      </trkpt>
      <trkpt lat="42.62465" lon="1.72582">
        <ele>2131.767</ele>
        <time>2021-08-06T08:45:28Z</time>
      </trkpt>
      <trkpt lat="42.62466" lon="1.72582">
        <ele>2131.917</ele>
        <time>2021-08-06T08:45:30Z</time>
      </trkpt>
      <trkpt lat="42.62466" lon="1.72582">
        <ele>2131.931</ele>
        <time>2021-08-06T08:45:32Z</time>
      </trkpt>
      <trkpt lat="42.62466" lon="1.72582">
        <ele>2131.924</ele>
        <time>2021-08-06T08:45:34Z</time>
      </trkpt>
      <trkpt lat="42.62465" lon="1.72582">
        <ele>2132.647</ele>
        <time>2021-08-06T08:45:36Z</time>
      </trkpt>
      <trkpt lat="42.62465" lon="1.7258">
        <ele>2133.305</ele>
        <time>2021-08-06T08:45:38Z</time>
      </trkpt>
      <trkpt lat="42.62465" lon="1.72579">
        <ele>2133.823</ele>
        <time>2021-08-06T08:45:40Z</time>
      </trkpt>
      <trkpt lat="42.62464" lon="1.72577">
        <ele>2133.976</ele>
        <time>2021-08-06T08:45:42Z</time>
      </trkpt>
      <trkpt lat="42.62464" lon="1.72576">
        <ele>2134.623</ele>
        <time>2021-08-06T08:45:44Z</time>
      </trkpt>
      <trkpt lat="42.62465" lon="1.72574">
        <ele>2134.945</ele>
        <time>2021-08-06T08:45:46Z</time>
      </trkpt>
      <trkpt lat="42.62465" lon="1.72572">
        <ele>2135.188</ele>
        <time>2021-08-06T08:45:48Z</time>
      </trkpt>
      <trkpt lat="42.62465" lon="1.72572">
        <ele>2135.083</ele>
        <time>2021-08-06T08:45:50Z</time>
      </trkpt>
      <trkpt lat="42.62465" lon="1.72571">
        <ele>2135.457</ele>
        <time>2021-08-06T08:45:52Z</time>
      </trkpt>
      <trkpt lat="42.62465" lon="1.7257">
        <ele>2135.393</ele>
        <time>2021-08-06T08:45:54Z</time>
      </trkpt>
      <trkpt lat="42.62466" lon="1.72569">
        <ele>2136.387</ele>
        <time>2021-08-06T08:45:56Z</time>
      </trkpt>
      <trkpt lat="42.62465" lon="1.72567">
        <ele>2137.848</ele>
        <time>2021-08-06T08:45:58Z</time>
      </trkpt>
      <trkpt lat="42.62465" lon="1.72567">
        <ele>2137.876</ele>
        <time>2021-08-06T08:46:00Z</time>
      </trkpt>
      <trkpt lat="42.62463" lon="1.72567">
        <ele>2137.383</ele>
        <time>2021-08-06T08:46:02Z</time>
      </trkpt>
      <trkpt lat="42.62462" lon="1.72567">
        <ele>2137.911</ele>
        <time>2021-08-06T08:46:04Z</time>
      </trkpt>
      <trkpt lat="42.62461" lon="1.72567">
        <ele>2138.021</ele>
        <time>2021-08-06T08:46:06Z</time>
      </trkpt>
      <trkpt lat="42.6246" lon="1.72567">
        <ele>2138.843</ele>
        <time>2021-08-06T08:46:08Z</time>
      </trkpt>
      <trkpt lat="42.62459" lon="1.72566">
        <ele>2139.062</ele>
        <time>2021-08-06T08:46:10Z</time>
      </trkpt>
      <trkpt lat="42.62458" lon="1.72567">
        <ele>2139.582</ele>
        <time>2021-08-06T08:46:12Z</time>
      </trkpt>
      <trkpt lat="42.62457" lon="1.72569">
        <ele>2138.976</ele>
        <time>2021-08-06T08:46:14Z</time>
      </trkpt>
      <trkpt lat="42.62457" lon="1.72571">
        <ele>2139.639</ele>
        <time>2021-08-06T08:46:16Z</time>
      </trkpt>
      <trkpt lat="42.62456" lon="1.72572">
        <ele>2139.4</ele>
        <time>2021-08-06T08:46:18Z</time>
      </trkpt>
      <trkpt lat="42.62455" lon="1.72573">
        <ele>2140.385</ele>
        <time>2021-08-06T08:46:20Z</time>
      </trkpt>
      <trkpt lat="42.62454" lon="1.72574">
        <ele>2140.417</ele>
        <time>2021-08-06T08:46:22Z</time>
      </trkpt>
      <trkpt lat="42.62453" lon="1.72573">
        <ele>2140.722</ele>
        <time>2021-08-06T08:46:24Z</time>
      </trkpt>
      <trkpt lat="42.62453" lon="1.72572">
        <ele>2141.241</ele>
        <time>2021-08-06T08:46:27Z</time>
      </trkpt>
      <trkpt lat="42.62452" lon="1.72571">
        <ele>2141.58</ele>
        <time>2021-08-06T08:46:29Z</time>
      </trkpt>
      <trkpt lat="42.62451" lon="1.72571">
        <ele>2142.344</ele>
        <time>2021-08-06T08:46:31Z</time>
      </trkpt>
      <trkpt lat="42.62451" lon="1.72571">
        <ele>2142.42</ele>
        <time>2021-08-06T08:46:33Z</time>
      </trkpt>
      <trkpt lat="42.6245" lon="1.72572">
        <ele>2143.01</ele>
        <time>2021-08-06T08:46:35Z</time>
      </trkpt>
      <trkpt lat="42.62449" lon="1.72572">
        <ele>2142.921</ele>
        <time>2021-08-06T08:46:37Z</time>
      </trkpt>
      <trkpt lat="42.62449" lon="1.72572">
        <ele>2142.83</ele>
        <time>2021-08-06T08:46:39Z</time>
      </trkpt>
      <trkpt lat="42.62449" lon="1.72571">
        <ele>2143.063</ele>
        <time>2021-08-06T08:46:41Z</time>
      </trkpt>
      <trkpt lat="42.62448" lon="1.72571">
        <ele>2142.778</ele>
        <time>2021-08-06T08:46:43Z</time>
      </trkpt>
      <trkpt lat="42.62448" lon="1.72571">
        <ele>2142.809</ele>
        <time>2021-08-06T08:46:45Z</time>
      </trkpt>
      <trkpt lat="42.62448" lon="1.7257">
        <ele>2142.758</ele>
        <time>2021-08-06T08:46:47Z</time>
      </trkpt>
      <trkpt lat="42.62447" lon="1.72568">
        <ele>2143.115</ele>
        <time>2021-08-06T08:46:49Z</time>
      </trkpt>
      <trkpt lat="42.62447" lon="1.72567">
        <ele>2142.732</ele>
        <time>2021-08-06T08:46:51Z</time>
      </trkpt>
      <trkpt lat="42.62447" lon="1.72565">
        <ele>2143.361</ele>
        <time>2021-08-06T08:46:53Z</time>
      </trkpt>
      <trkpt lat="42.62446" lon="1.72565">
        <ele>2143.193</ele>
        <time>2021-08-06T08:46:55Z</time>
      </trkpt>
      <trkpt lat="42.62445" lon="1.72565">
        <ele>2143.531</ele>
        <time>2021-08-06T08:46:57Z</time>
      </trkpt>
      <trkpt lat="42.62444" lon="1.72565">
        <ele>2144.11</ele>
        <time>2021-08-06T08:46:59Z</time>
      </trkpt>
      <trkpt lat="42.62443" lon="1.72565">
        <ele>2144.31</ele>
        <time>2021-08-06T08:47:01Z</time>
      </trkpt>
      <trkpt lat="42.62442" lon="1.72565">
        <ele>2144.47</ele>
        <time>2021-08-06T08:47:03Z</time>
      </trkpt>
      <trkpt lat="42.62441" lon="1.72566">
        <ele>2144.217</ele>
        <time>2021-08-06T08:47:05Z</time>
      </trkpt>
      <trkpt lat="42.6244" lon="1.72566">
        <ele>2143.807</ele>
        <time>2021-08-06T08:47:07Z</time>
      </trkpt>
      <trkpt lat="42.62439" lon="1.72566">
        <ele>2143.436</ele>
        <time>2021-08-06T08:47:09Z</time>
      </trkpt>
      <trkpt lat="42.62438" lon="1.72568">
        <ele>2143.594</ele>
        <time>2021-08-06T08:47:11Z</time>
      </trkpt>
      <trkpt lat="42.62438" lon="1.72568">
        <ele>2143.994</ele>
        <time>2021-08-06T08:47:13Z</time>
      </trkpt>
      <trkpt lat="42.62436" lon="1.72568">
        <ele>2144.244</ele>
        <time>2021-08-06T08:47:15Z</time>
      </trkpt>
      <trkpt lat="42.62436" lon="1.72566">
        <ele>2145.232</ele>
        <time>2021-08-06T08:47:17Z</time>
      </trkpt>
      <trkpt lat="42.62435" lon="1.72565">
        <ele>2145.58</ele>
        <time>2021-08-06T08:47:19Z</time>
      </trkpt>
      <trkpt lat="42.62435" lon="1.72565">
        <ele>2146.097</ele>
        <time>2021-08-06T08:47:21Z</time>
      </trkpt>
      <trkpt lat="42.62434" lon="1.72564">
        <ele>2146.445</ele>
        <time>2021-08-06T08:47:23Z</time>
      </trkpt>
      <trkpt lat="42.62433" lon="1.72564">
        <ele>2146.937</ele>
        <time>2021-08-06T08:47:25Z</time>
      </trkpt>
      <trkpt lat="42.62432" lon="1.72564">
        <ele>2147.526</ele>
        <time>2021-08-06T08:47:27Z</time>
      </trkpt>
      <trkpt lat="42.62431" lon="1.72564">
        <ele>2146.788</ele>
        <time>2021-08-06T08:47:29Z</time>
      </trkpt>
      <trkpt lat="42.62431" lon="1.72563">
        <ele>2147.677</ele>
        <time>2021-08-06T08:47:31Z</time>
      </trkpt>
      <trkpt lat="42.6243" lon="1.72563">
        <ele>2148.484</ele>
        <time>2021-08-06T08:47:33Z</time>
      </trkpt>
      <trkpt lat="42.62429" lon="1.72563">
        <ele>2148.859</ele>
        <time>2021-08-06T08:47:35Z</time>
      </trkpt>
      <trkpt lat="42.62428" lon="1.72563">
        <ele>2149.726</ele>
        <time>2021-08-06T08:47:37Z</time>
      </trkpt>
      <trkpt lat="42.62427" lon="1.72564">
        <ele>2149.914</ele>
        <time>2021-08-06T08:47:39Z</time>
      </trkpt>
      <trkpt lat="42.62427" lon="1.72566">
        <ele>2150.427</ele>
        <time>2021-08-06T08:47:41Z</time>
      </trkpt>
      <trkpt lat="42.62426" lon="1.72565">
        <ele>2150.039</ele>
        <time>2021-08-06T08:47:43Z</time>
      </trkpt>
      <trkpt lat="42.62425" lon="1.72565">
        <ele>2150.738</ele>
        <time>2021-08-06T08:47:45Z</time>
      </trkpt>
      <trkpt lat="42.62424" lon="1.72564">
        <ele>2150.703</ele>
        <time>2021-08-06T08:47:47Z</time>
      </trkpt>
      <trkpt lat="42.62423" lon="1.72564">
        <ele>2151.352</ele>
        <time>2021-08-06T08:47:49Z</time>
      </trkpt>
      <trkpt lat="42.62423" lon="1.72563">
        <ele>2151.667</ele>
        <time>2021-08-06T08:47:51Z</time>
      </trkpt>
      <trkpt lat="42.62423" lon="1.72563">
        <ele>2151.71</ele>
        <time>2021-08-06T08:47:53Z</time>
      </trkpt>
      <trkpt lat="42.62422" lon="1.72562">
        <ele>2151.626</ele>
        <time>2021-08-06T08:47:55Z</time>
      </trkpt>
      <trkpt lat="42.62421" lon="1.72562">
        <ele>2151.759</ele>
        <time>2021-08-06T08:47:57Z</time>
      </trkpt>
      <trkpt lat="42.6242" lon="1.72562">
        <ele>2151.811</ele>
        <time>2021-08-06T08:47:59Z</time>
      </trkpt>
      <trkpt lat="42.62419" lon="1.72562">
        <ele>2152.344</ele>
        <time>2021-08-06T08:48:01Z</time>
      </trkpt>
      <trkpt lat="42.62418" lon="1.72563">
        <ele>2152.385</ele>
        <time>2021-08-06T08:48:03Z</time>
      </trkpt>
      <trkpt lat="42.62417" lon="1.72564">
        <ele>2153.053</ele>
        <time>2021-08-06T08:48:05Z</time>
      </trkpt>
      <trkpt lat="42.62416" lon="1.72565">
        <ele>2153.565</ele>
        <time>2021-08-06T08:48:07Z</time>
      </trkpt>
      <trkpt lat="42.62414" lon="1.72566">
        <ele>2152.966</ele>
        <time>2021-08-06T08:48:10Z</time>
      </trkpt>
      <trkpt lat="42.62413" lon="1.72566">
        <ele>2152.177</ele>
        <time>2021-08-06T08:48:12Z</time>
      </trkpt>
      <trkpt lat="42.62412" lon="1.72566">
        <ele>2152.378</ele>
        <time>2021-08-06T08:48:14Z</time>
      </trkpt>
      <trkpt lat="42.62411" lon="1.72568">
        <ele>2154.388</ele>
        <time>2021-08-06T08:48:16Z</time>
      </trkpt>
      <trkpt lat="42.6241" lon="1.72569">
        <ele>2155.714</ele>
        <time>2021-08-06T08:48:18Z</time>
      </trkpt>
      <trkpt lat="42.62409" lon="1.7257">
        <ele>2156.481</ele>
        <time>2021-08-06T08:48:20Z</time>
      </trkpt>
      <trkpt lat="42.62408" lon="1.7257">
        <ele>2156.767</ele>
        <time>2021-08-06T08:48:22Z</time>
      </trkpt>
      <trkpt lat="42.62407" lon="1.7257">
        <ele>2157.711</ele>
        <time>2021-08-06T08:48:24Z</time>
      </trkpt>
      <trkpt lat="42.62406" lon="1.7257">
        <ele>2157.829</ele>
        <time>2021-08-06T08:48:26Z</time>
      </trkpt>
      <trkpt lat="42.62406" lon="1.72569">
        <ele>2158.639</ele>
        <time>2021-08-06T08:48:28Z</time>
      </trkpt>
      <trkpt lat="42.62407" lon="1.72568">
        <ele>2159.068</ele>
        <time>2021-08-06T08:48:30Z</time>
      </trkpt>
      <trkpt lat="42.62407" lon="1.72567">
        <ele>2158.807</ele>
        <time>2021-08-06T08:48:32Z</time>
      </trkpt>
      <trkpt lat="42.62408" lon="1.72565">
        <ele>2159.214</ele>
        <time>2021-08-06T08:48:34Z</time>
      </trkpt>
      <trkpt lat="42.62407" lon="1.72565">
        <ele>2159.061</ele>
        <time>2021-08-06T08:48:36Z</time>
      </trkpt>
      <trkpt lat="42.62407" lon="1.72565">
        <ele>2159.002</ele>
        <time>2021-08-06T08:48:38Z</time>
      </trkpt>
      <trkpt lat="42.62406" lon="1.72565">
        <ele>2158.974</ele>
        <time>2021-08-06T08:48:40Z</time>
      </trkpt>
      <trkpt lat="42.62405" lon="1.72566">
        <ele>2159.044</ele>
        <time>2021-08-06T08:48:42Z</time>
      </trkpt>
      <trkpt lat="42.62404" lon="1.72566">
        <ele>2159.816</ele>
        <time>2021-08-06T08:48:44Z</time>
      </trkpt>
      <trkpt lat="42.62403" lon="1.72566">
        <ele>2160.113</ele>
        <time>2021-08-06T08:48:46Z</time>
      </trkpt>
      <trkpt lat="42.62402" lon="1.72567">
        <ele>2160.968</ele>
        <time>2021-08-06T08:48:48Z</time>
      </trkpt>
      <trkpt lat="42.62401" lon="1.72567">
        <ele>2160.735</ele>
        <time>2021-08-06T08:48:50Z</time>
      </trkpt>
      <trkpt lat="42.624" lon="1.72567">
        <ele>2160.879</ele>
        <time>2021-08-06T08:48:52Z</time>
      </trkpt>
      <trkpt lat="42.62399" lon="1.72566">
        <ele>2160.259</ele>
        <time>2021-08-06T08:48:54Z</time>
      </trkpt>
      <trkpt lat="42.624" lon="1.72565">
        <ele>2160.738</ele>
        <time>2021-08-06T08:48:56Z</time>
      </trkpt>
      <trkpt lat="42.624" lon="1.72563">
        <ele>2161.697</ele>
        <time>2021-08-06T08:48:58Z</time>
      </trkpt>
      <trkpt lat="42.624" lon="1.72561">
        <ele>2162.409</ele>
        <time>2021-08-06T08:49:00Z</time>
      </trkpt>
      <trkpt lat="42.62401" lon="1.7256">
        <ele>2162.027</ele>
        <time>2021-08-06T08:49:02Z</time>
      </trkpt>
      <trkpt lat="42.62401" lon="1.72559">
        <ele>2161.966</ele>
        <time>2021-08-06T08:49:04Z</time>
      </trkpt>
      <trkpt lat="42.624" lon="1.72558">
        <ele>2162.181</ele>
        <time>2021-08-06T08:49:06Z</time>
      </trkpt>
      <trkpt lat="42.624" lon="1.72557">
        <ele>2162.202</ele>
        <time>2021-08-06T08:49:08Z</time>
      </trkpt>
      <trkpt lat="42.624" lon="1.72555">
        <ele>2162.545</ele>
        <time>2021-08-06T08:49:10Z</time>
      </trkpt>
      <trkpt lat="42.62399" lon="1.72555">
        <ele>2162.79</ele>
        <time>2021-08-06T08:49:12Z</time>
      </trkpt>
      <trkpt lat="42.62398" lon="1.72555">
        <ele>2163.222</ele>
        <time>2021-08-06T08:49:14Z</time>
      </trkpt>
      <trkpt lat="42.62397" lon="1.72556">
        <ele>2164.149</ele>
        <time>2021-08-06T08:49:16Z</time>
      </trkpt>
      <trkpt lat="42.62396" lon="1.72557">
        <ele>2164.179</ele>
        <time>2021-08-06T08:49:18Z</time>
      </trkpt>
      <trkpt lat="42.62395" lon="1.72557">
        <ele>2164.254</ele>
        <time>2021-08-06T08:49:20Z</time>
      </trkpt>
      <trkpt lat="42.62393" lon="1.72557">
        <ele>2165.149</ele>
        <time>2021-08-06T08:49:22Z</time>
      </trkpt>
      <trkpt lat="42.62393" lon="1.72556">
        <ele>2165.915</ele>
        <time>2021-08-06T08:49:24Z</time>
      </trkpt>
      <trkpt lat="42.62394" lon="1.72555">
        <ele>2166.229</ele>
        <time>2021-08-06T08:49:26Z</time>
      </trkpt>
      <trkpt lat="42.62394" lon="1.72554">
        <ele>2167.242</ele>
        <time>2021-08-06T08:49:28Z</time>
      </trkpt>
      <trkpt lat="42.62394" lon="1.72553">
        <ele>2167.894</ele>
        <time>2021-08-06T08:49:30Z</time>
      </trkpt>
      <trkpt lat="42.62394" lon="1.72552">
        <ele>2168.722</ele>
        <time>2021-08-06T08:49:32Z</time>
      </trkpt>
      <trkpt lat="42.62394" lon="1.7255">
        <ele>2168.757</ele>
        <time>2021-08-06T08:49:34Z</time>
      </trkpt>
      <trkpt lat="42.62394" lon="1.72549">
        <ele>2168.345</ele>
        <time>2021-08-06T08:49:36Z</time>
      </trkpt>
      <trkpt lat="42.62394" lon="1.72548">
        <ele>2168.291</ele>
        <time>2021-08-06T08:49:38Z</time>
      </trkpt>
      <trkpt lat="42.62394" lon="1.72546">
        <ele>2168.217</ele>
        <time>2021-08-06T08:49:40Z</time>
      </trkpt>
      <trkpt lat="42.62395" lon="1.72545">
        <ele>2168.933</ele>
        <time>2021-08-06T08:49:42Z</time>
      </trkpt>
      <trkpt lat="42.62394" lon="1.72544">
        <ele>2169.199</ele>
        <time>2021-08-06T08:49:44Z</time>
      </trkpt>
      <trkpt lat="42.62393" lon="1.72545">
        <ele>2169.128</ele>
        <time>2021-08-06T08:49:46Z</time>
      </trkpt>
      <trkpt lat="42.62393" lon="1.72546">
        <ele>2169.763</ele>
        <time>2021-08-06T08:49:48Z</time>
      </trkpt>
      <trkpt lat="42.62392" lon="1.72547">
        <ele>2168.784</ele>
        <time>2021-08-06T08:49:50Z</time>
      </trkpt>
      <trkpt lat="42.6239" lon="1.72548">
        <ele>2168.409</ele>
        <time>2021-08-06T08:49:52Z</time>
      </trkpt>
      <trkpt lat="42.62389" lon="1.72548">
        <ele>2168.52</ele>
        <time>2021-08-06T08:49:54Z</time>
      </trkpt>
      <trkpt lat="42.62388" lon="1.72549">
        <ele>2168.601</ele>
        <time>2021-08-06T08:49:56Z</time>
      </trkpt>
      <trkpt lat="42.62387" lon="1.72549">
        <ele>2168.745</ele>
        <time>2021-08-06T08:49:58Z</time>
      </trkpt>
      <trkpt lat="42.62386" lon="1.7255">
        <ele>2169.597</ele>
        <time>2021-08-06T08:50:00Z</time>
      </trkpt>
      <trkpt lat="42.62385" lon="1.72551">
        <ele>2171.199</ele>
        <time>2021-08-06T08:50:02Z</time>
      </trkpt>
      <trkpt lat="42.62384" lon="1.72551">
        <ele>2171.614</ele>
        <time>2021-08-06T08:50:04Z</time>
      </trkpt>
      <trkpt lat="42.62383" lon="1.72552">
        <ele>2171.517</ele>
        <time>2021-08-06T08:50:06Z</time>
      </trkpt>
      <trkpt lat="42.62383" lon="1.72552">
        <ele>2172.314</ele>
        <time>2021-08-06T08:50:08Z</time>
      </trkpt>
      <trkpt lat="42.62382" lon="1.72552">
        <ele>2172.301</ele>
        <time>2021-08-06T08:50:10Z</time>
      </trkpt>
      <trkpt lat="42.62382" lon="1.72552">
        <ele>2173.523</ele>
        <time>2021-08-06T08:50:12Z</time>
      </trkpt>
      <trkpt lat="42.62381" lon="1.72552">
        <ele>2173.39</ele>
        <time>2021-08-06T08:50:14Z</time>
      </trkpt>
      <trkpt lat="42.6238" lon="1.72552">
        <ele>2173.691</ele>
        <time>2021-08-06T08:50:16Z</time>
      </trkpt>
      <trkpt lat="42.6238" lon="1.72552">
        <ele>2173.713</ele>
        <time>2021-08-06T08:50:18Z</time>
      </trkpt>
      <trkpt lat="42.62379" lon="1.72552">
        <ele>2173.989</ele>
        <time>2021-08-06T08:50:20Z</time>
      </trkpt>
      <trkpt lat="42.62378" lon="1.72553">
        <ele>2174.658</ele>
        <time>2021-08-06T08:50:22Z</time>
      </trkpt>
      <trkpt lat="42.62377" lon="1.72554">
        <ele>2174.609</ele>
        <time>2021-08-06T08:50:24Z</time>
      </trkpt>
      <trkpt lat="42.62377" lon="1.72554">
        <ele>2175.609</ele>
        <time>2021-08-06T08:50:26Z</time>
      </trkpt>
      <trkpt lat="42.62376" lon="1.72554">
        <ele>2175.671</ele>
        <time>2021-08-06T08:50:28Z</time>
      </trkpt>
      <trkpt lat="42.62376" lon="1.72552">
        <ele>2176.214</ele>
        <time>2021-08-06T08:50:30Z</time>
      </trkpt>
      <trkpt lat="42.62376" lon="1.7255">
        <ele>2176.943</ele>
        <time>2021-08-06T08:50:32Z</time>
      </trkpt>
      <trkpt lat="42.62377" lon="1.72549">
        <ele>2177.493</ele>
        <time>2021-08-06T08:50:34Z</time>
      </trkpt>
      <trkpt lat="42.62378" lon="1.72548">
        <ele>2176.939</ele>
        <time>2021-08-06T08:50:36Z</time>
      </trkpt>
      <trkpt lat="42.62378" lon="1.72546">
        <ele>2176.427</ele>
        <time>2021-08-06T08:50:38Z</time>
      </trkpt>
      <trkpt lat="42.62379" lon="1.72544">
        <ele>2176.637</ele>
        <time>2021-08-06T08:50:40Z</time>
      </trkpt>
      <trkpt lat="42.62379" lon="1.72542">
        <ele>2177.389</ele>
        <time>2021-08-06T08:50:42Z</time>
      </trkpt>
      <trkpt lat="42.62379" lon="1.72541">
        <ele>2177.694</ele>
        <time>2021-08-06T08:50:44Z</time>
      </trkpt>
      <trkpt lat="42.62378" lon="1.72539">
        <ele>2177.692</ele>
        <time>2021-08-06T08:50:46Z</time>
      </trkpt>
      <trkpt lat="42.62378" lon="1.72537">
        <ele>2177.878</ele>
        <time>2021-08-06T08:50:48Z</time>
      </trkpt>
      <trkpt lat="42.62379" lon="1.72536">
        <ele>2178.15</ele>
        <time>2021-08-06T08:50:50Z</time>
      </trkpt>
      <trkpt lat="42.62378" lon="1.72535">
        <ele>2178.822</ele>
        <time>2021-08-06T08:50:52Z</time>
      </trkpt>
      <trkpt lat="42.62379" lon="1.72533">
        <ele>2179.113</ele>
        <time>2021-08-06T08:50:54Z</time>
      </trkpt>
      <trkpt lat="42.62379" lon="1.72531">
        <ele>2178.993</ele>
        <time>2021-08-06T08:50:56Z</time>
      </trkpt>
      <trkpt lat="42.62379" lon="1.72529">
        <ele>2179.237</ele>
        <time>2021-08-06T08:50:58Z</time>
      </trkpt>
      <trkpt lat="42.62379" lon="1.72527">
        <ele>2179.544</ele>
        <time>2021-08-06T08:51:00Z</time>
      </trkpt>
      <trkpt lat="42.6238" lon="1.72524">
        <ele>2180.015</ele>
        <time>2021-08-06T08:51:02Z</time>
      </trkpt>
      <trkpt lat="42.6238" lon="1.72522">
        <ele>2180.52</ele>
        <time>2021-08-06T08:51:04Z</time>
      </trkpt>
      <trkpt lat="42.6238" lon="1.7252">
        <ele>2180.902</ele>
        <time>2021-08-06T08:51:06Z</time>
      </trkpt>
      <trkpt lat="42.62379" lon="1.72519">
        <ele>2181.235</ele>
        <time>2021-08-06T08:51:08Z</time>
      </trkpt>
      <trkpt lat="42.62378" lon="1.72519">
        <ele>2181.001</ele>
        <time>2021-08-06T08:51:10Z</time>
      </trkpt>
      <trkpt lat="42.62377" lon="1.7252">
        <ele>2181.352</ele>
        <time>2021-08-06T08:51:12Z</time>
      </trkpt>
      <trkpt lat="42.62376" lon="1.72521">
        <ele>2181.563</ele>
        <time>2021-08-06T08:51:14Z</time>
      </trkpt>
      <trkpt lat="42.62375" lon="1.72522">
        <ele>2180.926</ele>
        <time>2021-08-06T08:51:16Z</time>
      </trkpt>
      <trkpt lat="42.62375" lon="1.72523">
        <ele>2181.381</ele>
        <time>2021-08-06T08:51:18Z</time>
      </trkpt>
      <trkpt lat="42.62374" lon="1.72525">
        <ele>2182.27</ele>
        <time>2021-08-06T08:51:20Z</time>
      </trkpt>
      <trkpt lat="42.62373" lon="1.72526">
        <ele>2182.327</ele>
        <time>2021-08-06T08:51:22Z</time>
      </trkpt>
      <trkpt lat="42.62372" lon="1.72527">
        <ele>2183.024</ele>
        <time>2021-08-06T08:51:24Z</time>
      </trkpt>
      <trkpt lat="42.62372" lon="1.72527">
        <ele>2183.053</ele>
        <time>2021-08-06T08:51:26Z</time>
      </trkpt>
      <trkpt lat="42.62371" lon="1.72526">
        <ele>2183.222</ele>
        <time>2021-08-06T08:51:28Z</time>
      </trkpt>
      <trkpt lat="42.62371" lon="1.72525">
        <ele>2183.614</ele>
        <time>2021-08-06T08:51:30Z</time>
      </trkpt>
      <trkpt lat="42.62371" lon="1.72524">
        <ele>2183.404</ele>
        <time>2021-08-06T08:51:32Z</time>
      </trkpt>
      <trkpt lat="42.62371" lon="1.72522">
        <ele>2183.354</ele>
        <time>2021-08-06T08:51:34Z</time>
      </trkpt>
      <trkpt lat="42.6237" lon="1.72521">
        <ele>2183.387</ele>
        <time>2021-08-06T08:51:36Z</time>
      </trkpt>
      <trkpt lat="42.6237" lon="1.7252">
        <ele>2183.345</ele>
        <time>2021-08-06T08:51:38Z</time>
      </trkpt>
      <trkpt lat="42.6237" lon="1.72519">
        <ele>2184.11</ele>
        <time>2021-08-06T08:51:40Z</time>
      </trkpt>
      <trkpt lat="42.62371" lon="1.72517">
        <ele>2184.202</ele>
        <time>2021-08-06T08:51:42Z</time>
      </trkpt>
      <trkpt lat="42.62371" lon="1.72515">
        <ele>2185.108</ele>
        <time>2021-08-06T08:51:44Z</time>
      </trkpt>
      <trkpt lat="42.6237" lon="1.72514">
        <ele>2184.992</ele>
        <time>2021-08-06T08:51:46Z</time>
      </trkpt>
      <trkpt lat="42.6237" lon="1.72513">
        <ele>2185.335</ele>
        <time>2021-08-06T08:51:48Z</time>
      </trkpt>
      <trkpt lat="42.62369" lon="1.72514">
        <ele>2185.88</ele>
        <time>2021-08-06T08:51:50Z</time>
      </trkpt>
      <trkpt lat="42.62369" lon="1.72515">
        <ele>2185.687</ele>
        <time>2021-08-06T08:51:52Z</time>
      </trkpt>
      <trkpt lat="42.62368" lon="1.72516">
        <ele>2185.655</ele>
        <time>2021-08-06T08:51:54Z</time>
      </trkpt>
      <trkpt lat="42.62368" lon="1.72517">
        <ele>2185.3</ele>
        <time>2021-08-06T08:51:56Z</time>
      </trkpt>
      <trkpt lat="42.62367" lon="1.72518">
        <ele>2186.567</ele>
        <time>2021-08-06T08:51:58Z</time>
      </trkpt>
      <trkpt lat="42.62367" lon="1.72519">
        <ele>2186.229</ele>
        <time>2021-08-06T08:52:00Z</time>
      </trkpt>
      <trkpt lat="42.62366" lon="1.7252">
        <ele>2186.499</ele>
        <time>2021-08-06T08:52:02Z</time>
      </trkpt>
      <trkpt lat="42.62365" lon="1.7252">
        <ele>2186.792</ele>
        <time>2021-08-06T08:52:04Z</time>
      </trkpt>
      <trkpt lat="42.62365" lon="1.72521">
        <ele>2186.755</ele>
        <time>2021-08-06T08:52:06Z</time>
      </trkpt>
      <trkpt lat="42.62364" lon="1.7252">
        <ele>2186.469</ele>
        <time>2021-08-06T08:52:08Z</time>
      </trkpt>
      <trkpt lat="42.62364" lon="1.72518">
        <ele>2186.762</ele>
        <time>2021-08-06T08:52:10Z</time>
      </trkpt>
      <trkpt lat="42.62364" lon="1.72517">
        <ele>2187.208</ele>
        <time>2021-08-06T08:52:12Z</time>
      </trkpt>
      <trkpt lat="42.62364" lon="1.72515">
        <ele>2186.956</ele>
        <time>2021-08-06T08:52:14Z</time>
      </trkpt>
      <trkpt lat="42.62363" lon="1.72515">
        <ele>2186.951</ele>
        <time>2021-08-06T08:52:16Z</time>
      </trkpt>
      <trkpt lat="42.62362" lon="1.72515">
        <ele>2187.483</ele>
        <time>2021-08-06T08:52:18Z</time>
      </trkpt>
      <trkpt lat="42.62362" lon="1.72516">
        <ele>2187.558</ele>
        <time>2021-08-06T08:52:20Z</time>
      </trkpt>
      <trkpt lat="42.62361" lon="1.72516">
        <ele>2187.703</ele>
        <time>2021-08-06T08:52:22Z</time>
      </trkpt>
      <trkpt lat="42.6236" lon="1.72517">
        <ele>2187.66</ele>
        <time>2021-08-06T08:52:24Z</time>
      </trkpt>
      <trkpt lat="42.62359" lon="1.72518">
        <ele>2187.604</ele>
        <time>2021-08-06T08:52:26Z</time>
      </trkpt>
      <trkpt lat="42.62358" lon="1.72519">
        <ele>2187.244</ele>
        <time>2021-08-06T08:52:28Z</time>
      </trkpt>
      <trkpt lat="42.62358" lon="1.72519">
        <ele>2188.344</ele>
        <time>2021-08-06T08:52:30Z</time>
      </trkpt>
      <trkpt lat="42.62356" lon="1.72519">
        <ele>2188.954</ele>
        <time>2021-08-06T08:52:32Z</time>
      </trkpt>
      <trkpt lat="42.62356" lon="1.72519">
        <ele>2189.543</ele>
        <time>2021-08-06T08:52:34Z</time>
      </trkpt>
      <trkpt lat="42.62356" lon="1.72519">
        <ele>2190.504</ele>
        <time>2021-08-06T08:52:36Z</time>
      </trkpt>
      <trkpt lat="42.62355" lon="1.7252">
        <ele>2190.877</ele>
        <time>2021-08-06T08:52:38Z</time>
      </trkpt>
      <trkpt lat="42.62354" lon="1.72521">
        <ele>2191.541</ele>
        <time>2021-08-06T08:52:40Z</time>
      </trkpt>
      <trkpt lat="42.62354" lon="1.72521">
        <ele>2191.982</ele>
        <time>2021-08-06T08:52:42Z</time>
      </trkpt>
      <trkpt lat="42.62354" lon="1.72519">
        <ele>2192.675</ele>
        <time>2021-08-06T08:52:44Z</time>
      </trkpt>
      <trkpt lat="42.62354" lon="1.72518">
        <ele>2193.406</ele>
        <time>2021-08-06T08:52:46Z</time>
      </trkpt>
      <trkpt lat="42.62354" lon="1.72516">
        <ele>2193.915</ele>
        <time>2021-08-06T08:52:48Z</time>
      </trkpt>
      <trkpt lat="42.62354" lon="1.72514">
        <ele>2193.397</ele>
        <time>2021-08-06T08:52:50Z</time>
      </trkpt>
      <trkpt lat="42.62355" lon="1.72513">
        <ele>2192.827</ele>
        <time>2021-08-06T08:52:52Z</time>
      </trkpt>
      <trkpt lat="42.62355" lon="1.72511">
        <ele>2193.709</ele>
        <time>2021-08-06T08:52:54Z</time>
      </trkpt>
      <trkpt lat="42.62355" lon="1.72509">
        <ele>2194.142</ele>
        <time>2021-08-06T08:52:56Z</time>
      </trkpt>
      <trkpt lat="42.62354" lon="1.72507">
        <ele>2193.504</ele>
        <time>2021-08-06T08:52:58Z</time>
      </trkpt>
      <trkpt lat="42.62354" lon="1.72505">
        <ele>2194.187</ele>
        <time>2021-08-06T08:53:00Z</time>
      </trkpt>
      <trkpt lat="42.62353" lon="1.72503">
        <ele>2194.628</ele>
        <time>2021-08-06T08:53:02Z</time>
      </trkpt>
      <trkpt lat="42.62352" lon="1.72503">
        <ele>2194.787</ele>
        <time>2021-08-06T08:53:04Z</time>
      </trkpt>
      <trkpt lat="42.62352" lon="1.72505">
        <ele>2195.971</ele>
        <time>2021-08-06T08:53:06Z</time>
      </trkpt>
      <trkpt lat="42.62352" lon="1.72507">
        <ele>2195.929</ele>
        <time>2021-08-06T08:53:08Z</time>
      </trkpt>
      <trkpt lat="42.62351" lon="1.72508">
        <ele>2196.558</ele>
        <time>2021-08-06T08:53:10Z</time>
      </trkpt>
      <trkpt lat="42.62351" lon="1.7251">
        <ele>2196.305</ele>
        <time>2021-08-06T08:53:12Z</time>
      </trkpt>
      <trkpt lat="42.6235" lon="1.72511">
        <ele>2195.732</ele>
        <time>2021-08-06T08:53:14Z</time>
      </trkpt>
      <trkpt lat="42.62349" lon="1.72512">
        <ele>2195.439</ele>
        <time>2021-08-06T08:53:16Z</time>
      </trkpt>
      <trkpt lat="42.62349" lon="1.72511">
        <ele>2195.763</ele>
        <time>2021-08-06T08:53:18Z</time>
      </trkpt>
      <trkpt lat="42.62348" lon="1.7251">
        <ele>2195.876</ele>
        <time>2021-08-06T08:53:20Z</time>
      </trkpt>
      <trkpt lat="42.62347" lon="1.72508">
        <ele>2197.115</ele>
        <time>2021-08-06T08:53:22Z</time>
      </trkpt>
      <trkpt lat="42.62347" lon="1.72507">
        <ele>2197.523</ele>
        <time>2021-08-06T08:53:24Z</time>
      </trkpt>
      <trkpt lat="42.62347" lon="1.72505">
        <ele>2197.968</ele>
        <time>2021-08-06T08:53:26Z</time>
      </trkpt>
      <trkpt lat="42.62347" lon="1.72503">
        <ele>2198.109</ele>
        <time>2021-08-06T08:53:28Z</time>
      </trkpt>
      <trkpt lat="42.62346" lon="1.72501">
        <ele>2198.043</ele>
        <time>2021-08-06T08:53:30Z</time>
      </trkpt>
      <trkpt lat="42.62346" lon="1.72499">
        <ele>2198.371</ele>
        <time>2021-08-06T08:53:32Z</time>
      </trkpt>
      <trkpt lat="42.62345" lon="1.72498">
        <ele>2198.931</ele>
        <time>2021-08-06T08:53:34Z</time>
      </trkpt>
      <trkpt lat="42.62345" lon="1.72496">
        <ele>2198.956</ele>
        <time>2021-08-06T08:53:36Z</time>
      </trkpt>
      <trkpt lat="42.62345" lon="1.72494">
        <ele>2199.601</ele>
        <time>2021-08-06T08:53:38Z</time>
      </trkpt>
      <trkpt lat="42.62344" lon="1.72493">
        <ele>2199.781</ele>
        <time>2021-08-06T08:53:40Z</time>
      </trkpt>
      <trkpt lat="42.62344" lon="1.72495">
        <ele>2200.239</ele>
        <time>2021-08-06T08:53:42Z</time>
      </trkpt>
      <trkpt lat="42.62343" lon="1.72495">
        <ele>2199.389</ele>
        <time>2021-08-06T08:53:44Z</time>
      </trkpt>
      <trkpt lat="42.62342" lon="1.72496">
        <ele>2198.957</ele>
        <time>2021-08-06T08:53:46Z</time>
      </trkpt>
      <trkpt lat="42.62341" lon="1.72497">
        <ele>2198.027</ele>
        <time>2021-08-06T08:53:48Z</time>
      </trkpt>
      <trkpt lat="42.6234" lon="1.72498">
        <ele>2198.091</ele>
        <time>2021-08-06T08:53:50Z</time>
      </trkpt>
      <trkpt lat="42.6234" lon="1.72499">
        <ele>2199.752</ele>
        <time>2021-08-06T08:53:52Z</time>
      </trkpt>
      <trkpt lat="42.6234" lon="1.725">
        <ele>2199.751</ele>
        <time>2021-08-06T08:53:54Z</time>
      </trkpt>
      <trkpt lat="42.6234" lon="1.725">
        <ele>2199.204</ele>
        <time>2021-08-06T08:53:56Z</time>
      </trkpt>
      <trkpt lat="42.6234" lon="1.725">
        <ele>2199.205</ele>
        <time>2021-08-06T08:53:58Z</time>
      </trkpt>
      <trkpt lat="42.6234" lon="1.72501">
        <ele>2199.396</ele>
        <time>2021-08-06T08:54:00Z</time>
      </trkpt>
      <trkpt lat="42.62339" lon="1.72502">
        <ele>2200.454</ele>
        <time>2021-08-06T08:54:02Z</time>
      </trkpt>
      <trkpt lat="42.62339" lon="1.72502">
        <ele>2200.703</ele>
        <time>2021-08-06T08:54:04Z</time>
      </trkpt>
      <trkpt lat="42.62339" lon="1.72502">
        <ele>2200.451</ele>
        <time>2021-08-06T08:54:06Z</time>
      </trkpt>
      <trkpt lat="42.62338" lon="1.72503">
        <ele>2200.357</ele>
        <time>2021-08-06T08:54:08Z</time>
      </trkpt>
      <trkpt lat="42.62338" lon="1.72505">
        <ele>2200.511</ele>
        <time>2021-08-06T08:54:10Z</time>
      </trkpt>
      <trkpt lat="42.62337" lon="1.72506">
        <ele>2201.138</ele>
        <time>2021-08-06T08:54:12Z</time>
      </trkpt>
      <trkpt lat="42.62337" lon="1.72508">
        <ele>2200.225</ele>
        <time>2021-08-06T08:54:14Z</time>
      </trkpt>
      <trkpt lat="42.62337" lon="1.72509">
        <ele>2200.008</ele>
        <time>2021-08-06T08:54:16Z</time>
      </trkpt>
      <trkpt lat="42.62337" lon="1.72511">
        <ele>2200.271</ele>
        <time>2021-08-06T08:54:18Z</time>
      </trkpt>
      <trkpt lat="42.62336" lon="1.72512">
        <ele>2199.849</ele>
        <time>2021-08-06T08:54:20Z</time>
      </trkpt>
      <trkpt lat="42.62335" lon="1.72513">
        <ele>2199.751</ele>
        <time>2021-08-06T08:54:22Z</time>
      </trkpt>
      <trkpt lat="42.62335" lon="1.72515">
        <ele>2200.862</ele>
        <time>2021-08-06T08:54:24Z</time>
      </trkpt>
      <trkpt lat="42.62335" lon="1.72517">
        <ele>2201.456</ele>
        <time>2021-08-06T08:54:26Z</time>
      </trkpt>
      <trkpt lat="42.62334" lon="1.72519">
        <ele>2201.549</ele>
        <time>2021-08-06T08:54:28Z</time>
      </trkpt>
      <trkpt lat="42.62334" lon="1.72521">
        <ele>2201.424</ele>
        <time>2021-08-06T08:54:30Z</time>
      </trkpt>
      <trkpt lat="42.62334" lon="1.72522">
        <ele>2200.973</ele>
        <time>2021-08-06T08:54:32Z</time>
      </trkpt>
      <trkpt lat="42.62333" lon="1.72524">
        <ele>2201.449</ele>
        <time>2021-08-06T08:54:34Z</time>
      </trkpt>
      <trkpt lat="42.62332" lon="1.72525">
        <ele>2202.12</ele>
        <time>2021-08-06T08:54:36Z</time>
      </trkpt>
      <trkpt lat="42.62332" lon="1.72527">
        <ele>2203.589</ele>
        <time>2021-08-06T08:54:38Z</time>
      </trkpt>
      <trkpt lat="42.62331" lon="1.72529">
        <ele>2203.798</ele>
        <time>2021-08-06T08:54:40Z</time>
      </trkpt>
      <trkpt lat="42.62331" lon="1.7253">
        <ele>2203.624</ele>
        <time>2021-08-06T08:54:42Z</time>
      </trkpt>
      <trkpt lat="42.6233" lon="1.72532">
        <ele>2203.379</ele>
        <time>2021-08-06T08:54:44Z</time>
      </trkpt>
      <trkpt lat="42.62329" lon="1.72533">
        <ele>2203.304</ele>
        <time>2021-08-06T08:54:46Z</time>
      </trkpt>
      <trkpt lat="42.62328" lon="1.72534">
        <ele>2203.091</ele>
        <time>2021-08-06T08:54:48Z</time>
      </trkpt>
      <trkpt lat="42.62327" lon="1.72535">
        <ele>2202.174</ele>
        <time>2021-08-06T08:54:50Z</time>
      </trkpt>
      <trkpt lat="42.62326" lon="1.72536">
        <ele>2201.054</ele>
        <time>2021-08-06T08:54:52Z</time>
      </trkpt>
      <trkpt lat="42.62325" lon="1.72537">
        <ele>2201.207</ele>
        <time>2021-08-06T08:54:54Z</time>
      </trkpt>
      <trkpt lat="42.62324" lon="1.72538">
        <ele>2200.592</ele>
        <time>2021-08-06T08:54:56Z</time>
      </trkpt>
      <trkpt lat="42.62324" lon="1.72538">
        <ele>2200.773</ele>
        <time>2021-08-06T08:54:58Z</time>
      </trkpt>
      <trkpt lat="42.62324" lon="1.72539">
        <ele>2202.257</ele>
        <time>2021-08-06T08:55:00Z</time>
      </trkpt>
      <trkpt lat="42.62324" lon="1.72539">
        <ele>2202.88</ele>
        <time>2021-08-06T08:55:02Z</time>
      </trkpt>
      <trkpt lat="42.62324" lon="1.72538">
        <ele>2205.265</ele>
        <time>2021-08-06T08:55:04Z</time>
      </trkpt>
      <trkpt lat="42.62323" lon="1.72536">
        <ele>2206.022</ele>
        <time>2021-08-06T08:55:06Z</time>
      </trkpt>
      <trkpt lat="42.62323" lon="1.72535">
        <ele>2207.627</ele>
        <time>2021-08-06T08:55:08Z</time>
      </trkpt>
      <trkpt lat="42.62324" lon="1.72533">
        <ele>2209.121</ele>
        <time>2021-08-06T08:55:10Z</time>
      </trkpt>
      <trkpt lat="42.62323" lon="1.72532">
        <ele>2209.552</ele>
        <time>2021-08-06T08:55:12Z</time>
      </trkpt>
      <trkpt lat="42.62323" lon="1.72532">
        <ele>2209.366</ele>
        <time>2021-08-06T08:55:14Z</time>
      </trkpt>
      <trkpt lat="42.62323" lon="1.72531">
        <ele>2210.087</ele>
        <time>2021-08-06T08:55:16Z</time>
      </trkpt>
      <trkpt lat="42.62323" lon="1.7253">
        <ele>2210.055</ele>
        <time>2021-08-06T08:55:18Z</time>
      </trkpt>
      <trkpt lat="42.62323" lon="1.72529">
        <ele>2210.676</ele>
        <time>2021-08-06T08:55:20Z</time>
      </trkpt>
      <trkpt lat="42.62323" lon="1.72528">
        <ele>2211.294</ele>
        <time>2021-08-06T08:55:22Z</time>
      </trkpt>
      <trkpt lat="42.62322" lon="1.72527">
        <ele>2211.441</ele>
        <time>2021-08-06T08:55:24Z</time>
      </trkpt>
      <trkpt lat="42.62322" lon="1.72526">
        <ele>2211.705</ele>
        <time>2021-08-06T08:55:26Z</time>
      </trkpt>
      <trkpt lat="42.62321" lon="1.72525">
        <ele>2210.935</ele>
        <time>2021-08-06T08:55:28Z</time>
      </trkpt>
      <trkpt lat="42.62321" lon="1.72526">
        <ele>2211.587</ele>
        <time>2021-08-06T08:55:30Z</time>
      </trkpt>
      <trkpt lat="42.62321" lon="1.72527">
        <ele>2211.734</ele>
        <time>2021-08-06T08:55:32Z</time>
      </trkpt>
      <trkpt lat="42.6232" lon="1.72529">
        <ele>2211.303</ele>
        <time>2021-08-06T08:55:34Z</time>
      </trkpt>
      <trkpt lat="42.6232" lon="1.72529">
        <ele>2210.802</ele>
        <time>2021-08-06T08:55:36Z</time>
      </trkpt>
      <trkpt lat="42.62319" lon="1.7253">
        <ele>2210.893</ele>
        <time>2021-08-06T08:55:38Z</time>
      </trkpt>
      <trkpt lat="42.62319" lon="1.72531">
        <ele>2211.461</ele>
        <time>2021-08-06T08:55:40Z</time>
      </trkpt>
      <trkpt lat="42.62319" lon="1.72532">
        <ele>2211.598</ele>
        <time>2021-08-06T08:55:42Z</time>
      </trkpt>
      <trkpt lat="42.62318" lon="1.72532">
        <ele>2212.237</ele>
        <time>2021-08-06T08:55:44Z</time>
      </trkpt>
      <trkpt lat="42.62318" lon="1.72534">
        <ele>2212.076</ele>
        <time>2021-08-06T08:55:46Z</time>
      </trkpt>
      <trkpt lat="42.62317" lon="1.72534">
        <ele>2211.804</ele>
        <time>2021-08-06T08:55:48Z</time>
      </trkpt>
      <trkpt lat="42.62316" lon="1.72534">
        <ele>2211.835</ele>
        <time>2021-08-06T08:55:50Z</time>
      </trkpt>
      <trkpt lat="42.62316" lon="1.72534">
        <ele>2212.275</ele>
        <time>2021-08-06T08:55:52Z</time>
      </trkpt>
      <trkpt lat="42.62316" lon="1.72534">
        <ele>2212.851</ele>
        <time>2021-08-06T08:55:54Z</time>
      </trkpt>
      <trkpt lat="42.62315" lon="1.72533">
        <ele>2213.102</ele>
        <time>2021-08-06T08:55:56Z</time>
      </trkpt>
      <trkpt lat="42.62315" lon="1.72533">
        <ele>2212.706</ele>
        <time>2021-08-06T08:55:58Z</time>
      </trkpt>
      <trkpt lat="42.62315" lon="1.72533">
        <ele>2212.721</ele>
        <time>2021-08-06T08:56:00Z</time>
      </trkpt>
      <trkpt lat="42.62315" lon="1.72533">
        <ele>2212.767</ele>
        <time>2021-08-06T08:56:02Z</time>
      </trkpt>
      <trkpt lat="42.62314" lon="1.72533">
        <ele>2213.712</ele>
        <time>2021-08-06T08:56:04Z</time>
      </trkpt>
      <trkpt lat="42.62313" lon="1.72533">
        <ele>2213.95</ele>
        <time>2021-08-06T08:56:06Z</time>
      </trkpt>
      <trkpt lat="42.62313" lon="1.72532">
        <ele>2214.645</ele>
        <time>2021-08-06T08:56:08Z</time>
      </trkpt>
      <trkpt lat="42.62312" lon="1.72533">
        <ele>2216.098</ele>
        <time>2021-08-06T08:56:10Z</time>
      </trkpt>
      <trkpt lat="42.62311" lon="1.72533">
        <ele>2214.003</ele>
        <time>2021-08-06T08:56:12Z</time>
      </trkpt>
      <trkpt lat="42.62311" lon="1.72534">
        <ele>2214.192</ele>
        <time>2021-08-06T08:56:14Z</time>
      </trkpt>
      <trkpt lat="42.62311" lon="1.72534">
        <ele>2214.202</ele>
        <time>2021-08-06T08:56:16Z</time>
      </trkpt>
      <trkpt lat="42.62311" lon="1.72534">
        <ele>2214.219</ele>
        <time>2021-08-06T08:56:18Z</time>
      </trkpt>
      <trkpt lat="42.62311" lon="1.72534">
        <ele>2214.223</ele>
        <time>2021-08-06T08:56:20Z</time>
      </trkpt>
      <trkpt lat="42.62311" lon="1.72534">
        <ele>2214.219</ele>
        <time>2021-08-06T08:56:22Z</time>
      </trkpt>
      <trkpt lat="42.6231" lon="1.72534">
        <ele>2214.72</ele>
        <time>2021-08-06T08:56:24Z</time>
      </trkpt>
      <trkpt lat="42.62309" lon="1.72533">
        <ele>2214.544</ele>
        <time>2021-08-06T08:56:26Z</time>
      </trkpt>
      <trkpt lat="42.62309" lon="1.72534">
        <ele>2214.145</ele>
        <time>2021-08-06T08:56:28Z</time>
      </trkpt>
      <trkpt lat="42.62309" lon="1.72536">
        <ele>2214.355</ele>
        <time>2021-08-06T08:56:30Z</time>
      </trkpt>
      <trkpt lat="42.62308" lon="1.72538">
        <ele>2213.916</ele>
        <time>2021-08-06T08:56:32Z</time>
      </trkpt>
      <trkpt lat="42.62308" lon="1.72539">
        <ele>2214.355</ele>
        <time>2021-08-06T08:56:34Z</time>
      </trkpt>
      <trkpt lat="42.62308" lon="1.72539">
        <ele>2215.051</ele>
        <time>2021-08-06T08:56:36Z</time>
      </trkpt>
      <trkpt lat="42.62307" lon="1.7254">
        <ele>2215.887</ele>
        <time>2021-08-06T08:56:38Z</time>
      </trkpt>
      <trkpt lat="42.62306" lon="1.72539">
        <ele>2217.098</ele>
        <time>2021-08-06T08:56:40Z</time>
      </trkpt>
      <trkpt lat="42.62306" lon="1.72538">
        <ele>2219.236</ele>
        <time>2021-08-06T08:56:42Z</time>
      </trkpt>
      <trkpt lat="42.62306" lon="1.72537">
        <ele>2219.391</ele>
        <time>2021-08-06T08:56:44Z</time>
      </trkpt>
      <trkpt lat="42.62306" lon="1.72537">
        <ele>2219.368</ele>
        <time>2021-08-06T08:56:46Z</time>
      </trkpt>
      <trkpt lat="42.62306" lon="1.72536">
        <ele>2219.284</ele>
        <time>2021-08-06T08:56:48Z</time>
      </trkpt>
      <trkpt lat="42.62306" lon="1.72535">
        <ele>2219.785</ele>
        <time>2021-08-06T08:56:50Z</time>
      </trkpt>
      <trkpt lat="42.62305" lon="1.72534">
        <ele>2220.45</ele>
        <time>2021-08-06T08:56:52Z</time>
      </trkpt>
      <trkpt lat="42.62306" lon="1.72533">
        <ele>2220.456</ele>
        <time>2021-08-06T08:56:54Z</time>
      </trkpt>
      <trkpt lat="42.62306" lon="1.72533">
        <ele>2220.474</ele>
        <time>2021-08-06T08:56:56Z</time>
      </trkpt>
      <trkpt lat="42.62306" lon="1.72533">
        <ele>2221.581</ele>
        <time>2021-08-06T08:56:58Z</time>
      </trkpt>
      <trkpt lat="42.62305" lon="1.72532">
        <ele>2223.042</ele>
        <time>2021-08-06T08:57:00Z</time>
      </trkpt>
      <trkpt lat="42.62305" lon="1.72531">
        <ele>2223.957</ele>
        <time>2021-08-06T08:57:02Z</time>
      </trkpt>
      <trkpt lat="42.62304" lon="1.72531">
        <ele>2223.671</ele>
        <time>2021-08-06T08:57:04Z</time>
      </trkpt>
      <trkpt lat="42.62304" lon="1.72532">
        <ele>2224.031</ele>
        <time>2021-08-06T08:57:06Z</time>
      </trkpt>
      <trkpt lat="42.62304" lon="1.72532">
        <ele>2224.301</ele>
        <time>2021-08-06T08:57:08Z</time>
      </trkpt>
      <trkpt lat="42.62303" lon="1.72533">
        <ele>2225.98</ele>
        <time>2021-08-06T08:57:10Z</time>
      </trkpt>
      <trkpt lat="42.62303" lon="1.72533">
        <ele>2226.097</ele>
        <time>2021-08-06T08:57:12Z</time>
      </trkpt>
      <trkpt lat="42.62303" lon="1.72532">
        <ele>2228.128</ele>
        <time>2021-08-06T08:57:14Z</time>
      </trkpt>
      <trkpt lat="42.62303" lon="1.72529">
        <ele>2229.596</ele>
        <time>2021-08-06T08:57:16Z</time>
      </trkpt>
      <trkpt lat="42.62302" lon="1.72528">
        <ele>2229.467</ele>
        <time>2021-08-06T08:57:18Z</time>
      </trkpt>
      <trkpt lat="42.62301" lon="1.72527">
        <ele>2230.074</ele>
        <time>2021-08-06T08:57:20Z</time>
      </trkpt>
      <trkpt lat="42.62301" lon="1.72527">
        <ele>2229.993</ele>
        <time>2021-08-06T08:57:22Z</time>
      </trkpt>
      <trkpt lat="42.623" lon="1.72526">
        <ele>2229.739</ele>
        <time>2021-08-06T08:57:24Z</time>
      </trkpt>
      <trkpt lat="42.62299" lon="1.72527">
        <ele>2229.693</ele>
        <time>2021-08-06T08:57:26Z</time>
      </trkpt>
      <trkpt lat="42.62298" lon="1.72528">
        <ele>2229.898</ele>
        <time>2021-08-06T08:57:28Z</time>
      </trkpt>
      <trkpt lat="42.62297" lon="1.72528">
        <ele>2229.612</ele>
        <time>2021-08-06T08:57:30Z</time>
      </trkpt>
      <trkpt lat="42.62297" lon="1.72527">
        <ele>2231.057</ele>
        <time>2021-08-06T08:57:32Z</time>
      </trkpt>
      <trkpt lat="42.62296" lon="1.72526">
        <ele>2231.186</ele>
        <time>2021-08-06T08:57:34Z</time>
      </trkpt>
      <trkpt lat="42.62296" lon="1.72526">
        <ele>2230.831</ele>
        <time>2021-08-06T08:57:36Z</time>
      </trkpt>
      <trkpt lat="42.62296" lon="1.72524">
        <ele>2231.593</ele>
        <time>2021-08-06T08:57:38Z</time>
      </trkpt>
      <trkpt lat="42.62296" lon="1.72523">
        <ele>2232.289</ele>
        <time>2021-08-06T08:57:40Z</time>
      </trkpt>
      <trkpt lat="42.62296" lon="1.72522">
        <ele>2233.125</ele>
        <time>2021-08-06T08:57:42Z</time>
      </trkpt>
      <trkpt lat="42.62296" lon="1.72521">
        <ele>2233.257</ele>
        <time>2021-08-06T08:57:44Z</time>
      </trkpt>
      <trkpt lat="42.62295" lon="1.7252">
        <ele>2233.464</ele>
        <time>2021-08-06T08:57:46Z</time>
      </trkpt>
      <trkpt lat="42.62295" lon="1.72518">
        <ele>2233.636</ele>
        <time>2021-08-06T08:57:48Z</time>
      </trkpt>
      <trkpt lat="42.62295" lon="1.72517">
        <ele>2233.737</ele>
        <time>2021-08-06T08:57:50Z</time>
      </trkpt>
      <trkpt lat="42.62295" lon="1.72516">
        <ele>2234.419</ele>
        <time>2021-08-06T08:57:52Z</time>
      </trkpt>
      <trkpt lat="42.62294" lon="1.72514">
        <ele>2234.94</ele>
        <time>2021-08-06T08:57:54Z</time>
      </trkpt>
      <trkpt lat="42.62295" lon="1.72512">
        <ele>2235.559</ele>
        <time>2021-08-06T08:57:56Z</time>
      </trkpt>
      <trkpt lat="42.62295" lon="1.72511">
        <ele>2235.668</ele>
        <time>2021-08-06T08:57:58Z</time>
      </trkpt>
      <trkpt lat="42.62295" lon="1.7251">
        <ele>2236.09</ele>
        <time>2021-08-06T08:58:00Z</time>
      </trkpt>
      <trkpt lat="42.62295" lon="1.72508">
        <ele>2236.471</ele>
        <time>2021-08-06T08:58:02Z</time>
      </trkpt>
      <trkpt lat="42.62295" lon="1.72508">
        <ele>2237.06</ele>
        <time>2021-08-06T08:58:04Z</time>
      </trkpt>
      <trkpt lat="42.62295" lon="1.72507">
        <ele>2237.468</ele>
        <time>2021-08-06T08:58:06Z</time>
      </trkpt>
      <trkpt lat="42.62294" lon="1.72506">
        <ele>2237.662</ele>
        <time>2021-08-06T08:58:08Z</time>
      </trkpt>
      <trkpt lat="42.62294" lon="1.72505">
        <ele>2237.307</ele>
        <time>2021-08-06T08:58:10Z</time>
      </trkpt>
      <trkpt lat="42.62294" lon="1.72503">
        <ele>2238.566</ele>
        <time>2021-08-06T08:58:12Z</time>
      </trkpt>
      <trkpt lat="42.62294" lon="1.72502">
        <ele>2238.652</ele>
        <time>2021-08-06T08:58:14Z</time>
      </trkpt>
      <trkpt lat="42.62293" lon="1.72502">
        <ele>2239.078</ele>
        <time>2021-08-06T08:58:16Z</time>
      </trkpt>
      <trkpt lat="42.62293" lon="1.72501">
        <ele>2238.966</ele>
        <time>2021-08-06T08:58:18Z</time>
      </trkpt>
      <trkpt lat="42.62292" lon="1.72501">
        <ele>2239.022</ele>
        <time>2021-08-06T08:58:20Z</time>
      </trkpt>
      <trkpt lat="42.62291" lon="1.72501">
        <ele>2239.516</ele>
        <time>2021-08-06T08:58:22Z</time>
      </trkpt>
      <trkpt lat="42.62291" lon="1.72502">
        <ele>2238.869</ele>
        <time>2021-08-06T08:58:24Z</time>
      </trkpt>
      <trkpt lat="42.62291" lon="1.72502">
        <ele>2239.034</ele>
        <time>2021-08-06T08:58:26Z</time>
      </trkpt>
      <trkpt lat="42.62291" lon="1.72502">
        <ele>2239.041</ele>
        <time>2021-08-06T08:58:28Z</time>
      </trkpt>
      <trkpt lat="42.6229" lon="1.72503">
        <ele>2239.362</ele>
        <time>2021-08-06T08:58:30Z</time>
      </trkpt>
      <trkpt lat="42.6229" lon="1.72503">
        <ele>2239.694</ele>
        <time>2021-08-06T08:58:32Z</time>
      </trkpt>
      <trkpt lat="42.6229" lon="1.72503">
        <ele>2239.671</ele>
        <time>2021-08-06T08:58:34Z</time>
      </trkpt>
      <trkpt lat="42.6229" lon="1.72503">
        <ele>2240.44</ele>
        <time>2021-08-06T08:58:36Z</time>
      </trkpt>
      <trkpt lat="42.6229" lon="1.72503">
        <ele>2240.735</ele>
        <time>2021-08-06T08:58:38Z</time>
      </trkpt>
      <trkpt lat="42.62289" lon="1.72504">
        <ele>2240.425</ele>
        <time>2021-08-06T08:58:40Z</time>
      </trkpt>
      <trkpt lat="42.62289" lon="1.72505">
        <ele>2240.329</ele>
        <time>2021-08-06T08:58:42Z</time>
      </trkpt>
      <trkpt lat="42.62289" lon="1.72505">
        <ele>2240.216</ele>
        <time>2021-08-06T08:58:44Z</time>
      </trkpt>
      <trkpt lat="42.62288" lon="1.72506">
        <ele>2240.92</ele>
        <time>2021-08-06T08:58:46Z</time>
      </trkpt>
      <trkpt lat="42.62288" lon="1.72508">
        <ele>2241.425</ele>
        <time>2021-08-06T08:58:48Z</time>
      </trkpt>
      <trkpt lat="42.62288" lon="1.72509">
        <ele>2241.079</ele>
        <time>2021-08-06T08:58:50Z</time>
      </trkpt>
      <trkpt lat="42.62288" lon="1.7251">
        <ele>2240.111</ele>
        <time>2021-08-06T08:58:52Z</time>
      </trkpt>
      <trkpt lat="42.62287" lon="1.72511">
        <ele>2239.604</ele>
        <time>2021-08-06T08:58:54Z</time>
      </trkpt>
      <trkpt lat="42.62287" lon="1.72513">
        <ele>2240.892</ele>
        <time>2021-08-06T08:58:56Z</time>
      </trkpt>
      <trkpt lat="42.62286" lon="1.72514">
        <ele>2241.317</ele>
        <time>2021-08-06T08:58:58Z</time>
      </trkpt>
      <trkpt lat="42.62286" lon="1.72516">
        <ele>2241.77</ele>
        <time>2021-08-06T08:59:00Z</time>
      </trkpt>
      <trkpt lat="42.62286" lon="1.72517">
        <ele>2241.898</ele>
        <time>2021-08-06T08:59:02Z</time>
      </trkpt>
      <trkpt lat="42.62286" lon="1.72518">
        <ele>2241.838</ele>
        <time>2021-08-06T08:59:04Z</time>
      </trkpt>
      <trkpt lat="42.62285" lon="1.72519">
        <ele>2241.979</ele>
        <time>2021-08-06T08:59:06Z</time>
      </trkpt>
      <trkpt lat="42.62285" lon="1.7252">
        <ele>2242.523</ele>
        <time>2021-08-06T08:59:08Z</time>
      </trkpt>
      <trkpt lat="42.62284" lon="1.7252">
        <ele>2242.186</ele>
        <time>2021-08-06T08:59:10Z</time>
      </trkpt>
      <trkpt lat="42.62284" lon="1.7252">
        <ele>2242.209</ele>
        <time>2021-08-06T08:59:12Z</time>
      </trkpt>
      <trkpt lat="42.62284" lon="1.7252">
        <ele>2242.24</ele>
        <time>2021-08-06T08:59:14Z</time>
      </trkpt>
      <trkpt lat="42.62283" lon="1.72521">
        <ele>2242.393</ele>
        <time>2021-08-06T08:59:16Z</time>
      </trkpt>
      <trkpt lat="42.62282" lon="1.7252">
        <ele>2242.825</ele>
        <time>2021-08-06T08:59:18Z</time>
      </trkpt>
      <trkpt lat="42.62282" lon="1.72518">
        <ele>2243.084</ele>
        <time>2021-08-06T08:59:20Z</time>
      </trkpt>
      <trkpt lat="42.62282" lon="1.72517">
        <ele>2243.66</ele>
        <time>2021-08-06T08:59:22Z</time>
      </trkpt>
      <trkpt lat="42.62282" lon="1.72516">
        <ele>2243.174</ele>
        <time>2021-08-06T08:59:24Z</time>
      </trkpt>
      <trkpt lat="42.62281" lon="1.72515">
        <ele>2244.198</ele>
        <time>2021-08-06T08:59:26Z</time>
      </trkpt>
      <trkpt lat="42.62281" lon="1.72514">
        <ele>2244.569</ele>
        <time>2021-08-06T08:59:28Z</time>
      </trkpt>
      <trkpt lat="42.62281" lon="1.72514">
        <ele>2244.567</ele>
        <time>2021-08-06T08:59:30Z</time>
      </trkpt>
      <trkpt lat="42.62281" lon="1.72514">
        <ele>2244.55</ele>
        <time>2021-08-06T08:59:32Z</time>
      </trkpt>
      <trkpt lat="42.6228" lon="1.72513">
        <ele>2244.591</ele>
        <time>2021-08-06T08:59:34Z</time>
      </trkpt>
      <trkpt lat="42.6228" lon="1.72513">
        <ele>2244.61</ele>
        <time>2021-08-06T08:59:36Z</time>
      </trkpt>
      <trkpt lat="42.6228" lon="1.72513">
        <ele>2244.838</ele>
        <time>2021-08-06T08:59:38Z</time>
      </trkpt>
      <trkpt lat="42.6228" lon="1.72511">
        <ele>2245.313</ele>
        <time>2021-08-06T08:59:40Z</time>
      </trkpt>
      <trkpt lat="42.6228" lon="1.7251">
        <ele>2245.719</ele>
        <time>2021-08-06T08:59:42Z</time>
      </trkpt>
      <trkpt lat="42.6228" lon="1.72509">
        <ele>2246.44</ele>
        <time>2021-08-06T08:59:44Z</time>
      </trkpt>
      <trkpt lat="42.6228" lon="1.72509">
        <ele>2246.458</ele>
        <time>2021-08-06T08:59:46Z</time>
      </trkpt>
      <trkpt lat="42.62279" lon="1.72508">
        <ele>2246.551</ele>
        <time>2021-08-06T08:59:48Z</time>
      </trkpt>
      <trkpt lat="42.62279" lon="1.72508">
        <ele>2247.236</ele>
        <time>2021-08-06T08:59:50Z</time>
      </trkpt>
      <trkpt lat="42.62278" lon="1.72506">
        <ele>2247.03</ele>
        <time>2021-08-06T08:59:52Z</time>
      </trkpt>
      <trkpt lat="42.62278" lon="1.72505">
        <ele>2247.719</ele>
        <time>2021-08-06T08:59:54Z</time>
      </trkpt>
      <trkpt lat="42.62277" lon="1.72504">
        <ele>2248.003</ele>
        <time>2021-08-06T08:59:56Z</time>
      </trkpt>
      <trkpt lat="42.62277" lon="1.72502">
        <ele>2248.126</ele>
        <time>2021-08-06T08:59:58Z</time>
      </trkpt>
      <trkpt lat="42.62277" lon="1.72502">
        <ele>2248.662</ele>
        <time>2021-08-06T09:00:00Z</time>
      </trkpt>
      <trkpt lat="42.62277" lon="1.72502">
        <ele>2248.674</ele>
        <time>2021-08-06T09:00:02Z</time>
      </trkpt>
      <trkpt lat="42.62275" lon="1.72502">
        <ele>2249.609</ele>
        <time>2021-08-06T09:00:04Z</time>
      </trkpt>
      <trkpt lat="42.62275" lon="1.72504">
        <ele>2250.231</ele>
        <time>2021-08-06T09:00:06Z</time>
      </trkpt>
      <trkpt lat="42.62275" lon="1.72505">
        <ele>2250.478</ele>
        <time>2021-08-06T09:00:08Z</time>
      </trkpt>
      <trkpt lat="42.62274" lon="1.72507">
        <ele>2250.662</ele>
        <time>2021-08-06T09:00:10Z</time>
      </trkpt>
      <trkpt lat="42.62275" lon="1.72507">
        <ele>2251.035</ele>
        <time>2021-08-06T09:00:12Z</time>
      </trkpt>
      <trkpt lat="42.62274" lon="1.72509">
        <ele>2251.507</ele>
        <time>2021-08-06T09:00:14Z</time>
      </trkpt>
      <trkpt lat="42.62274" lon="1.7251">
        <ele>2251.482</ele>
        <time>2021-08-06T09:00:16Z</time>
      </trkpt>
      <trkpt lat="42.62274" lon="1.72512">
        <ele>2250.921</ele>
        <time>2021-08-06T09:00:18Z</time>
      </trkpt>
      <trkpt lat="42.62274" lon="1.72513">
        <ele>2251.055</ele>
        <time>2021-08-06T09:00:20Z</time>
      </trkpt>
      <trkpt lat="42.62274" lon="1.72514">
        <ele>2251.606</ele>
        <time>2021-08-06T09:00:22Z</time>
      </trkpt>
      <trkpt lat="42.62274" lon="1.72516">
        <ele>2251.275</ele>
        <time>2021-08-06T09:00:24Z</time>
      </trkpt>
      <trkpt lat="42.62274" lon="1.72517">
        <ele>2251.083</ele>
        <time>2021-08-06T09:00:26Z</time>
      </trkpt>
      <trkpt lat="42.62273" lon="1.72518">
        <ele>2249.622</ele>
        <time>2021-08-06T09:00:28Z</time>
      </trkpt>
      <trkpt lat="42.62274" lon="1.7252">
        <ele>2250.051</ele>
        <time>2021-08-06T09:00:30Z</time>
      </trkpt>
      <trkpt lat="42.62274" lon="1.72521">
        <ele>2249.099</ele>
        <time>2021-08-06T09:00:32Z</time>
      </trkpt>
      <trkpt lat="42.62274" lon="1.72522">
        <ele>2248.793</ele>
        <time>2021-08-06T09:00:34Z</time>
      </trkpt>
      <trkpt lat="42.62273" lon="1.72523">
        <ele>2249.625</ele>
        <time>2021-08-06T09:00:36Z</time>
      </trkpt>
      <trkpt lat="42.62274" lon="1.72524">
        <ele>2250.128</ele>
        <time>2021-08-06T09:00:38Z</time>
      </trkpt>
      <trkpt lat="42.62274" lon="1.72526">
        <ele>2250.488</ele>
        <time>2021-08-06T09:00:40Z</time>
      </trkpt>
      <trkpt lat="42.62273" lon="1.72528">
        <ele>2250.385</ele>
        <time>2021-08-06T09:00:42Z</time>
      </trkpt>
      <trkpt lat="42.62273" lon="1.72529">
        <ele>2251.03</ele>
        <time>2021-08-06T09:00:44Z</time>
      </trkpt>
      <trkpt lat="42.62273" lon="1.72531">
        <ele>2251.132</ele>
        <time>2021-08-06T09:00:46Z</time>
      </trkpt>
      <trkpt lat="42.62273" lon="1.72533">
        <ele>2250.984</ele>
        <time>2021-08-06T09:00:48Z</time>
      </trkpt>
      <trkpt lat="42.62272" lon="1.72535">
        <ele>2251.221</ele>
        <time>2021-08-06T09:00:50Z</time>
      </trkpt>
      <trkpt lat="42.62272" lon="1.72537">
        <ele>2253.037</ele>
        <time>2021-08-06T09:00:52Z</time>
      </trkpt>
      <trkpt lat="42.62272" lon="1.72538">
        <ele>2253.411</ele>
        <time>2021-08-06T09:00:54Z</time>
      </trkpt>
      <trkpt lat="42.62272" lon="1.7254">
        <ele>2253.861</ele>
        <time>2021-08-06T09:00:56Z</time>
      </trkpt>
      <trkpt lat="42.62272" lon="1.72542">
        <ele>2253.876</ele>
        <time>2021-08-06T09:00:58Z</time>
      </trkpt>
      <trkpt lat="42.62272" lon="1.72544">
        <ele>2254.071</ele>
        <time>2021-08-06T09:01:00Z</time>
      </trkpt>
      <trkpt lat="42.62272" lon="1.72546">
        <ele>2254.207</ele>
        <time>2021-08-06T09:01:02Z</time>
      </trkpt>
      <trkpt lat="42.62272" lon="1.72546">
        <ele>2253.266</ele>
        <time>2021-08-06T09:01:04Z</time>
      </trkpt>
      <trkpt lat="42.62271" lon="1.72548">
        <ele>2252.987</ele>
        <time>2021-08-06T09:01:06Z</time>
      </trkpt>
      <trkpt lat="42.6227" lon="1.7255">
        <ele>2252.619</ele>
        <time>2021-08-06T09:01:08Z</time>
      </trkpt>
      <trkpt lat="42.6227" lon="1.72551">
        <ele>2253.493</ele>
        <time>2021-08-06T09:01:10Z</time>
      </trkpt>
      <trkpt lat="42.62269" lon="1.72552">
        <ele>2252.804</ele>
        <time>2021-08-06T09:01:12Z</time>
      </trkpt>
      <trkpt lat="42.62268" lon="1.72553">
        <ele>2251.333</ele>
        <time>2021-08-06T09:01:14Z</time>
      </trkpt>
      <trkpt lat="42.62268" lon="1.72553">
        <ele>2251.322</ele>
        <time>2021-08-06T09:01:16Z</time>
      </trkpt>
      <trkpt lat="42.62268" lon="1.72552">
        <ele>2251.51</ele>
        <time>2021-08-06T09:01:18Z</time>
      </trkpt>
      <trkpt lat="42.62267" lon="1.72551">
        <ele>2254.137</ele>
        <time>2021-08-06T09:01:20Z</time>
      </trkpt>
      <trkpt lat="42.62267" lon="1.7255">
        <ele>2254.68</ele>
        <time>2021-08-06T09:01:22Z</time>
      </trkpt>
      <trkpt lat="42.62267" lon="1.72549">
        <ele>2256.335</ele>
        <time>2021-08-06T09:01:24Z</time>
      </trkpt>
      <trkpt lat="42.62266" lon="1.72549">
        <ele>2257.081</ele>
        <time>2021-08-06T09:01:26Z</time>
      </trkpt>
      <trkpt lat="42.62265" lon="1.72548">
        <ele>2256.81</ele>
        <time>2021-08-06T09:01:28Z</time>
      </trkpt>
      <trkpt lat="42.62264" lon="1.72547">
        <ele>2257.088</ele>
        <time>2021-08-06T09:01:30Z</time>
      </trkpt>
      <trkpt lat="42.62264" lon="1.72547">
        <ele>2257.476</ele>
        <time>2021-08-06T09:01:32Z</time>
      </trkpt>
      <trkpt lat="42.62263" lon="1.72545">
        <ele>2259.973</ele>
        <time>2021-08-06T09:01:34Z</time>
      </trkpt>
      <trkpt lat="42.62263" lon="1.72544">
        <ele>2260.497</ele>
        <time>2021-08-06T09:01:36Z</time>
      </trkpt>
      <trkpt lat="42.62262" lon="1.72542">
        <ele>2260.504</ele>
        <time>2021-08-06T09:01:38Z</time>
      </trkpt>
      <trkpt lat="42.62262" lon="1.72541">
        <ele>2261.26</ele>
        <time>2021-08-06T09:01:40Z</time>
      </trkpt>
      <trkpt lat="42.62262" lon="1.72539">
        <ele>2262.154</ele>
        <time>2021-08-06T09:01:42Z</time>
      </trkpt>
      <trkpt lat="42.62262" lon="1.72539">
        <ele>2261.828</ele>
        <time>2021-08-06T09:01:44Z</time>
      </trkpt>
      <trkpt lat="42.62261" lon="1.72537">
        <ele>2261.252</ele>
        <time>2021-08-06T09:01:46Z</time>
      </trkpt>
      <trkpt lat="42.62261" lon="1.72536">
        <ele>2261.768</ele>
        <time>2021-08-06T09:01:48Z</time>
      </trkpt>
      <trkpt lat="42.62261" lon="1.72534">
        <ele>2262.371</ele>
        <time>2021-08-06T09:01:50Z</time>
      </trkpt>
      <trkpt lat="42.62261" lon="1.72533">
        <ele>2263.386</ele>
        <time>2021-08-06T09:01:52Z</time>
      </trkpt>
      <trkpt lat="42.62261" lon="1.72533">
        <ele>2264.511</ele>
        <time>2021-08-06T09:01:54Z</time>
      </trkpt>
      <trkpt lat="42.6226" lon="1.72532">
        <ele>2264.975</ele>
        <time>2021-08-06T09:01:56Z</time>
      </trkpt>
      <trkpt lat="42.62259" lon="1.72532">
        <ele>2264.753</ele>
        <time>2021-08-06T09:01:58Z</time>
      </trkpt>
      <trkpt lat="42.62259" lon="1.72531">
        <ele>2265.317</ele>
        <time>2021-08-06T09:02:00Z</time>
      </trkpt>
      <trkpt lat="42.62259" lon="1.72529">
        <ele>2265.515</ele>
        <time>2021-08-06T09:02:02Z</time>
      </trkpt>
      <trkpt lat="42.62259" lon="1.72528">
        <ele>2265.505</ele>
        <time>2021-08-06T09:02:04Z</time>
      </trkpt>
      <trkpt lat="42.62259" lon="1.72527">
        <ele>2265.713</ele>
        <time>2021-08-06T09:02:06Z</time>
      </trkpt>
      <trkpt lat="42.62258" lon="1.72526">
        <ele>2266.072</ele>
        <time>2021-08-06T09:02:08Z</time>
      </trkpt>
      <trkpt lat="42.62257" lon="1.72525">
        <ele>2266.695</ele>
        <time>2021-08-06T09:02:10Z</time>
      </trkpt>
      <trkpt lat="42.62257" lon="1.72526">
        <ele>2267.836</ele>
        <time>2021-08-06T09:02:12Z</time>
      </trkpt>
      <trkpt lat="42.62257" lon="1.72527">
        <ele>2268.845</ele>
        <time>2021-08-06T09:02:14Z</time>
      </trkpt>
      <trkpt lat="42.62257" lon="1.72529">
        <ele>2269.6</ele>
        <time>2021-08-06T09:02:16Z</time>
      </trkpt>
      <trkpt lat="42.62256" lon="1.7253">
        <ele>2270.285</ele>
        <time>2021-08-06T09:02:18Z</time>
      </trkpt>
      <trkpt lat="42.62256" lon="1.72531">
        <ele>2270.608</ele>
        <time>2021-08-06T09:02:20Z</time>
      </trkpt>
      <trkpt lat="42.62256" lon="1.72533">
        <ele>2269.181</ele>
        <time>2021-08-06T09:02:22Z</time>
      </trkpt>
      <trkpt lat="42.62255" lon="1.72534">
        <ele>2268.884</ele>
        <time>2021-08-06T09:02:24Z</time>
      </trkpt>
      <trkpt lat="42.62255" lon="1.72535">
        <ele>2268.862</ele>
        <time>2021-08-06T09:02:26Z</time>
      </trkpt>
      <trkpt lat="42.62255" lon="1.72535">
        <ele>2269.242</ele>
        <time>2021-08-06T09:02:28Z</time>
      </trkpt>
      <trkpt lat="42.62254" lon="1.72535">
        <ele>2269.776</ele>
        <time>2021-08-06T09:02:30Z</time>
      </trkpt>
      <trkpt lat="42.62254" lon="1.72534">
        <ele>2270.823</ele>
        <time>2021-08-06T09:02:32Z</time>
      </trkpt>
      <trkpt lat="42.62254" lon="1.72533">
        <ele>2271.46</ele>
        <time>2021-08-06T09:02:34Z</time>
      </trkpt>
      <trkpt lat="42.62253" lon="1.72532">
        <ele>2271.655</ele>
        <time>2021-08-06T09:02:36Z</time>
      </trkpt>
      <trkpt lat="42.62253" lon="1.72531">
        <ele>2271.728</ele>
        <time>2021-08-06T09:02:38Z</time>
      </trkpt>
      <trkpt lat="42.62252" lon="1.7253">
        <ele>2271.76</ele>
        <time>2021-08-06T09:02:40Z</time>
      </trkpt>
      <trkpt lat="42.62253" lon="1.72528">
        <ele>2272.111</ele>
        <time>2021-08-06T09:02:42Z</time>
      </trkpt>
      <trkpt lat="42.62253" lon="1.72527">
        <ele>2272.548</ele>
        <time>2021-08-06T09:02:44Z</time>
      </trkpt>
      <trkpt lat="42.62252" lon="1.72526">
        <ele>2272.469</ele>
        <time>2021-08-06T09:02:46Z</time>
      </trkpt>
      <trkpt lat="42.62252" lon="1.72524">
        <ele>2272.777</ele>
        <time>2021-08-06T09:02:48Z</time>
      </trkpt>
      <trkpt lat="42.62252" lon="1.72523">
        <ele>2273.107</ele>
        <time>2021-08-06T09:02:50Z</time>
      </trkpt>
      <trkpt lat="42.62251" lon="1.72522">
        <ele>2273.234</ele>
        <time>2021-08-06T09:02:52Z</time>
      </trkpt>
      <trkpt lat="42.62251" lon="1.7252">
        <ele>2273.826</ele>
        <time>2021-08-06T09:02:54Z</time>
      </trkpt>
      <trkpt lat="42.6225" lon="1.72518">
        <ele>2274.467</ele>
        <time>2021-08-06T09:02:56Z</time>
      </trkpt>
      <trkpt lat="42.6225" lon="1.72516">
        <ele>2274.737</ele>
        <time>2021-08-06T09:02:58Z</time>
      </trkpt>
      <trkpt lat="42.6225" lon="1.72514">
        <ele>2274.599</ele>
        <time>2021-08-06T09:03:00Z</time>
      </trkpt>
      <trkpt lat="42.6225" lon="1.72512">
        <ele>2275.868</ele>
        <time>2021-08-06T09:03:02Z</time>
      </trkpt>
      <trkpt lat="42.6225" lon="1.72511">
        <ele>2276.457</ele>
        <time>2021-08-06T09:03:04Z</time>
      </trkpt>
      <trkpt lat="42.6225" lon="1.72509">
        <ele>2276.997</ele>
        <time>2021-08-06T09:03:06Z</time>
      </trkpt>
      <trkpt lat="42.62249" lon="1.72507">
        <ele>2277.166</ele>
        <time>2021-08-06T09:03:08Z</time>
      </trkpt>
      <trkpt lat="42.62249" lon="1.72505">
        <ele>2277.757</ele>
        <time>2021-08-06T09:03:10Z</time>
      </trkpt>
      <trkpt lat="42.62249" lon="1.72504">
        <ele>2279.019</ele>
        <time>2021-08-06T09:03:12Z</time>
      </trkpt>
      <trkpt lat="42.62248" lon="1.72503">
        <ele>2279.576</ele>
        <time>2021-08-06T09:03:14Z</time>
      </trkpt>
      <trkpt lat="42.62246" lon="1.72502">
        <ele>2281.96</ele>
        <time>2021-08-06T09:03:16Z</time>
      </trkpt>
      <trkpt lat="42.62245" lon="1.72502">
        <ele>2282.859</ele>
        <time>2021-08-06T09:03:18Z</time>
      </trkpt>
      <trkpt lat="42.62245" lon="1.72504">
        <ele>2282.688</ele>
        <time>2021-08-06T09:03:20Z</time>
      </trkpt>
      <trkpt lat="42.62244" lon="1.72506">
        <ele>2282.346</ele>
        <time>2021-08-06T09:03:22Z</time>
      </trkpt>
      <trkpt lat="42.62244" lon="1.72507">
        <ele>2282.6</ele>
        <time>2021-08-06T09:03:24Z</time>
      </trkpt>
      <trkpt lat="42.62244" lon="1.72508">
        <ele>2282.821</ele>
        <time>2021-08-06T09:03:26Z</time>
      </trkpt>
      <trkpt lat="42.62245" lon="1.7251">
        <ele>2282.64</ele>
        <time>2021-08-06T09:03:28Z</time>
      </trkpt>
      <trkpt lat="42.62244" lon="1.72511">
        <ele>2282.183</ele>
        <time>2021-08-06T09:03:30Z</time>
      </trkpt>
      <trkpt lat="42.62245" lon="1.72513">
        <ele>2281.777</ele>
        <time>2021-08-06T09:03:32Z</time>
      </trkpt>
      <trkpt lat="42.62245" lon="1.72514">
        <ele>2280.488</ele>
        <time>2021-08-06T09:03:34Z</time>
      </trkpt>
      <trkpt lat="42.62245" lon="1.72516">
        <ele>2279.983</ele>
        <time>2021-08-06T09:03:36Z</time>
      </trkpt>
      <trkpt lat="42.62245" lon="1.72518">
        <ele>2280.205</ele>
        <time>2021-08-06T09:03:38Z</time>
      </trkpt>
      <trkpt lat="42.62244" lon="1.7252">
        <ele>2279.338</ele>
        <time>2021-08-06T09:03:40Z</time>
      </trkpt>
      <trkpt lat="42.62244" lon="1.72522">
        <ele>2279.022</ele>
        <time>2021-08-06T09:03:42Z</time>
      </trkpt>
      <trkpt lat="42.62244" lon="1.72524">
        <ele>2279.434</ele>
        <time>2021-08-06T09:03:44Z</time>
      </trkpt>
      <trkpt lat="42.62244" lon="1.72526">
        <ele>2278.728</ele>
        <time>2021-08-06T09:03:46Z</time>
      </trkpt>
      <trkpt lat="42.62244" lon="1.72528">
        <ele>2280.512</ele>
        <time>2021-08-06T09:03:48Z</time>
      </trkpt>
      <trkpt lat="42.62244" lon="1.7253">
        <ele>2281.329</ele>
        <time>2021-08-06T09:03:50Z</time>
      </trkpt>
      <trkpt lat="42.62243" lon="1.72532">
        <ele>2282.432</ele>
        <time>2021-08-06T09:03:52Z</time>
      </trkpt>
      <trkpt lat="42.62243" lon="1.72534">
        <ele>2282.863</ele>
        <time>2021-08-06T09:03:54Z</time>
      </trkpt>
      <trkpt lat="42.62243" lon="1.72536">
        <ele>2283.853</ele>
        <time>2021-08-06T09:03:56Z</time>
      </trkpt>
      <trkpt lat="42.62243" lon="1.72538">
        <ele>2283.34</ele>
        <time>2021-08-06T09:03:58Z</time>
      </trkpt>
      <trkpt lat="42.62243" lon="1.7254">
        <ele>2284.443</ele>
        <time>2021-08-06T09:04:00Z</time>
      </trkpt>
      <trkpt lat="42.62242" lon="1.72542">
        <ele>2284.748</ele>
        <time>2021-08-06T09:04:02Z</time>
      </trkpt>
      <trkpt lat="42.62241" lon="1.72543">
        <ele>2283.285</ele>
        <time>2021-08-06T09:04:04Z</time>
      </trkpt>
      <trkpt lat="42.62241" lon="1.72545">
        <ele>2282.588</ele>
        <time>2021-08-06T09:04:06Z</time>
      </trkpt>
      <trkpt lat="42.6224" lon="1.72546">
        <ele>2282.132</ele>
        <time>2021-08-06T09:04:08Z</time>
      </trkpt>
      <trkpt lat="42.6224" lon="1.72548">
        <ele>2282.563</ele>
        <time>2021-08-06T09:04:10Z</time>
      </trkpt>
      <trkpt lat="42.62241" lon="1.7255">
        <ele>2282.679</ele>
        <time>2021-08-06T09:04:12Z</time>
      </trkpt>
      <trkpt lat="42.6224" lon="1.72552">
        <ele>2283.397</ele>
        <time>2021-08-06T09:04:14Z</time>
      </trkpt>
      <trkpt lat="42.6224" lon="1.72554">
        <ele>2284.119</ele>
        <time>2021-08-06T09:04:16Z</time>
      </trkpt>
      <trkpt lat="42.6224" lon="1.72555">
        <ele>2284.529</ele>
        <time>2021-08-06T09:04:18Z</time>
      </trkpt>
      <trkpt lat="42.6224" lon="1.72557">
        <ele>2285.96</ele>
        <time>2021-08-06T09:04:20Z</time>
      </trkpt>
      <trkpt lat="42.6224" lon="1.72559">
        <ele>2286.431</ele>
        <time>2021-08-06T09:04:22Z</time>
      </trkpt>
      <trkpt lat="42.62239" lon="1.7256">
        <ele>2287.296</ele>
        <time>2021-08-06T09:04:24Z</time>
      </trkpt>
      <trkpt lat="42.62239" lon="1.72561">
        <ele>2288.081</ele>
        <time>2021-08-06T09:04:26Z</time>
      </trkpt>
      <trkpt lat="42.62238" lon="1.72562">
        <ele>2288.24</ele>
        <time>2021-08-06T09:04:28Z</time>
      </trkpt>
      <trkpt lat="42.62238" lon="1.72564">
        <ele>2288.361</ele>
        <time>2021-08-06T09:04:30Z</time>
      </trkpt>
      <trkpt lat="42.62238" lon="1.72565">
        <ele>2288.505</ele>
        <time>2021-08-06T09:04:32Z</time>
      </trkpt>
      <trkpt lat="42.62238" lon="1.72567">
        <ele>2289.11</ele>
        <time>2021-08-06T09:04:34Z</time>
      </trkpt>
      <trkpt lat="42.62238" lon="1.72568">
        <ele>2289.49</ele>
        <time>2021-08-06T09:04:36Z</time>
      </trkpt>
      <trkpt lat="42.62238" lon="1.7257">
        <ele>2290.476</ele>
        <time>2021-08-06T09:04:38Z</time>
      </trkpt>
      <trkpt lat="42.62237" lon="1.7257">
        <ele>2290.279</ele>
        <time>2021-08-06T09:04:40Z</time>
      </trkpt>
      <trkpt lat="42.62237" lon="1.72572">
        <ele>2291.551</ele>
        <time>2021-08-06T09:04:42Z</time>
      </trkpt>
      <trkpt lat="42.62236" lon="1.72572">
        <ele>2292.331</ele>
        <time>2021-08-06T09:04:44Z</time>
      </trkpt>
      <trkpt lat="42.62235" lon="1.72573">
        <ele>2292.861</ele>
        <time>2021-08-06T09:04:46Z</time>
      </trkpt>
      <trkpt lat="42.62235" lon="1.72574">
        <ele>2292.171</ele>
        <time>2021-08-06T09:04:48Z</time>
      </trkpt>
      <trkpt lat="42.62234" lon="1.72575">
        <ele>2292.444</ele>
        <time>2021-08-06T09:04:50Z</time>
      </trkpt>
      <trkpt lat="42.62234" lon="1.72575">
        <ele>2292.235</ele>
        <time>2021-08-06T09:04:52Z</time>
      </trkpt>
      <trkpt lat="42.62234" lon="1.72576">
        <ele>2293.978</ele>
        <time>2021-08-06T09:04:54Z</time>
      </trkpt>
      <trkpt lat="42.62234" lon="1.72576">
        <ele>2293.37</ele>
        <time>2021-08-06T09:04:56Z</time>
      </trkpt>
      <trkpt lat="42.62233" lon="1.72575">
        <ele>2293.86</ele>
        <time>2021-08-06T09:04:58Z</time>
      </trkpt>
      <trkpt lat="42.62233" lon="1.72574">
        <ele>2293.989</ele>
        <time>2021-08-06T09:05:00Z</time>
      </trkpt>
      <trkpt lat="42.62233" lon="1.72573">
        <ele>2293.69</ele>
        <time>2021-08-06T09:05:02Z</time>
      </trkpt>
      <trkpt lat="42.62233" lon="1.72572">
        <ele>2293.685</ele>
        <time>2021-08-06T09:05:04Z</time>
      </trkpt>
      <trkpt lat="42.62233" lon="1.7257">
        <ele>2293.812</ele>
        <time>2021-08-06T09:05:06Z</time>
      </trkpt>
      <trkpt lat="42.62233" lon="1.72569">
        <ele>2294.239</ele>
        <time>2021-08-06T09:05:08Z</time>
      </trkpt>
      <trkpt lat="42.62232" lon="1.72567">
        <ele>2294.586</ele>
        <time>2021-08-06T09:05:10Z</time>
      </trkpt>
      <trkpt lat="42.62232" lon="1.72566">
        <ele>2295.004</ele>
        <time>2021-08-06T09:05:12Z</time>
      </trkpt>
      <trkpt lat="42.62233" lon="1.72564">
        <ele>2295.216</ele>
        <time>2021-08-06T09:05:14Z</time>
      </trkpt>
      <trkpt lat="42.62232" lon="1.72563">
        <ele>2295.069</ele>
        <time>2021-08-06T09:05:16Z</time>
      </trkpt>
      <trkpt lat="42.62232" lon="1.72561">
        <ele>2295.076</ele>
        <time>2021-08-06T09:05:18Z</time>
      </trkpt>
      <trkpt lat="42.62231" lon="1.7256">
        <ele>2294.731</ele>
        <time>2021-08-06T09:05:20Z</time>
      </trkpt>
      <trkpt lat="42.62231" lon="1.7256">
        <ele>2294.706</ele>
        <time>2021-08-06T09:05:22Z</time>
      </trkpt>
      <trkpt lat="42.6223" lon="1.72559">
        <ele>2294.957</ele>
        <time>2021-08-06T09:05:24Z</time>
      </trkpt>
      <trkpt lat="42.62229" lon="1.72558">
        <ele>2294.827</ele>
        <time>2021-08-06T09:05:26Z</time>
      </trkpt>
      <trkpt lat="42.62229" lon="1.72556">
        <ele>2295.065</ele>
        <time>2021-08-06T09:05:28Z</time>
      </trkpt>
      <trkpt lat="42.62228" lon="1.72555">
        <ele>2296.268</ele>
        <time>2021-08-06T09:05:30Z</time>
      </trkpt>
      <trkpt lat="42.62228" lon="1.72553">
        <ele>2296.282</ele>
        <time>2021-08-06T09:05:32Z</time>
      </trkpt>
      <trkpt lat="42.62228" lon="1.72552">
        <ele>2296.427</ele>
        <time>2021-08-06T09:05:34Z</time>
      </trkpt>
      <trkpt lat="42.62227" lon="1.7255">
        <ele>2297.115</ele>
        <time>2021-08-06T09:05:36Z</time>
      </trkpt>
      <trkpt lat="42.62226" lon="1.72549">
        <ele>2297.13</ele>
        <time>2021-08-06T09:05:38Z</time>
      </trkpt>
      <trkpt lat="42.62226" lon="1.72548">
        <ele>2297.833</ele>
        <time>2021-08-06T09:05:40Z</time>
      </trkpt>
      <trkpt lat="42.62225" lon="1.72549">
        <ele>2297.5</ele>
        <time>2021-08-06T09:05:42Z</time>
      </trkpt>
      <trkpt lat="42.62225" lon="1.7255">
        <ele>2297.828</ele>
        <time>2021-08-06T09:05:44Z</time>
      </trkpt>
      <trkpt lat="42.62224" lon="1.72551">
        <ele>2298.336</ele>
        <time>2021-08-06T09:05:46Z</time>
      </trkpt>
      <trkpt lat="42.62224" lon="1.72552">
        <ele>2300</ele>
        <time>2021-08-06T09:05:48Z</time>
      </trkpt>
      <trkpt lat="42.62224" lon="1.72554">
        <ele>2299.122</ele>
        <time>2021-08-06T09:05:50Z</time>
      </trkpt>
      <trkpt lat="42.62224" lon="1.72555">
        <ele>2299.794</ele>
        <time>2021-08-06T09:05:52Z</time>
      </trkpt>
      <trkpt lat="42.62224" lon="1.72556">
        <ele>2300.122</ele>
        <time>2021-08-06T09:05:54Z</time>
      </trkpt>
      <trkpt lat="42.62223" lon="1.72558">
        <ele>2300.621</ele>
        <time>2021-08-06T09:05:56Z</time>
      </trkpt>
      <trkpt lat="42.62223" lon="1.7256">
        <ele>2299.614</ele>
        <time>2021-08-06T09:05:58Z</time>
      </trkpt>
      <trkpt lat="42.62222" lon="1.72561">
        <ele>2299.267</ele>
        <time>2021-08-06T09:06:00Z</time>
      </trkpt>
      <trkpt lat="42.62222" lon="1.72562">
        <ele>2300.2</ele>
        <time>2021-08-06T09:06:02Z</time>
      </trkpt>
      <trkpt lat="42.62222" lon="1.72564">
        <ele>2299.7</ele>
        <time>2021-08-06T09:06:04Z</time>
      </trkpt>
      <trkpt lat="42.62221" lon="1.72565">
        <ele>2299.636</ele>
        <time>2021-08-06T09:06:06Z</time>
      </trkpt>
      <trkpt lat="42.62221" lon="1.72566">
        <ele>2300.441</ele>
        <time>2021-08-06T09:06:08Z</time>
      </trkpt>
      <trkpt lat="42.6222" lon="1.72567">
        <ele>2299.785</ele>
        <time>2021-08-06T09:06:10Z</time>
      </trkpt>
      <trkpt lat="42.6222" lon="1.72567">
        <ele>2300.212</ele>
        <time>2021-08-06T09:06:12Z</time>
      </trkpt>
      <trkpt lat="42.62219" lon="1.72568">
        <ele>2300.907</ele>
        <time>2021-08-06T09:06:14Z</time>
      </trkpt>
      <trkpt lat="42.62219" lon="1.72568">
        <ele>2300.925</ele>
        <time>2021-08-06T09:06:16Z</time>
      </trkpt>
      <trkpt lat="42.62218" lon="1.7257">
        <ele>2300.112</ele>
        <time>2021-08-06T09:06:18Z</time>
      </trkpt>
      <trkpt lat="42.62217" lon="1.7257">
        <ele>2300.257</ele>
        <time>2021-08-06T09:06:20Z</time>
      </trkpt>
      <trkpt lat="42.62216" lon="1.72571">
        <ele>2300.195</ele>
        <time>2021-08-06T09:06:22Z</time>
      </trkpt>
      <trkpt lat="42.62216" lon="1.72571">
        <ele>2300.442</ele>
        <time>2021-08-06T09:06:24Z</time>
      </trkpt>
      <trkpt lat="42.62215" lon="1.72572">
        <ele>2302.28</ele>
        <time>2021-08-06T09:06:26Z</time>
      </trkpt>
      <trkpt lat="42.62214" lon="1.72571">
        <ele>2302.431</ele>
        <time>2021-08-06T09:06:28Z</time>
      </trkpt>
      <trkpt lat="42.62213" lon="1.72572">
        <ele>2302.451</ele>
        <time>2021-08-06T09:06:30Z</time>
      </trkpt>
      <trkpt lat="42.62212" lon="1.72572">
        <ele>2303.918</ele>
        <time>2021-08-06T09:06:32Z</time>
      </trkpt>
      <trkpt lat="42.6221" lon="1.72573">
        <ele>2304.341</ele>
        <time>2021-08-06T09:06:34Z</time>
      </trkpt>
      <trkpt lat="42.62209" lon="1.72572">
        <ele>2304.932</ele>
        <time>2021-08-06T09:06:36Z</time>
      </trkpt>
      <trkpt lat="42.62208" lon="1.72572">
        <ele>2306.001</ele>
        <time>2021-08-06T09:06:38Z</time>
      </trkpt>
      <trkpt lat="42.62207" lon="1.72571">
        <ele>2306.776</ele>
        <time>2021-08-06T09:06:40Z</time>
      </trkpt>
      <trkpt lat="42.62207" lon="1.72571">
        <ele>2306.792</ele>
        <time>2021-08-06T09:06:42Z</time>
      </trkpt>
      <trkpt lat="42.62207" lon="1.72569">
        <ele>2307.735</ele>
        <time>2021-08-06T09:06:44Z</time>
      </trkpt>
      <trkpt lat="42.62206" lon="1.72567">
        <ele>2307.31</ele>
        <time>2021-08-06T09:06:46Z</time>
      </trkpt>
      <trkpt lat="42.62207" lon="1.72566">
        <ele>2307.42</ele>
        <time>2021-08-06T09:06:48Z</time>
      </trkpt>
      <trkpt lat="42.62208" lon="1.72564">
        <ele>2306.962</ele>
        <time>2021-08-06T09:06:50Z</time>
      </trkpt>
      <trkpt lat="42.62209" lon="1.72562">
        <ele>2307.328</ele>
        <time>2021-08-06T09:06:52Z</time>
      </trkpt>
      <trkpt lat="42.62208" lon="1.7256">
        <ele>2307.849</ele>
        <time>2021-08-06T09:06:54Z</time>
      </trkpt>
      <trkpt lat="42.62208" lon="1.72558">
        <ele>2308.515</ele>
        <time>2021-08-06T09:06:56Z</time>
      </trkpt>
      <trkpt lat="42.62208" lon="1.72556">
        <ele>2308.928</ele>
        <time>2021-08-06T09:06:58Z</time>
      </trkpt>
      <trkpt lat="42.62208" lon="1.72554">
        <ele>2309.29</ele>
        <time>2021-08-06T09:07:00Z</time>
      </trkpt>
      <trkpt lat="42.62207" lon="1.72553">
        <ele>2310.033</ele>
        <time>2021-08-06T09:07:02Z</time>
      </trkpt>
      <trkpt lat="42.62207" lon="1.7255">
        <ele>2310.757</ele>
        <time>2021-08-06T09:07:04Z</time>
      </trkpt>
      <trkpt lat="42.62206" lon="1.72548">
        <ele>2311.155</ele>
        <time>2021-08-06T09:07:06Z</time>
      </trkpt>
      <trkpt lat="42.62207" lon="1.72546">
        <ele>2311.879</ele>
        <time>2021-08-06T09:07:08Z</time>
      </trkpt>
      <trkpt lat="42.62206" lon="1.72544">
        <ele>2312.097</ele>
        <time>2021-08-06T09:07:10Z</time>
      </trkpt>
      <trkpt lat="42.62206" lon="1.72542">
        <ele>2312.854</ele>
        <time>2021-08-06T09:07:12Z</time>
      </trkpt>
      <trkpt lat="42.62205" lon="1.72541">
        <ele>2313.584</ele>
        <time>2021-08-06T09:07:14Z</time>
      </trkpt>
      <trkpt lat="42.62204" lon="1.72542">
        <ele>2313.715</ele>
        <time>2021-08-06T09:07:16Z</time>
      </trkpt>
      <trkpt lat="42.62204" lon="1.72543">
        <ele>2314.225</ele>
        <time>2021-08-06T09:07:18Z</time>
      </trkpt>
      <trkpt lat="42.62204" lon="1.72545">
        <ele>2313.495</ele>
        <time>2021-08-06T09:07:20Z</time>
      </trkpt>
      <trkpt lat="42.62203" lon="1.72547">
        <ele>2314.036</ele>
        <time>2021-08-06T09:07:22Z</time>
      </trkpt>
      <trkpt lat="42.62202" lon="1.72549">
        <ele>2314.479</ele>
        <time>2021-08-06T09:07:24Z</time>
      </trkpt>
      <trkpt lat="42.62202" lon="1.7255">
        <ele>2314.428</ele>
        <time>2021-08-06T09:07:26Z</time>
      </trkpt>
      <trkpt lat="42.62201" lon="1.72552">
        <ele>2315.33</ele>
        <time>2021-08-06T09:07:28Z</time>
      </trkpt>
      <trkpt lat="42.622" lon="1.72553">
        <ele>2316.291</ele>
        <time>2021-08-06T09:07:30Z</time>
      </trkpt>
      <trkpt lat="42.62199" lon="1.72554">
        <ele>2316.843</ele>
        <time>2021-08-06T09:07:32Z</time>
      </trkpt>
      <trkpt lat="42.62198" lon="1.72556">
        <ele>2317.197</ele>
        <time>2021-08-06T09:07:34Z</time>
      </trkpt>
      <trkpt lat="42.62197" lon="1.72557">
        <ele>2317.853</ele>
        <time>2021-08-06T09:07:36Z</time>
      </trkpt>
      <trkpt lat="42.62196" lon="1.72557">
        <ele>2318.197</ele>
        <time>2021-08-06T09:07:38Z</time>
      </trkpt>
      <trkpt lat="42.62195" lon="1.72557">
        <ele>2318.63</ele>
        <time>2021-08-06T09:07:40Z</time>
      </trkpt>
      <trkpt lat="42.62194" lon="1.72557">
        <ele>2319.373</ele>
        <time>2021-08-06T09:07:42Z</time>
      </trkpt>
      <trkpt lat="42.62193" lon="1.72558">
        <ele>2318.653</ele>
        <time>2021-08-06T09:07:44Z</time>
      </trkpt>
      <trkpt lat="42.62192" lon="1.72559">
        <ele>2318.7</ele>
        <time>2021-08-06T09:07:46Z</time>
      </trkpt>
      <trkpt lat="42.62191" lon="1.7256">
        <ele>2318.316</ele>
        <time>2021-08-06T09:07:48Z</time>
      </trkpt>
      <trkpt lat="42.62191" lon="1.7256">
        <ele>2318.257</ele>
        <time>2021-08-06T09:07:50Z</time>
      </trkpt>
      <trkpt lat="42.62191" lon="1.72561">
        <ele>2318.355</ele>
        <time>2021-08-06T09:07:52Z</time>
      </trkpt>
      <trkpt lat="42.62191" lon="1.7256">
        <ele>2318.768</ele>
        <time>2021-08-06T09:07:54Z</time>
      </trkpt>
      <trkpt lat="42.62191" lon="1.7256">
        <ele>2319.145</ele>
        <time>2021-08-06T09:07:56Z</time>
      </trkpt>
      <trkpt lat="42.62191" lon="1.7256">
        <ele>2318.989</ele>
        <time>2021-08-06T09:07:58Z</time>
      </trkpt>
      <trkpt lat="42.62191" lon="1.72559">
        <ele>2318.684</ele>
        <time>2021-08-06T09:08:00Z</time>
      </trkpt>
      <trkpt lat="42.6219" lon="1.7256">
        <ele>2318.739</ele>
        <time>2021-08-06T09:08:02Z</time>
      </trkpt>
      <trkpt lat="42.62188" lon="1.72561">
        <ele>2318.667</ele>
        <time>2021-08-06T09:08:04Z</time>
      </trkpt>
      <trkpt lat="42.62187" lon="1.72561">
        <ele>2319.356</ele>
        <time>2021-08-06T09:08:06Z</time>
      </trkpt>
      <trkpt lat="42.62186" lon="1.72561">
        <ele>2319.383</ele>
        <time>2021-08-06T09:08:08Z</time>
      </trkpt>
      <trkpt lat="42.62184" lon="1.72561">
        <ele>2319.719</ele>
        <time>2021-08-06T09:08:10Z</time>
      </trkpt>
      <trkpt lat="42.62182" lon="1.72561">
        <ele>2320.049</ele>
        <time>2021-08-06T09:08:12Z</time>
      </trkpt>
      <trkpt lat="42.6218" lon="1.7256">
        <ele>2321.39</ele>
        <time>2021-08-06T09:08:14Z</time>
      </trkpt>
      <trkpt lat="42.62178" lon="1.7256">
        <ele>2322.443</ele>
        <time>2021-08-06T09:08:16Z</time>
      </trkpt>
      <trkpt lat="42.62177" lon="1.72561">
        <ele>2323.647</ele>
        <time>2021-08-06T09:08:18Z</time>
      </trkpt>
      <trkpt lat="42.62175" lon="1.72562">
        <ele>2323.995</ele>
        <time>2021-08-06T09:08:20Z</time>
      </trkpt>
      <trkpt lat="42.62174" lon="1.72563">
        <ele>2325.322</ele>
        <time>2021-08-06T09:08:22Z</time>
      </trkpt>
      <trkpt lat="42.62172" lon="1.72564">
        <ele>2325.814</ele>
        <time>2021-08-06T09:08:24Z</time>
      </trkpt>
      <trkpt lat="42.62171" lon="1.72565">
        <ele>2329.676</ele>
        <time>2021-08-06T09:08:26Z</time>
      </trkpt>
      <trkpt lat="42.62169" lon="1.72568">
        <ele>2331.079</ele>
        <time>2021-08-06T09:08:28Z</time>
      </trkpt>
      <trkpt lat="42.62169" lon="1.7257">
        <ele>2329.645</ele>
        <time>2021-08-06T09:08:30Z</time>
      </trkpt>
      <trkpt lat="42.62167" lon="1.72573">
        <ele>2330.126</ele>
        <time>2021-08-06T09:08:32Z</time>
      </trkpt>
      <trkpt lat="42.62165" lon="1.72575">
        <ele>2329.763</ele>
        <time>2021-08-06T09:08:34Z</time>
      </trkpt>
      <trkpt lat="42.62162" lon="1.72577">
        <ele>2329.231</ele>
        <time>2021-08-06T09:08:36Z</time>
      </trkpt>
      <trkpt lat="42.62163" lon="1.72578">
        <ele>2333.157</ele>
        <time>2021-08-06T09:08:38Z</time>
      </trkpt>
      <trkpt lat="42.62162" lon="1.72578">
        <ele>2333.458</ele>
        <time>2021-08-06T09:08:40Z</time>
      </trkpt>
      <trkpt lat="42.62161" lon="1.72578">
        <ele>2332.376</ele>
        <time>2021-08-06T09:08:42Z</time>
      </trkpt>
      <trkpt lat="42.62159" lon="1.7258">
        <ele>2332.396</ele>
        <time>2021-08-06T09:08:44Z</time>
      </trkpt>
      <trkpt lat="42.62158" lon="1.72581">
        <ele>2332.023</ele>
        <time>2021-08-06T09:08:46Z</time>
      </trkpt>
      <trkpt lat="42.62157" lon="1.72582">
        <ele>2330.81</ele>
        <time>2021-08-06T09:08:48Z</time>
      </trkpt>
      <trkpt lat="42.62155" lon="1.72581">
        <ele>2330.467</ele>
        <time>2021-08-06T09:08:50Z</time>
      </trkpt>
      <trkpt lat="42.62153" lon="1.72581">
        <ele>2329.738</ele>
        <time>2021-08-06T09:08:52Z</time>
      </trkpt>
      <trkpt lat="42.62152" lon="1.72582">
        <ele>2330.456</ele>
        <time>2021-08-06T09:08:54Z</time>
      </trkpt>
      <trkpt lat="42.62151" lon="1.72583">
        <ele>2331.329</ele>
        <time>2021-08-06T09:08:56Z</time>
      </trkpt>
      <trkpt lat="42.6215" lon="1.72584">
        <ele>2332.954</ele>
        <time>2021-08-06T09:08:58Z</time>
      </trkpt>
      <trkpt lat="42.6215" lon="1.72586">
        <ele>2334.542</ele>
        <time>2021-08-06T09:09:00Z</time>
      </trkpt>
      <trkpt lat="42.62149" lon="1.72586">
        <ele>2335.507</ele>
        <time>2021-08-06T09:09:02Z</time>
      </trkpt>
      <trkpt lat="42.62148" lon="1.72587">
        <ele>2336.683</ele>
        <time>2021-08-06T09:09:04Z</time>
      </trkpt>
      <trkpt lat="42.62148" lon="1.72588">
        <ele>2336.962</ele>
        <time>2021-08-06T09:09:06Z</time>
      </trkpt>
      <trkpt lat="42.62148" lon="1.72588">
        <ele>2335.955</ele>
        <time>2021-08-06T09:09:08Z</time>
      </trkpt>
      <trkpt lat="42.62147" lon="1.72588">
        <ele>2335.719</ele>
        <time>2021-08-06T09:09:10Z</time>
      </trkpt>
      <trkpt lat="42.62146" lon="1.72588">
        <ele>2334.668</ele>
        <time>2021-08-06T09:09:12Z</time>
      </trkpt>
      <trkpt lat="42.62145" lon="1.72588">
        <ele>2334.392</ele>
        <time>2021-08-06T09:09:14Z</time>
      </trkpt>
      <trkpt lat="42.62144" lon="1.72588">
        <ele>2333.651</ele>
        <time>2021-08-06T09:09:16Z</time>
      </trkpt>
      <trkpt lat="42.62143" lon="1.72588">
        <ele>2333.659</ele>
        <time>2021-08-06T09:09:18Z</time>
      </trkpt>
      <trkpt lat="42.62142" lon="1.72589">
        <ele>2333.839</ele>
        <time>2021-08-06T09:09:20Z</time>
      </trkpt>
      <trkpt lat="42.62141" lon="1.7259">
        <ele>2333.903</ele>
        <time>2021-08-06T09:09:22Z</time>
      </trkpt>
      <trkpt lat="42.62141" lon="1.72591">
        <ele>2333.259</ele>
        <time>2021-08-06T09:09:24Z</time>
      </trkpt>
      <trkpt lat="42.6214" lon="1.72591">
        <ele>2332.907</ele>
        <time>2021-08-06T09:09:26Z</time>
      </trkpt>
      <trkpt lat="42.62139" lon="1.72593">
        <ele>2333.136</ele>
        <time>2021-08-06T09:09:28Z</time>
      </trkpt>
      <trkpt lat="42.62137" lon="1.72593">
        <ele>2333.385</ele>
        <time>2021-08-06T09:09:30Z</time>
      </trkpt>
      <trkpt lat="42.62136" lon="1.72593">
        <ele>2332.521</ele>
        <time>2021-08-06T09:09:32Z</time>
      </trkpt>
      <trkpt lat="42.62135" lon="1.72593">
        <ele>2333.239</ele>
        <time>2021-08-06T09:09:34Z</time>
      </trkpt>
      <trkpt lat="42.62133" lon="1.72594">
        <ele>2332.853</ele>
        <time>2021-08-06T09:09:36Z</time>
      </trkpt>
      <trkpt lat="42.62133" lon="1.72596">
        <ele>2333.379</ele>
        <time>2021-08-06T09:09:38Z</time>
      </trkpt>
      <trkpt lat="42.62133" lon="1.72597">
        <ele>2333.847</ele>
        <time>2021-08-06T09:09:40Z</time>
      </trkpt>
      <trkpt lat="42.62131" lon="1.72597">
        <ele>2332.426</ele>
        <time>2021-08-06T09:09:42Z</time>
      </trkpt>
      <trkpt lat="42.6213" lon="1.72598">
        <ele>2333.112</ele>
        <time>2021-08-06T09:09:44Z</time>
      </trkpt>
      <trkpt lat="42.62129" lon="1.72599">
        <ele>2333.792</ele>
        <time>2021-08-06T09:09:46Z</time>
      </trkpt>
      <trkpt lat="42.62128" lon="1.72599">
        <ele>2333.976</ele>
        <time>2021-08-06T09:09:48Z</time>
      </trkpt>
      <trkpt lat="42.62127" lon="1.72598">
        <ele>2334.218</ele>
        <time>2021-08-06T09:09:50Z</time>
      </trkpt>
      <trkpt lat="42.62126" lon="1.72599">
        <ele>2333.894</ele>
        <time>2021-08-06T09:09:52Z</time>
      </trkpt>
      <trkpt lat="42.62125" lon="1.72599">
        <ele>2334.468</ele>
        <time>2021-08-06T09:09:54Z</time>
      </trkpt>
      <trkpt lat="42.62125" lon="1.726">
        <ele>2334.769</ele>
        <time>2021-08-06T09:09:56Z</time>
      </trkpt>
      <trkpt lat="42.62124" lon="1.726">
        <ele>2333.621</ele>
        <time>2021-08-06T09:09:58Z</time>
      </trkpt>
      <trkpt lat="42.62124" lon="1.72601">
        <ele>2334.578</ele>
        <time>2021-08-06T09:10:00Z</time>
      </trkpt>
      <trkpt lat="42.62124" lon="1.72601">
        <ele>2334.729</ele>
        <time>2021-08-06T09:10:02Z</time>
      </trkpt>
      <trkpt lat="42.62123" lon="1.72601">
        <ele>2334.964</ele>
        <time>2021-08-06T09:10:04Z</time>
      </trkpt>
      <trkpt lat="42.62122" lon="1.72601">
        <ele>2334.716</ele>
        <time>2021-08-06T09:10:06Z</time>
      </trkpt>
      <trkpt lat="42.62123" lon="1.72602">
        <ele>2334.702</ele>
        <time>2021-08-06T09:10:08Z</time>
      </trkpt>
      <trkpt lat="42.62123" lon="1.72602">
        <ele>2334.894</ele>
        <time>2021-08-06T09:10:10Z</time>
      </trkpt>
      <trkpt lat="42.62123" lon="1.72602">
        <ele>2334.859</ele>
        <time>2021-08-06T09:10:12Z</time>
      </trkpt>
      <trkpt lat="42.62123" lon="1.72602">
        <ele>2334.836</ele>
        <time>2021-08-06T09:10:14Z</time>
      </trkpt>
      <trkpt lat="42.62124" lon="1.72601">
        <ele>2334.48</ele>
        <time>2021-08-06T09:10:16Z</time>
      </trkpt>
      <trkpt lat="42.62123" lon="1.72601">
        <ele>2334.464</ele>
        <time>2021-08-06T09:10:18Z</time>
      </trkpt>
      <trkpt lat="42.62123" lon="1.72601">
        <ele>2334.916</ele>
        <time>2021-08-06T09:10:20Z</time>
      </trkpt>
      <trkpt lat="42.62123" lon="1.72601">
        <ele>2334.917</ele>
        <time>2021-08-06T09:10:22Z</time>
      </trkpt>
      <trkpt lat="42.62123" lon="1.72601">
        <ele>2334.907</ele>
        <time>2021-08-06T09:10:24Z</time>
      </trkpt>
      <trkpt lat="42.62123" lon="1.72601">
        <ele>2334.263</ele>
        <time>2021-08-06T09:10:26Z</time>
      </trkpt>
      <trkpt lat="42.62123" lon="1.72601">
        <ele>2334.439</ele>
        <time>2021-08-06T09:10:28Z</time>
      </trkpt>
      <trkpt lat="42.62123" lon="1.72601">
        <ele>2334.437</ele>
        <time>2021-08-06T09:10:30Z</time>
      </trkpt>
      <trkpt lat="42.62123" lon="1.72601">
        <ele>2334.426</ele>
        <time>2021-08-06T09:10:32Z</time>
      </trkpt>
      <trkpt lat="42.62123" lon="1.72601">
        <ele>2334.289</ele>
        <time>2021-08-06T09:10:34Z</time>
      </trkpt>
      <trkpt lat="42.62123" lon="1.72601">
        <ele>2334.283</ele>
        <time>2021-08-06T09:10:36Z</time>
      </trkpt>
      <trkpt lat="42.62123" lon="1.72601">
        <ele>2334.3</ele>
        <time>2021-08-06T09:10:38Z</time>
      </trkpt>
      <trkpt lat="42.62123" lon="1.72601">
        <ele>2334.306</ele>
        <time>2021-08-06T09:10:40Z</time>
      </trkpt>
      <trkpt lat="42.62123" lon="1.72601">
        <ele>2334.299</ele>
        <time>2021-08-06T09:10:42Z</time>
      </trkpt>
      <trkpt lat="42.62124" lon="1.72601">
        <ele>2334.265</ele>
        <time>2021-08-06T09:10:44Z</time>
      </trkpt>
      <trkpt lat="42.62124" lon="1.72601">
        <ele>2334.255</ele>
        <time>2021-08-06T09:10:46Z</time>
      </trkpt>
      <trkpt lat="42.62124" lon="1.72601">
        <ele>2334.274</ele>
        <time>2021-08-06T09:10:48Z</time>
      </trkpt>
      <trkpt lat="42.62124" lon="1.72601">
        <ele>2334.279</ele>
        <time>2021-08-06T09:10:50Z</time>
      </trkpt>
      <trkpt lat="42.62124" lon="1.72601">
        <ele>2334.278</ele>
        <time>2021-08-06T09:10:52Z</time>
      </trkpt>
      <trkpt lat="42.62124" lon="1.72601">
        <ele>2334.274</ele>
        <time>2021-08-06T09:10:54Z</time>
      </trkpt>
      <trkpt lat="42.62124" lon="1.72601">
        <ele>2334.265</ele>
        <time>2021-08-06T09:10:56Z</time>
      </trkpt>
      <trkpt lat="42.62124" lon="1.72601">
        <ele>2334.271</ele>
        <time>2021-08-06T09:10:58Z</time>
      </trkpt>
      <trkpt lat="42.62124" lon="1.72601">
        <ele>2333.721</ele>
        <time>2021-08-06T09:11:00Z</time>
      </trkpt>
      <trkpt lat="42.62124" lon="1.72601">
        <ele>2333.687</ele>
        <time>2021-08-06T09:11:02Z</time>
      </trkpt>
      <trkpt lat="42.62124" lon="1.72601">
        <ele>2334.283</ele>
        <time>2021-08-06T09:11:04Z</time>
      </trkpt>
      <trkpt lat="42.62124" lon="1.72601">
        <ele>2334.318</ele>
        <time>2021-08-06T09:11:06Z</time>
      </trkpt>
      <trkpt lat="42.62124" lon="1.72601">
        <ele>2334.204</ele>
        <time>2021-08-06T09:11:08Z</time>
      </trkpt>
      <trkpt lat="42.62124" lon="1.72601">
        <ele>2334.201</ele>
        <time>2021-08-06T09:11:10Z</time>
      </trkpt>
      <trkpt lat="42.62124" lon="1.72601">
        <ele>2334.198</ele>
        <time>2021-08-06T09:11:12Z</time>
      </trkpt>
      <trkpt lat="42.62124" lon="1.72601">
        <ele>2334.196</ele>
        <time>2021-08-06T09:11:14Z</time>
      </trkpt>
      <trkpt lat="42.62124" lon="1.72601">
        <ele>2334.192</ele>
        <time>2021-08-06T09:11:16Z</time>
      </trkpt>
      <trkpt lat="42.62124" lon="1.72601">
        <ele>2334.187</ele>
        <time>2021-08-06T09:11:18Z</time>
      </trkpt>
      <trkpt lat="42.62124" lon="1.72601">
        <ele>2334.181</ele>
        <time>2021-08-06T09:11:20Z</time>
      </trkpt>
      <trkpt lat="42.62124" lon="1.72601">
        <ele>2334.183</ele>
        <time>2021-08-06T09:11:22Z</time>
      </trkpt>
      <trkpt lat="42.62124" lon="1.726">
        <ele>2334.302</ele>
        <time>2021-08-06T09:11:24Z</time>
      </trkpt>
      <trkpt lat="42.62125" lon="1.726">
        <ele>2333.888</ele>
        <time>2021-08-06T09:11:26Z</time>
      </trkpt>
      <trkpt lat="42.62125" lon="1.726">
        <ele>2333.901</ele>
        <time>2021-08-06T09:11:28Z</time>
      </trkpt>
      <trkpt lat="42.62125" lon="1.726">
        <ele>2333.903</ele>
        <time>2021-08-06T09:11:30Z</time>
      </trkpt>
      <trkpt lat="42.62125" lon="1.726">
        <ele>2333.904</ele>
        <time>2021-08-06T09:11:32Z</time>
      </trkpt>
      <trkpt lat="42.62125" lon="1.726">
        <ele>2333.902</ele>
        <time>2021-08-06T09:11:34Z</time>
      </trkpt>
      <trkpt lat="42.62125" lon="1.726">
        <ele>2333.912</ele>
        <time>2021-08-06T09:11:36Z</time>
      </trkpt>
      <trkpt lat="42.62124" lon="1.726">
        <ele>2334.891</ele>
        <time>2021-08-06T09:11:38Z</time>
      </trkpt>
      <trkpt lat="42.62124" lon="1.726">
        <ele>2334.901</ele>
        <time>2021-08-06T09:11:40Z</time>
      </trkpt>
      <trkpt lat="42.62124" lon="1.726">
        <ele>2334.894</ele>
        <time>2021-08-06T09:11:42Z</time>
      </trkpt>
      <trkpt lat="42.62124" lon="1.72599">
        <ele>2334.953</ele>
        <time>2021-08-06T09:11:44Z</time>
      </trkpt>
      <trkpt lat="42.62124" lon="1.72598">
        <ele>2334.538</ele>
        <time>2021-08-06T09:11:46Z</time>
      </trkpt>
      <trkpt lat="42.62124" lon="1.72598">
        <ele>2333.585</ele>
        <time>2021-08-06T09:11:48Z</time>
      </trkpt>
      <trkpt lat="42.62123" lon="1.72599">
        <ele>2333.364</ele>
        <time>2021-08-06T09:11:50Z</time>
      </trkpt>
      <trkpt lat="42.62122" lon="1.726">
        <ele>2333.229</ele>
        <time>2021-08-06T09:11:52Z</time>
      </trkpt>
      <trkpt lat="42.62121" lon="1.72602">
        <ele>2333.89</ele>
        <time>2021-08-06T09:11:54Z</time>
      </trkpt>
      <trkpt lat="42.62121" lon="1.72602">
        <ele>2333.086</ele>
        <time>2021-08-06T09:11:56Z</time>
      </trkpt>
      <trkpt lat="42.62122" lon="1.72602">
        <ele>2333.083</ele>
        <time>2021-08-06T09:11:58Z</time>
      </trkpt>
      <trkpt lat="42.62121" lon="1.72602">
        <ele>2332.868</ele>
        <time>2021-08-06T09:12:00Z</time>
      </trkpt>
      <trkpt lat="42.62119" lon="1.72603">
        <ele>2333.184</ele>
        <time>2021-08-06T09:12:02Z</time>
      </trkpt>
      <trkpt lat="42.62119" lon="1.72603">
        <ele>2332.645</ele>
        <time>2021-08-06T09:12:04Z</time>
      </trkpt>
      <trkpt lat="42.62119" lon="1.72603">
        <ele>2332.659</ele>
        <time>2021-08-06T09:12:06Z</time>
      </trkpt>
      <trkpt lat="42.62119" lon="1.72603">
        <ele>2332.674</ele>
        <time>2021-08-06T09:12:08Z</time>
      </trkpt>
      <trkpt lat="42.62119" lon="1.72603">
        <ele>2332.677</ele>
        <time>2021-08-06T09:12:10Z</time>
      </trkpt>
      <trkpt lat="42.62119" lon="1.72603">
        <ele>2332.592</ele>
        <time>2021-08-06T09:12:12Z</time>
      </trkpt>
      <trkpt lat="42.62118" lon="1.72604">
        <ele>2332.604</ele>
        <time>2021-08-06T09:12:14Z</time>
      </trkpt>
      <trkpt lat="42.62118" lon="1.72604">
        <ele>2332.605</ele>
        <time>2021-08-06T09:12:16Z</time>
      </trkpt>
      <trkpt lat="42.62118" lon="1.72605">
        <ele>2332.293</ele>
        <time>2021-08-06T09:12:18Z</time>
      </trkpt>
      <trkpt lat="42.62118" lon="1.72605">
        <ele>2332.271</ele>
        <time>2021-08-06T09:12:20Z</time>
      </trkpt>
      <trkpt lat="42.62118" lon="1.72604">
        <ele>2331.727</ele>
        <time>2021-08-06T09:12:22Z</time>
      </trkpt>
      <trkpt lat="42.62116" lon="1.72604">
        <ele>2331.142</ele>
        <time>2021-08-06T09:12:24Z</time>
      </trkpt>
      <trkpt lat="42.62116" lon="1.72605">
        <ele>2330.706</ele>
        <time>2021-08-06T09:12:26Z</time>
      </trkpt>
      <trkpt lat="42.62116" lon="1.72605">
        <ele>2330.298</ele>
        <time>2021-08-06T09:12:28Z</time>
      </trkpt>
      <trkpt lat="42.62118" lon="1.72605">
        <ele>2330.922</ele>
        <time>2021-08-06T09:12:30Z</time>
      </trkpt>
      <trkpt lat="42.62117" lon="1.72605">
        <ele>2330.921</ele>
        <time>2021-08-06T09:12:32Z</time>
      </trkpt>
      <trkpt lat="42.62118" lon="1.72605">
        <ele>2331.196</ele>
        <time>2021-08-06T09:12:34Z</time>
      </trkpt>
      <trkpt lat="42.62118" lon="1.72604">
        <ele>2330.905</ele>
        <time>2021-08-06T09:12:36Z</time>
      </trkpt>
      <trkpt lat="42.6212" lon="1.72603">
        <ele>2331.746</ele>
        <time>2021-08-06T09:12:38Z</time>
      </trkpt>
      <trkpt lat="42.62122" lon="1.72603">
        <ele>2332.855</ele>
        <time>2021-08-06T09:12:40Z</time>
      </trkpt>
      <trkpt lat="42.62123" lon="1.72603">
        <ele>2333.514</ele>
        <time>2021-08-06T09:12:42Z</time>
      </trkpt>
      <trkpt lat="42.62124" lon="1.72603">
        <ele>2334.538</ele>
        <time>2021-08-06T09:12:44Z</time>
      </trkpt>
      <trkpt lat="42.62125" lon="1.72603">
        <ele>2334.507</ele>
        <time>2021-08-06T09:12:46Z</time>
      </trkpt>
      <trkpt lat="42.62127" lon="1.72602">
        <ele>2334.297</ele>
        <time>2021-08-06T09:12:48Z</time>
      </trkpt>
      <trkpt lat="42.62128" lon="1.72602">
        <ele>2333.842</ele>
        <time>2021-08-06T09:12:50Z</time>
      </trkpt>
      <trkpt lat="42.62128" lon="1.72602">
        <ele>2333.825</ele>
        <time>2021-08-06T09:12:52Z</time>
      </trkpt>
      <trkpt lat="42.62128" lon="1.72602">
        <ele>2333.841</ele>
        <time>2021-08-06T09:12:54Z</time>
      </trkpt>
      <trkpt lat="42.62128" lon="1.72602">
        <ele>2333.832</ele>
        <time>2021-08-06T09:12:56Z</time>
      </trkpt>
      <trkpt lat="42.62128" lon="1.72602">
        <ele>2334.522</ele>
        <time>2021-08-06T09:12:58Z</time>
      </trkpt>
      <trkpt lat="42.62127" lon="1.72602">
        <ele>2334.528</ele>
        <time>2021-08-06T09:13:00Z</time>
      </trkpt>
      <trkpt lat="42.62127" lon="1.72602">
        <ele>2334.532</ele>
        <time>2021-08-06T09:13:02Z</time>
      </trkpt>
      <trkpt lat="42.62127" lon="1.72602">
        <ele>2334.54</ele>
        <time>2021-08-06T09:13:04Z</time>
      </trkpt>
      <trkpt lat="42.62127" lon="1.72602">
        <ele>2334.539</ele>
        <time>2021-08-06T09:13:06Z</time>
      </trkpt>
      <trkpt lat="42.62127" lon="1.72602">
        <ele>2334.533</ele>
        <time>2021-08-06T09:13:08Z</time>
      </trkpt>
      <trkpt lat="42.62127" lon="1.72602">
        <ele>2334.529</ele>
        <time>2021-08-06T09:13:10Z</time>
      </trkpt>
      <trkpt lat="42.62127" lon="1.72602">
        <ele>2334.515</ele>
        <time>2021-08-06T09:13:12Z</time>
      </trkpt>
      <trkpt lat="42.62127" lon="1.72602">
        <ele>2334.509</ele>
        <time>2021-08-06T09:13:14Z</time>
      </trkpt>
      <trkpt lat="42.62127" lon="1.72602">
        <ele>2334.522</ele>
        <time>2021-08-06T09:13:16Z</time>
      </trkpt>
      <trkpt lat="42.62127" lon="1.72602">
        <ele>2334.514</ele>
        <time>2021-08-06T09:13:18Z</time>
      </trkpt>
      <trkpt lat="42.62127" lon="1.72602">
        <ele>2334.515</ele>
        <time>2021-08-06T09:13:20Z</time>
      </trkpt>
      <trkpt lat="42.62127" lon="1.72602">
        <ele>2334.479</ele>
        <time>2021-08-06T09:13:22Z</time>
      </trkpt>
      <trkpt lat="42.62127" lon="1.72602">
        <ele>2334.478</ele>
        <time>2021-08-06T09:13:24Z</time>
      </trkpt>
      <trkpt lat="42.62127" lon="1.72602">
        <ele>2334.484</ele>
        <time>2021-08-06T09:13:26Z</time>
      </trkpt>
      <trkpt lat="42.62127" lon="1.72602">
        <ele>2334.477</ele>
        <time>2021-08-06T09:13:28Z</time>
      </trkpt>
      <trkpt lat="42.62127" lon="1.72602">
        <ele>2334.472</ele>
        <time>2021-08-06T09:13:30Z</time>
      </trkpt>
      <trkpt lat="42.62127" lon="1.72602">
        <ele>2334.476</ele>
        <time>2021-08-06T09:13:32Z</time>
      </trkpt>
      <trkpt lat="42.62127" lon="1.72601">
        <ele>2334.472</ele>
        <time>2021-08-06T09:13:34Z</time>
      </trkpt>
      <trkpt lat="42.62127" lon="1.72601">
        <ele>2334.458</ele>
        <time>2021-08-06T09:13:36Z</time>
      </trkpt>
      <trkpt lat="42.62127" lon="1.72601">
        <ele>2334.449</ele>
        <time>2021-08-06T09:13:38Z</time>
      </trkpt>
      <trkpt lat="42.62127" lon="1.72601">
        <ele>2334.444</ele>
        <time>2021-08-06T09:13:40Z</time>
      </trkpt>
      <trkpt lat="42.62127" lon="1.72601">
        <ele>2334.446</ele>
        <time>2021-08-06T09:13:42Z</time>
      </trkpt>
      <trkpt lat="42.62127" lon="1.72601">
        <ele>2334.445</ele>
        <time>2021-08-06T09:13:44Z</time>
      </trkpt>
      <trkpt lat="42.62127" lon="1.72601">
        <ele>2334.453</ele>
        <time>2021-08-06T09:13:46Z</time>
      </trkpt>
      <trkpt lat="42.62127" lon="1.72601">
        <ele>2334.444</ele>
        <time>2021-08-06T09:13:48Z</time>
      </trkpt>
      <trkpt lat="42.62127" lon="1.72601">
        <ele>2334.436</ele>
        <time>2021-08-06T09:13:50Z</time>
      </trkpt>
      <trkpt lat="42.62127" lon="1.72601">
        <ele>2334.416</ele>
        <time>2021-08-06T09:13:52Z</time>
      </trkpt>
      <trkpt lat="42.62127" lon="1.72601">
        <ele>2334.418</ele>
        <time>2021-08-06T09:13:54Z</time>
      </trkpt>
      <trkpt lat="42.62127" lon="1.72601">
        <ele>2334.396</ele>
        <time>2021-08-06T09:13:56Z</time>
      </trkpt>
      <trkpt lat="42.62127" lon="1.72601">
        <ele>2334.657</ele>
        <time>2021-08-06T09:13:58Z</time>
      </trkpt>
      <trkpt lat="42.62127" lon="1.72601">
        <ele>2334.664</ele>
        <time>2021-08-06T09:14:00Z</time>
      </trkpt>
      <trkpt lat="42.62127" lon="1.72601">
        <ele>2334.653</ele>
        <time>2021-08-06T09:14:02Z</time>
      </trkpt>
      <trkpt lat="42.62127" lon="1.72601">
        <ele>2334.658</ele>
        <time>2021-08-06T09:14:04Z</time>
      </trkpt>
      <trkpt lat="42.62127" lon="1.72601">
        <ele>2334.657</ele>
        <time>2021-08-06T09:14:06Z</time>
      </trkpt>
      <trkpt lat="42.62127" lon="1.72601">
        <ele>2334.644</ele>
        <time>2021-08-06T09:14:08Z</time>
      </trkpt>
      <trkpt lat="42.62127" lon="1.72601">
        <ele>2334.655</ele>
        <time>2021-08-06T09:14:10Z</time>
      </trkpt>
      <trkpt lat="42.62127" lon="1.72601">
        <ele>2334.666</ele>
        <time>2021-08-06T09:14:12Z</time>
      </trkpt>
      <trkpt lat="42.62127" lon="1.72601">
        <ele>2334.344</ele>
        <time>2021-08-06T09:14:14Z</time>
      </trkpt>
      <trkpt lat="42.62127" lon="1.72599">
        <ele>2333.677</ele>
        <time>2021-08-06T09:14:16Z</time>
      </trkpt>
      <trkpt lat="42.62126" lon="1.72597">
        <ele>2333.721</ele>
        <time>2021-08-06T09:14:18Z</time>
      </trkpt>
      <trkpt lat="42.62126" lon="1.72596">
        <ele>2334.021</ele>
        <time>2021-08-06T09:14:20Z</time>
      </trkpt>
      <trkpt lat="42.62125" lon="1.72595">
        <ele>2334.139</ele>
        <time>2021-08-06T09:14:22Z</time>
      </trkpt>
      <trkpt lat="42.62125" lon="1.72595">
        <ele>2334.388</ele>
        <time>2021-08-06T09:14:24Z</time>
      </trkpt>
      <trkpt lat="42.62125" lon="1.72595">
        <ele>2334.39</ele>
        <time>2021-08-06T09:14:26Z</time>
      </trkpt>
      <trkpt lat="42.62125" lon="1.72595">
        <ele>2334.386</ele>
        <time>2021-08-06T09:14:28Z</time>
      </trkpt>
      <trkpt lat="42.62125" lon="1.72595">
        <ele>2334.377</ele>
        <time>2021-08-06T09:14:30Z</time>
      </trkpt>
      <trkpt lat="42.62125" lon="1.72595">
        <ele>2334.374</ele>
        <time>2021-08-06T09:14:32Z</time>
      </trkpt>
      <trkpt lat="42.62125" lon="1.72595">
        <ele>2335.041</ele>
        <time>2021-08-06T09:14:34Z</time>
      </trkpt>
      <trkpt lat="42.62125" lon="1.72596">
        <ele>2335.482</ele>
        <time>2021-08-06T09:14:36Z</time>
      </trkpt>
      <trkpt lat="42.62125" lon="1.72597">
        <ele>2334.415</ele>
        <time>2021-08-06T09:14:38Z</time>
      </trkpt>
      <trkpt lat="42.62124" lon="1.72599">
        <ele>2334.957</ele>
        <time>2021-08-06T09:14:40Z</time>
      </trkpt>
      <trkpt lat="42.62124" lon="1.72601">
        <ele>2335.079</ele>
        <time>2021-08-06T09:14:42Z</time>
      </trkpt>
      <trkpt lat="42.62123" lon="1.72601">
        <ele>2335.041</ele>
        <time>2021-08-06T09:14:44Z</time>
      </trkpt>
      <trkpt lat="42.62123" lon="1.72601">
        <ele>2335.039</ele>
        <time>2021-08-06T09:14:46Z</time>
      </trkpt>
      <trkpt lat="42.62123" lon="1.72601">
        <ele>2335.025</ele>
        <time>2021-08-06T09:14:48Z</time>
      </trkpt>
      <trkpt lat="42.62123" lon="1.72601">
        <ele>2335.469</ele>
        <time>2021-08-06T09:14:50Z</time>
      </trkpt>
      <trkpt lat="42.62122" lon="1.72602">
        <ele>2335.97</ele>
        <time>2021-08-06T09:14:52Z</time>
      </trkpt>
      <trkpt lat="42.62121" lon="1.72602">
        <ele>2335.678</ele>
        <time>2021-08-06T09:14:54Z</time>
      </trkpt>
      <trkpt lat="42.62122" lon="1.72602">
        <ele>2335.018</ele>
        <time>2021-08-06T09:14:56Z</time>
      </trkpt>
      <trkpt lat="42.62122" lon="1.72601">
        <ele>2335.012</ele>
        <time>2021-08-06T09:14:58Z</time>
      </trkpt>
      <trkpt lat="42.62122" lon="1.72601">
        <ele>2335.022</ele>
        <time>2021-08-06T09:15:00Z</time>
      </trkpt>
      <trkpt lat="42.62122" lon="1.72601">
        <ele>2335.02</ele>
        <time>2021-08-06T09:15:02Z</time>
      </trkpt>
      <trkpt lat="42.62122" lon="1.72601">
        <ele>2335.148</ele>
        <time>2021-08-06T09:15:04Z</time>
      </trkpt>
      <trkpt lat="42.62121" lon="1.72602">
        <ele>2335.085</ele>
        <time>2021-08-06T09:15:06Z</time>
      </trkpt>
      <trkpt lat="42.62122" lon="1.72601">
        <ele>2334.561</ele>
        <time>2021-08-06T09:15:08Z</time>
      </trkpt>
      <trkpt lat="42.62122" lon="1.72601">
        <ele>2334.572</ele>
        <time>2021-08-06T09:15:10Z</time>
      </trkpt>
      <trkpt lat="42.62122" lon="1.72601">
        <ele>2334.577</ele>
        <time>2021-08-06T09:15:12Z</time>
      </trkpt>
      <trkpt lat="42.62121" lon="1.72601">
        <ele>2334.536</ele>
        <time>2021-08-06T09:15:14Z</time>
      </trkpt>
      <trkpt lat="42.62121" lon="1.72601">
        <ele>2334.533</ele>
        <time>2021-08-06T09:15:16Z</time>
      </trkpt>
      <trkpt lat="42.62121" lon="1.72601">
        <ele>2334.895</ele>
        <time>2021-08-06T09:15:18Z</time>
      </trkpt>
      <trkpt lat="42.62121" lon="1.72601">
        <ele>2334.849</ele>
        <time>2021-08-06T09:15:20Z</time>
      </trkpt>
      <trkpt lat="42.62121" lon="1.72601">
        <ele>2334.371</ele>
        <time>2021-08-06T09:15:22Z</time>
      </trkpt>
      <trkpt lat="42.62121" lon="1.726">
        <ele>2334.361</ele>
        <time>2021-08-06T09:15:24Z</time>
      </trkpt>
      <trkpt lat="42.62121" lon="1.726">
        <ele>2334.373</ele>
        <time>2021-08-06T09:15:26Z</time>
      </trkpt>
      <trkpt lat="42.62121" lon="1.726">
        <ele>2334.361</ele>
        <time>2021-08-06T09:15:28Z</time>
      </trkpt>
      <trkpt lat="42.62121" lon="1.726">
        <ele>2334.364</ele>
        <time>2021-08-06T09:15:30Z</time>
      </trkpt>
      <trkpt lat="42.62121" lon="1.726">
        <ele>2334.367</ele>
        <time>2021-08-06T09:15:32Z</time>
      </trkpt>
      <trkpt lat="42.62121" lon="1.726">
        <ele>2334.371</ele>
        <time>2021-08-06T09:15:34Z</time>
      </trkpt>
      <trkpt lat="42.62121" lon="1.726">
        <ele>2334.38</ele>
        <time>2021-08-06T09:15:36Z</time>
      </trkpt>
      <trkpt lat="42.62121" lon="1.726">
        <ele>2334.387</ele>
        <time>2021-08-06T09:15:38Z</time>
      </trkpt>
      <trkpt lat="42.62121" lon="1.726">
        <ele>2334.394</ele>
        <time>2021-08-06T09:15:40Z</time>
      </trkpt>
      <trkpt lat="42.62121" lon="1.726">
        <ele>2334.395</ele>
        <time>2021-08-06T09:15:42Z</time>
      </trkpt>
      <trkpt lat="42.62121" lon="1.726">
        <ele>2334.402</ele>
        <time>2021-08-06T09:15:44Z</time>
      </trkpt>
      <trkpt lat="42.62121" lon="1.726">
        <ele>2334.41</ele>
        <time>2021-08-06T09:15:46Z</time>
      </trkpt>
      <trkpt lat="42.62121" lon="1.726">
        <ele>2334.42</ele>
        <time>2021-08-06T09:15:48Z</time>
      </trkpt>
      <trkpt lat="42.62121" lon="1.726">
        <ele>2334.429</ele>
        <time>2021-08-06T09:15:50Z</time>
      </trkpt>
      <trkpt lat="42.62121" lon="1.726">
        <ele>2334.43</ele>
        <time>2021-08-06T09:15:52Z</time>
      </trkpt>
      <trkpt lat="42.62122" lon="1.726">
        <ele>2334.664</ele>
        <time>2021-08-06T09:15:54Z</time>
      </trkpt>
      <trkpt lat="42.62122" lon="1.72599">
        <ele>2334.921</ele>
        <time>2021-08-06T09:15:56Z</time>
      </trkpt>
      <trkpt lat="42.62122" lon="1.72599">
        <ele>2335.128</ele>
        <time>2021-08-06T09:15:58Z</time>
      </trkpt>
      <trkpt lat="42.62121" lon="1.72599">
        <ele>2335.132</ele>
        <time>2021-08-06T09:16:00Z</time>
      </trkpt>
      <trkpt lat="42.62121" lon="1.726">
        <ele>2334.918</ele>
        <time>2021-08-06T09:16:02Z</time>
      </trkpt>
      <trkpt lat="42.62121" lon="1.726">
        <ele>2334.917</ele>
        <time>2021-08-06T09:16:04Z</time>
      </trkpt>
      <trkpt lat="42.62121" lon="1.726">
        <ele>2334.912</ele>
        <time>2021-08-06T09:16:06Z</time>
      </trkpt>
      <trkpt lat="42.62121" lon="1.726">
        <ele>2334.917</ele>
        <time>2021-08-06T09:16:08Z</time>
      </trkpt>
      <trkpt lat="42.62121" lon="1.726">
        <ele>2334.916</ele>
        <time>2021-08-06T09:16:10Z</time>
      </trkpt>
      <trkpt lat="42.62121" lon="1.726">
        <ele>2334.911</ele>
        <time>2021-08-06T09:16:12Z</time>
      </trkpt>
      <trkpt lat="42.62121" lon="1.726">
        <ele>2334.902</ele>
        <time>2021-08-06T09:16:14Z</time>
      </trkpt>
      <trkpt lat="42.62121" lon="1.726">
        <ele>2334.889</ele>
        <time>2021-08-06T09:16:16Z</time>
      </trkpt>
      <trkpt lat="42.62121" lon="1.726">
        <ele>2334.88</ele>
        <time>2021-08-06T09:16:18Z</time>
      </trkpt>
      <trkpt lat="42.62121" lon="1.726">
        <ele>2334.873</ele>
        <time>2021-08-06T09:16:20Z</time>
      </trkpt>
      <trkpt lat="42.62121" lon="1.726">
        <ele>2334.9</ele>
        <time>2021-08-06T09:16:22Z</time>
      </trkpt>
      <trkpt lat="42.62121" lon="1.726">
        <ele>2334.895</ele>
        <time>2021-08-06T09:16:24Z</time>
      </trkpt>
      <trkpt lat="42.62121" lon="1.726">
        <ele>2334.89</ele>
        <time>2021-08-06T09:16:26Z</time>
      </trkpt>
      <trkpt lat="42.62121" lon="1.726">
        <ele>2334.895</ele>
        <time>2021-08-06T09:16:28Z</time>
      </trkpt>
      <trkpt lat="42.62121" lon="1.726">
        <ele>2334.892</ele>
        <time>2021-08-06T09:16:30Z</time>
      </trkpt>
      <trkpt lat="42.62121" lon="1.726">
        <ele>2334.896</ele>
        <time>2021-08-06T09:16:32Z</time>
      </trkpt>
      <trkpt lat="42.62121" lon="1.726">
        <ele>2334.893</ele>
        <time>2021-08-06T09:16:34Z</time>
      </trkpt>
      <trkpt lat="42.62121" lon="1.726">
        <ele>2334.896</ele>
        <time>2021-08-06T09:16:36Z</time>
      </trkpt>
      <trkpt lat="42.62121" lon="1.726">
        <ele>2334.897</ele>
        <time>2021-08-06T09:16:38Z</time>
      </trkpt>
      <trkpt lat="42.62121" lon="1.726">
        <ele>2334.896</ele>
        <time>2021-08-06T09:16:40Z</time>
      </trkpt>
      <trkpt lat="42.62121" lon="1.726">
        <ele>2335.194</ele>
        <time>2021-08-06T09:16:42Z</time>
      </trkpt>
      <trkpt lat="42.62122" lon="1.72601">
        <ele>2335.356</ele>
        <time>2021-08-06T09:16:44Z</time>
      </trkpt>
      <trkpt lat="42.62122" lon="1.72601">
        <ele>2334.83</ele>
        <time>2021-08-06T09:16:46Z</time>
      </trkpt>
      <trkpt lat="42.62122" lon="1.72601">
        <ele>2334.11</ele>
        <time>2021-08-06T09:16:48Z</time>
      </trkpt>
      <trkpt lat="42.62122" lon="1.726">
        <ele>2334.266</ele>
        <time>2021-08-06T09:16:50Z</time>
      </trkpt>
      <trkpt lat="42.62122" lon="1.726">
        <ele>2334.267</ele>
        <time>2021-08-06T09:16:52Z</time>
      </trkpt>
      <trkpt lat="42.62122" lon="1.726">
        <ele>2334.262</ele>
        <time>2021-08-06T09:16:54Z</time>
      </trkpt>
      <trkpt lat="42.62123" lon="1.726">
        <ele>2334.134</ele>
        <time>2021-08-06T09:16:56Z</time>
      </trkpt>
      <trkpt lat="42.62123" lon="1.726">
        <ele>2334.994</ele>
        <time>2021-08-06T09:16:58Z</time>
      </trkpt>
      <trkpt lat="42.62124" lon="1.726">
        <ele>2334.314</ele>
        <time>2021-08-06T09:17:00Z</time>
      </trkpt>
      <trkpt lat="42.62124" lon="1.726">
        <ele>2334.324</ele>
        <time>2021-08-06T09:17:02Z</time>
      </trkpt>
      <trkpt lat="42.62124" lon="1.726">
        <ele>2334.345</ele>
        <time>2021-08-06T09:17:04Z</time>
      </trkpt>
      <trkpt lat="42.62124" lon="1.726">
        <ele>2334.365</ele>
        <time>2021-08-06T09:17:06Z</time>
      </trkpt>
      <trkpt lat="42.62124" lon="1.726">
        <ele>2334.361</ele>
        <time>2021-08-06T09:17:08Z</time>
      </trkpt>
      <trkpt lat="42.62124" lon="1.726">
        <ele>2334.357</ele>
        <time>2021-08-06T09:17:10Z</time>
      </trkpt>
      <trkpt lat="42.62124" lon="1.726">
        <ele>2334.353</ele>
        <time>2021-08-06T09:17:12Z</time>
      </trkpt>
      <trkpt lat="42.62124" lon="1.726">
        <ele>2335.202</ele>
        <time>2021-08-06T09:17:14Z</time>
      </trkpt>
      <trkpt lat="42.62124" lon="1.726">
        <ele>2335.193</ele>
        <time>2021-08-06T09:17:16Z</time>
      </trkpt>
      <trkpt lat="42.62124" lon="1.72601">
        <ele>2335.188</ele>
        <time>2021-08-06T09:17:18Z</time>
      </trkpt>
      <trkpt lat="42.62124" lon="1.72601">
        <ele>2335.18</ele>
        <time>2021-08-06T09:17:20Z</time>
      </trkpt>
      <trkpt lat="42.62124" lon="1.72601">
        <ele>2335.171</ele>
        <time>2021-08-06T09:17:22Z</time>
      </trkpt>
      <trkpt lat="42.62124" lon="1.72601">
        <ele>2335.168</ele>
        <time>2021-08-06T09:17:24Z</time>
      </trkpt>
      <trkpt lat="42.62124" lon="1.72601">
        <ele>2335.17</ele>
        <time>2021-08-06T09:17:26Z</time>
      </trkpt>
      <trkpt lat="42.62124" lon="1.72601">
        <ele>2335.179</ele>
        <time>2021-08-06T09:17:28Z</time>
      </trkpt>
      <trkpt lat="42.62124" lon="1.72601">
        <ele>2335.171</ele>
        <time>2021-08-06T09:17:30Z</time>
      </trkpt>
      <trkpt lat="42.62124" lon="1.72601">
        <ele>2335.154</ele>
        <time>2021-08-06T09:17:32Z</time>
      </trkpt>
      <trkpt lat="42.62124" lon="1.72601">
        <ele>2335.145</ele>
        <time>2021-08-06T09:17:34Z</time>
      </trkpt>
      <trkpt lat="42.62124" lon="1.72601">
        <ele>2335.131</ele>
        <time>2021-08-06T09:17:36Z</time>
      </trkpt>
      <trkpt lat="42.62124" lon="1.72601">
        <ele>2335.134</ele>
        <time>2021-08-06T09:17:38Z</time>
      </trkpt>
      <trkpt lat="42.62124" lon="1.72601">
        <ele>2335.131</ele>
        <time>2021-08-06T09:17:40Z</time>
      </trkpt>
      <trkpt lat="42.62124" lon="1.72601">
        <ele>2335.87</ele>
        <time>2021-08-06T09:17:42Z</time>
      </trkpt>
      <trkpt lat="42.62124" lon="1.72601">
        <ele>2336.171</ele>
        <time>2021-08-06T09:17:44Z</time>
      </trkpt>
      <trkpt lat="42.62124" lon="1.72601">
        <ele>2336.159</ele>
        <time>2021-08-06T09:17:46Z</time>
      </trkpt>
      <trkpt lat="42.62124" lon="1.72601">
        <ele>2336.16</ele>
        <time>2021-08-06T09:17:48Z</time>
      </trkpt>
      <trkpt lat="42.62124" lon="1.72601">
        <ele>2336.167</ele>
        <time>2021-08-06T09:17:50Z</time>
      </trkpt>
      <trkpt lat="42.62124" lon="1.72601">
        <ele>2336.183</ele>
        <time>2021-08-06T09:17:52Z</time>
      </trkpt>
      <trkpt lat="42.62124" lon="1.72601">
        <ele>2336.197</ele>
        <time>2021-08-06T09:17:54Z</time>
      </trkpt>
      <trkpt lat="42.62124" lon="1.72601">
        <ele>2336.32</ele>
        <time>2021-08-06T09:17:56Z</time>
      </trkpt>
      <trkpt lat="42.62124" lon="1.72601">
        <ele>2336.318</ele>
        <time>2021-08-06T09:17:58Z</time>
      </trkpt>
      <trkpt lat="42.62124" lon="1.72601">
        <ele>2336.321</ele>
        <time>2021-08-06T09:18:00Z</time>
      </trkpt>
      <trkpt lat="42.62124" lon="1.72601">
        <ele>2336.621</ele>
        <time>2021-08-06T09:18:02Z</time>
      </trkpt>
      <trkpt lat="42.62124" lon="1.72601">
        <ele>2336.62</ele>
        <time>2021-08-06T09:18:04Z</time>
      </trkpt>
      <trkpt lat="42.62124" lon="1.72601">
        <ele>2336.624</ele>
        <time>2021-08-06T09:18:06Z</time>
      </trkpt>
      <trkpt lat="42.62124" lon="1.72601">
        <ele>2336.635</ele>
        <time>2021-08-06T09:18:08Z</time>
      </trkpt>
      <trkpt lat="42.62124" lon="1.72601">
        <ele>2336.637</ele>
        <time>2021-08-06T09:18:10Z</time>
      </trkpt>
      <trkpt lat="42.62124" lon="1.72601">
        <ele>2336.642</ele>
        <time>2021-08-06T09:18:12Z</time>
      </trkpt>
      <trkpt lat="42.62124" lon="1.72601">
        <ele>2336.418</ele>
        <time>2021-08-06T09:18:14Z</time>
      </trkpt>
      <trkpt lat="42.62124" lon="1.72601">
        <ele>2336.425</ele>
        <time>2021-08-06T09:18:16Z</time>
      </trkpt>
      <trkpt lat="42.62124" lon="1.72601">
        <ele>2336.427</ele>
        <time>2021-08-06T09:18:18Z</time>
      </trkpt>
      <trkpt lat="42.62124" lon="1.72601">
        <ele>2336.413</ele>
        <time>2021-08-06T09:18:20Z</time>
      </trkpt>
      <trkpt lat="42.62124" lon="1.72601">
        <ele>2336.406</ele>
        <time>2021-08-06T09:18:22Z</time>
      </trkpt>
      <trkpt lat="42.62124" lon="1.72601">
        <ele>2336.405</ele>
        <time>2021-08-06T09:18:24Z</time>
      </trkpt>
      <trkpt lat="42.62124" lon="1.72601">
        <ele>2336.41</ele>
        <time>2021-08-06T09:18:26Z</time>
      </trkpt>
      <trkpt lat="42.62124" lon="1.72601">
        <ele>2336.408</ele>
        <time>2021-08-06T09:18:28Z</time>
      </trkpt>
      <trkpt lat="42.62124" lon="1.72601">
        <ele>2336.407</ele>
        <time>2021-08-06T09:18:30Z</time>
      </trkpt>
      <trkpt lat="42.62124" lon="1.72601">
        <ele>2336.4</ele>
        <time>2021-08-06T09:18:32Z</time>
      </trkpt>
      <trkpt lat="42.62124" lon="1.72601">
        <ele>2336.566</ele>
        <time>2021-08-06T09:18:34Z</time>
      </trkpt>
      <trkpt lat="42.62123" lon="1.72601">
        <ele>2336.127</ele>
        <time>2021-08-06T09:18:36Z</time>
      </trkpt>
      <trkpt lat="42.62123" lon="1.72601">
        <ele>2336.007</ele>
        <time>2021-08-06T09:18:38Z</time>
      </trkpt>
      <trkpt lat="42.62122" lon="1.72601">
        <ele>2335.87</ele>
        <time>2021-08-06T09:18:40Z</time>
      </trkpt>
      <trkpt lat="42.62122" lon="1.72601">
        <ele>2335.618</ele>
        <time>2021-08-06T09:18:42Z</time>
      </trkpt>
      <trkpt lat="42.62122" lon="1.72601">
        <ele>2335.674</ele>
        <time>2021-08-06T09:18:44Z</time>
      </trkpt>
      <trkpt lat="42.62122" lon="1.72601">
        <ele>2335.84</ele>
        <time>2021-08-06T09:18:46Z</time>
      </trkpt>
      <trkpt lat="42.62123" lon="1.72602">
        <ele>2335.715</ele>
        <time>2021-08-06T09:18:48Z</time>
      </trkpt>
      <trkpt lat="42.62123" lon="1.72602">
        <ele>2335.628</ele>
        <time>2021-08-06T09:18:50Z</time>
      </trkpt>
      <trkpt lat="42.62123" lon="1.72602">
        <ele>2335.63</ele>
        <time>2021-08-06T09:18:52Z</time>
      </trkpt>
      <trkpt lat="42.62123" lon="1.72602">
        <ele>2335.636</ele>
        <time>2021-08-06T09:18:54Z</time>
      </trkpt>
      <trkpt lat="42.62123" lon="1.72602">
        <ele>2335.645</ele>
        <time>2021-08-06T09:18:56Z</time>
      </trkpt>
      <trkpt lat="42.62123" lon="1.72602">
        <ele>2335.638</ele>
        <time>2021-08-06T09:18:58Z</time>
      </trkpt>
      <trkpt lat="42.62123" lon="1.72602">
        <ele>2335.588</ele>
        <time>2021-08-06T09:19:00Z</time>
      </trkpt>
      <trkpt lat="42.62122" lon="1.72603">
        <ele>2335.15</ele>
        <time>2021-08-06T09:19:02Z</time>
      </trkpt>
      <trkpt lat="42.6212" lon="1.72603">
        <ele>2335.155</ele>
        <time>2021-08-06T09:19:04Z</time>
      </trkpt>
      <trkpt lat="42.62119" lon="1.72603">
        <ele>2334.355</ele>
        <time>2021-08-06T09:19:06Z</time>
      </trkpt>
      <trkpt lat="42.62118" lon="1.72603">
        <ele>2333.419</ele>
        <time>2021-08-06T09:19:08Z</time>
      </trkpt>
      <trkpt lat="42.62116" lon="1.72603">
        <ele>2333.666</ele>
        <time>2021-08-06T09:19:10Z</time>
      </trkpt>
      <trkpt lat="42.62116" lon="1.72604">
        <ele>2333.219</ele>
        <time>2021-08-06T09:19:12Z</time>
      </trkpt>
      <trkpt lat="42.62115" lon="1.72605">
        <ele>2333.673</ele>
        <time>2021-08-06T09:19:14Z</time>
      </trkpt>
      <trkpt lat="42.62114" lon="1.72606">
        <ele>2333.531</ele>
        <time>2021-08-06T09:19:16Z</time>
      </trkpt>
      <trkpt lat="42.62113" lon="1.72607">
        <ele>2333.654</ele>
        <time>2021-08-06T09:19:18Z</time>
      </trkpt>
      <trkpt lat="42.62113" lon="1.72607">
        <ele>2333.627</ele>
        <time>2021-08-06T09:19:20Z</time>
      </trkpt>
      <trkpt lat="42.62113" lon="1.72607">
        <ele>2333.607</ele>
        <time>2021-08-06T09:19:22Z</time>
      </trkpt>
      <trkpt lat="42.62113" lon="1.72607">
        <ele>2333.579</ele>
        <time>2021-08-06T09:19:24Z</time>
      </trkpt>
      <trkpt lat="42.62112" lon="1.72608">
        <ele>2334.001</ele>
        <time>2021-08-06T09:19:26Z</time>
      </trkpt>
      <trkpt lat="42.62111" lon="1.72609">
        <ele>2333.303</ele>
        <time>2021-08-06T09:19:28Z</time>
      </trkpt>
      <trkpt lat="42.62111" lon="1.72611">
        <ele>2333.828</ele>
        <time>2021-08-06T09:19:30Z</time>
      </trkpt>
      <trkpt lat="42.62111" lon="1.72613">
        <ele>2333.344</ele>
        <time>2021-08-06T09:19:32Z</time>
      </trkpt>
      <trkpt lat="42.62111" lon="1.72615">
        <ele>2334.284</ele>
        <time>2021-08-06T09:19:34Z</time>
      </trkpt>
      <trkpt lat="42.62112" lon="1.72618">
        <ele>2334.85</ele>
        <time>2021-08-06T09:19:36Z</time>
      </trkpt>
      <trkpt lat="42.62112" lon="1.72618">
        <ele>2335.167</ele>
        <time>2021-08-06T09:19:38Z</time>
      </trkpt>
      <trkpt lat="42.62111" lon="1.7262">
        <ele>2334.639</ele>
        <time>2021-08-06T09:19:40Z</time>
      </trkpt>
      <trkpt lat="42.62111" lon="1.72621">
        <ele>2334.083</ele>
        <time>2021-08-06T09:19:42Z</time>
      </trkpt>
      <trkpt lat="42.62111" lon="1.72622">
        <ele>2334.226</ele>
        <time>2021-08-06T09:19:44Z</time>
      </trkpt>
      <trkpt lat="42.62111" lon="1.72622">
        <ele>2334.419</ele>
        <time>2021-08-06T09:19:46Z</time>
      </trkpt>
      <trkpt lat="42.62111" lon="1.72622">
        <ele>2334.376</ele>
        <time>2021-08-06T09:19:48Z</time>
      </trkpt>
      <trkpt lat="42.62111" lon="1.72622">
        <ele>2334.378</ele>
        <time>2021-08-06T09:19:50Z</time>
      </trkpt>
      <trkpt lat="42.62111" lon="1.72622">
        <ele>2334.376</ele>
        <time>2021-08-06T09:19:52Z</time>
      </trkpt>
      <trkpt lat="42.62111" lon="1.72623">
        <ele>2334.949</ele>
        <time>2021-08-06T09:19:54Z</time>
      </trkpt>
      <trkpt lat="42.62111" lon="1.72623">
        <ele>2334.93</ele>
        <time>2021-08-06T09:19:56Z</time>
      </trkpt>
      <trkpt lat="42.62111" lon="1.72624">
        <ele>2334.922</ele>
        <time>2021-08-06T09:19:58Z</time>
      </trkpt>
      <trkpt lat="42.62111" lon="1.72624">
        <ele>2334.924</ele>
        <time>2021-08-06T09:20:00Z</time>
      </trkpt>
      <trkpt lat="42.6211" lon="1.72624">
        <ele>2335.022</ele>
        <time>2021-08-06T09:20:02Z</time>
      </trkpt>
      <trkpt lat="42.6211" lon="1.72624">
        <ele>2334.961</ele>
        <time>2021-08-06T09:20:04Z</time>
      </trkpt>
      <trkpt lat="42.6211" lon="1.72624">
        <ele>2334.964</ele>
        <time>2021-08-06T09:20:06Z</time>
      </trkpt>
      <trkpt lat="42.6211" lon="1.72624">
        <ele>2334.96</ele>
        <time>2021-08-06T09:20:08Z</time>
      </trkpt>
      <trkpt lat="42.6211" lon="1.72624">
        <ele>2334.928</ele>
        <time>2021-08-06T09:20:10Z</time>
      </trkpt>
      <trkpt lat="42.6211" lon="1.72623">
        <ele>2334.699</ele>
        <time>2021-08-06T09:20:12Z</time>
      </trkpt>
      <trkpt lat="42.6211" lon="1.72624">
        <ele>2334.823</ele>
        <time>2021-08-06T09:20:14Z</time>
      </trkpt>
      <trkpt lat="42.62109" lon="1.72624">
        <ele>2334.729</ele>
        <time>2021-08-06T09:20:16Z</time>
      </trkpt>
      <trkpt lat="42.62109" lon="1.72624">
        <ele>2334.701</ele>
        <time>2021-08-06T09:20:18Z</time>
      </trkpt>
      <trkpt lat="42.6211" lon="1.72624">
        <ele>2334.226</ele>
        <time>2021-08-06T09:20:20Z</time>
      </trkpt>
      <trkpt lat="42.6211" lon="1.72625">
        <ele>2334.017</ele>
        <time>2021-08-06T09:20:22Z</time>
      </trkpt>
      <trkpt lat="42.62109" lon="1.72625">
        <ele>2333.967</ele>
        <time>2021-08-06T09:20:24Z</time>
      </trkpt>
      <trkpt lat="42.62109" lon="1.72626">
        <ele>2334.091</ele>
        <time>2021-08-06T09:20:26Z</time>
      </trkpt>
      <trkpt lat="42.62109" lon="1.72628">
        <ele>2333.506</ele>
        <time>2021-08-06T09:20:28Z</time>
      </trkpt>
      <trkpt lat="42.62108" lon="1.72629">
        <ele>2333.238</ele>
        <time>2021-08-06T09:20:30Z</time>
      </trkpt>
      <trkpt lat="42.62107" lon="1.72631">
        <ele>2333.038</ele>
        <time>2021-08-06T09:20:32Z</time>
      </trkpt>
      <trkpt lat="42.62106" lon="1.72633">
        <ele>2332.81</ele>
        <time>2021-08-06T09:20:34Z</time>
      </trkpt>
      <trkpt lat="42.62105" lon="1.72634">
        <ele>2331.571</ele>
        <time>2021-08-06T09:20:36Z</time>
      </trkpt>
      <trkpt lat="42.62105" lon="1.72635">
        <ele>2331.334</ele>
        <time>2021-08-06T09:20:38Z</time>
      </trkpt>
      <trkpt lat="42.62104" lon="1.72636">
        <ele>2330.859</ele>
        <time>2021-08-06T09:20:40Z</time>
      </trkpt>
      <trkpt lat="42.62103" lon="1.72637">
        <ele>2331.442</ele>
        <time>2021-08-06T09:20:42Z</time>
      </trkpt>
      <trkpt lat="42.62103" lon="1.72636">
        <ele>2330.88</ele>
        <time>2021-08-06T09:20:44Z</time>
      </trkpt>
      <trkpt lat="42.62103" lon="1.72636">
        <ele>2330.869</ele>
        <time>2021-08-06T09:20:46Z</time>
      </trkpt>
      <trkpt lat="42.62103" lon="1.72636">
        <ele>2330.868</ele>
        <time>2021-08-06T09:20:48Z</time>
      </trkpt>
      <trkpt lat="42.62103" lon="1.72636">
        <ele>2330.865</ele>
        <time>2021-08-06T09:20:50Z</time>
      </trkpt>
      <trkpt lat="42.62102" lon="1.72636">
        <ele>2331.234</ele>
        <time>2021-08-06T09:20:52Z</time>
      </trkpt>
      <trkpt lat="42.62103" lon="1.72636">
        <ele>2331.136</ele>
        <time>2021-08-06T09:20:54Z</time>
      </trkpt>
      <trkpt lat="42.62103" lon="1.72637">
        <ele>2331.493</ele>
        <time>2021-08-06T09:20:56Z</time>
      </trkpt>
      <trkpt lat="42.62103" lon="1.72637">
        <ele>2331.521</ele>
        <time>2021-08-06T09:20:58Z</time>
      </trkpt>
      <trkpt lat="42.62103" lon="1.72637">
        <ele>2331.522</ele>
        <time>2021-08-06T09:21:00Z</time>
      </trkpt>
      <trkpt lat="42.62103" lon="1.72637">
        <ele>2331.379</ele>
        <time>2021-08-06T09:21:02Z</time>
      </trkpt>
      <trkpt lat="42.62104" lon="1.72638">
        <ele>2331.186</ele>
        <time>2021-08-06T09:21:04Z</time>
      </trkpt>
      <trkpt lat="42.62104" lon="1.72638">
        <ele>2331.286</ele>
        <time>2021-08-06T09:21:06Z</time>
      </trkpt>
      <trkpt lat="42.62104" lon="1.72638">
        <ele>2331.19</ele>
        <time>2021-08-06T09:21:08Z</time>
      </trkpt>
      <trkpt lat="42.62105" lon="1.72637">
        <ele>2331.155</ele>
        <time>2021-08-06T09:21:10Z</time>
      </trkpt>
      <trkpt lat="42.62105" lon="1.72637">
        <ele>2331.157</ele>
        <time>2021-08-06T09:21:12Z</time>
      </trkpt>
      <trkpt lat="42.62105" lon="1.72637">
        <ele>2331.161</ele>
        <time>2021-08-06T09:21:14Z</time>
      </trkpt>
      <trkpt lat="42.62105" lon="1.72637">
        <ele>2331.175</ele>
        <time>2021-08-06T09:21:16Z</time>
      </trkpt>
      <trkpt lat="42.62105" lon="1.72637">
        <ele>2331.134</ele>
        <time>2021-08-06T09:21:18Z</time>
      </trkpt>
      <trkpt lat="42.62105" lon="1.72637">
        <ele>2331.563</ele>
        <time>2021-08-06T09:21:20Z</time>
      </trkpt>
      <trkpt lat="42.62105" lon="1.72637">
        <ele>2331.569</ele>
        <time>2021-08-06T09:21:22Z</time>
      </trkpt>
      <trkpt lat="42.62105" lon="1.72637">
        <ele>2331.563</ele>
        <time>2021-08-06T09:21:24Z</time>
      </trkpt>
      <trkpt lat="42.62105" lon="1.72637">
        <ele>2331.562</ele>
        <time>2021-08-06T09:21:26Z</time>
      </trkpt>
      <trkpt lat="42.62105" lon="1.72637">
        <ele>2331.958</ele>
        <time>2021-08-06T09:21:28Z</time>
      </trkpt>
      <trkpt lat="42.62105" lon="1.72637">
        <ele>2331.99</ele>
        <time>2021-08-06T09:21:30Z</time>
      </trkpt>
      <trkpt lat="42.62104" lon="1.72637">
        <ele>2332.036</ele>
        <time>2021-08-06T09:21:32Z</time>
      </trkpt>
      <trkpt lat="42.62104" lon="1.72637">
        <ele>2332.027</ele>
        <time>2021-08-06T09:21:34Z</time>
      </trkpt>
      <trkpt lat="42.62104" lon="1.72637">
        <ele>2332.288</ele>
        <time>2021-08-06T09:21:36Z</time>
      </trkpt>
      <trkpt lat="42.62104" lon="1.72637">
        <ele>2332</ele>
        <time>2021-08-06T09:21:38Z</time>
      </trkpt>
      <trkpt lat="42.62105" lon="1.72636">
        <ele>2331.802</ele>
        <time>2021-08-06T09:21:40Z</time>
      </trkpt>
      <trkpt lat="42.62105" lon="1.72636">
        <ele>2331.781</ele>
        <time>2021-08-06T09:21:42Z</time>
      </trkpt>
      <trkpt lat="42.62106" lon="1.72635">
        <ele>2331.743</ele>
        <time>2021-08-06T09:21:44Z</time>
      </trkpt>
      <trkpt lat="42.62106" lon="1.72636">
        <ele>2331.747</ele>
        <time>2021-08-06T09:21:46Z</time>
      </trkpt>
      <trkpt lat="42.62106" lon="1.72636">
        <ele>2331.744</ele>
        <time>2021-08-06T09:21:48Z</time>
      </trkpt>
      <trkpt lat="42.62105" lon="1.72635">
        <ele>2332.448</ele>
        <time>2021-08-06T09:21:50Z</time>
      </trkpt>
      <trkpt lat="42.62105" lon="1.72635">
        <ele>2332.077</ele>
        <time>2021-08-06T09:21:52Z</time>
      </trkpt>
      <trkpt lat="42.62105" lon="1.72635">
        <ele>2332.074</ele>
        <time>2021-08-06T09:21:54Z</time>
      </trkpt>
      <trkpt lat="42.62105" lon="1.72635">
        <ele>2332.088</ele>
        <time>2021-08-06T09:21:56Z</time>
      </trkpt>
      <trkpt lat="42.62105" lon="1.72636">
        <ele>2332.51</ele>
        <time>2021-08-06T09:21:58Z</time>
      </trkpt>
      <trkpt lat="42.62105" lon="1.72637">
        <ele>2332.805</ele>
        <time>2021-08-06T09:22:00Z</time>
      </trkpt>
      <trkpt lat="42.62105" lon="1.72637">
        <ele>2332.798</ele>
        <time>2021-08-06T09:22:02Z</time>
      </trkpt>
      <trkpt lat="42.62104" lon="1.72637">
        <ele>2333.121</ele>
        <time>2021-08-06T09:22:04Z</time>
      </trkpt>
      <trkpt lat="42.62104" lon="1.72637">
        <ele>2333.123</ele>
        <time>2021-08-06T09:22:06Z</time>
      </trkpt>
      <trkpt lat="42.62104" lon="1.72637">
        <ele>2333.134</ele>
        <time>2021-08-06T09:22:08Z</time>
      </trkpt>
      <trkpt lat="42.62104" lon="1.72637">
        <ele>2333.33</ele>
        <time>2021-08-06T09:22:10Z</time>
      </trkpt>
      <trkpt lat="42.62104" lon="1.72637">
        <ele>2333.327</ele>
        <time>2021-08-06T09:22:12Z</time>
      </trkpt>
      <trkpt lat="42.62104" lon="1.72637">
        <ele>2333.33</ele>
        <time>2021-08-06T09:22:14Z</time>
      </trkpt>
      <trkpt lat="42.62104" lon="1.72637">
        <ele>2333.106</ele>
        <time>2021-08-06T09:22:16Z</time>
      </trkpt>
      <trkpt lat="42.62103" lon="1.72637">
        <ele>2333.117</ele>
        <time>2021-08-06T09:22:18Z</time>
      </trkpt>
      <trkpt lat="42.62103" lon="1.72637">
        <ele>2333.031</ele>
        <time>2021-08-06T09:22:20Z</time>
      </trkpt>
      <trkpt lat="42.62103" lon="1.72638">
        <ele>2333.035</ele>
        <time>2021-08-06T09:22:22Z</time>
      </trkpt>
      <trkpt lat="42.62103" lon="1.72638">
        <ele>2333.038</ele>
        <time>2021-08-06T09:22:24Z</time>
      </trkpt>
      <trkpt lat="42.62103" lon="1.72638">
        <ele>2333.273</ele>
        <time>2021-08-06T09:22:26Z</time>
      </trkpt>
      <trkpt lat="42.62103" lon="1.72638">
        <ele>2333.264</ele>
        <time>2021-08-06T09:22:28Z</time>
      </trkpt>
      <trkpt lat="42.62103" lon="1.72638">
        <ele>2333.262</ele>
        <time>2021-08-06T09:22:30Z</time>
      </trkpt>
      <trkpt lat="42.62103" lon="1.72638">
        <ele>2333.256</ele>
        <time>2021-08-06T09:22:32Z</time>
      </trkpt>
      <trkpt lat="42.62103" lon="1.72638">
        <ele>2333.117</ele>
        <time>2021-08-06T09:22:34Z</time>
      </trkpt>
      <trkpt lat="42.62103" lon="1.72639">
        <ele>2333.555</ele>
        <time>2021-08-06T09:22:36Z</time>
      </trkpt>
      <trkpt lat="42.62104" lon="1.7264">
        <ele>2333.19</ele>
        <time>2021-08-06T09:22:38Z</time>
      </trkpt>
      <trkpt lat="42.62105" lon="1.72641">
        <ele>2333.284</ele>
        <time>2021-08-06T09:22:40Z</time>
      </trkpt>
      <trkpt lat="42.62106" lon="1.72642">
        <ele>2333.593</ele>
        <time>2021-08-06T09:22:42Z</time>
      </trkpt>
      <trkpt lat="42.62107" lon="1.72643">
        <ele>2334.02</ele>
        <time>2021-08-06T09:22:44Z</time>
      </trkpt>
      <trkpt lat="42.62108" lon="1.72647">
        <ele>2334.719</ele>
        <time>2021-08-06T09:22:46Z</time>
      </trkpt>
      <trkpt lat="42.62109" lon="1.72649">
        <ele>2334.344</ele>
        <time>2021-08-06T09:22:48Z</time>
      </trkpt>
      <trkpt lat="42.62109" lon="1.72652">
        <ele>2334.381</ele>
        <time>2021-08-06T09:22:50Z</time>
      </trkpt>
      <trkpt lat="42.62111" lon="1.72652">
        <ele>2335.91</ele>
        <time>2021-08-06T09:22:52Z</time>
      </trkpt>
      <trkpt lat="42.62112" lon="1.7265">
        <ele>2335.147</ele>
        <time>2021-08-06T09:22:54Z</time>
      </trkpt>
      <trkpt lat="42.62114" lon="1.72649">
        <ele>2335.496</ele>
        <time>2021-08-06T09:22:56Z</time>
      </trkpt>
      <trkpt lat="42.62113" lon="1.7265">
        <ele>2335.436</ele>
        <time>2021-08-06T09:22:58Z</time>
      </trkpt>
      <trkpt lat="42.62113" lon="1.7265">
        <ele>2334.677</ele>
        <time>2021-08-06T09:23:00Z</time>
      </trkpt>
      <trkpt lat="42.62113" lon="1.7265">
        <ele>2334.636</ele>
        <time>2021-08-06T09:23:02Z</time>
      </trkpt>
      <trkpt lat="42.62113" lon="1.7265">
        <ele>2334.401</ele>
        <time>2021-08-06T09:23:04Z</time>
      </trkpt>
      <trkpt lat="42.62113" lon="1.7265">
        <ele>2334.416</ele>
        <time>2021-08-06T09:23:06Z</time>
      </trkpt>
      <trkpt lat="42.62113" lon="1.7265">
        <ele>2334.447</ele>
        <time>2021-08-06T09:23:08Z</time>
      </trkpt>
      <trkpt lat="42.62113" lon="1.7265">
        <ele>2334.433</ele>
        <time>2021-08-06T09:23:10Z</time>
      </trkpt>
      <trkpt lat="42.62113" lon="1.7265">
        <ele>2334.421</ele>
        <time>2021-08-06T09:23:12Z</time>
      </trkpt>
      <trkpt lat="42.62113" lon="1.7265">
        <ele>2334.404</ele>
        <time>2021-08-06T09:23:14Z</time>
      </trkpt>
      <trkpt lat="42.62113" lon="1.7265">
        <ele>2334.383</ele>
        <time>2021-08-06T09:23:16Z</time>
      </trkpt>
      <trkpt lat="42.62113" lon="1.7265">
        <ele>2334.378</ele>
        <time>2021-08-06T09:23:18Z</time>
      </trkpt>
      <trkpt lat="42.62112" lon="1.72649">
        <ele>2334.023</ele>
        <time>2021-08-06T09:23:20Z</time>
      </trkpt>
      <trkpt lat="42.62111" lon="1.72647">
        <ele>2333.171</ele>
        <time>2021-08-06T09:23:22Z</time>
      </trkpt>
      <trkpt lat="42.62109" lon="1.72645">
        <ele>2332.453</ele>
        <time>2021-08-06T09:23:24Z</time>
      </trkpt>
      <trkpt lat="42.62108" lon="1.72643">
        <ele>2331.419</ele>
        <time>2021-08-06T09:23:26Z</time>
      </trkpt>
      <trkpt lat="42.62108" lon="1.7264">
        <ele>2330.168</ele>
        <time>2021-08-06T09:23:28Z</time>
      </trkpt>
      <trkpt lat="42.62108" lon="1.72638">
        <ele>2330.395</ele>
        <time>2021-08-06T09:23:30Z</time>
      </trkpt>
      <trkpt lat="42.62106" lon="1.72637">
        <ele>2329.437</ele>
        <time>2021-08-06T09:23:32Z</time>
      </trkpt>
      <trkpt lat="42.62104" lon="1.72636">
        <ele>2328.614</ele>
        <time>2021-08-06T09:23:34Z</time>
      </trkpt>
      <trkpt lat="42.62104" lon="1.72634">
        <ele>2328.149</ele>
        <time>2021-08-06T09:23:36Z</time>
      </trkpt>
      <trkpt lat="42.62104" lon="1.72635">
        <ele>2328.106</ele>
        <time>2021-08-06T09:23:38Z</time>
      </trkpt>
      <trkpt lat="42.62104" lon="1.72635">
        <ele>2328.1</ele>
        <time>2021-08-06T09:23:40Z</time>
      </trkpt>
      <trkpt lat="42.62104" lon="1.72635">
        <ele>2328.094</ele>
        <time>2021-08-06T09:23:42Z</time>
      </trkpt>
      <trkpt lat="42.62104" lon="1.72635">
        <ele>2328.096</ele>
        <time>2021-08-06T09:23:44Z</time>
      </trkpt>
      <trkpt lat="42.62104" lon="1.72635">
        <ele>2328.086</ele>
        <time>2021-08-06T09:23:46Z</time>
      </trkpt>
      <trkpt lat="42.62104" lon="1.72635">
        <ele>2328.041</ele>
        <time>2021-08-06T09:23:48Z</time>
      </trkpt>
      <trkpt lat="42.62104" lon="1.72635">
        <ele>2328.052</ele>
        <time>2021-08-06T09:23:50Z</time>
      </trkpt>
      <trkpt lat="42.62104" lon="1.72635">
        <ele>2328.175</ele>
        <time>2021-08-06T09:23:52Z</time>
      </trkpt>
      <trkpt lat="42.62105" lon="1.72636">
        <ele>2329.445</ele>
        <time>2021-08-06T09:23:54Z</time>
      </trkpt>
      <trkpt lat="42.62105" lon="1.72636">
        <ele>2329.437</ele>
        <time>2021-08-06T09:23:56Z</time>
      </trkpt>
      <trkpt lat="42.62105" lon="1.72636">
        <ele>2329.439</ele>
        <time>2021-08-06T09:23:58Z</time>
      </trkpt>
      <trkpt lat="42.62105" lon="1.72636">
        <ele>2329.826</ele>
        <time>2021-08-06T09:24:00Z</time>
      </trkpt>
      <trkpt lat="42.62104" lon="1.72634">
        <ele>2329.862</ele>
        <time>2021-08-06T09:24:02Z</time>
      </trkpt>
      <trkpt lat="42.62103" lon="1.72633">
        <ele>2328.981</ele>
        <time>2021-08-06T09:24:04Z</time>
      </trkpt>
      <trkpt lat="42.62102" lon="1.72632">
        <ele>2329.212</ele>
        <time>2021-08-06T09:24:06Z</time>
      </trkpt>
      <trkpt lat="42.621" lon="1.72632">
        <ele>2329.737</ele>
        <time>2021-08-06T09:24:08Z</time>
      </trkpt>
      <trkpt lat="42.621" lon="1.72632">
        <ele>2328.481</ele>
        <time>2021-08-06T09:24:10Z</time>
      </trkpt>
      <trkpt lat="42.62101" lon="1.72632">
        <ele>2328.676</ele>
        <time>2021-08-06T09:24:12Z</time>
      </trkpt>
      <trkpt lat="42.62101" lon="1.72632">
        <ele>2328.805</ele>
        <time>2021-08-06T09:24:14Z</time>
      </trkpt>
      <trkpt lat="42.62101" lon="1.72632">
        <ele>2328.752</ele>
        <time>2021-08-06T09:24:16Z</time>
      </trkpt>
      <trkpt lat="42.62101" lon="1.72632">
        <ele>2328.743</ele>
        <time>2021-08-06T09:24:18Z</time>
      </trkpt>
      <trkpt lat="42.62101" lon="1.72632">
        <ele>2328.903</ele>
        <time>2021-08-06T09:24:20Z</time>
      </trkpt>
      <trkpt lat="42.62101" lon="1.72632">
        <ele>2328.831</ele>
        <time>2021-08-06T09:24:22Z</time>
      </trkpt>
      <trkpt lat="42.62101" lon="1.72632">
        <ele>2328.94</ele>
        <time>2021-08-06T09:24:24Z</time>
      </trkpt>
      <trkpt lat="42.62101" lon="1.72632">
        <ele>2328.966</ele>
        <time>2021-08-06T09:24:26Z</time>
      </trkpt>
      <trkpt lat="42.62101" lon="1.72632">
        <ele>2328.956</ele>
        <time>2021-08-06T09:24:28Z</time>
      </trkpt>
      <trkpt lat="42.62101" lon="1.72631">
        <ele>2329.07</ele>
        <time>2021-08-06T09:24:30Z</time>
      </trkpt>
      <trkpt lat="42.62101" lon="1.72631">
        <ele>2329.071</ele>
        <time>2021-08-06T09:24:32Z</time>
      </trkpt>
      <trkpt lat="42.62101" lon="1.72631">
        <ele>2329.528</ele>
        <time>2021-08-06T09:24:34Z</time>
      </trkpt>
      <trkpt lat="42.62101" lon="1.72632">
        <ele>2329.534</ele>
        <time>2021-08-06T09:24:36Z</time>
      </trkpt>
      <trkpt lat="42.62101" lon="1.72632">
        <ele>2329.54</ele>
        <time>2021-08-06T09:24:38Z</time>
      </trkpt>
      <trkpt lat="42.62101" lon="1.72632">
        <ele>2329.359</ele>
        <time>2021-08-06T09:24:40Z</time>
      </trkpt>
      <trkpt lat="42.62101" lon="1.72632">
        <ele>2329.377</ele>
        <time>2021-08-06T09:24:42Z</time>
      </trkpt>
      <trkpt lat="42.62101" lon="1.72632">
        <ele>2329.385</ele>
        <time>2021-08-06T09:24:44Z</time>
      </trkpt>
      <trkpt lat="42.62101" lon="1.72632">
        <ele>2329.371</ele>
        <time>2021-08-06T09:24:46Z</time>
      </trkpt>
      <trkpt lat="42.62101" lon="1.72632">
        <ele>2329.382</ele>
        <time>2021-08-06T09:24:48Z</time>
      </trkpt>
      <trkpt lat="42.62101" lon="1.72632">
        <ele>2329.381</ele>
        <time>2021-08-06T09:24:50Z</time>
      </trkpt>
      <trkpt lat="42.62101" lon="1.72632">
        <ele>2330.101</ele>
        <time>2021-08-06T09:24:52Z</time>
      </trkpt>
      <trkpt lat="42.62101" lon="1.72633">
        <ele>2331.157</ele>
        <time>2021-08-06T09:24:54Z</time>
      </trkpt>
      <trkpt lat="42.62101" lon="1.72633">
        <ele>2331.211</ele>
        <time>2021-08-06T09:24:56Z</time>
      </trkpt>
      <trkpt lat="42.62101" lon="1.72633">
        <ele>2331.272</ele>
        <time>2021-08-06T09:24:58Z</time>
      </trkpt>
      <trkpt lat="42.62102" lon="1.72632">
        <ele>2331.271</ele>
        <time>2021-08-06T09:25:00Z</time>
      </trkpt>
      <trkpt lat="42.62102" lon="1.72632">
        <ele>2331.291</ele>
        <time>2021-08-06T09:25:02Z</time>
      </trkpt>
      <trkpt lat="42.62102" lon="1.72632">
        <ele>2331.291</ele>
        <time>2021-08-06T09:25:04Z</time>
      </trkpt>
      <trkpt lat="42.62101" lon="1.72633">
        <ele>2332.465</ele>
        <time>2021-08-06T09:25:06Z</time>
      </trkpt>
      <trkpt lat="42.62102" lon="1.72635">
        <ele>2332.294</ele>
        <time>2021-08-06T09:25:08Z</time>
      </trkpt>
      <trkpt lat="42.62103" lon="1.72636">
        <ele>2332.198</ele>
        <time>2021-08-06T09:25:10Z</time>
      </trkpt>
      <trkpt lat="42.62103" lon="1.72636">
        <ele>2332.172</ele>
        <time>2021-08-06T09:25:12Z</time>
      </trkpt>
      <trkpt lat="42.62103" lon="1.72636">
        <ele>2332.153</ele>
        <time>2021-08-06T09:25:14Z</time>
      </trkpt>
      <trkpt lat="42.62103" lon="1.72636">
        <ele>2332.117</ele>
        <time>2021-08-06T09:25:16Z</time>
      </trkpt>
      <trkpt lat="42.62103" lon="1.72636">
        <ele>2332.096</ele>
        <time>2021-08-06T09:25:18Z</time>
      </trkpt>
      <trkpt lat="42.62103" lon="1.72636">
        <ele>2332.154</ele>
        <time>2021-08-06T09:25:20Z</time>
      </trkpt>
      <trkpt lat="42.62103" lon="1.72636">
        <ele>2332.106</ele>
        <time>2021-08-06T09:25:22Z</time>
      </trkpt>
      <trkpt lat="42.62103" lon="1.72636">
        <ele>2331.641</ele>
        <time>2021-08-06T09:25:24Z</time>
      </trkpt>
      <trkpt lat="42.62105" lon="1.72638">
        <ele>2330.902</ele>
        <time>2021-08-06T09:25:26Z</time>
      </trkpt>
      <trkpt lat="42.62106" lon="1.7264">
        <ele>2330.347</ele>
        <time>2021-08-06T09:25:28Z</time>
      </trkpt>
      <trkpt lat="42.62107" lon="1.72641">
        <ele>2331.25</ele>
        <time>2021-08-06T09:25:30Z</time>
      </trkpt>
      <trkpt lat="42.62107" lon="1.72643">
        <ele>2332.219</ele>
        <time>2021-08-06T09:25:32Z</time>
      </trkpt>
      <trkpt lat="42.62108" lon="1.72646">
        <ele>2333.304</ele>
        <time>2021-08-06T09:25:34Z</time>
      </trkpt>
      <trkpt lat="42.62108" lon="1.72649">
        <ele>2334.529</ele>
        <time>2021-08-06T09:25:36Z</time>
      </trkpt>
      <trkpt lat="42.62109" lon="1.72651">
        <ele>2334.801</ele>
        <time>2021-08-06T09:25:38Z</time>
      </trkpt>
      <trkpt lat="42.6211" lon="1.72654">
        <ele>2335.591</ele>
        <time>2021-08-06T09:25:40Z</time>
      </trkpt>
      <trkpt lat="42.62111" lon="1.72655">
        <ele>2335.115</ele>
        <time>2021-08-06T09:25:42Z</time>
      </trkpt>
      <trkpt lat="42.62113" lon="1.72657">
        <ele>2335.226</ele>
        <time>2021-08-06T09:25:44Z</time>
      </trkpt>
      <trkpt lat="42.62114" lon="1.72658">
        <ele>2335.537</ele>
        <time>2021-08-06T09:25:46Z</time>
      </trkpt>
      <trkpt lat="42.62115" lon="1.7266">
        <ele>2336.195</ele>
        <time>2021-08-06T09:25:48Z</time>
      </trkpt>
      <trkpt lat="42.62115" lon="1.72662">
        <ele>2336.093</ele>
        <time>2021-08-06T09:25:50Z</time>
      </trkpt>
      <trkpt lat="42.62116" lon="1.72664">
        <ele>2336.806</ele>
        <time>2021-08-06T09:25:52Z</time>
      </trkpt>
      <trkpt lat="42.62117" lon="1.72666">
        <ele>2337.105</ele>
        <time>2021-08-06T09:25:54Z</time>
      </trkpt>
      <trkpt lat="42.62118" lon="1.72667">
        <ele>2337.526</ele>
        <time>2021-08-06T09:25:56Z</time>
      </trkpt>
      <trkpt lat="42.62119" lon="1.72669">
        <ele>2338.048</ele>
        <time>2021-08-06T09:25:58Z</time>
      </trkpt>
      <trkpt lat="42.6212" lon="1.7267">
        <ele>2338.625</ele>
        <time>2021-08-06T09:26:00Z</time>
      </trkpt>
      <trkpt lat="42.6212" lon="1.72671">
        <ele>2338.954</ele>
        <time>2021-08-06T09:26:02Z</time>
      </trkpt>
      <trkpt lat="42.62121" lon="1.72672">
        <ele>2339.816</ele>
        <time>2021-08-06T09:26:04Z</time>
      </trkpt>
      <trkpt lat="42.62122" lon="1.72673">
        <ele>2340.012</ele>
        <time>2021-08-06T09:26:06Z</time>
      </trkpt>
      <trkpt lat="42.62123" lon="1.72675">
        <ele>2340.246</ele>
        <time>2021-08-06T09:26:08Z</time>
      </trkpt>
      <trkpt lat="42.62124" lon="1.72676">
        <ele>2340.842</ele>
        <time>2021-08-06T09:26:10Z</time>
      </trkpt>
      <trkpt lat="42.62124" lon="1.72678">
        <ele>2340.477</ele>
        <time>2021-08-06T09:26:12Z</time>
      </trkpt>
      <trkpt lat="42.62125" lon="1.7268">
        <ele>2341.041</ele>
        <time>2021-08-06T09:26:14Z</time>
      </trkpt>
      <trkpt lat="42.62126" lon="1.72682">
        <ele>2340.933</ele>
        <time>2021-08-06T09:26:16Z</time>
      </trkpt>
      <trkpt lat="42.62128" lon="1.72684">
        <ele>2341.73</ele>
        <time>2021-08-06T09:26:18Z</time>
      </trkpt>
      <trkpt lat="42.62129" lon="1.72684">
        <ele>2340.456</ele>
        <time>2021-08-06T09:26:20Z</time>
      </trkpt>
      <trkpt lat="42.6213" lon="1.72686">
        <ele>2340.148</ele>
        <time>2021-08-06T09:26:22Z</time>
      </trkpt>
      <trkpt lat="42.62131" lon="1.72687">
        <ele>2339.62</ele>
        <time>2021-08-06T09:26:24Z</time>
      </trkpt>
      <trkpt lat="42.62133" lon="1.72687">
        <ele>2340.163</ele>
        <time>2021-08-06T09:26:26Z</time>
      </trkpt>
      <trkpt lat="42.62135" lon="1.72688">
        <ele>2339.444</ele>
        <time>2021-08-06T09:26:28Z</time>
      </trkpt>
      <trkpt lat="42.62137" lon="1.7269">
        <ele>2339.831</ele>
        <time>2021-08-06T09:26:30Z</time>
      </trkpt>
      <trkpt lat="42.62138" lon="1.7269">
        <ele>2338.598</ele>
        <time>2021-08-06T09:26:32Z</time>
      </trkpt>
      <trkpt lat="42.6214" lon="1.72691">
        <ele>2338.845</ele>
        <time>2021-08-06T09:26:34Z</time>
      </trkpt>
      <trkpt lat="42.62141" lon="1.72693">
        <ele>2338.116</ele>
        <time>2021-08-06T09:26:36Z</time>
      </trkpt>
      <trkpt lat="42.62144" lon="1.72693">
        <ele>2337.437</ele>
        <time>2021-08-06T09:26:38Z</time>
      </trkpt>
      <trkpt lat="42.62145" lon="1.72694">
        <ele>2336.84</ele>
        <time>2021-08-06T09:26:40Z</time>
      </trkpt>
      <trkpt lat="42.62147" lon="1.72695">
        <ele>2336.194</ele>
        <time>2021-08-06T09:26:42Z</time>
      </trkpt>
      <trkpt lat="42.62147" lon="1.72697">
        <ele>2334.861</ele>
        <time>2021-08-06T09:26:44Z</time>
      </trkpt>
      <trkpt lat="42.62148" lon="1.727">
        <ele>2334.775</ele>
        <time>2021-08-06T09:26:46Z</time>
      </trkpt>
      <trkpt lat="42.6215" lon="1.72702">
        <ele>2335.155</ele>
        <time>2021-08-06T09:26:48Z</time>
      </trkpt>
      <trkpt lat="42.62151" lon="1.72704">
        <ele>2334.481</ele>
        <time>2021-08-06T09:26:50Z</time>
      </trkpt>
      <trkpt lat="42.62151" lon="1.72707">
        <ele>2334.426</ele>
        <time>2021-08-06T09:26:52Z</time>
      </trkpt>
      <trkpt lat="42.62152" lon="1.72708">
        <ele>2334.23</ele>
        <time>2021-08-06T09:26:54Z</time>
      </trkpt>
      <trkpt lat="42.62153" lon="1.7271">
        <ele>2334.445</ele>
        <time>2021-08-06T09:26:56Z</time>
      </trkpt>
      <trkpt lat="42.62153" lon="1.72711">
        <ele>2334.023</ele>
        <time>2021-08-06T09:26:58Z</time>
      </trkpt>
      <trkpt lat="42.62154" lon="1.72713">
        <ele>2333.976</ele>
        <time>2021-08-06T09:27:00Z</time>
      </trkpt>
      <trkpt lat="42.62154" lon="1.72714">
        <ele>2333.437</ele>
        <time>2021-08-06T09:27:02Z</time>
      </trkpt>
      <trkpt lat="42.62153" lon="1.72716">
        <ele>2333.272</ele>
        <time>2021-08-06T09:27:04Z</time>
      </trkpt>
      <trkpt lat="42.62154" lon="1.72719">
        <ele>2332.195</ele>
        <time>2021-08-06T09:27:06Z</time>
      </trkpt>
      <trkpt lat="42.62155" lon="1.72721">
        <ele>2331.653</ele>
        <time>2021-08-06T09:27:08Z</time>
      </trkpt>
      <trkpt lat="42.62155" lon="1.72724">
        <ele>2331.928</ele>
        <time>2021-08-06T09:27:10Z</time>
      </trkpt>
      <trkpt lat="42.62155" lon="1.72726">
        <ele>2331.53</ele>
        <time>2021-08-06T09:27:12Z</time>
      </trkpt>
      <trkpt lat="42.62156" lon="1.72728">
        <ele>2331.593</ele>
        <time>2021-08-06T09:27:14Z</time>
      </trkpt>
      <trkpt lat="42.62157" lon="1.7273">
        <ele>2331.079</ele>
        <time>2021-08-06T09:27:16Z</time>
      </trkpt>
      <trkpt lat="42.62156" lon="1.72732">
        <ele>2330.392</ele>
        <time>2021-08-06T09:27:18Z</time>
      </trkpt>
      <trkpt lat="42.62156" lon="1.72735">
        <ele>2330.233</ele>
        <time>2021-08-06T09:27:20Z</time>
      </trkpt>
      <trkpt lat="42.62155" lon="1.72737">
        <ele>2331.198</ele>
        <time>2021-08-06T09:27:22Z</time>
      </trkpt>
      <trkpt lat="42.62155" lon="1.72739">
        <ele>2330.924</ele>
        <time>2021-08-06T09:27:24Z</time>
      </trkpt>
      <trkpt lat="42.62156" lon="1.72741">
        <ele>2330.866</ele>
        <time>2021-08-06T09:27:26Z</time>
      </trkpt>
      <trkpt lat="42.62156" lon="1.72743">
        <ele>2330.331</ele>
        <time>2021-08-06T09:27:28Z</time>
      </trkpt>
      <trkpt lat="42.62156" lon="1.72746">
        <ele>2329.651</ele>
        <time>2021-08-06T09:27:30Z</time>
      </trkpt>
      <trkpt lat="42.62157" lon="1.72748">
        <ele>2330.246</ele>
        <time>2021-08-06T09:27:32Z</time>
      </trkpt>
      <trkpt lat="42.62157" lon="1.7275">
        <ele>2330.751</ele>
        <time>2021-08-06T09:27:34Z</time>
      </trkpt>
      <trkpt lat="42.62158" lon="1.72753">
        <ele>2331.598</ele>
        <time>2021-08-06T09:27:36Z</time>
      </trkpt>
      <trkpt lat="42.62157" lon="1.72755">
        <ele>2331.595</ele>
        <time>2021-08-06T09:27:38Z</time>
      </trkpt>
      <trkpt lat="42.62156" lon="1.72758">
        <ele>2332.047</ele>
        <time>2021-08-06T09:27:40Z</time>
      </trkpt>
      <trkpt lat="42.62157" lon="1.7276">
        <ele>2332.108</ele>
        <time>2021-08-06T09:27:42Z</time>
      </trkpt>
      <trkpt lat="42.62158" lon="1.72761">
        <ele>2332.027</ele>
        <time>2021-08-06T09:27:44Z</time>
      </trkpt>
      <trkpt lat="42.6216" lon="1.72763">
        <ele>2332.095</ele>
        <time>2021-08-06T09:27:46Z</time>
      </trkpt>
      <trkpt lat="42.62161" lon="1.72762">
        <ele>2332.453</ele>
        <time>2021-08-06T09:27:48Z</time>
      </trkpt>
      <trkpt lat="42.62167" lon="1.72763">
        <ele>2332.022</ele>
        <time>2021-08-06T09:27:55Z</time>
      </trkpt>
      <trkpt lat="42.62168" lon="1.72764">
        <ele>2333.348</ele>
        <time>2021-08-06T09:27:57Z</time>
      </trkpt>
      <trkpt lat="42.6217" lon="1.72764">
        <ele>2333.887</ele>
        <time>2021-08-06T09:27:59Z</time>
      </trkpt>
      <trkpt lat="42.62171" lon="1.72764">
        <ele>2335.122</ele>
        <time>2021-08-06T09:28:01Z</time>
      </trkpt>
      <trkpt lat="42.62173" lon="1.72764">
        <ele>2335.752</ele>
        <time>2021-08-06T09:28:03Z</time>
      </trkpt>
      <trkpt lat="42.62174" lon="1.72765">
        <ele>2336.518</ele>
        <time>2021-08-06T09:28:05Z</time>
      </trkpt>
      <trkpt lat="42.62175" lon="1.72764">
        <ele>2337.996</ele>
        <time>2021-08-06T09:28:07Z</time>
      </trkpt>
      <trkpt lat="42.62176" lon="1.72764">
        <ele>2337.685</ele>
        <time>2021-08-06T09:28:09Z</time>
      </trkpt>
      <trkpt lat="42.62178" lon="1.72764">
        <ele>2338.03</ele>
        <time>2021-08-06T09:28:11Z</time>
      </trkpt>
      <trkpt lat="42.62179" lon="1.72765">
        <ele>2338.497</ele>
        <time>2021-08-06T09:28:13Z</time>
      </trkpt>
      <trkpt lat="42.6218" lon="1.72766">
        <ele>2338.99</ele>
        <time>2021-08-06T09:28:15Z</time>
      </trkpt>
      <trkpt lat="42.62181" lon="1.72768">
        <ele>2338.618</ele>
        <time>2021-08-06T09:28:17Z</time>
      </trkpt>
      <trkpt lat="42.62181" lon="1.7277">
        <ele>2338.67</ele>
        <time>2021-08-06T09:28:19Z</time>
      </trkpt>
      <trkpt lat="42.62181" lon="1.72771">
        <ele>2339.957</ele>
        <time>2021-08-06T09:28:21Z</time>
      </trkpt>
      <trkpt lat="42.6218" lon="1.72773">
        <ele>2339.785</ele>
        <time>2021-08-06T09:28:23Z</time>
      </trkpt>
      <trkpt lat="42.6218" lon="1.72774">
        <ele>2340.31</ele>
        <time>2021-08-06T09:28:25Z</time>
      </trkpt>
      <trkpt lat="42.6218" lon="1.72776">
        <ele>2339.978</ele>
        <time>2021-08-06T09:28:27Z</time>
      </trkpt>
      <trkpt lat="42.62181" lon="1.72778">
        <ele>2339.434</ele>
        <time>2021-08-06T09:28:29Z</time>
      </trkpt>
      <trkpt lat="42.62182" lon="1.72779">
        <ele>2339.149</ele>
        <time>2021-08-06T09:28:31Z</time>
      </trkpt>
      <trkpt lat="42.62182" lon="1.72781">
        <ele>2338.156</ele>
        <time>2021-08-06T09:28:33Z</time>
      </trkpt>
      <trkpt lat="42.62183" lon="1.72782">
        <ele>2337.547</ele>
        <time>2021-08-06T09:28:35Z</time>
      </trkpt>
      <trkpt lat="42.62185" lon="1.72784">
        <ele>2337.528</ele>
        <time>2021-08-06T09:28:37Z</time>
      </trkpt>
      <trkpt lat="42.62186" lon="1.72786">
        <ele>2337.691</ele>
        <time>2021-08-06T09:28:39Z</time>
      </trkpt>
      <trkpt lat="42.62187" lon="1.72788">
        <ele>2337.348</ele>
        <time>2021-08-06T09:28:41Z</time>
      </trkpt>
      <trkpt lat="42.62189" lon="1.72789">
        <ele>2337.592</ele>
        <time>2021-08-06T09:28:43Z</time>
      </trkpt>
      <trkpt lat="42.6219" lon="1.72792">
        <ele>2338.815</ele>
        <time>2021-08-06T09:28:45Z</time>
      </trkpt>
      <trkpt lat="42.62191" lon="1.72795">
        <ele>2340.71</ele>
        <time>2021-08-06T09:28:47Z</time>
      </trkpt>
      <trkpt lat="42.62193" lon="1.72797">
        <ele>2342.256</ele>
        <time>2021-08-06T09:28:49Z</time>
      </trkpt>
      <trkpt lat="42.62194" lon="1.728">
        <ele>2342.725</ele>
        <time>2021-08-06T09:28:51Z</time>
      </trkpt>
      <trkpt lat="42.62195" lon="1.72803">
        <ele>2344.572</ele>
        <time>2021-08-06T09:28:53Z</time>
      </trkpt>
      <trkpt lat="42.62195" lon="1.72806">
        <ele>2345.636</ele>
        <time>2021-08-06T09:28:55Z</time>
      </trkpt>
      <trkpt lat="42.62196" lon="1.72809">
        <ele>2345.431</ele>
        <time>2021-08-06T09:28:57Z</time>
      </trkpt>
      <trkpt lat="42.62197" lon="1.72811">
        <ele>2344.551</ele>
        <time>2021-08-06T09:28:59Z</time>
      </trkpt>
      <trkpt lat="42.62197" lon="1.72813">
        <ele>2344.339</ele>
        <time>2021-08-06T09:29:01Z</time>
      </trkpt>
      <trkpt lat="42.62197" lon="1.72814">
        <ele>2343.427</ele>
        <time>2021-08-06T09:29:03Z</time>
      </trkpt>
      <trkpt lat="42.62196" lon="1.72816">
        <ele>2343.264</ele>
        <time>2021-08-06T09:29:05Z</time>
      </trkpt>
      <trkpt lat="42.62195" lon="1.72817">
        <ele>2343.016</ele>
        <time>2021-08-06T09:29:07Z</time>
      </trkpt>
      <trkpt lat="42.62193" lon="1.72817">
        <ele>2342.212</ele>
        <time>2021-08-06T09:29:09Z</time>
      </trkpt>
      <trkpt lat="42.62192" lon="1.72818">
        <ele>2341.184</ele>
        <time>2021-08-06T09:29:11Z</time>
      </trkpt>
      <trkpt lat="42.6219" lon="1.72819">
        <ele>2341.659</ele>
        <time>2021-08-06T09:29:13Z</time>
      </trkpt>
      <trkpt lat="42.62188" lon="1.72819">
        <ele>2341.757</ele>
        <time>2021-08-06T09:29:15Z</time>
      </trkpt>
      <trkpt lat="42.62186" lon="1.72819">
        <ele>2342.6</ele>
        <time>2021-08-06T09:29:17Z</time>
      </trkpt>
      <trkpt lat="42.62185" lon="1.7282">
        <ele>2343.098</ele>
        <time>2021-08-06T09:29:19Z</time>
      </trkpt>
      <trkpt lat="42.62183" lon="1.72821">
        <ele>2343.253</ele>
        <time>2021-08-06T09:29:21Z</time>
      </trkpt>
      <trkpt lat="42.62181" lon="1.72822">
        <ele>2343.155</ele>
        <time>2021-08-06T09:29:23Z</time>
      </trkpt>
      <trkpt lat="42.6218" lon="1.72824">
        <ele>2343.591</ele>
        <time>2021-08-06T09:29:25Z</time>
      </trkpt>
      <trkpt lat="42.62179" lon="1.72826">
        <ele>2343.893</ele>
        <time>2021-08-06T09:29:27Z</time>
      </trkpt>
      <trkpt lat="42.62177" lon="1.72828">
        <ele>2343.651</ele>
        <time>2021-08-06T09:29:29Z</time>
      </trkpt>
      <trkpt lat="42.62176" lon="1.72832">
        <ele>2343.063</ele>
        <time>2021-08-06T09:29:31Z</time>
      </trkpt>
      <trkpt lat="42.62175" lon="1.72834">
        <ele>2344.295</ele>
        <time>2021-08-06T09:29:33Z</time>
      </trkpt>
      <trkpt lat="42.62175" lon="1.72836">
        <ele>2344.112</ele>
        <time>2021-08-06T09:29:35Z</time>
      </trkpt>
      <trkpt lat="42.62173" lon="1.72838">
        <ele>2344.49</ele>
        <time>2021-08-06T09:29:37Z</time>
      </trkpt>
      <trkpt lat="42.62172" lon="1.72841">
        <ele>2344.652</ele>
        <time>2021-08-06T09:29:39Z</time>
      </trkpt>
      <trkpt lat="42.62172" lon="1.72844">
        <ele>2344.399</ele>
        <time>2021-08-06T09:29:41Z</time>
      </trkpt>
      <trkpt lat="42.62171" lon="1.72848">
        <ele>2344.704</ele>
        <time>2021-08-06T09:29:43Z</time>
      </trkpt>
      <trkpt lat="42.62171" lon="1.72852">
        <ele>2345.199</ele>
        <time>2021-08-06T09:29:45Z</time>
      </trkpt>
      <trkpt lat="42.62172" lon="1.72854">
        <ele>2345.94</ele>
        <time>2021-08-06T09:29:47Z</time>
      </trkpt>
      <trkpt lat="42.62173" lon="1.72856">
        <ele>2346.076</ele>
        <time>2021-08-06T09:29:49Z</time>
      </trkpt>
      <trkpt lat="42.62174" lon="1.72857">
        <ele>2345.763</ele>
        <time>2021-08-06T09:29:51Z</time>
      </trkpt>
      <trkpt lat="42.62175" lon="1.7286">
        <ele>2346.976</ele>
        <time>2021-08-06T09:29:53Z</time>
      </trkpt>
      <trkpt lat="42.62176" lon="1.72862">
        <ele>2348.051</ele>
        <time>2021-08-06T09:29:55Z</time>
      </trkpt>
      <trkpt lat="42.62176" lon="1.72864">
        <ele>2347.458</ele>
        <time>2021-08-06T09:29:57Z</time>
      </trkpt>
      <trkpt lat="42.62176" lon="1.72867">
        <ele>2347.75</ele>
        <time>2021-08-06T09:29:59Z</time>
      </trkpt>
      <trkpt lat="42.62176" lon="1.72869">
        <ele>2349.137</ele>
        <time>2021-08-06T09:30:01Z</time>
      </trkpt>
      <trkpt lat="42.62176" lon="1.72871">
        <ele>2349.398</ele>
        <time>2021-08-06T09:30:03Z</time>
      </trkpt>
      <trkpt lat="42.62176" lon="1.72873">
        <ele>2349.266</ele>
        <time>2021-08-06T09:30:05Z</time>
      </trkpt>
      <trkpt lat="42.62175" lon="1.72874">
        <ele>2346.736</ele>
        <time>2021-08-06T09:30:07Z</time>
      </trkpt>
      <trkpt lat="42.62173" lon="1.72875">
        <ele>2344.811</ele>
        <time>2021-08-06T09:30:09Z</time>
      </trkpt>
      <trkpt lat="42.62172" lon="1.72875">
        <ele>2344.495</ele>
        <time>2021-08-06T09:30:11Z</time>
      </trkpt>
      <trkpt lat="42.62172" lon="1.72876">
        <ele>2344.454</ele>
        <time>2021-08-06T09:30:13Z</time>
      </trkpt>
      <trkpt lat="42.6217" lon="1.72876">
        <ele>2343.747</ele>
        <time>2021-08-06T09:30:15Z</time>
      </trkpt>
      <trkpt lat="42.62168" lon="1.72875">
        <ele>2343.264</ele>
        <time>2021-08-06T09:30:17Z</time>
      </trkpt>
      <trkpt lat="42.62166" lon="1.72875">
        <ele>2342.216</ele>
        <time>2021-08-06T09:30:19Z</time>
      </trkpt>
      <trkpt lat="42.62165" lon="1.72876">
        <ele>2341.944</ele>
        <time>2021-08-06T09:30:21Z</time>
      </trkpt>
      <trkpt lat="42.62164" lon="1.72878">
        <ele>2343.341</ele>
        <time>2021-08-06T09:30:23Z</time>
      </trkpt>
      <trkpt lat="42.62163" lon="1.7288">
        <ele>2344.598</ele>
        <time>2021-08-06T09:30:25Z</time>
      </trkpt>
      <trkpt lat="42.62161" lon="1.72882">
        <ele>2343.35</ele>
        <time>2021-08-06T09:30:27Z</time>
      </trkpt>
      <trkpt lat="42.6216" lon="1.72884">
        <ele>2344.066</ele>
        <time>2021-08-06T09:30:29Z</time>
      </trkpt>
      <trkpt lat="42.62159" lon="1.72886">
        <ele>2344.023</ele>
        <time>2021-08-06T09:30:31Z</time>
      </trkpt>
      <trkpt lat="42.62159" lon="1.72889">
        <ele>2344.527</ele>
        <time>2021-08-06T09:30:33Z</time>
      </trkpt>
      <trkpt lat="42.62159" lon="1.72891">
        <ele>2344.707</ele>
        <time>2021-08-06T09:30:35Z</time>
      </trkpt>
      <trkpt lat="42.62159" lon="1.72894">
        <ele>2345.672</ele>
        <time>2021-08-06T09:30:37Z</time>
      </trkpt>
      <trkpt lat="42.62159" lon="1.72896">
        <ele>2346.45</ele>
        <time>2021-08-06T09:30:39Z</time>
      </trkpt>
      <trkpt lat="42.62159" lon="1.72898">
        <ele>2346.374</ele>
        <time>2021-08-06T09:30:41Z</time>
      </trkpt>
      <trkpt lat="42.62159" lon="1.729">
        <ele>2347.073</ele>
        <time>2021-08-06T09:30:43Z</time>
      </trkpt>
      <trkpt lat="42.62159" lon="1.72902">
        <ele>2347.037</ele>
        <time>2021-08-06T09:30:45Z</time>
      </trkpt>
      <trkpt lat="42.62159" lon="1.72904">
        <ele>2347.414</ele>
        <time>2021-08-06T09:30:47Z</time>
      </trkpt>
      <trkpt lat="42.62158" lon="1.72905">
        <ele>2347.782</ele>
        <time>2021-08-06T09:30:49Z</time>
      </trkpt>
      <trkpt lat="42.62158" lon="1.72907">
        <ele>2348.209</ele>
        <time>2021-08-06T09:30:51Z</time>
      </trkpt>
      <trkpt lat="42.62158" lon="1.72909">
        <ele>2348.391</ele>
        <time>2021-08-06T09:30:53Z</time>
      </trkpt>
      <trkpt lat="42.62158" lon="1.72911">
        <ele>2348.878</ele>
        <time>2021-08-06T09:30:55Z</time>
      </trkpt>
      <trkpt lat="42.62157" lon="1.72911">
        <ele>2348.569</ele>
        <time>2021-08-06T09:30:57Z</time>
      </trkpt>
      <trkpt lat="42.62156" lon="1.72913">
        <ele>2349.298</ele>
        <time>2021-08-06T09:30:59Z</time>
      </trkpt>
      <trkpt lat="42.62156" lon="1.72914">
        <ele>2350.308</ele>
        <time>2021-08-06T09:31:01Z</time>
      </trkpt>
      <trkpt lat="42.62156" lon="1.72915">
        <ele>2349.41</ele>
        <time>2021-08-06T09:31:03Z</time>
      </trkpt>
      <trkpt lat="42.62156" lon="1.72917">
        <ele>2349.895</ele>
        <time>2021-08-06T09:31:05Z</time>
      </trkpt>
      <trkpt lat="42.62157" lon="1.72918">
        <ele>2350.278</ele>
        <time>2021-08-06T09:31:07Z</time>
      </trkpt>
      <trkpt lat="42.62157" lon="1.72919">
        <ele>2350.645</ele>
        <time>2021-08-06T09:31:09Z</time>
      </trkpt>
      <trkpt lat="42.62157" lon="1.7292">
        <ele>2350.947</ele>
        <time>2021-08-06T09:31:11Z</time>
      </trkpt>
      <trkpt lat="42.62156" lon="1.72921">
        <ele>2351.414</ele>
        <time>2021-08-06T09:31:13Z</time>
      </trkpt>
      <trkpt lat="42.62155" lon="1.72922">
        <ele>2351.722</ele>
        <time>2021-08-06T09:31:15Z</time>
      </trkpt>
      <trkpt lat="42.62155" lon="1.72923">
        <ele>2352.519</ele>
        <time>2021-08-06T09:31:17Z</time>
      </trkpt>
      <trkpt lat="42.62154" lon="1.72924">
        <ele>2352.734</ele>
        <time>2021-08-06T09:31:19Z</time>
      </trkpt>
      <trkpt lat="42.62154" lon="1.72925">
        <ele>2353.231</ele>
        <time>2021-08-06T09:31:21Z</time>
      </trkpt>
      <trkpt lat="42.62153" lon="1.72925">
        <ele>2352.998</ele>
        <time>2021-08-06T09:31:23Z</time>
      </trkpt>
      <trkpt lat="42.62153" lon="1.72927">
        <ele>2353.393</ele>
        <time>2021-08-06T09:31:25Z</time>
      </trkpt>
      <trkpt lat="42.62153" lon="1.72929">
        <ele>2354.11</ele>
        <time>2021-08-06T09:31:27Z</time>
      </trkpt>
      <trkpt lat="42.62153" lon="1.72931">
        <ele>2353.794</ele>
        <time>2021-08-06T09:31:29Z</time>
      </trkpt>
      <trkpt lat="42.62153" lon="1.72932">
        <ele>2354.016</ele>
        <time>2021-08-06T09:31:31Z</time>
      </trkpt>
      <trkpt lat="42.62153" lon="1.72934">
        <ele>2354.063</ele>
        <time>2021-08-06T09:31:33Z</time>
      </trkpt>
      <trkpt lat="42.62152" lon="1.72936">
        <ele>2353.931</ele>
        <time>2021-08-06T09:31:35Z</time>
      </trkpt>
      <trkpt lat="42.62152" lon="1.72937">
        <ele>2354.651</ele>
        <time>2021-08-06T09:31:37Z</time>
      </trkpt>
      <trkpt lat="42.62152" lon="1.72939">
        <ele>2354.567</ele>
        <time>2021-08-06T09:31:39Z</time>
      </trkpt>
      <trkpt lat="42.62151" lon="1.72941">
        <ele>2355</ele>
        <time>2021-08-06T09:31:41Z</time>
      </trkpt>
      <trkpt lat="42.6215" lon="1.72943">
        <ele>2355.223</ele>
        <time>2021-08-06T09:31:43Z</time>
      </trkpt>
      <trkpt lat="42.62149" lon="1.72943">
        <ele>2355.799</ele>
        <time>2021-08-06T09:31:45Z</time>
      </trkpt>
      <trkpt lat="42.62149" lon="1.72943">
        <ele>2355.807</ele>
        <time>2021-08-06T09:31:47Z</time>
      </trkpt>
      <trkpt lat="42.62148" lon="1.72944">
        <ele>2356.18</ele>
        <time>2021-08-06T09:31:49Z</time>
      </trkpt>
      <trkpt lat="42.62148" lon="1.72946">
        <ele>2356.885</ele>
        <time>2021-08-06T09:31:51Z</time>
      </trkpt>
      <trkpt lat="42.62148" lon="1.72948">
        <ele>2356.098</ele>
        <time>2021-08-06T09:31:53Z</time>
      </trkpt>
      <trkpt lat="42.62148" lon="1.72951">
        <ele>2356.205</ele>
        <time>2021-08-06T09:31:55Z</time>
      </trkpt>
      <trkpt lat="42.62148" lon="1.72953">
        <ele>2355.528</ele>
        <time>2021-08-06T09:31:57Z</time>
      </trkpt>
      <trkpt lat="42.62148" lon="1.72956">
        <ele>2355.291</ele>
        <time>2021-08-06T09:31:59Z</time>
      </trkpt>
      <trkpt lat="42.62147" lon="1.72959">
        <ele>2354.733</ele>
        <time>2021-08-06T09:32:01Z</time>
      </trkpt>
      <trkpt lat="42.62145" lon="1.72961">
        <ele>2354.078</ele>
        <time>2021-08-06T09:32:03Z</time>
      </trkpt>
      <trkpt lat="42.62144" lon="1.72963">
        <ele>2353.801</ele>
        <time>2021-08-06T09:32:05Z</time>
      </trkpt>
      <trkpt lat="42.62143" lon="1.72966">
        <ele>2353.302</ele>
        <time>2021-08-06T09:32:07Z</time>
      </trkpt>
      <trkpt lat="42.62142" lon="1.72967">
        <ele>2352.691</ele>
        <time>2021-08-06T09:32:09Z</time>
      </trkpt>
      <trkpt lat="42.6214" lon="1.72969">
        <ele>2353.074</ele>
        <time>2021-08-06T09:32:11Z</time>
      </trkpt>
      <trkpt lat="42.62139" lon="1.72971">
        <ele>2351.94</ele>
        <time>2021-08-06T09:32:13Z</time>
      </trkpt>
      <trkpt lat="42.62139" lon="1.72973">
        <ele>2351.41</ele>
        <time>2021-08-06T09:32:15Z</time>
      </trkpt>
      <trkpt lat="42.62138" lon="1.72975">
        <ele>2351.542</ele>
        <time>2021-08-06T09:32:17Z</time>
      </trkpt>
      <trkpt lat="42.62138" lon="1.72977">
        <ele>2351.011</ele>
        <time>2021-08-06T09:32:19Z</time>
      </trkpt>
      <trkpt lat="42.62136" lon="1.7298">
        <ele>2350.742</ele>
        <time>2021-08-06T09:32:21Z</time>
      </trkpt>
      <trkpt lat="42.62134" lon="1.72982">
        <ele>2350.147</ele>
        <time>2021-08-06T09:32:23Z</time>
      </trkpt>
      <trkpt lat="42.62133" lon="1.72984">
        <ele>2349.24</ele>
        <time>2021-08-06T09:32:25Z</time>
      </trkpt>
      <trkpt lat="42.62132" lon="1.72987">
        <ele>2349.032</ele>
        <time>2021-08-06T09:32:27Z</time>
      </trkpt>
      <trkpt lat="42.62132" lon="1.7299">
        <ele>2349.792</ele>
        <time>2021-08-06T09:32:29Z</time>
      </trkpt>
      <trkpt lat="42.62133" lon="1.72993">
        <ele>2350.205</ele>
        <time>2021-08-06T09:32:31Z</time>
      </trkpt>
      <trkpt lat="42.62133" lon="1.72994">
        <ele>2349.356</ele>
        <time>2021-08-06T09:32:33Z</time>
      </trkpt>
      <trkpt lat="42.62133" lon="1.72997">
        <ele>2350.091</ele>
        <time>2021-08-06T09:32:35Z</time>
      </trkpt>
      <trkpt lat="42.62132" lon="1.72999">
        <ele>2350.085</ele>
        <time>2021-08-06T09:32:37Z</time>
      </trkpt>
      <trkpt lat="42.62132" lon="1.73001">
        <ele>2349.586</ele>
        <time>2021-08-06T09:32:39Z</time>
      </trkpt>
      <trkpt lat="42.62131" lon="1.73002">
        <ele>2350.523</ele>
        <time>2021-08-06T09:32:41Z</time>
      </trkpt>
      <trkpt lat="42.6213" lon="1.73002">
        <ele>2348.985</ele>
        <time>2021-08-06T09:32:43Z</time>
      </trkpt>
      <trkpt lat="42.62129" lon="1.73004">
        <ele>2346.303</ele>
        <time>2021-08-06T09:32:45Z</time>
      </trkpt>
      <trkpt lat="42.62128" lon="1.73004">
        <ele>2345.234</ele>
        <time>2021-08-06T09:32:47Z</time>
      </trkpt>
      <trkpt lat="42.62127" lon="1.73005">
        <ele>2345.247</ele>
        <time>2021-08-06T09:32:49Z</time>
      </trkpt>
      <trkpt lat="42.62126" lon="1.73005">
        <ele>2345.496</ele>
        <time>2021-08-06T09:32:51Z</time>
      </trkpt>
      <trkpt lat="42.62126" lon="1.73007">
        <ele>2345.843</ele>
        <time>2021-08-06T09:32:53Z</time>
      </trkpt>
      <trkpt lat="42.62124" lon="1.73008">
        <ele>2345.74</ele>
        <time>2021-08-06T09:32:55Z</time>
      </trkpt>
      <trkpt lat="42.62124" lon="1.73008">
        <ele>2345.789</ele>
        <time>2021-08-06T09:32:57Z</time>
      </trkpt>
      <trkpt lat="42.62123" lon="1.73009">
        <ele>2344.5</ele>
        <time>2021-08-06T09:32:59Z</time>
      </trkpt>
      <trkpt lat="42.62122" lon="1.7301">
        <ele>2345.296</ele>
        <time>2021-08-06T09:33:01Z</time>
      </trkpt>
      <trkpt lat="42.62122" lon="1.73011">
        <ele>2345.882</ele>
        <time>2021-08-06T09:33:03Z</time>
      </trkpt>
      <trkpt lat="42.62121" lon="1.73013">
        <ele>2346.935</ele>
        <time>2021-08-06T09:33:05Z</time>
      </trkpt>
      <trkpt lat="42.62121" lon="1.73016">
        <ele>2347.508</ele>
        <time>2021-08-06T09:33:07Z</time>
      </trkpt>
      <trkpt lat="42.62122" lon="1.73018">
        <ele>2346.698</ele>
        <time>2021-08-06T09:33:09Z</time>
      </trkpt>
      <trkpt lat="42.62121" lon="1.7302">
        <ele>2346.197</ele>
        <time>2021-08-06T09:33:11Z</time>
      </trkpt>
      <trkpt lat="42.62121" lon="1.73022">
        <ele>2345.208</ele>
        <time>2021-08-06T09:33:13Z</time>
      </trkpt>
      <trkpt lat="42.6212" lon="1.73023">
        <ele>2344.729</ele>
        <time>2021-08-06T09:33:15Z</time>
      </trkpt>
      <trkpt lat="42.62118" lon="1.73024">
        <ele>2345.845</ele>
        <time>2021-08-06T09:33:17Z</time>
      </trkpt>
      <trkpt lat="42.62117" lon="1.73026">
        <ele>2347.119</ele>
        <time>2021-08-06T09:33:19Z</time>
      </trkpt>
      <trkpt lat="42.62116" lon="1.73027">
        <ele>2347.218</ele>
        <time>2021-08-06T09:33:21Z</time>
      </trkpt>
      <trkpt lat="42.62115" lon="1.73028">
        <ele>2346.648</ele>
        <time>2021-08-06T09:33:23Z</time>
      </trkpt>
      <trkpt lat="42.62114" lon="1.73029">
        <ele>2346.999</ele>
        <time>2021-08-06T09:33:25Z</time>
      </trkpt>
      <trkpt lat="42.62113" lon="1.7303">
        <ele>2347.62</ele>
        <time>2021-08-06T09:33:27Z</time>
      </trkpt>
      <trkpt lat="42.62113" lon="1.7303">
        <ele>2347.872</ele>
        <time>2021-08-06T09:33:29Z</time>
      </trkpt>
      <trkpt lat="42.62113" lon="1.73031">
        <ele>2348.499</ele>
        <time>2021-08-06T09:33:31Z</time>
      </trkpt>
      <trkpt lat="42.62113" lon="1.73031">
        <ele>2348.832</ele>
        <time>2021-08-06T09:33:33Z</time>
      </trkpt>
      <trkpt lat="42.62113" lon="1.73031">
        <ele>2348.401</ele>
        <time>2021-08-06T09:33:35Z</time>
      </trkpt>
      <trkpt lat="42.62112" lon="1.73031">
        <ele>2348.462</ele>
        <time>2021-08-06T09:33:37Z</time>
      </trkpt>
      <trkpt lat="42.62112" lon="1.73031">
        <ele>2348.431</ele>
        <time>2021-08-06T09:33:39Z</time>
      </trkpt>
      <trkpt lat="42.62111" lon="1.73031">
        <ele>2348.461</ele>
        <time>2021-08-06T09:33:41Z</time>
      </trkpt>
      <trkpt lat="42.62111" lon="1.73034">
        <ele>2348.606</ele>
        <time>2021-08-06T09:33:43Z</time>
      </trkpt>
      <trkpt lat="42.6211" lon="1.73035">
        <ele>2349.053</ele>
        <time>2021-08-06T09:33:45Z</time>
      </trkpt>
      <trkpt lat="42.6211" lon="1.73035">
        <ele>2349.609</ele>
        <time>2021-08-06T09:33:47Z</time>
      </trkpt>
      <trkpt lat="42.6211" lon="1.73035">
        <ele>2349.459</ele>
        <time>2021-08-06T09:33:49Z</time>
      </trkpt>
      <trkpt lat="42.62109" lon="1.73035">
        <ele>2349.355</ele>
        <time>2021-08-06T09:33:51Z</time>
      </trkpt>
      <trkpt lat="42.62108" lon="1.73036">
        <ele>2348.876</ele>
        <time>2021-08-06T09:33:53Z</time>
      </trkpt>
      <trkpt lat="42.62107" lon="1.73037">
        <ele>2348.389</ele>
        <time>2021-08-06T09:33:55Z</time>
      </trkpt>
      <trkpt lat="42.62105" lon="1.73037">
        <ele>2348.206</ele>
        <time>2021-08-06T09:33:57Z</time>
      </trkpt>
      <trkpt lat="42.62104" lon="1.73038">
        <ele>2348.114</ele>
        <time>2021-08-06T09:33:59Z</time>
      </trkpt>
      <trkpt lat="42.62102" lon="1.73039">
        <ele>2348.373</ele>
        <time>2021-08-06T09:34:01Z</time>
      </trkpt>
      <trkpt lat="42.621" lon="1.7304">
        <ele>2348.957</ele>
        <time>2021-08-06T09:34:03Z</time>
      </trkpt>
      <trkpt lat="42.62099" lon="1.73039">
        <ele>2348.96</ele>
        <time>2021-08-06T09:34:05Z</time>
      </trkpt>
      <trkpt lat="42.621" lon="1.73039">
        <ele>2348.962</ele>
        <time>2021-08-06T09:34:07Z</time>
      </trkpt>
      <trkpt lat="42.621" lon="1.73039">
        <ele>2348.962</ele>
        <time>2021-08-06T09:34:09Z</time>
      </trkpt>
      <trkpt lat="42.62099" lon="1.73039">
        <ele>2348.535</ele>
        <time>2021-08-06T09:34:11Z</time>
      </trkpt>
      <trkpt lat="42.62098" lon="1.73038">
        <ele>2348.878</ele>
        <time>2021-08-06T09:34:13Z</time>
      </trkpt>
      <trkpt lat="42.62098" lon="1.73038">
        <ele>2348.871</ele>
        <time>2021-08-06T09:34:15Z</time>
      </trkpt>
      <trkpt lat="42.62098" lon="1.73038">
        <ele>2348.763</ele>
        <time>2021-08-06T09:34:17Z</time>
      </trkpt>
      <trkpt lat="42.62098" lon="1.73034">
        <ele>2351.088</ele>
        <time>2021-08-06T09:34:19Z</time>
      </trkpt>
      <trkpt lat="42.62098" lon="1.73034">
        <ele>2351.086</ele>
        <time>2021-08-06T09:34:21Z</time>
      </trkpt>
      <trkpt lat="42.62099" lon="1.73034">
        <ele>2351.117</ele>
        <time>2021-08-06T09:34:23Z</time>
      </trkpt>
      <trkpt lat="42.62099" lon="1.73035">
        <ele>2351.124</ele>
        <time>2021-08-06T09:34:25Z</time>
      </trkpt>
      <trkpt lat="42.62099" lon="1.73035">
        <ele>2351.135</ele>
        <time>2021-08-06T09:34:27Z</time>
      </trkpt>
      <trkpt lat="42.62099" lon="1.73035">
        <ele>2351.14</ele>
        <time>2021-08-06T09:34:29Z</time>
      </trkpt>
      <trkpt lat="42.62099" lon="1.73035">
        <ele>2351.135</ele>
        <time>2021-08-06T09:34:31Z</time>
      </trkpt>
      <trkpt lat="42.62099" lon="1.73035">
        <ele>2351.112</ele>
        <time>2021-08-06T09:34:33Z</time>
      </trkpt>
      <trkpt lat="42.62099" lon="1.73035">
        <ele>2350.912</ele>
        <time>2021-08-06T09:34:35Z</time>
      </trkpt>
      <trkpt lat="42.62097" lon="1.73035">
        <ele>2350.837</ele>
        <time>2021-08-06T09:34:37Z</time>
      </trkpt>
      <trkpt lat="42.62096" lon="1.73035">
        <ele>2350.928</ele>
        <time>2021-08-06T09:34:39Z</time>
      </trkpt>
      <trkpt lat="42.62096" lon="1.73035">
        <ele>2350.915</ele>
        <time>2021-08-06T09:34:41Z</time>
      </trkpt>
      <trkpt lat="42.62096" lon="1.73036">
        <ele>2350.629</ele>
        <time>2021-08-06T09:34:43Z</time>
      </trkpt>
      <trkpt lat="42.62096" lon="1.73036">
        <ele>2350.626</ele>
        <time>2021-08-06T09:34:45Z</time>
      </trkpt>
      <trkpt lat="42.62096" lon="1.73036">
        <ele>2350.617</ele>
        <time>2021-08-06T09:34:47Z</time>
      </trkpt>
      <trkpt lat="42.62096" lon="1.73036">
        <ele>2350.615</ele>
        <time>2021-08-06T09:34:49Z</time>
      </trkpt>
      <trkpt lat="42.62096" lon="1.73036">
        <ele>2350.615</ele>
        <time>2021-08-06T09:34:51Z</time>
      </trkpt>
      <trkpt lat="42.62096" lon="1.73036">
        <ele>2350.617</ele>
        <time>2021-08-06T09:34:53Z</time>
      </trkpt>
      <trkpt lat="42.62096" lon="1.73036">
        <ele>2350.613</ele>
        <time>2021-08-06T09:34:55Z</time>
      </trkpt>
      <trkpt lat="42.62096" lon="1.73036">
        <ele>2350.618</ele>
        <time>2021-08-06T09:34:57Z</time>
      </trkpt>
      <trkpt lat="42.62096" lon="1.73036">
        <ele>2350.625</ele>
        <time>2021-08-06T09:34:59Z</time>
      </trkpt>
      <trkpt lat="42.62096" lon="1.73036">
        <ele>2350.625</ele>
        <time>2021-08-06T09:35:01Z</time>
      </trkpt>
      <trkpt lat="42.62096" lon="1.73036">
        <ele>2350.627</ele>
        <time>2021-08-06T09:35:03Z</time>
      </trkpt>
      <trkpt lat="42.62096" lon="1.73036">
        <ele>2350.637</ele>
        <time>2021-08-06T09:35:05Z</time>
      </trkpt>
      <trkpt lat="42.62096" lon="1.73036">
        <ele>2350.461</ele>
        <time>2021-08-06T09:35:07Z</time>
      </trkpt>
      <trkpt lat="42.62096" lon="1.73036">
        <ele>2350.449</ele>
        <time>2021-08-06T09:35:09Z</time>
      </trkpt>
      <trkpt lat="42.62096" lon="1.73036">
        <ele>2350.439</ele>
        <time>2021-08-06T09:35:11Z</time>
      </trkpt>
      <trkpt lat="42.62096" lon="1.73036">
        <ele>2350.438</ele>
        <time>2021-08-06T09:35:13Z</time>
      </trkpt>
      <trkpt lat="42.62096" lon="1.73036">
        <ele>2350.453</ele>
        <time>2021-08-06T09:35:15Z</time>
      </trkpt>
      <trkpt lat="42.62096" lon="1.73036">
        <ele>2350.467</ele>
        <time>2021-08-06T09:35:17Z</time>
      </trkpt>
      <trkpt lat="42.62096" lon="1.73036">
        <ele>2350.499</ele>
        <time>2021-08-06T09:35:19Z</time>
      </trkpt>
      <trkpt lat="42.62096" lon="1.73037">
        <ele>2350.253</ele>
        <time>2021-08-06T09:35:21Z</time>
      </trkpt>
      <trkpt lat="42.62096" lon="1.73037">
        <ele>2349.612</ele>
        <time>2021-08-06T09:35:23Z</time>
      </trkpt>
      <trkpt lat="42.62095" lon="1.73038">
        <ele>2349.625</ele>
        <time>2021-08-06T09:35:25Z</time>
      </trkpt>
      <trkpt lat="42.62094" lon="1.73038">
        <ele>2349.749</ele>
        <time>2021-08-06T09:35:27Z</time>
      </trkpt>
      <trkpt lat="42.62092" lon="1.73038">
        <ele>2350.128</ele>
        <time>2021-08-06T09:35:29Z</time>
      </trkpt>
      <trkpt lat="42.62091" lon="1.73039">
        <ele>2350.172</ele>
        <time>2021-08-06T09:35:31Z</time>
      </trkpt>
      <trkpt lat="42.62091" lon="1.73042">
        <ele>2350.748</ele>
        <time>2021-08-06T09:35:33Z</time>
      </trkpt>
      <trkpt lat="42.62091" lon="1.73042">
        <ele>2349.63</ele>
        <time>2021-08-06T09:35:35Z</time>
      </trkpt>
      <trkpt lat="42.6209" lon="1.73043">
        <ele>2349.845</ele>
        <time>2021-08-06T09:35:37Z</time>
      </trkpt>
      <trkpt lat="42.6209" lon="1.73043">
        <ele>2349.871</ele>
        <time>2021-08-06T09:35:39Z</time>
      </trkpt>
      <trkpt lat="42.6209" lon="1.73044">
        <ele>2349.784</ele>
        <time>2021-08-06T09:35:41Z</time>
      </trkpt>
      <trkpt lat="42.6209" lon="1.73044">
        <ele>2349.795</ele>
        <time>2021-08-06T09:35:43Z</time>
      </trkpt>
      <trkpt lat="42.6209" lon="1.73044">
        <ele>2349.616</ele>
        <time>2021-08-06T09:35:45Z</time>
      </trkpt>
      <trkpt lat="42.62088" lon="1.73045">
        <ele>2348.965</ele>
        <time>2021-08-06T09:35:47Z</time>
      </trkpt>
      <trkpt lat="42.62088" lon="1.73045">
        <ele>2348.964</ele>
        <time>2021-08-06T09:35:49Z</time>
      </trkpt>
      <trkpt lat="42.62088" lon="1.73045">
        <ele>2348.964</ele>
        <time>2021-08-06T09:35:51Z</time>
      </trkpt>
      <trkpt lat="42.62088" lon="1.73045">
        <ele>2348.964</ele>
        <time>2021-08-06T09:35:53Z</time>
      </trkpt>
      <trkpt lat="42.62088" lon="1.73045">
        <ele>2348.665</ele>
        <time>2021-08-06T09:35:55Z</time>
      </trkpt>
      <trkpt lat="42.62086" lon="1.73045">
        <ele>2348.043</ele>
        <time>2021-08-06T09:35:57Z</time>
      </trkpt>
      <trkpt lat="42.62086" lon="1.73046">
        <ele>2347.811</ele>
        <time>2021-08-06T09:35:59Z</time>
      </trkpt>
      <trkpt lat="42.62085" lon="1.73046">
        <ele>2347.734</ele>
        <time>2021-08-06T09:36:01Z</time>
      </trkpt>
      <trkpt lat="42.62083" lon="1.73046">
        <ele>2347.374</ele>
        <time>2021-08-06T09:36:03Z</time>
      </trkpt>
      <trkpt lat="42.62082" lon="1.73046">
        <ele>2346.471</ele>
        <time>2021-08-06T09:36:05Z</time>
      </trkpt>
      <trkpt lat="42.62082" lon="1.73045">
        <ele>2346.829</ele>
        <time>2021-08-06T09:36:07Z</time>
      </trkpt>
      <trkpt lat="42.62081" lon="1.73045">
        <ele>2347.026</ele>
        <time>2021-08-06T09:36:09Z</time>
      </trkpt>
      <trkpt lat="42.62081" lon="1.73044">
        <ele>2346.736</ele>
        <time>2021-08-06T09:36:11Z</time>
      </trkpt>
      <trkpt lat="42.62082" lon="1.73044">
        <ele>2347.001</ele>
        <time>2021-08-06T09:36:13Z</time>
      </trkpt>
      <trkpt lat="42.62081" lon="1.73042">
        <ele>2347.487</ele>
        <time>2021-08-06T09:36:15Z</time>
      </trkpt>
      <trkpt lat="42.62081" lon="1.73042">
        <ele>2347.429</ele>
        <time>2021-08-06T09:36:17Z</time>
      </trkpt>
      <trkpt lat="42.62082" lon="1.73041">
        <ele>2348.06</ele>
        <time>2021-08-06T09:36:19Z</time>
      </trkpt>
      <trkpt lat="42.62082" lon="1.73041">
        <ele>2348.057</ele>
        <time>2021-08-06T09:36:21Z</time>
      </trkpt>
      <trkpt lat="42.62082" lon="1.73041">
        <ele>2348.063</ele>
        <time>2021-08-06T09:36:23Z</time>
      </trkpt>
      <trkpt lat="42.62082" lon="1.73041">
        <ele>2348.067</ele>
        <time>2021-08-06T09:36:25Z</time>
      </trkpt>
      <trkpt lat="42.62082" lon="1.73041">
        <ele>2348.068</ele>
        <time>2021-08-06T09:36:27Z</time>
      </trkpt>
      <trkpt lat="42.62082" lon="1.73041">
        <ele>2348.068</ele>
        <time>2021-08-06T09:36:29Z</time>
      </trkpt>
      <trkpt lat="42.62082" lon="1.73041">
        <ele>2348.073</ele>
        <time>2021-08-06T09:36:31Z</time>
      </trkpt>
      <trkpt lat="42.62082" lon="1.73041">
        <ele>2348.071</ele>
        <time>2021-08-06T09:36:33Z</time>
      </trkpt>
      <trkpt lat="42.62082" lon="1.73041">
        <ele>2348.072</ele>
        <time>2021-08-06T09:36:36Z</time>
      </trkpt>
      <trkpt lat="42.62082" lon="1.73041">
        <ele>2348.281</ele>
        <time>2021-08-06T09:36:38Z</time>
      </trkpt>
      <trkpt lat="42.62081" lon="1.73041">
        <ele>2348.162</ele>
        <time>2021-08-06T09:36:40Z</time>
      </trkpt>
      <trkpt lat="42.62079" lon="1.73041">
        <ele>2347.471</ele>
        <time>2021-08-06T09:36:42Z</time>
      </trkpt>
      <trkpt lat="42.62078" lon="1.73043">
        <ele>2346.534</ele>
        <time>2021-08-06T09:36:44Z</time>
      </trkpt>
      <trkpt lat="42.62075" lon="1.73041">
        <ele>2346.538</ele>
        <time>2021-08-06T09:36:46Z</time>
      </trkpt>
      <trkpt lat="42.62075" lon="1.73041">
        <ele>2346.529</ele>
        <time>2021-08-06T09:36:48Z</time>
      </trkpt>
      <trkpt lat="42.62075" lon="1.7304">
        <ele>2346.54</ele>
        <time>2021-08-06T09:36:50Z</time>
      </trkpt>
      <trkpt lat="42.62075" lon="1.7304">
        <ele>2346.723</ele>
        <time>2021-08-06T09:36:52Z</time>
      </trkpt>
      <trkpt lat="42.62074" lon="1.73041">
        <ele>2346.868</ele>
        <time>2021-08-06T09:36:54Z</time>
      </trkpt>
      <trkpt lat="42.62074" lon="1.73041">
        <ele>2346.866</ele>
        <time>2021-08-06T09:36:56Z</time>
      </trkpt>
      <trkpt lat="42.62074" lon="1.73041">
        <ele>2346.866</ele>
        <time>2021-08-06T09:36:58Z</time>
      </trkpt>
      <trkpt lat="42.62074" lon="1.73041">
        <ele>2346.727</ele>
        <time>2021-08-06T09:37:00Z</time>
      </trkpt>
      <trkpt lat="42.62075" lon="1.73041">
        <ele>2346.838</ele>
        <time>2021-08-06T09:37:02Z</time>
      </trkpt>
      <trkpt lat="42.62075" lon="1.73041">
        <ele>2346.847</ele>
        <time>2021-08-06T09:37:04Z</time>
      </trkpt>
      <trkpt lat="42.62075" lon="1.73041">
        <ele>2346.856</ele>
        <time>2021-08-06T09:37:06Z</time>
      </trkpt>
      <trkpt lat="42.62075" lon="1.73041">
        <ele>2346.86</ele>
        <time>2021-08-06T09:37:08Z</time>
      </trkpt>
      <trkpt lat="42.62075" lon="1.73041">
        <ele>2346.864</ele>
        <time>2021-08-06T09:37:10Z</time>
      </trkpt>
      <trkpt lat="42.62075" lon="1.73041">
        <ele>2346.868</ele>
        <time>2021-08-06T09:37:12Z</time>
      </trkpt>
      <trkpt lat="42.62075" lon="1.73041">
        <ele>2346.881</ele>
        <time>2021-08-06T09:37:14Z</time>
      </trkpt>
      <trkpt lat="42.62075" lon="1.73041">
        <ele>2346.886</ele>
        <time>2021-08-06T09:37:16Z</time>
      </trkpt>
      <trkpt lat="42.62075" lon="1.73041">
        <ele>2346.89</ele>
        <time>2021-08-06T09:37:18Z</time>
      </trkpt>
      <trkpt lat="42.62075" lon="1.73041">
        <ele>2346.896</ele>
        <time>2021-08-06T09:37:20Z</time>
      </trkpt>
      <trkpt lat="42.62075" lon="1.73041">
        <ele>2346.895</ele>
        <time>2021-08-06T09:37:22Z</time>
      </trkpt>
      <trkpt lat="42.62075" lon="1.73041">
        <ele>2346.899</ele>
        <time>2021-08-06T09:37:24Z</time>
      </trkpt>
      <trkpt lat="42.62075" lon="1.73041">
        <ele>2346.902</ele>
        <time>2021-08-06T09:37:26Z</time>
      </trkpt>
      <trkpt lat="42.62075" lon="1.73041">
        <ele>2346.906</ele>
        <time>2021-08-06T09:37:28Z</time>
      </trkpt>
      <trkpt lat="42.62075" lon="1.73041">
        <ele>2346.91</ele>
        <time>2021-08-06T09:37:30Z</time>
      </trkpt>
      <trkpt lat="42.62075" lon="1.73041">
        <ele>2346.909</ele>
        <time>2021-08-06T09:37:32Z</time>
      </trkpt>
      <trkpt lat="42.62075" lon="1.73041">
        <ele>2346.913</ele>
        <time>2021-08-06T09:37:34Z</time>
      </trkpt>
      <trkpt lat="42.62075" lon="1.73041">
        <ele>2346.914</ele>
        <time>2021-08-06T09:37:36Z</time>
      </trkpt>
      <trkpt lat="42.62075" lon="1.73041">
        <ele>2346.927</ele>
        <time>2021-08-06T09:37:38Z</time>
      </trkpt>
      <trkpt lat="42.62075" lon="1.73042">
        <ele>2346.86</ele>
        <time>2021-08-06T09:37:40Z</time>
      </trkpt>
      <trkpt lat="42.62075" lon="1.73042">
        <ele>2346.861</ele>
        <time>2021-08-06T09:37:42Z</time>
      </trkpt>
      <trkpt lat="42.62075" lon="1.73042">
        <ele>2346.864</ele>
        <time>2021-08-06T09:37:44Z</time>
      </trkpt>
      <trkpt lat="42.62075" lon="1.73042">
        <ele>2346.87</ele>
        <time>2021-08-06T09:37:46Z</time>
      </trkpt>
      <trkpt lat="42.62075" lon="1.73042">
        <ele>2346.866</ele>
        <time>2021-08-06T09:37:48Z</time>
      </trkpt>
      <trkpt lat="42.62075" lon="1.73042">
        <ele>2346.874</ele>
        <time>2021-08-06T09:37:50Z</time>
      </trkpt>
      <trkpt lat="42.62075" lon="1.73042">
        <ele>2346.874</ele>
        <time>2021-08-06T09:37:52Z</time>
      </trkpt>
      <trkpt lat="42.62075" lon="1.73042">
        <ele>2346.868</ele>
        <time>2021-08-06T09:37:54Z</time>
      </trkpt>
      <trkpt lat="42.62075" lon="1.73042">
        <ele>2347.249</ele>
        <time>2021-08-06T09:37:56Z</time>
      </trkpt>
      <trkpt lat="42.62075" lon="1.73042">
        <ele>2347.247</ele>
        <time>2021-08-06T09:37:58Z</time>
      </trkpt>
      <trkpt lat="42.62075" lon="1.73042">
        <ele>2347.236</ele>
        <time>2021-08-06T09:38:00Z</time>
      </trkpt>
      <trkpt lat="42.62075" lon="1.73042">
        <ele>2347.242</ele>
        <time>2021-08-06T09:38:02Z</time>
      </trkpt>
      <trkpt lat="42.62075" lon="1.73042">
        <ele>2347.252</ele>
        <time>2021-08-06T09:38:04Z</time>
      </trkpt>
      <trkpt lat="42.62075" lon="1.73042">
        <ele>2347.258</ele>
        <time>2021-08-06T09:38:06Z</time>
      </trkpt>
      <trkpt lat="42.62075" lon="1.73042">
        <ele>2347.258</ele>
        <time>2021-08-06T09:38:08Z</time>
      </trkpt>
      <trkpt lat="42.62076" lon="1.73042">
        <ele>2348.337</ele>
        <time>2021-08-06T09:38:10Z</time>
      </trkpt>
      <trkpt lat="42.62076" lon="1.73042">
        <ele>2348.646</ele>
        <time>2021-08-06T09:38:12Z</time>
      </trkpt>
      <trkpt lat="42.62076" lon="1.73043">
        <ele>2348.496</ele>
        <time>2021-08-06T09:38:14Z</time>
      </trkpt>
      <trkpt lat="42.62076" lon="1.73043">
        <ele>2348.502</ele>
        <time>2021-08-06T09:38:16Z</time>
      </trkpt>
      <trkpt lat="42.62076" lon="1.73043">
        <ele>2348.7</ele>
        <time>2021-08-06T09:38:18Z</time>
      </trkpt>
      <trkpt lat="42.62076" lon="1.73042">
        <ele>2348.938</ele>
        <time>2021-08-06T09:38:20Z</time>
      </trkpt>
      <trkpt lat="42.62076" lon="1.73042">
        <ele>2348.937</ele>
        <time>2021-08-06T09:38:22Z</time>
      </trkpt>
      <trkpt lat="42.62076" lon="1.73042">
        <ele>2348.482</ele>
        <time>2021-08-06T09:38:24Z</time>
      </trkpt>
      <trkpt lat="42.62074" lon="1.73042">
        <ele>2348.73</ele>
        <time>2021-08-06T09:38:26Z</time>
      </trkpt>
      <trkpt lat="42.62072" lon="1.73042">
        <ele>2349.25</ele>
        <time>2021-08-06T09:38:28Z</time>
      </trkpt>
      <trkpt lat="42.62071" lon="1.73041">
        <ele>2349.583</ele>
        <time>2021-08-06T09:38:30Z</time>
      </trkpt>
      <trkpt lat="42.62071" lon="1.73041">
        <ele>2349.188</ele>
        <time>2021-08-06T09:38:32Z</time>
      </trkpt>
      <trkpt lat="42.62071" lon="1.73041">
        <ele>2349.121</ele>
        <time>2021-08-06T09:38:34Z</time>
      </trkpt>
      <trkpt lat="42.6207" lon="1.73041">
        <ele>2349.293</ele>
        <time>2021-08-06T09:38:36Z</time>
      </trkpt>
      <trkpt lat="42.62068" lon="1.73041">
        <ele>2349.201</ele>
        <time>2021-08-06T09:38:38Z</time>
      </trkpt>
      <trkpt lat="42.62067" lon="1.7304">
        <ele>2348.82</ele>
        <time>2021-08-06T09:38:40Z</time>
      </trkpt>
      <trkpt lat="42.62065" lon="1.73039">
        <ele>2348.658</ele>
        <time>2021-08-06T09:38:42Z</time>
      </trkpt>
      <trkpt lat="42.62064" lon="1.73038">
        <ele>2348.306</ele>
        <time>2021-08-06T09:38:44Z</time>
      </trkpt>
      <trkpt lat="42.62063" lon="1.73037">
        <ele>2348.003</ele>
        <time>2021-08-06T09:38:46Z</time>
      </trkpt>
      <trkpt lat="42.62062" lon="1.73036">
        <ele>2348.016</ele>
        <time>2021-08-06T09:38:48Z</time>
      </trkpt>
      <trkpt lat="42.62061" lon="1.73035">
        <ele>2347.793</ele>
        <time>2021-08-06T09:38:50Z</time>
      </trkpt>
      <trkpt lat="42.6206" lon="1.73035">
        <ele>2347.148</ele>
        <time>2021-08-06T09:38:52Z</time>
      </trkpt>
      <trkpt lat="42.62059" lon="1.73035">
        <ele>2347.756</ele>
        <time>2021-08-06T09:38:54Z</time>
      </trkpt>
      <trkpt lat="42.62057" lon="1.73034">
        <ele>2346.901</ele>
        <time>2021-08-06T09:38:56Z</time>
      </trkpt>
      <trkpt lat="42.62057" lon="1.73032">
        <ele>2347.203</ele>
        <time>2021-08-06T09:38:58Z</time>
      </trkpt>
      <trkpt lat="42.62056" lon="1.73031">
        <ele>2346.041</ele>
        <time>2021-08-06T09:39:00Z</time>
      </trkpt>
      <trkpt lat="42.62055" lon="1.73033">
        <ele>2345.622</ele>
        <time>2021-08-06T09:39:02Z</time>
      </trkpt>
      <trkpt lat="42.62054" lon="1.73034">
        <ele>2345.178</ele>
        <time>2021-08-06T09:39:04Z</time>
      </trkpt>
      <trkpt lat="42.62054" lon="1.73035">
        <ele>2345.106</ele>
        <time>2021-08-06T09:39:06Z</time>
      </trkpt>
      <trkpt lat="42.62053" lon="1.73036">
        <ele>2344.524</ele>
        <time>2021-08-06T09:39:08Z</time>
      </trkpt>
      <trkpt lat="42.62052" lon="1.73036">
        <ele>2344.056</ele>
        <time>2021-08-06T09:39:10Z</time>
      </trkpt>
      <trkpt lat="42.62051" lon="1.73037">
        <ele>2343.251</ele>
        <time>2021-08-06T09:39:12Z</time>
      </trkpt>
      <trkpt lat="42.62049" lon="1.73037">
        <ele>2342.35</ele>
        <time>2021-08-06T09:39:14Z</time>
      </trkpt>
      <trkpt lat="42.62048" lon="1.73037">
        <ele>2341.744</ele>
        <time>2021-08-06T09:39:16Z</time>
      </trkpt>
      <trkpt lat="42.62047" lon="1.73037">
        <ele>2341.039</ele>
        <time>2021-08-06T09:39:18Z</time>
      </trkpt>
      <trkpt lat="42.62046" lon="1.73036">
        <ele>2340.465</ele>
        <time>2021-08-06T09:39:20Z</time>
      </trkpt>
      <trkpt lat="42.62044" lon="1.73035">
        <ele>2341.104</ele>
        <time>2021-08-06T09:39:22Z</time>
      </trkpt>
      <trkpt lat="42.62044" lon="1.73034">
        <ele>2341.219</ele>
        <time>2021-08-06T09:39:24Z</time>
      </trkpt>
      <trkpt lat="42.62043" lon="1.73034">
        <ele>2340.86</ele>
        <time>2021-08-06T09:39:26Z</time>
      </trkpt>
      <trkpt lat="42.62042" lon="1.73033">
        <ele>2340.506</ele>
        <time>2021-08-06T09:39:28Z</time>
      </trkpt>
      <trkpt lat="42.62041" lon="1.73031">
        <ele>2339.654</ele>
        <time>2021-08-06T09:39:30Z</time>
      </trkpt>
      <trkpt lat="42.62041" lon="1.7303">
        <ele>2338.638</ele>
        <time>2021-08-06T09:39:32Z</time>
      </trkpt>
      <trkpt lat="42.62041" lon="1.73028">
        <ele>2338.934</ele>
        <time>2021-08-06T09:39:34Z</time>
      </trkpt>
      <trkpt lat="42.62041" lon="1.73027">
        <ele>2338.654</ele>
        <time>2021-08-06T09:39:36Z</time>
      </trkpt>
      <trkpt lat="42.62041" lon="1.73025">
        <ele>2338.191</ele>
        <time>2021-08-06T09:39:38Z</time>
      </trkpt>
      <trkpt lat="42.62042" lon="1.73023">
        <ele>2337.167</ele>
        <time>2021-08-06T09:39:40Z</time>
      </trkpt>
      <trkpt lat="42.62042" lon="1.73021">
        <ele>2336.437</ele>
        <time>2021-08-06T09:39:42Z</time>
      </trkpt>
      <trkpt lat="42.62042" lon="1.7302">
        <ele>2336.18</ele>
        <time>2021-08-06T09:39:44Z</time>
      </trkpt>
      <trkpt lat="42.62041" lon="1.73019">
        <ele>2336.21</ele>
        <time>2021-08-06T09:39:46Z</time>
      </trkpt>
      <trkpt lat="42.6204" lon="1.73019">
        <ele>2335.984</ele>
        <time>2021-08-06T09:39:48Z</time>
      </trkpt>
      <trkpt lat="42.62038" lon="1.73019">
        <ele>2334.603</ele>
        <time>2021-08-06T09:39:50Z</time>
      </trkpt>
      <trkpt lat="42.62036" lon="1.7302">
        <ele>2333.279</ele>
        <time>2021-08-06T09:39:52Z</time>
      </trkpt>
      <trkpt lat="42.62034" lon="1.73019">
        <ele>2332.988</ele>
        <time>2021-08-06T09:39:54Z</time>
      </trkpt>
      <trkpt lat="42.62033" lon="1.73019">
        <ele>2333.145</ele>
        <time>2021-08-06T09:39:56Z</time>
      </trkpt>
      <trkpt lat="42.62031" lon="1.73019">
        <ele>2333.186</ele>
        <time>2021-08-06T09:39:58Z</time>
      </trkpt>
      <trkpt lat="42.6203" lon="1.7302">
        <ele>2333.435</ele>
        <time>2021-08-06T09:40:00Z</time>
      </trkpt>
      <trkpt lat="42.62029" lon="1.73022">
        <ele>2333.366</ele>
        <time>2021-08-06T09:40:02Z</time>
      </trkpt>
      <trkpt lat="42.62027" lon="1.73022">
        <ele>2333.365</ele>
        <time>2021-08-06T09:40:04Z</time>
      </trkpt>
      <trkpt lat="42.62026" lon="1.73022">
        <ele>2332.592</ele>
        <time>2021-08-06T09:40:06Z</time>
      </trkpt>
      <trkpt lat="42.62024" lon="1.73022">
        <ele>2332.684</ele>
        <time>2021-08-06T09:40:08Z</time>
      </trkpt>
      <trkpt lat="42.62023" lon="1.73022">
        <ele>2333.065</ele>
        <time>2021-08-06T09:40:10Z</time>
      </trkpt>
      <trkpt lat="42.62021" lon="1.73022">
        <ele>2333.101</ele>
        <time>2021-08-06T09:40:12Z</time>
      </trkpt>
      <trkpt lat="42.6202" lon="1.73022">
        <ele>2333.428</ele>
        <time>2021-08-06T09:40:14Z</time>
      </trkpt>
      <trkpt lat="42.62018" lon="1.73021">
        <ele>2333.704</ele>
        <time>2021-08-06T09:40:16Z</time>
      </trkpt>
      <trkpt lat="42.62017" lon="1.73021">
        <ele>2334.543</ele>
        <time>2021-08-06T09:40:18Z</time>
      </trkpt>
      <trkpt lat="42.62016" lon="1.73021">
        <ele>2334.236</ele>
        <time>2021-08-06T09:40:20Z</time>
      </trkpt>
      <trkpt lat="42.62014" lon="1.73021">
        <ele>2333.994</ele>
        <time>2021-08-06T09:40:22Z</time>
      </trkpt>
      <trkpt lat="42.62013" lon="1.7302">
        <ele>2333.986</ele>
        <time>2021-08-06T09:40:24Z</time>
      </trkpt>
      <trkpt lat="42.62013" lon="1.73019">
        <ele>2333.509</ele>
        <time>2021-08-06T09:40:26Z</time>
      </trkpt>
      <trkpt lat="42.62012" lon="1.73018">
        <ele>2334.841</ele>
        <time>2021-08-06T09:40:28Z</time>
      </trkpt>
      <trkpt lat="42.6201" lon="1.73017">
        <ele>2334.626</ele>
        <time>2021-08-06T09:40:30Z</time>
      </trkpt>
      <trkpt lat="42.62009" lon="1.73017">
        <ele>2334.97</ele>
        <time>2021-08-06T09:40:32Z</time>
      </trkpt>
      <trkpt lat="42.62008" lon="1.73016">
        <ele>2335.91</ele>
        <time>2021-08-06T09:40:34Z</time>
      </trkpt>
      <trkpt lat="42.62007" lon="1.73016">
        <ele>2335.249</ele>
        <time>2021-08-06T09:40:36Z</time>
      </trkpt>
      <trkpt lat="42.62005" lon="1.73015">
        <ele>2334.871</ele>
        <time>2021-08-06T09:40:38Z</time>
      </trkpt>
      <trkpt lat="42.62004" lon="1.73014">
        <ele>2335.61</ele>
        <time>2021-08-06T09:40:40Z</time>
      </trkpt>
      <trkpt lat="42.62002" lon="1.73014">
        <ele>2335.29</ele>
        <time>2021-08-06T09:40:42Z</time>
      </trkpt>
      <trkpt lat="42.62001" lon="1.73014">
        <ele>2334.773</ele>
        <time>2021-08-06T09:40:44Z</time>
      </trkpt>
      <trkpt lat="42.61998" lon="1.73014">
        <ele>2334.82</ele>
        <time>2021-08-06T09:40:46Z</time>
      </trkpt>
      <trkpt lat="42.61996" lon="1.73013">
        <ele>2335.218</ele>
        <time>2021-08-06T09:40:48Z</time>
      </trkpt>
      <trkpt lat="42.61994" lon="1.73012">
        <ele>2334.729</ele>
        <time>2021-08-06T09:40:50Z</time>
      </trkpt>
      <trkpt lat="42.61992" lon="1.73012">
        <ele>2335.397</ele>
        <time>2021-08-06T09:40:52Z</time>
      </trkpt>
      <trkpt lat="42.6199" lon="1.73012">
        <ele>2335.354</ele>
        <time>2021-08-06T09:40:54Z</time>
      </trkpt>
      <trkpt lat="42.61989" lon="1.73012">
        <ele>2336.469</ele>
        <time>2021-08-06T09:40:56Z</time>
      </trkpt>
      <trkpt lat="42.61987" lon="1.73013">
        <ele>2337.014</ele>
        <time>2021-08-06T09:40:58Z</time>
      </trkpt>
      <trkpt lat="42.61985" lon="1.73013">
        <ele>2337.239</ele>
        <time>2021-08-06T09:41:00Z</time>
      </trkpt>
      <trkpt lat="42.61982" lon="1.73013">
        <ele>2337.277</ele>
        <time>2021-08-06T09:41:02Z</time>
      </trkpt>
      <trkpt lat="42.61979" lon="1.73014">
        <ele>2339.519</ele>
        <time>2021-08-06T09:41:04Z</time>
      </trkpt>
      <trkpt lat="42.6198" lon="1.73019">
        <ele>2339.389</ele>
        <time>2021-08-06T09:41:06Z</time>
      </trkpt>
      <trkpt lat="42.61978" lon="1.73021">
        <ele>2339.522</ele>
        <time>2021-08-06T09:41:08Z</time>
      </trkpt>
      <trkpt lat="42.61976" lon="1.7302">
        <ele>2339.228</ele>
        <time>2021-08-06T09:41:10Z</time>
      </trkpt>
      <trkpt lat="42.61974" lon="1.7302">
        <ele>2339.802</ele>
        <time>2021-08-06T09:41:12Z</time>
      </trkpt>
      <trkpt lat="42.61973" lon="1.7302">
        <ele>2339.241</ele>
        <time>2021-08-06T09:41:14Z</time>
      </trkpt>
      <trkpt lat="42.61971" lon="1.7302">
        <ele>2339.529</ele>
        <time>2021-08-06T09:41:16Z</time>
      </trkpt>
      <trkpt lat="42.6197" lon="1.73019">
        <ele>2339.637</ele>
        <time>2021-08-06T09:41:18Z</time>
      </trkpt>
      <trkpt lat="42.61969" lon="1.73019">
        <ele>2341.239</ele>
        <time>2021-08-06T09:41:20Z</time>
      </trkpt>
      <trkpt lat="42.61967" lon="1.73019">
        <ele>2341.283</ele>
        <time>2021-08-06T09:41:22Z</time>
      </trkpt>
      <trkpt lat="42.61967" lon="1.73021">
        <ele>2340.394</ele>
        <time>2021-08-06T09:41:24Z</time>
      </trkpt>
      <trkpt lat="42.61966" lon="1.73021">
        <ele>2339.764</ele>
        <time>2021-08-06T09:41:26Z</time>
      </trkpt>
      <trkpt lat="42.61964" lon="1.73021">
        <ele>2339.755</ele>
        <time>2021-08-06T09:41:28Z</time>
      </trkpt>
      <trkpt lat="42.61963" lon="1.73019">
        <ele>2338.874</ele>
        <time>2021-08-06T09:41:30Z</time>
      </trkpt>
      <trkpt lat="42.61963" lon="1.73017">
        <ele>2339.168</ele>
        <time>2021-08-06T09:41:32Z</time>
      </trkpt>
      <trkpt lat="42.61961" lon="1.73014">
        <ele>2339.977</ele>
        <time>2021-08-06T09:41:34Z</time>
      </trkpt>
      <trkpt lat="42.6196" lon="1.73012">
        <ele>2340.401</ele>
        <time>2021-08-06T09:41:36Z</time>
      </trkpt>
      <trkpt lat="42.61959" lon="1.73012">
        <ele>2340.01</ele>
        <time>2021-08-06T09:41:38Z</time>
      </trkpt>
      <trkpt lat="42.61958" lon="1.73014">
        <ele>2339.912</ele>
        <time>2021-08-06T09:41:40Z</time>
      </trkpt>
      <trkpt lat="42.61957" lon="1.73015">
        <ele>2339.746</ele>
        <time>2021-08-06T09:41:42Z</time>
      </trkpt>
      <trkpt lat="42.61956" lon="1.73015">
        <ele>2340.515</ele>
        <time>2021-08-06T09:41:44Z</time>
      </trkpt>
      <trkpt lat="42.61955" lon="1.73016">
        <ele>2340.054</ele>
        <time>2021-08-06T09:41:46Z</time>
      </trkpt>
      <trkpt lat="42.61954" lon="1.73017">
        <ele>2340.052</ele>
        <time>2021-08-06T09:41:48Z</time>
      </trkpt>
      <trkpt lat="42.61952" lon="1.73019">
        <ele>2339.691</ele>
        <time>2021-08-06T09:41:50Z</time>
      </trkpt>
      <trkpt lat="42.6195" lon="1.73021">
        <ele>2339.643</ele>
        <time>2021-08-06T09:41:52Z</time>
      </trkpt>
      <trkpt lat="42.61948" lon="1.73022">
        <ele>2340.412</ele>
        <time>2021-08-06T09:41:54Z</time>
      </trkpt>
      <trkpt lat="42.61946" lon="1.73024">
        <ele>2341.254</ele>
        <time>2021-08-06T09:41:56Z</time>
      </trkpt>
      <trkpt lat="42.61945" lon="1.73025">
        <ele>2341.493</ele>
        <time>2021-08-06T09:41:58Z</time>
      </trkpt>
      <trkpt lat="42.61943" lon="1.73026">
        <ele>2341.995</ele>
        <time>2021-08-06T09:42:00Z</time>
      </trkpt>
      <trkpt lat="42.61941" lon="1.73027">
        <ele>2342.059</ele>
        <time>2021-08-06T09:42:02Z</time>
      </trkpt>
      <trkpt lat="42.61939" lon="1.73027">
        <ele>2342.582</ele>
        <time>2021-08-06T09:42:04Z</time>
      </trkpt>
      <trkpt lat="42.61937" lon="1.73028">
        <ele>2342.203</ele>
        <time>2021-08-06T09:42:06Z</time>
      </trkpt>
      <trkpt lat="42.61935" lon="1.73028">
        <ele>2342.746</ele>
        <time>2021-08-06T09:42:08Z</time>
      </trkpt>
      <trkpt lat="42.61933" lon="1.73029">
        <ele>2343.828</ele>
        <time>2021-08-06T09:42:10Z</time>
      </trkpt>
      <trkpt lat="42.61931" lon="1.7303">
        <ele>2344.421</ele>
        <time>2021-08-06T09:42:12Z</time>
      </trkpt>
      <trkpt lat="42.6193" lon="1.73031">
        <ele>2344.729</ele>
        <time>2021-08-06T09:42:14Z</time>
      </trkpt>
      <trkpt lat="42.61927" lon="1.73031">
        <ele>2345.502</ele>
        <time>2021-08-06T09:42:16Z</time>
      </trkpt>
      <trkpt lat="42.61923" lon="1.7303">
        <ele>2347.744</ele>
        <time>2021-08-06T09:42:18Z</time>
      </trkpt>
      <trkpt lat="42.61922" lon="1.7303">
        <ele>2348.272</ele>
        <time>2021-08-06T09:42:20Z</time>
      </trkpt>
      <trkpt lat="42.61921" lon="1.7303">
        <ele>2348.264</ele>
        <time>2021-08-06T09:42:22Z</time>
      </trkpt>
      <trkpt lat="42.6192" lon="1.73029">
        <ele>2348.995</ele>
        <time>2021-08-06T09:42:24Z</time>
      </trkpt>
      <trkpt lat="42.61919" lon="1.7303">
        <ele>2349.913</ele>
        <time>2021-08-06T09:42:26Z</time>
      </trkpt>
      <trkpt lat="42.61919" lon="1.73031">
        <ele>2348.565</ele>
        <time>2021-08-06T09:42:28Z</time>
      </trkpt>
      <trkpt lat="42.61918" lon="1.73032">
        <ele>2349.334</ele>
        <time>2021-08-06T09:42:30Z</time>
      </trkpt>
      <trkpt lat="42.61917" lon="1.73033">
        <ele>2349.206</ele>
        <time>2021-08-06T09:42:32Z</time>
      </trkpt>
      <trkpt lat="42.61917" lon="1.73035">
        <ele>2349.202</ele>
        <time>2021-08-06T09:42:34Z</time>
      </trkpt>
      <trkpt lat="42.61917" lon="1.73036">
        <ele>2348.345</ele>
        <time>2021-08-06T09:42:36Z</time>
      </trkpt>
      <trkpt lat="42.61916" lon="1.73037">
        <ele>2348.736</ele>
        <time>2021-08-06T09:42:38Z</time>
      </trkpt>
      <trkpt lat="42.61915" lon="1.73037">
        <ele>2348.821</ele>
        <time>2021-08-06T09:42:40Z</time>
      </trkpt>
      <trkpt lat="42.61915" lon="1.73037">
        <ele>2348.758</ele>
        <time>2021-08-06T09:42:42Z</time>
      </trkpt>
      <trkpt lat="42.61914" lon="1.73037">
        <ele>2350.389</ele>
        <time>2021-08-06T09:42:44Z</time>
      </trkpt>
      <trkpt lat="42.61913" lon="1.73038">
        <ele>2350.373</ele>
        <time>2021-08-06T09:42:46Z</time>
      </trkpt>
      <trkpt lat="42.61912" lon="1.73037">
        <ele>2349.699</ele>
        <time>2021-08-06T09:42:48Z</time>
      </trkpt>
      <trkpt lat="42.61912" lon="1.73036">
        <ele>2349.361</ele>
        <time>2021-08-06T09:42:50Z</time>
      </trkpt>
      <trkpt lat="42.61911" lon="1.73036">
        <ele>2349.14</ele>
        <time>2021-08-06T09:42:52Z</time>
      </trkpt>
      <trkpt lat="42.6191" lon="1.73036">
        <ele>2348.373</ele>
        <time>2021-08-06T09:42:54Z</time>
      </trkpt>
      <trkpt lat="42.61909" lon="1.73036">
        <ele>2349.57</ele>
        <time>2021-08-06T09:42:56Z</time>
      </trkpt>
      <trkpt lat="42.61908" lon="1.73037">
        <ele>2349.989</ele>
        <time>2021-08-06T09:42:58Z</time>
      </trkpt>
      <trkpt lat="42.61907" lon="1.73037">
        <ele>2350.675</ele>
        <time>2021-08-06T09:43:00Z</time>
      </trkpt>
      <trkpt lat="42.61906" lon="1.73037">
        <ele>2350.162</ele>
        <time>2021-08-06T09:43:02Z</time>
      </trkpt>
      <trkpt lat="42.61905" lon="1.73037">
        <ele>2349.703</ele>
        <time>2021-08-06T09:43:04Z</time>
      </trkpt>
      <trkpt lat="42.61903" lon="1.73038">
        <ele>2349.244</ele>
        <time>2021-08-06T09:43:06Z</time>
      </trkpt>
      <trkpt lat="42.61902" lon="1.73038">
        <ele>2349.453</ele>
        <time>2021-08-06T09:43:08Z</time>
      </trkpt>
      <trkpt lat="42.619" lon="1.73039">
        <ele>2349.555</ele>
        <time>2021-08-06T09:43:10Z</time>
      </trkpt>
      <trkpt lat="42.61899" lon="1.73039">
        <ele>2348.864</ele>
        <time>2021-08-06T09:43:12Z</time>
      </trkpt>
      <trkpt lat="42.61897" lon="1.73039">
        <ele>2348.802</ele>
        <time>2021-08-06T09:43:14Z</time>
      </trkpt>
      <trkpt lat="42.61896" lon="1.73039">
        <ele>2348.511</ele>
        <time>2021-08-06T09:43:16Z</time>
      </trkpt>
      <trkpt lat="42.61895" lon="1.73039">
        <ele>2347.456</ele>
        <time>2021-08-06T09:43:18Z</time>
      </trkpt>
      <trkpt lat="42.61893" lon="1.73039">
        <ele>2347.379</ele>
        <time>2021-08-06T09:43:20Z</time>
      </trkpt>
      <trkpt lat="42.61892" lon="1.7304">
        <ele>2346.687</ele>
        <time>2021-08-06T09:43:22Z</time>
      </trkpt>
      <trkpt lat="42.61891" lon="1.73041">
        <ele>2346.836</ele>
        <time>2021-08-06T09:43:24Z</time>
      </trkpt>
      <trkpt lat="42.61891" lon="1.73043">
        <ele>2346.623</ele>
        <time>2021-08-06T09:43:26Z</time>
      </trkpt>
      <trkpt lat="42.6189" lon="1.73044">
        <ele>2346.758</ele>
        <time>2021-08-06T09:43:28Z</time>
      </trkpt>
      <trkpt lat="42.6189" lon="1.73045">
        <ele>2347.37</ele>
        <time>2021-08-06T09:43:30Z</time>
      </trkpt>
      <trkpt lat="42.61889" lon="1.73047">
        <ele>2347.052</ele>
        <time>2021-08-06T09:43:32Z</time>
      </trkpt>
      <trkpt lat="42.61889" lon="1.73048">
        <ele>2346.768</ele>
        <time>2021-08-06T09:43:34Z</time>
      </trkpt>
      <trkpt lat="42.61889" lon="1.73049">
        <ele>2346.884</ele>
        <time>2021-08-06T09:43:36Z</time>
      </trkpt>
      <trkpt lat="42.61888" lon="1.7305">
        <ele>2346.563</ele>
        <time>2021-08-06T09:43:38Z</time>
      </trkpt>
      <trkpt lat="42.61887" lon="1.73052">
        <ele>2346.021</ele>
        <time>2021-08-06T09:43:40Z</time>
      </trkpt>
      <trkpt lat="42.61886" lon="1.73052">
        <ele>2346.199</ele>
        <time>2021-08-06T09:43:42Z</time>
      </trkpt>
      <trkpt lat="42.61884" lon="1.73053">
        <ele>2345.958</ele>
        <time>2021-08-06T09:43:44Z</time>
      </trkpt>
      <trkpt lat="42.61884" lon="1.73055">
        <ele>2345.699</ele>
        <time>2021-08-06T09:43:46Z</time>
      </trkpt>
      <trkpt lat="42.61883" lon="1.73056">
        <ele>2345.982</ele>
        <time>2021-08-06T09:43:48Z</time>
      </trkpt>
      <trkpt lat="42.61882" lon="1.73057">
        <ele>2345.502</ele>
        <time>2021-08-06T09:43:50Z</time>
      </trkpt>
      <trkpt lat="42.61882" lon="1.73059">
        <ele>2344.607</ele>
        <time>2021-08-06T09:43:52Z</time>
      </trkpt>
      <trkpt lat="42.61881" lon="1.7306">
        <ele>2343.928</ele>
        <time>2021-08-06T09:43:54Z</time>
      </trkpt>
      <trkpt lat="42.6188" lon="1.73061">
        <ele>2344.098</ele>
        <time>2021-08-06T09:43:56Z</time>
      </trkpt>
      <trkpt lat="42.61878" lon="1.73062">
        <ele>2344.504</ele>
        <time>2021-08-06T09:43:58Z</time>
      </trkpt>
      <trkpt lat="42.61877" lon="1.73062">
        <ele>2344.069</ele>
        <time>2021-08-06T09:44:00Z</time>
      </trkpt>
      <trkpt lat="42.61876" lon="1.73063">
        <ele>2344.356</ele>
        <time>2021-08-06T09:44:02Z</time>
      </trkpt>
      <trkpt lat="42.61875" lon="1.73064">
        <ele>2344.971</ele>
        <time>2021-08-06T09:44:04Z</time>
      </trkpt>
      <trkpt lat="42.61873" lon="1.73065">
        <ele>2344.442</ele>
        <time>2021-08-06T09:44:06Z</time>
      </trkpt>
      <trkpt lat="42.61872" lon="1.73065">
        <ele>2343.796</ele>
        <time>2021-08-06T09:44:08Z</time>
      </trkpt>
      <trkpt lat="42.6187" lon="1.73065">
        <ele>2344.145</ele>
        <time>2021-08-06T09:44:10Z</time>
      </trkpt>
      <trkpt lat="42.61868" lon="1.73065">
        <ele>2344.912</ele>
        <time>2021-08-06T09:44:12Z</time>
      </trkpt>
      <trkpt lat="42.61866" lon="1.73065">
        <ele>2344.269</ele>
        <time>2021-08-06T09:44:14Z</time>
      </trkpt>
      <trkpt lat="42.61865" lon="1.73067">
        <ele>2344.988</ele>
        <time>2021-08-06T09:44:16Z</time>
      </trkpt>
      <trkpt lat="42.61864" lon="1.73068">
        <ele>2345.518</ele>
        <time>2021-08-06T09:44:18Z</time>
      </trkpt>
      <trkpt lat="42.61862" lon="1.73068">
        <ele>2345.951</ele>
        <time>2021-08-06T09:44:20Z</time>
      </trkpt>
      <trkpt lat="42.61861" lon="1.7307">
        <ele>2346.091</ele>
        <time>2021-08-06T09:44:22Z</time>
      </trkpt>
      <trkpt lat="42.6186" lon="1.73072">
        <ele>2345.363</ele>
        <time>2021-08-06T09:44:24Z</time>
      </trkpt>
      <trkpt lat="42.61859" lon="1.73074">
        <ele>2345.337</ele>
        <time>2021-08-06T09:44:26Z</time>
      </trkpt>
      <trkpt lat="42.61858" lon="1.73076">
        <ele>2345.55</ele>
        <time>2021-08-06T09:44:28Z</time>
      </trkpt>
      <trkpt lat="42.61857" lon="1.73076">
        <ele>2346.182</ele>
        <time>2021-08-06T09:44:30Z</time>
      </trkpt>
      <trkpt lat="42.61855" lon="1.73077">
        <ele>2346.132</ele>
        <time>2021-08-06T09:44:32Z</time>
      </trkpt>
      <trkpt lat="42.61854" lon="1.73078">
        <ele>2345.791</ele>
        <time>2021-08-06T09:44:34Z</time>
      </trkpt>
      <trkpt lat="42.61853" lon="1.7308">
        <ele>2344.756</ele>
        <time>2021-08-06T09:44:36Z</time>
      </trkpt>
      <trkpt lat="42.61852" lon="1.73083">
        <ele>2344.614</ele>
        <time>2021-08-06T09:44:38Z</time>
      </trkpt>
      <trkpt lat="42.61851" lon="1.73084">
        <ele>2346.1</ele>
        <time>2021-08-06T09:44:40Z</time>
      </trkpt>
      <trkpt lat="42.61849" lon="1.73085">
        <ele>2346.333</ele>
        <time>2021-08-06T09:44:42Z</time>
      </trkpt>
      <trkpt lat="42.61848" lon="1.73086">
        <ele>2346.722</ele>
        <time>2021-08-06T09:44:44Z</time>
      </trkpt>
      <trkpt lat="42.61847" lon="1.73087">
        <ele>2346.793</ele>
        <time>2021-08-06T09:44:46Z</time>
      </trkpt>
      <trkpt lat="42.61846" lon="1.73088">
        <ele>2345.63</ele>
        <time>2021-08-06T09:44:48Z</time>
      </trkpt>
      <trkpt lat="42.61845" lon="1.7309">
        <ele>2345.377</ele>
        <time>2021-08-06T09:44:50Z</time>
      </trkpt>
      <trkpt lat="42.61844" lon="1.73092">
        <ele>2345.975</ele>
        <time>2021-08-06T09:44:52Z</time>
      </trkpt>
      <trkpt lat="42.61842" lon="1.73094">
        <ele>2346.507</ele>
        <time>2021-08-06T09:44:54Z</time>
      </trkpt>
      <trkpt lat="42.61842" lon="1.73097">
        <ele>2345.394</ele>
        <time>2021-08-06T09:44:56Z</time>
      </trkpt>
      <trkpt lat="42.61841" lon="1.731">
        <ele>2345.324</ele>
        <time>2021-08-06T09:44:58Z</time>
      </trkpt>
      <trkpt lat="42.61841" lon="1.73103">
        <ele>2345.649</ele>
        <time>2021-08-06T09:45:00Z</time>
      </trkpt>
      <trkpt lat="42.6184" lon="1.73105">
        <ele>2345.162</ele>
        <time>2021-08-06T09:45:02Z</time>
      </trkpt>
      <trkpt lat="42.61838" lon="1.73108">
        <ele>2346.25</ele>
        <time>2021-08-06T09:45:04Z</time>
      </trkpt>
      <trkpt lat="42.61837" lon="1.7311">
        <ele>2347.657</ele>
        <time>2021-08-06T09:45:06Z</time>
      </trkpt>
      <trkpt lat="42.61835" lon="1.73113">
        <ele>2348.134</ele>
        <time>2021-08-06T09:45:08Z</time>
      </trkpt>
      <trkpt lat="42.61835" lon="1.73115">
        <ele>2348.144</ele>
        <time>2021-08-06T09:45:10Z</time>
      </trkpt>
      <trkpt lat="42.61835" lon="1.73117">
        <ele>2347.388</ele>
        <time>2021-08-06T09:45:12Z</time>
      </trkpt>
      <trkpt lat="42.61835" lon="1.73119">
        <ele>2346.854</ele>
        <time>2021-08-06T09:45:14Z</time>
      </trkpt>
      <trkpt lat="42.61834" lon="1.73121">
        <ele>2347.484</ele>
        <time>2021-08-06T09:45:16Z</time>
      </trkpt>
      <trkpt lat="42.61834" lon="1.73123">
        <ele>2348.013</ele>
        <time>2021-08-06T09:45:18Z</time>
      </trkpt>
      <trkpt lat="42.61833" lon="1.73125">
        <ele>2347.478</ele>
        <time>2021-08-06T09:45:20Z</time>
      </trkpt>
      <trkpt lat="42.61831" lon="1.73127">
        <ele>2345.784</ele>
        <time>2021-08-06T09:45:22Z</time>
      </trkpt>
      <trkpt lat="42.61829" lon="1.73125">
        <ele>2345.578</ele>
        <time>2021-08-06T09:45:24Z</time>
      </trkpt>
      <trkpt lat="42.61828" lon="1.73124">
        <ele>2344.621</ele>
        <time>2021-08-06T09:45:26Z</time>
      </trkpt>
      <trkpt lat="42.61826" lon="1.73124">
        <ele>2344.294</ele>
        <time>2021-08-06T09:45:28Z</time>
      </trkpt>
      <trkpt lat="42.61825" lon="1.73124">
        <ele>2344.817</ele>
        <time>2021-08-06T09:45:30Z</time>
      </trkpt>
      <trkpt lat="42.61824" lon="1.73123">
        <ele>2345.18</ele>
        <time>2021-08-06T09:45:32Z</time>
      </trkpt>
      <trkpt lat="42.61823" lon="1.73122">
        <ele>2346.89</ele>
        <time>2021-08-06T09:45:34Z</time>
      </trkpt>
      <trkpt lat="42.61821" lon="1.73123">
        <ele>2346.779</ele>
        <time>2021-08-06T09:45:36Z</time>
      </trkpt>
      <trkpt lat="42.6182" lon="1.73124">
        <ele>2347.813</ele>
        <time>2021-08-06T09:45:38Z</time>
      </trkpt>
      <trkpt lat="42.61819" lon="1.73125">
        <ele>2347.547</ele>
        <time>2021-08-06T09:45:40Z</time>
      </trkpt>
      <trkpt lat="42.61818" lon="1.73125">
        <ele>2347.733</ele>
        <time>2021-08-06T09:45:42Z</time>
      </trkpt>
      <trkpt lat="42.61818" lon="1.73124">
        <ele>2347.93</ele>
        <time>2021-08-06T09:45:44Z</time>
      </trkpt>
      <trkpt lat="42.61817" lon="1.73123">
        <ele>2349.125</ele>
        <time>2021-08-06T09:45:46Z</time>
      </trkpt>
      <trkpt lat="42.61816" lon="1.73123">
        <ele>2348.882</ele>
        <time>2021-08-06T09:45:48Z</time>
      </trkpt>
      <trkpt lat="42.61814" lon="1.73122">
        <ele>2348.676</ele>
        <time>2021-08-06T09:45:50Z</time>
      </trkpt>
      <trkpt lat="42.61813" lon="1.73122">
        <ele>2348.343</ele>
        <time>2021-08-06T09:45:52Z</time>
      </trkpt>
      <trkpt lat="42.61813" lon="1.73123">
        <ele>2347.786</ele>
        <time>2021-08-06T09:45:54Z</time>
      </trkpt>
      <trkpt lat="42.61813" lon="1.73123">
        <ele>2347.703</ele>
        <time>2021-08-06T09:45:56Z</time>
      </trkpt>
      <trkpt lat="42.61812" lon="1.73122">
        <ele>2347.891</ele>
        <time>2021-08-06T09:45:58Z</time>
      </trkpt>
      <trkpt lat="42.61811" lon="1.73122">
        <ele>2347.73</ele>
        <time>2021-08-06T09:46:00Z</time>
      </trkpt>
      <trkpt lat="42.6181" lon="1.73121">
        <ele>2348.71</ele>
        <time>2021-08-06T09:46:02Z</time>
      </trkpt>
      <trkpt lat="42.61809" lon="1.73121">
        <ele>2348.726</ele>
        <time>2021-08-06T09:46:04Z</time>
      </trkpt>
      <trkpt lat="42.61809" lon="1.73121">
        <ele>2348.502</ele>
        <time>2021-08-06T09:46:06Z</time>
      </trkpt>
      <trkpt lat="42.61808" lon="1.73121">
        <ele>2348.865</ele>
        <time>2021-08-06T09:46:08Z</time>
      </trkpt>
      <trkpt lat="42.61807" lon="1.73121">
        <ele>2348.562</ele>
        <time>2021-08-06T09:46:10Z</time>
      </trkpt>
      <trkpt lat="42.61806" lon="1.73121">
        <ele>2348.761</ele>
        <time>2021-08-06T09:46:12Z</time>
      </trkpt>
      <trkpt lat="42.61805" lon="1.73121">
        <ele>2349.696</ele>
        <time>2021-08-06T09:46:14Z</time>
      </trkpt>
      <trkpt lat="42.61804" lon="1.73121">
        <ele>2349.902</ele>
        <time>2021-08-06T09:46:16Z</time>
      </trkpt>
      <trkpt lat="42.61804" lon="1.73121">
        <ele>2349.864</ele>
        <time>2021-08-06T09:46:18Z</time>
      </trkpt>
      <trkpt lat="42.61803" lon="1.73121">
        <ele>2349.549</ele>
        <time>2021-08-06T09:46:20Z</time>
      </trkpt>
      <trkpt lat="42.61802" lon="1.7312">
        <ele>2349.199</ele>
        <time>2021-08-06T09:46:22Z</time>
      </trkpt>
      <trkpt lat="42.61801" lon="1.73119">
        <ele>2349.948</ele>
        <time>2021-08-06T09:46:24Z</time>
      </trkpt>
      <trkpt lat="42.618" lon="1.73119">
        <ele>2350.456</ele>
        <time>2021-08-06T09:46:26Z</time>
      </trkpt>
      <trkpt lat="42.61799" lon="1.73119">
        <ele>2349.778</ele>
        <time>2021-08-06T09:46:28Z</time>
      </trkpt>
      <trkpt lat="42.61798" lon="1.73119">
        <ele>2350.532</ele>
        <time>2021-08-06T09:46:30Z</time>
      </trkpt>
      <trkpt lat="42.61798" lon="1.73119">
        <ele>2350.864</ele>
        <time>2021-08-06T09:46:32Z</time>
      </trkpt>
      <trkpt lat="42.61796" lon="1.73119">
        <ele>2351.791</ele>
        <time>2021-08-06T09:46:34Z</time>
      </trkpt>
      <trkpt lat="42.61795" lon="1.73119">
        <ele>2352.4</ele>
        <time>2021-08-06T09:46:36Z</time>
      </trkpt>
      <trkpt lat="42.61794" lon="1.73119">
        <ele>2353.291</ele>
        <time>2021-08-06T09:46:38Z</time>
      </trkpt>
      <trkpt lat="42.61793" lon="1.73118">
        <ele>2353.908</ele>
        <time>2021-08-06T09:46:40Z</time>
      </trkpt>
      <trkpt lat="42.61792" lon="1.73118">
        <ele>2354.26</ele>
        <time>2021-08-06T09:46:42Z</time>
      </trkpt>
      <trkpt lat="42.61791" lon="1.73118">
        <ele>2355.441</ele>
        <time>2021-08-06T09:46:44Z</time>
      </trkpt>
      <trkpt lat="42.6179" lon="1.73118">
        <ele>2355.634</ele>
        <time>2021-08-06T09:46:46Z</time>
      </trkpt>
      <trkpt lat="42.61789" lon="1.73118">
        <ele>2355.624</ele>
        <time>2021-08-06T09:46:48Z</time>
      </trkpt>
      <trkpt lat="42.61788" lon="1.73118">
        <ele>2356.119</ele>
        <time>2021-08-06T09:46:50Z</time>
      </trkpt>
      <trkpt lat="42.61787" lon="1.73117">
        <ele>2355.987</ele>
        <time>2021-08-06T09:46:52Z</time>
      </trkpt>
      <trkpt lat="42.61786" lon="1.73116">
        <ele>2356.147</ele>
        <time>2021-08-06T09:46:54Z</time>
      </trkpt>
      <trkpt lat="42.61785" lon="1.73116">
        <ele>2356.817</ele>
        <time>2021-08-06T09:46:56Z</time>
      </trkpt>
      <trkpt lat="42.61783" lon="1.73116">
        <ele>2357.024</ele>
        <time>2021-08-06T09:46:58Z</time>
      </trkpt>
      <trkpt lat="42.61782" lon="1.73116">
        <ele>2357.69</ele>
        <time>2021-08-06T09:47:00Z</time>
      </trkpt>
      <trkpt lat="42.61781" lon="1.73117">
        <ele>2357.87</ele>
        <time>2021-08-06T09:47:02Z</time>
      </trkpt>
      <trkpt lat="42.6178" lon="1.73118">
        <ele>2358.043</ele>
        <time>2021-08-06T09:47:04Z</time>
      </trkpt>
      <trkpt lat="42.61779" lon="1.73119">
        <ele>2358.675</ele>
        <time>2021-08-06T09:47:06Z</time>
      </trkpt>
      <trkpt lat="42.61778" lon="1.73121">
        <ele>2359.34</ele>
        <time>2021-08-06T09:47:08Z</time>
      </trkpt>
      <trkpt lat="42.61778" lon="1.73122">
        <ele>2358.6</ele>
        <time>2021-08-06T09:47:10Z</time>
      </trkpt>
      <trkpt lat="42.61777" lon="1.73123">
        <ele>2359.081</ele>
        <time>2021-08-06T09:47:12Z</time>
      </trkpt>
      <trkpt lat="42.61776" lon="1.73124">
        <ele>2358.704</ele>
        <time>2021-08-06T09:47:14Z</time>
      </trkpt>
      <trkpt lat="42.61775" lon="1.73125">
        <ele>2359.746</ele>
        <time>2021-08-06T09:47:16Z</time>
      </trkpt>
      <trkpt lat="42.61774" lon="1.73126">
        <ele>2360.95</ele>
        <time>2021-08-06T09:47:18Z</time>
      </trkpt>
      <trkpt lat="42.61773" lon="1.73127">
        <ele>2360.902</ele>
        <time>2021-08-06T09:47:20Z</time>
      </trkpt>
      <trkpt lat="42.61772" lon="1.73127">
        <ele>2361.52</ele>
        <time>2021-08-06T09:47:22Z</time>
      </trkpt>
      <trkpt lat="42.61771" lon="1.73128">
        <ele>2362.067</ele>
        <time>2021-08-06T09:47:24Z</time>
      </trkpt>
      <trkpt lat="42.6177" lon="1.73128">
        <ele>2361.377</ele>
        <time>2021-08-06T09:47:26Z</time>
      </trkpt>
      <trkpt lat="42.61769" lon="1.7313">
        <ele>2362.02</ele>
        <time>2021-08-06T09:47:28Z</time>
      </trkpt>
      <trkpt lat="42.61769" lon="1.73132">
        <ele>2362.483</ele>
        <time>2021-08-06T09:47:30Z</time>
      </trkpt>
      <trkpt lat="42.61768" lon="1.73132">
        <ele>2364.53</ele>
        <time>2021-08-06T09:47:32Z</time>
      </trkpt>
      <trkpt lat="42.61768" lon="1.73134">
        <ele>2364.883</ele>
        <time>2021-08-06T09:47:34Z</time>
      </trkpt>
      <trkpt lat="42.61768" lon="1.73136">
        <ele>2364.674</ele>
        <time>2021-08-06T09:47:36Z</time>
      </trkpt>
      <trkpt lat="42.61768" lon="1.73137">
        <ele>2365.055</ele>
        <time>2021-08-06T09:47:38Z</time>
      </trkpt>
      <trkpt lat="42.61767" lon="1.73138">
        <ele>2365.297</ele>
        <time>2021-08-06T09:47:40Z</time>
      </trkpt>
      <trkpt lat="42.61767" lon="1.73139">
        <ele>2365.963</ele>
        <time>2021-08-06T09:47:42Z</time>
      </trkpt>
      <trkpt lat="42.61766" lon="1.73139">
        <ele>2365.37</ele>
        <time>2021-08-06T09:47:44Z</time>
      </trkpt>
      <trkpt lat="42.61765" lon="1.7314">
        <ele>2366.383</ele>
        <time>2021-08-06T09:47:46Z</time>
      </trkpt>
      <trkpt lat="42.61764" lon="1.73141">
        <ele>2366.146</ele>
        <time>2021-08-06T09:47:48Z</time>
      </trkpt>
      <trkpt lat="42.61764" lon="1.73142">
        <ele>2367.221</ele>
        <time>2021-08-06T09:47:50Z</time>
      </trkpt>
      <trkpt lat="42.61763" lon="1.73143">
        <ele>2367.169</ele>
        <time>2021-08-06T09:47:52Z</time>
      </trkpt>
      <trkpt lat="42.61763" lon="1.73144">
        <ele>2366.161</ele>
        <time>2021-08-06T09:47:54Z</time>
      </trkpt>
      <trkpt lat="42.61762" lon="1.73145">
        <ele>2365.903</ele>
        <time>2021-08-06T09:47:56Z</time>
      </trkpt>
      <trkpt lat="42.61761" lon="1.73146">
        <ele>2366.158</ele>
        <time>2021-08-06T09:47:58Z</time>
      </trkpt>
      <trkpt lat="42.61761" lon="1.73146">
        <ele>2366.066</ele>
        <time>2021-08-06T09:48:00Z</time>
      </trkpt>
      <trkpt lat="42.6176" lon="1.73146">
        <ele>2366.498</ele>
        <time>2021-08-06T09:48:02Z</time>
      </trkpt>
      <trkpt lat="42.61759" lon="1.73146">
        <ele>2366.416</ele>
        <time>2021-08-06T09:48:04Z</time>
      </trkpt>
      <trkpt lat="42.61758" lon="1.73146">
        <ele>2366.919</ele>
        <time>2021-08-06T09:48:06Z</time>
      </trkpt>
      <trkpt lat="42.61757" lon="1.73145">
        <ele>2366.944</ele>
        <time>2021-08-06T09:48:08Z</time>
      </trkpt>
      <trkpt lat="42.61757" lon="1.73145">
        <ele>2366.983</ele>
        <time>2021-08-06T09:48:10Z</time>
      </trkpt>
      <trkpt lat="42.61756" lon="1.73145">
        <ele>2367.689</ele>
        <time>2021-08-06T09:48:12Z</time>
      </trkpt>
      <trkpt lat="42.61755" lon="1.73144">
        <ele>2367.811</ele>
        <time>2021-08-06T09:48:14Z</time>
      </trkpt>
      <trkpt lat="42.61754" lon="1.73144">
        <ele>2368.337</ele>
        <time>2021-08-06T09:48:16Z</time>
      </trkpt>
      <trkpt lat="42.61754" lon="1.73145">
        <ele>2368.523</ele>
        <time>2021-08-06T09:48:18Z</time>
      </trkpt>
      <trkpt lat="42.61753" lon="1.73145">
        <ele>2368.586</ele>
        <time>2021-08-06T09:48:20Z</time>
      </trkpt>
      <trkpt lat="42.61752" lon="1.73144">
        <ele>2368.493</ele>
        <time>2021-08-06T09:48:22Z</time>
      </trkpt>
      <trkpt lat="42.61751" lon="1.73143">
        <ele>2368.098</ele>
        <time>2021-08-06T09:48:24Z</time>
      </trkpt>
      <trkpt lat="42.6175" lon="1.73144">
        <ele>2368.786</ele>
        <time>2021-08-06T09:48:26Z</time>
      </trkpt>
      <trkpt lat="42.61749" lon="1.73144">
        <ele>2369.248</ele>
        <time>2021-08-06T09:48:28Z</time>
      </trkpt>
      <trkpt lat="42.61748" lon="1.73143">
        <ele>2369.148</ele>
        <time>2021-08-06T09:48:30Z</time>
      </trkpt>
      <trkpt lat="42.61747" lon="1.73143">
        <ele>2368.942</ele>
        <time>2021-08-06T09:48:32Z</time>
      </trkpt>
      <trkpt lat="42.61746" lon="1.73143">
        <ele>2369.315</ele>
        <time>2021-08-06T09:48:34Z</time>
      </trkpt>
      <trkpt lat="42.61745" lon="1.73142">
        <ele>2368.95</ele>
        <time>2021-08-06T09:48:36Z</time>
      </trkpt>
      <trkpt lat="42.61744" lon="1.73141">
        <ele>2368.654</ele>
        <time>2021-08-06T09:48:38Z</time>
      </trkpt>
      <trkpt lat="42.61743" lon="1.73141">
        <ele>2367.868</ele>
        <time>2021-08-06T09:48:40Z</time>
      </trkpt>
      <trkpt lat="42.61742" lon="1.7314">
        <ele>2367.859</ele>
        <time>2021-08-06T09:48:42Z</time>
      </trkpt>
      <trkpt lat="42.61741" lon="1.73139">
        <ele>2367.447</ele>
        <time>2021-08-06T09:48:44Z</time>
      </trkpt>
      <trkpt lat="42.61739" lon="1.73139">
        <ele>2367.91</ele>
        <time>2021-08-06T09:48:46Z</time>
      </trkpt>
      <trkpt lat="42.61738" lon="1.73139">
        <ele>2366.618</ele>
        <time>2021-08-06T09:48:48Z</time>
      </trkpt>
      <trkpt lat="42.61737" lon="1.7314">
        <ele>2367.032</ele>
        <time>2021-08-06T09:48:50Z</time>
      </trkpt>
      <trkpt lat="42.61737" lon="1.73141">
        <ele>2367.415</ele>
        <time>2021-08-06T09:48:52Z</time>
      </trkpt>
      <trkpt lat="42.61736" lon="1.73142">
        <ele>2367.846</ele>
        <time>2021-08-06T09:48:54Z</time>
      </trkpt>
      <trkpt lat="42.61735" lon="1.73142">
        <ele>2368.303</ele>
        <time>2021-08-06T09:48:56Z</time>
      </trkpt>
      <trkpt lat="42.61734" lon="1.73142">
        <ele>2368.732</ele>
        <time>2021-08-06T09:48:58Z</time>
      </trkpt>
      <trkpt lat="42.61733" lon="1.73142">
        <ele>2370.078</ele>
        <time>2021-08-06T09:49:00Z</time>
      </trkpt>
      <trkpt lat="42.61732" lon="1.73142">
        <ele>2370.866</ele>
        <time>2021-08-06T09:49:02Z</time>
      </trkpt>
      <trkpt lat="42.61731" lon="1.73142">
        <ele>2371.682</ele>
        <time>2021-08-06T09:49:04Z</time>
      </trkpt>
      <trkpt lat="42.6173" lon="1.73142">
        <ele>2372.037</ele>
        <time>2021-08-06T09:49:06Z</time>
      </trkpt>
      <trkpt lat="42.6173" lon="1.73142">
        <ele>2371.914</ele>
        <time>2021-08-06T09:49:08Z</time>
      </trkpt>
      <trkpt lat="42.61729" lon="1.73142">
        <ele>2373.454</ele>
        <time>2021-08-06T09:49:10Z</time>
      </trkpt>
      <trkpt lat="42.61728" lon="1.7314">
        <ele>2373.801</ele>
        <time>2021-08-06T09:49:12Z</time>
      </trkpt>
      <trkpt lat="42.61727" lon="1.7314">
        <ele>2374.159</ele>
        <time>2021-08-06T09:49:14Z</time>
      </trkpt>
      <trkpt lat="42.61726" lon="1.7314">
        <ele>2373.971</ele>
        <time>2021-08-06T09:49:16Z</time>
      </trkpt>
      <trkpt lat="42.61725" lon="1.7314">
        <ele>2373.479</ele>
        <time>2021-08-06T09:49:18Z</time>
      </trkpt>
      <trkpt lat="42.61724" lon="1.7314">
        <ele>2373.204</ele>
        <time>2021-08-06T09:49:20Z</time>
      </trkpt>
      <trkpt lat="42.61723" lon="1.7314">
        <ele>2373.176</ele>
        <time>2021-08-06T09:49:22Z</time>
      </trkpt>
      <trkpt lat="42.61723" lon="1.7314">
        <ele>2373.643</ele>
        <time>2021-08-06T09:49:24Z</time>
      </trkpt>
      <trkpt lat="42.61722" lon="1.73138">
        <ele>2374.362</ele>
        <time>2021-08-06T09:49:26Z</time>
      </trkpt>
      <trkpt lat="42.61721" lon="1.73137">
        <ele>2375.087</ele>
        <time>2021-08-06T09:49:28Z</time>
      </trkpt>
      <trkpt lat="42.61719" lon="1.73138">
        <ele>2375.139</ele>
        <time>2021-08-06T09:49:30Z</time>
      </trkpt>
      <trkpt lat="42.61718" lon="1.73138">
        <ele>2375.08</ele>
        <time>2021-08-06T09:49:32Z</time>
      </trkpt>
      <trkpt lat="42.61717" lon="1.73139">
        <ele>2375.696</ele>
        <time>2021-08-06T09:49:34Z</time>
      </trkpt>
      <trkpt lat="42.61716" lon="1.73138">
        <ele>2376.398</ele>
        <time>2021-08-06T09:49:36Z</time>
      </trkpt>
      <trkpt lat="42.61715" lon="1.73138">
        <ele>2378.282</ele>
        <time>2021-08-06T09:49:38Z</time>
      </trkpt>
      <trkpt lat="42.61714" lon="1.73137">
        <ele>2378.418</ele>
        <time>2021-08-06T09:49:40Z</time>
      </trkpt>
      <trkpt lat="42.61713" lon="1.73137">
        <ele>2380.437</ele>
        <time>2021-08-06T09:49:42Z</time>
      </trkpt>
      <trkpt lat="42.61712" lon="1.73137">
        <ele>2380.067</ele>
        <time>2021-08-06T09:49:44Z</time>
      </trkpt>
      <trkpt lat="42.61711" lon="1.73137">
        <ele>2378.639</ele>
        <time>2021-08-06T09:49:46Z</time>
      </trkpt>
      <trkpt lat="42.6171" lon="1.73136">
        <ele>2380.438</ele>
        <time>2021-08-06T09:49:48Z</time>
      </trkpt>
      <trkpt lat="42.6171" lon="1.73136">
        <ele>2380.407</ele>
        <time>2021-08-06T09:49:50Z</time>
      </trkpt>
      <trkpt lat="42.6171" lon="1.73135">
        <ele>2380.5</ele>
        <time>2021-08-06T09:49:52Z</time>
      </trkpt>
      <trkpt lat="42.61709" lon="1.73134">
        <ele>2381.285</ele>
        <time>2021-08-06T09:49:54Z</time>
      </trkpt>
      <trkpt lat="42.61708" lon="1.73133">
        <ele>2381.976</ele>
        <time>2021-08-06T09:49:56Z</time>
      </trkpt>
      <trkpt lat="42.61707" lon="1.73132">
        <ele>2382.608</ele>
        <time>2021-08-06T09:49:58Z</time>
      </trkpt>
      <trkpt lat="42.61705" lon="1.73131">
        <ele>2382.388</ele>
        <time>2021-08-06T09:50:00Z</time>
      </trkpt>
      <trkpt lat="42.61705" lon="1.7313">
        <ele>2382.795</ele>
        <time>2021-08-06T09:50:02Z</time>
      </trkpt>
      <trkpt lat="42.61704" lon="1.73128">
        <ele>2383.618</ele>
        <time>2021-08-06T09:50:04Z</time>
      </trkpt>
      <trkpt lat="42.61704" lon="1.73127">
        <ele>2383.571</ele>
        <time>2021-08-06T09:50:06Z</time>
      </trkpt>
      <trkpt lat="42.61703" lon="1.73125">
        <ele>2382.186</ele>
        <time>2021-08-06T09:50:08Z</time>
      </trkpt>
      <trkpt lat="42.61702" lon="1.73124">
        <ele>2381.509</ele>
        <time>2021-08-06T09:50:10Z</time>
      </trkpt>
      <trkpt lat="42.61701" lon="1.73123">
        <ele>2381.714</ele>
        <time>2021-08-06T09:50:12Z</time>
      </trkpt>
      <trkpt lat="42.61701" lon="1.73121">
        <ele>2382.859</ele>
        <time>2021-08-06T09:50:14Z</time>
      </trkpt>
      <trkpt lat="42.61699" lon="1.7312">
        <ele>2383.101</ele>
        <time>2021-08-06T09:50:16Z</time>
      </trkpt>
      <trkpt lat="42.61698" lon="1.73118">
        <ele>2384.457</ele>
        <time>2021-08-06T09:50:18Z</time>
      </trkpt>
      <trkpt lat="42.61696" lon="1.73118">
        <ele>2385.759</ele>
        <time>2021-08-06T09:50:20Z</time>
      </trkpt>
      <trkpt lat="42.61695" lon="1.73117">
        <ele>2385.173</ele>
        <time>2021-08-06T09:50:22Z</time>
      </trkpt>
      <trkpt lat="42.61694" lon="1.73116">
        <ele>2385.896</ele>
        <time>2021-08-06T09:50:24Z</time>
      </trkpt>
      <trkpt lat="42.61693" lon="1.73115">
        <ele>2385.445</ele>
        <time>2021-08-06T09:50:26Z</time>
      </trkpt>
      <trkpt lat="42.61691" lon="1.73114">
        <ele>2385.946</ele>
        <time>2021-08-06T09:50:28Z</time>
      </trkpt>
      <trkpt lat="42.6169" lon="1.73113">
        <ele>2386.998</ele>
        <time>2021-08-06T09:50:30Z</time>
      </trkpt>
      <trkpt lat="42.61689" lon="1.73111">
        <ele>2387.009</ele>
        <time>2021-08-06T09:50:32Z</time>
      </trkpt>
      <trkpt lat="42.61689" lon="1.7311">
        <ele>2386.739</ele>
        <time>2021-08-06T09:50:34Z</time>
      </trkpt>
      <trkpt lat="42.61688" lon="1.73109">
        <ele>2386.627</ele>
        <time>2021-08-06T09:50:36Z</time>
      </trkpt>
      <trkpt lat="42.61687" lon="1.73107">
        <ele>2387.007</ele>
        <time>2021-08-06T09:50:38Z</time>
      </trkpt>
      <trkpt lat="42.61687" lon="1.73107">
        <ele>2387.224</ele>
        <time>2021-08-06T09:50:40Z</time>
      </trkpt>
      <trkpt lat="42.61687" lon="1.73107">
        <ele>2387.224</ele>
        <time>2021-08-06T09:50:42Z</time>
      </trkpt>
      <trkpt lat="42.61687" lon="1.73107">
        <ele>2387.218</ele>
        <time>2021-08-06T09:50:44Z</time>
      </trkpt>
      <trkpt lat="42.61687" lon="1.73107">
        <ele>2387.2</ele>
        <time>2021-08-06T09:50:46Z</time>
      </trkpt>
      <trkpt lat="42.61687" lon="1.73106">
        <ele>2387.201</ele>
        <time>2021-08-06T09:50:48Z</time>
      </trkpt>
      <trkpt lat="42.61687" lon="1.73106">
        <ele>2387.2</ele>
        <time>2021-08-06T09:50:50Z</time>
      </trkpt>
      <trkpt lat="42.61687" lon="1.73106">
        <ele>2386.914</ele>
        <time>2021-08-06T09:50:52Z</time>
      </trkpt>
      <trkpt lat="42.61686" lon="1.73104">
        <ele>2387.561</ele>
        <time>2021-08-06T09:50:54Z</time>
      </trkpt>
      <trkpt lat="42.61685" lon="1.73103">
        <ele>2388.217</ele>
        <time>2021-08-06T09:50:56Z</time>
      </trkpt>
      <trkpt lat="42.61684" lon="1.73102">
        <ele>2388.258</ele>
        <time>2021-08-06T09:50:58Z</time>
      </trkpt>
      <trkpt lat="42.61683" lon="1.73102">
        <ele>2388.497</ele>
        <time>2021-08-06T09:51:00Z</time>
      </trkpt>
      <trkpt lat="42.61681" lon="1.73102">
        <ele>2388.71</ele>
        <time>2021-08-06T09:51:02Z</time>
      </trkpt>
      <trkpt lat="42.6168" lon="1.73102">
        <ele>2388.872</ele>
        <time>2021-08-06T09:51:04Z</time>
      </trkpt>
      <trkpt lat="42.61679" lon="1.73102">
        <ele>2388.48</ele>
        <time>2021-08-06T09:51:05Z</time>
      </trkpt>
      <trkpt lat="42.61678" lon="1.73103">
        <ele>2389.058</ele>
        <time>2021-08-06T09:51:08Z</time>
      </trkpt>
      <trkpt lat="42.61677" lon="1.73103">
        <ele>2389.398</ele>
        <time>2021-08-06T09:51:10Z</time>
      </trkpt>
      <trkpt lat="42.61675" lon="1.73104">
        <ele>2389.904</ele>
        <time>2021-08-06T09:51:12Z</time>
      </trkpt>
      <trkpt lat="42.61674" lon="1.73105">
        <ele>2389.974</ele>
        <time>2021-08-06T09:51:14Z</time>
      </trkpt>
      <trkpt lat="42.61673" lon="1.73106">
        <ele>2391.466</ele>
        <time>2021-08-06T09:51:16Z</time>
      </trkpt>
      <trkpt lat="42.61671" lon="1.73106">
        <ele>2391.623</ele>
        <time>2021-08-06T09:51:18Z</time>
      </trkpt>
      <trkpt lat="42.6167" lon="1.73106">
        <ele>2391.122</ele>
        <time>2021-08-06T09:51:20Z</time>
      </trkpt>
      <trkpt lat="42.6167" lon="1.73104">
        <ele>2390.692</ele>
        <time>2021-08-06T09:51:22Z</time>
      </trkpt>
      <trkpt lat="42.61668" lon="1.73104">
        <ele>2390.721</ele>
        <time>2021-08-06T09:51:24Z</time>
      </trkpt>
      <trkpt lat="42.61666" lon="1.73104">
        <ele>2391.07</ele>
        <time>2021-08-06T09:51:26Z</time>
      </trkpt>
      <trkpt lat="42.61665" lon="1.73104">
        <ele>2391.181</ele>
        <time>2021-08-06T09:51:28Z</time>
      </trkpt>
      <trkpt lat="42.61663" lon="1.73104">
        <ele>2391.435</ele>
        <time>2021-08-06T09:51:30Z</time>
      </trkpt>
      <trkpt lat="42.61662" lon="1.73103">
        <ele>2391.47</ele>
        <time>2021-08-06T09:51:32Z</time>
      </trkpt>
      <trkpt lat="42.6166" lon="1.73102">
        <ele>2390.864</ele>
        <time>2021-08-06T09:51:34Z</time>
      </trkpt>
      <trkpt lat="42.61659" lon="1.731">
        <ele>2391.209</ele>
        <time>2021-08-06T09:51:36Z</time>
      </trkpt>
      <trkpt lat="42.61659" lon="1.73099">
        <ele>2390.869</ele>
        <time>2021-08-06T09:51:38Z</time>
      </trkpt>
      <trkpt lat="42.61658" lon="1.73097">
        <ele>2390.865</ele>
        <time>2021-08-06T09:51:40Z</time>
      </trkpt>
      <trkpt lat="42.61657" lon="1.73096">
        <ele>2391.3</ele>
        <time>2021-08-06T09:51:42Z</time>
      </trkpt>
      <trkpt lat="42.61656" lon="1.73096">
        <ele>2390.526</ele>
        <time>2021-08-06T09:51:44Z</time>
      </trkpt>
      <trkpt lat="42.61654" lon="1.73096">
        <ele>2390.053</ele>
        <time>2021-08-06T09:51:46Z</time>
      </trkpt>
      <trkpt lat="42.61652" lon="1.73095">
        <ele>2388.652</ele>
        <time>2021-08-06T09:51:48Z</time>
      </trkpt>
      <trkpt lat="42.61651" lon="1.73093">
        <ele>2386.818</ele>
        <time>2021-08-06T09:51:50Z</time>
      </trkpt>
      <trkpt lat="42.61649" lon="1.73091">
        <ele>2387.709</ele>
        <time>2021-08-06T09:51:52Z</time>
      </trkpt>
      <trkpt lat="42.61648" lon="1.7309">
        <ele>2388.779</ele>
        <time>2021-08-06T09:51:54Z</time>
      </trkpt>
      <trkpt lat="42.61647" lon="1.73089">
        <ele>2387.81</ele>
        <time>2021-08-06T09:51:56Z</time>
      </trkpt>
      <trkpt lat="42.61647" lon="1.7309">
        <ele>2387.774</ele>
        <time>2021-08-06T09:51:58Z</time>
      </trkpt>
      <trkpt lat="42.61647" lon="1.73089">
        <ele>2388.061</ele>
        <time>2021-08-06T09:52:00Z</time>
      </trkpt>
      <trkpt lat="42.61646" lon="1.73088">
        <ele>2388.386</ele>
        <time>2021-08-06T09:52:02Z</time>
      </trkpt>
      <trkpt lat="42.61645" lon="1.73086">
        <ele>2387.621</ele>
        <time>2021-08-06T09:52:04Z</time>
      </trkpt>
      <trkpt lat="42.61644" lon="1.73084">
        <ele>2387.68</ele>
        <time>2021-08-06T09:52:06Z</time>
      </trkpt>
      <trkpt lat="42.61643" lon="1.73082">
        <ele>2388.035</ele>
        <time>2021-08-06T09:52:08Z</time>
      </trkpt>
      <trkpt lat="42.61642" lon="1.73079">
        <ele>2388.303</ele>
        <time>2021-08-06T09:52:10Z</time>
      </trkpt>
      <trkpt lat="42.6164" lon="1.73077">
        <ele>2389.395</ele>
        <time>2021-08-06T09:52:12Z</time>
      </trkpt>
      <trkpt lat="42.61639" lon="1.73076">
        <ele>2389.444</ele>
        <time>2021-08-06T09:52:14Z</time>
      </trkpt>
      <trkpt lat="42.61637" lon="1.73073">
        <ele>2389.776</ele>
        <time>2021-08-06T09:52:16Z</time>
      </trkpt>
      <trkpt lat="42.61635" lon="1.73073">
        <ele>2388.565</ele>
        <time>2021-08-06T09:52:18Z</time>
      </trkpt>
      <trkpt lat="42.61633" lon="1.73071">
        <ele>2388.039</ele>
        <time>2021-08-06T09:52:20Z</time>
      </trkpt>
      <trkpt lat="42.61632" lon="1.73071">
        <ele>2387.706</ele>
        <time>2021-08-06T09:52:22Z</time>
      </trkpt>
      <trkpt lat="42.61631" lon="1.73071">
        <ele>2387.54</ele>
        <time>2021-08-06T09:52:24Z</time>
      </trkpt>
      <trkpt lat="42.61629" lon="1.73072">
        <ele>2387.743</ele>
        <time>2021-08-06T09:52:26Z</time>
      </trkpt>
      <trkpt lat="42.61628" lon="1.73072">
        <ele>2388.637</ele>
        <time>2021-08-06T09:52:28Z</time>
      </trkpt>
      <trkpt lat="42.61627" lon="1.73072">
        <ele>2389.575</ele>
        <time>2021-08-06T09:52:30Z</time>
      </trkpt>
      <trkpt lat="42.61625" lon="1.73072">
        <ele>2391.77</ele>
        <time>2021-08-06T09:52:32Z</time>
      </trkpt>
      <trkpt lat="42.61625" lon="1.73072">
        <ele>2392.636</ele>
        <time>2021-08-06T09:52:34Z</time>
      </trkpt>
      <trkpt lat="42.61625" lon="1.73072">
        <ele>2392.892</ele>
        <time>2021-08-06T09:52:36Z</time>
      </trkpt>
      <trkpt lat="42.61624" lon="1.73072">
        <ele>2392.953</ele>
        <time>2021-08-06T09:52:38Z</time>
      </trkpt>
      <trkpt lat="42.61623" lon="1.73073">
        <ele>2393.977</ele>
        <time>2021-08-06T09:52:40Z</time>
      </trkpt>
      <trkpt lat="42.61622" lon="1.73074">
        <ele>2394.732</ele>
        <time>2021-08-06T09:52:42Z</time>
      </trkpt>
      <trkpt lat="42.61621" lon="1.73076">
        <ele>2394.091</ele>
        <time>2021-08-06T09:52:44Z</time>
      </trkpt>
      <trkpt lat="42.61621" lon="1.73077">
        <ele>2393.74</ele>
        <time>2021-08-06T09:52:46Z</time>
      </trkpt>
      <trkpt lat="42.61621" lon="1.73077">
        <ele>2393.456</ele>
        <time>2021-08-06T09:52:48Z</time>
      </trkpt>
      <trkpt lat="42.61621" lon="1.73077">
        <ele>2393.462</ele>
        <time>2021-08-06T09:52:50Z</time>
      </trkpt>
      <trkpt lat="42.61621" lon="1.73077">
        <ele>2393.462</ele>
        <time>2021-08-06T09:52:52Z</time>
      </trkpt>
      <trkpt lat="42.61621" lon="1.73077">
        <ele>2393.463</ele>
        <time>2021-08-06T09:52:54Z</time>
      </trkpt>
      <trkpt lat="42.61621" lon="1.73077">
        <ele>2393.467</ele>
        <time>2021-08-06T09:52:56Z</time>
      </trkpt>
      <trkpt lat="42.61621" lon="1.73077">
        <ele>2394.254</ele>
        <time>2021-08-06T09:52:58Z</time>
      </trkpt>
      <trkpt lat="42.61619" lon="1.73077">
        <ele>2394.921</ele>
        <time>2021-08-06T09:53:00Z</time>
      </trkpt>
      <trkpt lat="42.61619" lon="1.73078">
        <ele>2393.805</ele>
        <time>2021-08-06T09:53:02Z</time>
      </trkpt>
      <trkpt lat="42.61619" lon="1.7308">
        <ele>2393.436</ele>
        <time>2021-08-06T09:53:04Z</time>
      </trkpt>
      <trkpt lat="42.61618" lon="1.7308">
        <ele>2394.789</ele>
        <time>2021-08-06T09:53:06Z</time>
      </trkpt>
      <trkpt lat="42.61617" lon="1.73082">
        <ele>2395.501</ele>
        <time>2021-08-06T09:53:08Z</time>
      </trkpt>
      <trkpt lat="42.61617" lon="1.73084">
        <ele>2395.001</ele>
        <time>2021-08-06T09:53:10Z</time>
      </trkpt>
      <trkpt lat="42.61618" lon="1.73085">
        <ele>2392.917</ele>
        <time>2021-08-06T09:53:12Z</time>
      </trkpt>
      <trkpt lat="42.61618" lon="1.73088">
        <ele>2392.942</ele>
        <time>2021-08-06T09:53:14Z</time>
      </trkpt>
      <trkpt lat="42.61619" lon="1.73089">
        <ele>2391.383</ele>
        <time>2021-08-06T09:53:16Z</time>
      </trkpt>
      <trkpt lat="42.6162" lon="1.73091">
        <ele>2391.519</ele>
        <time>2021-08-06T09:53:18Z</time>
      </trkpt>
      <trkpt lat="42.6162" lon="1.73092">
        <ele>2392.144</ele>
        <time>2021-08-06T09:53:20Z</time>
      </trkpt>
      <trkpt lat="42.6162" lon="1.73093">
        <ele>2392.193</ele>
        <time>2021-08-06T09:53:22Z</time>
      </trkpt>
      <trkpt lat="42.61621" lon="1.73095">
        <ele>2391.908</ele>
        <time>2021-08-06T09:53:24Z</time>
      </trkpt>
      <trkpt lat="42.6162" lon="1.73096">
        <ele>2391.407</ele>
        <time>2021-08-06T09:53:26Z</time>
      </trkpt>
      <trkpt lat="42.6162" lon="1.73096">
        <ele>2391.274</ele>
        <time>2021-08-06T09:53:28Z</time>
      </trkpt>
      <trkpt lat="42.61619" lon="1.73096">
        <ele>2392.094</ele>
        <time>2021-08-06T09:53:30Z</time>
      </trkpt>
      <trkpt lat="42.61619" lon="1.73096">
        <ele>2392.297</ele>
        <time>2021-08-06T09:53:32Z</time>
      </trkpt>
      <trkpt lat="42.61619" lon="1.73096">
        <ele>2392.243</ele>
        <time>2021-08-06T09:53:34Z</time>
      </trkpt>
      <trkpt lat="42.61619" lon="1.73096">
        <ele>2392.229</ele>
        <time>2021-08-06T09:53:36Z</time>
      </trkpt>
      <trkpt lat="42.61619" lon="1.73096">
        <ele>2392.199</ele>
        <time>2021-08-06T09:53:38Z</time>
      </trkpt>
      <trkpt lat="42.61619" lon="1.73096">
        <ele>2392.182</ele>
        <time>2021-08-06T09:53:40Z</time>
      </trkpt>
      <trkpt lat="42.61618" lon="1.73095">
        <ele>2392.532</ele>
        <time>2021-08-06T09:53:42Z</time>
      </trkpt>
      <trkpt lat="42.61618" lon="1.73094">
        <ele>2393.105</ele>
        <time>2021-08-06T09:53:44Z</time>
      </trkpt>
      <trkpt lat="42.61617" lon="1.73092">
        <ele>2393.566</ele>
        <time>2021-08-06T09:53:46Z</time>
      </trkpt>
      <trkpt lat="42.61617" lon="1.73091">
        <ele>2393.546</ele>
        <time>2021-08-06T09:53:48Z</time>
      </trkpt>
      <trkpt lat="42.61617" lon="1.7309">
        <ele>2393.143</ele>
        <time>2021-08-06T09:53:50Z</time>
      </trkpt>
      <trkpt lat="42.61616" lon="1.73088">
        <ele>2393.661</ele>
        <time>2021-08-06T09:53:52Z</time>
      </trkpt>
      <trkpt lat="42.61615" lon="1.73087">
        <ele>2394.11</ele>
        <time>2021-08-06T09:53:54Z</time>
      </trkpt>
      <trkpt lat="42.61614" lon="1.73086">
        <ele>2393.727</ele>
        <time>2021-08-06T09:53:56Z</time>
      </trkpt>
      <trkpt lat="42.61612" lon="1.73085">
        <ele>2394.477</ele>
        <time>2021-08-06T09:53:58Z</time>
      </trkpt>
      <trkpt lat="42.61611" lon="1.73084">
        <ele>2394.972</ele>
        <time>2021-08-06T09:54:00Z</time>
      </trkpt>
      <trkpt lat="42.6161" lon="1.73083">
        <ele>2394.832</ele>
        <time>2021-08-06T09:54:02Z</time>
      </trkpt>
      <trkpt lat="42.61609" lon="1.73082">
        <ele>2394.079</ele>
        <time>2021-08-06T09:54:04Z</time>
      </trkpt>
      <trkpt lat="42.61608" lon="1.73081">
        <ele>2393.323</ele>
        <time>2021-08-06T09:54:06Z</time>
      </trkpt>
      <trkpt lat="42.61608" lon="1.73079">
        <ele>2393.926</ele>
        <time>2021-08-06T09:54:08Z</time>
      </trkpt>
      <trkpt lat="42.61608" lon="1.73078">
        <ele>2393.97</ele>
        <time>2021-08-06T09:54:10Z</time>
      </trkpt>
      <trkpt lat="42.61607" lon="1.73078">
        <ele>2394.246</ele>
        <time>2021-08-06T09:54:12Z</time>
      </trkpt>
      <trkpt lat="42.61606" lon="1.73077">
        <ele>2394.47</ele>
        <time>2021-08-06T09:54:14Z</time>
      </trkpt>
      <trkpt lat="42.61605" lon="1.73076">
        <ele>2394.821</ele>
        <time>2021-08-06T09:54:16Z</time>
      </trkpt>
      <trkpt lat="42.61604" lon="1.73076">
        <ele>2394.817</ele>
        <time>2021-08-06T09:54:18Z</time>
      </trkpt>
      <trkpt lat="42.61604" lon="1.73074">
        <ele>2395.011</ele>
        <time>2021-08-06T09:54:20Z</time>
      </trkpt>
      <trkpt lat="42.61603" lon="1.73072">
        <ele>2395.021</ele>
        <time>2021-08-06T09:54:22Z</time>
      </trkpt>
      <trkpt lat="42.61603" lon="1.7307">
        <ele>2394.878</ele>
        <time>2021-08-06T09:54:24Z</time>
      </trkpt>
      <trkpt lat="42.61603" lon="1.73069">
        <ele>2395.185</ele>
        <time>2021-08-06T09:54:26Z</time>
      </trkpt>
      <trkpt lat="42.61603" lon="1.73068">
        <ele>2395.127</ele>
        <time>2021-08-06T09:54:28Z</time>
      </trkpt>
      <trkpt lat="42.61603" lon="1.73066">
        <ele>2395.507</ele>
        <time>2021-08-06T09:54:30Z</time>
      </trkpt>
      <trkpt lat="42.61602" lon="1.73065">
        <ele>2395.436</ele>
        <time>2021-08-06T09:54:32Z</time>
      </trkpt>
      <trkpt lat="42.61601" lon="1.73064">
        <ele>2395.826</ele>
        <time>2021-08-06T09:54:34Z</time>
      </trkpt>
      <trkpt lat="42.616" lon="1.73063">
        <ele>2396.212</ele>
        <time>2021-08-06T09:54:36Z</time>
      </trkpt>
      <trkpt lat="42.616" lon="1.73061">
        <ele>2396.682</ele>
        <time>2021-08-06T09:54:38Z</time>
      </trkpt>
      <trkpt lat="42.61599" lon="1.7306">
        <ele>2396.225</ele>
        <time>2021-08-06T09:54:40Z</time>
      </trkpt>
      <trkpt lat="42.61599" lon="1.73058">
        <ele>2396.296</ele>
        <time>2021-08-06T09:54:42Z</time>
      </trkpt>
      <trkpt lat="42.61599" lon="1.73057">
        <ele>2395.973</ele>
        <time>2021-08-06T09:54:44Z</time>
      </trkpt>
      <trkpt lat="42.61598" lon="1.73057">
        <ele>2396.037</ele>
        <time>2021-08-06T09:54:46Z</time>
      </trkpt>
      <trkpt lat="42.61597" lon="1.73057">
        <ele>2395.943</ele>
        <time>2021-08-06T09:54:48Z</time>
      </trkpt>
      <trkpt lat="42.61596" lon="1.73057">
        <ele>2395.633</ele>
        <time>2021-08-06T09:54:50Z</time>
      </trkpt>
      <trkpt lat="42.61595" lon="1.73056">
        <ele>2395.797</ele>
        <time>2021-08-06T09:54:52Z</time>
      </trkpt>
      <trkpt lat="42.61594" lon="1.73056">
        <ele>2395.494</ele>
        <time>2021-08-06T09:54:54Z</time>
      </trkpt>
      <trkpt lat="42.61594" lon="1.73055">
        <ele>2396.014</ele>
        <time>2021-08-06T09:54:56Z</time>
      </trkpt>
      <trkpt lat="42.61593" lon="1.73055">
        <ele>2396.475</ele>
        <time>2021-08-06T09:54:58Z</time>
      </trkpt>
      <trkpt lat="42.61592" lon="1.73055">
        <ele>2396.775</ele>
        <time>2021-08-06T09:55:00Z</time>
      </trkpt>
      <trkpt lat="42.61591" lon="1.73055">
        <ele>2397.702</ele>
        <time>2021-08-06T09:55:02Z</time>
      </trkpt>
      <trkpt lat="42.61591" lon="1.73055">
        <ele>2398.577</ele>
        <time>2021-08-06T09:55:04Z</time>
      </trkpt>
      <trkpt lat="42.6159" lon="1.73055">
        <ele>2398.1</ele>
        <time>2021-08-06T09:55:06Z</time>
      </trkpt>
      <trkpt lat="42.61589" lon="1.73055">
        <ele>2398.874</ele>
        <time>2021-08-06T09:55:08Z</time>
      </trkpt>
      <trkpt lat="42.61588" lon="1.73056">
        <ele>2399.793</ele>
        <time>2021-08-06T09:55:10Z</time>
      </trkpt>
      <trkpt lat="42.61587" lon="1.73056">
        <ele>2399.828</ele>
        <time>2021-08-06T09:55:12Z</time>
      </trkpt>
      <trkpt lat="42.61586" lon="1.73055">
        <ele>2400.81</ele>
        <time>2021-08-06T09:55:14Z</time>
      </trkpt>
      <trkpt lat="42.61585" lon="1.73055">
        <ele>2401.558</ele>
        <time>2021-08-06T09:55:16Z</time>
      </trkpt>
      <trkpt lat="42.61584" lon="1.73054">
        <ele>2401.798</ele>
        <time>2021-08-06T09:55:18Z</time>
      </trkpt>
      <trkpt lat="42.61584" lon="1.73054">
        <ele>2402.04</ele>
        <time>2021-08-06T09:55:20Z</time>
      </trkpt>
      <trkpt lat="42.61584" lon="1.73054">
        <ele>2402.027</ele>
        <time>2021-08-06T09:55:22Z</time>
      </trkpt>
      <trkpt lat="42.61584" lon="1.73054">
        <ele>2402.004</ele>
        <time>2021-08-06T09:55:24Z</time>
      </trkpt>
      <trkpt lat="42.61584" lon="1.73054">
        <ele>2402</ele>
        <time>2021-08-06T09:55:26Z</time>
      </trkpt>
      <trkpt lat="42.61584" lon="1.73054">
        <ele>2401.974</ele>
        <time>2021-08-06T09:55:28Z</time>
      </trkpt>
      <trkpt lat="42.61584" lon="1.73054">
        <ele>2401.942</ele>
        <time>2021-08-06T09:55:30Z</time>
      </trkpt>
      <trkpt lat="42.61584" lon="1.73054">
        <ele>2401.929</ele>
        <time>2021-08-06T09:55:32Z</time>
      </trkpt>
      <trkpt lat="42.61584" lon="1.73054">
        <ele>2401.931</ele>
        <time>2021-08-06T09:55:34Z</time>
      </trkpt>
      <trkpt lat="42.61584" lon="1.73054">
        <ele>2401.936</ele>
        <time>2021-08-06T09:55:36Z</time>
      </trkpt>
      <trkpt lat="42.61584" lon="1.73054">
        <ele>2401.96</ele>
        <time>2021-08-06T09:55:38Z</time>
      </trkpt>
      <trkpt lat="42.61584" lon="1.73054">
        <ele>2401.969</ele>
        <time>2021-08-06T09:55:40Z</time>
      </trkpt>
      <trkpt lat="42.61584" lon="1.73054">
        <ele>2401.949</ele>
        <time>2021-08-06T09:55:42Z</time>
      </trkpt>
      <trkpt lat="42.61584" lon="1.73054">
        <ele>2402.105</ele>
        <time>2021-08-06T09:55:44Z</time>
      </trkpt>
      <trkpt lat="42.61584" lon="1.73053">
        <ele>2402.894</ele>
        <time>2021-08-06T09:55:46Z</time>
      </trkpt>
      <trkpt lat="42.61584" lon="1.73052">
        <ele>2403.376</ele>
        <time>2021-08-06T09:55:48Z</time>
      </trkpt>
      <trkpt lat="42.61583" lon="1.73051">
        <ele>2403.274</ele>
        <time>2021-08-06T09:55:50Z</time>
      </trkpt>
      <trkpt lat="42.61582" lon="1.73051">
        <ele>2403.683</ele>
        <time>2021-08-06T09:55:52Z</time>
      </trkpt>
      <trkpt lat="42.61581" lon="1.73051">
        <ele>2403.959</ele>
        <time>2021-08-06T09:55:54Z</time>
      </trkpt>
      <trkpt lat="42.61581" lon="1.73051">
        <ele>2404.91</ele>
        <time>2021-08-06T09:55:56Z</time>
      </trkpt>
      <trkpt lat="42.6158" lon="1.7305">
        <ele>2405.613</ele>
        <time>2021-08-06T09:55:58Z</time>
      </trkpt>
      <trkpt lat="42.61579" lon="1.73049">
        <ele>2405.811</ele>
        <time>2021-08-06T09:56:00Z</time>
      </trkpt>
      <trkpt lat="42.61579" lon="1.73048">
        <ele>2405.651</ele>
        <time>2021-08-06T09:56:02Z</time>
      </trkpt>
      <trkpt lat="42.61578" lon="1.73047">
        <ele>2405.609</ele>
        <time>2021-08-06T09:56:04Z</time>
      </trkpt>
      <trkpt lat="42.61577" lon="1.73047">
        <ele>2406.165</ele>
        <time>2021-08-06T09:56:06Z</time>
      </trkpt>
      <trkpt lat="42.61577" lon="1.73047">
        <ele>2406.375</ele>
        <time>2021-08-06T09:56:08Z</time>
      </trkpt>
      <trkpt lat="42.61576" lon="1.73046">
        <ele>2406.655</ele>
        <time>2021-08-06T09:56:10Z</time>
      </trkpt>
      <trkpt lat="42.61576" lon="1.73045">
        <ele>2406.84</ele>
        <time>2021-08-06T09:56:12Z</time>
      </trkpt>
      <trkpt lat="42.61576" lon="1.73044">
        <ele>2406.927</ele>
        <time>2021-08-06T09:56:14Z</time>
      </trkpt>
      <trkpt lat="42.61574" lon="1.73044">
        <ele>2407.403</ele>
        <time>2021-08-06T09:56:16Z</time>
      </trkpt>
      <trkpt lat="42.61574" lon="1.73043">
        <ele>2408.387</ele>
        <time>2021-08-06T09:56:18Z</time>
      </trkpt>
      <trkpt lat="42.61573" lon="1.73043">
        <ele>2408.214</ele>
        <time>2021-08-06T09:56:20Z</time>
      </trkpt>
      <trkpt lat="42.61572" lon="1.73042">
        <ele>2409.04</ele>
        <time>2021-08-06T09:56:22Z</time>
      </trkpt>
      <trkpt lat="42.61572" lon="1.73042">
        <ele>2409.604</ele>
        <time>2021-08-06T09:56:24Z</time>
      </trkpt>
      <trkpt lat="42.61571" lon="1.73041">
        <ele>2410.462</ele>
        <time>2021-08-06T09:56:26Z</time>
      </trkpt>
      <trkpt lat="42.6157" lon="1.7304">
        <ele>2410.601</ele>
        <time>2021-08-06T09:56:28Z</time>
      </trkpt>
      <trkpt lat="42.61569" lon="1.7304">
        <ele>2411.613</ele>
        <time>2021-08-06T09:56:30Z</time>
      </trkpt>
      <trkpt lat="42.61568" lon="1.7304">
        <ele>2412.793</ele>
        <time>2021-08-06T09:56:32Z</time>
      </trkpt>
      <trkpt lat="42.61567" lon="1.7304">
        <ele>2413.534</ele>
        <time>2021-08-06T09:56:34Z</time>
      </trkpt>
      <trkpt lat="42.61566" lon="1.73039">
        <ele>2414.477</ele>
        <time>2021-08-06T09:56:36Z</time>
      </trkpt>
      <trkpt lat="42.61565" lon="1.73039">
        <ele>2415.315</ele>
        <time>2021-08-06T09:56:38Z</time>
      </trkpt>
      <trkpt lat="42.61565" lon="1.7304">
        <ele>2414.138</ele>
        <time>2021-08-06T09:56:40Z</time>
      </trkpt>
      <trkpt lat="42.61564" lon="1.73041">
        <ele>2415.083</ele>
        <time>2021-08-06T09:56:42Z</time>
      </trkpt>
      <trkpt lat="42.61563" lon="1.7304">
        <ele>2414.393</ele>
        <time>2021-08-06T09:56:44Z</time>
      </trkpt>
      <trkpt lat="42.61562" lon="1.73041">
        <ele>2415.23</ele>
        <time>2021-08-06T09:56:46Z</time>
      </trkpt>
      <trkpt lat="42.61561" lon="1.7304">
        <ele>2415.653</ele>
        <time>2021-08-06T09:56:48Z</time>
      </trkpt>
      <trkpt lat="42.6156" lon="1.73039">
        <ele>2415.115</ele>
        <time>2021-08-06T09:56:50Z</time>
      </trkpt>
      <trkpt lat="42.6156" lon="1.73038">
        <ele>2415.022</ele>
        <time>2021-08-06T09:56:52Z</time>
      </trkpt>
      <trkpt lat="42.61559" lon="1.73037">
        <ele>2415.954</ele>
        <time>2021-08-06T09:56:54Z</time>
      </trkpt>
      <trkpt lat="42.61558" lon="1.73037">
        <ele>2415.677</ele>
        <time>2021-08-06T09:56:56Z</time>
      </trkpt>
      <trkpt lat="42.61557" lon="1.73037">
        <ele>2414.955</ele>
        <time>2021-08-06T09:56:58Z</time>
      </trkpt>
      <trkpt lat="42.61556" lon="1.73037">
        <ele>2413.521</ele>
        <time>2021-08-06T09:57:00Z</time>
      </trkpt>
      <trkpt lat="42.61556" lon="1.73036">
        <ele>2413.54</ele>
        <time>2021-08-06T09:57:02Z</time>
      </trkpt>
      <trkpt lat="42.61556" lon="1.73035">
        <ele>2413.969</ele>
        <time>2021-08-06T09:57:04Z</time>
      </trkpt>
      <trkpt lat="42.61556" lon="1.73034">
        <ele>2413.565</ele>
        <time>2021-08-06T09:57:06Z</time>
      </trkpt>
      <trkpt lat="42.61556" lon="1.73033">
        <ele>2415.254</ele>
        <time>2021-08-06T09:57:08Z</time>
      </trkpt>
      <trkpt lat="42.61555" lon="1.73032">
        <ele>2415.474</ele>
        <time>2021-08-06T09:57:10Z</time>
      </trkpt>
      <trkpt lat="42.61554" lon="1.7303">
        <ele>2415.475</ele>
        <time>2021-08-06T09:57:12Z</time>
      </trkpt>
      <trkpt lat="42.61553" lon="1.73029">
        <ele>2414.763</ele>
        <time>2021-08-06T09:57:14Z</time>
      </trkpt>
      <trkpt lat="42.61553" lon="1.73028">
        <ele>2414.546</ele>
        <time>2021-08-06T09:57:16Z</time>
      </trkpt>
      <trkpt lat="42.61551" lon="1.73027">
        <ele>2415.692</ele>
        <time>2021-08-06T09:57:18Z</time>
      </trkpt>
      <trkpt lat="42.6155" lon="1.73028">
        <ele>2417.096</ele>
        <time>2021-08-06T09:57:20Z</time>
      </trkpt>
      <trkpt lat="42.61548" lon="1.73028">
        <ele>2418.056</ele>
        <time>2021-08-06T09:57:22Z</time>
      </trkpt>
      <trkpt lat="42.61546" lon="1.73027">
        <ele>2418.102</ele>
        <time>2021-08-06T09:57:24Z</time>
      </trkpt>
      <trkpt lat="42.61545" lon="1.73026">
        <ele>2418.746</ele>
        <time>2021-08-06T09:57:26Z</time>
      </trkpt>
      <trkpt lat="42.61543" lon="1.73025">
        <ele>2419.114</ele>
        <time>2021-08-06T09:57:28Z</time>
      </trkpt>
      <trkpt lat="42.61542" lon="1.73024">
        <ele>2419.681</ele>
        <time>2021-08-06T09:57:30Z</time>
      </trkpt>
      <trkpt lat="42.6154" lon="1.73024">
        <ele>2419.971</ele>
        <time>2021-08-06T09:57:32Z</time>
      </trkpt>
      <trkpt lat="42.61539" lon="1.73025">
        <ele>2420.478</ele>
        <time>2021-08-06T09:57:34Z</time>
      </trkpt>
      <trkpt lat="42.61538" lon="1.73025">
        <ele>2421.25</ele>
        <time>2021-08-06T09:57:36Z</time>
      </trkpt>
      <trkpt lat="42.61536" lon="1.73025">
        <ele>2422.317</ele>
        <time>2021-08-06T09:57:38Z</time>
      </trkpt>
      <trkpt lat="42.61535" lon="1.73024">
        <ele>2422.73</ele>
        <time>2021-08-06T09:57:40Z</time>
      </trkpt>
      <trkpt lat="42.61534" lon="1.73023">
        <ele>2422.767</ele>
        <time>2021-08-06T09:57:42Z</time>
      </trkpt>
      <trkpt lat="42.61533" lon="1.73021">
        <ele>2423.277</ele>
        <time>2021-08-06T09:57:44Z</time>
      </trkpt>
      <trkpt lat="42.61531" lon="1.73021">
        <ele>2423.935</ele>
        <time>2021-08-06T09:57:46Z</time>
      </trkpt>
      <trkpt lat="42.6153" lon="1.7302">
        <ele>2424.937</ele>
        <time>2021-08-06T09:57:48Z</time>
      </trkpt>
      <trkpt lat="42.61529" lon="1.73021">
        <ele>2426.021</ele>
        <time>2021-08-06T09:57:50Z</time>
      </trkpt>
      <trkpt lat="42.61528" lon="1.73022">
        <ele>2426.51</ele>
        <time>2021-08-06T09:57:52Z</time>
      </trkpt>
      <trkpt lat="42.61527" lon="1.73022">
        <ele>2427.653</ele>
        <time>2021-08-06T09:57:54Z</time>
      </trkpt>
      <trkpt lat="42.61526" lon="1.73023">
        <ele>2428.672</ele>
        <time>2021-08-06T09:57:56Z</time>
      </trkpt>
      <trkpt lat="42.61525" lon="1.73025">
        <ele>2428.398</ele>
        <time>2021-08-06T09:57:58Z</time>
      </trkpt>
      <trkpt lat="42.61525" lon="1.73027">
        <ele>2427.367</ele>
        <time>2021-08-06T09:58:00Z</time>
      </trkpt>
      <trkpt lat="42.61525" lon="1.73028">
        <ele>2427.131</ele>
        <time>2021-08-06T09:58:02Z</time>
      </trkpt>
      <trkpt lat="42.61524" lon="1.7303">
        <ele>2426.997</ele>
        <time>2021-08-06T09:58:04Z</time>
      </trkpt>
      <trkpt lat="42.61524" lon="1.73031">
        <ele>2427.588</ele>
        <time>2021-08-06T09:58:06Z</time>
      </trkpt>
      <trkpt lat="42.61523" lon="1.73031">
        <ele>2427.668</ele>
        <time>2021-08-06T09:58:08Z</time>
      </trkpt>
      <trkpt lat="42.61522" lon="1.73032">
        <ele>2428.639</ele>
        <time>2021-08-06T09:58:10Z</time>
      </trkpt>
      <trkpt lat="42.61521" lon="1.73033">
        <ele>2429.303</ele>
        <time>2021-08-06T09:58:12Z</time>
      </trkpt>
      <trkpt lat="42.6152" lon="1.73034">
        <ele>2429.922</ele>
        <time>2021-08-06T09:58:14Z</time>
      </trkpt>
      <trkpt lat="42.61519" lon="1.73035">
        <ele>2429.664</ele>
        <time>2021-08-06T09:58:16Z</time>
      </trkpt>
      <trkpt lat="42.61518" lon="1.73035">
        <ele>2430.563</ele>
        <time>2021-08-06T09:58:18Z</time>
      </trkpt>
      <trkpt lat="42.61518" lon="1.73035">
        <ele>2430.968</ele>
        <time>2021-08-06T09:58:20Z</time>
      </trkpt>
      <trkpt lat="42.61517" lon="1.73035">
        <ele>2430.792</ele>
        <time>2021-08-06T09:58:22Z</time>
      </trkpt>
      <trkpt lat="42.61516" lon="1.73035">
        <ele>2430.572</ele>
        <time>2021-08-06T09:58:24Z</time>
      </trkpt>
      <trkpt lat="42.61515" lon="1.73035">
        <ele>2430.794</ele>
        <time>2021-08-06T09:58:26Z</time>
      </trkpt>
      <trkpt lat="42.61514" lon="1.73035">
        <ele>2430.894</ele>
        <time>2021-08-06T09:58:28Z</time>
      </trkpt>
      <trkpt lat="42.61513" lon="1.73035">
        <ele>2432.169</ele>
        <time>2021-08-06T09:58:30Z</time>
      </trkpt>
      <trkpt lat="42.61512" lon="1.73035">
        <ele>2432.173</ele>
        <time>2021-08-06T09:58:32Z</time>
      </trkpt>
      <trkpt lat="42.61511" lon="1.73036">
        <ele>2430.322</ele>
        <time>2021-08-06T09:58:34Z</time>
      </trkpt>
      <trkpt lat="42.6151" lon="1.73036">
        <ele>2430.714</ele>
        <time>2021-08-06T09:58:36Z</time>
      </trkpt>
      <trkpt lat="42.61509" lon="1.73036">
        <ele>2431.387</ele>
        <time>2021-08-06T09:58:38Z</time>
      </trkpt>
      <trkpt lat="42.61508" lon="1.73036">
        <ele>2432.416</ele>
        <time>2021-08-06T09:58:40Z</time>
      </trkpt>
      <trkpt lat="42.61507" lon="1.73035">
        <ele>2432.873</ele>
        <time>2021-08-06T09:58:42Z</time>
      </trkpt>
      <trkpt lat="42.61507" lon="1.73036">
        <ele>2431.823</ele>
        <time>2021-08-06T09:58:44Z</time>
      </trkpt>
      <trkpt lat="42.61506" lon="1.73035">
        <ele>2433.011</ele>
        <time>2021-08-06T09:58:46Z</time>
      </trkpt>
      <trkpt lat="42.61505" lon="1.73035">
        <ele>2433.973</ele>
        <time>2021-08-06T09:58:48Z</time>
      </trkpt>
      <trkpt lat="42.61504" lon="1.73036">
        <ele>2434.702</ele>
        <time>2021-08-06T09:58:50Z</time>
      </trkpt>
      <trkpt lat="42.61504" lon="1.73037">
        <ele>2434.167</ele>
        <time>2021-08-06T09:58:52Z</time>
      </trkpt>
      <trkpt lat="42.61503" lon="1.73038">
        <ele>2435.05</ele>
        <time>2021-08-06T09:58:54Z</time>
      </trkpt>
      <trkpt lat="42.61502" lon="1.73039">
        <ele>2436.075</ele>
        <time>2021-08-06T09:58:56Z</time>
      </trkpt>
      <trkpt lat="42.61502" lon="1.7304">
        <ele>2436.558</ele>
        <time>2021-08-06T09:58:58Z</time>
      </trkpt>
      <trkpt lat="42.61501" lon="1.73041">
        <ele>2436.888</ele>
        <time>2021-08-06T09:59:00Z</time>
      </trkpt>
      <trkpt lat="42.615" lon="1.73041">
        <ele>2435.611</ele>
        <time>2021-08-06T09:59:02Z</time>
      </trkpt>
      <trkpt lat="42.615" lon="1.73041">
        <ele>2436.037</ele>
        <time>2021-08-06T09:59:04Z</time>
      </trkpt>
      <trkpt lat="42.61499" lon="1.73041">
        <ele>2435.151</ele>
        <time>2021-08-06T09:59:06Z</time>
      </trkpt>
      <trkpt lat="42.61498" lon="1.73041">
        <ele>2434.934</ele>
        <time>2021-08-06T09:59:08Z</time>
      </trkpt>
      <trkpt lat="42.61498" lon="1.7304">
        <ele>2435.446</ele>
        <time>2021-08-06T09:59:10Z</time>
      </trkpt>
      <trkpt lat="42.61497" lon="1.73039">
        <ele>2435.611</ele>
        <time>2021-08-06T09:59:12Z</time>
      </trkpt>
      <trkpt lat="42.61496" lon="1.73039">
        <ele>2435.377</ele>
        <time>2021-08-06T09:59:14Z</time>
      </trkpt>
      <trkpt lat="42.61495" lon="1.73039">
        <ele>2435.81</ele>
        <time>2021-08-06T09:59:16Z</time>
      </trkpt>
      <trkpt lat="42.61494" lon="1.7304">
        <ele>2436.43</ele>
        <time>2021-08-06T09:59:18Z</time>
      </trkpt>
      <trkpt lat="42.61494" lon="1.7304">
        <ele>2435.684</ele>
        <time>2021-08-06T09:59:20Z</time>
      </trkpt>
      <trkpt lat="42.61493" lon="1.7304">
        <ele>2435.945</ele>
        <time>2021-08-06T09:59:22Z</time>
      </trkpt>
      <trkpt lat="42.61492" lon="1.7304">
        <ele>2435.51</ele>
        <time>2021-08-06T09:59:24Z</time>
      </trkpt>
      <trkpt lat="42.61492" lon="1.7304">
        <ele>2435.444</ele>
        <time>2021-08-06T09:59:26Z</time>
      </trkpt>
      <trkpt lat="42.61491" lon="1.7304">
        <ele>2436.087</ele>
        <time>2021-08-06T09:59:28Z</time>
      </trkpt>
      <trkpt lat="42.61491" lon="1.73041">
        <ele>2436.3</ele>
        <time>2021-08-06T09:59:30Z</time>
      </trkpt>
      <trkpt lat="42.61491" lon="1.7304">
        <ele>2436.529</ele>
        <time>2021-08-06T09:59:32Z</time>
      </trkpt>
      <trkpt lat="42.6149" lon="1.73041">
        <ele>2436.928</ele>
        <time>2021-08-06T09:59:34Z</time>
      </trkpt>
      <trkpt lat="42.6149" lon="1.7304">
        <ele>2437.754</ele>
        <time>2021-08-06T09:59:36Z</time>
      </trkpt>
      <trkpt lat="42.61489" lon="1.73041">
        <ele>2437.714</ele>
        <time>2021-08-06T09:59:38Z</time>
      </trkpt>
      <trkpt lat="42.61488" lon="1.7304">
        <ele>2437.289</ele>
        <time>2021-08-06T09:59:40Z</time>
      </trkpt>
      <trkpt lat="42.61487" lon="1.7304">
        <ele>2437.314</ele>
        <time>2021-08-06T09:59:42Z</time>
      </trkpt>
      <trkpt lat="42.61486" lon="1.7304">
        <ele>2437.712</ele>
        <time>2021-08-06T09:59:44Z</time>
      </trkpt>
      <trkpt lat="42.61486" lon="1.7304">
        <ele>2438.3</ele>
        <time>2021-08-06T09:59:46Z</time>
      </trkpt>
      <trkpt lat="42.61486" lon="1.7304">
        <ele>2438.227</ele>
        <time>2021-08-06T09:59:48Z</time>
      </trkpt>
      <trkpt lat="42.61486" lon="1.73041">
        <ele>2438.205</ele>
        <time>2021-08-06T09:59:50Z</time>
      </trkpt>
      <trkpt lat="42.61484" lon="1.7304">
        <ele>2438.89</ele>
        <time>2021-08-06T09:59:52Z</time>
      </trkpt>
      <trkpt lat="42.61483" lon="1.73039">
        <ele>2439.322</ele>
        <time>2021-08-06T09:59:54Z</time>
      </trkpt>
      <trkpt lat="42.61482" lon="1.73038">
        <ele>2439.739</ele>
        <time>2021-08-06T09:59:56Z</time>
      </trkpt>
      <trkpt lat="42.61481" lon="1.73038">
        <ele>2439.214</ele>
        <time>2021-08-06T09:59:58Z</time>
      </trkpt>
      <trkpt lat="42.61481" lon="1.73037">
        <ele>2439.91</ele>
        <time>2021-08-06T10:00:00Z</time>
      </trkpt>
      <trkpt lat="42.6148" lon="1.73036">
        <ele>2440.226</ele>
        <time>2021-08-06T10:00:02Z</time>
      </trkpt>
      <trkpt lat="42.6148" lon="1.73036">
        <ele>2440.014</ele>
        <time>2021-08-06T10:00:04Z</time>
      </trkpt>
      <trkpt lat="42.61479" lon="1.73035">
        <ele>2440.811</ele>
        <time>2021-08-06T10:00:06Z</time>
      </trkpt>
      <trkpt lat="42.61478" lon="1.73035">
        <ele>2441.477</ele>
        <time>2021-08-06T10:00:08Z</time>
      </trkpt>
      <trkpt lat="42.61478" lon="1.73034">
        <ele>2441.674</ele>
        <time>2021-08-06T10:00:10Z</time>
      </trkpt>
      <trkpt lat="42.61477" lon="1.73033">
        <ele>2442.594</ele>
        <time>2021-08-06T10:00:12Z</time>
      </trkpt>
      <trkpt lat="42.61476" lon="1.73033">
        <ele>2443.022</ele>
        <time>2021-08-06T10:00:14Z</time>
      </trkpt>
      <trkpt lat="42.61475" lon="1.73032">
        <ele>2443.647</ele>
        <time>2021-08-06T10:00:16Z</time>
      </trkpt>
      <trkpt lat="42.61474" lon="1.73031">
        <ele>2443.611</ele>
        <time>2021-08-06T10:00:18Z</time>
      </trkpt>
      <trkpt lat="42.61473" lon="1.73031">
        <ele>2444.48</ele>
        <time>2021-08-06T10:00:20Z</time>
      </trkpt>
      <trkpt lat="42.61472" lon="1.7303">
        <ele>2445.341</ele>
        <time>2021-08-06T10:00:22Z</time>
      </trkpt>
      <trkpt lat="42.61471" lon="1.73029">
        <ele>2445.036</ele>
        <time>2021-08-06T10:00:24Z</time>
      </trkpt>
      <trkpt lat="42.61471" lon="1.73028">
        <ele>2444.476</ele>
        <time>2021-08-06T10:00:26Z</time>
      </trkpt>
      <trkpt lat="42.6147" lon="1.73027">
        <ele>2444.57</ele>
        <time>2021-08-06T10:00:28Z</time>
      </trkpt>
      <trkpt lat="42.61468" lon="1.73027">
        <ele>2444.328</ele>
        <time>2021-08-06T10:00:30Z</time>
      </trkpt>
      <trkpt lat="42.61467" lon="1.73028">
        <ele>2444.738</ele>
        <time>2021-08-06T10:00:32Z</time>
      </trkpt>
      <trkpt lat="42.61466" lon="1.73028">
        <ele>2445.311</ele>
        <time>2021-08-06T10:00:34Z</time>
      </trkpt>
      <trkpt lat="42.61465" lon="1.73027">
        <ele>2445.351</ele>
        <time>2021-08-06T10:00:37Z</time>
      </trkpt>
      <trkpt lat="42.61464" lon="1.73027">
        <ele>2445.341</ele>
        <time>2021-08-06T10:00:39Z</time>
      </trkpt>
      <trkpt lat="42.61463" lon="1.73026">
        <ele>2445.572</ele>
        <time>2021-08-06T10:00:41Z</time>
      </trkpt>
      <trkpt lat="42.61462" lon="1.73024">
        <ele>2445.946</ele>
        <time>2021-08-06T10:00:43Z</time>
      </trkpt>
      <trkpt lat="42.61461" lon="1.73023">
        <ele>2445.939</ele>
        <time>2021-08-06T10:00:45Z</time>
      </trkpt>
      <trkpt lat="42.61461" lon="1.73023">
        <ele>2445.831</ele>
        <time>2021-08-06T10:00:47Z</time>
      </trkpt>
      <trkpt lat="42.61461" lon="1.73023">
        <ele>2445.82</ele>
        <time>2021-08-06T10:00:49Z</time>
      </trkpt>
      <trkpt lat="42.61461" lon="1.73022">
        <ele>2445.808</ele>
        <time>2021-08-06T10:00:51Z</time>
      </trkpt>
      <trkpt lat="42.6146" lon="1.73023">
        <ele>2446.059</ele>
        <time>2021-08-06T10:00:53Z</time>
      </trkpt>
      <trkpt lat="42.6146" lon="1.73022">
        <ele>2446.028</ele>
        <time>2021-08-06T10:00:55Z</time>
      </trkpt>
      <trkpt lat="42.61459" lon="1.73021">
        <ele>2446.44</ele>
        <time>2021-08-06T10:00:57Z</time>
      </trkpt>
      <trkpt lat="42.61458" lon="1.7302">
        <ele>2447.341</ele>
        <time>2021-08-06T10:00:59Z</time>
      </trkpt>
      <trkpt lat="42.61456" lon="1.7302">
        <ele>2447.403</ele>
        <time>2021-08-06T10:01:01Z</time>
      </trkpt>
      <trkpt lat="42.61455" lon="1.73019">
        <ele>2447.842</ele>
        <time>2021-08-06T10:01:03Z</time>
      </trkpt>
      <trkpt lat="42.61454" lon="1.73019">
        <ele>2447.962</ele>
        <time>2021-08-06T10:01:05Z</time>
      </trkpt>
      <trkpt lat="42.61452" lon="1.73019">
        <ele>2448.463</ele>
        <time>2021-08-06T10:01:07Z</time>
      </trkpt>
      <trkpt lat="42.61451" lon="1.73018">
        <ele>2448.739</ele>
        <time>2021-08-06T10:01:09Z</time>
      </trkpt>
      <trkpt lat="42.6145" lon="1.73017">
        <ele>2448.658</ele>
        <time>2021-08-06T10:01:11Z</time>
      </trkpt>
      <trkpt lat="42.61448" lon="1.73017">
        <ele>2448.452</ele>
        <time>2021-08-06T10:01:13Z</time>
      </trkpt>
      <trkpt lat="42.61447" lon="1.73016">
        <ele>2448.734</ele>
        <time>2021-08-06T10:01:15Z</time>
      </trkpt>
      <trkpt lat="42.61447" lon="1.73016">
        <ele>2447.674</ele>
        <time>2021-08-06T10:01:17Z</time>
      </trkpt>
      <trkpt lat="42.61447" lon="1.73016">
        <ele>2447.69</ele>
        <time>2021-08-06T10:01:19Z</time>
      </trkpt>
      <trkpt lat="42.61447" lon="1.73016">
        <ele>2447.603</ele>
        <time>2021-08-06T10:01:21Z</time>
      </trkpt>
      <trkpt lat="42.61447" lon="1.73017">
        <ele>2447.622</ele>
        <time>2021-08-06T10:01:23Z</time>
      </trkpt>
      <trkpt lat="42.61447" lon="1.73017">
        <ele>2447.748</ele>
        <time>2021-08-06T10:01:25Z</time>
      </trkpt>
      <trkpt lat="42.61447" lon="1.73017">
        <ele>2447.747</ele>
        <time>2021-08-06T10:01:27Z</time>
      </trkpt>
      <trkpt lat="42.61447" lon="1.73017">
        <ele>2447.747</ele>
        <time>2021-08-06T10:01:29Z</time>
      </trkpt>
      <trkpt lat="42.61447" lon="1.73017">
        <ele>2447.751</ele>
        <time>2021-08-06T10:01:31Z</time>
      </trkpt>
      <trkpt lat="42.61447" lon="1.73017">
        <ele>2447.749</ele>
        <time>2021-08-06T10:01:33Z</time>
      </trkpt>
      <trkpt lat="42.61447" lon="1.73017">
        <ele>2447.746</ele>
        <time>2021-08-06T10:01:35Z</time>
      </trkpt>
      <trkpt lat="42.61447" lon="1.73017">
        <ele>2447.754</ele>
        <time>2021-08-06T10:01:37Z</time>
      </trkpt>
      <trkpt lat="42.61447" lon="1.73017">
        <ele>2447.609</ele>
        <time>2021-08-06T10:01:39Z</time>
      </trkpt>
      <trkpt lat="42.61447" lon="1.73017">
        <ele>2447.688</ele>
        <time>2021-08-06T10:01:41Z</time>
      </trkpt>
      <trkpt lat="42.61447" lon="1.73017">
        <ele>2447.695</ele>
        <time>2021-08-06T10:01:43Z</time>
      </trkpt>
      <trkpt lat="42.61448" lon="1.73017">
        <ele>2447.625</ele>
        <time>2021-08-06T10:01:45Z</time>
      </trkpt>
      <trkpt lat="42.61448" lon="1.73018">
        <ele>2447.869</ele>
        <time>2021-08-06T10:01:47Z</time>
      </trkpt>
      <trkpt lat="42.61447" lon="1.73018">
        <ele>2447.874</ele>
        <time>2021-08-06T10:01:49Z</time>
      </trkpt>
      <trkpt lat="42.61447" lon="1.73018">
        <ele>2447.871</ele>
        <time>2021-08-06T10:01:51Z</time>
      </trkpt>
      <trkpt lat="42.61447" lon="1.73018">
        <ele>2447.87</ele>
        <time>2021-08-06T10:01:53Z</time>
      </trkpt>
      <trkpt lat="42.61447" lon="1.73018">
        <ele>2447.869</ele>
        <time>2021-08-06T10:01:55Z</time>
      </trkpt>
      <trkpt lat="42.61448" lon="1.73018">
        <ele>2448.113</ele>
        <time>2021-08-06T10:01:57Z</time>
      </trkpt>
      <trkpt lat="42.61448" lon="1.73018">
        <ele>2448.337</ele>
        <time>2021-08-06T10:01:59Z</time>
      </trkpt>
      <trkpt lat="42.61448" lon="1.73018">
        <ele>2448.335</ele>
        <time>2021-08-06T10:02:01Z</time>
      </trkpt>
      <trkpt lat="42.61448" lon="1.73018">
        <ele>2448.184</ele>
        <time>2021-08-06T10:02:03Z</time>
      </trkpt>
      <trkpt lat="42.61447" lon="1.73018">
        <ele>2448.75</ele>
        <time>2021-08-06T10:02:05Z</time>
      </trkpt>
      <trkpt lat="42.61447" lon="1.73018">
        <ele>2448.58</ele>
        <time>2021-08-06T10:02:07Z</time>
      </trkpt>
      <trkpt lat="42.61447" lon="1.73018">
        <ele>2448.596</ele>
        <time>2021-08-06T10:02:09Z</time>
      </trkpt>
      <trkpt lat="42.61447" lon="1.73018">
        <ele>2448.597</ele>
        <time>2021-08-06T10:02:11Z</time>
      </trkpt>
      <trkpt lat="42.61447" lon="1.73018">
        <ele>2448.394</ele>
        <time>2021-08-06T10:02:13Z</time>
      </trkpt>
      <trkpt lat="42.61448" lon="1.73018">
        <ele>2448.145</ele>
        <time>2021-08-06T10:02:15Z</time>
      </trkpt>
      <trkpt lat="42.61447" lon="1.73018">
        <ele>2448.142</ele>
        <time>2021-08-06T10:02:17Z</time>
      </trkpt>
      <trkpt lat="42.61447" lon="1.73018">
        <ele>2448.142</ele>
        <time>2021-08-06T10:02:19Z</time>
      </trkpt>
      <trkpt lat="42.61447" lon="1.73018">
        <ele>2448.142</ele>
        <time>2021-08-06T10:02:21Z</time>
      </trkpt>
      <trkpt lat="42.61448" lon="1.73018">
        <ele>2448.197</ele>
        <time>2021-08-06T10:02:23Z</time>
      </trkpt>
      <trkpt lat="42.61448" lon="1.73018">
        <ele>2448.433</ele>
        <time>2021-08-06T10:02:25Z</time>
      </trkpt>
      <trkpt lat="42.61448" lon="1.73018">
        <ele>2448.435</ele>
        <time>2021-08-06T10:02:27Z</time>
      </trkpt>
      <trkpt lat="42.61448" lon="1.73018">
        <ele>2448.427</ele>
        <time>2021-08-06T10:02:29Z</time>
      </trkpt>
      <trkpt lat="42.61448" lon="1.73018">
        <ele>2447.998</ele>
        <time>2021-08-06T10:02:31Z</time>
      </trkpt>
      <trkpt lat="42.61448" lon="1.73018">
        <ele>2447.746</ele>
        <time>2021-08-06T10:02:33Z</time>
      </trkpt>
      <trkpt lat="42.61448" lon="1.73017">
        <ele>2447.313</ele>
        <time>2021-08-06T10:02:35Z</time>
      </trkpt>
      <trkpt lat="42.61448" lon="1.73018">
        <ele>2447.313</ele>
        <time>2021-08-06T10:02:37Z</time>
      </trkpt>
      <trkpt lat="42.61448" lon="1.73018">
        <ele>2447.263</ele>
        <time>2021-08-06T10:02:39Z</time>
      </trkpt>
      <trkpt lat="42.61448" lon="1.73018">
        <ele>2447.091</ele>
        <time>2021-08-06T10:02:41Z</time>
      </trkpt>
      <trkpt lat="42.61448" lon="1.73018">
        <ele>2446.924</ele>
        <time>2021-08-06T10:02:43Z</time>
      </trkpt>
      <trkpt lat="42.61448" lon="1.73018">
        <ele>2446.987</ele>
        <time>2021-08-06T10:02:45Z</time>
      </trkpt>
      <trkpt lat="42.61448" lon="1.73018">
        <ele>2447.004</ele>
        <time>2021-08-06T10:02:47Z</time>
      </trkpt>
      <trkpt lat="42.61448" lon="1.73018">
        <ele>2447.013</ele>
        <time>2021-08-06T10:02:49Z</time>
      </trkpt>
      <trkpt lat="42.61448" lon="1.73018">
        <ele>2447.017</ele>
        <time>2021-08-06T10:02:51Z</time>
      </trkpt>
      <trkpt lat="42.61448" lon="1.73018">
        <ele>2447.019</ele>
        <time>2021-08-06T10:02:53Z</time>
      </trkpt>
      <trkpt lat="42.61448" lon="1.73018">
        <ele>2447.026</ele>
        <time>2021-08-06T10:02:55Z</time>
      </trkpt>
      <trkpt lat="42.61448" lon="1.73018">
        <ele>2447.308</ele>
        <time>2021-08-06T10:02:57Z</time>
      </trkpt>
      <trkpt lat="42.61448" lon="1.73018">
        <ele>2447.334</ele>
        <time>2021-08-06T10:02:59Z</time>
      </trkpt>
      <trkpt lat="42.61448" lon="1.73018">
        <ele>2447.345</ele>
        <time>2021-08-06T10:03:01Z</time>
      </trkpt>
      <trkpt lat="42.61449" lon="1.73019">
        <ele>2447.163</ele>
        <time>2021-08-06T10:03:03Z</time>
      </trkpt>
      <trkpt lat="42.61449" lon="1.73019">
        <ele>2446.898</ele>
        <time>2021-08-06T10:03:05Z</time>
      </trkpt>
      <trkpt lat="42.61449" lon="1.73019">
        <ele>2447.052</ele>
        <time>2021-08-06T10:03:07Z</time>
      </trkpt>
      <trkpt lat="42.61448" lon="1.73018">
        <ele>2446.881</ele>
        <time>2021-08-06T10:03:09Z</time>
      </trkpt>
      <trkpt lat="42.61448" lon="1.73018">
        <ele>2447.057</ele>
        <time>2021-08-06T10:03:11Z</time>
      </trkpt>
      <trkpt lat="42.61448" lon="1.73018">
        <ele>2447.042</ele>
        <time>2021-08-06T10:03:13Z</time>
      </trkpt>
      <trkpt lat="42.61448" lon="1.73018">
        <ele>2447.041</ele>
        <time>2021-08-06T10:03:15Z</time>
      </trkpt>
      <trkpt lat="42.61448" lon="1.73018">
        <ele>2447.04</ele>
        <time>2021-08-06T10:03:17Z</time>
      </trkpt>
      <trkpt lat="42.61448" lon="1.73018">
        <ele>2447.039</ele>
        <time>2021-08-06T10:03:19Z</time>
      </trkpt>
      <trkpt lat="42.61448" lon="1.73019">
        <ele>2447.258</ele>
        <time>2021-08-06T10:03:21Z</time>
      </trkpt>
      <trkpt lat="42.61448" lon="1.7302">
        <ele>2447.194</ele>
        <time>2021-08-06T10:03:23Z</time>
      </trkpt>
      <trkpt lat="42.61448" lon="1.7302">
        <ele>2447.189</ele>
        <time>2021-08-06T10:03:25Z</time>
      </trkpt>
      <trkpt lat="42.61449" lon="1.7302">
        <ele>2446.921</ele>
        <time>2021-08-06T10:03:27Z</time>
      </trkpt>
      <trkpt lat="42.6145" lon="1.7302">
        <ele>2446.608</ele>
        <time>2021-08-06T10:03:29Z</time>
      </trkpt>
      <trkpt lat="42.6145" lon="1.7302">
        <ele>2446.741</ele>
        <time>2021-08-06T10:03:31Z</time>
      </trkpt>
      <trkpt lat="42.6145" lon="1.73019">
        <ele>2446.743</ele>
        <time>2021-08-06T10:03:33Z</time>
      </trkpt>
      <trkpt lat="42.6145" lon="1.73019">
        <ele>2446.743</ele>
        <time>2021-08-06T10:03:35Z</time>
      </trkpt>
      <trkpt lat="42.6145" lon="1.73019">
        <ele>2446.742</ele>
        <time>2021-08-06T10:03:37Z</time>
      </trkpt>
      <trkpt lat="42.6145" lon="1.73019">
        <ele>2446.739</ele>
        <time>2021-08-06T10:03:39Z</time>
      </trkpt>
      <trkpt lat="42.6145" lon="1.73019">
        <ele>2446.74</ele>
        <time>2021-08-06T10:03:41Z</time>
      </trkpt>
      <trkpt lat="42.6145" lon="1.73019">
        <ele>2446.741</ele>
        <time>2021-08-06T10:03:43Z</time>
      </trkpt>
      <trkpt lat="42.6145" lon="1.73019">
        <ele>2446.742</ele>
        <time>2021-08-06T10:03:45Z</time>
      </trkpt>
      <trkpt lat="42.6145" lon="1.73019">
        <ele>2446.741</ele>
        <time>2021-08-06T10:03:47Z</time>
      </trkpt>
      <trkpt lat="42.6145" lon="1.73019">
        <ele>2446.743</ele>
        <time>2021-08-06T10:03:49Z</time>
      </trkpt>
      <trkpt lat="42.6145" lon="1.73019">
        <ele>2446.958</ele>
        <time>2021-08-06T10:03:51Z</time>
      </trkpt>
      <trkpt lat="42.6145" lon="1.73018">
        <ele>2446.946</ele>
        <time>2021-08-06T10:03:53Z</time>
      </trkpt>
      <trkpt lat="42.61449" lon="1.73017">
        <ele>2447.121</ele>
        <time>2021-08-06T10:03:55Z</time>
      </trkpt>
      <trkpt lat="42.61448" lon="1.73017">
        <ele>2447.315</ele>
        <time>2021-08-06T10:03:57Z</time>
      </trkpt>
      <trkpt lat="42.61448" lon="1.73017">
        <ele>2447.308</ele>
        <time>2021-08-06T10:03:59Z</time>
      </trkpt>
      <trkpt lat="42.61448" lon="1.73017">
        <ele>2447.303</ele>
        <time>2021-08-06T10:04:01Z</time>
      </trkpt>
      <trkpt lat="42.61448" lon="1.73017">
        <ele>2447.303</ele>
        <time>2021-08-06T10:04:03Z</time>
      </trkpt>
      <trkpt lat="42.61448" lon="1.73017">
        <ele>2447.299</ele>
        <time>2021-08-06T10:04:05Z</time>
      </trkpt>
      <trkpt lat="42.61448" lon="1.73017">
        <ele>2447.295</ele>
        <time>2021-08-06T10:04:07Z</time>
      </trkpt>
      <trkpt lat="42.61449" lon="1.73016">
        <ele>2447.218</ele>
        <time>2021-08-06T10:04:09Z</time>
      </trkpt>
      <trkpt lat="42.61449" lon="1.73017">
        <ele>2447.658</ele>
        <time>2021-08-06T10:04:11Z</time>
      </trkpt>
      <trkpt lat="42.6145" lon="1.73017">
        <ele>2447.659</ele>
        <time>2021-08-06T10:04:13Z</time>
      </trkpt>
      <trkpt lat="42.6145" lon="1.73017">
        <ele>2447.647</ele>
        <time>2021-08-06T10:04:15Z</time>
      </trkpt>
      <trkpt lat="42.6145" lon="1.73018">
        <ele>2447.775</ele>
        <time>2021-08-06T10:04:17Z</time>
      </trkpt>
      <trkpt lat="42.6145" lon="1.73019">
        <ele>2447.79</ele>
        <time>2021-08-06T10:04:19Z</time>
      </trkpt>
      <trkpt lat="42.61451" lon="1.73018">
        <ele>2447.896</ele>
        <time>2021-08-06T10:04:21Z</time>
      </trkpt>
      <trkpt lat="42.61451" lon="1.73018">
        <ele>2447.899</ele>
        <time>2021-08-06T10:04:23Z</time>
      </trkpt>
      <trkpt lat="42.61451" lon="1.73018">
        <ele>2447.899</ele>
        <time>2021-08-06T10:04:25Z</time>
      </trkpt>
      <trkpt lat="42.61451" lon="1.73019">
        <ele>2447.61</ele>
        <time>2021-08-06T10:04:27Z</time>
      </trkpt>
      <trkpt lat="42.61452" lon="1.73019">
        <ele>2447.448</ele>
        <time>2021-08-06T10:04:29Z</time>
      </trkpt>
      <trkpt lat="42.61452" lon="1.73019">
        <ele>2447.674</ele>
        <time>2021-08-06T10:04:31Z</time>
      </trkpt>
      <trkpt lat="42.61452" lon="1.73019">
        <ele>2447.674</ele>
        <time>2021-08-06T10:04:33Z</time>
      </trkpt>
      <trkpt lat="42.61452" lon="1.73019">
        <ele>2447.672</ele>
        <time>2021-08-06T10:04:35Z</time>
      </trkpt>
      <trkpt lat="42.61452" lon="1.73019">
        <ele>2447.532</ele>
        <time>2021-08-06T10:04:37Z</time>
      </trkpt>
      <trkpt lat="42.61452" lon="1.73019">
        <ele>2447.536</ele>
        <time>2021-08-06T10:04:39Z</time>
      </trkpt>
      <trkpt lat="42.61452" lon="1.73019">
        <ele>2447.469</ele>
        <time>2021-08-06T10:04:41Z</time>
      </trkpt>
      <trkpt lat="42.61452" lon="1.73019">
        <ele>2447.456</ele>
        <time>2021-08-06T10:04:43Z</time>
      </trkpt>
      <trkpt lat="42.61452" lon="1.73019">
        <ele>2447.46</ele>
        <time>2021-08-06T10:04:45Z</time>
      </trkpt>
      <trkpt lat="42.61452" lon="1.73019">
        <ele>2447.458</ele>
        <time>2021-08-06T10:04:47Z</time>
      </trkpt>
      <trkpt lat="42.61453" lon="1.73018">
        <ele>2447.159</ele>
        <time>2021-08-06T10:04:50Z</time>
      </trkpt>
      <trkpt lat="42.61453" lon="1.73018">
        <ele>2447.165</ele>
        <time>2021-08-06T10:04:52Z</time>
      </trkpt>
      <trkpt lat="42.61453" lon="1.73018">
        <ele>2447.17</ele>
        <time>2021-08-06T10:04:54Z</time>
      </trkpt>
      <trkpt lat="42.61454" lon="1.73018">
        <ele>2446.998</ele>
        <time>2021-08-06T10:04:56Z</time>
      </trkpt>
      <trkpt lat="42.61454" lon="1.73019">
        <ele>2446.674</ele>
        <time>2021-08-06T10:04:58Z</time>
      </trkpt>
      <trkpt lat="42.61454" lon="1.73019">
        <ele>2446.695</ele>
        <time>2021-08-06T10:05:00Z</time>
      </trkpt>
      <trkpt lat="42.61454" lon="1.73019">
        <ele>2446.817</ele>
        <time>2021-08-06T10:05:02Z</time>
      </trkpt>
      <trkpt lat="42.61454" lon="1.73019">
        <ele>2446.813</ele>
        <time>2021-08-06T10:05:04Z</time>
      </trkpt>
      <trkpt lat="42.61454" lon="1.73019">
        <ele>2446.808</ele>
        <time>2021-08-06T10:05:06Z</time>
      </trkpt>
      <trkpt lat="42.61454" lon="1.73019">
        <ele>2446.81</ele>
        <time>2021-08-06T10:05:08Z</time>
      </trkpt>
      <trkpt lat="42.61454" lon="1.73019">
        <ele>2447.164</ele>
        <time>2021-08-06T10:05:10Z</time>
      </trkpt>
      <trkpt lat="42.61454" lon="1.73019">
        <ele>2447.165</ele>
        <time>2021-08-06T10:05:12Z</time>
      </trkpt>
      <trkpt lat="42.61454" lon="1.73019">
        <ele>2447.167</ele>
        <time>2021-08-06T10:05:14Z</time>
      </trkpt>
      <trkpt lat="42.61454" lon="1.73019">
        <ele>2447.166</ele>
        <time>2021-08-06T10:05:16Z</time>
      </trkpt>
      <trkpt lat="42.61454" lon="1.73019">
        <ele>2447.01</ele>
        <time>2021-08-06T10:05:18Z</time>
      </trkpt>
      <trkpt lat="42.61454" lon="1.73019">
        <ele>2447.012</ele>
        <time>2021-08-06T10:05:20Z</time>
      </trkpt>
      <trkpt lat="42.61454" lon="1.73019">
        <ele>2447.012</ele>
        <time>2021-08-06T10:05:22Z</time>
      </trkpt>
      <trkpt lat="42.61454" lon="1.73019">
        <ele>2447.013</ele>
        <time>2021-08-06T10:05:24Z</time>
      </trkpt>
      <trkpt lat="42.61454" lon="1.73019">
        <ele>2447.012</ele>
        <time>2021-08-06T10:05:26Z</time>
      </trkpt>
      <trkpt lat="42.61454" lon="1.73019">
        <ele>2446.925</ele>
        <time>2021-08-06T10:05:28Z</time>
      </trkpt>
      <trkpt lat="42.61454" lon="1.73019">
        <ele>2446.804</ele>
        <time>2021-08-06T10:05:30Z</time>
      </trkpt>
      <trkpt lat="42.61454" lon="1.73019">
        <ele>2446.807</ele>
        <time>2021-08-06T10:05:32Z</time>
      </trkpt>
      <trkpt lat="42.61454" lon="1.73019">
        <ele>2446.808</ele>
        <time>2021-08-06T10:05:34Z</time>
      </trkpt>
      <trkpt lat="42.61454" lon="1.73019">
        <ele>2446.401</ele>
        <time>2021-08-06T10:05:36Z</time>
      </trkpt>
      <trkpt lat="42.61454" lon="1.73019">
        <ele>2446.403</ele>
        <time>2021-08-06T10:05:38Z</time>
      </trkpt>
      <trkpt lat="42.61454" lon="1.73019">
        <ele>2446.405</ele>
        <time>2021-08-06T10:05:40Z</time>
      </trkpt>
      <trkpt lat="42.61454" lon="1.73019">
        <ele>2446.408</ele>
        <time>2021-08-06T10:05:42Z</time>
      </trkpt>
      <trkpt lat="42.61454" lon="1.73019">
        <ele>2446.415</ele>
        <time>2021-08-06T10:05:44Z</time>
      </trkpt>
      <trkpt lat="42.61454" lon="1.73019">
        <ele>2446.506</ele>
        <time>2021-08-06T10:05:46Z</time>
      </trkpt>
      <trkpt lat="42.61454" lon="1.7302">
        <ele>2446.098</ele>
        <time>2021-08-06T10:05:48Z</time>
      </trkpt>
      <trkpt lat="42.61454" lon="1.7302">
        <ele>2446.268</ele>
        <time>2021-08-06T10:05:50Z</time>
      </trkpt>
      <trkpt lat="42.61454" lon="1.7302">
        <ele>2446.269</ele>
        <time>2021-08-06T10:05:52Z</time>
      </trkpt>
      <trkpt lat="42.61454" lon="1.7302">
        <ele>2446.271</ele>
        <time>2021-08-06T10:05:54Z</time>
      </trkpt>
      <trkpt lat="42.61454" lon="1.7302">
        <ele>2446.131</ele>
        <time>2021-08-06T10:05:56Z</time>
      </trkpt>
      <trkpt lat="42.61454" lon="1.7302">
        <ele>2446.128</ele>
        <time>2021-08-06T10:05:58Z</time>
      </trkpt>
      <trkpt lat="42.61454" lon="1.7302">
        <ele>2446.127</ele>
        <time>2021-08-06T10:06:00Z</time>
      </trkpt>
      <trkpt lat="42.61454" lon="1.7302">
        <ele>2446.129</ele>
        <time>2021-08-06T10:06:02Z</time>
      </trkpt>
      <trkpt lat="42.61454" lon="1.7302">
        <ele>2446.13</ele>
        <time>2021-08-06T10:06:04Z</time>
      </trkpt>
      <trkpt lat="42.61454" lon="1.7302">
        <ele>2446.133</ele>
        <time>2021-08-06T10:06:06Z</time>
      </trkpt>
      <trkpt lat="42.61454" lon="1.7302">
        <ele>2446.136</ele>
        <time>2021-08-06T10:06:08Z</time>
      </trkpt>
      <trkpt lat="42.61454" lon="1.7302">
        <ele>2446.138</ele>
        <time>2021-08-06T10:06:10Z</time>
      </trkpt>
      <trkpt lat="42.61454" lon="1.7302">
        <ele>2446.134</ele>
        <time>2021-08-06T10:06:12Z</time>
      </trkpt>
      <trkpt lat="42.61454" lon="1.7302">
        <ele>2446.133</ele>
        <time>2021-08-06T10:06:14Z</time>
      </trkpt>
      <trkpt lat="42.61454" lon="1.7302">
        <ele>2446.135</ele>
        <time>2021-08-06T10:06:16Z</time>
      </trkpt>
      <trkpt lat="42.61454" lon="1.7302">
        <ele>2446.135</ele>
        <time>2021-08-06T10:06:18Z</time>
      </trkpt>
      <trkpt lat="42.61454" lon="1.7302">
        <ele>2446.134</ele>
        <time>2021-08-06T10:06:20Z</time>
      </trkpt>
      <trkpt lat="42.61454" lon="1.7302">
        <ele>2446.136</ele>
        <time>2021-08-06T10:06:22Z</time>
      </trkpt>
      <trkpt lat="42.61454" lon="1.7302">
        <ele>2446.135</ele>
        <time>2021-08-06T10:06:24Z</time>
      </trkpt>
      <trkpt lat="42.61454" lon="1.7302">
        <ele>2446.135</ele>
        <time>2021-08-06T10:06:26Z</time>
      </trkpt>
      <trkpt lat="42.61454" lon="1.7302">
        <ele>2446.136</ele>
        <time>2021-08-06T10:06:28Z</time>
      </trkpt>
      <trkpt lat="42.61454" lon="1.7302">
        <ele>2446.134</ele>
        <time>2021-08-06T10:06:30Z</time>
      </trkpt>
      <trkpt lat="42.61454" lon="1.7302">
        <ele>2446.133</ele>
        <time>2021-08-06T10:06:32Z</time>
      </trkpt>
      <trkpt lat="42.61454" lon="1.7302">
        <ele>2446.132</ele>
        <time>2021-08-06T10:06:34Z</time>
      </trkpt>
      <trkpt lat="42.61454" lon="1.7302">
        <ele>2446.131</ele>
        <time>2021-08-06T10:06:36Z</time>
      </trkpt>
      <trkpt lat="42.61454" lon="1.7302">
        <ele>2446.13</ele>
        <time>2021-08-06T10:06:38Z</time>
      </trkpt>
      <trkpt lat="42.61454" lon="1.7302">
        <ele>2446.474</ele>
        <time>2021-08-06T10:06:40Z</time>
      </trkpt>
      <trkpt lat="42.61454" lon="1.7302">
        <ele>2446.479</ele>
        <time>2021-08-06T10:06:42Z</time>
      </trkpt>
      <trkpt lat="42.61454" lon="1.7302">
        <ele>2446.479</ele>
        <time>2021-08-06T10:06:44Z</time>
      </trkpt>
      <trkpt lat="42.61454" lon="1.7302">
        <ele>2446.481</ele>
        <time>2021-08-06T10:06:46Z</time>
      </trkpt>
      <trkpt lat="42.61454" lon="1.7302">
        <ele>2446.484</ele>
        <time>2021-08-06T10:06:48Z</time>
      </trkpt>
      <trkpt lat="42.61454" lon="1.7302">
        <ele>2446.489</ele>
        <time>2021-08-06T10:06:50Z</time>
      </trkpt>
      <trkpt lat="42.61454" lon="1.7302">
        <ele>2446.488</ele>
        <time>2021-08-06T10:06:52Z</time>
      </trkpt>
      <trkpt lat="42.61454" lon="1.7302">
        <ele>2446.488</ele>
        <time>2021-08-06T10:06:54Z</time>
      </trkpt>
      <trkpt lat="42.61454" lon="1.7302">
        <ele>2446.488</ele>
        <time>2021-08-06T10:06:56Z</time>
      </trkpt>
      <trkpt lat="42.61454" lon="1.7302">
        <ele>2446.49</ele>
        <time>2021-08-06T10:06:58Z</time>
      </trkpt>
      <trkpt lat="42.61454" lon="1.7302">
        <ele>2446.493</ele>
        <time>2021-08-06T10:07:00Z</time>
      </trkpt>
      <trkpt lat="42.61454" lon="1.7302">
        <ele>2446.704</ele>
        <time>2021-08-06T10:07:02Z</time>
      </trkpt>
      <trkpt lat="42.61454" lon="1.7302">
        <ele>2446.701</ele>
        <time>2021-08-06T10:07:04Z</time>
      </trkpt>
      <trkpt lat="42.61452" lon="1.7302">
        <ele>2446.355</ele>
        <time>2021-08-06T10:07:06Z</time>
      </trkpt>
      <trkpt lat="42.61451" lon="1.73019">
        <ele>2446.27</ele>
        <time>2021-08-06T10:07:08Z</time>
      </trkpt>
      <trkpt lat="42.61449" lon="1.73021">
        <ele>2445.916</ele>
        <time>2021-08-06T10:07:10Z</time>
      </trkpt>
      <trkpt lat="42.61449" lon="1.73024">
        <ele>2446.298</ele>
        <time>2021-08-06T10:07:12Z</time>
      </trkpt>
      <trkpt lat="42.61449" lon="1.73026">
        <ele>2444.975</ele>
        <time>2021-08-06T10:07:14Z</time>
      </trkpt>
      <trkpt lat="42.61449" lon="1.73027">
        <ele>2445.942</ele>
        <time>2021-08-06T10:07:16Z</time>
      </trkpt>
      <trkpt lat="42.6145" lon="1.73028">
        <ele>2446.558</ele>
        <time>2021-08-06T10:07:18Z</time>
      </trkpt>
      <trkpt lat="42.61449" lon="1.73029">
        <ele>2446.717</ele>
        <time>2021-08-06T10:07:20Z</time>
      </trkpt>
      <trkpt lat="42.61449" lon="1.7303">
        <ele>2447.239</ele>
        <time>2021-08-06T10:07:22Z</time>
      </trkpt>
      <trkpt lat="42.61448" lon="1.73031">
        <ele>2447.339</ele>
        <time>2021-08-06T10:07:24Z</time>
      </trkpt>
      <trkpt lat="42.61448" lon="1.73032">
        <ele>2447.843</ele>
        <time>2021-08-06T10:07:26Z</time>
      </trkpt>
      <trkpt lat="42.61449" lon="1.73034">
        <ele>2448.355</ele>
        <time>2021-08-06T10:07:28Z</time>
      </trkpt>
      <trkpt lat="42.61449" lon="1.73036">
        <ele>2448.192</ele>
        <time>2021-08-06T10:07:30Z</time>
      </trkpt>
      <trkpt lat="42.6145" lon="1.73036">
        <ele>2447.751</ele>
        <time>2021-08-06T10:07:32Z</time>
      </trkpt>
      <trkpt lat="42.61449" lon="1.73036">
        <ele>2448.369</ele>
        <time>2021-08-06T10:07:34Z</time>
      </trkpt>
      <trkpt lat="42.61448" lon="1.73036">
        <ele>2449.463</ele>
        <time>2021-08-06T10:07:36Z</time>
      </trkpt>
      <trkpt lat="42.61448" lon="1.73036">
        <ele>2448.85</ele>
        <time>2021-08-06T10:07:38Z</time>
      </trkpt>
      <trkpt lat="42.61447" lon="1.73036">
        <ele>2450.425</ele>
        <time>2021-08-06T10:07:40Z</time>
      </trkpt>
      <trkpt lat="42.61447" lon="1.73037">
        <ele>2451.006</ele>
        <time>2021-08-06T10:07:42Z</time>
      </trkpt>
      <trkpt lat="42.61446" lon="1.73037">
        <ele>2451.362</ele>
        <time>2021-08-06T10:07:44Z</time>
      </trkpt>
      <trkpt lat="42.61445" lon="1.73036">
        <ele>2451.733</ele>
        <time>2021-08-06T10:07:46Z</time>
      </trkpt>
      <trkpt lat="42.61444" lon="1.73036">
        <ele>2451.526</ele>
        <time>2021-08-06T10:07:48Z</time>
      </trkpt>
      <trkpt lat="42.61443" lon="1.73037">
        <ele>2451.808</ele>
        <time>2021-08-06T10:07:50Z</time>
      </trkpt>
      <trkpt lat="42.61444" lon="1.73037">
        <ele>2452.199</ele>
        <time>2021-08-06T10:07:52Z</time>
      </trkpt>
      <trkpt lat="42.61444" lon="1.73037">
        <ele>2452.604</ele>
        <time>2021-08-06T10:07:54Z</time>
      </trkpt>
      <trkpt lat="42.61444" lon="1.73037">
        <ele>2452.657</ele>
        <time>2021-08-06T10:07:56Z</time>
      </trkpt>
      <trkpt lat="42.61444" lon="1.73037">
        <ele>2452.65</ele>
        <time>2021-08-06T10:07:58Z</time>
      </trkpt>
      <trkpt lat="42.61445" lon="1.73038">
        <ele>2453.114</ele>
        <time>2021-08-06T10:08:00Z</time>
      </trkpt>
      <trkpt lat="42.61445" lon="1.73039">
        <ele>2452.756</ele>
        <time>2021-08-06T10:08:02Z</time>
      </trkpt>
      <trkpt lat="42.61446" lon="1.7304">
        <ele>2453.197</ele>
        <time>2021-08-06T10:08:04Z</time>
      </trkpt>
      <trkpt lat="42.61446" lon="1.73041">
        <ele>2453.823</ele>
        <time>2021-08-06T10:08:06Z</time>
      </trkpt>
      <trkpt lat="42.61447" lon="1.73042">
        <ele>2454.39</ele>
        <time>2021-08-06T10:08:08Z</time>
      </trkpt>
      <trkpt lat="42.61447" lon="1.73043">
        <ele>2454.613</ele>
        <time>2021-08-06T10:08:10Z</time>
      </trkpt>
      <trkpt lat="42.61448" lon="1.73045">
        <ele>2455.644</ele>
        <time>2021-08-06T10:08:12Z</time>
      </trkpt>
      <trkpt lat="42.61448" lon="1.73046">
        <ele>2456.185</ele>
        <time>2021-08-06T10:08:14Z</time>
      </trkpt>
      <trkpt lat="42.61447" lon="1.73048">
        <ele>2456.647</ele>
        <time>2021-08-06T10:08:16Z</time>
      </trkpt>
      <trkpt lat="42.61447" lon="1.73049">
        <ele>2457.007</ele>
        <time>2021-08-06T10:08:18Z</time>
      </trkpt>
      <trkpt lat="42.61447" lon="1.7305">
        <ele>2457.569</ele>
        <time>2021-08-06T10:08:20Z</time>
      </trkpt>
      <trkpt lat="42.61447" lon="1.73052">
        <ele>2457.474</ele>
        <time>2021-08-06T10:08:22Z</time>
      </trkpt>
      <trkpt lat="42.61447" lon="1.73053">
        <ele>2458.022</ele>
        <time>2021-08-06T10:08:24Z</time>
      </trkpt>
      <trkpt lat="42.61447" lon="1.73055">
        <ele>2458.18</ele>
        <time>2021-08-06T10:08:26Z</time>
      </trkpt>
      <trkpt lat="42.61446" lon="1.73056">
        <ele>2458.713</ele>
        <time>2021-08-06T10:08:28Z</time>
      </trkpt>
      <trkpt lat="42.61446" lon="1.73057">
        <ele>2459.095</ele>
        <time>2021-08-06T10:08:30Z</time>
      </trkpt>
      <trkpt lat="42.61446" lon="1.73059">
        <ele>2458.839</ele>
        <time>2021-08-06T10:08:32Z</time>
      </trkpt>
      <trkpt lat="42.61446" lon="1.7306">
        <ele>2458.524</ele>
        <time>2021-08-06T10:08:34Z</time>
      </trkpt>
      <trkpt lat="42.61445" lon="1.73062">
        <ele>2458.872</ele>
        <time>2021-08-06T10:08:36Z</time>
      </trkpt>
      <trkpt lat="42.61444" lon="1.73063">
        <ele>2458.789</ele>
        <time>2021-08-06T10:08:38Z</time>
      </trkpt>
      <trkpt lat="42.61443" lon="1.73063">
        <ele>2458.61</ele>
        <time>2021-08-06T10:08:40Z</time>
      </trkpt>
      <trkpt lat="42.61443" lon="1.73065">
        <ele>2459.799</ele>
        <time>2021-08-06T10:08:42Z</time>
      </trkpt>
      <trkpt lat="42.61442" lon="1.73066">
        <ele>2460.582</ele>
        <time>2021-08-06T10:08:44Z</time>
      </trkpt>
      <trkpt lat="42.61441" lon="1.73068">
        <ele>2461.31</ele>
        <time>2021-08-06T10:08:46Z</time>
      </trkpt>
      <trkpt lat="42.61441" lon="1.7307">
        <ele>2461.355</ele>
        <time>2021-08-06T10:08:48Z</time>
      </trkpt>
      <trkpt lat="42.6144" lon="1.73072">
        <ele>2461.308</ele>
        <time>2021-08-06T10:08:50Z</time>
      </trkpt>
      <trkpt lat="42.61439" lon="1.73073">
        <ele>2461.894</ele>
        <time>2021-08-06T10:08:52Z</time>
      </trkpt>
      <trkpt lat="42.61438" lon="1.73076">
        <ele>2461.632</ele>
        <time>2021-08-06T10:08:54Z</time>
      </trkpt>
      <trkpt lat="42.61437" lon="1.73077">
        <ele>2462.04</ele>
        <time>2021-08-06T10:08:56Z</time>
      </trkpt>
      <trkpt lat="42.61436" lon="1.73079">
        <ele>2461.965</ele>
        <time>2021-08-06T10:08:58Z</time>
      </trkpt>
      <trkpt lat="42.61435" lon="1.73082">
        <ele>2461.953</ele>
        <time>2021-08-06T10:09:00Z</time>
      </trkpt>
      <trkpt lat="42.61434" lon="1.73083">
        <ele>2462.687</ele>
        <time>2021-08-06T10:09:02Z</time>
      </trkpt>
      <trkpt lat="42.61434" lon="1.73085">
        <ele>2463.274</ele>
        <time>2021-08-06T10:09:04Z</time>
      </trkpt>
      <trkpt lat="42.61433" lon="1.73087">
        <ele>2463.104</ele>
        <time>2021-08-06T10:09:06Z</time>
      </trkpt>
      <trkpt lat="42.61432" lon="1.73089">
        <ele>2463.236</ele>
        <time>2021-08-06T10:09:08Z</time>
      </trkpt>
      <trkpt lat="42.61431" lon="1.73091">
        <ele>2464.043</ele>
        <time>2021-08-06T10:09:10Z</time>
      </trkpt>
      <trkpt lat="42.6143" lon="1.73092">
        <ele>2464.111</ele>
        <time>2021-08-06T10:09:12Z</time>
      </trkpt>
      <trkpt lat="42.61428" lon="1.73092">
        <ele>2464.037</ele>
        <time>2021-08-06T10:09:14Z</time>
      </trkpt>
      <trkpt lat="42.61427" lon="1.73093">
        <ele>2464.097</ele>
        <time>2021-08-06T10:09:16Z</time>
      </trkpt>
      <trkpt lat="42.61426" lon="1.73095">
        <ele>2464.904</ele>
        <time>2021-08-06T10:09:18Z</time>
      </trkpt>
      <trkpt lat="42.61426" lon="1.73096">
        <ele>2464.996</ele>
        <time>2021-08-06T10:09:20Z</time>
      </trkpt>
      <trkpt lat="42.61425" lon="1.73098">
        <ele>2465.105</ele>
        <time>2021-08-06T10:09:22Z</time>
      </trkpt>
      <trkpt lat="42.61424" lon="1.73099">
        <ele>2465.968</ele>
        <time>2021-08-06T10:09:24Z</time>
      </trkpt>
      <trkpt lat="42.61423" lon="1.73101">
        <ele>2466.694</ele>
        <time>2021-08-06T10:09:26Z</time>
      </trkpt>
      <trkpt lat="42.61423" lon="1.73103">
        <ele>2467.4</ele>
        <time>2021-08-06T10:09:28Z</time>
      </trkpt>
      <trkpt lat="42.61423" lon="1.73105">
        <ele>2466.833</ele>
        <time>2021-08-06T10:09:30Z</time>
      </trkpt>
      <trkpt lat="42.61423" lon="1.73107">
        <ele>2466.856</ele>
        <time>2021-08-06T10:09:32Z</time>
      </trkpt>
      <trkpt lat="42.61423" lon="1.73108">
        <ele>2467.066</ele>
        <time>2021-08-06T10:09:34Z</time>
      </trkpt>
      <trkpt lat="42.61423" lon="1.73109">
        <ele>2467.144</ele>
        <time>2021-08-06T10:09:36Z</time>
      </trkpt>
      <trkpt lat="42.61423" lon="1.7311">
        <ele>2467.347</ele>
        <time>2021-08-06T10:09:38Z</time>
      </trkpt>
      <trkpt lat="42.61424" lon="1.73111">
        <ele>2467.87</ele>
        <time>2021-08-06T10:09:40Z</time>
      </trkpt>
      <trkpt lat="42.61424" lon="1.73113">
        <ele>2466.625</ele>
        <time>2021-08-06T10:09:42Z</time>
      </trkpt>
      <trkpt lat="42.61425" lon="1.73114">
        <ele>2466.325</ele>
        <time>2021-08-06T10:09:44Z</time>
      </trkpt>
      <trkpt lat="42.61425" lon="1.73116">
        <ele>2466.352</ele>
        <time>2021-08-06T10:09:46Z</time>
      </trkpt>
      <trkpt lat="42.61425" lon="1.73117">
        <ele>2466.152</ele>
        <time>2021-08-06T10:09:48Z</time>
      </trkpt>
      <trkpt lat="42.61425" lon="1.73118">
        <ele>2465.377</ele>
        <time>2021-08-06T10:09:50Z</time>
      </trkpt>
      <trkpt lat="42.61425" lon="1.73117">
        <ele>2466.302</ele>
        <time>2021-08-06T10:09:52Z</time>
      </trkpt>
      <trkpt lat="42.61424" lon="1.73118">
        <ele>2467.141</ele>
        <time>2021-08-06T10:09:54Z</time>
      </trkpt>
      <trkpt lat="42.61423" lon="1.73118">
        <ele>2467.587</ele>
        <time>2021-08-06T10:09:56Z</time>
      </trkpt>
      <trkpt lat="42.61422" lon="1.73118">
        <ele>2468.9</ele>
        <time>2021-08-06T10:09:58Z</time>
      </trkpt>
      <trkpt lat="42.61422" lon="1.73117">
        <ele>2468.528</ele>
        <time>2021-08-06T10:10:00Z</time>
      </trkpt>
      <trkpt lat="42.61421" lon="1.73116">
        <ele>2469.347</ele>
        <time>2021-08-06T10:10:02Z</time>
      </trkpt>
      <trkpt lat="42.6142" lon="1.73117">
        <ele>2469.631</ele>
        <time>2021-08-06T10:10:04Z</time>
      </trkpt>
      <trkpt lat="42.61419" lon="1.73117">
        <ele>2470.102</ele>
        <time>2021-08-06T10:10:06Z</time>
      </trkpt>
      <trkpt lat="42.61418" lon="1.73117">
        <ele>2471.267</ele>
        <time>2021-08-06T10:10:08Z</time>
      </trkpt>
      <trkpt lat="42.61417" lon="1.73118">
        <ele>2472.232</ele>
        <time>2021-08-06T10:10:10Z</time>
      </trkpt>
      <trkpt lat="42.61417" lon="1.73119">
        <ele>2472.955</ele>
        <time>2021-08-06T10:10:12Z</time>
      </trkpt>
      <trkpt lat="42.61417" lon="1.73121">
        <ele>2472.707</ele>
        <time>2021-08-06T10:10:14Z</time>
      </trkpt>
      <trkpt lat="42.61418" lon="1.73121">
        <ele>2472.709</ele>
        <time>2021-08-06T10:10:16Z</time>
      </trkpt>
      <trkpt lat="42.61419" lon="1.73121">
        <ele>2472.444</ele>
        <time>2021-08-06T10:10:18Z</time>
      </trkpt>
      <trkpt lat="42.61418" lon="1.73122">
        <ele>2472.053</ele>
        <time>2021-08-06T10:10:20Z</time>
      </trkpt>
      <trkpt lat="42.61418" lon="1.73122">
        <ele>2472.3</ele>
        <time>2021-08-06T10:10:22Z</time>
      </trkpt>
      <trkpt lat="42.61419" lon="1.73124">
        <ele>2472.2</ele>
        <time>2021-08-06T10:10:24Z</time>
      </trkpt>
      <trkpt lat="42.6142" lon="1.73125">
        <ele>2470.17</ele>
        <time>2021-08-06T10:10:26Z</time>
      </trkpt>
      <trkpt lat="42.61419" lon="1.73125">
        <ele>2469.952</ele>
        <time>2021-08-06T10:10:28Z</time>
      </trkpt>
      <trkpt lat="42.61419" lon="1.73125">
        <ele>2471.315</ele>
        <time>2021-08-06T10:10:30Z</time>
      </trkpt>
      <trkpt lat="42.61418" lon="1.73125">
        <ele>2472.339</ele>
        <time>2021-08-06T10:10:32Z</time>
      </trkpt>
      <trkpt lat="42.61417" lon="1.73125">
        <ele>2473.568</ele>
        <time>2021-08-06T10:10:34Z</time>
      </trkpt>
      <trkpt lat="42.61416" lon="1.73125">
        <ele>2473.461</ele>
        <time>2021-08-06T10:10:36Z</time>
      </trkpt>
      <trkpt lat="42.61415" lon="1.73126">
        <ele>2473.753</ele>
        <time>2021-08-06T10:10:38Z</time>
      </trkpt>
      <trkpt lat="42.61414" lon="1.73127">
        <ele>2474.253</ele>
        <time>2021-08-06T10:10:40Z</time>
      </trkpt>
      <trkpt lat="42.61414" lon="1.73128">
        <ele>2474.479</ele>
        <time>2021-08-06T10:10:42Z</time>
      </trkpt>
      <trkpt lat="42.61413" lon="1.73129">
        <ele>2474.509</ele>
        <time>2021-08-06T10:10:44Z</time>
      </trkpt>
      <trkpt lat="42.61413" lon="1.7313">
        <ele>2474.393</ele>
        <time>2021-08-06T10:10:46Z</time>
      </trkpt>
      <trkpt lat="42.61412" lon="1.73131">
        <ele>2474.531</ele>
        <time>2021-08-06T10:10:48Z</time>
      </trkpt>
      <trkpt lat="42.61412" lon="1.73133">
        <ele>2475.129</ele>
        <time>2021-08-06T10:10:50Z</time>
      </trkpt>
      <trkpt lat="42.61412" lon="1.73134">
        <ele>2476.005</ele>
        <time>2021-08-06T10:10:52Z</time>
      </trkpt>
      <trkpt lat="42.61412" lon="1.73135">
        <ele>2475.895</ele>
        <time>2021-08-06T10:10:54Z</time>
      </trkpt>
      <trkpt lat="42.61412" lon="1.73137">
        <ele>2475.981</ele>
        <time>2021-08-06T10:10:56Z</time>
      </trkpt>
      <trkpt lat="42.61412" lon="1.73138">
        <ele>2475.829</ele>
        <time>2021-08-06T10:10:58Z</time>
      </trkpt>
      <trkpt lat="42.61411" lon="1.7314">
        <ele>2476.126</ele>
        <time>2021-08-06T10:11:00Z</time>
      </trkpt>
      <trkpt lat="42.6141" lon="1.73141">
        <ele>2476.954</ele>
        <time>2021-08-06T10:11:02Z</time>
      </trkpt>
      <trkpt lat="42.6141" lon="1.73142">
        <ele>2476.97</ele>
        <time>2021-08-06T10:11:04Z</time>
      </trkpt>
      <trkpt lat="42.6141" lon="1.73143">
        <ele>2477.112</ele>
        <time>2021-08-06T10:11:06Z</time>
      </trkpt>
      <trkpt lat="42.61409" lon="1.73143">
        <ele>2477.418</ele>
        <time>2021-08-06T10:11:08Z</time>
      </trkpt>
      <trkpt lat="42.61408" lon="1.73145">
        <ele>2477.384</ele>
        <time>2021-08-06T10:11:10Z</time>
      </trkpt>
      <trkpt lat="42.61408" lon="1.73146">
        <ele>2477.476</ele>
        <time>2021-08-06T10:11:12Z</time>
      </trkpt>
      <trkpt lat="42.61407" lon="1.73147">
        <ele>2477.521</ele>
        <time>2021-08-06T10:11:14Z</time>
      </trkpt>
      <trkpt lat="42.61407" lon="1.73148">
        <ele>2477.615</ele>
        <time>2021-08-06T10:11:16Z</time>
      </trkpt>
      <trkpt lat="42.61405" lon="1.73149">
        <ele>2478.888</ele>
        <time>2021-08-06T10:11:18Z</time>
      </trkpt>
      <trkpt lat="42.61404" lon="1.7315">
        <ele>2479.715</ele>
        <time>2021-08-06T10:11:20Z</time>
      </trkpt>
      <trkpt lat="42.61404" lon="1.73152">
        <ele>2479.472</ele>
        <time>2021-08-06T10:11:22Z</time>
      </trkpt>
      <trkpt lat="42.61404" lon="1.73154">
        <ele>2479.068</ele>
        <time>2021-08-06T10:11:24Z</time>
      </trkpt>
      <trkpt lat="42.61404" lon="1.73157">
        <ele>2478.474</ele>
        <time>2021-08-06T10:11:26Z</time>
      </trkpt>
      <trkpt lat="42.61403" lon="1.73159">
        <ele>2479.292</ele>
        <time>2021-08-06T10:11:28Z</time>
      </trkpt>
      <trkpt lat="42.61404" lon="1.73161">
        <ele>2478.566</ele>
        <time>2021-08-06T10:11:30Z</time>
      </trkpt>
      <trkpt lat="42.61403" lon="1.73162">
        <ele>2478.841</ele>
        <time>2021-08-06T10:11:32Z</time>
      </trkpt>
      <trkpt lat="42.61403" lon="1.73164">
        <ele>2479.704</ele>
        <time>2021-08-06T10:11:34Z</time>
      </trkpt>
      <trkpt lat="42.61403" lon="1.73166">
        <ele>2479.827</ele>
        <time>2021-08-06T10:11:36Z</time>
      </trkpt>
      <trkpt lat="42.61402" lon="1.73168">
        <ele>2480.361</ele>
        <time>2021-08-06T10:11:38Z</time>
      </trkpt>
      <trkpt lat="42.61401" lon="1.73169">
        <ele>2481.053</ele>
        <time>2021-08-06T10:11:40Z</time>
      </trkpt>
      <trkpt lat="42.614" lon="1.73171">
        <ele>2481.825</ele>
        <time>2021-08-06T10:11:42Z</time>
      </trkpt>
      <trkpt lat="42.61399" lon="1.73173">
        <ele>2482.391</ele>
        <time>2021-08-06T10:11:44Z</time>
      </trkpt>
      <trkpt lat="42.61398" lon="1.73174">
        <ele>2482.52</ele>
        <time>2021-08-06T10:11:46Z</time>
      </trkpt>
      <trkpt lat="42.61398" lon="1.73176">
        <ele>2482.611</ele>
        <time>2021-08-06T10:11:48Z</time>
      </trkpt>
      <trkpt lat="42.61398" lon="1.73178">
        <ele>2482.557</ele>
        <time>2021-08-06T10:11:50Z</time>
      </trkpt>
      <trkpt lat="42.61397" lon="1.7318">
        <ele>2482.88</ele>
        <time>2021-08-06T10:11:52Z</time>
      </trkpt>
      <trkpt lat="42.61397" lon="1.73182">
        <ele>2482.69</ele>
        <time>2021-08-06T10:11:54Z</time>
      </trkpt>
      <trkpt lat="42.61397" lon="1.73183">
        <ele>2483.264</ele>
        <time>2021-08-06T10:11:56Z</time>
      </trkpt>
      <trkpt lat="42.61397" lon="1.73184">
        <ele>2483.872</ele>
        <time>2021-08-06T10:11:58Z</time>
      </trkpt>
      <trkpt lat="42.61398" lon="1.73185">
        <ele>2482.968</ele>
        <time>2021-08-06T10:12:00Z</time>
      </trkpt>
      <trkpt lat="42.61398" lon="1.73186">
        <ele>2482.762</ele>
        <time>2021-08-06T10:12:02Z</time>
      </trkpt>
      <trkpt lat="42.61397" lon="1.73188">
        <ele>2482.872</ele>
        <time>2021-08-06T10:12:04Z</time>
      </trkpt>
      <trkpt lat="42.61397" lon="1.73188">
        <ele>2482.468</ele>
        <time>2021-08-06T10:12:06Z</time>
      </trkpt>
      <trkpt lat="42.61396" lon="1.73189">
        <ele>2482.795</ele>
        <time>2021-08-06T10:12:08Z</time>
      </trkpt>
      <trkpt lat="42.61395" lon="1.7319">
        <ele>2483.959</ele>
        <time>2021-08-06T10:12:10Z</time>
      </trkpt>
      <trkpt lat="42.61395" lon="1.73192">
        <ele>2483.661</ele>
        <time>2021-08-06T10:12:12Z</time>
      </trkpt>
      <trkpt lat="42.61395" lon="1.73192">
        <ele>2483.353</ele>
        <time>2021-08-06T10:12:14Z</time>
      </trkpt>
      <trkpt lat="42.61395" lon="1.73193">
        <ele>2483.95</ele>
        <time>2021-08-06T10:12:16Z</time>
      </trkpt>
      <trkpt lat="42.61395" lon="1.73194">
        <ele>2484.213</ele>
        <time>2021-08-06T10:12:18Z</time>
      </trkpt>
      <trkpt lat="42.61395" lon="1.73196">
        <ele>2485.632</ele>
        <time>2021-08-06T10:12:20Z</time>
      </trkpt>
      <trkpt lat="42.61395" lon="1.73197">
        <ele>2486.271</ele>
        <time>2021-08-06T10:12:22Z</time>
      </trkpt>
      <trkpt lat="42.61396" lon="1.73198">
        <ele>2486.62</ele>
        <time>2021-08-06T10:12:24Z</time>
      </trkpt>
      <trkpt lat="42.61397" lon="1.73198">
        <ele>2486.634</ele>
        <time>2021-08-06T10:12:26Z</time>
      </trkpt>
      <trkpt lat="42.61398" lon="1.73199">
        <ele>2486.789</ele>
        <time>2021-08-06T10:12:28Z</time>
      </trkpt>
      <trkpt lat="42.61398" lon="1.732">
        <ele>2486.657</ele>
        <time>2021-08-06T10:12:30Z</time>
      </trkpt>
      <trkpt lat="42.61398" lon="1.73201">
        <ele>2486.801</ele>
        <time>2021-08-06T10:12:32Z</time>
      </trkpt>
      <trkpt lat="42.61398" lon="1.73201">
        <ele>2486.769</ele>
        <time>2021-08-06T10:12:34Z</time>
      </trkpt>
      <trkpt lat="42.61398" lon="1.73202">
        <ele>2487.401</ele>
        <time>2021-08-06T10:12:36Z</time>
      </trkpt>
      <trkpt lat="42.61398" lon="1.73204">
        <ele>2488.405</ele>
        <time>2021-08-06T10:12:38Z</time>
      </trkpt>
      <trkpt lat="42.61397" lon="1.73205">
        <ele>2488.498</ele>
        <time>2021-08-06T10:12:40Z</time>
      </trkpt>
      <trkpt lat="42.61397" lon="1.73206">
        <ele>2488.623</ele>
        <time>2021-08-06T10:12:42Z</time>
      </trkpt>
      <trkpt lat="42.61397" lon="1.73207">
        <ele>2488.611</ele>
        <time>2021-08-06T10:12:44Z</time>
      </trkpt>
      <trkpt lat="42.61396" lon="1.73207">
        <ele>2488.257</ele>
        <time>2021-08-06T10:12:46Z</time>
      </trkpt>
      <trkpt lat="42.61396" lon="1.73208">
        <ele>2489.159</ele>
        <time>2021-08-06T10:12:48Z</time>
      </trkpt>
      <trkpt lat="42.61396" lon="1.7321">
        <ele>2488.732</ele>
        <time>2021-08-06T10:12:50Z</time>
      </trkpt>
      <trkpt lat="42.61396" lon="1.73213">
        <ele>2488.514</ele>
        <time>2021-08-06T10:12:52Z</time>
      </trkpt>
      <trkpt lat="42.61397" lon="1.73216">
        <ele>2488.161</ele>
        <time>2021-08-06T10:12:54Z</time>
      </trkpt>
      <trkpt lat="42.61395" lon="1.73218">
        <ele>2488.925</ele>
        <time>2021-08-06T10:12:56Z</time>
      </trkpt>
      <trkpt lat="42.61396" lon="1.73221">
        <ele>2489.322</ele>
        <time>2021-08-06T10:12:58Z</time>
      </trkpt>
      <trkpt lat="42.61396" lon="1.73222">
        <ele>2489.15</ele>
        <time>2021-08-06T10:13:00Z</time>
      </trkpt>
      <trkpt lat="42.61396" lon="1.73225">
        <ele>2489.568</ele>
        <time>2021-08-06T10:13:02Z</time>
      </trkpt>
      <trkpt lat="42.61395" lon="1.73228">
        <ele>2489.426</ele>
        <time>2021-08-06T10:13:04Z</time>
      </trkpt>
      <trkpt lat="42.61395" lon="1.73229">
        <ele>2489.427</ele>
        <time>2021-08-06T10:13:06Z</time>
      </trkpt>
      <trkpt lat="42.61395" lon="1.73231">
        <ele>2490.051</ele>
        <time>2021-08-06T10:13:08Z</time>
      </trkpt>
      <trkpt lat="42.61395" lon="1.73234">
        <ele>2490.527</ele>
        <time>2021-08-06T10:13:10Z</time>
      </trkpt>
      <trkpt lat="42.61395" lon="1.73236">
        <ele>2490.36</ele>
        <time>2021-08-06T10:13:12Z</time>
      </trkpt>
      <trkpt lat="42.61395" lon="1.73238">
        <ele>2490.751</ele>
        <time>2021-08-06T10:13:14Z</time>
      </trkpt>
      <trkpt lat="42.61395" lon="1.7324">
        <ele>2490.821</ele>
        <time>2021-08-06T10:13:16Z</time>
      </trkpt>
      <trkpt lat="42.61395" lon="1.73242">
        <ele>2491.204</ele>
        <time>2021-08-06T10:13:18Z</time>
      </trkpt>
      <trkpt lat="42.61395" lon="1.73243">
        <ele>2491.461</ele>
        <time>2021-08-06T10:13:20Z</time>
      </trkpt>
      <trkpt lat="42.61394" lon="1.73245">
        <ele>2492.177</ele>
        <time>2021-08-06T10:13:22Z</time>
      </trkpt>
      <trkpt lat="42.61394" lon="1.73247">
        <ele>2492.514</ele>
        <time>2021-08-06T10:13:24Z</time>
      </trkpt>
      <trkpt lat="42.61394" lon="1.73249">
        <ele>2492.552</ele>
        <time>2021-08-06T10:13:26Z</time>
      </trkpt>
      <trkpt lat="42.61394" lon="1.73252">
        <ele>2492.184</ele>
        <time>2021-08-06T10:13:28Z</time>
      </trkpt>
      <trkpt lat="42.61394" lon="1.73254">
        <ele>2492.324</ele>
        <time>2021-08-06T10:13:30Z</time>
      </trkpt>
      <trkpt lat="42.61394" lon="1.73256">
        <ele>2492.822</ele>
        <time>2021-08-06T10:13:32Z</time>
      </trkpt>
      <trkpt lat="42.61394" lon="1.73258">
        <ele>2493.165</ele>
        <time>2021-08-06T10:13:34Z</time>
      </trkpt>
      <trkpt lat="42.61394" lon="1.7326">
        <ele>2492.806</ele>
        <time>2021-08-06T10:13:36Z</time>
      </trkpt>
      <trkpt lat="42.61394" lon="1.73262">
        <ele>2492.491</ele>
        <time>2021-08-06T10:13:38Z</time>
      </trkpt>
      <trkpt lat="42.61394" lon="1.73264">
        <ele>2492.69</ele>
        <time>2021-08-06T10:13:40Z</time>
      </trkpt>
      <trkpt lat="42.61394" lon="1.73267">
        <ele>2492.873</ele>
        <time>2021-08-06T10:13:42Z</time>
      </trkpt>
      <trkpt lat="42.61394" lon="1.73269">
        <ele>2493.397</ele>
        <time>2021-08-06T10:13:44Z</time>
      </trkpt>
      <trkpt lat="42.61395" lon="1.7327">
        <ele>2492.952</ele>
        <time>2021-08-06T10:13:46Z</time>
      </trkpt>
      <trkpt lat="42.61395" lon="1.73273">
        <ele>2492.416</ele>
        <time>2021-08-06T10:13:48Z</time>
      </trkpt>
      <trkpt lat="42.61396" lon="1.73275">
        <ele>2491.865</ele>
        <time>2021-08-06T10:13:50Z</time>
      </trkpt>
      <trkpt lat="42.61396" lon="1.73278">
        <ele>2491.634</ele>
        <time>2021-08-06T10:13:52Z</time>
      </trkpt>
      <trkpt lat="42.61395" lon="1.73281">
        <ele>2492.419</ele>
        <time>2021-08-06T10:13:54Z</time>
      </trkpt>
      <trkpt lat="42.61395" lon="1.73283">
        <ele>2492.82</ele>
        <time>2021-08-06T10:13:56Z</time>
      </trkpt>
      <trkpt lat="42.61396" lon="1.73286">
        <ele>2493.469</ele>
        <time>2021-08-06T10:13:58Z</time>
      </trkpt>
      <trkpt lat="42.61396" lon="1.73287">
        <ele>2493.768</ele>
        <time>2021-08-06T10:14:00Z</time>
      </trkpt>
      <trkpt lat="42.61395" lon="1.73289">
        <ele>2494.62</ele>
        <time>2021-08-06T10:14:02Z</time>
      </trkpt>
      <trkpt lat="42.61394" lon="1.7329">
        <ele>2494.775</ele>
        <time>2021-08-06T10:14:04Z</time>
      </trkpt>
      <trkpt lat="42.61393" lon="1.73292">
        <ele>2494.997</ele>
        <time>2021-08-06T10:14:06Z</time>
      </trkpt>
      <trkpt lat="42.61393" lon="1.73293">
        <ele>2495.366</ele>
        <time>2021-08-06T10:14:08Z</time>
      </trkpt>
      <trkpt lat="42.61393" lon="1.73295">
        <ele>2495.083</ele>
        <time>2021-08-06T10:14:10Z</time>
      </trkpt>
      <trkpt lat="42.61393" lon="1.73296">
        <ele>2495.083</ele>
        <time>2021-08-06T10:14:12Z</time>
      </trkpt>
      <trkpt lat="42.61393" lon="1.73298">
        <ele>2494.898</ele>
        <time>2021-08-06T10:14:14Z</time>
      </trkpt>
      <trkpt lat="42.61393" lon="1.73299">
        <ele>2494.752</ele>
        <time>2021-08-06T10:14:16Z</time>
      </trkpt>
      <trkpt lat="42.61393" lon="1.73301">
        <ele>2495.58</ele>
        <time>2021-08-06T10:14:18Z</time>
      </trkpt>
      <trkpt lat="42.61393" lon="1.73303">
        <ele>2495.714</ele>
        <time>2021-08-06T10:14:20Z</time>
      </trkpt>
      <trkpt lat="42.61393" lon="1.73304">
        <ele>2495.32</ele>
        <time>2021-08-06T10:14:22Z</time>
      </trkpt>
      <trkpt lat="42.61392" lon="1.73305">
        <ele>2494.625</ele>
        <time>2021-08-06T10:14:24Z</time>
      </trkpt>
      <trkpt lat="42.61391" lon="1.73306">
        <ele>2495.395</ele>
        <time>2021-08-06T10:14:26Z</time>
      </trkpt>
      <trkpt lat="42.6139" lon="1.73308">
        <ele>2495.266</ele>
        <time>2021-08-06T10:14:28Z</time>
      </trkpt>
      <trkpt lat="42.6139" lon="1.73309">
        <ele>2495.615</ele>
        <time>2021-08-06T10:14:30Z</time>
      </trkpt>
      <trkpt lat="42.6139" lon="1.7331">
        <ele>2495.785</ele>
        <time>2021-08-06T10:14:32Z</time>
      </trkpt>
      <trkpt lat="42.6139" lon="1.73312">
        <ele>2495.676</ele>
        <time>2021-08-06T10:14:34Z</time>
      </trkpt>
      <trkpt lat="42.61391" lon="1.73314">
        <ele>2495.171</ele>
        <time>2021-08-06T10:14:36Z</time>
      </trkpt>
      <trkpt lat="42.61391" lon="1.73315">
        <ele>2496.029</ele>
        <time>2021-08-06T10:14:38Z</time>
      </trkpt>
      <trkpt lat="42.61391" lon="1.73317">
        <ele>2496.004</ele>
        <time>2021-08-06T10:14:40Z</time>
      </trkpt>
      <trkpt lat="42.61392" lon="1.73318">
        <ele>2496.659</ele>
        <time>2021-08-06T10:14:42Z</time>
      </trkpt>
      <trkpt lat="42.61392" lon="1.73321">
        <ele>2496.56</ele>
        <time>2021-08-06T10:14:44Z</time>
      </trkpt>
      <trkpt lat="42.61393" lon="1.73323">
        <ele>2496.695</ele>
        <time>2021-08-06T10:14:46Z</time>
      </trkpt>
      <trkpt lat="42.61393" lon="1.73324">
        <ele>2496.862</ele>
        <time>2021-08-06T10:14:48Z</time>
      </trkpt>
      <trkpt lat="42.61393" lon="1.73325">
        <ele>2497.418</ele>
        <time>2021-08-06T10:14:49Z</time>
      </trkpt>
      <trkpt lat="42.61394" lon="1.73329">
        <ele>2497.507</ele>
        <time>2021-08-06T10:14:52Z</time>
      </trkpt>
      <trkpt lat="42.61394" lon="1.73331">
        <ele>2497.821</ele>
        <time>2021-08-06T10:14:54Z</time>
      </trkpt>
      <trkpt lat="42.61395" lon="1.73332">
        <ele>2497.792</ele>
        <time>2021-08-06T10:14:56Z</time>
      </trkpt>
      <trkpt lat="42.61396" lon="1.73334">
        <ele>2497.78</ele>
        <time>2021-08-06T10:14:58Z</time>
      </trkpt>
      <trkpt lat="42.61397" lon="1.73336">
        <ele>2498.171</ele>
        <time>2021-08-06T10:15:00Z</time>
      </trkpt>
      <trkpt lat="42.61398" lon="1.73338">
        <ele>2498.576</ele>
        <time>2021-08-06T10:15:02Z</time>
      </trkpt>
      <trkpt lat="42.61399" lon="1.7334">
        <ele>2498.815</ele>
        <time>2021-08-06T10:15:04Z</time>
      </trkpt>
      <trkpt lat="42.614" lon="1.73341">
        <ele>2499.205</ele>
        <time>2021-08-06T10:15:06Z</time>
      </trkpt>
      <trkpt lat="42.61401" lon="1.73342">
        <ele>2499.486</ele>
        <time>2021-08-06T10:15:08Z</time>
      </trkpt>
      <trkpt lat="42.61402" lon="1.73344">
        <ele>2500.103</ele>
        <time>2021-08-06T10:15:10Z</time>
      </trkpt>
      <trkpt lat="42.61403" lon="1.73345">
        <ele>2500.704</ele>
        <time>2021-08-06T10:15:12Z</time>
      </trkpt>
      <trkpt lat="42.61404" lon="1.73345">
        <ele>2500.142</ele>
        <time>2021-08-06T10:15:14Z</time>
      </trkpt>
      <trkpt lat="42.61405" lon="1.73346">
        <ele>2500.279</ele>
        <time>2021-08-06T10:15:16Z</time>
      </trkpt>
      <trkpt lat="42.61406" lon="1.73347">
        <ele>2500.95</ele>
        <time>2021-08-06T10:15:18Z</time>
      </trkpt>
      <trkpt lat="42.61407" lon="1.73348">
        <ele>2500.65</ele>
        <time>2021-08-06T10:15:20Z</time>
      </trkpt>
      <trkpt lat="42.61407" lon="1.73349">
        <ele>2500.827</ele>
        <time>2021-08-06T10:15:22Z</time>
      </trkpt>
      <trkpt lat="42.61408" lon="1.7335">
        <ele>2500.017</ele>
        <time>2021-08-06T10:15:24Z</time>
      </trkpt>
      <trkpt lat="42.61407" lon="1.73351">
        <ele>2500.835</ele>
        <time>2021-08-06T10:15:26Z</time>
      </trkpt>
      <trkpt lat="42.61408" lon="1.73353">
        <ele>2500.555</ele>
        <time>2021-08-06T10:15:28Z</time>
      </trkpt>
      <trkpt lat="42.61408" lon="1.73355">
        <ele>2501.559</ele>
        <time>2021-08-06T10:15:30Z</time>
      </trkpt>
      <trkpt lat="42.61409" lon="1.73355">
        <ele>2501.632</ele>
        <time>2021-08-06T10:15:32Z</time>
      </trkpt>
      <trkpt lat="42.61409" lon="1.73357">
        <ele>2502.011</ele>
        <time>2021-08-06T10:15:34Z</time>
      </trkpt>
      <trkpt lat="42.6141" lon="1.73359">
        <ele>2502.109</ele>
        <time>2021-08-06T10:15:36Z</time>
      </trkpt>
      <trkpt lat="42.6141" lon="1.73361">
        <ele>2502.85</ele>
        <time>2021-08-06T10:15:38Z</time>
      </trkpt>
      <trkpt lat="42.6141" lon="1.73363">
        <ele>2502.872</ele>
        <time>2021-08-06T10:15:40Z</time>
      </trkpt>
      <trkpt lat="42.6141" lon="1.73365">
        <ele>2502.86</ele>
        <time>2021-08-06T10:15:42Z</time>
      </trkpt>
      <trkpt lat="42.6141" lon="1.73366">
        <ele>2503.397</ele>
        <time>2021-08-06T10:15:44Z</time>
      </trkpt>
      <trkpt lat="42.6141" lon="1.73368">
        <ele>2503.745</ele>
        <time>2021-08-06T10:15:46Z</time>
      </trkpt>
      <trkpt lat="42.6141" lon="1.73369">
        <ele>2503.594</ele>
        <time>2021-08-06T10:15:48Z</time>
      </trkpt>
      <trkpt lat="42.6141" lon="1.73371">
        <ele>2503.817</ele>
        <time>2021-08-06T10:15:50Z</time>
      </trkpt>
      <trkpt lat="42.61411" lon="1.73372">
        <ele>2504.51</ele>
        <time>2021-08-06T10:15:52Z</time>
      </trkpt>
      <trkpt lat="42.61412" lon="1.73373">
        <ele>2504.656</ele>
        <time>2021-08-06T10:15:54Z</time>
      </trkpt>
      <trkpt lat="42.61413" lon="1.73375">
        <ele>2504.589</ele>
        <time>2021-08-06T10:15:56Z</time>
      </trkpt>
      <trkpt lat="42.61413" lon="1.73376">
        <ele>2505.465</ele>
        <time>2021-08-06T10:15:58Z</time>
      </trkpt>
      <trkpt lat="42.61414" lon="1.73377">
        <ele>2505.434</ele>
        <time>2021-08-06T10:16:00Z</time>
      </trkpt>
      <trkpt lat="42.61415" lon="1.73379">
        <ele>2505.542</ele>
        <time>2021-08-06T10:16:02Z</time>
      </trkpt>
      <trkpt lat="42.61417" lon="1.73379">
        <ele>2505.366</ele>
        <time>2021-08-06T10:16:04Z</time>
      </trkpt>
      <trkpt lat="42.61418" lon="1.7338">
        <ele>2506.204</ele>
        <time>2021-08-06T10:16:06Z</time>
      </trkpt>
      <trkpt lat="42.61419" lon="1.73381">
        <ele>2506.014</ele>
        <time>2021-08-06T10:16:08Z</time>
      </trkpt>
      <trkpt lat="42.6142" lon="1.73383">
        <ele>2506.84</ele>
        <time>2021-08-06T10:16:10Z</time>
      </trkpt>
      <trkpt lat="42.61421" lon="1.73384">
        <ele>2507.803</ele>
        <time>2021-08-06T10:16:12Z</time>
      </trkpt>
      <trkpt lat="42.61423" lon="1.73385">
        <ele>2505.933</ele>
        <time>2021-08-06T10:16:14Z</time>
      </trkpt>
      <trkpt lat="42.61423" lon="1.73388">
        <ele>2504.9</ele>
        <time>2021-08-06T10:16:16Z</time>
      </trkpt>
      <trkpt lat="42.61423" lon="1.73391">
        <ele>2502.985</ele>
        <time>2021-08-06T10:16:18Z</time>
      </trkpt>
      <trkpt lat="42.61423" lon="1.73393">
        <ele>2503.314</ele>
        <time>2021-08-06T10:16:20Z</time>
      </trkpt>
      <trkpt lat="42.61422" lon="1.73396">
        <ele>2503.39</ele>
        <time>2021-08-06T10:16:22Z</time>
      </trkpt>
      <trkpt lat="42.61422" lon="1.73398">
        <ele>2503.582</ele>
        <time>2021-08-06T10:16:24Z</time>
      </trkpt>
      <trkpt lat="42.61421" lon="1.734">
        <ele>2503.785</ele>
        <time>2021-08-06T10:16:26Z</time>
      </trkpt>
      <trkpt lat="42.61421" lon="1.73402">
        <ele>2503.599</ele>
        <time>2021-08-06T10:16:28Z</time>
      </trkpt>
      <trkpt lat="42.61421" lon="1.73404">
        <ele>2503.389</ele>
        <time>2021-08-06T10:16:30Z</time>
      </trkpt>
      <trkpt lat="42.61421" lon="1.73406">
        <ele>2503.839</ele>
        <time>2021-08-06T10:16:32Z</time>
      </trkpt>
      <trkpt lat="42.61421" lon="1.73408">
        <ele>2504.187</ele>
        <time>2021-08-06T10:16:34Z</time>
      </trkpt>
      <trkpt lat="42.61422" lon="1.73409">
        <ele>2505.314</ele>
        <time>2021-08-06T10:16:36Z</time>
      </trkpt>
      <trkpt lat="42.61422" lon="1.73411">
        <ele>2506.354</ele>
        <time>2021-08-06T10:16:38Z</time>
      </trkpt>
      <trkpt lat="42.61422" lon="1.73413">
        <ele>2506.425</ele>
        <time>2021-08-06T10:16:40Z</time>
      </trkpt>
      <trkpt lat="42.61423" lon="1.73415">
        <ele>2506.974</ele>
        <time>2021-08-06T10:16:42Z</time>
      </trkpt>
      <trkpt lat="42.61424" lon="1.73417">
        <ele>2507.548</ele>
        <time>2021-08-06T10:16:44Z</time>
      </trkpt>
      <trkpt lat="42.61425" lon="1.73418">
        <ele>2507.769</ele>
        <time>2021-08-06T10:16:46Z</time>
      </trkpt>
      <trkpt lat="42.61425" lon="1.7342">
        <ele>2508.236</ele>
        <time>2021-08-06T10:16:48Z</time>
      </trkpt>
      <trkpt lat="42.61426" lon="1.73422">
        <ele>2508.762</ele>
        <time>2021-08-06T10:16:50Z</time>
      </trkpt>
      <trkpt lat="42.61426" lon="1.73424">
        <ele>2508.451</ele>
        <time>2021-08-06T10:16:52Z</time>
      </trkpt>
      <trkpt lat="42.61428" lon="1.73425">
        <ele>2508.746</ele>
        <time>2021-08-06T10:16:54Z</time>
      </trkpt>
      <trkpt lat="42.61428" lon="1.73427">
        <ele>2507.701</ele>
        <time>2021-08-06T10:16:56Z</time>
      </trkpt>
      <trkpt lat="42.61429" lon="1.73429">
        <ele>2508.241</ele>
        <time>2021-08-06T10:16:58Z</time>
      </trkpt>
      <trkpt lat="42.61429" lon="1.73431">
        <ele>2507.7</ele>
        <time>2021-08-06T10:17:00Z</time>
      </trkpt>
      <trkpt lat="42.61429" lon="1.73434">
        <ele>2508.087</ele>
        <time>2021-08-06T10:17:02Z</time>
      </trkpt>
      <trkpt lat="42.61429" lon="1.73436">
        <ele>2508.594</ele>
        <time>2021-08-06T10:17:04Z</time>
      </trkpt>
      <trkpt lat="42.61429" lon="1.73438">
        <ele>2509.641</ele>
        <time>2021-08-06T10:17:06Z</time>
      </trkpt>
      <trkpt lat="42.6143" lon="1.73441">
        <ele>2509.265</ele>
        <time>2021-08-06T10:17:08Z</time>
      </trkpt>
      <trkpt lat="42.6143" lon="1.73443">
        <ele>2509.111</ele>
        <time>2021-08-06T10:17:10Z</time>
      </trkpt>
      <trkpt lat="42.61431" lon="1.73445">
        <ele>2508.461</ele>
        <time>2021-08-06T10:17:12Z</time>
      </trkpt>
      <trkpt lat="42.61432" lon="1.73446">
        <ele>2507.127</ele>
        <time>2021-08-06T10:17:14Z</time>
      </trkpt>
      <trkpt lat="42.61433" lon="1.73448">
        <ele>2507.494</ele>
        <time>2021-08-06T10:17:16Z</time>
      </trkpt>
      <trkpt lat="42.61434" lon="1.7345">
        <ele>2507.97</ele>
        <time>2021-08-06T10:17:18Z</time>
      </trkpt>
      <trkpt lat="42.61435" lon="1.73452">
        <ele>2508.04</ele>
        <time>2021-08-06T10:17:20Z</time>
      </trkpt>
      <trkpt lat="42.61434" lon="1.73454">
        <ele>2509.148</ele>
        <time>2021-08-06T10:17:22Z</time>
      </trkpt>
      <trkpt lat="42.61434" lon="1.73456">
        <ele>2508.799</ele>
        <time>2021-08-06T10:17:24Z</time>
      </trkpt>
      <trkpt lat="42.61435" lon="1.73458">
        <ele>2508.8</ele>
        <time>2021-08-06T10:17:26Z</time>
      </trkpt>
      <trkpt lat="42.61435" lon="1.7346">
        <ele>2509.361</ele>
        <time>2021-08-06T10:17:28Z</time>
      </trkpt>
      <trkpt lat="42.61436" lon="1.73462">
        <ele>2509.384</ele>
        <time>2021-08-06T10:17:30Z</time>
      </trkpt>
      <trkpt lat="42.61436" lon="1.73465">
        <ele>2510.495</ele>
        <time>2021-08-06T10:17:32Z</time>
      </trkpt>
      <trkpt lat="42.61436" lon="1.73467">
        <ele>2510.859</ele>
        <time>2021-08-06T10:17:34Z</time>
      </trkpt>
      <trkpt lat="42.61436" lon="1.73469">
        <ele>2511.904</ele>
        <time>2021-08-06T10:17:36Z</time>
      </trkpt>
      <trkpt lat="42.61436" lon="1.7347">
        <ele>2511.372</ele>
        <time>2021-08-06T10:17:38Z</time>
      </trkpt>
      <trkpt lat="42.61437" lon="1.73471">
        <ele>2511.961</ele>
        <time>2021-08-06T10:17:40Z</time>
      </trkpt>
      <trkpt lat="42.61437" lon="1.73473">
        <ele>2512.714</ele>
        <time>2021-08-06T10:17:42Z</time>
      </trkpt>
      <trkpt lat="42.61438" lon="1.73474">
        <ele>2512.688</ele>
        <time>2021-08-06T10:17:44Z</time>
      </trkpt>
      <trkpt lat="42.61438" lon="1.73476">
        <ele>2513.522</ele>
        <time>2021-08-06T10:17:46Z</time>
      </trkpt>
      <trkpt lat="42.61438" lon="1.73477">
        <ele>2513.707</ele>
        <time>2021-08-06T10:17:48Z</time>
      </trkpt>
      <trkpt lat="42.61437" lon="1.73479">
        <ele>2513.769</ele>
        <time>2021-08-06T10:17:50Z</time>
      </trkpt>
      <trkpt lat="42.61437" lon="1.73481">
        <ele>2514.298</ele>
        <time>2021-08-06T10:17:52Z</time>
      </trkpt>
      <trkpt lat="42.61437" lon="1.73482">
        <ele>2514.516</ele>
        <time>2021-08-06T10:17:54Z</time>
      </trkpt>
      <trkpt lat="42.61437" lon="1.73484">
        <ele>2514.709</ele>
        <time>2021-08-06T10:17:56Z</time>
      </trkpt>
      <trkpt lat="42.61437" lon="1.73485">
        <ele>2515.509</ele>
        <time>2021-08-06T10:17:58Z</time>
      </trkpt>
      <trkpt lat="42.61438" lon="1.73487">
        <ele>2516.656</ele>
        <time>2021-08-06T10:18:00Z</time>
      </trkpt>
      <trkpt lat="42.61439" lon="1.73488">
        <ele>2516.293</ele>
        <time>2021-08-06T10:18:02Z</time>
      </trkpt>
      <trkpt lat="42.6144" lon="1.73489">
        <ele>2516.285</ele>
        <time>2021-08-06T10:18:04Z</time>
      </trkpt>
      <trkpt lat="42.6144" lon="1.7349">
        <ele>2515.047</ele>
        <time>2021-08-06T10:18:06Z</time>
      </trkpt>
      <trkpt lat="42.61442" lon="1.73489">
        <ele>2515.579</ele>
        <time>2021-08-06T10:18:08Z</time>
      </trkpt>
      <trkpt lat="42.61442" lon="1.7349">
        <ele>2515.217</ele>
        <time>2021-08-06T10:18:10Z</time>
      </trkpt>
      <trkpt lat="42.61442" lon="1.7349">
        <ele>2515.154</ele>
        <time>2021-08-06T10:18:12Z</time>
      </trkpt>
      <trkpt lat="42.61442" lon="1.73491">
        <ele>2515.613</ele>
        <time>2021-08-06T10:18:14Z</time>
      </trkpt>
      <trkpt lat="42.61442" lon="1.73492">
        <ele>2515.843</ele>
        <time>2021-08-06T10:18:16Z</time>
      </trkpt>
      <trkpt lat="42.61442" lon="1.73493">
        <ele>2515.499</ele>
        <time>2021-08-06T10:18:18Z</time>
      </trkpt>
      <trkpt lat="42.61442" lon="1.73494">
        <ele>2516.094</ele>
        <time>2021-08-06T10:18:20Z</time>
      </trkpt>
      <trkpt lat="42.61441" lon="1.73495">
        <ele>2517.15</ele>
        <time>2021-08-06T10:18:22Z</time>
      </trkpt>
      <trkpt lat="42.61441" lon="1.73496">
        <ele>2516.993</ele>
        <time>2021-08-06T10:18:24Z</time>
      </trkpt>
      <trkpt lat="42.61441" lon="1.73497">
        <ele>2516.915</ele>
        <time>2021-08-06T10:18:26Z</time>
      </trkpt>
      <trkpt lat="42.61442" lon="1.73499">
        <ele>2518.623</ele>
        <time>2021-08-06T10:18:28Z</time>
      </trkpt>
      <trkpt lat="42.61442" lon="1.735">
        <ele>2518.915</ele>
        <time>2021-08-06T10:18:30Z</time>
      </trkpt>
      <trkpt lat="42.61442" lon="1.73502">
        <ele>2519.109</ele>
        <time>2021-08-06T10:18:32Z</time>
      </trkpt>
      <trkpt lat="42.61443" lon="1.73503">
        <ele>2519.043</ele>
        <time>2021-08-06T10:18:34Z</time>
      </trkpt>
      <trkpt lat="42.61443" lon="1.73504">
        <ele>2519.424</ele>
        <time>2021-08-06T10:18:36Z</time>
      </trkpt>
      <trkpt lat="42.61444" lon="1.73504">
        <ele>2519.18</ele>
        <time>2021-08-06T10:18:38Z</time>
      </trkpt>
      <trkpt lat="42.61444" lon="1.73505">
        <ele>2520.284</ele>
        <time>2021-08-06T10:18:40Z</time>
      </trkpt>
      <trkpt lat="42.61444" lon="1.73506">
        <ele>2520.604</ele>
        <time>2021-08-06T10:18:42Z</time>
      </trkpt>
      <trkpt lat="42.61445" lon="1.73508">
        <ele>2521.35</ele>
        <time>2021-08-06T10:18:44Z</time>
      </trkpt>
      <trkpt lat="42.61445" lon="1.73508">
        <ele>2521.533</ele>
        <time>2021-08-06T10:18:46Z</time>
      </trkpt>
      <trkpt lat="42.61446" lon="1.73509">
        <ele>2521.586</ele>
        <time>2021-08-06T10:18:48Z</time>
      </trkpt>
      <trkpt lat="42.61446" lon="1.73511">
        <ele>2521.54</ele>
        <time>2021-08-06T10:18:50Z</time>
      </trkpt>
      <trkpt lat="42.61446" lon="1.73512">
        <ele>2523.063</ele>
        <time>2021-08-06T10:18:52Z</time>
      </trkpt>
      <trkpt lat="42.61447" lon="1.73514">
        <ele>2523.278</ele>
        <time>2021-08-06T10:18:54Z</time>
      </trkpt>
      <trkpt lat="42.61447" lon="1.73514">
        <ele>2524.929</ele>
        <time>2021-08-06T10:18:56Z</time>
      </trkpt>
      <trkpt lat="42.61447" lon="1.73514">
        <ele>2525.219</ele>
        <time>2021-08-06T10:18:58Z</time>
      </trkpt>
      <trkpt lat="42.61447" lon="1.73514">
        <ele>2525.583</ele>
        <time>2021-08-06T10:19:00Z</time>
      </trkpt>
      <trkpt lat="42.61448" lon="1.73515">
        <ele>2526.184</ele>
        <time>2021-08-06T10:19:02Z</time>
      </trkpt>
      <trkpt lat="42.61448" lon="1.73516">
        <ele>2526.55</ele>
        <time>2021-08-06T10:19:04Z</time>
      </trkpt>
      <trkpt lat="42.61449" lon="1.73517">
        <ele>2527.409</ele>
        <time>2021-08-06T10:19:06Z</time>
      </trkpt>
      <trkpt lat="42.6145" lon="1.73517">
        <ele>2527.469</ele>
        <time>2021-08-06T10:19:08Z</time>
      </trkpt>
      <trkpt lat="42.61452" lon="1.73517">
        <ele>2527.959</ele>
        <time>2021-08-06T10:19:10Z</time>
      </trkpt>
      <trkpt lat="42.61453" lon="1.73518">
        <ele>2527.925</ele>
        <time>2021-08-06T10:19:12Z</time>
      </trkpt>
      <trkpt lat="42.61454" lon="1.73519">
        <ele>2527.822</ele>
        <time>2021-08-06T10:19:14Z</time>
      </trkpt>
      <trkpt lat="42.61456" lon="1.73519">
        <ele>2527.884</ele>
        <time>2021-08-06T10:19:16Z</time>
      </trkpt>
      <trkpt lat="42.61457" lon="1.73519">
        <ele>2527.981</ele>
        <time>2021-08-06T10:19:18Z</time>
      </trkpt>
      <trkpt lat="42.61458" lon="1.73519">
        <ele>2528.328</ele>
        <time>2021-08-06T10:19:20Z</time>
      </trkpt>
      <trkpt lat="42.61459" lon="1.73521">
        <ele>2528.93</ele>
        <time>2021-08-06T10:19:22Z</time>
      </trkpt>
      <trkpt lat="42.6146" lon="1.73522">
        <ele>2528.984</ele>
        <time>2021-08-06T10:19:24Z</time>
      </trkpt>
      <trkpt lat="42.61462" lon="1.73523">
        <ele>2529.565</ele>
        <time>2021-08-06T10:19:26Z</time>
      </trkpt>
      <trkpt lat="42.61464" lon="1.73523">
        <ele>2529.642</ele>
        <time>2021-08-06T10:19:28Z</time>
      </trkpt>
      <trkpt lat="42.61465" lon="1.73524">
        <ele>2529.954</ele>
        <time>2021-08-06T10:19:30Z</time>
      </trkpt>
      <trkpt lat="42.61467" lon="1.73526">
        <ele>2529.122</ele>
        <time>2021-08-06T10:19:32Z</time>
      </trkpt>
      <trkpt lat="42.61468" lon="1.73527">
        <ele>2529.236</ele>
        <time>2021-08-06T10:19:34Z</time>
      </trkpt>
      <trkpt lat="42.6147" lon="1.73528">
        <ele>2529.327</ele>
        <time>2021-08-06T10:19:36Z</time>
      </trkpt>
      <trkpt lat="42.61471" lon="1.7353">
        <ele>2529.209</ele>
        <time>2021-08-06T10:19:38Z</time>
      </trkpt>
      <trkpt lat="42.61472" lon="1.73533">
        <ele>2530.163</ele>
        <time>2021-08-06T10:19:40Z</time>
      </trkpt>
      <trkpt lat="42.61473" lon="1.73534">
        <ele>2530.921</ele>
        <time>2021-08-06T10:19:42Z</time>
      </trkpt>
      <trkpt lat="42.61474" lon="1.73536">
        <ele>2531.479</ele>
        <time>2021-08-06T10:19:44Z</time>
      </trkpt>
      <trkpt lat="42.61475" lon="1.73537">
        <ele>2531.829</ele>
        <time>2021-08-06T10:19:46Z</time>
      </trkpt>
      <trkpt lat="42.61476" lon="1.73538">
        <ele>2531.958</ele>
        <time>2021-08-06T10:19:48Z</time>
      </trkpt>
      <trkpt lat="42.61477" lon="1.7354">
        <ele>2532.417</ele>
        <time>2021-08-06T10:19:50Z</time>
      </trkpt>
      <trkpt lat="42.61478" lon="1.73542">
        <ele>2533.024</ele>
        <time>2021-08-06T10:19:52Z</time>
      </trkpt>
      <trkpt lat="42.61479" lon="1.73543">
        <ele>2533.647</ele>
        <time>2021-08-06T10:19:54Z</time>
      </trkpt>
      <trkpt lat="42.6148" lon="1.73544">
        <ele>2533.72</ele>
        <time>2021-08-06T10:19:56Z</time>
      </trkpt>
      <trkpt lat="42.61481" lon="1.73546">
        <ele>2533.99</ele>
        <time>2021-08-06T10:19:58Z</time>
      </trkpt>
      <trkpt lat="42.61483" lon="1.73547">
        <ele>2534.661</ele>
        <time>2021-08-06T10:20:00Z</time>
      </trkpt>
      <trkpt lat="42.61484" lon="1.73549">
        <ele>2534.554</ele>
        <time>2021-08-06T10:20:02Z</time>
      </trkpt>
      <trkpt lat="42.61485" lon="1.7355">
        <ele>2534.414</ele>
        <time>2021-08-06T10:20:04Z</time>
      </trkpt>
      <trkpt lat="42.61487" lon="1.73551">
        <ele>2535.058</ele>
        <time>2021-08-06T10:20:06Z</time>
      </trkpt>
      <trkpt lat="42.61489" lon="1.73553">
        <ele>2535.372</ele>
        <time>2021-08-06T10:20:08Z</time>
      </trkpt>
      <trkpt lat="42.61491" lon="1.73555">
        <ele>2535.311</ele>
        <time>2021-08-06T10:20:10Z</time>
      </trkpt>
      <trkpt lat="42.61493" lon="1.73557">
        <ele>2535.86</ele>
        <time>2021-08-06T10:20:12Z</time>
      </trkpt>
      <trkpt lat="42.61493" lon="1.73559">
        <ele>2535.792</ele>
        <time>2021-08-06T10:20:14Z</time>
      </trkpt>
      <trkpt lat="42.61494" lon="1.73562">
        <ele>2536.653</ele>
        <time>2021-08-06T10:20:16Z</time>
      </trkpt>
      <trkpt lat="42.61494" lon="1.73564">
        <ele>2536.989</ele>
        <time>2021-08-06T10:20:18Z</time>
      </trkpt>
      <trkpt lat="42.61493" lon="1.73565">
        <ele>2537.232</ele>
        <time>2021-08-06T10:20:20Z</time>
      </trkpt>
      <trkpt lat="42.61493" lon="1.73568">
        <ele>2537.672</ele>
        <time>2021-08-06T10:20:22Z</time>
      </trkpt>
      <trkpt lat="42.61494" lon="1.7357">
        <ele>2538.297</ele>
        <time>2021-08-06T10:20:24Z</time>
      </trkpt>
      <trkpt lat="42.61495" lon="1.73571">
        <ele>2539.38</ele>
        <time>2021-08-06T10:20:26Z</time>
      </trkpt>
      <trkpt lat="42.61497" lon="1.73572">
        <ele>2539.855</ele>
        <time>2021-08-06T10:20:28Z</time>
      </trkpt>
      <trkpt lat="42.61498" lon="1.73572">
        <ele>2539.764</ele>
        <time>2021-08-06T10:20:30Z</time>
      </trkpt>
      <trkpt lat="42.61499" lon="1.73574">
        <ele>2540.445</ele>
        <time>2021-08-06T10:20:32Z</time>
      </trkpt>
      <trkpt lat="42.615" lon="1.73576">
        <ele>2540.36</ele>
        <time>2021-08-06T10:20:34Z</time>
      </trkpt>
      <trkpt lat="42.61501" lon="1.73578">
        <ele>2541.043</ele>
        <time>2021-08-06T10:20:36Z</time>
      </trkpt>
      <trkpt lat="42.61503" lon="1.73578">
        <ele>2541.152</ele>
        <time>2021-08-06T10:20:38Z</time>
      </trkpt>
      <trkpt lat="42.61504" lon="1.73578">
        <ele>2541.067</ele>
        <time>2021-08-06T10:20:40Z</time>
      </trkpt>
      <trkpt lat="42.61505" lon="1.73578">
        <ele>2541.691</ele>
        <time>2021-08-06T10:20:42Z</time>
      </trkpt>
      <trkpt lat="42.61507" lon="1.73578">
        <ele>2542.354</ele>
        <time>2021-08-06T10:20:44Z</time>
      </trkpt>
      <trkpt lat="42.61508" lon="1.73578">
        <ele>2542.249</ele>
        <time>2021-08-06T10:20:46Z</time>
      </trkpt>
      <trkpt lat="42.61509" lon="1.73579">
        <ele>2542.402</ele>
        <time>2021-08-06T10:20:48Z</time>
      </trkpt>
      <trkpt lat="42.61509" lon="1.7358">
        <ele>2543.138</ele>
        <time>2021-08-06T10:20:50Z</time>
      </trkpt>
      <trkpt lat="42.6151" lon="1.73582">
        <ele>2543.57</ele>
        <time>2021-08-06T10:20:52Z</time>
      </trkpt>
      <trkpt lat="42.61511" lon="1.73583">
        <ele>2543.859</ele>
        <time>2021-08-06T10:20:54Z</time>
      </trkpt>
      <trkpt lat="42.61512" lon="1.73584">
        <ele>2544.254</ele>
        <time>2021-08-06T10:20:56Z</time>
      </trkpt>
      <trkpt lat="42.61513" lon="1.73586">
        <ele>2545.055</ele>
        <time>2021-08-06T10:20:58Z</time>
      </trkpt>
      <trkpt lat="42.61514" lon="1.73586">
        <ele>2545.609</ele>
        <time>2021-08-06T10:21:00Z</time>
      </trkpt>
      <trkpt lat="42.61515" lon="1.73587">
        <ele>2546.031</ele>
        <time>2021-08-06T10:21:02Z</time>
      </trkpt>
      <trkpt lat="42.61515" lon="1.73588">
        <ele>2545.82</ele>
        <time>2021-08-06T10:21:04Z</time>
      </trkpt>
      <trkpt lat="42.61516" lon="1.73589">
        <ele>2546.034</ele>
        <time>2021-08-06T10:21:06Z</time>
      </trkpt>
      <trkpt lat="42.61516" lon="1.73589">
        <ele>2546.398</ele>
        <time>2021-08-06T10:21:08Z</time>
      </trkpt>
      <trkpt lat="42.61516" lon="1.73589">
        <ele>2546.531</ele>
        <time>2021-08-06T10:21:10Z</time>
      </trkpt>
      <trkpt lat="42.61517" lon="1.7359">
        <ele>2546.418</ele>
        <time>2021-08-06T10:21:12Z</time>
      </trkpt>
      <trkpt lat="42.61517" lon="1.73592">
        <ele>2546.474</ele>
        <time>2021-08-06T10:21:14Z</time>
      </trkpt>
      <trkpt lat="42.61518" lon="1.73593">
        <ele>2546.744</ele>
        <time>2021-08-06T10:21:16Z</time>
      </trkpt>
      <trkpt lat="42.61518" lon="1.73594">
        <ele>2547.106</ele>
        <time>2021-08-06T10:21:18Z</time>
      </trkpt>
      <trkpt lat="42.61518" lon="1.73594">
        <ele>2546.887</ele>
        <time>2021-08-06T10:21:20Z</time>
      </trkpt>
      <trkpt lat="42.61519" lon="1.73595">
        <ele>2546.688</ele>
        <time>2021-08-06T10:21:22Z</time>
      </trkpt>
      <trkpt lat="42.61519" lon="1.73596">
        <ele>2547.245</ele>
        <time>2021-08-06T10:21:24Z</time>
      </trkpt>
      <trkpt lat="42.61519" lon="1.73598">
        <ele>2547.193</ele>
        <time>2021-08-06T10:21:26Z</time>
      </trkpt>
      <trkpt lat="42.61519" lon="1.73601">
        <ele>2547.132</ele>
        <time>2021-08-06T10:21:28Z</time>
      </trkpt>
      <trkpt lat="42.6152" lon="1.73603">
        <ele>2547.235</ele>
        <time>2021-08-06T10:21:30Z</time>
      </trkpt>
      <trkpt lat="42.6152" lon="1.73603">
        <ele>2547.22</ele>
        <time>2021-08-06T10:21:32Z</time>
      </trkpt>
      <trkpt lat="42.61521" lon="1.73602">
        <ele>2547.375</ele>
        <time>2021-08-06T10:21:34Z</time>
      </trkpt>
      <trkpt lat="42.61521" lon="1.73601">
        <ele>2546.952</ele>
        <time>2021-08-06T10:21:36Z</time>
      </trkpt>
      <trkpt lat="42.61522" lon="1.736">
        <ele>2546.938</ele>
        <time>2021-08-06T10:21:38Z</time>
      </trkpt>
      <trkpt lat="42.61523" lon="1.73601">
        <ele>2547.169</ele>
        <time>2021-08-06T10:21:40Z</time>
      </trkpt>
      <trkpt lat="42.61524" lon="1.73601">
        <ele>2547.172</ele>
        <time>2021-08-06T10:21:42Z</time>
      </trkpt>
      <trkpt lat="42.61523" lon="1.73601">
        <ele>2547.163</ele>
        <time>2021-08-06T10:21:44Z</time>
      </trkpt>
      <trkpt lat="42.61523" lon="1.73602">
        <ele>2547.155</ele>
        <time>2021-08-06T10:21:46Z</time>
      </trkpt>
      <trkpt lat="42.61523" lon="1.73602">
        <ele>2547.148</ele>
        <time>2021-08-06T10:21:48Z</time>
      </trkpt>
      <trkpt lat="42.61523" lon="1.73602">
        <ele>2547.148</ele>
        <time>2021-08-06T10:21:50Z</time>
      </trkpt>
      <trkpt lat="42.61524" lon="1.73602">
        <ele>2547.221</ele>
        <time>2021-08-06T10:21:52Z</time>
      </trkpt>
      <trkpt lat="42.61524" lon="1.73604">
        <ele>2547.337</ele>
        <time>2021-08-06T10:21:54Z</time>
      </trkpt>
      <trkpt lat="42.61524" lon="1.73605">
        <ele>2547.443</ele>
        <time>2021-08-06T10:21:56Z</time>
      </trkpt>
      <trkpt lat="42.61524" lon="1.73607">
        <ele>2547.822</ele>
        <time>2021-08-06T10:21:58Z</time>
      </trkpt>
      <trkpt lat="42.61523" lon="1.73608">
        <ele>2548.182</ele>
        <time>2021-08-06T10:22:00Z</time>
      </trkpt>
      <trkpt lat="42.61524" lon="1.73609">
        <ele>2548.15</ele>
        <time>2021-08-06T10:22:02Z</time>
      </trkpt>
      <trkpt lat="42.61524" lon="1.73609">
        <ele>2548.149</ele>
        <time>2021-08-06T10:22:04Z</time>
      </trkpt>
      <trkpt lat="42.61524" lon="1.73608">
        <ele>2547.964</ele>
        <time>2021-08-06T10:22:06Z</time>
      </trkpt>
      <trkpt lat="42.61524" lon="1.73608">
        <ele>2547.96</ele>
        <time>2021-08-06T10:22:08Z</time>
      </trkpt>
      <trkpt lat="42.61524" lon="1.73608">
        <ele>2547.96</ele>
        <time>2021-08-06T10:22:10Z</time>
      </trkpt>
      <trkpt lat="42.61524" lon="1.73609">
        <ele>2548.111</ele>
        <time>2021-08-06T10:22:12Z</time>
      </trkpt>
      <trkpt lat="42.61525" lon="1.73609">
        <ele>2547.954</ele>
        <time>2021-08-06T10:22:14Z</time>
      </trkpt>
      <trkpt lat="42.61526" lon="1.73608">
        <ele>2547.559</ele>
        <time>2021-08-06T10:22:16Z</time>
      </trkpt>
      <trkpt lat="42.61527" lon="1.73607">
        <ele>2548.112</ele>
        <time>2021-08-06T10:22:18Z</time>
      </trkpt>
      <trkpt lat="42.61528" lon="1.73607">
        <ele>2547.585</ele>
        <time>2021-08-06T10:22:20Z</time>
      </trkpt>
      <trkpt lat="42.61529" lon="1.73608">
        <ele>2547.502</ele>
        <time>2021-08-06T10:22:22Z</time>
      </trkpt>
      <trkpt lat="42.6153" lon="1.73609">
        <ele>2547.182</ele>
        <time>2021-08-06T10:22:24Z</time>
      </trkpt>
      <trkpt lat="42.61531" lon="1.73611">
        <ele>2547.172</ele>
        <time>2021-08-06T10:22:26Z</time>
      </trkpt>
      <trkpt lat="42.61532" lon="1.73611">
        <ele>2547.018</ele>
        <time>2021-08-06T10:22:28Z</time>
      </trkpt>
      <trkpt lat="42.61533" lon="1.73611">
        <ele>2547.06</ele>
        <time>2021-08-06T10:22:30Z</time>
      </trkpt>
      <trkpt lat="42.61533" lon="1.73612">
        <ele>2547.524</ele>
        <time>2021-08-06T10:22:32Z</time>
      </trkpt>
      <trkpt lat="42.61533" lon="1.73612">
        <ele>2547.525</ele>
        <time>2021-08-06T10:22:34Z</time>
      </trkpt>
      <trkpt lat="42.61533" lon="1.73612">
        <ele>2547.521</ele>
        <time>2021-08-06T10:22:36Z</time>
      </trkpt>
      <trkpt lat="42.61533" lon="1.73612">
        <ele>2547.516</ele>
        <time>2021-08-06T10:22:38Z</time>
      </trkpt>
      <trkpt lat="42.61533" lon="1.73612">
        <ele>2547.514</ele>
        <time>2021-08-06T10:22:40Z</time>
      </trkpt>
      <trkpt lat="42.61533" lon="1.73612">
        <ele>2547.514</ele>
        <time>2021-08-06T10:22:42Z</time>
      </trkpt>
      <trkpt lat="42.61533" lon="1.73612">
        <ele>2547.509</ele>
        <time>2021-08-06T10:22:44Z</time>
      </trkpt>
      <trkpt lat="42.61533" lon="1.73612">
        <ele>2547.507</ele>
        <time>2021-08-06T10:22:46Z</time>
      </trkpt>
      <trkpt lat="42.61533" lon="1.73612">
        <ele>2547.504</ele>
        <time>2021-08-06T10:22:48Z</time>
      </trkpt>
      <trkpt lat="42.61533" lon="1.73612">
        <ele>2547.497</ele>
        <time>2021-08-06T10:22:50Z</time>
      </trkpt>
      <trkpt lat="42.61533" lon="1.73612">
        <ele>2547.487</ele>
        <time>2021-08-06T10:22:52Z</time>
      </trkpt>
      <trkpt lat="42.61533" lon="1.73612">
        <ele>2547.246</ele>
        <time>2021-08-06T10:22:54Z</time>
      </trkpt>
      <trkpt lat="42.61533" lon="1.73612">
        <ele>2547.237</ele>
        <time>2021-08-06T10:22:56Z</time>
      </trkpt>
      <trkpt lat="42.61533" lon="1.73612">
        <ele>2547.235</ele>
        <time>2021-08-06T10:22:58Z</time>
      </trkpt>
      <trkpt lat="42.61533" lon="1.73612">
        <ele>2547.229</ele>
        <time>2021-08-06T10:23:00Z</time>
      </trkpt>
      <trkpt lat="42.61533" lon="1.73612">
        <ele>2547.235</ele>
        <time>2021-08-06T10:23:02Z</time>
      </trkpt>
      <trkpt lat="42.61533" lon="1.73612">
        <ele>2547.27</ele>
        <time>2021-08-06T10:23:04Z</time>
      </trkpt>
      <trkpt lat="42.61533" lon="1.73612">
        <ele>2547.271</ele>
        <time>2021-08-06T10:23:06Z</time>
      </trkpt>
      <trkpt lat="42.61533" lon="1.73612">
        <ele>2547.277</ele>
        <time>2021-08-06T10:23:08Z</time>
      </trkpt>
      <trkpt lat="42.61533" lon="1.73612">
        <ele>2547.278</ele>
        <time>2021-08-06T10:23:10Z</time>
      </trkpt>
      <trkpt lat="42.61533" lon="1.73612">
        <ele>2547.274</ele>
        <time>2021-08-06T10:23:12Z</time>
      </trkpt>
      <trkpt lat="42.61533" lon="1.73612">
        <ele>2547.272</ele>
        <time>2021-08-06T10:23:14Z</time>
      </trkpt>
      <trkpt lat="42.61533" lon="1.73612">
        <ele>2547.273</ele>
        <time>2021-08-06T10:23:16Z</time>
      </trkpt>
      <trkpt lat="42.61533" lon="1.73612">
        <ele>2547.366</ele>
        <time>2021-08-06T10:23:18Z</time>
      </trkpt>
      <trkpt lat="42.61534" lon="1.73612">
        <ele>2547.395</ele>
        <time>2021-08-06T10:23:20Z</time>
      </trkpt>
      <trkpt lat="42.61534" lon="1.73612">
        <ele>2547.386</ele>
        <time>2021-08-06T10:23:22Z</time>
      </trkpt>
      <trkpt lat="42.61534" lon="1.73612">
        <ele>2547.613</ele>
        <time>2021-08-06T10:23:24Z</time>
      </trkpt>
      <trkpt lat="42.61534" lon="1.73612">
        <ele>2547.686</ele>
        <time>2021-08-06T10:23:26Z</time>
      </trkpt>
      <trkpt lat="42.61534" lon="1.73612">
        <ele>2547.68</ele>
        <time>2021-08-06T10:23:28Z</time>
      </trkpt>
      <trkpt lat="42.61534" lon="1.73612">
        <ele>2547.682</ele>
        <time>2021-08-06T10:23:30Z</time>
      </trkpt>
      <trkpt lat="42.61534" lon="1.73612">
        <ele>2547.678</ele>
        <time>2021-08-06T10:23:32Z</time>
      </trkpt>
      <trkpt lat="42.61534" lon="1.73612">
        <ele>2547.676</ele>
        <time>2021-08-06T10:23:34Z</time>
      </trkpt>
      <trkpt lat="42.61534" lon="1.73612">
        <ele>2547.675</ele>
        <time>2021-08-06T10:23:36Z</time>
      </trkpt>
      <trkpt lat="42.61534" lon="1.73612">
        <ele>2547.648</ele>
        <time>2021-08-06T10:23:38Z</time>
      </trkpt>
      <trkpt lat="42.61535" lon="1.73613">
        <ele>2547.172</ele>
        <time>2021-08-06T10:23:40Z</time>
      </trkpt>
      <trkpt lat="42.61536" lon="1.73613">
        <ele>2547.012</ele>
        <time>2021-08-06T10:23:42Z</time>
      </trkpt>
      <trkpt lat="42.61536" lon="1.73612">
        <ele>2546.817</ele>
        <time>2021-08-06T10:23:44Z</time>
      </trkpt>
      <trkpt lat="42.61535" lon="1.73612">
        <ele>2546.944</ele>
        <time>2021-08-06T10:23:46Z</time>
      </trkpt>
      <trkpt lat="42.61535" lon="1.73612">
        <ele>2546.939</ele>
        <time>2021-08-06T10:23:48Z</time>
      </trkpt>
      <trkpt lat="42.61535" lon="1.73612">
        <ele>2546.934</ele>
        <time>2021-08-06T10:23:50Z</time>
      </trkpt>
      <trkpt lat="42.61535" lon="1.73612">
        <ele>2547.109</ele>
        <time>2021-08-06T10:23:52Z</time>
      </trkpt>
      <trkpt lat="42.61535" lon="1.73613">
        <ele>2547.1</ele>
        <time>2021-08-06T10:23:54Z</time>
      </trkpt>
      <trkpt lat="42.61535" lon="1.73613">
        <ele>2547.09</ele>
        <time>2021-08-06T10:23:56Z</time>
      </trkpt>
      <trkpt lat="42.61535" lon="1.73613">
        <ele>2547.093</ele>
        <time>2021-08-06T10:23:58Z</time>
      </trkpt>
      <trkpt lat="42.61535" lon="1.73613">
        <ele>2547.086</ele>
        <time>2021-08-06T10:24:00Z</time>
      </trkpt>
      <trkpt lat="42.61535" lon="1.73613">
        <ele>2547.08</ele>
        <time>2021-08-06T10:24:02Z</time>
      </trkpt>
      <trkpt lat="42.61535" lon="1.73613">
        <ele>2547.071</ele>
        <time>2021-08-06T10:24:04Z</time>
      </trkpt>
      <trkpt lat="42.61535" lon="1.73613">
        <ele>2547.063</ele>
        <time>2021-08-06T10:24:06Z</time>
      </trkpt>
      <trkpt lat="42.61535" lon="1.73613">
        <ele>2547.061</ele>
        <time>2021-08-06T10:24:08Z</time>
      </trkpt>
      <trkpt lat="42.61535" lon="1.73612">
        <ele>2547.117</ele>
        <time>2021-08-06T10:24:10Z</time>
      </trkpt>
      <trkpt lat="42.61535" lon="1.73612">
        <ele>2547.119</ele>
        <time>2021-08-06T10:24:12Z</time>
      </trkpt>
      <trkpt lat="42.61535" lon="1.73612">
        <ele>2547.116</ele>
        <time>2021-08-06T10:24:14Z</time>
      </trkpt>
      <trkpt lat="42.61535" lon="1.73612">
        <ele>2547.109</ele>
        <time>2021-08-06T10:24:16Z</time>
      </trkpt>
      <trkpt lat="42.61535" lon="1.73612">
        <ele>2547.105</ele>
        <time>2021-08-06T10:24:18Z</time>
      </trkpt>
      <trkpt lat="42.61535" lon="1.73612">
        <ele>2547.102</ele>
        <time>2021-08-06T10:24:20Z</time>
      </trkpt>
      <trkpt lat="42.61535" lon="1.73612">
        <ele>2547.099</ele>
        <time>2021-08-06T10:24:22Z</time>
      </trkpt>
      <trkpt lat="42.61535" lon="1.73612">
        <ele>2546.96</ele>
        <time>2021-08-06T10:24:24Z</time>
      </trkpt>
      <trkpt lat="42.61535" lon="1.73611">
        <ele>2546.667</ele>
        <time>2021-08-06T10:24:26Z</time>
      </trkpt>
      <trkpt lat="42.61534" lon="1.73611">
        <ele>2546.78</ele>
        <time>2021-08-06T10:24:28Z</time>
      </trkpt>
      <trkpt lat="42.61533" lon="1.7361">
        <ele>2547.22</ele>
        <time>2021-08-06T10:24:30Z</time>
      </trkpt>
      <trkpt lat="42.61531" lon="1.73609">
        <ele>2547.556</ele>
        <time>2021-08-06T10:24:32Z</time>
      </trkpt>
      <trkpt lat="42.6153" lon="1.73609">
        <ele>2547.605</ele>
        <time>2021-08-06T10:24:34Z</time>
      </trkpt>
      <trkpt lat="42.61529" lon="1.73608">
        <ele>2548.303</ele>
        <time>2021-08-06T10:24:36Z</time>
      </trkpt>
      <trkpt lat="42.61528" lon="1.73606">
        <ele>2547.932</ele>
        <time>2021-08-06T10:24:38Z</time>
      </trkpt>
      <trkpt lat="42.61527" lon="1.73606">
        <ele>2546.876</ele>
        <time>2021-08-06T10:24:40Z</time>
      </trkpt>
      <trkpt lat="42.61527" lon="1.73605">
        <ele>2545.908</ele>
        <time>2021-08-06T10:24:42Z</time>
      </trkpt>
      <trkpt lat="42.61527" lon="1.73606">
        <ele>2545.889</ele>
        <time>2021-08-06T10:24:44Z</time>
      </trkpt>
      <trkpt lat="42.61527" lon="1.73605">
        <ele>2545.66</ele>
        <time>2021-08-06T10:24:46Z</time>
      </trkpt>
      <trkpt lat="42.61527" lon="1.73604">
        <ele>2545.864</ele>
        <time>2021-08-06T10:24:48Z</time>
      </trkpt>
      <trkpt lat="42.61527" lon="1.73602">
        <ele>2546.504</ele>
        <time>2021-08-06T10:24:50Z</time>
      </trkpt>
      <trkpt lat="42.61526" lon="1.73601">
        <ele>2546.559</ele>
        <time>2021-08-06T10:24:52Z</time>
      </trkpt>
      <trkpt lat="42.61525" lon="1.736">
        <ele>2546.696</ele>
        <time>2021-08-06T10:24:54Z</time>
      </trkpt>
      <trkpt lat="42.61524" lon="1.73599">
        <ele>2546.783</ele>
        <time>2021-08-06T10:24:56Z</time>
      </trkpt>
      <trkpt lat="42.61524" lon="1.73598">
        <ele>2546.932</ele>
        <time>2021-08-06T10:24:58Z</time>
      </trkpt>
      <trkpt lat="42.61523" lon="1.73597">
        <ele>2546.549</ele>
        <time>2021-08-06T10:25:00Z</time>
      </trkpt>
      <trkpt lat="42.61523" lon="1.73595">
        <ele>2546.653</ele>
        <time>2021-08-06T10:25:02Z</time>
      </trkpt>
      <trkpt lat="42.61522" lon="1.73594">
        <ele>2546.593</ele>
        <time>2021-08-06T10:25:04Z</time>
      </trkpt>
      <trkpt lat="42.6152" lon="1.73593">
        <ele>2546.735</ele>
        <time>2021-08-06T10:25:06Z</time>
      </trkpt>
      <trkpt lat="42.61519" lon="1.73593">
        <ele>2547.16</ele>
        <time>2021-08-06T10:25:08Z</time>
      </trkpt>
      <trkpt lat="42.61519" lon="1.73593">
        <ele>2547.536</ele>
        <time>2021-08-06T10:25:10Z</time>
      </trkpt>
      <trkpt lat="42.6152" lon="1.73593">
        <ele>2547.473</ele>
        <time>2021-08-06T10:25:12Z</time>
      </trkpt>
      <trkpt lat="42.61521" lon="1.73594">
        <ele>2547.439</ele>
        <time>2021-08-06T10:25:14Z</time>
      </trkpt>
      <trkpt lat="42.61522" lon="1.73596">
        <ele>2547.007</ele>
        <time>2021-08-06T10:25:16Z</time>
      </trkpt>
      <trkpt lat="42.61523" lon="1.73598">
        <ele>2547.35</ele>
        <time>2021-08-06T10:25:18Z</time>
      </trkpt>
      <trkpt lat="42.61525" lon="1.73599">
        <ele>2547.779</ele>
        <time>2021-08-06T10:25:20Z</time>
      </trkpt>
      <trkpt lat="42.61526" lon="1.736">
        <ele>2547.692</ele>
        <time>2021-08-06T10:25:22Z</time>
      </trkpt>
      <trkpt lat="42.61526" lon="1.73601">
        <ele>2547.488</ele>
        <time>2021-08-06T10:25:24Z</time>
      </trkpt>
      <trkpt lat="42.61527" lon="1.73602">
        <ele>2547.052</ele>
        <time>2021-08-06T10:25:26Z</time>
      </trkpt>
      <trkpt lat="42.61528" lon="1.73602">
        <ele>2547.131</ele>
        <time>2021-08-06T10:25:28Z</time>
      </trkpt>
      <trkpt lat="42.61528" lon="1.73604">
        <ele>2547.265</ele>
        <time>2021-08-06T10:25:30Z</time>
      </trkpt>
      <trkpt lat="42.61529" lon="1.73605">
        <ele>2547.114</ele>
        <time>2021-08-06T10:25:32Z</time>
      </trkpt>
      <trkpt lat="42.6153" lon="1.73606">
        <ele>2546.758</ele>
        <time>2021-08-06T10:25:34Z</time>
      </trkpt>
      <trkpt lat="42.61531" lon="1.73608">
        <ele>2547.138</ele>
        <time>2021-08-06T10:25:36Z</time>
      </trkpt>
      <trkpt lat="42.61532" lon="1.73609">
        <ele>2547.01</ele>
        <time>2021-08-06T10:25:38Z</time>
      </trkpt>
      <trkpt lat="42.61533" lon="1.7361">
        <ele>2547.074</ele>
        <time>2021-08-06T10:25:40Z</time>
      </trkpt>
      <trkpt lat="42.61533" lon="1.73611">
        <ele>2546.835</ele>
        <time>2021-08-06T10:25:42Z</time>
      </trkpt>
      <trkpt lat="42.61534" lon="1.73612">
        <ele>2546.488</ele>
        <time>2021-08-06T10:25:44Z</time>
      </trkpt>
      <trkpt lat="42.61534" lon="1.73613">
        <ele>2546.463</ele>
        <time>2021-08-06T10:25:46Z</time>
      </trkpt>
      <trkpt lat="42.61535" lon="1.73615">
        <ele>2546.892</ele>
        <time>2021-08-06T10:25:48Z</time>
      </trkpt>
      <trkpt lat="42.61535" lon="1.73615">
        <ele>2546.953</ele>
        <time>2021-08-06T10:25:50Z</time>
      </trkpt>
      <trkpt lat="42.61535" lon="1.73617">
        <ele>2545.931</ele>
        <time>2021-08-06T10:25:52Z</time>
      </trkpt>
      <trkpt lat="42.61535" lon="1.73617">
        <ele>2545.855</ele>
        <time>2021-08-06T10:25:54Z</time>
      </trkpt>
      <trkpt lat="42.61535" lon="1.73617">
        <ele>2545.613</ele>
        <time>2021-08-06T10:25:56Z</time>
      </trkpt>
      <trkpt lat="42.61535" lon="1.73618">
        <ele>2545.136</ele>
        <time>2021-08-06T10:25:58Z</time>
      </trkpt>
      <trkpt lat="42.61535" lon="1.73618">
        <ele>2545.127</ele>
        <time>2021-08-06T10:26:00Z</time>
      </trkpt>
      <trkpt lat="42.61535" lon="1.73618">
        <ele>2545.515</ele>
        <time>2021-08-06T10:26:02Z</time>
      </trkpt>
      <trkpt lat="42.61535" lon="1.73619">
        <ele>2545.265</ele>
        <time>2021-08-06T10:26:04Z</time>
      </trkpt>
      <trkpt lat="42.61535" lon="1.73619">
        <ele>2545.226</ele>
        <time>2021-08-06T10:26:06Z</time>
      </trkpt>
      <trkpt lat="42.61535" lon="1.73618">
        <ele>2545.701</ele>
        <time>2021-08-06T10:26:08Z</time>
      </trkpt>
      <trkpt lat="42.61535" lon="1.73618">
        <ele>2545.717</ele>
        <time>2021-08-06T10:26:10Z</time>
      </trkpt>
      <trkpt lat="42.61535" lon="1.73619">
        <ele>2545.416</ele>
        <time>2021-08-06T10:26:12Z</time>
      </trkpt>
      <trkpt lat="42.61535" lon="1.73619">
        <ele>2545.41</ele>
        <time>2021-08-06T10:26:14Z</time>
      </trkpt>
      <trkpt lat="42.61535" lon="1.73619">
        <ele>2545.414</ele>
        <time>2021-08-06T10:26:16Z</time>
      </trkpt>
      <trkpt lat="42.61535" lon="1.73618">
        <ele>2545.063</ele>
        <time>2021-08-06T10:26:18Z</time>
      </trkpt>
      <trkpt lat="42.61535" lon="1.73619">
        <ele>2544.977</ele>
        <time>2021-08-06T10:26:20Z</time>
      </trkpt>
      <trkpt lat="42.61535" lon="1.73621">
        <ele>2544.82</ele>
        <time>2021-08-06T10:26:22Z</time>
      </trkpt>
      <trkpt lat="42.61535" lon="1.73622">
        <ele>2544.779</ele>
        <time>2021-08-06T10:26:24Z</time>
      </trkpt>
      <trkpt lat="42.61536" lon="1.73622">
        <ele>2544.517</ele>
        <time>2021-08-06T10:26:26Z</time>
      </trkpt>
      <trkpt lat="42.61536" lon="1.73621">
        <ele>2544.598</ele>
        <time>2021-08-06T10:26:28Z</time>
      </trkpt>
      <trkpt lat="42.61536" lon="1.73621">
        <ele>2544.605</ele>
        <time>2021-08-06T10:26:30Z</time>
      </trkpt>
      <trkpt lat="42.61536" lon="1.73622">
        <ele>2543.977</ele>
        <time>2021-08-06T10:26:32Z</time>
      </trkpt>
      <trkpt lat="42.61536" lon="1.73624">
        <ele>2543.668</ele>
        <time>2021-08-06T10:26:34Z</time>
      </trkpt>
      <trkpt lat="42.61537" lon="1.73626">
        <ele>2543.416</ele>
        <time>2021-08-06T10:26:36Z</time>
      </trkpt>
      <trkpt lat="42.61536" lon="1.73627">
        <ele>2543.447</ele>
        <time>2021-08-06T10:26:38Z</time>
      </trkpt>
      <trkpt lat="42.61536" lon="1.73627">
        <ele>2543.444</ele>
        <time>2021-08-06T10:26:40Z</time>
      </trkpt>
      <trkpt lat="42.61536" lon="1.73627">
        <ele>2543.443</ele>
        <time>2021-08-06T10:26:42Z</time>
      </trkpt>
      <trkpt lat="42.61536" lon="1.73627">
        <ele>2543.441</ele>
        <time>2021-08-06T10:26:44Z</time>
      </trkpt>
      <trkpt lat="42.61536" lon="1.73627">
        <ele>2543.443</ele>
        <time>2021-08-06T10:26:46Z</time>
      </trkpt>
      <trkpt lat="42.61536" lon="1.73627">
        <ele>2543.341</ele>
        <time>2021-08-06T10:26:48Z</time>
      </trkpt>
      <trkpt lat="42.61536" lon="1.73627">
        <ele>2543.355</ele>
        <time>2021-08-06T10:26:50Z</time>
      </trkpt>
      <trkpt lat="42.61536" lon="1.73627">
        <ele>2543.36</ele>
        <time>2021-08-06T10:26:52Z</time>
      </trkpt>
      <trkpt lat="42.61536" lon="1.73627">
        <ele>2543.36</ele>
        <time>2021-08-06T10:26:54Z</time>
      </trkpt>
      <trkpt lat="42.61536" lon="1.73627">
        <ele>2543.357</ele>
        <time>2021-08-06T10:26:56Z</time>
      </trkpt>
      <trkpt lat="42.61536" lon="1.73627">
        <ele>2543.356</ele>
        <time>2021-08-06T10:26:58Z</time>
      </trkpt>
      <trkpt lat="42.61536" lon="1.73627">
        <ele>2543.359</ele>
        <time>2021-08-06T10:27:00Z</time>
      </trkpt>
      <trkpt lat="42.61536" lon="1.73628">
        <ele>2543.037</ele>
        <time>2021-08-06T10:27:02Z</time>
      </trkpt>
      <trkpt lat="42.61536" lon="1.73629">
        <ele>2542.704</ele>
        <time>2021-08-06T10:27:04Z</time>
      </trkpt>
      <trkpt lat="42.61536" lon="1.73629">
        <ele>2542.664</ele>
        <time>2021-08-06T10:27:06Z</time>
      </trkpt>
      <trkpt lat="42.61536" lon="1.73629">
        <ele>2542.879</ele>
        <time>2021-08-06T10:27:08Z</time>
      </trkpt>
      <trkpt lat="42.61536" lon="1.73629">
        <ele>2542.895</ele>
        <time>2021-08-06T10:27:10Z</time>
      </trkpt>
      <trkpt lat="42.61536" lon="1.73629">
        <ele>2542.899</ele>
        <time>2021-08-06T10:27:12Z</time>
      </trkpt>
      <trkpt lat="42.61536" lon="1.73629">
        <ele>2542.906</ele>
        <time>2021-08-06T10:27:14Z</time>
      </trkpt>
      <trkpt lat="42.61536" lon="1.73629">
        <ele>2542.911</ele>
        <time>2021-08-06T10:27:16Z</time>
      </trkpt>
      <trkpt lat="42.61536" lon="1.73629">
        <ele>2543.216</ele>
        <time>2021-08-06T10:27:18Z</time>
      </trkpt>
      <trkpt lat="42.61537" lon="1.73629">
        <ele>2543.262</ele>
        <time>2021-08-06T10:27:20Z</time>
      </trkpt>
      <trkpt lat="42.61537" lon="1.73629">
        <ele>2542.67</ele>
        <time>2021-08-06T10:27:22Z</time>
      </trkpt>
      <trkpt lat="42.61536" lon="1.73629">
        <ele>2542.611</ele>
        <time>2021-08-06T10:27:24Z</time>
      </trkpt>
      <trkpt lat="42.61536" lon="1.73629">
        <ele>2542.613</ele>
        <time>2021-08-06T10:27:26Z</time>
      </trkpt>
      <trkpt lat="42.61536" lon="1.73629">
        <ele>2542.611</ele>
        <time>2021-08-06T10:27:28Z</time>
      </trkpt>
      <trkpt lat="42.61536" lon="1.73629">
        <ele>2542.611</ele>
        <time>2021-08-06T10:27:30Z</time>
      </trkpt>
      <trkpt lat="42.61536" lon="1.73629">
        <ele>2542.617</ele>
        <time>2021-08-06T10:27:32Z</time>
      </trkpt>
      <trkpt lat="42.61536" lon="1.73629">
        <ele>2542.619</ele>
        <time>2021-08-06T10:27:34Z</time>
      </trkpt>
      <trkpt lat="42.61536" lon="1.73629">
        <ele>2542.551</ele>
        <time>2021-08-06T10:27:36Z</time>
      </trkpt>
      <trkpt lat="42.61536" lon="1.73628">
        <ele>2542.311</ele>
        <time>2021-08-06T10:27:38Z</time>
      </trkpt>
      <trkpt lat="42.61536" lon="1.73628">
        <ele>2542.261</ele>
        <time>2021-08-06T10:27:40Z</time>
      </trkpt>
      <trkpt lat="42.61536" lon="1.73628">
        <ele>2542.261</ele>
        <time>2021-08-06T10:27:42Z</time>
      </trkpt>
      <trkpt lat="42.61536" lon="1.73628">
        <ele>2542.263</ele>
        <time>2021-08-06T10:27:44Z</time>
      </trkpt>
      <trkpt lat="42.61536" lon="1.73628">
        <ele>2542.266</ele>
        <time>2021-08-06T10:27:46Z</time>
      </trkpt>
      <trkpt lat="42.61536" lon="1.73628">
        <ele>2542.294</ele>
        <time>2021-08-06T10:27:48Z</time>
      </trkpt>
      <trkpt lat="42.61536" lon="1.73628">
        <ele>2542.287</ele>
        <time>2021-08-06T10:27:50Z</time>
      </trkpt>
      <trkpt lat="42.61536" lon="1.73628">
        <ele>2542.279</ele>
        <time>2021-08-06T10:27:52Z</time>
      </trkpt>
      <trkpt lat="42.61536" lon="1.73628">
        <ele>2542.281</ele>
        <time>2021-08-06T10:27:54Z</time>
      </trkpt>
      <trkpt lat="42.61536" lon="1.73628">
        <ele>2542.279</ele>
        <time>2021-08-06T10:27:56Z</time>
      </trkpt>
      <trkpt lat="42.61536" lon="1.73628">
        <ele>2542.27</ele>
        <time>2021-08-06T10:27:58Z</time>
      </trkpt>
      <trkpt lat="42.61537" lon="1.73628">
        <ele>2542.444</ele>
        <time>2021-08-06T10:28:00Z</time>
      </trkpt>
      <trkpt lat="42.61537" lon="1.73627">
        <ele>2542.045</ele>
        <time>2021-08-06T10:28:02Z</time>
      </trkpt>
      <trkpt lat="42.61537" lon="1.73628">
        <ele>2541.675</ele>
        <time>2021-08-06T10:28:04Z</time>
      </trkpt>
      <trkpt lat="42.61537" lon="1.73628">
        <ele>2541.671</ele>
        <time>2021-08-06T10:28:06Z</time>
      </trkpt>
      <trkpt lat="42.61537" lon="1.73628">
        <ele>2541.429</ele>
        <time>2021-08-06T10:28:08Z</time>
      </trkpt>
      <trkpt lat="42.61537" lon="1.73627">
        <ele>2541.087</ele>
        <time>2021-08-06T10:28:10Z</time>
      </trkpt>
      <trkpt lat="42.61537" lon="1.73627">
        <ele>2541.295</ele>
        <time>2021-08-06T10:28:12Z</time>
      </trkpt>
      <trkpt lat="42.61537" lon="1.73626">
        <ele>2541.296</ele>
        <time>2021-08-06T10:28:14Z</time>
      </trkpt>
      <trkpt lat="42.61537" lon="1.73626">
        <ele>2540.991</ele>
        <time>2021-08-06T10:28:16Z</time>
      </trkpt>
      <trkpt lat="42.61537" lon="1.73627">
        <ele>2540.863</ele>
        <time>2021-08-06T10:28:18Z</time>
      </trkpt>
      <trkpt lat="42.61537" lon="1.73627">
        <ele>2540.86</ele>
        <time>2021-08-06T10:28:20Z</time>
      </trkpt>
      <trkpt lat="42.61537" lon="1.73627">
        <ele>2541.036</ele>
        <time>2021-08-06T10:28:22Z</time>
      </trkpt>
      <trkpt lat="42.61537" lon="1.73627">
        <ele>2541.042</ele>
        <time>2021-08-06T10:28:24Z</time>
      </trkpt>
      <trkpt lat="42.61537" lon="1.73627">
        <ele>2541.049</ele>
        <time>2021-08-06T10:28:26Z</time>
      </trkpt>
      <trkpt lat="42.61537" lon="1.73627">
        <ele>2541.053</ele>
        <time>2021-08-06T10:28:28Z</time>
      </trkpt>
      <trkpt lat="42.61538" lon="1.73627">
        <ele>2540.784</ele>
        <time>2021-08-06T10:28:30Z</time>
      </trkpt>
      <trkpt lat="42.61538" lon="1.73628">
        <ele>2540.484</ele>
        <time>2021-08-06T10:28:32Z</time>
      </trkpt>
      <trkpt lat="42.61538" lon="1.73629">
        <ele>2540.362</ele>
        <time>2021-08-06T10:28:34Z</time>
      </trkpt>
      <trkpt lat="42.61538" lon="1.7363">
        <ele>2539.973</ele>
        <time>2021-08-06T10:28:36Z</time>
      </trkpt>
      <trkpt lat="42.61537" lon="1.7363">
        <ele>2539.849</ele>
        <time>2021-08-06T10:28:38Z</time>
      </trkpt>
      <trkpt lat="42.61537" lon="1.7363">
        <ele>2539.506</ele>
        <time>2021-08-06T10:28:39Z</time>
      </trkpt>
      <trkpt lat="42.61537" lon="1.7363">
        <ele>2539.478</ele>
        <time>2021-08-06T10:28:42Z</time>
      </trkpt>
      <trkpt lat="42.61537" lon="1.73631">
        <ele>2539.488</ele>
        <time>2021-08-06T10:28:44Z</time>
      </trkpt>
      <trkpt lat="42.61537" lon="1.73631">
        <ele>2539.565</ele>
        <time>2021-08-06T10:28:46Z</time>
      </trkpt>
      <trkpt lat="42.61536" lon="1.73633">
        <ele>2540.093</ele>
        <time>2021-08-06T10:28:48Z</time>
      </trkpt>
      <trkpt lat="42.61535" lon="1.73633">
        <ele>2540.104</ele>
        <time>2021-08-06T10:28:50Z</time>
      </trkpt>
      <trkpt lat="42.61535" lon="1.73633">
        <ele>2540.103</ele>
        <time>2021-08-06T10:28:52Z</time>
      </trkpt>
      <trkpt lat="42.61535" lon="1.73633">
        <ele>2540.101</ele>
        <time>2021-08-06T10:28:54Z</time>
      </trkpt>
      <trkpt lat="42.61535" lon="1.73634">
        <ele>2540.36</ele>
        <time>2021-08-06T10:28:56Z</time>
      </trkpt>
      <trkpt lat="42.61535" lon="1.73635">
        <ele>2540.58</ele>
        <time>2021-08-06T10:28:58Z</time>
      </trkpt>
      <trkpt lat="42.61534" lon="1.73637">
        <ele>2540.54</ele>
        <time>2021-08-06T10:29:00Z</time>
      </trkpt>
      <trkpt lat="42.61534" lon="1.73639">
        <ele>2539.694</ele>
        <time>2021-08-06T10:29:02Z</time>
      </trkpt>
      <trkpt lat="42.61535" lon="1.7364">
        <ele>2539.441</ele>
        <time>2021-08-06T10:29:04Z</time>
      </trkpt>
      <trkpt lat="42.61535" lon="1.73641">
        <ele>2539.22</ele>
        <time>2021-08-06T10:29:06Z</time>
      </trkpt>
      <trkpt lat="42.61534" lon="1.73641">
        <ele>2539.771</ele>
        <time>2021-08-06T10:29:08Z</time>
      </trkpt>
      <trkpt lat="42.61534" lon="1.73641">
        <ele>2539.77</ele>
        <time>2021-08-06T10:29:10Z</time>
      </trkpt>
      <trkpt lat="42.61534" lon="1.73641">
        <ele>2539.768</ele>
        <time>2021-08-06T10:29:12Z</time>
      </trkpt>
      <trkpt lat="42.61534" lon="1.73641">
        <ele>2539.77</ele>
        <time>2021-08-06T10:29:14Z</time>
      </trkpt>
      <trkpt lat="42.61534" lon="1.73641">
        <ele>2539.771</ele>
        <time>2021-08-06T10:29:16Z</time>
      </trkpt>
      <trkpt lat="42.61534" lon="1.73641">
        <ele>2539.775</ele>
        <time>2021-08-06T10:29:18Z</time>
      </trkpt>
      <trkpt lat="42.61534" lon="1.73641">
        <ele>2539.776</ele>
        <time>2021-08-06T10:29:20Z</time>
      </trkpt>
      <trkpt lat="42.61534" lon="1.73641">
        <ele>2539.779</ele>
        <time>2021-08-06T10:29:22Z</time>
      </trkpt>
      <trkpt lat="42.61534" lon="1.73641">
        <ele>2539.785</ele>
        <time>2021-08-06T10:29:24Z</time>
      </trkpt>
      <trkpt lat="42.61534" lon="1.73641">
        <ele>2539.783</ele>
        <time>2021-08-06T10:29:26Z</time>
      </trkpt>
      <trkpt lat="42.61534" lon="1.73641">
        <ele>2539.781</ele>
        <time>2021-08-06T10:29:28Z</time>
      </trkpt>
      <trkpt lat="42.61534" lon="1.73641">
        <ele>2539.776</ele>
        <time>2021-08-06T10:29:30Z</time>
      </trkpt>
      <trkpt lat="42.61534" lon="1.73641">
        <ele>2539.77</ele>
        <time>2021-08-06T10:29:32Z</time>
      </trkpt>
      <trkpt lat="42.61534" lon="1.73641">
        <ele>2539.767</ele>
        <time>2021-08-06T10:29:34Z</time>
      </trkpt>
      <trkpt lat="42.61534" lon="1.7364">
        <ele>2539.778</ele>
        <time>2021-08-06T10:29:36Z</time>
      </trkpt>
      <trkpt lat="42.61534" lon="1.7364">
        <ele>2539.359</ele>
        <time>2021-08-06T10:29:38Z</time>
      </trkpt>
      <trkpt lat="42.61534" lon="1.7364">
        <ele>2539.358</ele>
        <time>2021-08-06T10:29:40Z</time>
      </trkpt>
      <trkpt lat="42.61534" lon="1.7364">
        <ele>2539.355</ele>
        <time>2021-08-06T10:29:42Z</time>
      </trkpt>
      <trkpt lat="42.61534" lon="1.73639">
        <ele>2539.27</ele>
        <time>2021-08-06T10:29:44Z</time>
      </trkpt>
      <trkpt lat="42.61534" lon="1.73638">
        <ele>2540.066</ele>
        <time>2021-08-06T10:29:46Z</time>
      </trkpt>
      <trkpt lat="42.61534" lon="1.73638">
        <ele>2540.403</ele>
        <time>2021-08-06T10:29:48Z</time>
      </trkpt>
      <trkpt lat="42.61534" lon="1.73638">
        <ele>2540.401</ele>
        <time>2021-08-06T10:29:50Z</time>
      </trkpt>
      <trkpt lat="42.61534" lon="1.73638">
        <ele>2540.4</ele>
        <time>2021-08-06T10:29:52Z</time>
      </trkpt>
      <trkpt lat="42.61534" lon="1.73638">
        <ele>2540.396</ele>
        <time>2021-08-06T10:29:54Z</time>
      </trkpt>
      <trkpt lat="42.61533" lon="1.73637">
        <ele>2540.27</ele>
        <time>2021-08-06T10:29:56Z</time>
      </trkpt>
      <trkpt lat="42.61534" lon="1.73635">
        <ele>2540.659</ele>
        <time>2021-08-06T10:29:58Z</time>
      </trkpt>
      <trkpt lat="42.61534" lon="1.73635">
        <ele>2540.784</ele>
        <time>2021-08-06T10:30:00Z</time>
      </trkpt>
      <trkpt lat="42.61533" lon="1.73635">
        <ele>2540.968</ele>
        <time>2021-08-06T10:30:02Z</time>
      </trkpt>
      <trkpt lat="42.61532" lon="1.73636">
        <ele>2541.85</ele>
        <time>2021-08-06T10:30:04Z</time>
      </trkpt>
      <trkpt lat="42.61532" lon="1.73636">
        <ele>2542.883</ele>
        <time>2021-08-06T10:30:06Z</time>
      </trkpt>
      <trkpt lat="42.61531" lon="1.73636">
        <ele>2543.921</ele>
        <time>2021-08-06T10:30:08Z</time>
      </trkpt>
      <trkpt lat="42.6153" lon="1.73637">
        <ele>2544.558</ele>
        <time>2021-08-06T10:30:10Z</time>
      </trkpt>
      <trkpt lat="42.61529" lon="1.73637">
        <ele>2544.573</ele>
        <time>2021-08-06T10:30:12Z</time>
      </trkpt>
      <trkpt lat="42.61529" lon="1.73637">
        <ele>2544.52</ele>
        <time>2021-08-06T10:30:14Z</time>
      </trkpt>
      <trkpt lat="42.61529" lon="1.73637">
        <ele>2544.518</ele>
        <time>2021-08-06T10:30:16Z</time>
      </trkpt>
      <trkpt lat="42.61529" lon="1.73638">
        <ele>2544.921</ele>
        <time>2021-08-06T10:30:18Z</time>
      </trkpt>
      <trkpt lat="42.61529" lon="1.73638">
        <ele>2544.317</ele>
        <time>2021-08-06T10:30:20Z</time>
      </trkpt>
      <trkpt lat="42.61528" lon="1.73639">
        <ele>2543.808</ele>
        <time>2021-08-06T10:30:22Z</time>
      </trkpt>
      <trkpt lat="42.61527" lon="1.7364">
        <ele>2543.502</ele>
        <time>2021-08-06T10:30:24Z</time>
      </trkpt>
      <trkpt lat="42.61527" lon="1.7364">
        <ele>2543.661</ele>
        <time>2021-08-06T10:30:26Z</time>
      </trkpt>
      <trkpt lat="42.61527" lon="1.7364">
        <ele>2543.625</ele>
        <time>2021-08-06T10:30:28Z</time>
      </trkpt>
      <trkpt lat="42.61528" lon="1.7364">
        <ele>2543.53</ele>
        <time>2021-08-06T10:30:30Z</time>
      </trkpt>
      <trkpt lat="42.61528" lon="1.7364">
        <ele>2543.484</ele>
        <time>2021-08-06T10:30:32Z</time>
      </trkpt>
      <trkpt lat="42.61527" lon="1.7364">
        <ele>2543.305</ele>
        <time>2021-08-06T10:30:34Z</time>
      </trkpt>
      <trkpt lat="42.61527" lon="1.73641">
        <ele>2543.23</ele>
        <time>2021-08-06T10:30:36Z</time>
      </trkpt>
      <trkpt lat="42.61526" lon="1.73641">
        <ele>2544.064</ele>
        <time>2021-08-06T10:30:38Z</time>
      </trkpt>
      <trkpt lat="42.61525" lon="1.73642">
        <ele>2543.833</ele>
        <time>2021-08-06T10:30:40Z</time>
      </trkpt>
      <trkpt lat="42.61525" lon="1.73643">
        <ele>2544.846</ele>
        <time>2021-08-06T10:30:42Z</time>
      </trkpt>
      <trkpt lat="42.61524" lon="1.73643">
        <ele>2545.919</ele>
        <time>2021-08-06T10:30:44Z</time>
      </trkpt>
      <trkpt lat="42.61523" lon="1.73643">
        <ele>2546.504</ele>
        <time>2021-08-06T10:30:46Z</time>
      </trkpt>
      <trkpt lat="42.61522" lon="1.73643">
        <ele>2547.161</ele>
        <time>2021-08-06T10:30:48Z</time>
      </trkpt>
      <trkpt lat="42.61521" lon="1.73643">
        <ele>2547.984</ele>
        <time>2021-08-06T10:30:50Z</time>
      </trkpt>
      <trkpt lat="42.6152" lon="1.73643">
        <ele>2547.286</ele>
        <time>2021-08-06T10:30:52Z</time>
      </trkpt>
      <trkpt lat="42.6152" lon="1.73643">
        <ele>2547.507</ele>
        <time>2021-08-06T10:30:54Z</time>
      </trkpt>
      <trkpt lat="42.61519" lon="1.73644">
        <ele>2548.494</ele>
        <time>2021-08-06T10:30:56Z</time>
      </trkpt>
      <trkpt lat="42.61519" lon="1.73644">
        <ele>2548.433</ele>
        <time>2021-08-06T10:30:58Z</time>
      </trkpt>
      <trkpt lat="42.61518" lon="1.73645">
        <ele>2549.035</ele>
        <time>2021-08-06T10:31:00Z</time>
      </trkpt>
      <trkpt lat="42.61517" lon="1.73646">
        <ele>2549.272</ele>
        <time>2021-08-06T10:31:02Z</time>
      </trkpt>
      <trkpt lat="42.61517" lon="1.73647">
        <ele>2549.608</ele>
        <time>2021-08-06T10:31:04Z</time>
      </trkpt>
      <trkpt lat="42.61517" lon="1.73649">
        <ele>2549.895</ele>
        <time>2021-08-06T10:31:06Z</time>
      </trkpt>
      <trkpt lat="42.61517" lon="1.7365">
        <ele>2550.015</ele>
        <time>2021-08-06T10:31:08Z</time>
      </trkpt>
      <trkpt lat="42.61516" lon="1.73652">
        <ele>2550.436</ele>
        <time>2021-08-06T10:31:10Z</time>
      </trkpt>
      <trkpt lat="42.61516" lon="1.73653">
        <ele>2550.128</ele>
        <time>2021-08-06T10:31:12Z</time>
      </trkpt>
      <trkpt lat="42.61516" lon="1.73655">
        <ele>2550.101</ele>
        <time>2021-08-06T10:31:14Z</time>
      </trkpt>
      <trkpt lat="42.61516" lon="1.73656">
        <ele>2550.344</ele>
        <time>2021-08-06T10:31:16Z</time>
      </trkpt>
      <trkpt lat="42.61516" lon="1.73657">
        <ele>2549.745</ele>
        <time>2021-08-06T10:31:18Z</time>
      </trkpt>
      <trkpt lat="42.61516" lon="1.73658">
        <ele>2550.202</ele>
        <time>2021-08-06T10:31:20Z</time>
      </trkpt>
      <trkpt lat="42.61516" lon="1.73658">
        <ele>2549.845</ele>
        <time>2021-08-06T10:31:22Z</time>
      </trkpt>
      <trkpt lat="42.61517" lon="1.73658">
        <ele>2549.803</ele>
        <time>2021-08-06T10:31:24Z</time>
      </trkpt>
      <trkpt lat="42.61517" lon="1.73658">
        <ele>2549.187</ele>
        <time>2021-08-06T10:31:26Z</time>
      </trkpt>
      <trkpt lat="42.61517" lon="1.73658">
        <ele>2549.17</ele>
        <time>2021-08-06T10:31:28Z</time>
      </trkpt>
      <trkpt lat="42.61517" lon="1.73657">
        <ele>2549.151</ele>
        <time>2021-08-06T10:31:30Z</time>
      </trkpt>
      <trkpt lat="42.61517" lon="1.73658">
        <ele>2548.921</ele>
        <time>2021-08-06T10:31:32Z</time>
      </trkpt>
      <trkpt lat="42.61517" lon="1.73658">
        <ele>2548.65</ele>
        <time>2021-08-06T10:31:34Z</time>
      </trkpt>
      <trkpt lat="42.61517" lon="1.73659">
        <ele>2548.911</ele>
        <time>2021-08-06T10:31:36Z</time>
      </trkpt>
      <trkpt lat="42.61517" lon="1.73659">
        <ele>2549.041</ele>
        <time>2021-08-06T10:31:38Z</time>
      </trkpt>
      <trkpt lat="42.61516" lon="1.7366">
        <ele>2549.246</ele>
        <time>2021-08-06T10:31:40Z</time>
      </trkpt>
      <trkpt lat="42.61516" lon="1.7366">
        <ele>2549.1</ele>
        <time>2021-08-06T10:31:42Z</time>
      </trkpt>
      <trkpt lat="42.61516" lon="1.73661">
        <ele>2549.732</ele>
        <time>2021-08-06T10:31:44Z</time>
      </trkpt>
      <trkpt lat="42.61516" lon="1.73661">
        <ele>2549.83</ele>
        <time>2021-08-06T10:31:46Z</time>
      </trkpt>
      <trkpt lat="42.61516" lon="1.73661">
        <ele>2549.83</ele>
        <time>2021-08-06T10:31:48Z</time>
      </trkpt>
      <trkpt lat="42.61516" lon="1.73662">
        <ele>2549.67</ele>
        <time>2021-08-06T10:31:50Z</time>
      </trkpt>
      <trkpt lat="42.61516" lon="1.73663">
        <ele>2549.052</ele>
        <time>2021-08-06T10:31:52Z</time>
      </trkpt>
      <trkpt lat="42.61516" lon="1.73663">
        <ele>2548.732</ele>
        <time>2021-08-06T10:31:54Z</time>
      </trkpt>
      <trkpt lat="42.61516" lon="1.73664">
        <ele>2548.398</ele>
        <time>2021-08-06T10:31:56Z</time>
      </trkpt>
      <trkpt lat="42.61516" lon="1.73665">
        <ele>2547.893</ele>
        <time>2021-08-06T10:31:58Z</time>
      </trkpt>
      <trkpt lat="42.61516" lon="1.73667">
        <ele>2547.96</ele>
        <time>2021-08-06T10:32:00Z</time>
      </trkpt>
      <trkpt lat="42.61515" lon="1.73667">
        <ele>2548.134</ele>
        <time>2021-08-06T10:32:02Z</time>
      </trkpt>
      <trkpt lat="42.61515" lon="1.73668">
        <ele>2547.823</ele>
        <time>2021-08-06T10:32:04Z</time>
      </trkpt>
      <trkpt lat="42.61515" lon="1.73668">
        <ele>2547.809</ele>
        <time>2021-08-06T10:32:06Z</time>
      </trkpt>
      <trkpt lat="42.61515" lon="1.73668">
        <ele>2547.797</ele>
        <time>2021-08-06T10:32:08Z</time>
      </trkpt>
      <trkpt lat="42.61514" lon="1.73669">
        <ele>2547.313</ele>
        <time>2021-08-06T10:32:10Z</time>
      </trkpt>
      <trkpt lat="42.61514" lon="1.7367">
        <ele>2547.591</ele>
        <time>2021-08-06T10:32:12Z</time>
      </trkpt>
      <trkpt lat="42.61513" lon="1.73671">
        <ele>2547.822</ele>
        <time>2021-08-06T10:32:14Z</time>
      </trkpt>
      <trkpt lat="42.61513" lon="1.73671">
        <ele>2547.822</ele>
        <time>2021-08-06T10:32:16Z</time>
      </trkpt>
      <trkpt lat="42.61513" lon="1.73671">
        <ele>2547.822</ele>
        <time>2021-08-06T10:32:18Z</time>
      </trkpt>
      <trkpt lat="42.61513" lon="1.73671">
        <ele>2547.993</ele>
        <time>2021-08-06T10:32:20Z</time>
      </trkpt>
      <trkpt lat="42.61512" lon="1.73671">
        <ele>2547.648</ele>
        <time>2021-08-06T10:32:22Z</time>
      </trkpt>
      <trkpt lat="42.61511" lon="1.73671">
        <ele>2547.653</ele>
        <time>2021-08-06T10:32:24Z</time>
      </trkpt>
      <trkpt lat="42.61511" lon="1.73671">
        <ele>2547.655</ele>
        <time>2021-08-06T10:32:26Z</time>
      </trkpt>
      <trkpt lat="42.61511" lon="1.73671">
        <ele>2547.538</ele>
        <time>2021-08-06T10:32:28Z</time>
      </trkpt>
      <trkpt lat="42.61511" lon="1.73671">
        <ele>2547.598</ele>
        <time>2021-08-06T10:32:30Z</time>
      </trkpt>
      <trkpt lat="42.61511" lon="1.73671">
        <ele>2547.597</ele>
        <time>2021-08-06T10:32:32Z</time>
      </trkpt>
      <trkpt lat="42.61511" lon="1.73671">
        <ele>2547.598</ele>
        <time>2021-08-06T10:32:34Z</time>
      </trkpt>
      <trkpt lat="42.61511" lon="1.73671">
        <ele>2547.6</ele>
        <time>2021-08-06T10:32:36Z</time>
      </trkpt>
      <trkpt lat="42.61511" lon="1.73671">
        <ele>2547.6</ele>
        <time>2021-08-06T10:32:38Z</time>
      </trkpt>
      <trkpt lat="42.61511" lon="1.73671">
        <ele>2547.599</ele>
        <time>2021-08-06T10:32:40Z</time>
      </trkpt>
      <trkpt lat="42.61511" lon="1.73671">
        <ele>2547.597</ele>
        <time>2021-08-06T10:32:42Z</time>
      </trkpt>
      <trkpt lat="42.61511" lon="1.73671">
        <ele>2547.594</ele>
        <time>2021-08-06T10:32:44Z</time>
      </trkpt>
      <trkpt lat="42.61511" lon="1.73671">
        <ele>2547.597</ele>
        <time>2021-08-06T10:32:46Z</time>
      </trkpt>
      <trkpt lat="42.61511" lon="1.73671">
        <ele>2547.597</ele>
        <time>2021-08-06T10:32:48Z</time>
      </trkpt>
      <trkpt lat="42.61511" lon="1.73671">
        <ele>2547.388</ele>
        <time>2021-08-06T10:32:50Z</time>
      </trkpt>
      <trkpt lat="42.61511" lon="1.73671">
        <ele>2547.363</ele>
        <time>2021-08-06T10:32:52Z</time>
      </trkpt>
      <trkpt lat="42.61511" lon="1.73671">
        <ele>2547.207</ele>
        <time>2021-08-06T10:32:54Z</time>
      </trkpt>
      <trkpt lat="42.61511" lon="1.73671">
        <ele>2547.773</ele>
        <time>2021-08-06T10:32:56Z</time>
      </trkpt>
      <trkpt lat="42.6151" lon="1.73671">
        <ele>2547.435</ele>
        <time>2021-08-06T10:32:58Z</time>
      </trkpt>
      <trkpt lat="42.6151" lon="1.73671">
        <ele>2547.45</ele>
        <time>2021-08-06T10:33:00Z</time>
      </trkpt>
      <trkpt lat="42.6151" lon="1.73671">
        <ele>2547.793</ele>
        <time>2021-08-06T10:33:02Z</time>
      </trkpt>
      <trkpt lat="42.6151" lon="1.73671">
        <ele>2547.786</ele>
        <time>2021-08-06T10:33:04Z</time>
      </trkpt>
      <trkpt lat="42.6151" lon="1.73671">
        <ele>2547.782</ele>
        <time>2021-08-06T10:33:06Z</time>
      </trkpt>
      <trkpt lat="42.6151" lon="1.73671">
        <ele>2547.781</ele>
        <time>2021-08-06T10:33:08Z</time>
      </trkpt>
      <trkpt lat="42.6151" lon="1.73671">
        <ele>2547.78</ele>
        <time>2021-08-06T10:33:10Z</time>
      </trkpt>
      <trkpt lat="42.6151" lon="1.73671">
        <ele>2547.776</ele>
        <time>2021-08-06T10:33:12Z</time>
      </trkpt>
      <trkpt lat="42.6151" lon="1.73671">
        <ele>2547.772</ele>
        <time>2021-08-06T10:33:14Z</time>
      </trkpt>
      <trkpt lat="42.6151" lon="1.73672">
        <ele>2548.209</ele>
        <time>2021-08-06T10:33:16Z</time>
      </trkpt>
      <trkpt lat="42.6151" lon="1.73672">
        <ele>2548.207</ele>
        <time>2021-08-06T10:33:18Z</time>
      </trkpt>
      <trkpt lat="42.6151" lon="1.73672">
        <ele>2548.563</ele>
        <time>2021-08-06T10:33:20Z</time>
      </trkpt>
      <trkpt lat="42.6151" lon="1.73672">
        <ele>2548.561</ele>
        <time>2021-08-06T10:33:22Z</time>
      </trkpt>
      <trkpt lat="42.6151" lon="1.73673">
        <ele>2548.429</ele>
        <time>2021-08-06T10:33:24Z</time>
      </trkpt>
      <trkpt lat="42.6151" lon="1.73673">
        <ele>2548.482</ele>
        <time>2021-08-06T10:33:26Z</time>
      </trkpt>
      <trkpt lat="42.6151" lon="1.73674">
        <ele>2548.692</ele>
        <time>2021-08-06T10:33:28Z</time>
      </trkpt>
      <trkpt lat="42.6151" lon="1.73674">
        <ele>2548.67</ele>
        <time>2021-08-06T10:33:30Z</time>
      </trkpt>
      <trkpt lat="42.6151" lon="1.73674">
        <ele>2548.679</ele>
        <time>2021-08-06T10:33:32Z</time>
      </trkpt>
      <trkpt lat="42.6151" lon="1.73673">
        <ele>2548.273</ele>
        <time>2021-08-06T10:33:34Z</time>
      </trkpt>
      <trkpt lat="42.6151" lon="1.73673">
        <ele>2548.265</ele>
        <time>2021-08-06T10:33:36Z</time>
      </trkpt>
      <trkpt lat="42.61509" lon="1.73673">
        <ele>2547.569</ele>
        <time>2021-08-06T10:33:38Z</time>
      </trkpt>
      <trkpt lat="42.61509" lon="1.73674">
        <ele>2547.058</ele>
        <time>2021-08-06T10:33:40Z</time>
      </trkpt>
      <trkpt lat="42.61508" lon="1.73675">
        <ele>2547.275</ele>
        <time>2021-08-06T10:33:42Z</time>
      </trkpt>
      <trkpt lat="42.61508" lon="1.73676">
        <ele>2547.117</ele>
        <time>2021-08-06T10:33:44Z</time>
      </trkpt>
      <trkpt lat="42.61507" lon="1.73676">
        <ele>2547.636</ele>
        <time>2021-08-06T10:33:46Z</time>
      </trkpt>
      <trkpt lat="42.61506" lon="1.73677">
        <ele>2547.411</ele>
        <time>2021-08-06T10:33:48Z</time>
      </trkpt>
      <trkpt lat="42.61505" lon="1.73677">
        <ele>2546.825</ele>
        <time>2021-08-06T10:33:50Z</time>
      </trkpt>
      <trkpt lat="42.61504" lon="1.73676">
        <ele>2545.9</ele>
        <time>2021-08-06T10:33:52Z</time>
      </trkpt>
      <trkpt lat="42.61504" lon="1.73676">
        <ele>2546.084</ele>
        <time>2021-08-06T10:33:54Z</time>
      </trkpt>
      <trkpt lat="42.61504" lon="1.73676">
        <ele>2546.09</ele>
        <time>2021-08-06T10:33:56Z</time>
      </trkpt>
      <trkpt lat="42.61504" lon="1.73676">
        <ele>2546.092</ele>
        <time>2021-08-06T10:33:58Z</time>
      </trkpt>
      <trkpt lat="42.61504" lon="1.73676">
        <ele>2546.243</ele>
        <time>2021-08-06T10:34:00Z</time>
      </trkpt>
      <trkpt lat="42.61504" lon="1.73676">
        <ele>2546.245</ele>
        <time>2021-08-06T10:34:02Z</time>
      </trkpt>
      <trkpt lat="42.61504" lon="1.73676">
        <ele>2546.247</ele>
        <time>2021-08-06T10:34:04Z</time>
      </trkpt>
      <trkpt lat="42.61504" lon="1.73676">
        <ele>2546.249</ele>
        <time>2021-08-06T10:34:06Z</time>
      </trkpt>
      <trkpt lat="42.61504" lon="1.73676">
        <ele>2546.255</ele>
        <time>2021-08-06T10:34:08Z</time>
      </trkpt>
      <trkpt lat="42.61504" lon="1.73676">
        <ele>2546.257</ele>
        <time>2021-08-06T10:34:10Z</time>
      </trkpt>
      <trkpt lat="42.61504" lon="1.73676">
        <ele>2546.259</ele>
        <time>2021-08-06T10:34:12Z</time>
      </trkpt>
      <trkpt lat="42.61504" lon="1.73676">
        <ele>2546.27</ele>
        <time>2021-08-06T10:34:14Z</time>
      </trkpt>
      <trkpt lat="42.61504" lon="1.73676">
        <ele>2546.27</ele>
        <time>2021-08-06T10:34:16Z</time>
      </trkpt>
      <trkpt lat="42.61504" lon="1.73676">
        <ele>2546.266</ele>
        <time>2021-08-06T10:34:18Z</time>
      </trkpt>
      <trkpt lat="42.61504" lon="1.73676">
        <ele>2546.268</ele>
        <time>2021-08-06T10:34:20Z</time>
      </trkpt>
      <trkpt lat="42.61504" lon="1.73676">
        <ele>2546.269</ele>
        <time>2021-08-06T10:34:22Z</time>
      </trkpt>
      <trkpt lat="42.61504" lon="1.73676">
        <ele>2546.273</ele>
        <time>2021-08-06T10:34:24Z</time>
      </trkpt>
      <trkpt lat="42.61504" lon="1.73676">
        <ele>2546.274</ele>
        <time>2021-08-06T10:34:26Z</time>
      </trkpt>
      <trkpt lat="42.61504" lon="1.73676">
        <ele>2546.279</ele>
        <time>2021-08-06T10:34:28Z</time>
      </trkpt>
      <trkpt lat="42.61504" lon="1.73676">
        <ele>2546.276</ele>
        <time>2021-08-06T10:34:30Z</time>
      </trkpt>
      <trkpt lat="42.61504" lon="1.73676">
        <ele>2546.274</ele>
        <time>2021-08-06T10:34:32Z</time>
      </trkpt>
      <trkpt lat="42.61504" lon="1.73676">
        <ele>2546.276</ele>
        <time>2021-08-06T10:34:34Z</time>
      </trkpt>
      <trkpt lat="42.61504" lon="1.73676">
        <ele>2546.278</ele>
        <time>2021-08-06T10:34:36Z</time>
      </trkpt>
      <trkpt lat="42.61504" lon="1.73676">
        <ele>2546.281</ele>
        <time>2021-08-06T10:34:38Z</time>
      </trkpt>
      <trkpt lat="42.61504" lon="1.73676">
        <ele>2546.28</ele>
        <time>2021-08-06T10:34:40Z</time>
      </trkpt>
      <trkpt lat="42.61504" lon="1.73676">
        <ele>2546.278</ele>
        <time>2021-08-06T10:34:42Z</time>
      </trkpt>
      <trkpt lat="42.61504" lon="1.73676">
        <ele>2546.279</ele>
        <time>2021-08-06T10:34:44Z</time>
      </trkpt>
      <trkpt lat="42.61504" lon="1.73676">
        <ele>2546.28</ele>
        <time>2021-08-06T10:34:46Z</time>
      </trkpt>
      <trkpt lat="42.61504" lon="1.73676">
        <ele>2546.281</ele>
        <time>2021-08-06T10:34:48Z</time>
      </trkpt>
      <trkpt lat="42.61504" lon="1.73676">
        <ele>2546.284</ele>
        <time>2021-08-06T10:34:50Z</time>
      </trkpt>
      <trkpt lat="42.61504" lon="1.73676">
        <ele>2546.285</ele>
        <time>2021-08-06T10:34:52Z</time>
      </trkpt>
      <trkpt lat="42.61504" lon="1.73676">
        <ele>2546.283</ele>
        <time>2021-08-06T10:34:54Z</time>
      </trkpt>
      <trkpt lat="42.61504" lon="1.73676">
        <ele>2546.284</ele>
        <time>2021-08-06T10:34:56Z</time>
      </trkpt>
      <trkpt lat="42.61504" lon="1.73676">
        <ele>2546.284</ele>
        <time>2021-08-06T10:34:58Z</time>
      </trkpt>
      <trkpt lat="42.61504" lon="1.73676">
        <ele>2546.286</ele>
        <time>2021-08-06T10:35:00Z</time>
      </trkpt>
      <trkpt lat="42.61504" lon="1.73676">
        <ele>2546.288</ele>
        <time>2021-08-06T10:35:02Z</time>
      </trkpt>
      <trkpt lat="42.61504" lon="1.73676">
        <ele>2546.285</ele>
        <time>2021-08-06T10:35:04Z</time>
      </trkpt>
      <trkpt lat="42.61504" lon="1.73676">
        <ele>2546.286</ele>
        <time>2021-08-06T10:35:06Z</time>
      </trkpt>
      <trkpt lat="42.61504" lon="1.73676">
        <ele>2546.292</ele>
        <time>2021-08-06T10:35:08Z</time>
      </trkpt>
      <trkpt lat="42.61504" lon="1.73676">
        <ele>2546.291</ele>
        <time>2021-08-06T10:35:10Z</time>
      </trkpt>
      <trkpt lat="42.61504" lon="1.73676">
        <ele>2546.292</ele>
        <time>2021-08-06T10:35:12Z</time>
      </trkpt>
      <trkpt lat="42.61504" lon="1.73676">
        <ele>2546.292</ele>
        <time>2021-08-06T10:35:14Z</time>
      </trkpt>
      <trkpt lat="42.61504" lon="1.73676">
        <ele>2546.293</ele>
        <time>2021-08-06T10:35:16Z</time>
      </trkpt>
      <trkpt lat="42.61504" lon="1.73676">
        <ele>2546.295</ele>
        <time>2021-08-06T10:35:18Z</time>
      </trkpt>
      <trkpt lat="42.61504" lon="1.73676">
        <ele>2546.297</ele>
        <time>2021-08-06T10:35:20Z</time>
      </trkpt>
      <trkpt lat="42.61504" lon="1.73676">
        <ele>2546.298</ele>
        <time>2021-08-06T10:35:22Z</time>
      </trkpt>
      <trkpt lat="42.61504" lon="1.73676">
        <ele>2546.298</ele>
        <time>2021-08-06T10:35:24Z</time>
      </trkpt>
      <trkpt lat="42.61504" lon="1.73676">
        <ele>2546.296</ele>
        <time>2021-08-06T10:35:26Z</time>
      </trkpt>
      <trkpt lat="42.61504" lon="1.73676">
        <ele>2546.297</ele>
        <time>2021-08-06T10:35:28Z</time>
      </trkpt>
      <trkpt lat="42.61504" lon="1.73676">
        <ele>2546.299</ele>
        <time>2021-08-06T10:35:30Z</time>
      </trkpt>
      <trkpt lat="42.61504" lon="1.73676">
        <ele>2546.299</ele>
        <time>2021-08-06T10:35:32Z</time>
      </trkpt>
      <trkpt lat="42.61504" lon="1.73676">
        <ele>2546.301</ele>
        <time>2021-08-06T10:35:34Z</time>
      </trkpt>
      <trkpt lat="42.61504" lon="1.73676">
        <ele>2546.299</ele>
        <time>2021-08-06T10:35:36Z</time>
      </trkpt>
      <trkpt lat="42.61504" lon="1.73676">
        <ele>2546.303</ele>
        <time>2021-08-06T10:35:38Z</time>
      </trkpt>
      <trkpt lat="42.61504" lon="1.73676">
        <ele>2546.304</ele>
        <time>2021-08-06T10:35:40Z</time>
      </trkpt>
      <trkpt lat="42.61504" lon="1.73676">
        <ele>2546.304</ele>
        <time>2021-08-06T10:35:42Z</time>
      </trkpt>
      <trkpt lat="42.61504" lon="1.73676">
        <ele>2546.303</ele>
        <time>2021-08-06T10:35:44Z</time>
      </trkpt>
      <trkpt lat="42.61504" lon="1.73676">
        <ele>2546.303</ele>
        <time>2021-08-06T10:35:46Z</time>
      </trkpt>
      <trkpt lat="42.61504" lon="1.73676">
        <ele>2546.305</ele>
        <time>2021-08-06T10:35:48Z</time>
      </trkpt>
      <trkpt lat="42.61504" lon="1.73676">
        <ele>2546.305</ele>
        <time>2021-08-06T10:35:50Z</time>
      </trkpt>
      <trkpt lat="42.61504" lon="1.73676">
        <ele>2546.303</ele>
        <time>2021-08-06T10:35:52Z</time>
      </trkpt>
      <trkpt lat="42.61504" lon="1.73676">
        <ele>2546.304</ele>
        <time>2021-08-06T10:35:54Z</time>
      </trkpt>
      <trkpt lat="42.61504" lon="1.73676">
        <ele>2546.302</ele>
        <time>2021-08-06T10:35:56Z</time>
      </trkpt>
      <trkpt lat="42.61504" lon="1.73676">
        <ele>2546.304</ele>
        <time>2021-08-06T10:35:58Z</time>
      </trkpt>
      <trkpt lat="42.61504" lon="1.73676">
        <ele>2546.305</ele>
        <time>2021-08-06T10:36:00Z</time>
      </trkpt>
      <trkpt lat="42.61504" lon="1.73676">
        <ele>2546.305</ele>
        <time>2021-08-06T10:36:02Z</time>
      </trkpt>
      <trkpt lat="42.61504" lon="1.73676">
        <ele>2546.307</ele>
        <time>2021-08-06T10:36:04Z</time>
      </trkpt>
      <trkpt lat="42.61504" lon="1.73676">
        <ele>2546.307</ele>
        <time>2021-08-06T10:36:06Z</time>
      </trkpt>
      <trkpt lat="42.61504" lon="1.73676">
        <ele>2546.309</ele>
        <time>2021-08-06T10:36:08Z</time>
      </trkpt>
      <trkpt lat="42.61504" lon="1.73676">
        <ele>2546.309</ele>
        <time>2021-08-06T10:36:10Z</time>
      </trkpt>
      <trkpt lat="42.61504" lon="1.73676">
        <ele>2546.308</ele>
        <time>2021-08-06T10:36:12Z</time>
      </trkpt>
      <trkpt lat="42.61504" lon="1.73676">
        <ele>2546.31</ele>
        <time>2021-08-06T10:36:14Z</time>
      </trkpt>
      <trkpt lat="42.61504" lon="1.73676">
        <ele>2546.31</ele>
        <time>2021-08-06T10:36:16Z</time>
      </trkpt>
      <trkpt lat="42.61504" lon="1.73676">
        <ele>2546.312</ele>
        <time>2021-08-06T10:36:18Z</time>
      </trkpt>
      <trkpt lat="42.61504" lon="1.73676">
        <ele>2546.313</ele>
        <time>2021-08-06T10:36:20Z</time>
      </trkpt>
      <trkpt lat="42.61504" lon="1.73676">
        <ele>2546.313</ele>
        <time>2021-08-06T10:36:22Z</time>
      </trkpt>
      <trkpt lat="42.61504" lon="1.73676">
        <ele>2546.312</ele>
        <time>2021-08-06T10:36:24Z</time>
      </trkpt>
      <trkpt lat="42.61504" lon="1.73676">
        <ele>2546.311</ele>
        <time>2021-08-06T10:36:26Z</time>
      </trkpt>
      <trkpt lat="42.61504" lon="1.73676">
        <ele>2546.313</ele>
        <time>2021-08-06T10:36:28Z</time>
      </trkpt>
      <trkpt lat="42.61504" lon="1.73676">
        <ele>2546.312</ele>
        <time>2021-08-06T10:36:30Z</time>
      </trkpt>
      <trkpt lat="42.61504" lon="1.73676">
        <ele>2546.31</ele>
        <time>2021-08-06T10:36:32Z</time>
      </trkpt>
      <trkpt lat="42.61504" lon="1.73676">
        <ele>2546.312</ele>
        <time>2021-08-06T10:36:34Z</time>
      </trkpt>
      <trkpt lat="42.61504" lon="1.73676">
        <ele>2546.314</ele>
        <time>2021-08-06T10:36:36Z</time>
      </trkpt>
      <trkpt lat="42.61504" lon="1.73676">
        <ele>2546.313</ele>
        <time>2021-08-06T10:36:38Z</time>
      </trkpt>
      <trkpt lat="42.61504" lon="1.73676">
        <ele>2546.314</ele>
        <time>2021-08-06T10:36:40Z</time>
      </trkpt>
      <trkpt lat="42.61504" lon="1.73676">
        <ele>2546.313</ele>
        <time>2021-08-06T10:36:42Z</time>
      </trkpt>
      <trkpt lat="42.61504" lon="1.73676">
        <ele>2546.313</ele>
        <time>2021-08-06T10:36:44Z</time>
      </trkpt>
      <trkpt lat="42.61504" lon="1.73676">
        <ele>2546.313</ele>
        <time>2021-08-06T10:36:46Z</time>
      </trkpt>
      <trkpt lat="42.61504" lon="1.73676">
        <ele>2546.314</ele>
        <time>2021-08-06T10:36:48Z</time>
      </trkpt>
      <trkpt lat="42.61504" lon="1.73676">
        <ele>2546.313</ele>
        <time>2021-08-06T10:36:50Z</time>
      </trkpt>
      <trkpt lat="42.61504" lon="1.73676">
        <ele>2546.314</ele>
        <time>2021-08-06T10:36:52Z</time>
      </trkpt>
      <trkpt lat="42.61504" lon="1.73676">
        <ele>2546.313</ele>
        <time>2021-08-06T10:36:54Z</time>
      </trkpt>
      <trkpt lat="42.61504" lon="1.73676">
        <ele>2546.316</ele>
        <time>2021-08-06T10:36:56Z</time>
      </trkpt>
      <trkpt lat="42.61504" lon="1.73676">
        <ele>2546.321</ele>
        <time>2021-08-06T10:36:58Z</time>
      </trkpt>
      <trkpt lat="42.61504" lon="1.73676">
        <ele>2546.322</ele>
        <time>2021-08-06T10:37:00Z</time>
      </trkpt>
      <trkpt lat="42.61504" lon="1.73676">
        <ele>2546.322</ele>
        <time>2021-08-06T10:37:02Z</time>
      </trkpt>
      <trkpt lat="42.61504" lon="1.73676">
        <ele>2546.32</ele>
        <time>2021-08-06T10:37:04Z</time>
      </trkpt>
      <trkpt lat="42.61504" lon="1.73676">
        <ele>2546.316</ele>
        <time>2021-08-06T10:37:06Z</time>
      </trkpt>
      <trkpt lat="42.61504" lon="1.73676">
        <ele>2546.315</ele>
        <time>2021-08-06T10:37:08Z</time>
      </trkpt>
      <trkpt lat="42.61504" lon="1.73676">
        <ele>2546.316</ele>
        <time>2021-08-06T10:37:10Z</time>
      </trkpt>
      <trkpt lat="42.61504" lon="1.73676">
        <ele>2546.317</ele>
        <time>2021-08-06T10:37:12Z</time>
      </trkpt>
      <trkpt lat="42.61504" lon="1.73676">
        <ele>2546.315</ele>
        <time>2021-08-06T10:37:14Z</time>
      </trkpt>
      <trkpt lat="42.61504" lon="1.73676">
        <ele>2546.318</ele>
        <time>2021-08-06T10:37:16Z</time>
      </trkpt>
      <trkpt lat="42.61504" lon="1.73676">
        <ele>2546.314</ele>
        <time>2021-08-06T10:37:18Z</time>
      </trkpt>
      <trkpt lat="42.61504" lon="1.73676">
        <ele>2546.315</ele>
        <time>2021-08-06T10:37:20Z</time>
      </trkpt>
      <trkpt lat="42.61504" lon="1.73676">
        <ele>2546.315</ele>
        <time>2021-08-06T10:37:22Z</time>
      </trkpt>
      <trkpt lat="42.61504" lon="1.73676">
        <ele>2546.315</ele>
        <time>2021-08-06T10:37:24Z</time>
      </trkpt>
      <trkpt lat="42.61504" lon="1.73676">
        <ele>2546.314</ele>
        <time>2021-08-06T10:37:26Z</time>
      </trkpt>
      <trkpt lat="42.61504" lon="1.73676">
        <ele>2546.312</ele>
        <time>2021-08-06T10:37:28Z</time>
      </trkpt>
      <trkpt lat="42.61504" lon="1.73676">
        <ele>2546.311</ele>
        <time>2021-08-06T10:37:30Z</time>
      </trkpt>
      <trkpt lat="42.61504" lon="1.73676">
        <ele>2546.31</ele>
        <time>2021-08-06T10:37:32Z</time>
      </trkpt>
      <trkpt lat="42.61504" lon="1.73676">
        <ele>2546.311</ele>
        <time>2021-08-06T10:37:34Z</time>
      </trkpt>
      <trkpt lat="42.61504" lon="1.73676">
        <ele>2546.312</ele>
        <time>2021-08-06T10:37:36Z</time>
      </trkpt>
      <trkpt lat="42.61504" lon="1.73676">
        <ele>2546.312</ele>
        <time>2021-08-06T10:37:38Z</time>
      </trkpt>
      <trkpt lat="42.61504" lon="1.73676">
        <ele>2546.311</ele>
        <time>2021-08-06T10:37:40Z</time>
      </trkpt>
      <trkpt lat="42.61504" lon="1.73676">
        <ele>2546.313</ele>
        <time>2021-08-06T10:37:42Z</time>
      </trkpt>
      <trkpt lat="42.61504" lon="1.73676">
        <ele>2546.312</ele>
        <time>2021-08-06T10:37:44Z</time>
      </trkpt>
      <trkpt lat="42.61504" lon="1.73676">
        <ele>2546.31</ele>
        <time>2021-08-06T10:37:46Z</time>
      </trkpt>
      <trkpt lat="42.61504" lon="1.73676">
        <ele>2546.31</ele>
        <time>2021-08-06T10:37:48Z</time>
      </trkpt>
      <trkpt lat="42.61504" lon="1.73676">
        <ele>2546.309</ele>
        <time>2021-08-06T10:37:50Z</time>
      </trkpt>
      <trkpt lat="42.61504" lon="1.73676">
        <ele>2546.31</ele>
        <time>2021-08-06T10:37:52Z</time>
      </trkpt>
      <trkpt lat="42.61504" lon="1.73676">
        <ele>2546.311</ele>
        <time>2021-08-06T10:37:54Z</time>
      </trkpt>
      <trkpt lat="42.61504" lon="1.73676">
        <ele>2546.311</ele>
        <time>2021-08-06T10:37:56Z</time>
      </trkpt>
      <trkpt lat="42.61504" lon="1.73676">
        <ele>2546.313</ele>
        <time>2021-08-06T10:37:58Z</time>
      </trkpt>
      <trkpt lat="42.61504" lon="1.73676">
        <ele>2546.314</ele>
        <time>2021-08-06T10:38:00Z</time>
      </trkpt>
      <trkpt lat="42.61504" lon="1.73676">
        <ele>2546.314</ele>
        <time>2021-08-06T10:38:02Z</time>
      </trkpt>
      <trkpt lat="42.61504" lon="1.73676">
        <ele>2546.313</ele>
        <time>2021-08-06T10:38:04Z</time>
      </trkpt>
      <trkpt lat="42.61504" lon="1.73676">
        <ele>2546.313</ele>
        <time>2021-08-06T10:38:06Z</time>
      </trkpt>
      <trkpt lat="42.61504" lon="1.73676">
        <ele>2546.313</ele>
        <time>2021-08-06T10:38:08Z</time>
      </trkpt>
      <trkpt lat="42.61504" lon="1.73676">
        <ele>2546.313</ele>
        <time>2021-08-06T10:38:10Z</time>
      </trkpt>
      <trkpt lat="42.61504" lon="1.73676">
        <ele>2546.313</ele>
        <time>2021-08-06T10:38:12Z</time>
      </trkpt>
      <trkpt lat="42.61504" lon="1.73676">
        <ele>2546.315</ele>
        <time>2021-08-06T10:38:14Z</time>
      </trkpt>
      <trkpt lat="42.61504" lon="1.73676">
        <ele>2546.313</ele>
        <time>2021-08-06T10:38:16Z</time>
      </trkpt>
      <trkpt lat="42.61504" lon="1.73676">
        <ele>2546.316</ele>
        <time>2021-08-06T10:38:18Z</time>
      </trkpt>
      <trkpt lat="42.61504" lon="1.73676">
        <ele>2546.318</ele>
        <time>2021-08-06T10:38:20Z</time>
      </trkpt>
      <trkpt lat="42.61504" lon="1.73676">
        <ele>2546.32</ele>
        <time>2021-08-06T10:38:22Z</time>
      </trkpt>
      <trkpt lat="42.61504" lon="1.73676">
        <ele>2546.321</ele>
        <time>2021-08-06T10:38:24Z</time>
      </trkpt>
      <trkpt lat="42.61504" lon="1.73676">
        <ele>2546.321</ele>
        <time>2021-08-06T10:38:26Z</time>
      </trkpt>
      <trkpt lat="42.61504" lon="1.73676">
        <ele>2546.32</ele>
        <time>2021-08-06T10:38:28Z</time>
      </trkpt>
      <trkpt lat="42.61504" lon="1.73676">
        <ele>2546.318</ele>
        <time>2021-08-06T10:38:30Z</time>
      </trkpt>
      <trkpt lat="42.61504" lon="1.73676">
        <ele>2546.318</ele>
        <time>2021-08-06T10:38:32Z</time>
      </trkpt>
      <trkpt lat="42.61504" lon="1.73676">
        <ele>2546.318</ele>
        <time>2021-08-06T10:38:34Z</time>
      </trkpt>
      <trkpt lat="42.61504" lon="1.73676">
        <ele>2546.318</ele>
        <time>2021-08-06T10:38:36Z</time>
      </trkpt>
      <trkpt lat="42.61504" lon="1.73676">
        <ele>2546.318</ele>
        <time>2021-08-06T10:38:38Z</time>
      </trkpt>
      <trkpt lat="42.61504" lon="1.73676">
        <ele>2546.319</ele>
        <time>2021-08-06T10:38:40Z</time>
      </trkpt>
      <trkpt lat="42.61504" lon="1.73676">
        <ele>2546.32</ele>
        <time>2021-08-06T10:38:42Z</time>
      </trkpt>
      <trkpt lat="42.61504" lon="1.73676">
        <ele>2546.319</ele>
        <time>2021-08-06T10:38:44Z</time>
      </trkpt>
      <trkpt lat="42.61504" lon="1.73676">
        <ele>2546.319</ele>
        <time>2021-08-06T10:38:46Z</time>
      </trkpt>
      <trkpt lat="42.61504" lon="1.73676">
        <ele>2546.318</ele>
        <time>2021-08-06T10:38:48Z</time>
      </trkpt>
      <trkpt lat="42.61504" lon="1.73676">
        <ele>2546.318</ele>
        <time>2021-08-06T10:38:50Z</time>
      </trkpt>
      <trkpt lat="42.61504" lon="1.73676">
        <ele>2546.319</ele>
        <time>2021-08-06T10:38:52Z</time>
      </trkpt>
      <trkpt lat="42.61504" lon="1.73676">
        <ele>2546.32</ele>
        <time>2021-08-06T10:38:54Z</time>
      </trkpt>
      <trkpt lat="42.61504" lon="1.73676">
        <ele>2546.32</ele>
        <time>2021-08-06T10:38:56Z</time>
      </trkpt>
      <trkpt lat="42.61504" lon="1.73676">
        <ele>2546.321</ele>
        <time>2021-08-06T10:38:58Z</time>
      </trkpt>
      <trkpt lat="42.61504" lon="1.73676">
        <ele>2546.32</ele>
        <time>2021-08-06T10:39:00Z</time>
      </trkpt>
      <trkpt lat="42.61504" lon="1.73676">
        <ele>2546.32</ele>
        <time>2021-08-06T10:39:02Z</time>
      </trkpt>
      <trkpt lat="42.61504" lon="1.73676">
        <ele>2546.32</ele>
        <time>2021-08-06T10:39:04Z</time>
      </trkpt>
      <trkpt lat="42.61504" lon="1.73676">
        <ele>2546.32</ele>
        <time>2021-08-06T10:39:06Z</time>
      </trkpt>
      <trkpt lat="42.61504" lon="1.73676">
        <ele>2546.317</ele>
        <time>2021-08-06T10:39:08Z</time>
      </trkpt>
      <trkpt lat="42.61504" lon="1.73676">
        <ele>2546.318</ele>
        <time>2021-08-06T10:39:10Z</time>
      </trkpt>
      <trkpt lat="42.61504" lon="1.73676">
        <ele>2546.319</ele>
        <time>2021-08-06T10:39:12Z</time>
      </trkpt>
      <trkpt lat="42.61504" lon="1.73676">
        <ele>2546.319</ele>
        <time>2021-08-06T10:39:14Z</time>
      </trkpt>
      <trkpt lat="42.61504" lon="1.73676">
        <ele>2546.319</ele>
        <time>2021-08-06T10:39:16Z</time>
      </trkpt>
      <trkpt lat="42.61504" lon="1.73676">
        <ele>2546.319</ele>
        <time>2021-08-06T10:39:18Z</time>
      </trkpt>
      <trkpt lat="42.61504" lon="1.73676">
        <ele>2546.318</ele>
        <time>2021-08-06T10:39:20Z</time>
      </trkpt>
      <trkpt lat="42.61504" lon="1.73676">
        <ele>2546.32</ele>
        <time>2021-08-06T10:39:22Z</time>
      </trkpt>
      <trkpt lat="42.61504" lon="1.73676">
        <ele>2546.32</ele>
        <time>2021-08-06T10:39:24Z</time>
      </trkpt>
      <trkpt lat="42.61504" lon="1.73676">
        <ele>2546.32</ele>
        <time>2021-08-06T10:39:26Z</time>
      </trkpt>
      <trkpt lat="42.61504" lon="1.73676">
        <ele>2546.32</ele>
        <time>2021-08-06T10:39:28Z</time>
      </trkpt>
      <trkpt lat="42.61504" lon="1.73676">
        <ele>2546.32</ele>
        <time>2021-08-06T10:39:30Z</time>
      </trkpt>
      <trkpt lat="42.61504" lon="1.73676">
        <ele>2546.32</ele>
        <time>2021-08-06T10:39:32Z</time>
      </trkpt>
      <trkpt lat="42.61504" lon="1.73676">
        <ele>2546.321</ele>
        <time>2021-08-06T10:39:34Z</time>
      </trkpt>
      <trkpt lat="42.61504" lon="1.73676">
        <ele>2546.321</ele>
        <time>2021-08-06T10:39:36Z</time>
      </trkpt>
      <trkpt lat="42.61504" lon="1.73676">
        <ele>2546.322</ele>
        <time>2021-08-06T10:39:38Z</time>
      </trkpt>
      <trkpt lat="42.61504" lon="1.73676">
        <ele>2546.322</ele>
        <time>2021-08-06T10:39:40Z</time>
      </trkpt>
      <trkpt lat="42.61504" lon="1.73676">
        <ele>2546.322</ele>
        <time>2021-08-06T10:39:43Z</time>
      </trkpt>
      <trkpt lat="42.61504" lon="1.73676">
        <ele>2546.322</ele>
        <time>2021-08-06T10:39:45Z</time>
      </trkpt>
      <trkpt lat="42.61504" lon="1.73676">
        <ele>2546.32</ele>
        <time>2021-08-06T10:39:47Z</time>
      </trkpt>
      <trkpt lat="42.61504" lon="1.73676">
        <ele>2546.318</ele>
        <time>2021-08-06T10:39:49Z</time>
      </trkpt>
      <trkpt lat="42.61504" lon="1.73676">
        <ele>2546.317</ele>
        <time>2021-08-06T10:39:51Z</time>
      </trkpt>
      <trkpt lat="42.61504" lon="1.73676">
        <ele>2546.316</ele>
        <time>2021-08-06T10:39:53Z</time>
      </trkpt>
      <trkpt lat="42.61504" lon="1.73676">
        <ele>2546.313</ele>
        <time>2021-08-06T10:39:55Z</time>
      </trkpt>
      <trkpt lat="42.61504" lon="1.73676">
        <ele>2546.313</ele>
        <time>2021-08-06T10:39:57Z</time>
      </trkpt>
      <trkpt lat="42.61504" lon="1.73676">
        <ele>2546.313</ele>
        <time>2021-08-06T10:39:59Z</time>
      </trkpt>
      <trkpt lat="42.61504" lon="1.73676">
        <ele>2546.313</ele>
        <time>2021-08-06T10:40:01Z</time>
      </trkpt>
      <trkpt lat="42.61504" lon="1.73676">
        <ele>2546.313</ele>
        <time>2021-08-06T10:40:03Z</time>
      </trkpt>
      <trkpt lat="42.61504" lon="1.73676">
        <ele>2546.313</ele>
        <time>2021-08-06T10:40:05Z</time>
      </trkpt>
      <trkpt lat="42.61504" lon="1.73676">
        <ele>2546.314</ele>
        <time>2021-08-06T10:40:07Z</time>
      </trkpt>
      <trkpt lat="42.61504" lon="1.73676">
        <ele>2546.314</ele>
        <time>2021-08-06T10:40:09Z</time>
      </trkpt>
      <trkpt lat="42.61504" lon="1.73676">
        <ele>2546.313</ele>
        <time>2021-08-06T10:40:11Z</time>
      </trkpt>
      <trkpt lat="42.61504" lon="1.73676">
        <ele>2546.314</ele>
        <time>2021-08-06T10:40:13Z</time>
      </trkpt>
      <trkpt lat="42.61504" lon="1.73676">
        <ele>2546.315</ele>
        <time>2021-08-06T10:40:15Z</time>
      </trkpt>
      <trkpt lat="42.61504" lon="1.73676">
        <ele>2546.315</ele>
        <time>2021-08-06T10:40:17Z</time>
      </trkpt>
      <trkpt lat="42.61504" lon="1.73676">
        <ele>2546.314</ele>
        <time>2021-08-06T10:40:19Z</time>
      </trkpt>
      <trkpt lat="42.61504" lon="1.73676">
        <ele>2546.312</ele>
        <time>2021-08-06T10:40:21Z</time>
      </trkpt>
      <trkpt lat="42.61504" lon="1.73676">
        <ele>2546.308</ele>
        <time>2021-08-06T10:40:23Z</time>
      </trkpt>
      <trkpt lat="42.61504" lon="1.73676">
        <ele>2546.307</ele>
        <time>2021-08-06T10:40:25Z</time>
      </trkpt>
      <trkpt lat="42.61504" lon="1.73676">
        <ele>2546.304</ele>
        <time>2021-08-06T10:40:27Z</time>
      </trkpt>
      <trkpt lat="42.61504" lon="1.73676">
        <ele>2546.302</ele>
        <time>2021-08-06T10:40:29Z</time>
      </trkpt>
      <trkpt lat="42.61504" lon="1.73676">
        <ele>2546.302</ele>
        <time>2021-08-06T10:40:31Z</time>
      </trkpt>
      <trkpt lat="42.61504" lon="1.73676">
        <ele>2546.3</ele>
        <time>2021-08-06T10:40:33Z</time>
      </trkpt>
      <trkpt lat="42.61504" lon="1.73676">
        <ele>2546.297</ele>
        <time>2021-08-06T10:40:35Z</time>
      </trkpt>
      <trkpt lat="42.61504" lon="1.73676">
        <ele>2546.296</ele>
        <time>2021-08-06T10:40:37Z</time>
      </trkpt>
      <trkpt lat="42.61504" lon="1.73676">
        <ele>2546.297</ele>
        <time>2021-08-06T10:40:39Z</time>
      </trkpt>
      <trkpt lat="42.61504" lon="1.73676">
        <ele>2546.296</ele>
        <time>2021-08-06T10:40:41Z</time>
      </trkpt>
      <trkpt lat="42.61504" lon="1.73676">
        <ele>2546.298</ele>
        <time>2021-08-06T10:40:43Z</time>
      </trkpt>
      <trkpt lat="42.61504" lon="1.73676">
        <ele>2546.159</ele>
        <time>2021-08-06T10:40:45Z</time>
      </trkpt>
      <trkpt lat="42.61504" lon="1.73676">
        <ele>2546.16</ele>
        <time>2021-08-06T10:40:47Z</time>
      </trkpt>
      <trkpt lat="42.61504" lon="1.73676">
        <ele>2546.161</ele>
        <time>2021-08-06T10:40:49Z</time>
      </trkpt>
      <trkpt lat="42.61504" lon="1.73676">
        <ele>2546.159</ele>
        <time>2021-08-06T10:40:51Z</time>
      </trkpt>
      <trkpt lat="42.61504" lon="1.73676">
        <ele>2546.159</ele>
        <time>2021-08-06T10:40:53Z</time>
      </trkpt>
      <trkpt lat="42.61504" lon="1.73676">
        <ele>2546.16</ele>
        <time>2021-08-06T10:40:55Z</time>
      </trkpt>
      <trkpt lat="42.61504" lon="1.73676">
        <ele>2546.159</ele>
        <time>2021-08-06T10:40:57Z</time>
      </trkpt>
      <trkpt lat="42.61504" lon="1.73676">
        <ele>2546.159</ele>
        <time>2021-08-06T10:40:59Z</time>
      </trkpt>
      <trkpt lat="42.61504" lon="1.73676">
        <ele>2546.076</ele>
        <time>2021-08-06T10:41:01Z</time>
      </trkpt>
      <trkpt lat="42.61504" lon="1.73676">
        <ele>2546.106</ele>
        <time>2021-08-06T10:41:03Z</time>
      </trkpt>
      <trkpt lat="42.61504" lon="1.73676">
        <ele>2546.105</ele>
        <time>2021-08-06T10:41:05Z</time>
      </trkpt>
      <trkpt lat="42.61504" lon="1.73676">
        <ele>2546.107</ele>
        <time>2021-08-06T10:41:07Z</time>
      </trkpt>
      <trkpt lat="42.61504" lon="1.73676">
        <ele>2546.257</ele>
        <time>2021-08-06T10:41:09Z</time>
      </trkpt>
      <trkpt lat="42.61504" lon="1.73676">
        <ele>2546.27</ele>
        <time>2021-08-06T10:41:11Z</time>
      </trkpt>
      <trkpt lat="42.61504" lon="1.73676">
        <ele>2546.268</ele>
        <time>2021-08-06T10:41:13Z</time>
      </trkpt>
      <trkpt lat="42.61504" lon="1.73676">
        <ele>2546.268</ele>
        <time>2021-08-06T10:41:15Z</time>
      </trkpt>
      <trkpt lat="42.61504" lon="1.73676">
        <ele>2546.265</ele>
        <time>2021-08-06T10:41:17Z</time>
      </trkpt>
      <trkpt lat="42.61504" lon="1.73676">
        <ele>2546.266</ele>
        <time>2021-08-06T10:41:19Z</time>
      </trkpt>
      <trkpt lat="42.61504" lon="1.73676">
        <ele>2546.268</ele>
        <time>2021-08-06T10:41:21Z</time>
      </trkpt>
      <trkpt lat="42.61504" lon="1.73676">
        <ele>2546.269</ele>
        <time>2021-08-06T10:41:23Z</time>
      </trkpt>
      <trkpt lat="42.61504" lon="1.73676">
        <ele>2546.267</ele>
        <time>2021-08-06T10:41:25Z</time>
      </trkpt>
      <trkpt lat="42.61504" lon="1.73676">
        <ele>2546.268</ele>
        <time>2021-08-06T10:41:27Z</time>
      </trkpt>
      <trkpt lat="42.61504" lon="1.73676">
        <ele>2546.268</ele>
        <time>2021-08-06T10:41:29Z</time>
      </trkpt>
      <trkpt lat="42.61504" lon="1.73676">
        <ele>2546.268</ele>
        <time>2021-08-06T10:41:31Z</time>
      </trkpt>
      <trkpt lat="42.61504" lon="1.73676">
        <ele>2546.266</ele>
        <time>2021-08-06T10:41:33Z</time>
      </trkpt>
      <trkpt lat="42.61504" lon="1.73676">
        <ele>2546.268</ele>
        <time>2021-08-06T10:41:35Z</time>
      </trkpt>
      <trkpt lat="42.61504" lon="1.73676">
        <ele>2546.27</ele>
        <time>2021-08-06T10:41:37Z</time>
      </trkpt>
      <trkpt lat="42.61504" lon="1.73676">
        <ele>2546.274</ele>
        <time>2021-08-06T10:41:39Z</time>
      </trkpt>
      <trkpt lat="42.61504" lon="1.73676">
        <ele>2546.272</ele>
        <time>2021-08-06T10:41:41Z</time>
      </trkpt>
      <trkpt lat="42.61504" lon="1.73676">
        <ele>2546.274</ele>
        <time>2021-08-06T10:41:43Z</time>
      </trkpt>
      <trkpt lat="42.61504" lon="1.73676">
        <ele>2546.271</ele>
        <time>2021-08-06T10:41:45Z</time>
      </trkpt>
      <trkpt lat="42.61504" lon="1.73676">
        <ele>2546.272</ele>
        <time>2021-08-06T10:41:47Z</time>
      </trkpt>
      <trkpt lat="42.61504" lon="1.73676">
        <ele>2546.27</ele>
        <time>2021-08-06T10:41:49Z</time>
      </trkpt>
      <trkpt lat="42.61504" lon="1.73676">
        <ele>2546.49</ele>
        <time>2021-08-06T10:41:51Z</time>
      </trkpt>
      <trkpt lat="42.61504" lon="1.73676">
        <ele>2546.498</ele>
        <time>2021-08-06T10:41:53Z</time>
      </trkpt>
      <trkpt lat="42.61504" lon="1.73676">
        <ele>2546.501</ele>
        <time>2021-08-06T10:41:55Z</time>
      </trkpt>
      <trkpt lat="42.61505" lon="1.73676">
        <ele>2547.209</ele>
        <time>2021-08-06T10:41:57Z</time>
      </trkpt>
      <trkpt lat="42.61505" lon="1.73676">
        <ele>2547.211</ele>
        <time>2021-08-06T10:41:59Z</time>
      </trkpt>
      <trkpt lat="42.61505" lon="1.73676">
        <ele>2547.327</ele>
        <time>2021-08-06T10:42:01Z</time>
      </trkpt>
      <trkpt lat="42.61505" lon="1.73676">
        <ele>2547.325</ele>
        <time>2021-08-06T10:42:03Z</time>
      </trkpt>
      <trkpt lat="42.61505" lon="1.73676">
        <ele>2547.319</ele>
        <time>2021-08-06T10:42:05Z</time>
      </trkpt>
      <trkpt lat="42.61505" lon="1.73676">
        <ele>2547.314</ele>
        <time>2021-08-06T10:42:07Z</time>
      </trkpt>
      <trkpt lat="42.61505" lon="1.73676">
        <ele>2547.295</ele>
        <time>2021-08-06T10:42:09Z</time>
      </trkpt>
      <trkpt lat="42.61505" lon="1.73676">
        <ele>2547.279</ele>
        <time>2021-08-06T10:42:11Z</time>
      </trkpt>
      <trkpt lat="42.61505" lon="1.73676">
        <ele>2547.265</ele>
        <time>2021-08-06T10:42:13Z</time>
      </trkpt>
      <trkpt lat="42.61505" lon="1.73676">
        <ele>2546.752</ele>
        <time>2021-08-06T10:42:15Z</time>
      </trkpt>
      <trkpt lat="42.61506" lon="1.73676">
        <ele>2546.777</ele>
        <time>2021-08-06T10:42:17Z</time>
      </trkpt>
      <trkpt lat="42.61506" lon="1.73676">
        <ele>2546.824</ele>
        <time>2021-08-06T10:42:19Z</time>
      </trkpt>
      <trkpt lat="42.61506" lon="1.73676">
        <ele>2546.835</ele>
        <time>2021-08-06T10:42:21Z</time>
      </trkpt>
      <trkpt lat="42.61506" lon="1.73676">
        <ele>2546.839</ele>
        <time>2021-08-06T10:42:23Z</time>
      </trkpt>
      <trkpt lat="42.61506" lon="1.73676">
        <ele>2546.84</ele>
        <time>2021-08-06T10:42:25Z</time>
      </trkpt>
      <trkpt lat="42.61506" lon="1.73676">
        <ele>2546.834</ele>
        <time>2021-08-06T10:42:27Z</time>
      </trkpt>
      <trkpt lat="42.61507" lon="1.73674">
        <ele>2546.696</ele>
        <time>2021-08-06T10:42:29Z</time>
      </trkpt>
      <trkpt lat="42.61507" lon="1.73674">
        <ele>2546.69</ele>
        <time>2021-08-06T10:42:31Z</time>
      </trkpt>
      <trkpt lat="42.61507" lon="1.73674">
        <ele>2546.697</ele>
        <time>2021-08-06T10:42:33Z</time>
      </trkpt>
      <trkpt lat="42.61507" lon="1.73674">
        <ele>2546.695</ele>
        <time>2021-08-06T10:42:35Z</time>
      </trkpt>
      <trkpt lat="42.61507" lon="1.73674">
        <ele>2546.692</ele>
        <time>2021-08-06T10:42:37Z</time>
      </trkpt>
      <trkpt lat="42.61507" lon="1.73674">
        <ele>2546.687</ele>
        <time>2021-08-06T10:42:39Z</time>
      </trkpt>
      <trkpt lat="42.61507" lon="1.73674">
        <ele>2546.692</ele>
        <time>2021-08-06T10:42:41Z</time>
      </trkpt>
      <trkpt lat="42.61507" lon="1.73674">
        <ele>2546.691</ele>
        <time>2021-08-06T10:42:43Z</time>
      </trkpt>
      <trkpt lat="42.61507" lon="1.73674">
        <ele>2546.694</ele>
        <time>2021-08-06T10:42:45Z</time>
      </trkpt>
      <trkpt lat="42.61507" lon="1.73674">
        <ele>2546.705</ele>
        <time>2021-08-06T10:42:47Z</time>
      </trkpt>
      <trkpt lat="42.61507" lon="1.73674">
        <ele>2546.711</ele>
        <time>2021-08-06T10:42:49Z</time>
      </trkpt>
      <trkpt lat="42.61507" lon="1.73674">
        <ele>2546.907</ele>
        <time>2021-08-06T10:42:51Z</time>
      </trkpt>
      <trkpt lat="42.61507" lon="1.73675">
        <ele>2547.158</ele>
        <time>2021-08-06T10:42:53Z</time>
      </trkpt>
      <trkpt lat="42.61507" lon="1.73675">
        <ele>2547.146</ele>
        <time>2021-08-06T10:42:55Z</time>
      </trkpt>
      <trkpt lat="42.61507" lon="1.73675">
        <ele>2547.134</ele>
        <time>2021-08-06T10:42:57Z</time>
      </trkpt>
      <trkpt lat="42.61507" lon="1.73675">
        <ele>2547.122</ele>
        <time>2021-08-06T10:42:59Z</time>
      </trkpt>
      <trkpt lat="42.61507" lon="1.73675">
        <ele>2547.096</ele>
        <time>2021-08-06T10:43:01Z</time>
      </trkpt>
      <trkpt lat="42.61507" lon="1.73675">
        <ele>2547.078</ele>
        <time>2021-08-06T10:43:03Z</time>
      </trkpt>
      <trkpt lat="42.61507" lon="1.73675">
        <ele>2547.066</ele>
        <time>2021-08-06T10:43:05Z</time>
      </trkpt>
      <trkpt lat="42.61507" lon="1.73675">
        <ele>2547.049</ele>
        <time>2021-08-06T10:43:07Z</time>
      </trkpt>
      <trkpt lat="42.61507" lon="1.73675">
        <ele>2547.03</ele>
        <time>2021-08-06T10:43:09Z</time>
      </trkpt>
      <trkpt lat="42.61507" lon="1.73675">
        <ele>2547.023</ele>
        <time>2021-08-06T10:43:11Z</time>
      </trkpt>
      <trkpt lat="42.61507" lon="1.73675">
        <ele>2547.029</ele>
        <time>2021-08-06T10:43:13Z</time>
      </trkpt>
      <trkpt lat="42.61507" lon="1.73675">
        <ele>2547.026</ele>
        <time>2021-08-06T10:43:15Z</time>
      </trkpt>
      <trkpt lat="42.61507" lon="1.73675">
        <ele>2547.012</ele>
        <time>2021-08-06T10:43:17Z</time>
      </trkpt>
      <trkpt lat="42.61507" lon="1.73675">
        <ele>2547.006</ele>
        <time>2021-08-06T10:43:19Z</time>
      </trkpt>
      <trkpt lat="42.61507" lon="1.73675">
        <ele>2547</ele>
        <time>2021-08-06T10:43:21Z</time>
      </trkpt>
      <trkpt lat="42.61507" lon="1.73675">
        <ele>2546.975</ele>
        <time>2021-08-06T10:43:23Z</time>
      </trkpt>
      <trkpt lat="42.61507" lon="1.73675">
        <ele>2546.958</ele>
        <time>2021-08-06T10:43:25Z</time>
      </trkpt>
      <trkpt lat="42.61507" lon="1.73675">
        <ele>2546.541</ele>
        <time>2021-08-06T10:43:27Z</time>
      </trkpt>
      <trkpt lat="42.61507" lon="1.73675">
        <ele>2546.508</ele>
        <time>2021-08-06T10:43:29Z</time>
      </trkpt>
      <trkpt lat="42.61507" lon="1.73675">
        <ele>2546.491</ele>
        <time>2021-08-06T10:43:31Z</time>
      </trkpt>
      <trkpt lat="42.61507" lon="1.73675">
        <ele>2546.485</ele>
        <time>2021-08-06T10:43:33Z</time>
      </trkpt>
      <trkpt lat="42.61507" lon="1.73675">
        <ele>2546.465</ele>
        <time>2021-08-06T10:43:35Z</time>
      </trkpt>
      <trkpt lat="42.61507" lon="1.73675">
        <ele>2546.458</ele>
        <time>2021-08-06T10:43:37Z</time>
      </trkpt>
      <trkpt lat="42.61507" lon="1.73675">
        <ele>2546.438</ele>
        <time>2021-08-06T10:43:39Z</time>
      </trkpt>
      <trkpt lat="42.61507" lon="1.73675">
        <ele>2546.422</ele>
        <time>2021-08-06T10:43:41Z</time>
      </trkpt>
      <trkpt lat="42.61507" lon="1.73675">
        <ele>2546.416</ele>
        <time>2021-08-06T10:43:43Z</time>
      </trkpt>
      <trkpt lat="42.61507" lon="1.73675">
        <ele>2546.666</ele>
        <time>2021-08-06T10:43:45Z</time>
      </trkpt>
      <trkpt lat="42.61507" lon="1.73675">
        <ele>2546.664</ele>
        <time>2021-08-06T10:43:47Z</time>
      </trkpt>
      <trkpt lat="42.61507" lon="1.73675">
        <ele>2546.645</ele>
        <time>2021-08-06T10:43:49Z</time>
      </trkpt>
      <trkpt lat="42.61507" lon="1.73675">
        <ele>2546.642</ele>
        <time>2021-08-06T10:43:51Z</time>
      </trkpt>
      <trkpt lat="42.61507" lon="1.73675">
        <ele>2546.624</ele>
        <time>2021-08-06T10:43:53Z</time>
      </trkpt>
      <trkpt lat="42.61507" lon="1.73675">
        <ele>2546.595</ele>
        <time>2021-08-06T10:43:55Z</time>
      </trkpt>
      <trkpt lat="42.61507" lon="1.73675">
        <ele>2546.583</ele>
        <time>2021-08-06T10:43:57Z</time>
      </trkpt>
      <trkpt lat="42.61507" lon="1.73675">
        <ele>2546.57</ele>
        <time>2021-08-06T10:43:59Z</time>
      </trkpt>
      <trkpt lat="42.61507" lon="1.73675">
        <ele>2546.549</ele>
        <time>2021-08-06T10:44:01Z</time>
      </trkpt>
      <trkpt lat="42.61507" lon="1.73675">
        <ele>2546.528</ele>
        <time>2021-08-06T10:44:03Z</time>
      </trkpt>
      <trkpt lat="42.61507" lon="1.73675">
        <ele>2546.532</ele>
        <time>2021-08-06T10:44:05Z</time>
      </trkpt>
      <trkpt lat="42.61507" lon="1.73675">
        <ele>2546.527</ele>
        <time>2021-08-06T10:44:07Z</time>
      </trkpt>
      <trkpt lat="42.61507" lon="1.73675">
        <ele>2546.523</ele>
        <time>2021-08-06T10:44:09Z</time>
      </trkpt>
      <trkpt lat="42.61507" lon="1.73675">
        <ele>2546.529</ele>
        <time>2021-08-06T10:44:11Z</time>
      </trkpt>
      <trkpt lat="42.61507" lon="1.73675">
        <ele>2546.538</ele>
        <time>2021-08-06T10:44:13Z</time>
      </trkpt>
      <trkpt lat="42.61507" lon="1.73675">
        <ele>2546.525</ele>
        <time>2021-08-06T10:44:15Z</time>
      </trkpt>
      <trkpt lat="42.61507" lon="1.73675">
        <ele>2546.519</ele>
        <time>2021-08-06T10:44:17Z</time>
      </trkpt>
      <trkpt lat="42.61507" lon="1.73675">
        <ele>2546.508</ele>
        <time>2021-08-06T10:44:19Z</time>
      </trkpt>
      <trkpt lat="42.61507" lon="1.73675">
        <ele>2546.494</ele>
        <time>2021-08-06T10:44:21Z</time>
      </trkpt>
      <trkpt lat="42.61507" lon="1.73675">
        <ele>2546.486</ele>
        <time>2021-08-06T10:44:23Z</time>
      </trkpt>
      <trkpt lat="42.61507" lon="1.73675">
        <ele>2546.487</ele>
        <time>2021-08-06T10:44:25Z</time>
      </trkpt>
      <trkpt lat="42.61507" lon="1.73675">
        <ele>2546.474</ele>
        <time>2021-08-06T10:44:27Z</time>
      </trkpt>
      <trkpt lat="42.61507" lon="1.73675">
        <ele>2546.464</ele>
        <time>2021-08-06T10:44:29Z</time>
      </trkpt>
      <trkpt lat="42.61507" lon="1.73675">
        <ele>2546.47</ele>
        <time>2021-08-06T10:44:31Z</time>
      </trkpt>
      <trkpt lat="42.61507" lon="1.73675">
        <ele>2546.47</ele>
        <time>2021-08-06T10:44:33Z</time>
      </trkpt>
      <trkpt lat="42.61507" lon="1.73675">
        <ele>2546.464</ele>
        <time>2021-08-06T10:44:35Z</time>
      </trkpt>
      <trkpt lat="42.61507" lon="1.73675">
        <ele>2546.46</ele>
        <time>2021-08-06T10:44:37Z</time>
      </trkpt>
      <trkpt lat="42.61507" lon="1.73675">
        <ele>2546.439</ele>
        <time>2021-08-06T10:44:39Z</time>
      </trkpt>
      <trkpt lat="42.61507" lon="1.73675">
        <ele>2546.425</ele>
        <time>2021-08-06T10:44:41Z</time>
      </trkpt>
      <trkpt lat="42.61507" lon="1.73675">
        <ele>2546.422</ele>
        <time>2021-08-06T10:44:43Z</time>
      </trkpt>
      <trkpt lat="42.61507" lon="1.73675">
        <ele>2546.418</ele>
        <time>2021-08-06T10:44:45Z</time>
      </trkpt>
      <trkpt lat="42.61507" lon="1.73675">
        <ele>2546.427</ele>
        <time>2021-08-06T10:44:47Z</time>
      </trkpt>
      <trkpt lat="42.61507" lon="1.73675">
        <ele>2546.053</ele>
        <time>2021-08-06T10:44:49Z</time>
      </trkpt>
      <trkpt lat="42.61506" lon="1.73675">
        <ele>2546.054</ele>
        <time>2021-08-06T10:44:51Z</time>
      </trkpt>
      <trkpt lat="42.61506" lon="1.73676">
        <ele>2546.393</ele>
        <time>2021-08-06T10:44:53Z</time>
      </trkpt>
      <trkpt lat="42.61506" lon="1.73676">
        <ele>2546.392</ele>
        <time>2021-08-06T10:44:55Z</time>
      </trkpt>
      <trkpt lat="42.61506" lon="1.73676">
        <ele>2546.385</ele>
        <time>2021-08-06T10:44:57Z</time>
      </trkpt>
      <trkpt lat="42.61506" lon="1.73676">
        <ele>2546.377</ele>
        <time>2021-08-06T10:44:59Z</time>
      </trkpt>
      <trkpt lat="42.61506" lon="1.73676">
        <ele>2546.377</ele>
        <time>2021-08-06T10:45:01Z</time>
      </trkpt>
      <trkpt lat="42.61506" lon="1.73676">
        <ele>2546.377</ele>
        <time>2021-08-06T10:45:03Z</time>
      </trkpt>
      <trkpt lat="42.61506" lon="1.73676">
        <ele>2546.364</ele>
        <time>2021-08-06T10:45:05Z</time>
      </trkpt>
      <trkpt lat="42.61506" lon="1.73676">
        <ele>2546.361</ele>
        <time>2021-08-06T10:45:07Z</time>
      </trkpt>
      <trkpt lat="42.61506" lon="1.73676">
        <ele>2546.353</ele>
        <time>2021-08-06T10:45:09Z</time>
      </trkpt>
      <trkpt lat="42.61506" lon="1.73676">
        <ele>2546.493</ele>
        <time>2021-08-06T10:45:11Z</time>
      </trkpt>
      <trkpt lat="42.61506" lon="1.73676">
        <ele>2546.704</ele>
        <time>2021-08-06T10:45:13Z</time>
      </trkpt>
      <trkpt lat="42.61505" lon="1.73677">
        <ele>2546.817</ele>
        <time>2021-08-06T10:45:15Z</time>
      </trkpt>
      <trkpt lat="42.61506" lon="1.73676">
        <ele>2547.231</ele>
        <time>2021-08-06T10:45:17Z</time>
      </trkpt>
      <trkpt lat="42.61506" lon="1.73675">
        <ele>2547.772</ele>
        <time>2021-08-06T10:45:19Z</time>
      </trkpt>
      <trkpt lat="42.61506" lon="1.73675">
        <ele>2547.849</ele>
        <time>2021-08-06T10:45:21Z</time>
      </trkpt>
      <trkpt lat="42.61506" lon="1.73675">
        <ele>2547.876</ele>
        <time>2021-08-06T10:45:23Z</time>
      </trkpt>
      <trkpt lat="42.61506" lon="1.73674">
        <ele>2547.892</ele>
        <time>2021-08-06T10:45:25Z</time>
      </trkpt>
      <trkpt lat="42.61506" lon="1.73674">
        <ele>2547.912</ele>
        <time>2021-08-06T10:45:27Z</time>
      </trkpt>
      <trkpt lat="42.61506" lon="1.73674">
        <ele>2547.926</ele>
        <time>2021-08-06T10:45:29Z</time>
      </trkpt>
      <trkpt lat="42.61507" lon="1.73673">
        <ele>2547.469</ele>
        <time>2021-08-06T10:45:31Z</time>
      </trkpt>
      <trkpt lat="42.61507" lon="1.73674">
        <ele>2547.647</ele>
        <time>2021-08-06T10:45:33Z</time>
      </trkpt>
      <trkpt lat="42.61507" lon="1.73674">
        <ele>2547.663</ele>
        <time>2021-08-06T10:45:35Z</time>
      </trkpt>
      <trkpt lat="42.61507" lon="1.73674">
        <ele>2548.022</ele>
        <time>2021-08-06T10:45:37Z</time>
      </trkpt>
      <trkpt lat="42.61507" lon="1.73673">
        <ele>2547.892</ele>
        <time>2021-08-06T10:45:39Z</time>
      </trkpt>
      <trkpt lat="42.61507" lon="1.73673">
        <ele>2547.89</ele>
        <time>2021-08-06T10:45:41Z</time>
      </trkpt>
      <trkpt lat="42.61507" lon="1.73673">
        <ele>2547.893</ele>
        <time>2021-08-06T10:45:43Z</time>
      </trkpt>
      <trkpt lat="42.61507" lon="1.73673">
        <ele>2547.85</ele>
        <time>2021-08-06T10:45:45Z</time>
      </trkpt>
      <trkpt lat="42.6151" lon="1.73675">
        <ele>2548.363</ele>
        <time>2021-08-06T10:45:47Z</time>
      </trkpt>
      <trkpt lat="42.61511" lon="1.73678">
        <ele>2548.529</ele>
        <time>2021-08-06T10:45:49Z</time>
      </trkpt>
      <trkpt lat="42.61512" lon="1.73678">
        <ele>2548.546</ele>
        <time>2021-08-06T10:45:51Z</time>
      </trkpt>
      <trkpt lat="42.61513" lon="1.73678">
        <ele>2548.547</ele>
        <time>2021-08-06T10:45:53Z</time>
      </trkpt>
      <trkpt lat="42.61513" lon="1.73678">
        <ele>2548.552</ele>
        <time>2021-08-06T10:45:55Z</time>
      </trkpt>
      <trkpt lat="42.61514" lon="1.73679">
        <ele>2548.791</ele>
        <time>2021-08-06T10:45:57Z</time>
      </trkpt>
      <trkpt lat="42.61514" lon="1.73678">
        <ele>2548.175</ele>
        <time>2021-08-06T10:45:59Z</time>
      </trkpt>
      <trkpt lat="42.61513" lon="1.73677">
        <ele>2547.762</ele>
        <time>2021-08-06T10:46:01Z</time>
      </trkpt>
      <trkpt lat="42.61513" lon="1.73677">
        <ele>2547.77</ele>
        <time>2021-08-06T10:46:03Z</time>
      </trkpt>
      <trkpt lat="42.61513" lon="1.73677">
        <ele>2547.769</ele>
        <time>2021-08-06T10:46:05Z</time>
      </trkpt>
      <trkpt lat="42.61513" lon="1.73677">
        <ele>2547.579</ele>
        <time>2021-08-06T10:46:07Z</time>
      </trkpt>
      <trkpt lat="42.61513" lon="1.73676">
        <ele>2547.614</ele>
        <time>2021-08-06T10:46:09Z</time>
      </trkpt>
      <trkpt lat="42.61513" lon="1.73676">
        <ele>2547.625</ele>
        <time>2021-08-06T10:46:11Z</time>
      </trkpt>
      <trkpt lat="42.61513" lon="1.73676">
        <ele>2547.633</ele>
        <time>2021-08-06T10:46:13Z</time>
      </trkpt>
      <trkpt lat="42.61513" lon="1.73676">
        <ele>2547.748</ele>
        <time>2021-08-06T10:46:15Z</time>
      </trkpt>
      <trkpt lat="42.61512" lon="1.73677">
        <ele>2547.673</ele>
        <time>2021-08-06T10:46:17Z</time>
      </trkpt>
      <trkpt lat="42.61511" lon="1.73678">
        <ele>2547.721</ele>
        <time>2021-08-06T10:46:19Z</time>
      </trkpt>
      <trkpt lat="42.61511" lon="1.73678">
        <ele>2547.734</ele>
        <time>2021-08-06T10:46:21Z</time>
      </trkpt>
      <trkpt lat="42.61511" lon="1.73678">
        <ele>2547.825</ele>
        <time>2021-08-06T10:46:23Z</time>
      </trkpt>
      <trkpt lat="42.6151" lon="1.73678">
        <ele>2547.958</ele>
        <time>2021-08-06T10:46:25Z</time>
      </trkpt>
      <trkpt lat="42.6151" lon="1.73678">
        <ele>2547.877</ele>
        <time>2021-08-06T10:46:27Z</time>
      </trkpt>
      <trkpt lat="42.61508" lon="1.73677">
        <ele>2548.091</ele>
        <time>2021-08-06T10:46:29Z</time>
      </trkpt>
      <trkpt lat="42.61508" lon="1.73677">
        <ele>2547.749</ele>
        <time>2021-08-06T10:46:31Z</time>
      </trkpt>
      <trkpt lat="42.61507" lon="1.73678">
        <ele>2547.623</ele>
        <time>2021-08-06T10:46:33Z</time>
      </trkpt>
      <trkpt lat="42.61507" lon="1.73679">
        <ele>2548.1</ele>
        <time>2021-08-06T10:46:35Z</time>
      </trkpt>
      <trkpt lat="42.61507" lon="1.7368">
        <ele>2548.48</ele>
        <time>2021-08-06T10:46:37Z</time>
      </trkpt>
      <trkpt lat="42.61507" lon="1.7368">
        <ele>2548.469</ele>
        <time>2021-08-06T10:46:39Z</time>
      </trkpt>
      <trkpt lat="42.61507" lon="1.7368">
        <ele>2548.665</ele>
        <time>2021-08-06T10:46:41Z</time>
      </trkpt>
      <trkpt lat="42.61508" lon="1.7368">
        <ele>2547.387</ele>
        <time>2021-08-06T10:46:43Z</time>
      </trkpt>
      <trkpt lat="42.61508" lon="1.7368">
        <ele>2547.392</ele>
        <time>2021-08-06T10:46:45Z</time>
      </trkpt>
      <trkpt lat="42.61508" lon="1.7368">
        <ele>2547.374</ele>
        <time>2021-08-06T10:46:47Z</time>
      </trkpt>
      <trkpt lat="42.61508" lon="1.7368">
        <ele>2547.372</ele>
        <time>2021-08-06T10:46:49Z</time>
      </trkpt>
      <trkpt lat="42.61508" lon="1.7368">
        <ele>2547.196</ele>
        <time>2021-08-06T10:46:51Z</time>
      </trkpt>
      <trkpt lat="42.61508" lon="1.7368">
        <ele>2547.212</ele>
        <time>2021-08-06T10:46:53Z</time>
      </trkpt>
      <trkpt lat="42.61508" lon="1.7368">
        <ele>2547.211</ele>
        <time>2021-08-06T10:46:55Z</time>
      </trkpt>
      <trkpt lat="42.61508" lon="1.7368">
        <ele>2547.208</ele>
        <time>2021-08-06T10:46:57Z</time>
      </trkpt>
      <trkpt lat="42.61508" lon="1.7368">
        <ele>2547.201</ele>
        <time>2021-08-06T10:46:59Z</time>
      </trkpt>
      <trkpt lat="42.61508" lon="1.7368">
        <ele>2547.197</ele>
        <time>2021-08-06T10:47:01Z</time>
      </trkpt>
      <trkpt lat="42.61508" lon="1.7368">
        <ele>2547.197</ele>
        <time>2021-08-06T10:47:03Z</time>
      </trkpt>
      <trkpt lat="42.61508" lon="1.7368">
        <ele>2547.2</ele>
        <time>2021-08-06T10:47:05Z</time>
      </trkpt>
      <trkpt lat="42.61508" lon="1.7368">
        <ele>2546.925</ele>
        <time>2021-08-06T10:47:07Z</time>
      </trkpt>
      <trkpt lat="42.61508" lon="1.7368">
        <ele>2546.938</ele>
        <time>2021-08-06T10:47:09Z</time>
      </trkpt>
      <trkpt lat="42.61508" lon="1.7368">
        <ele>2546.954</ele>
        <time>2021-08-06T10:47:11Z</time>
      </trkpt>
      <trkpt lat="42.61508" lon="1.7368">
        <ele>2546.966</ele>
        <time>2021-08-06T10:47:13Z</time>
      </trkpt>
      <trkpt lat="42.61508" lon="1.7368">
        <ele>2546.978</ele>
        <time>2021-08-06T10:47:15Z</time>
      </trkpt>
      <trkpt lat="42.61508" lon="1.7368">
        <ele>2546.983</ele>
        <time>2021-08-06T10:47:17Z</time>
      </trkpt>
      <trkpt lat="42.61508" lon="1.7368">
        <ele>2546.985</ele>
        <time>2021-08-06T10:47:19Z</time>
      </trkpt>
      <trkpt lat="42.61508" lon="1.7368">
        <ele>2546.984</ele>
        <time>2021-08-06T10:47:21Z</time>
      </trkpt>
      <trkpt lat="42.61508" lon="1.7368">
        <ele>2546.707</ele>
        <time>2021-08-06T10:47:23Z</time>
      </trkpt>
      <trkpt lat="42.61508" lon="1.7368">
        <ele>2546.138</ele>
        <time>2021-08-06T10:47:25Z</time>
      </trkpt>
      <trkpt lat="42.61507" lon="1.7368">
        <ele>2546.137</ele>
        <time>2021-08-06T10:47:27Z</time>
      </trkpt>
      <trkpt lat="42.61507" lon="1.7368">
        <ele>2546.137</ele>
        <time>2021-08-06T10:47:29Z</time>
      </trkpt>
      <trkpt lat="42.61507" lon="1.7368">
        <ele>2546.141</ele>
        <time>2021-08-06T10:47:31Z</time>
      </trkpt>
      <trkpt lat="42.61507" lon="1.7368">
        <ele>2546.137</ele>
        <time>2021-08-06T10:47:33Z</time>
      </trkpt>
      <trkpt lat="42.61507" lon="1.7368">
        <ele>2546.137</ele>
        <time>2021-08-06T10:47:35Z</time>
      </trkpt>
      <trkpt lat="42.61507" lon="1.7368">
        <ele>2546.136</ele>
        <time>2021-08-06T10:47:37Z</time>
      </trkpt>
      <trkpt lat="42.61507" lon="1.7368">
        <ele>2546.135</ele>
        <time>2021-08-06T10:47:39Z</time>
      </trkpt>
      <trkpt lat="42.61507" lon="1.7368">
        <ele>2546.135</ele>
        <time>2021-08-06T10:47:41Z</time>
      </trkpt>
      <trkpt lat="42.61507" lon="1.7368">
        <ele>2546.135</ele>
        <time>2021-08-06T10:47:43Z</time>
      </trkpt>
      <trkpt lat="42.61507" lon="1.7368">
        <ele>2546.136</ele>
        <time>2021-08-06T10:47:45Z</time>
      </trkpt>
      <trkpt lat="42.61507" lon="1.7368">
        <ele>2546.135</ele>
        <time>2021-08-06T10:47:47Z</time>
      </trkpt>
      <trkpt lat="42.61507" lon="1.7368">
        <ele>2546.135</ele>
        <time>2021-08-06T10:47:49Z</time>
      </trkpt>
      <trkpt lat="42.61507" lon="1.7368">
        <ele>2546.137</ele>
        <time>2021-08-06T10:47:51Z</time>
      </trkpt>
      <trkpt lat="42.61507" lon="1.7368">
        <ele>2546.135</ele>
        <time>2021-08-06T10:47:53Z</time>
      </trkpt>
      <trkpt lat="42.61507" lon="1.7368">
        <ele>2546.135</ele>
        <time>2021-08-06T10:47:55Z</time>
      </trkpt>
      <trkpt lat="42.61507" lon="1.7368">
        <ele>2546.135</ele>
        <time>2021-08-06T10:47:57Z</time>
      </trkpt>
      <trkpt lat="42.61507" lon="1.7368">
        <ele>2546.138</ele>
        <time>2021-08-06T10:47:59Z</time>
      </trkpt>
      <trkpt lat="42.61507" lon="1.7368">
        <ele>2546.14</ele>
        <time>2021-08-06T10:48:01Z</time>
      </trkpt>
      <trkpt lat="42.61507" lon="1.7368">
        <ele>2546.142</ele>
        <time>2021-08-06T10:48:03Z</time>
      </trkpt>
      <trkpt lat="42.61507" lon="1.7368">
        <ele>2546.14</ele>
        <time>2021-08-06T10:48:05Z</time>
      </trkpt>
      <trkpt lat="42.61507" lon="1.7368">
        <ele>2546.138</ele>
        <time>2021-08-06T10:48:07Z</time>
      </trkpt>
      <trkpt lat="42.61507" lon="1.7368">
        <ele>2546.136</ele>
        <time>2021-08-06T10:48:09Z</time>
      </trkpt>
      <trkpt lat="42.61507" lon="1.7368">
        <ele>2546.137</ele>
        <time>2021-08-06T10:48:11Z</time>
      </trkpt>
      <trkpt lat="42.61507" lon="1.7368">
        <ele>2546.137</ele>
        <time>2021-08-06T10:48:13Z</time>
      </trkpt>
      <trkpt lat="42.61507" lon="1.7368">
        <ele>2546.135</ele>
        <time>2021-08-06T10:48:15Z</time>
      </trkpt>
      <trkpt lat="42.61507" lon="1.7368">
        <ele>2546.138</ele>
        <time>2021-08-06T10:48:17Z</time>
      </trkpt>
      <trkpt lat="42.61507" lon="1.7368">
        <ele>2546.137</ele>
        <time>2021-08-06T10:48:19Z</time>
      </trkpt>
      <trkpt lat="42.61507" lon="1.7368">
        <ele>2546.137</ele>
        <time>2021-08-06T10:48:21Z</time>
      </trkpt>
      <trkpt lat="42.61507" lon="1.7368">
        <ele>2546.137</ele>
        <time>2021-08-06T10:48:23Z</time>
      </trkpt>
      <trkpt lat="42.61507" lon="1.73679">
        <ele>2545.972</ele>
        <time>2021-08-06T10:48:25Z</time>
      </trkpt>
      <trkpt lat="42.61507" lon="1.73679">
        <ele>2545.885</ele>
        <time>2021-08-06T10:48:27Z</time>
      </trkpt>
      <trkpt lat="42.61507" lon="1.73679">
        <ele>2545.885</ele>
        <time>2021-08-06T10:48:29Z</time>
      </trkpt>
      <trkpt lat="42.61507" lon="1.73679">
        <ele>2545.882</ele>
        <time>2021-08-06T10:48:31Z</time>
      </trkpt>
      <trkpt lat="42.61507" lon="1.73679">
        <ele>2545.885</ele>
        <time>2021-08-06T10:48:33Z</time>
      </trkpt>
      <trkpt lat="42.61507" lon="1.73679">
        <ele>2545.889</ele>
        <time>2021-08-06T10:48:35Z</time>
      </trkpt>
      <trkpt lat="42.61507" lon="1.73679">
        <ele>2545.888</ele>
        <time>2021-08-06T10:48:37Z</time>
      </trkpt>
      <trkpt lat="42.61507" lon="1.73679">
        <ele>2545.888</ele>
        <time>2021-08-06T10:48:39Z</time>
      </trkpt>
      <trkpt lat="42.61507" lon="1.73679">
        <ele>2545.887</ele>
        <time>2021-08-06T10:48:41Z</time>
      </trkpt>
      <trkpt lat="42.61507" lon="1.73679">
        <ele>2545.886</ele>
        <time>2021-08-06T10:48:43Z</time>
      </trkpt>
      <trkpt lat="42.61507" lon="1.73679">
        <ele>2545.885</ele>
        <time>2021-08-06T10:48:45Z</time>
      </trkpt>
      <trkpt lat="42.61507" lon="1.73679">
        <ele>2545.885</ele>
        <time>2021-08-06T10:48:47Z</time>
      </trkpt>
      <trkpt lat="42.61507" lon="1.73679">
        <ele>2545.888</ele>
        <time>2021-08-06T10:48:49Z</time>
      </trkpt>
      <trkpt lat="42.61507" lon="1.73679">
        <ele>2545.891</ele>
        <time>2021-08-06T10:48:51Z</time>
      </trkpt>
      <trkpt lat="42.61507" lon="1.73679">
        <ele>2545.893</ele>
        <time>2021-08-06T10:48:53Z</time>
      </trkpt>
      <trkpt lat="42.61507" lon="1.73679">
        <ele>2545.892</ele>
        <time>2021-08-06T10:48:55Z</time>
      </trkpt>
      <trkpt lat="42.61507" lon="1.73679">
        <ele>2545.895</ele>
        <time>2021-08-06T10:48:57Z</time>
      </trkpt>
      <trkpt lat="42.61507" lon="1.73679">
        <ele>2545.893</ele>
        <time>2021-08-06T10:48:59Z</time>
      </trkpt>
      <trkpt lat="42.61507" lon="1.73679">
        <ele>2545.891</ele>
        <time>2021-08-06T10:49:01Z</time>
      </trkpt>
      <trkpt lat="42.61507" lon="1.73679">
        <ele>2545.892</ele>
        <time>2021-08-06T10:49:03Z</time>
      </trkpt>
      <trkpt lat="42.61507" lon="1.73679">
        <ele>2545.89</ele>
        <time>2021-08-06T10:49:05Z</time>
      </trkpt>
      <trkpt lat="42.61507" lon="1.73679">
        <ele>2545.889</ele>
        <time>2021-08-06T10:49:07Z</time>
      </trkpt>
      <trkpt lat="42.61507" lon="1.73679">
        <ele>2545.888</ele>
        <time>2021-08-06T10:49:09Z</time>
      </trkpt>
      <trkpt lat="42.61507" lon="1.73679">
        <ele>2545.888</ele>
        <time>2021-08-06T10:49:11Z</time>
      </trkpt>
      <trkpt lat="42.61507" lon="1.73679">
        <ele>2545.887</ele>
        <time>2021-08-06T10:49:13Z</time>
      </trkpt>
      <trkpt lat="42.61507" lon="1.73679">
        <ele>2545.889</ele>
        <time>2021-08-06T10:49:15Z</time>
      </trkpt>
      <trkpt lat="42.61507" lon="1.73679">
        <ele>2545.892</ele>
        <time>2021-08-06T10:49:17Z</time>
      </trkpt>
      <trkpt lat="42.61507" lon="1.73679">
        <ele>2545.895</ele>
        <time>2021-08-06T10:49:19Z</time>
      </trkpt>
      <trkpt lat="42.61507" lon="1.73679">
        <ele>2545.897</ele>
        <time>2021-08-06T10:49:21Z</time>
      </trkpt>
      <trkpt lat="42.61507" lon="1.73679">
        <ele>2545.892</ele>
        <time>2021-08-06T10:49:23Z</time>
      </trkpt>
      <trkpt lat="42.61507" lon="1.73679">
        <ele>2545.894</ele>
        <time>2021-08-06T10:49:25Z</time>
      </trkpt>
      <trkpt lat="42.61507" lon="1.73679">
        <ele>2545.893</ele>
        <time>2021-08-06T10:49:27Z</time>
      </trkpt>
      <trkpt lat="42.61507" lon="1.73679">
        <ele>2545.895</ele>
        <time>2021-08-06T10:49:29Z</time>
      </trkpt>
      <trkpt lat="42.61507" lon="1.73679">
        <ele>2545.894</ele>
        <time>2021-08-06T10:49:31Z</time>
      </trkpt>
      <trkpt lat="42.61507" lon="1.73679">
        <ele>2545.894</ele>
        <time>2021-08-06T10:49:33Z</time>
      </trkpt>
      <trkpt lat="42.61507" lon="1.73679">
        <ele>2545.894</ele>
        <time>2021-08-06T10:49:35Z</time>
      </trkpt>
      <trkpt lat="42.61507" lon="1.73679">
        <ele>2545.896</ele>
        <time>2021-08-06T10:49:37Z</time>
      </trkpt>
      <trkpt lat="42.61507" lon="1.73679">
        <ele>2545.892</ele>
        <time>2021-08-06T10:49:39Z</time>
      </trkpt>
      <trkpt lat="42.61507" lon="1.73679">
        <ele>2545.893</ele>
        <time>2021-08-06T10:49:41Z</time>
      </trkpt>
      <trkpt lat="42.61507" lon="1.73679">
        <ele>2545.892</ele>
        <time>2021-08-06T10:49:43Z</time>
      </trkpt>
      <trkpt lat="42.61507" lon="1.73679">
        <ele>2545.892</ele>
        <time>2021-08-06T10:49:45Z</time>
      </trkpt>
      <trkpt lat="42.61507" lon="1.73679">
        <ele>2545.894</ele>
        <time>2021-08-06T10:49:47Z</time>
      </trkpt>
      <trkpt lat="42.61507" lon="1.73679">
        <ele>2545.895</ele>
        <time>2021-08-06T10:49:49Z</time>
      </trkpt>
      <trkpt lat="42.61507" lon="1.73679">
        <ele>2545.895</ele>
        <time>2021-08-06T10:49:51Z</time>
      </trkpt>
      <trkpt lat="42.61507" lon="1.73679">
        <ele>2545.894</ele>
        <time>2021-08-06T10:49:53Z</time>
      </trkpt>
      <trkpt lat="42.61507" lon="1.73679">
        <ele>2545.895</ele>
        <time>2021-08-06T10:49:55Z</time>
      </trkpt>
      <trkpt lat="42.61507" lon="1.73679">
        <ele>2545.895</ele>
        <time>2021-08-06T10:49:57Z</time>
      </trkpt>
      <trkpt lat="42.61507" lon="1.73679">
        <ele>2545.893</ele>
        <time>2021-08-06T10:49:59Z</time>
      </trkpt>
      <trkpt lat="42.61507" lon="1.73679">
        <ele>2545.893</ele>
        <time>2021-08-06T10:50:01Z</time>
      </trkpt>
      <trkpt lat="42.61507" lon="1.73679">
        <ele>2545.895</ele>
        <time>2021-08-06T10:50:03Z</time>
      </trkpt>
      <trkpt lat="42.61507" lon="1.73679">
        <ele>2545.893</ele>
        <time>2021-08-06T10:50:05Z</time>
      </trkpt>
      <trkpt lat="42.61507" lon="1.73679">
        <ele>2545.893</ele>
        <time>2021-08-06T10:50:07Z</time>
      </trkpt>
      <trkpt lat="42.61507" lon="1.73679">
        <ele>2545.892</ele>
        <time>2021-08-06T10:50:09Z</time>
      </trkpt>
      <trkpt lat="42.61507" lon="1.73679">
        <ele>2545.891</ele>
        <time>2021-08-06T10:50:11Z</time>
      </trkpt>
      <trkpt lat="42.61507" lon="1.73679">
        <ele>2545.89</ele>
        <time>2021-08-06T10:50:13Z</time>
      </trkpt>
      <trkpt lat="42.61507" lon="1.73679">
        <ele>2545.89</ele>
        <time>2021-08-06T10:50:15Z</time>
      </trkpt>
      <trkpt lat="42.61507" lon="1.73679">
        <ele>2545.89</ele>
        <time>2021-08-06T10:50:17Z</time>
      </trkpt>
      <trkpt lat="42.61507" lon="1.73679">
        <ele>2545.89</ele>
        <time>2021-08-06T10:50:19Z</time>
      </trkpt>
      <trkpt lat="42.61507" lon="1.73679">
        <ele>2545.89</ele>
        <time>2021-08-06T10:50:21Z</time>
      </trkpt>
      <trkpt lat="42.61507" lon="1.73679">
        <ele>2545.891</ele>
        <time>2021-08-06T10:50:23Z</time>
      </trkpt>
      <trkpt lat="42.61507" lon="1.73679">
        <ele>2545.889</ele>
        <time>2021-08-06T10:50:25Z</time>
      </trkpt>
      <trkpt lat="42.61507" lon="1.73679">
        <ele>2545.887</ele>
        <time>2021-08-06T10:50:27Z</time>
      </trkpt>
      <trkpt lat="42.61507" lon="1.73679">
        <ele>2545.886</ele>
        <time>2021-08-06T10:50:29Z</time>
      </trkpt>
      <trkpt lat="42.61507" lon="1.73679">
        <ele>2545.885</ele>
        <time>2021-08-06T10:50:31Z</time>
      </trkpt>
      <trkpt lat="42.61507" lon="1.73679">
        <ele>2545.884</ele>
        <time>2021-08-06T10:50:33Z</time>
      </trkpt>
      <trkpt lat="42.61507" lon="1.73679">
        <ele>2545.885</ele>
        <time>2021-08-06T10:50:35Z</time>
      </trkpt>
      <trkpt lat="42.61507" lon="1.73679">
        <ele>2545.885</ele>
        <time>2021-08-06T10:50:37Z</time>
      </trkpt>
      <trkpt lat="42.61507" lon="1.73679">
        <ele>2545.882</ele>
        <time>2021-08-06T10:50:39Z</time>
      </trkpt>
      <trkpt lat="42.61507" lon="1.73679">
        <ele>2545.885</ele>
        <time>2021-08-06T10:50:41Z</time>
      </trkpt>
      <trkpt lat="42.61507" lon="1.73679">
        <ele>2545.884</ele>
        <time>2021-08-06T10:50:43Z</time>
      </trkpt>
      <trkpt lat="42.61507" lon="1.73679">
        <ele>2545.885</ele>
        <time>2021-08-06T10:50:45Z</time>
      </trkpt>
      <trkpt lat="42.61507" lon="1.73679">
        <ele>2545.884</ele>
        <time>2021-08-06T10:50:47Z</time>
      </trkpt>
      <trkpt lat="42.61507" lon="1.73679">
        <ele>2545.886</ele>
        <time>2021-08-06T10:50:49Z</time>
      </trkpt>
      <trkpt lat="42.61507" lon="1.73679">
        <ele>2545.889</ele>
        <time>2021-08-06T10:50:51Z</time>
      </trkpt>
      <trkpt lat="42.61507" lon="1.73679">
        <ele>2545.889</ele>
        <time>2021-08-06T10:50:53Z</time>
      </trkpt>
      <trkpt lat="42.61507" lon="1.73679">
        <ele>2545.888</ele>
        <time>2021-08-06T10:50:55Z</time>
      </trkpt>
      <trkpt lat="42.61507" lon="1.73679">
        <ele>2545.889</ele>
        <time>2021-08-06T10:50:57Z</time>
      </trkpt>
      <trkpt lat="42.61507" lon="1.73679">
        <ele>2545.888</ele>
        <time>2021-08-06T10:50:59Z</time>
      </trkpt>
      <trkpt lat="42.61507" lon="1.73679">
        <ele>2545.887</ele>
        <time>2021-08-06T10:51:01Z</time>
      </trkpt>
      <trkpt lat="42.61507" lon="1.73679">
        <ele>2545.887</ele>
        <time>2021-08-06T10:51:03Z</time>
      </trkpt>
      <trkpt lat="42.61507" lon="1.73679">
        <ele>2545.885</ele>
        <time>2021-08-06T10:51:05Z</time>
      </trkpt>
      <trkpt lat="42.61507" lon="1.73679">
        <ele>2545.884</ele>
        <time>2021-08-06T10:51:07Z</time>
      </trkpt>
      <trkpt lat="42.61507" lon="1.73679">
        <ele>2545.887</ele>
        <time>2021-08-06T10:51:09Z</time>
      </trkpt>
      <trkpt lat="42.61507" lon="1.73679">
        <ele>2545.889</ele>
        <time>2021-08-06T10:51:11Z</time>
      </trkpt>
      <trkpt lat="42.61507" lon="1.73679">
        <ele>2545.891</ele>
        <time>2021-08-06T10:51:13Z</time>
      </trkpt>
      <trkpt lat="42.61507" lon="1.73679">
        <ele>2545.891</ele>
        <time>2021-08-06T10:51:15Z</time>
      </trkpt>
      <trkpt lat="42.61507" lon="1.73679">
        <ele>2545.892</ele>
        <time>2021-08-06T10:51:17Z</time>
      </trkpt>
      <trkpt lat="42.61507" lon="1.73679">
        <ele>2545.892</ele>
        <time>2021-08-06T10:51:19Z</time>
      </trkpt>
      <trkpt lat="42.61507" lon="1.73679">
        <ele>2545.893</ele>
        <time>2021-08-06T10:51:21Z</time>
      </trkpt>
      <trkpt lat="42.61507" lon="1.73679">
        <ele>2545.892</ele>
        <time>2021-08-06T10:51:23Z</time>
      </trkpt>
      <trkpt lat="42.61507" lon="1.73679">
        <ele>2545.891</ele>
        <time>2021-08-06T10:51:25Z</time>
      </trkpt>
      <trkpt lat="42.61507" lon="1.73679">
        <ele>2545.891</ele>
        <time>2021-08-06T10:51:27Z</time>
      </trkpt>
      <trkpt lat="42.61507" lon="1.73679">
        <ele>2545.891</ele>
        <time>2021-08-06T10:51:29Z</time>
      </trkpt>
      <trkpt lat="42.61507" lon="1.73679">
        <ele>2545.889</ele>
        <time>2021-08-06T10:51:31Z</time>
      </trkpt>
      <trkpt lat="42.61507" lon="1.73679">
        <ele>2545.888</ele>
        <time>2021-08-06T10:51:33Z</time>
      </trkpt>
      <trkpt lat="42.61507" lon="1.73679">
        <ele>2546.107</ele>
        <time>2021-08-06T10:51:35Z</time>
      </trkpt>
      <trkpt lat="42.61507" lon="1.73679">
        <ele>2546.158</ele>
        <time>2021-08-06T10:51:37Z</time>
      </trkpt>
      <trkpt lat="42.61507" lon="1.73679">
        <ele>2546.159</ele>
        <time>2021-08-06T10:51:39Z</time>
      </trkpt>
      <trkpt lat="42.61507" lon="1.73679">
        <ele>2546.164</ele>
        <time>2021-08-06T10:51:41Z</time>
      </trkpt>
      <trkpt lat="42.61507" lon="1.73679">
        <ele>2546.167</ele>
        <time>2021-08-06T10:51:43Z</time>
      </trkpt>
      <trkpt lat="42.61507" lon="1.73679">
        <ele>2546.169</ele>
        <time>2021-08-06T10:51:45Z</time>
      </trkpt>
      <trkpt lat="42.61507" lon="1.73679">
        <ele>2546.172</ele>
        <time>2021-08-06T10:51:47Z</time>
      </trkpt>
      <trkpt lat="42.61507" lon="1.73679">
        <ele>2546.172</ele>
        <time>2021-08-06T10:51:49Z</time>
      </trkpt>
      <trkpt lat="42.61507" lon="1.73679">
        <ele>2546.177</ele>
        <time>2021-08-06T10:51:51Z</time>
      </trkpt>
      <trkpt lat="42.61507" lon="1.73679">
        <ele>2546.177</ele>
        <time>2021-08-06T10:51:53Z</time>
      </trkpt>
      <trkpt lat="42.61507" lon="1.73679">
        <ele>2546.175</ele>
        <time>2021-08-06T10:51:55Z</time>
      </trkpt>
      <trkpt lat="42.61507" lon="1.73679">
        <ele>2546.179</ele>
        <time>2021-08-06T10:51:57Z</time>
      </trkpt>
      <trkpt lat="42.61507" lon="1.73679">
        <ele>2546.182</ele>
        <time>2021-08-06T10:51:59Z</time>
      </trkpt>
      <trkpt lat="42.61507" lon="1.73679">
        <ele>2546.184</ele>
        <time>2021-08-06T10:52:01Z</time>
      </trkpt>
      <trkpt lat="42.61507" lon="1.73679">
        <ele>2546.184</ele>
        <time>2021-08-06T10:52:03Z</time>
      </trkpt>
      <trkpt lat="42.61507" lon="1.73679">
        <ele>2546.185</ele>
        <time>2021-08-06T10:52:05Z</time>
      </trkpt>
      <trkpt lat="42.61507" lon="1.73679">
        <ele>2546.186</ele>
        <time>2021-08-06T10:52:07Z</time>
      </trkpt>
      <trkpt lat="42.61507" lon="1.73679">
        <ele>2546.185</ele>
        <time>2021-08-06T10:52:09Z</time>
      </trkpt>
      <trkpt lat="42.61507" lon="1.73679">
        <ele>2546.185</ele>
        <time>2021-08-06T10:52:11Z</time>
      </trkpt>
      <trkpt lat="42.61507" lon="1.73679">
        <ele>2546.185</ele>
        <time>2021-08-06T10:52:13Z</time>
      </trkpt>
      <trkpt lat="42.61507" lon="1.73679">
        <ele>2546.182</ele>
        <time>2021-08-06T10:52:15Z</time>
      </trkpt>
      <trkpt lat="42.61507" lon="1.73679">
        <ele>2546.182</ele>
        <time>2021-08-06T10:52:17Z</time>
      </trkpt>
      <trkpt lat="42.61507" lon="1.73679">
        <ele>2546.179</ele>
        <time>2021-08-06T10:52:19Z</time>
      </trkpt>
      <trkpt lat="42.61507" lon="1.73679">
        <ele>2546.177</ele>
        <time>2021-08-06T10:52:21Z</time>
      </trkpt>
      <trkpt lat="42.61507" lon="1.73679">
        <ele>2546.178</ele>
        <time>2021-08-06T10:52:23Z</time>
      </trkpt>
      <trkpt lat="42.61507" lon="1.73679">
        <ele>2546.18</ele>
        <time>2021-08-06T10:52:25Z</time>
      </trkpt>
      <trkpt lat="42.61507" lon="1.73679">
        <ele>2546.179</ele>
        <time>2021-08-06T10:52:27Z</time>
      </trkpt>
      <trkpt lat="42.61507" lon="1.73679">
        <ele>2546.178</ele>
        <time>2021-08-06T10:52:29Z</time>
      </trkpt>
      <trkpt lat="42.61507" lon="1.73679">
        <ele>2546.176</ele>
        <time>2021-08-06T10:52:31Z</time>
      </trkpt>
      <trkpt lat="42.61507" lon="1.73679">
        <ele>2546.176</ele>
        <time>2021-08-06T10:52:33Z</time>
      </trkpt>
      <trkpt lat="42.61507" lon="1.73679">
        <ele>2546.18</ele>
        <time>2021-08-06T10:52:35Z</time>
      </trkpt>
      <trkpt lat="42.61507" lon="1.73679">
        <ele>2546.181</ele>
        <time>2021-08-06T10:52:37Z</time>
      </trkpt>
      <trkpt lat="42.61507" lon="1.73679">
        <ele>2546.179</ele>
        <time>2021-08-06T10:52:39Z</time>
      </trkpt>
      <trkpt lat="42.61507" lon="1.73679">
        <ele>2546.178</ele>
        <time>2021-08-06T10:52:41Z</time>
      </trkpt>
      <trkpt lat="42.61507" lon="1.73679">
        <ele>2546.175</ele>
        <time>2021-08-06T10:52:43Z</time>
      </trkpt>
      <trkpt lat="42.61507" lon="1.73679">
        <ele>2546.181</ele>
        <time>2021-08-06T10:52:45Z</time>
      </trkpt>
      <trkpt lat="42.61507" lon="1.73679">
        <ele>2546.183</ele>
        <time>2021-08-06T10:52:47Z</time>
      </trkpt>
      <trkpt lat="42.61507" lon="1.73679">
        <ele>2546.182</ele>
        <time>2021-08-06T10:52:49Z</time>
      </trkpt>
      <trkpt lat="42.61507" lon="1.73679">
        <ele>2546.183</ele>
        <time>2021-08-06T10:52:51Z</time>
      </trkpt>
      <trkpt lat="42.61507" lon="1.73679">
        <ele>2546.187</ele>
        <time>2021-08-06T10:52:53Z</time>
      </trkpt>
      <trkpt lat="42.61507" lon="1.73679">
        <ele>2546.186</ele>
        <time>2021-08-06T10:52:55Z</time>
      </trkpt>
      <trkpt lat="42.61507" lon="1.73679">
        <ele>2546.185</ele>
        <time>2021-08-06T10:52:57Z</time>
      </trkpt>
      <trkpt lat="42.61507" lon="1.73679">
        <ele>2546.185</ele>
        <time>2021-08-06T10:52:59Z</time>
      </trkpt>
      <trkpt lat="42.61507" lon="1.73679">
        <ele>2546.185</ele>
        <time>2021-08-06T10:53:01Z</time>
      </trkpt>
      <trkpt lat="42.61507" lon="1.73679">
        <ele>2546.186</ele>
        <time>2021-08-06T10:53:03Z</time>
      </trkpt>
      <trkpt lat="42.61507" lon="1.73679">
        <ele>2546.185</ele>
        <time>2021-08-06T10:53:05Z</time>
      </trkpt>
      <trkpt lat="42.61507" lon="1.73679">
        <ele>2546.185</ele>
        <time>2021-08-06T10:53:07Z</time>
      </trkpt>
      <trkpt lat="42.61507" lon="1.73679">
        <ele>2546.185</ele>
        <time>2021-08-06T10:53:09Z</time>
      </trkpt>
      <trkpt lat="42.61507" lon="1.73679">
        <ele>2546.185</ele>
        <time>2021-08-06T10:53:11Z</time>
      </trkpt>
      <trkpt lat="42.61507" lon="1.73679">
        <ele>2546.187</ele>
        <time>2021-08-06T10:53:13Z</time>
      </trkpt>
      <trkpt lat="42.61507" lon="1.73679">
        <ele>2546.191</ele>
        <time>2021-08-06T10:53:15Z</time>
      </trkpt>
      <trkpt lat="42.61507" lon="1.73679">
        <ele>2546.19</ele>
        <time>2021-08-06T10:53:17Z</time>
      </trkpt>
      <trkpt lat="42.61507" lon="1.73679">
        <ele>2546.19</ele>
        <time>2021-08-06T10:53:19Z</time>
      </trkpt>
      <trkpt lat="42.61507" lon="1.73679">
        <ele>2546.19</ele>
        <time>2021-08-06T10:53:21Z</time>
      </trkpt>
      <trkpt lat="42.61507" lon="1.73679">
        <ele>2546.192</ele>
        <time>2021-08-06T10:53:22Z</time>
      </trkpt>
      <trkpt lat="42.61507" lon="1.73679">
        <ele>2546.19</ele>
        <time>2021-08-06T10:53:25Z</time>
      </trkpt>
      <trkpt lat="42.61507" lon="1.73679">
        <ele>2546.191</ele>
        <time>2021-08-06T10:53:27Z</time>
      </trkpt>
      <trkpt lat="42.61507" lon="1.73679">
        <ele>2546.193</ele>
        <time>2021-08-06T10:53:29Z</time>
      </trkpt>
      <trkpt lat="42.61507" lon="1.73679">
        <ele>2546.194</ele>
        <time>2021-08-06T10:53:31Z</time>
      </trkpt>
      <trkpt lat="42.61507" lon="1.73679">
        <ele>2546.195</ele>
        <time>2021-08-06T10:53:33Z</time>
      </trkpt>
      <trkpt lat="42.61507" lon="1.73679">
        <ele>2546.196</ele>
        <time>2021-08-06T10:53:35Z</time>
      </trkpt>
      <trkpt lat="42.61507" lon="1.73679">
        <ele>2546.198</ele>
        <time>2021-08-06T10:53:37Z</time>
      </trkpt>
      <trkpt lat="42.61507" lon="1.73679">
        <ele>2546.198</ele>
        <time>2021-08-06T10:53:39Z</time>
      </trkpt>
      <trkpt lat="42.61507" lon="1.73679">
        <ele>2546.2</ele>
        <time>2021-08-06T10:53:41Z</time>
      </trkpt>
      <trkpt lat="42.61507" lon="1.73679">
        <ele>2546.198</ele>
        <time>2021-08-06T10:53:43Z</time>
      </trkpt>
      <trkpt lat="42.61507" lon="1.73679">
        <ele>2546.199</ele>
        <time>2021-08-06T10:53:45Z</time>
      </trkpt>
      <trkpt lat="42.61507" lon="1.73679">
        <ele>2546.2</ele>
        <time>2021-08-06T10:53:47Z</time>
      </trkpt>
      <trkpt lat="42.61507" lon="1.73679">
        <ele>2546.2</ele>
        <time>2021-08-06T10:53:49Z</time>
      </trkpt>
      <trkpt lat="42.61507" lon="1.73679">
        <ele>2546.201</ele>
        <time>2021-08-06T10:53:51Z</time>
      </trkpt>
      <trkpt lat="42.61507" lon="1.73679">
        <ele>2546.208</ele>
        <time>2021-08-06T10:53:53Z</time>
      </trkpt>
      <trkpt lat="42.61507" lon="1.73679">
        <ele>2546.22</ele>
        <time>2021-08-06T10:53:55Z</time>
      </trkpt>
      <trkpt lat="42.61507" lon="1.73679">
        <ele>2546.232</ele>
        <time>2021-08-06T10:53:57Z</time>
      </trkpt>
      <trkpt lat="42.61507" lon="1.73679">
        <ele>2546.249</ele>
        <time>2021-08-06T10:53:59Z</time>
      </trkpt>
      <trkpt lat="42.61507" lon="1.73679">
        <ele>2546.254</ele>
        <time>2021-08-06T10:54:01Z</time>
      </trkpt>
      <trkpt lat="42.61507" lon="1.73679">
        <ele>2546.258</ele>
        <time>2021-08-06T10:54:03Z</time>
      </trkpt>
      <trkpt lat="42.61507" lon="1.73679">
        <ele>2546.262</ele>
        <time>2021-08-06T10:54:05Z</time>
      </trkpt>
      <trkpt lat="42.61507" lon="1.73679">
        <ele>2546.266</ele>
        <time>2021-08-06T10:54:07Z</time>
      </trkpt>
      <trkpt lat="42.61507" lon="1.73679">
        <ele>2546.261</ele>
        <time>2021-08-06T10:54:09Z</time>
      </trkpt>
      <trkpt lat="42.61507" lon="1.73679">
        <ele>2546.264</ele>
        <time>2021-08-06T10:54:11Z</time>
      </trkpt>
      <trkpt lat="42.61507" lon="1.73679">
        <ele>2546.276</ele>
        <time>2021-08-06T10:54:13Z</time>
      </trkpt>
      <trkpt lat="42.61507" lon="1.73679">
        <ele>2546.279</ele>
        <time>2021-08-06T10:54:15Z</time>
      </trkpt>
      <trkpt lat="42.61507" lon="1.73679">
        <ele>2546.289</ele>
        <time>2021-08-06T10:54:17Z</time>
      </trkpt>
      <trkpt lat="42.61507" lon="1.73679">
        <ele>2546.294</ele>
        <time>2021-08-06T10:54:19Z</time>
      </trkpt>
      <trkpt lat="42.61507" lon="1.73679">
        <ele>2546.295</ele>
        <time>2021-08-06T10:54:21Z</time>
      </trkpt>
      <trkpt lat="42.61507" lon="1.73679">
        <ele>2546.299</ele>
        <time>2021-08-06T10:54:23Z</time>
      </trkpt>
      <trkpt lat="42.61507" lon="1.73679">
        <ele>2546.301</ele>
        <time>2021-08-06T10:54:25Z</time>
      </trkpt>
      <trkpt lat="42.61507" lon="1.73679">
        <ele>2546.304</ele>
        <time>2021-08-06T10:54:27Z</time>
      </trkpt>
      <trkpt lat="42.61507" lon="1.73679">
        <ele>2546.306</ele>
        <time>2021-08-06T10:54:29Z</time>
      </trkpt>
      <trkpt lat="42.61507" lon="1.73679">
        <ele>2546.316</ele>
        <time>2021-08-06T10:54:31Z</time>
      </trkpt>
      <trkpt lat="42.61507" lon="1.73679">
        <ele>2546.321</ele>
        <time>2021-08-06T10:54:33Z</time>
      </trkpt>
      <trkpt lat="42.61507" lon="1.73679">
        <ele>2546.328</ele>
        <time>2021-08-06T10:54:35Z</time>
      </trkpt>
      <trkpt lat="42.61507" lon="1.73679">
        <ele>2546.328</ele>
        <time>2021-08-06T10:54:37Z</time>
      </trkpt>
      <trkpt lat="42.61507" lon="1.73679">
        <ele>2546.332</ele>
        <time>2021-08-06T10:54:39Z</time>
      </trkpt>
      <trkpt lat="42.61507" lon="1.73679">
        <ele>2546.331</ele>
        <time>2021-08-06T10:54:41Z</time>
      </trkpt>
      <trkpt lat="42.61507" lon="1.73679">
        <ele>2546.334</ele>
        <time>2021-08-06T10:54:43Z</time>
      </trkpt>
      <trkpt lat="42.61507" lon="1.73679">
        <ele>2546.336</ele>
        <time>2021-08-06T10:54:45Z</time>
      </trkpt>
      <trkpt lat="42.61507" lon="1.73679">
        <ele>2546.339</ele>
        <time>2021-08-06T10:54:47Z</time>
      </trkpt>
      <trkpt lat="42.61507" lon="1.73679">
        <ele>2546.342</ele>
        <time>2021-08-06T10:54:49Z</time>
      </trkpt>
      <trkpt lat="42.61507" lon="1.73679">
        <ele>2546.345</ele>
        <time>2021-08-06T10:54:51Z</time>
      </trkpt>
      <trkpt lat="42.61507" lon="1.73679">
        <ele>2546.347</ele>
        <time>2021-08-06T10:54:53Z</time>
      </trkpt>
      <trkpt lat="42.61507" lon="1.73679">
        <ele>2546.351</ele>
        <time>2021-08-06T10:54:55Z</time>
      </trkpt>
      <trkpt lat="42.61507" lon="1.73679">
        <ele>2546.354</ele>
        <time>2021-08-06T10:54:57Z</time>
      </trkpt>
      <trkpt lat="42.61507" lon="1.73679">
        <ele>2546.356</ele>
        <time>2021-08-06T10:54:59Z</time>
      </trkpt>
      <trkpt lat="42.61507" lon="1.73679">
        <ele>2546.355</ele>
        <time>2021-08-06T10:55:01Z</time>
      </trkpt>
      <trkpt lat="42.61507" lon="1.73679">
        <ele>2546.359</ele>
        <time>2021-08-06T10:55:03Z</time>
      </trkpt>
      <trkpt lat="42.61507" lon="1.73679">
        <ele>2546.369</ele>
        <time>2021-08-06T10:55:05Z</time>
      </trkpt>
      <trkpt lat="42.61507" lon="1.73679">
        <ele>2546.371</ele>
        <time>2021-08-06T10:55:07Z</time>
      </trkpt>
      <trkpt lat="42.61507" lon="1.73679">
        <ele>2546.374</ele>
        <time>2021-08-06T10:55:09Z</time>
      </trkpt>
      <trkpt lat="42.61507" lon="1.73679">
        <ele>2546.378</ele>
        <time>2021-08-06T10:55:11Z</time>
      </trkpt>
      <trkpt lat="42.61507" lon="1.73679">
        <ele>2546.382</ele>
        <time>2021-08-06T10:55:13Z</time>
      </trkpt>
      <trkpt lat="42.61507" lon="1.73679">
        <ele>2546.389</ele>
        <time>2021-08-06T10:55:15Z</time>
      </trkpt>
      <trkpt lat="42.61507" lon="1.73679">
        <ele>2546.388</ele>
        <time>2021-08-06T10:55:17Z</time>
      </trkpt>
      <trkpt lat="42.61507" lon="1.73679">
        <ele>2546.396</ele>
        <time>2021-08-06T10:55:19Z</time>
      </trkpt>
      <trkpt lat="42.61507" lon="1.73679">
        <ele>2546.401</ele>
        <time>2021-08-06T10:55:21Z</time>
      </trkpt>
      <trkpt lat="42.61507" lon="1.73679">
        <ele>2546.406</ele>
        <time>2021-08-06T10:55:23Z</time>
      </trkpt>
      <trkpt lat="42.61507" lon="1.73679">
        <ele>2546.406</ele>
        <time>2021-08-06T10:55:25Z</time>
      </trkpt>
      <trkpt lat="42.61507" lon="1.73679">
        <ele>2546.416</ele>
        <time>2021-08-06T10:55:27Z</time>
      </trkpt>
      <trkpt lat="42.61507" lon="1.73679">
        <ele>2546.424</ele>
        <time>2021-08-06T10:55:29Z</time>
      </trkpt>
      <trkpt lat="42.61507" lon="1.73679">
        <ele>2546.425</ele>
        <time>2021-08-06T10:55:31Z</time>
      </trkpt>
      <trkpt lat="42.61507" lon="1.73679">
        <ele>2546.429</ele>
        <time>2021-08-06T10:55:33Z</time>
      </trkpt>
      <trkpt lat="42.61507" lon="1.73679">
        <ele>2546.435</ele>
        <time>2021-08-06T10:55:35Z</time>
      </trkpt>
      <trkpt lat="42.61507" lon="1.73679">
        <ele>2546.435</ele>
        <time>2021-08-06T10:55:37Z</time>
      </trkpt>
      <trkpt lat="42.61507" lon="1.73679">
        <ele>2546.432</ele>
        <time>2021-08-06T10:55:39Z</time>
      </trkpt>
      <trkpt lat="42.61507" lon="1.73679">
        <ele>2546.433</ele>
        <time>2021-08-06T10:55:41Z</time>
      </trkpt>
      <trkpt lat="42.61507" lon="1.73679">
        <ele>2546.435</ele>
        <time>2021-08-06T10:55:43Z</time>
      </trkpt>
      <trkpt lat="42.61507" lon="1.73679">
        <ele>2546.433</ele>
        <time>2021-08-06T10:55:45Z</time>
      </trkpt>
      <trkpt lat="42.61507" lon="1.73679">
        <ele>2546.437</ele>
        <time>2021-08-06T10:55:47Z</time>
      </trkpt>
      <trkpt lat="42.61507" lon="1.73679">
        <ele>2546.44</ele>
        <time>2021-08-06T10:55:49Z</time>
      </trkpt>
      <trkpt lat="42.61507" lon="1.73679">
        <ele>2546.441</ele>
        <time>2021-08-06T10:55:51Z</time>
      </trkpt>
      <trkpt lat="42.61507" lon="1.73679">
        <ele>2546.437</ele>
        <time>2021-08-06T10:55:53Z</time>
      </trkpt>
      <trkpt lat="42.61507" lon="1.73679">
        <ele>2546.439</ele>
        <time>2021-08-06T10:55:55Z</time>
      </trkpt>
      <trkpt lat="42.61507" lon="1.73679">
        <ele>2546.441</ele>
        <time>2021-08-06T10:55:57Z</time>
      </trkpt>
      <trkpt lat="42.61507" lon="1.73679">
        <ele>2546.439</ele>
        <time>2021-08-06T10:55:59Z</time>
      </trkpt>
      <trkpt lat="42.61507" lon="1.73679">
        <ele>2546.437</ele>
        <time>2021-08-06T10:56:01Z</time>
      </trkpt>
      <trkpt lat="42.61507" lon="1.73679">
        <ele>2546.432</ele>
        <time>2021-08-06T10:56:03Z</time>
      </trkpt>
      <trkpt lat="42.61507" lon="1.73679">
        <ele>2546.434</ele>
        <time>2021-08-06T10:56:05Z</time>
      </trkpt>
      <trkpt lat="42.61507" lon="1.73679">
        <ele>2546.427</ele>
        <time>2021-08-06T10:56:07Z</time>
      </trkpt>
      <trkpt lat="42.61507" lon="1.73679">
        <ele>2546.423</ele>
        <time>2021-08-06T10:56:09Z</time>
      </trkpt>
      <trkpt lat="42.61507" lon="1.73679">
        <ele>2546.429</ele>
        <time>2021-08-06T10:56:11Z</time>
      </trkpt>
      <trkpt lat="42.61507" lon="1.73679">
        <ele>2546.433</ele>
        <time>2021-08-06T10:56:13Z</time>
      </trkpt>
      <trkpt lat="42.61507" lon="1.73679">
        <ele>2546.43</ele>
        <time>2021-08-06T10:56:15Z</time>
      </trkpt>
      <trkpt lat="42.61507" lon="1.73679">
        <ele>2546.434</ele>
        <time>2021-08-06T10:56:17Z</time>
      </trkpt>
      <trkpt lat="42.61507" lon="1.73679">
        <ele>2546.438</ele>
        <time>2021-08-06T10:56:19Z</time>
      </trkpt>
      <trkpt lat="42.61507" lon="1.73679">
        <ele>2546.437</ele>
        <time>2021-08-06T10:56:21Z</time>
      </trkpt>
      <trkpt lat="42.61507" lon="1.73679">
        <ele>2546.444</ele>
        <time>2021-08-06T10:56:23Z</time>
      </trkpt>
      <trkpt lat="42.61507" lon="1.73679">
        <ele>2546.447</ele>
        <time>2021-08-06T10:56:25Z</time>
      </trkpt>
      <trkpt lat="42.61507" lon="1.73679">
        <ele>2546.451</ele>
        <time>2021-08-06T10:56:27Z</time>
      </trkpt>
      <trkpt lat="42.61507" lon="1.73679">
        <ele>2546.449</ele>
        <time>2021-08-06T10:56:29Z</time>
      </trkpt>
      <trkpt lat="42.61507" lon="1.73679">
        <ele>2546.446</ele>
        <time>2021-08-06T10:56:31Z</time>
      </trkpt>
      <trkpt lat="42.61507" lon="1.73679">
        <ele>2546.447</ele>
        <time>2021-08-06T10:56:33Z</time>
      </trkpt>
      <trkpt lat="42.61507" lon="1.73679">
        <ele>2546.447</ele>
        <time>2021-08-06T10:56:35Z</time>
      </trkpt>
      <trkpt lat="42.61507" lon="1.73679">
        <ele>2546.449</ele>
        <time>2021-08-06T10:56:37Z</time>
      </trkpt>
      <trkpt lat="42.61507" lon="1.73679">
        <ele>2546.445</ele>
        <time>2021-08-06T10:56:39Z</time>
      </trkpt>
      <trkpt lat="42.61507" lon="1.73679">
        <ele>2546.447</ele>
        <time>2021-08-06T10:56:41Z</time>
      </trkpt>
      <trkpt lat="42.61507" lon="1.73679">
        <ele>2546.45</ele>
        <time>2021-08-06T10:56:43Z</time>
      </trkpt>
      <trkpt lat="42.61507" lon="1.73679">
        <ele>2546.45</ele>
        <time>2021-08-06T10:56:45Z</time>
      </trkpt>
      <trkpt lat="42.61507" lon="1.73679">
        <ele>2546.451</ele>
        <time>2021-08-06T10:56:47Z</time>
      </trkpt>
      <trkpt lat="42.61507" lon="1.73679">
        <ele>2546.451</ele>
        <time>2021-08-06T10:56:49Z</time>
      </trkpt>
      <trkpt lat="42.61507" lon="1.73679">
        <ele>2546.447</ele>
        <time>2021-08-06T10:56:51Z</time>
      </trkpt>
      <trkpt lat="42.61507" lon="1.73679">
        <ele>2546.45</ele>
        <time>2021-08-06T10:56:53Z</time>
      </trkpt>
      <trkpt lat="42.61507" lon="1.73679">
        <ele>2546.457</ele>
        <time>2021-08-06T10:56:55Z</time>
      </trkpt>
      <trkpt lat="42.61507" lon="1.73679">
        <ele>2546.452</ele>
        <time>2021-08-06T10:56:57Z</time>
      </trkpt>
      <trkpt lat="42.61507" lon="1.73679">
        <ele>2546.448</ele>
        <time>2021-08-06T10:56:59Z</time>
      </trkpt>
      <trkpt lat="42.61507" lon="1.73679">
        <ele>2546.447</ele>
        <time>2021-08-06T10:57:01Z</time>
      </trkpt>
      <trkpt lat="42.61507" lon="1.73679">
        <ele>2546.447</ele>
        <time>2021-08-06T10:57:03Z</time>
      </trkpt>
      <trkpt lat="42.61507" lon="1.73679">
        <ele>2546.45</ele>
        <time>2021-08-06T10:57:05Z</time>
      </trkpt>
      <trkpt lat="42.61507" lon="1.73679">
        <ele>2546.446</ele>
        <time>2021-08-06T10:57:07Z</time>
      </trkpt>
      <trkpt lat="42.61507" lon="1.73679">
        <ele>2546.443</ele>
        <time>2021-08-06T10:57:09Z</time>
      </trkpt>
      <trkpt lat="42.61507" lon="1.73679">
        <ele>2546.444</ele>
        <time>2021-08-06T10:57:11Z</time>
      </trkpt>
      <trkpt lat="42.61507" lon="1.73679">
        <ele>2546.439</ele>
        <time>2021-08-06T10:57:13Z</time>
      </trkpt>
      <trkpt lat="42.61507" lon="1.73679">
        <ele>2546.437</ele>
        <time>2021-08-06T10:57:15Z</time>
      </trkpt>
      <trkpt lat="42.61507" lon="1.73679">
        <ele>2546.439</ele>
        <time>2021-08-06T10:57:17Z</time>
      </trkpt>
      <trkpt lat="42.61507" lon="1.73679">
        <ele>2546.441</ele>
        <time>2021-08-06T10:57:19Z</time>
      </trkpt>
      <trkpt lat="42.61507" lon="1.73679">
        <ele>2546.445</ele>
        <time>2021-08-06T10:57:21Z</time>
      </trkpt>
      <trkpt lat="42.61507" lon="1.73679">
        <ele>2546.447</ele>
        <time>2021-08-06T10:57:23Z</time>
      </trkpt>
      <trkpt lat="42.61507" lon="1.73679">
        <ele>2546.455</ele>
        <time>2021-08-06T10:57:25Z</time>
      </trkpt>
      <trkpt lat="42.61507" lon="1.73679">
        <ele>2546.455</ele>
        <time>2021-08-06T10:57:27Z</time>
      </trkpt>
      <trkpt lat="42.61507" lon="1.73679">
        <ele>2546.459</ele>
        <time>2021-08-06T10:57:29Z</time>
      </trkpt>
      <trkpt lat="42.61507" lon="1.73679">
        <ele>2546.46</ele>
        <time>2021-08-06T10:57:31Z</time>
      </trkpt>
      <trkpt lat="42.61507" lon="1.73679">
        <ele>2546.461</ele>
        <time>2021-08-06T10:57:33Z</time>
      </trkpt>
      <trkpt lat="42.61507" lon="1.73679">
        <ele>2546.465</ele>
        <time>2021-08-06T10:57:35Z</time>
      </trkpt>
      <trkpt lat="42.61507" lon="1.73679">
        <ele>2546.462</ele>
        <time>2021-08-06T10:57:37Z</time>
      </trkpt>
      <trkpt lat="42.61507" lon="1.73679">
        <ele>2546.465</ele>
        <time>2021-08-06T10:57:39Z</time>
      </trkpt>
      <trkpt lat="42.61507" lon="1.73679">
        <ele>2546.466</ele>
        <time>2021-08-06T10:57:41Z</time>
      </trkpt>
      <trkpt lat="42.61507" lon="1.73679">
        <ele>2546.47</ele>
        <time>2021-08-06T10:57:43Z</time>
      </trkpt>
      <trkpt lat="42.61507" lon="1.73679">
        <ele>2546.465</ele>
        <time>2021-08-06T10:57:45Z</time>
      </trkpt>
      <trkpt lat="42.61507" lon="1.73679">
        <ele>2546.467</ele>
        <time>2021-08-06T10:57:47Z</time>
      </trkpt>
      <trkpt lat="42.61507" lon="1.73679">
        <ele>2546.466</ele>
        <time>2021-08-06T10:57:49Z</time>
      </trkpt>
      <trkpt lat="42.61507" lon="1.73679">
        <ele>2546.465</ele>
        <time>2021-08-06T10:57:51Z</time>
      </trkpt>
      <trkpt lat="42.61507" lon="1.73679">
        <ele>2546.463</ele>
        <time>2021-08-06T10:57:53Z</time>
      </trkpt>
      <trkpt lat="42.61507" lon="1.73679">
        <ele>2546.465</ele>
        <time>2021-08-06T10:57:55Z</time>
      </trkpt>
      <trkpt lat="42.61507" lon="1.73679">
        <ele>2546.467</ele>
        <time>2021-08-06T10:57:57Z</time>
      </trkpt>
      <trkpt lat="42.61507" lon="1.73679">
        <ele>2546.469</ele>
        <time>2021-08-06T10:57:59Z</time>
      </trkpt>
      <trkpt lat="42.61507" lon="1.73679">
        <ele>2546.47</ele>
        <time>2021-08-06T10:58:01Z</time>
      </trkpt>
      <trkpt lat="42.61507" lon="1.73679">
        <ele>2546.47</ele>
        <time>2021-08-06T10:58:03Z</time>
      </trkpt>
      <trkpt lat="42.61507" lon="1.73679">
        <ele>2546.471</ele>
        <time>2021-08-06T10:58:05Z</time>
      </trkpt>
      <trkpt lat="42.61507" lon="1.73679">
        <ele>2546.468</ele>
        <time>2021-08-06T10:58:07Z</time>
      </trkpt>
      <trkpt lat="42.61507" lon="1.73679">
        <ele>2546.465</ele>
        <time>2021-08-06T10:58:09Z</time>
      </trkpt>
      <trkpt lat="42.61507" lon="1.73679">
        <ele>2546.467</ele>
        <time>2021-08-06T10:58:11Z</time>
      </trkpt>
      <trkpt lat="42.61507" lon="1.73679">
        <ele>2546.467</ele>
        <time>2021-08-06T10:58:13Z</time>
      </trkpt>
      <trkpt lat="42.61507" lon="1.73679">
        <ele>2546.469</ele>
        <time>2021-08-06T10:58:15Z</time>
      </trkpt>
      <trkpt lat="42.61507" lon="1.73679">
        <ele>2546.474</ele>
        <time>2021-08-06T10:58:17Z</time>
      </trkpt>
      <trkpt lat="42.61507" lon="1.73679">
        <ele>2546.478</ele>
        <time>2021-08-06T10:58:19Z</time>
      </trkpt>
      <trkpt lat="42.61507" lon="1.73679">
        <ele>2546.48</ele>
        <time>2021-08-06T10:58:21Z</time>
      </trkpt>
      <trkpt lat="42.61506" lon="1.73679">
        <ele>2546.476</ele>
        <time>2021-08-06T10:58:23Z</time>
      </trkpt>
      <trkpt lat="42.61506" lon="1.73679">
        <ele>2546.475</ele>
        <time>2021-08-06T10:58:25Z</time>
      </trkpt>
      <trkpt lat="42.61506" lon="1.73679">
        <ele>2546.472</ele>
        <time>2021-08-06T10:58:27Z</time>
      </trkpt>
      <trkpt lat="42.61506" lon="1.73679">
        <ele>2546.474</ele>
        <time>2021-08-06T10:58:29Z</time>
      </trkpt>
      <trkpt lat="42.61506" lon="1.73679">
        <ele>2546.473</ele>
        <time>2021-08-06T10:58:31Z</time>
      </trkpt>
      <trkpt lat="42.61506" lon="1.73679">
        <ele>2546.467</ele>
        <time>2021-08-06T10:58:33Z</time>
      </trkpt>
      <trkpt lat="42.61506" lon="1.73679">
        <ele>2546.465</ele>
        <time>2021-08-06T10:58:35Z</time>
      </trkpt>
      <trkpt lat="42.61506" lon="1.73679">
        <ele>2546.468</ele>
        <time>2021-08-06T10:58:37Z</time>
      </trkpt>
      <trkpt lat="42.61506" lon="1.73679">
        <ele>2546.469</ele>
        <time>2021-08-06T10:58:39Z</time>
      </trkpt>
      <trkpt lat="42.61506" lon="1.73679">
        <ele>2546.467</ele>
        <time>2021-08-06T10:58:41Z</time>
      </trkpt>
      <trkpt lat="42.61506" lon="1.73679">
        <ele>2546.465</ele>
        <time>2021-08-06T10:58:43Z</time>
      </trkpt>
      <trkpt lat="42.61506" lon="1.73679">
        <ele>2546.465</ele>
        <time>2021-08-06T10:58:45Z</time>
      </trkpt>
      <trkpt lat="42.61506" lon="1.73679">
        <ele>2546.464</ele>
        <time>2021-08-06T10:58:47Z</time>
      </trkpt>
      <trkpt lat="42.61506" lon="1.73679">
        <ele>2546.467</ele>
        <time>2021-08-06T10:58:49Z</time>
      </trkpt>
      <trkpt lat="42.61506" lon="1.73679">
        <ele>2546.468</ele>
        <time>2021-08-06T10:58:51Z</time>
      </trkpt>
      <trkpt lat="42.61506" lon="1.73679">
        <ele>2546.468</ele>
        <time>2021-08-06T10:58:53Z</time>
      </trkpt>
      <trkpt lat="42.61506" lon="1.73679">
        <ele>2546.467</ele>
        <time>2021-08-06T10:58:55Z</time>
      </trkpt>
      <trkpt lat="42.61506" lon="1.73679">
        <ele>2546.465</ele>
        <time>2021-08-06T10:58:57Z</time>
      </trkpt>
      <trkpt lat="42.61506" lon="1.73679">
        <ele>2546.465</ele>
        <time>2021-08-06T10:58:59Z</time>
      </trkpt>
      <trkpt lat="42.61506" lon="1.73679">
        <ele>2546.46</ele>
        <time>2021-08-06T10:59:01Z</time>
      </trkpt>
      <trkpt lat="42.61506" lon="1.73679">
        <ele>2546.465</ele>
        <time>2021-08-06T10:59:03Z</time>
      </trkpt>
      <trkpt lat="42.61506" lon="1.73679">
        <ele>2546.471</ele>
        <time>2021-08-06T10:59:05Z</time>
      </trkpt>
      <trkpt lat="42.61506" lon="1.73679">
        <ele>2546.473</ele>
        <time>2021-08-06T10:59:07Z</time>
      </trkpt>
      <trkpt lat="42.61506" lon="1.73679">
        <ele>2546.469</ele>
        <time>2021-08-06T10:59:09Z</time>
      </trkpt>
      <trkpt lat="42.61506" lon="1.73679">
        <ele>2546.474</ele>
        <time>2021-08-06T10:59:11Z</time>
      </trkpt>
      <trkpt lat="42.61506" lon="1.73679">
        <ele>2546.478</ele>
        <time>2021-08-06T10:59:13Z</time>
      </trkpt>
      <trkpt lat="42.61506" lon="1.73679">
        <ele>2546.481</ele>
        <time>2021-08-06T10:59:15Z</time>
      </trkpt>
      <trkpt lat="42.61506" lon="1.73679">
        <ele>2546.478</ele>
        <time>2021-08-06T10:59:17Z</time>
      </trkpt>
      <trkpt lat="42.61506" lon="1.73679">
        <ele>2546.488</ele>
        <time>2021-08-06T10:59:19Z</time>
      </trkpt>
      <trkpt lat="42.61506" lon="1.73679">
        <ele>2546.49</ele>
        <time>2021-08-06T10:59:21Z</time>
      </trkpt>
      <trkpt lat="42.61506" lon="1.73679">
        <ele>2546.493</ele>
        <time>2021-08-06T10:59:23Z</time>
      </trkpt>
      <trkpt lat="42.61506" lon="1.73679">
        <ele>2546.498</ele>
        <time>2021-08-06T10:59:25Z</time>
      </trkpt>
      <trkpt lat="42.61506" lon="1.73679">
        <ele>2546.494</ele>
        <time>2021-08-06T10:59:27Z</time>
      </trkpt>
      <trkpt lat="42.61506" lon="1.73679">
        <ele>2546.493</ele>
        <time>2021-08-06T10:59:29Z</time>
      </trkpt>
      <trkpt lat="42.61506" lon="1.73679">
        <ele>2546.499</ele>
        <time>2021-08-06T10:59:31Z</time>
      </trkpt>
      <trkpt lat="42.61506" lon="1.73679">
        <ele>2546.502</ele>
        <time>2021-08-06T10:59:33Z</time>
      </trkpt>
      <trkpt lat="42.61506" lon="1.73679">
        <ele>2546.502</ele>
        <time>2021-08-06T10:59:35Z</time>
      </trkpt>
      <trkpt lat="42.61506" lon="1.73679">
        <ele>2546.5</ele>
        <time>2021-08-06T10:59:37Z</time>
      </trkpt>
      <trkpt lat="42.61506" lon="1.73679">
        <ele>2546.503</ele>
        <time>2021-08-06T10:59:39Z</time>
      </trkpt>
      <trkpt lat="42.61506" lon="1.73679">
        <ele>2546.501</ele>
        <time>2021-08-06T10:59:41Z</time>
      </trkpt>
      <trkpt lat="42.61506" lon="1.73679">
        <ele>2546.507</ele>
        <time>2021-08-06T10:59:43Z</time>
      </trkpt>
      <trkpt lat="42.61506" lon="1.73679">
        <ele>2546.508</ele>
        <time>2021-08-06T10:59:45Z</time>
      </trkpt>
      <trkpt lat="42.61506" lon="1.73679">
        <ele>2546.506</ele>
        <time>2021-08-06T10:59:47Z</time>
      </trkpt>
      <trkpt lat="42.61506" lon="1.73679">
        <ele>2546.509</ele>
        <time>2021-08-06T10:59:49Z</time>
      </trkpt>
      <trkpt lat="42.61506" lon="1.73679">
        <ele>2546.512</ele>
        <time>2021-08-06T10:59:51Z</time>
      </trkpt>
      <trkpt lat="42.61506" lon="1.73679">
        <ele>2546.516</ele>
        <time>2021-08-06T10:59:53Z</time>
      </trkpt>
      <trkpt lat="42.61506" lon="1.73679">
        <ele>2546.516</ele>
        <time>2021-08-06T10:59:55Z</time>
      </trkpt>
      <trkpt lat="42.61506" lon="1.73679">
        <ele>2546.51</ele>
        <time>2021-08-06T10:59:57Z</time>
      </trkpt>
      <trkpt lat="42.61506" lon="1.73679">
        <ele>2546.508</ele>
        <time>2021-08-06T10:59:59Z</time>
      </trkpt>
      <trkpt lat="42.61506" lon="1.73679">
        <ele>2546.51</ele>
        <time>2021-08-06T11:00:01Z</time>
      </trkpt>
      <trkpt lat="42.61506" lon="1.73679">
        <ele>2546.513</ele>
        <time>2021-08-06T11:00:03Z</time>
      </trkpt>
      <trkpt lat="42.61506" lon="1.73679">
        <ele>2546.515</ele>
        <time>2021-08-06T11:00:05Z</time>
      </trkpt>
      <trkpt lat="42.61506" lon="1.73679">
        <ele>2546.521</ele>
        <time>2021-08-06T11:00:07Z</time>
      </trkpt>
      <trkpt lat="42.61506" lon="1.73679">
        <ele>2546.524</ele>
        <time>2021-08-06T11:00:09Z</time>
      </trkpt>
      <trkpt lat="42.61506" lon="1.73679">
        <ele>2546.527</ele>
        <time>2021-08-06T11:00:11Z</time>
      </trkpt>
      <trkpt lat="42.61506" lon="1.73679">
        <ele>2546.528</ele>
        <time>2021-08-06T11:00:13Z</time>
      </trkpt>
      <trkpt lat="42.61506" lon="1.73679">
        <ele>2546.53</ele>
        <time>2021-08-06T11:00:15Z</time>
      </trkpt>
      <trkpt lat="42.61506" lon="1.73679">
        <ele>2546.527</ele>
        <time>2021-08-06T11:00:17Z</time>
      </trkpt>
      <trkpt lat="42.61506" lon="1.73679">
        <ele>2546.53</ele>
        <time>2021-08-06T11:00:19Z</time>
      </trkpt>
      <trkpt lat="42.61506" lon="1.73679">
        <ele>2546.525</ele>
        <time>2021-08-06T11:00:21Z</time>
      </trkpt>
      <trkpt lat="42.61506" lon="1.73679">
        <ele>2546.523</ele>
        <time>2021-08-06T11:00:23Z</time>
      </trkpt>
      <trkpt lat="42.61506" lon="1.73679">
        <ele>2546.526</ele>
        <time>2021-08-06T11:00:25Z</time>
      </trkpt>
      <trkpt lat="42.61506" lon="1.73679">
        <ele>2546.523</ele>
        <time>2021-08-06T11:00:27Z</time>
      </trkpt>
      <trkpt lat="42.61506" lon="1.73679">
        <ele>2546.529</ele>
        <time>2021-08-06T11:00:29Z</time>
      </trkpt>
      <trkpt lat="42.61506" lon="1.73679">
        <ele>2546.528</ele>
        <time>2021-08-06T11:00:31Z</time>
      </trkpt>
      <trkpt lat="42.61506" lon="1.73679">
        <ele>2546.527</ele>
        <time>2021-08-06T11:00:33Z</time>
      </trkpt>
      <trkpt lat="42.61506" lon="1.73679">
        <ele>2546.526</ele>
        <time>2021-08-06T11:00:35Z</time>
      </trkpt>
      <trkpt lat="42.61506" lon="1.73679">
        <ele>2546.526</ele>
        <time>2021-08-06T11:00:37Z</time>
      </trkpt>
      <trkpt lat="42.61506" lon="1.73679">
        <ele>2546.53</ele>
        <time>2021-08-06T11:00:39Z</time>
      </trkpt>
      <trkpt lat="42.61506" lon="1.73679">
        <ele>2546.529</ele>
        <time>2021-08-06T11:00:41Z</time>
      </trkpt>
      <trkpt lat="42.61506" lon="1.73679">
        <ele>2546.527</ele>
        <time>2021-08-06T11:00:43Z</time>
      </trkpt>
      <trkpt lat="42.61506" lon="1.73679">
        <ele>2546.53</ele>
        <time>2021-08-06T11:00:45Z</time>
      </trkpt>
      <trkpt lat="42.61506" lon="1.73679">
        <ele>2546.54</ele>
        <time>2021-08-06T11:00:47Z</time>
      </trkpt>
      <trkpt lat="42.61506" lon="1.73679">
        <ele>2546.542</ele>
        <time>2021-08-06T11:00:49Z</time>
      </trkpt>
      <trkpt lat="42.61506" lon="1.73679">
        <ele>2546.543</ele>
        <time>2021-08-06T11:00:51Z</time>
      </trkpt>
      <trkpt lat="42.61506" lon="1.73679">
        <ele>2546.546</ele>
        <time>2021-08-06T11:00:53Z</time>
      </trkpt>
      <trkpt lat="42.61506" lon="1.73679">
        <ele>2546.545</ele>
        <time>2021-08-06T11:00:55Z</time>
      </trkpt>
      <trkpt lat="42.61506" lon="1.73679">
        <ele>2546.55</ele>
        <time>2021-08-06T11:00:57Z</time>
      </trkpt>
      <trkpt lat="42.61506" lon="1.73679">
        <ele>2546.549</ele>
        <time>2021-08-06T11:00:59Z</time>
      </trkpt>
      <trkpt lat="42.61506" lon="1.73679">
        <ele>2546.553</ele>
        <time>2021-08-06T11:01:01Z</time>
      </trkpt>
      <trkpt lat="42.61506" lon="1.73679">
        <ele>2546.551</ele>
        <time>2021-08-06T11:01:03Z</time>
      </trkpt>
      <trkpt lat="42.61506" lon="1.73679">
        <ele>2546.552</ele>
        <time>2021-08-06T11:01:05Z</time>
      </trkpt>
      <trkpt lat="42.61506" lon="1.73679">
        <ele>2546.553</ele>
        <time>2021-08-06T11:01:07Z</time>
      </trkpt>
      <trkpt lat="42.61506" lon="1.73679">
        <ele>2546.55</ele>
        <time>2021-08-06T11:01:09Z</time>
      </trkpt>
      <trkpt lat="42.61506" lon="1.73679">
        <ele>2546.55</ele>
        <time>2021-08-06T11:01:11Z</time>
      </trkpt>
      <trkpt lat="42.61506" lon="1.73679">
        <ele>2546.554</ele>
        <time>2021-08-06T11:01:13Z</time>
      </trkpt>
      <trkpt lat="42.61506" lon="1.73679">
        <ele>2546.554</ele>
        <time>2021-08-06T11:01:15Z</time>
      </trkpt>
      <trkpt lat="42.61506" lon="1.73679">
        <ele>2546.554</ele>
        <time>2021-08-06T11:01:17Z</time>
      </trkpt>
      <trkpt lat="42.61506" lon="1.73679">
        <ele>2546.546</ele>
        <time>2021-08-06T11:01:19Z</time>
      </trkpt>
      <trkpt lat="42.61506" lon="1.73679">
        <ele>2546.545</ele>
        <time>2021-08-06T11:01:21Z</time>
      </trkpt>
      <trkpt lat="42.61506" lon="1.73679">
        <ele>2546.545</ele>
        <time>2021-08-06T11:01:23Z</time>
      </trkpt>
      <trkpt lat="42.61506" lon="1.73679">
        <ele>2546.544</ele>
        <time>2021-08-06T11:01:25Z</time>
      </trkpt>
      <trkpt lat="42.61506" lon="1.73679">
        <ele>2546.536</ele>
        <time>2021-08-06T11:01:27Z</time>
      </trkpt>
      <trkpt lat="42.61506" lon="1.73679">
        <ele>2546.533</ele>
        <time>2021-08-06T11:01:29Z</time>
      </trkpt>
      <trkpt lat="42.61506" lon="1.73679">
        <ele>2546.532</ele>
        <time>2021-08-06T11:01:31Z</time>
      </trkpt>
      <trkpt lat="42.61506" lon="1.73679">
        <ele>2546.532</ele>
        <time>2021-08-06T11:01:33Z</time>
      </trkpt>
      <trkpt lat="42.61506" lon="1.73679">
        <ele>2546.53</ele>
        <time>2021-08-06T11:01:35Z</time>
      </trkpt>
      <trkpt lat="42.61506" lon="1.73679">
        <ele>2546.529</ele>
        <time>2021-08-06T11:01:37Z</time>
      </trkpt>
      <trkpt lat="42.61506" lon="1.73679">
        <ele>2546.525</ele>
        <time>2021-08-06T11:01:39Z</time>
      </trkpt>
      <trkpt lat="42.61506" lon="1.73679">
        <ele>2546.52</ele>
        <time>2021-08-06T11:01:41Z</time>
      </trkpt>
      <trkpt lat="42.61506" lon="1.73679">
        <ele>2546.52</ele>
        <time>2021-08-06T11:01:43Z</time>
      </trkpt>
      <trkpt lat="42.61506" lon="1.73679">
        <ele>2546.521</ele>
        <time>2021-08-06T11:01:45Z</time>
      </trkpt>
      <trkpt lat="42.61506" lon="1.73679">
        <ele>2546.523</ele>
        <time>2021-08-06T11:01:47Z</time>
      </trkpt>
      <trkpt lat="42.61506" lon="1.73679">
        <ele>2546.52</ele>
        <time>2021-08-06T11:01:49Z</time>
      </trkpt>
      <trkpt lat="42.61506" lon="1.73679">
        <ele>2546.524</ele>
        <time>2021-08-06T11:01:51Z</time>
      </trkpt>
      <trkpt lat="42.61506" lon="1.73679">
        <ele>2546.527</ele>
        <time>2021-08-06T11:01:53Z</time>
      </trkpt>
      <trkpt lat="42.61506" lon="1.73679">
        <ele>2546.521</ele>
        <time>2021-08-06T11:01:55Z</time>
      </trkpt>
      <trkpt lat="42.61506" lon="1.73679">
        <ele>2546.523</ele>
        <time>2021-08-06T11:01:57Z</time>
      </trkpt>
      <trkpt lat="42.61506" lon="1.73679">
        <ele>2546.52</ele>
        <time>2021-08-06T11:01:59Z</time>
      </trkpt>
      <trkpt lat="42.61506" lon="1.73679">
        <ele>2546.516</ele>
        <time>2021-08-06T11:02:01Z</time>
      </trkpt>
      <trkpt lat="42.61506" lon="1.73679">
        <ele>2546.518</ele>
        <time>2021-08-06T11:02:03Z</time>
      </trkpt>
      <trkpt lat="42.61506" lon="1.73679">
        <ele>2546.519</ele>
        <time>2021-08-06T11:02:05Z</time>
      </trkpt>
      <trkpt lat="42.61506" lon="1.73679">
        <ele>2546.516</ele>
        <time>2021-08-06T11:02:07Z</time>
      </trkpt>
      <trkpt lat="42.61506" lon="1.73679">
        <ele>2546.514</ele>
        <time>2021-08-06T11:02:09Z</time>
      </trkpt>
      <trkpt lat="42.61506" lon="1.73679">
        <ele>2546.517</ele>
        <time>2021-08-06T11:02:11Z</time>
      </trkpt>
      <trkpt lat="42.61506" lon="1.73679">
        <ele>2546.52</ele>
        <time>2021-08-06T11:02:13Z</time>
      </trkpt>
      <trkpt lat="42.61506" lon="1.73679">
        <ele>2546.514</ele>
        <time>2021-08-06T11:02:15Z</time>
      </trkpt>
      <trkpt lat="42.61506" lon="1.73679">
        <ele>2546.518</ele>
        <time>2021-08-06T11:02:17Z</time>
      </trkpt>
      <trkpt lat="42.61506" lon="1.73679">
        <ele>2546.517</ele>
        <time>2021-08-06T11:02:19Z</time>
      </trkpt>
      <trkpt lat="42.61506" lon="1.73679">
        <ele>2546.516</ele>
        <time>2021-08-06T11:02:21Z</time>
      </trkpt>
      <trkpt lat="42.61506" lon="1.73679">
        <ele>2546.515</ele>
        <time>2021-08-06T11:02:23Z</time>
      </trkpt>
      <trkpt lat="42.61506" lon="1.73679">
        <ele>2546.517</ele>
        <time>2021-08-06T11:02:25Z</time>
      </trkpt>
      <trkpt lat="42.61506" lon="1.73679">
        <ele>2546.522</ele>
        <time>2021-08-06T11:02:27Z</time>
      </trkpt>
      <trkpt lat="42.61506" lon="1.73679">
        <ele>2546.519</ele>
        <time>2021-08-06T11:02:29Z</time>
      </trkpt>
      <trkpt lat="42.61506" lon="1.73679">
        <ele>2546.521</ele>
        <time>2021-08-06T11:02:31Z</time>
      </trkpt>
      <trkpt lat="42.61506" lon="1.73679">
        <ele>2546.525</ele>
        <time>2021-08-06T11:02:33Z</time>
      </trkpt>
      <trkpt lat="42.61506" lon="1.73679">
        <ele>2546.522</ele>
        <time>2021-08-06T11:02:35Z</time>
      </trkpt>
      <trkpt lat="42.61506" lon="1.73679">
        <ele>2546.528</ele>
        <time>2021-08-06T11:02:37Z</time>
      </trkpt>
      <trkpt lat="42.61506" lon="1.73679">
        <ele>2546.528</ele>
        <time>2021-08-06T11:02:39Z</time>
      </trkpt>
      <trkpt lat="42.61506" lon="1.73679">
        <ele>2546.527</ele>
        <time>2021-08-06T11:02:41Z</time>
      </trkpt>
      <trkpt lat="42.61506" lon="1.73679">
        <ele>2546.53</ele>
        <time>2021-08-06T11:02:43Z</time>
      </trkpt>
      <trkpt lat="42.61506" lon="1.73679">
        <ele>2546.527</ele>
        <time>2021-08-06T11:02:45Z</time>
      </trkpt>
      <trkpt lat="42.61506" lon="1.73679">
        <ele>2546.532</ele>
        <time>2021-08-06T11:02:47Z</time>
      </trkpt>
      <trkpt lat="42.61506" lon="1.73679">
        <ele>2546.53</ele>
        <time>2021-08-06T11:02:49Z</time>
      </trkpt>
      <trkpt lat="42.61506" lon="1.73679">
        <ele>2546.53</ele>
        <time>2021-08-06T11:02:51Z</time>
      </trkpt>
      <trkpt lat="42.61506" lon="1.73679">
        <ele>2546.535</ele>
        <time>2021-08-06T11:02:53Z</time>
      </trkpt>
      <trkpt lat="42.61506" lon="1.73679">
        <ele>2546.53</ele>
        <time>2021-08-06T11:02:55Z</time>
      </trkpt>
      <trkpt lat="42.61506" lon="1.73679">
        <ele>2546.527</ele>
        <time>2021-08-06T11:02:57Z</time>
      </trkpt>
      <trkpt lat="42.61506" lon="1.73679">
        <ele>2546.528</ele>
        <time>2021-08-06T11:02:59Z</time>
      </trkpt>
      <trkpt lat="42.61506" lon="1.73679">
        <ele>2546.521</ele>
        <time>2021-08-06T11:03:01Z</time>
      </trkpt>
      <trkpt lat="42.61506" lon="1.73679">
        <ele>2546.522</ele>
        <time>2021-08-06T11:03:03Z</time>
      </trkpt>
      <trkpt lat="42.61506" lon="1.73679">
        <ele>2546.521</ele>
        <time>2021-08-06T11:03:05Z</time>
      </trkpt>
      <trkpt lat="42.61506" lon="1.73679">
        <ele>2546.525</ele>
        <time>2021-08-06T11:03:07Z</time>
      </trkpt>
      <trkpt lat="42.61506" lon="1.73679">
        <ele>2546.529</ele>
        <time>2021-08-06T11:03:09Z</time>
      </trkpt>
      <trkpt lat="42.61506" lon="1.73679">
        <ele>2546.527</ele>
        <time>2021-08-06T11:03:11Z</time>
      </trkpt>
      <trkpt lat="42.61506" lon="1.73679">
        <ele>2546.528</ele>
        <time>2021-08-06T11:03:13Z</time>
      </trkpt>
      <trkpt lat="42.61506" lon="1.73679">
        <ele>2546.526</ele>
        <time>2021-08-06T11:03:15Z</time>
      </trkpt>
      <trkpt lat="42.61506" lon="1.73679">
        <ele>2546.527</ele>
        <time>2021-08-06T11:03:17Z</time>
      </trkpt>
      <trkpt lat="42.61506" lon="1.73679">
        <ele>2546.527</ele>
        <time>2021-08-06T11:03:19Z</time>
      </trkpt>
      <trkpt lat="42.61506" lon="1.73679">
        <ele>2546.53</ele>
        <time>2021-08-06T11:03:21Z</time>
      </trkpt>
      <trkpt lat="42.61506" lon="1.73679">
        <ele>2546.531</ele>
        <time>2021-08-06T11:03:23Z</time>
      </trkpt>
      <trkpt lat="42.61506" lon="1.73679">
        <ele>2546.532</ele>
        <time>2021-08-06T11:03:25Z</time>
      </trkpt>
      <trkpt lat="42.61506" lon="1.73679">
        <ele>2546.53</ele>
        <time>2021-08-06T11:03:27Z</time>
      </trkpt>
      <trkpt lat="42.61506" lon="1.73679">
        <ele>2546.53</ele>
        <time>2021-08-06T11:03:29Z</time>
      </trkpt>
      <trkpt lat="42.61506" lon="1.73679">
        <ele>2546.531</ele>
        <time>2021-08-06T11:03:31Z</time>
      </trkpt>
      <trkpt lat="42.61506" lon="1.73679">
        <ele>2546.533</ele>
        <time>2021-08-06T11:03:33Z</time>
      </trkpt>
      <trkpt lat="42.61506" lon="1.73679">
        <ele>2546.531</ele>
        <time>2021-08-06T11:03:35Z</time>
      </trkpt>
      <trkpt lat="42.61506" lon="1.73679">
        <ele>2546.527</ele>
        <time>2021-08-06T11:03:37Z</time>
      </trkpt>
      <trkpt lat="42.61506" lon="1.73679">
        <ele>2546.529</ele>
        <time>2021-08-06T11:03:39Z</time>
      </trkpt>
      <trkpt lat="42.61506" lon="1.73679">
        <ele>2546.528</ele>
        <time>2021-08-06T11:03:41Z</time>
      </trkpt>
      <trkpt lat="42.61506" lon="1.73679">
        <ele>2546.527</ele>
        <time>2021-08-06T11:03:43Z</time>
      </trkpt>
      <trkpt lat="42.61506" lon="1.73679">
        <ele>2546.525</ele>
        <time>2021-08-06T11:03:45Z</time>
      </trkpt>
      <trkpt lat="42.61506" lon="1.73679">
        <ele>2546.524</ele>
        <time>2021-08-06T11:03:47Z</time>
      </trkpt>
      <trkpt lat="42.61506" lon="1.73679">
        <ele>2546.524</ele>
        <time>2021-08-06T11:03:49Z</time>
      </trkpt>
      <trkpt lat="42.61506" lon="1.73679">
        <ele>2546.523</ele>
        <time>2021-08-06T11:03:51Z</time>
      </trkpt>
      <trkpt lat="42.61506" lon="1.73679">
        <ele>2546.525</ele>
        <time>2021-08-06T11:03:53Z</time>
      </trkpt>
      <trkpt lat="42.61506" lon="1.73679">
        <ele>2546.524</ele>
        <time>2021-08-06T11:03:55Z</time>
      </trkpt>
      <trkpt lat="42.61506" lon="1.73679">
        <ele>2546.523</ele>
        <time>2021-08-06T11:03:57Z</time>
      </trkpt>
      <trkpt lat="42.61506" lon="1.73679">
        <ele>2546.521</ele>
        <time>2021-08-06T11:03:59Z</time>
      </trkpt>
      <trkpt lat="42.61506" lon="1.73679">
        <ele>2546.518</ele>
        <time>2021-08-06T11:04:01Z</time>
      </trkpt>
      <trkpt lat="42.61506" lon="1.73679">
        <ele>2546.516</ele>
        <time>2021-08-06T11:04:03Z</time>
      </trkpt>
      <trkpt lat="42.61506" lon="1.73679">
        <ele>2546.516</ele>
        <time>2021-08-06T11:04:05Z</time>
      </trkpt>
      <trkpt lat="42.61506" lon="1.73679">
        <ele>2546.514</ele>
        <time>2021-08-06T11:04:07Z</time>
      </trkpt>
      <trkpt lat="42.61506" lon="1.73679">
        <ele>2546.513</ele>
        <time>2021-08-06T11:04:09Z</time>
      </trkpt>
      <trkpt lat="42.61506" lon="1.73679">
        <ele>2546.512</ele>
        <time>2021-08-06T11:04:11Z</time>
      </trkpt>
      <trkpt lat="42.61506" lon="1.73679">
        <ele>2546.509</ele>
        <time>2021-08-06T11:04:13Z</time>
      </trkpt>
      <trkpt lat="42.61506" lon="1.73679">
        <ele>2546.506</ele>
        <time>2021-08-06T11:04:15Z</time>
      </trkpt>
      <trkpt lat="42.61506" lon="1.73679">
        <ele>2546.507</ele>
        <time>2021-08-06T11:04:17Z</time>
      </trkpt>
      <trkpt lat="42.61506" lon="1.73679">
        <ele>2546.505</ele>
        <time>2021-08-06T11:04:19Z</time>
      </trkpt>
      <trkpt lat="42.61506" lon="1.73679">
        <ele>2546.505</ele>
        <time>2021-08-06T11:04:21Z</time>
      </trkpt>
      <trkpt lat="42.61506" lon="1.73679">
        <ele>2546.503</ele>
        <time>2021-08-06T11:04:23Z</time>
      </trkpt>
      <trkpt lat="42.61506" lon="1.73679">
        <ele>2546.501</ele>
        <time>2021-08-06T11:04:25Z</time>
      </trkpt>
      <trkpt lat="42.61506" lon="1.73679">
        <ele>2546.503</ele>
        <time>2021-08-06T11:04:27Z</time>
      </trkpt>
      <trkpt lat="42.61506" lon="1.73679">
        <ele>2546.501</ele>
        <time>2021-08-06T11:04:29Z</time>
      </trkpt>
      <trkpt lat="42.61506" lon="1.73679">
        <ele>2546.499</ele>
        <time>2021-08-06T11:04:31Z</time>
      </trkpt>
      <trkpt lat="42.61506" lon="1.73679">
        <ele>2546.499</ele>
        <time>2021-08-06T11:04:33Z</time>
      </trkpt>
      <trkpt lat="42.61506" lon="1.73679">
        <ele>2546.5</ele>
        <time>2021-08-06T11:04:35Z</time>
      </trkpt>
      <trkpt lat="42.61506" lon="1.73679">
        <ele>2546.496</ele>
        <time>2021-08-06T11:04:37Z</time>
      </trkpt>
      <trkpt lat="42.61506" lon="1.73679">
        <ele>2546.497</ele>
        <time>2021-08-06T11:04:39Z</time>
      </trkpt>
      <trkpt lat="42.61506" lon="1.73679">
        <ele>2546.49</ele>
        <time>2021-08-06T11:04:41Z</time>
      </trkpt>
      <trkpt lat="42.61506" lon="1.73679">
        <ele>2546.491</ele>
        <time>2021-08-06T11:04:43Z</time>
      </trkpt>
      <trkpt lat="42.61506" lon="1.73679">
        <ele>2546.486</ele>
        <time>2021-08-06T11:04:45Z</time>
      </trkpt>
      <trkpt lat="42.61506" lon="1.73679">
        <ele>2546.487</ele>
        <time>2021-08-06T11:04:47Z</time>
      </trkpt>
      <trkpt lat="42.61506" lon="1.73679">
        <ele>2546.488</ele>
        <time>2021-08-06T11:04:49Z</time>
      </trkpt>
      <trkpt lat="42.61506" lon="1.73679">
        <ele>2546.487</ele>
        <time>2021-08-06T11:04:51Z</time>
      </trkpt>
      <trkpt lat="42.61506" lon="1.73679">
        <ele>2546.486</ele>
        <time>2021-08-06T11:04:53Z</time>
      </trkpt>
      <trkpt lat="42.61506" lon="1.73679">
        <ele>2546.486</ele>
        <time>2021-08-06T11:04:55Z</time>
      </trkpt>
      <trkpt lat="42.61506" lon="1.73679">
        <ele>2546.487</ele>
        <time>2021-08-06T11:04:57Z</time>
      </trkpt>
      <trkpt lat="42.61506" lon="1.73679">
        <ele>2546.486</ele>
        <time>2021-08-06T11:04:59Z</time>
      </trkpt>
      <trkpt lat="42.61506" lon="1.73679">
        <ele>2546.486</ele>
        <time>2021-08-06T11:05:01Z</time>
      </trkpt>
      <trkpt lat="42.61506" lon="1.73679">
        <ele>2546.491</ele>
        <time>2021-08-06T11:05:03Z</time>
      </trkpt>
      <trkpt lat="42.61506" lon="1.73679">
        <ele>2546.491</ele>
        <time>2021-08-06T11:05:05Z</time>
      </trkpt>
      <trkpt lat="42.61506" lon="1.73679">
        <ele>2546.493</ele>
        <time>2021-08-06T11:05:07Z</time>
      </trkpt>
      <trkpt lat="42.61506" lon="1.73679">
        <ele>2546.49</ele>
        <time>2021-08-06T11:05:09Z</time>
      </trkpt>
      <trkpt lat="42.61506" lon="1.73679">
        <ele>2546.494</ele>
        <time>2021-08-06T11:05:11Z</time>
      </trkpt>
      <trkpt lat="42.61506" lon="1.73679">
        <ele>2546.501</ele>
        <time>2021-08-06T11:05:13Z</time>
      </trkpt>
      <trkpt lat="42.61506" lon="1.73679">
        <ele>2546.503</ele>
        <time>2021-08-06T11:05:15Z</time>
      </trkpt>
      <trkpt lat="42.61506" lon="1.73679">
        <ele>2546.503</ele>
        <time>2021-08-06T11:05:17Z</time>
      </trkpt>
      <trkpt lat="42.61506" lon="1.73679">
        <ele>2546.501</ele>
        <time>2021-08-06T11:05:19Z</time>
      </trkpt>
      <trkpt lat="42.61506" lon="1.73679">
        <ele>2546.503</ele>
        <time>2021-08-06T11:05:21Z</time>
      </trkpt>
      <trkpt lat="42.61506" lon="1.73679">
        <ele>2546.502</ele>
        <time>2021-08-06T11:05:23Z</time>
      </trkpt>
      <trkpt lat="42.61506" lon="1.73679">
        <ele>2546.501</ele>
        <time>2021-08-06T11:05:25Z</time>
      </trkpt>
      <trkpt lat="42.61506" lon="1.73679">
        <ele>2546.501</ele>
        <time>2021-08-06T11:05:27Z</time>
      </trkpt>
      <trkpt lat="42.61506" lon="1.73679">
        <ele>2546.503</ele>
        <time>2021-08-06T11:05:29Z</time>
      </trkpt>
      <trkpt lat="42.61506" lon="1.73679">
        <ele>2546.5</ele>
        <time>2021-08-06T11:05:31Z</time>
      </trkpt>
      <trkpt lat="42.61506" lon="1.73679">
        <ele>2546.499</ele>
        <time>2021-08-06T11:05:33Z</time>
      </trkpt>
      <trkpt lat="42.61506" lon="1.73679">
        <ele>2546.497</ele>
        <time>2021-08-06T11:05:35Z</time>
      </trkpt>
      <trkpt lat="42.61506" lon="1.73679">
        <ele>2546.495</ele>
        <time>2021-08-06T11:05:37Z</time>
      </trkpt>
      <trkpt lat="42.61506" lon="1.73679">
        <ele>2546.498</ele>
        <time>2021-08-06T11:05:39Z</time>
      </trkpt>
      <trkpt lat="42.61506" lon="1.73679">
        <ele>2546.497</ele>
        <time>2021-08-06T11:05:41Z</time>
      </trkpt>
      <trkpt lat="42.61506" lon="1.73679">
        <ele>2546.502</ele>
        <time>2021-08-06T11:05:43Z</time>
      </trkpt>
      <trkpt lat="42.61506" lon="1.73679">
        <ele>2546.499</ele>
        <time>2021-08-06T11:05:45Z</time>
      </trkpt>
      <trkpt lat="42.61506" lon="1.73679">
        <ele>2546.497</ele>
        <time>2021-08-06T11:05:47Z</time>
      </trkpt>
      <trkpt lat="42.61506" lon="1.73679">
        <ele>2546.495</ele>
        <time>2021-08-06T11:05:49Z</time>
      </trkpt>
      <trkpt lat="42.61506" lon="1.73679">
        <ele>2546.498</ele>
        <time>2021-08-06T11:05:51Z</time>
      </trkpt>
      <trkpt lat="42.61506" lon="1.73679">
        <ele>2546.493</ele>
        <time>2021-08-06T11:05:53Z</time>
      </trkpt>
      <trkpt lat="42.61506" lon="1.73679">
        <ele>2546.489</ele>
        <time>2021-08-06T11:05:55Z</time>
      </trkpt>
      <trkpt lat="42.61506" lon="1.73679">
        <ele>2546.485</ele>
        <time>2021-08-06T11:05:57Z</time>
      </trkpt>
      <trkpt lat="42.61506" lon="1.73679">
        <ele>2546.478</ele>
        <time>2021-08-06T11:05:59Z</time>
      </trkpt>
      <trkpt lat="42.61506" lon="1.73679">
        <ele>2546.473</ele>
        <time>2021-08-06T11:06:01Z</time>
      </trkpt>
      <trkpt lat="42.61506" lon="1.73679">
        <ele>2546.475</ele>
        <time>2021-08-06T11:06:03Z</time>
      </trkpt>
      <trkpt lat="42.61506" lon="1.73679">
        <ele>2546.477</ele>
        <time>2021-08-06T11:06:05Z</time>
      </trkpt>
      <trkpt lat="42.61506" lon="1.73679">
        <ele>2546.474</ele>
        <time>2021-08-06T11:06:07Z</time>
      </trkpt>
      <trkpt lat="42.61506" lon="1.73679">
        <ele>2546.474</ele>
        <time>2021-08-06T11:06:09Z</time>
      </trkpt>
      <trkpt lat="42.61506" lon="1.73679">
        <ele>2546.472</ele>
        <time>2021-08-06T11:06:11Z</time>
      </trkpt>
      <trkpt lat="42.61506" lon="1.73679">
        <ele>2546.474</ele>
        <time>2021-08-06T11:06:13Z</time>
      </trkpt>
      <trkpt lat="42.61506" lon="1.73679">
        <ele>2546.472</ele>
        <time>2021-08-06T11:06:15Z</time>
      </trkpt>
      <trkpt lat="42.61506" lon="1.73679">
        <ele>2546.471</ele>
        <time>2021-08-06T11:06:17Z</time>
      </trkpt>
      <trkpt lat="42.61506" lon="1.73679">
        <ele>2546.471</ele>
        <time>2021-08-06T11:06:19Z</time>
      </trkpt>
      <trkpt lat="42.61506" lon="1.73679">
        <ele>2546.468</ele>
        <time>2021-08-06T11:06:21Z</time>
      </trkpt>
      <trkpt lat="42.61506" lon="1.73679">
        <ele>2546.468</ele>
        <time>2021-08-06T11:06:23Z</time>
      </trkpt>
      <trkpt lat="42.61506" lon="1.73679">
        <ele>2546.468</ele>
        <time>2021-08-06T11:06:25Z</time>
      </trkpt>
      <trkpt lat="42.61506" lon="1.73679">
        <ele>2546.468</ele>
        <time>2021-08-06T11:06:27Z</time>
      </trkpt>
      <trkpt lat="42.61506" lon="1.73679">
        <ele>2546.469</ele>
        <time>2021-08-06T11:06:29Z</time>
      </trkpt>
      <trkpt lat="42.61506" lon="1.73679">
        <ele>2546.466</ele>
        <time>2021-08-06T11:06:31Z</time>
      </trkpt>
      <trkpt lat="42.61506" lon="1.73679">
        <ele>2546.469</ele>
        <time>2021-08-06T11:06:33Z</time>
      </trkpt>
      <trkpt lat="42.61506" lon="1.73679">
        <ele>2546.473</ele>
        <time>2021-08-06T11:06:35Z</time>
      </trkpt>
      <trkpt lat="42.61506" lon="1.73679">
        <ele>2546.473</ele>
        <time>2021-08-06T11:06:37Z</time>
      </trkpt>
      <trkpt lat="42.61506" lon="1.73679">
        <ele>2546.475</ele>
        <time>2021-08-06T11:06:39Z</time>
      </trkpt>
      <trkpt lat="42.61506" lon="1.73679">
        <ele>2546.472</ele>
        <time>2021-08-06T11:06:41Z</time>
      </trkpt>
      <trkpt lat="42.61506" lon="1.73679">
        <ele>2546.477</ele>
        <time>2021-08-06T11:06:43Z</time>
      </trkpt>
      <trkpt lat="42.61506" lon="1.73679">
        <ele>2546.477</ele>
        <time>2021-08-06T11:06:45Z</time>
      </trkpt>
      <trkpt lat="42.61506" lon="1.73679">
        <ele>2546.475</ele>
        <time>2021-08-06T11:06:47Z</time>
      </trkpt>
      <trkpt lat="42.61506" lon="1.73679">
        <ele>2546.479</ele>
        <time>2021-08-06T11:06:49Z</time>
      </trkpt>
      <trkpt lat="42.61506" lon="1.73679">
        <ele>2546.479</ele>
        <time>2021-08-06T11:06:51Z</time>
      </trkpt>
      <trkpt lat="42.61506" lon="1.73679">
        <ele>2546.478</ele>
        <time>2021-08-06T11:06:53Z</time>
      </trkpt>
      <trkpt lat="42.61506" lon="1.73679">
        <ele>2546.479</ele>
        <time>2021-08-06T11:06:55Z</time>
      </trkpt>
      <trkpt lat="42.61506" lon="1.73679">
        <ele>2546.485</ele>
        <time>2021-08-06T11:06:57Z</time>
      </trkpt>
      <trkpt lat="42.61506" lon="1.73679">
        <ele>2546.482</ele>
        <time>2021-08-06T11:06:59Z</time>
      </trkpt>
      <trkpt lat="42.61506" lon="1.73679">
        <ele>2546.48</ele>
        <time>2021-08-06T11:07:01Z</time>
      </trkpt>
      <trkpt lat="42.61506" lon="1.73679">
        <ele>2546.479</ele>
        <time>2021-08-06T11:07:03Z</time>
      </trkpt>
      <trkpt lat="42.61506" lon="1.73679">
        <ele>2546.481</ele>
        <time>2021-08-06T11:07:05Z</time>
      </trkpt>
      <trkpt lat="42.61506" lon="1.73679">
        <ele>2546.481</ele>
        <time>2021-08-06T11:07:07Z</time>
      </trkpt>
      <trkpt lat="42.61506" lon="1.73679">
        <ele>2546.48</ele>
        <time>2021-08-06T11:07:09Z</time>
      </trkpt>
      <trkpt lat="42.61506" lon="1.73679">
        <ele>2546.478</ele>
        <time>2021-08-06T11:07:11Z</time>
      </trkpt>
      <trkpt lat="42.61506" lon="1.73679">
        <ele>2546.478</ele>
        <time>2021-08-06T11:07:13Z</time>
      </trkpt>
      <trkpt lat="42.61506" lon="1.73679">
        <ele>2546.479</ele>
        <time>2021-08-06T11:07:15Z</time>
      </trkpt>
      <trkpt lat="42.61506" lon="1.73679">
        <ele>2546.476</ele>
        <time>2021-08-06T11:07:17Z</time>
      </trkpt>
      <trkpt lat="42.61506" lon="1.73679">
        <ele>2546.474</ele>
        <time>2021-08-06T11:07:19Z</time>
      </trkpt>
      <trkpt lat="42.61506" lon="1.73679">
        <ele>2546.469</ele>
        <time>2021-08-06T11:07:21Z</time>
      </trkpt>
      <trkpt lat="42.61506" lon="1.73679">
        <ele>2546.469</ele>
        <time>2021-08-06T11:07:23Z</time>
      </trkpt>
      <trkpt lat="42.61506" lon="1.73679">
        <ele>2546.473</ele>
        <time>2021-08-06T11:07:25Z</time>
      </trkpt>
      <trkpt lat="42.61506" lon="1.73679">
        <ele>2546.472</ele>
        <time>2021-08-06T11:07:27Z</time>
      </trkpt>
      <trkpt lat="42.61506" lon="1.73679">
        <ele>2546.471</ele>
        <time>2021-08-06T11:07:29Z</time>
      </trkpt>
      <trkpt lat="42.61506" lon="1.73679">
        <ele>2546.468</ele>
        <time>2021-08-06T11:07:31Z</time>
      </trkpt>
      <trkpt lat="42.61506" lon="1.73679">
        <ele>2546.464</ele>
        <time>2021-08-06T11:07:33Z</time>
      </trkpt>
      <trkpt lat="42.61506" lon="1.73679">
        <ele>2546.461</ele>
        <time>2021-08-06T11:07:35Z</time>
      </trkpt>
      <trkpt lat="42.61506" lon="1.73679">
        <ele>2546.459</ele>
        <time>2021-08-06T11:07:37Z</time>
      </trkpt>
      <trkpt lat="42.61506" lon="1.73679">
        <ele>2546.462</ele>
        <time>2021-08-06T11:07:39Z</time>
      </trkpt>
      <trkpt lat="42.61506" lon="1.73679">
        <ele>2546.462</ele>
        <time>2021-08-06T11:07:41Z</time>
      </trkpt>
      <trkpt lat="42.61506" lon="1.73679">
        <ele>2546.457</ele>
        <time>2021-08-06T11:07:43Z</time>
      </trkpt>
      <trkpt lat="42.61506" lon="1.73679">
        <ele>2546.459</ele>
        <time>2021-08-06T11:07:45Z</time>
      </trkpt>
      <trkpt lat="42.61506" lon="1.73679">
        <ele>2546.459</ele>
        <time>2021-08-06T11:07:47Z</time>
      </trkpt>
      <trkpt lat="42.61506" lon="1.73679">
        <ele>2546.46</ele>
        <time>2021-08-06T11:07:49Z</time>
      </trkpt>
      <trkpt lat="42.61506" lon="1.73679">
        <ele>2546.459</ele>
        <time>2021-08-06T11:07:51Z</time>
      </trkpt>
      <trkpt lat="42.61506" lon="1.73679">
        <ele>2546.456</ele>
        <time>2021-08-06T11:07:53Z</time>
      </trkpt>
      <trkpt lat="42.61506" lon="1.73679">
        <ele>2546.456</ele>
        <time>2021-08-06T11:07:55Z</time>
      </trkpt>
      <trkpt lat="42.61506" lon="1.73679">
        <ele>2546.457</ele>
        <time>2021-08-06T11:07:57Z</time>
      </trkpt>
      <trkpt lat="42.61506" lon="1.73679">
        <ele>2546.46</ele>
        <time>2021-08-06T11:07:59Z</time>
      </trkpt>
      <trkpt lat="42.61506" lon="1.73679">
        <ele>2546.463</ele>
        <time>2021-08-06T11:08:01Z</time>
      </trkpt>
      <trkpt lat="42.61506" lon="1.73679">
        <ele>2546.462</ele>
        <time>2021-08-06T11:08:03Z</time>
      </trkpt>
      <trkpt lat="42.61506" lon="1.73679">
        <ele>2546.459</ele>
        <time>2021-08-06T11:08:05Z</time>
      </trkpt>
      <trkpt lat="42.61506" lon="1.73679">
        <ele>2546.46</ele>
        <time>2021-08-06T11:08:07Z</time>
      </trkpt>
      <trkpt lat="42.61506" lon="1.73679">
        <ele>2546.459</ele>
        <time>2021-08-06T11:08:09Z</time>
      </trkpt>
      <trkpt lat="42.61506" lon="1.73679">
        <ele>2546.459</ele>
        <time>2021-08-06T11:08:11Z</time>
      </trkpt>
      <trkpt lat="42.61506" lon="1.73679">
        <ele>2546.462</ele>
        <time>2021-08-06T11:08:13Z</time>
      </trkpt>
      <trkpt lat="42.61506" lon="1.73679">
        <ele>2546.462</ele>
        <time>2021-08-06T11:08:15Z</time>
      </trkpt>
      <trkpt lat="42.61506" lon="1.73679">
        <ele>2546.466</ele>
        <time>2021-08-06T11:08:17Z</time>
      </trkpt>
      <trkpt lat="42.61506" lon="1.73679">
        <ele>2546.463</ele>
        <time>2021-08-06T11:08:19Z</time>
      </trkpt>
      <trkpt lat="42.61506" lon="1.73679">
        <ele>2546.47</ele>
        <time>2021-08-06T11:08:21Z</time>
      </trkpt>
      <trkpt lat="42.61506" lon="1.73679">
        <ele>2546.472</ele>
        <time>2021-08-06T11:08:23Z</time>
      </trkpt>
      <trkpt lat="42.61506" lon="1.73679">
        <ele>2546.47</ele>
        <time>2021-08-06T11:08:25Z</time>
      </trkpt>
      <trkpt lat="42.61506" lon="1.73679">
        <ele>2546.474</ele>
        <time>2021-08-06T11:08:27Z</time>
      </trkpt>
      <trkpt lat="42.61506" lon="1.73679">
        <ele>2546.478</ele>
        <time>2021-08-06T11:08:29Z</time>
      </trkpt>
      <trkpt lat="42.61506" lon="1.73679">
        <ele>2546.478</ele>
        <time>2021-08-06T11:08:31Z</time>
      </trkpt>
      <trkpt lat="42.61506" lon="1.73679">
        <ele>2546.479</ele>
        <time>2021-08-06T11:08:33Z</time>
      </trkpt>
      <trkpt lat="42.61506" lon="1.73679">
        <ele>2546.479</ele>
        <time>2021-08-06T11:08:35Z</time>
      </trkpt>
      <trkpt lat="42.61506" lon="1.73679">
        <ele>2546.479</ele>
        <time>2021-08-06T11:08:37Z</time>
      </trkpt>
      <trkpt lat="42.61506" lon="1.73679">
        <ele>2546.484</ele>
        <time>2021-08-06T11:08:39Z</time>
      </trkpt>
      <trkpt lat="42.61506" lon="1.73679">
        <ele>2546.484</ele>
        <time>2021-08-06T11:08:41Z</time>
      </trkpt>
      <trkpt lat="42.61506" lon="1.73679">
        <ele>2546.48</ele>
        <time>2021-08-06T11:08:43Z</time>
      </trkpt>
      <trkpt lat="42.61506" lon="1.73679">
        <ele>2546.478</ele>
        <time>2021-08-06T11:08:45Z</time>
      </trkpt>
      <trkpt lat="42.61506" lon="1.73679">
        <ele>2546.482</ele>
        <time>2021-08-06T11:08:47Z</time>
      </trkpt>
      <trkpt lat="42.61506" lon="1.73679">
        <ele>2546.484</ele>
        <time>2021-08-06T11:08:49Z</time>
      </trkpt>
      <trkpt lat="42.61506" lon="1.73679">
        <ele>2546.478</ele>
        <time>2021-08-06T11:08:51Z</time>
      </trkpt>
      <trkpt lat="42.61506" lon="1.73679">
        <ele>2546.478</ele>
        <time>2021-08-06T11:08:53Z</time>
      </trkpt>
      <trkpt lat="42.61506" lon="1.73679">
        <ele>2546.475</ele>
        <time>2021-08-06T11:08:55Z</time>
      </trkpt>
      <trkpt lat="42.61506" lon="1.73679">
        <ele>2546.47</ele>
        <time>2021-08-06T11:08:57Z</time>
      </trkpt>
      <trkpt lat="42.61506" lon="1.73679">
        <ele>2546.47</ele>
        <time>2021-08-06T11:08:59Z</time>
      </trkpt>
      <trkpt lat="42.61506" lon="1.73679">
        <ele>2546.47</ele>
        <time>2021-08-06T11:09:01Z</time>
      </trkpt>
      <trkpt lat="42.61506" lon="1.73679">
        <ele>2546.466</ele>
        <time>2021-08-06T11:09:03Z</time>
      </trkpt>
      <trkpt lat="42.61506" lon="1.73679">
        <ele>2546.463</ele>
        <time>2021-08-06T11:09:05Z</time>
      </trkpt>
      <trkpt lat="42.61506" lon="1.73679">
        <ele>2546.459</ele>
        <time>2021-08-06T11:09:07Z</time>
      </trkpt>
      <trkpt lat="42.61506" lon="1.73679">
        <ele>2546.46</ele>
        <time>2021-08-06T11:09:09Z</time>
      </trkpt>
      <trkpt lat="42.61506" lon="1.73679">
        <ele>2546.452</ele>
        <time>2021-08-06T11:09:11Z</time>
      </trkpt>
      <trkpt lat="42.61506" lon="1.73679">
        <ele>2546.45</ele>
        <time>2021-08-06T11:09:13Z</time>
      </trkpt>
      <trkpt lat="42.61506" lon="1.73679">
        <ele>2546.446</ele>
        <time>2021-08-06T11:09:15Z</time>
      </trkpt>
      <trkpt lat="42.61506" lon="1.73679">
        <ele>2546.442</ele>
        <time>2021-08-06T11:09:17Z</time>
      </trkpt>
      <trkpt lat="42.61506" lon="1.73679">
        <ele>2546.448</ele>
        <time>2021-08-06T11:09:19Z</time>
      </trkpt>
      <trkpt lat="42.61506" lon="1.73679">
        <ele>2546.448</ele>
        <time>2021-08-06T11:09:21Z</time>
      </trkpt>
      <trkpt lat="42.61506" lon="1.73679">
        <ele>2546.447</ele>
        <time>2021-08-06T11:09:23Z</time>
      </trkpt>
      <trkpt lat="42.61506" lon="1.73679">
        <ele>2546.443</ele>
        <time>2021-08-06T11:09:25Z</time>
      </trkpt>
      <trkpt lat="42.61506" lon="1.73679">
        <ele>2546.444</ele>
        <time>2021-08-06T11:09:27Z</time>
      </trkpt>
      <trkpt lat="42.61506" lon="1.73679">
        <ele>2546.445</ele>
        <time>2021-08-06T11:09:29Z</time>
      </trkpt>
      <trkpt lat="42.61506" lon="1.73679">
        <ele>2546.443</ele>
        <time>2021-08-06T11:09:31Z</time>
      </trkpt>
      <trkpt lat="42.61506" lon="1.73679">
        <ele>2546.443</ele>
        <time>2021-08-06T11:09:33Z</time>
      </trkpt>
      <trkpt lat="42.61506" lon="1.73679">
        <ele>2546.44</ele>
        <time>2021-08-06T11:09:35Z</time>
      </trkpt>
      <trkpt lat="42.61506" lon="1.73679">
        <ele>2546.442</ele>
        <time>2021-08-06T11:09:37Z</time>
      </trkpt>
      <trkpt lat="42.61506" lon="1.73679">
        <ele>2546.44</ele>
        <time>2021-08-06T11:09:39Z</time>
      </trkpt>
      <trkpt lat="42.61506" lon="1.73679">
        <ele>2546.437</ele>
        <time>2021-08-06T11:09:41Z</time>
      </trkpt>
      <trkpt lat="42.61506" lon="1.73679">
        <ele>2546.436</ele>
        <time>2021-08-06T11:09:43Z</time>
      </trkpt>
      <trkpt lat="42.61506" lon="1.73679">
        <ele>2546.436</ele>
        <time>2021-08-06T11:09:45Z</time>
      </trkpt>
      <trkpt lat="42.61506" lon="1.73679">
        <ele>2546.434</ele>
        <time>2021-08-06T11:09:47Z</time>
      </trkpt>
      <trkpt lat="42.61506" lon="1.73679">
        <ele>2546.434</ele>
        <time>2021-08-06T11:09:49Z</time>
      </trkpt>
      <trkpt lat="42.61506" lon="1.73679">
        <ele>2546.435</ele>
        <time>2021-08-06T11:09:51Z</time>
      </trkpt>
      <trkpt lat="42.61506" lon="1.73679">
        <ele>2546.434</ele>
        <time>2021-08-06T11:09:53Z</time>
      </trkpt>
      <trkpt lat="42.61506" lon="1.73679">
        <ele>2546.43</ele>
        <time>2021-08-06T11:09:55Z</time>
      </trkpt>
      <trkpt lat="42.61506" lon="1.73679">
        <ele>2546.428</ele>
        <time>2021-08-06T11:09:57Z</time>
      </trkpt>
      <trkpt lat="42.61506" lon="1.73679">
        <ele>2546.425</ele>
        <time>2021-08-06T11:09:59Z</time>
      </trkpt>
      <trkpt lat="42.61506" lon="1.73679">
        <ele>2546.425</ele>
        <time>2021-08-06T11:10:01Z</time>
      </trkpt>
      <trkpt lat="42.61506" lon="1.73679">
        <ele>2546.425</ele>
        <time>2021-08-06T11:10:03Z</time>
      </trkpt>
      <trkpt lat="42.61506" lon="1.73679">
        <ele>2546.418</ele>
        <time>2021-08-06T11:10:05Z</time>
      </trkpt>
      <trkpt lat="42.61506" lon="1.73679">
        <ele>2546.42</ele>
        <time>2021-08-06T11:10:07Z</time>
      </trkpt>
      <trkpt lat="42.61506" lon="1.73679">
        <ele>2546.423</ele>
        <time>2021-08-06T11:10:09Z</time>
      </trkpt>
      <trkpt lat="42.61506" lon="1.73679">
        <ele>2546.422</ele>
        <time>2021-08-06T11:10:11Z</time>
      </trkpt>
      <trkpt lat="42.61506" lon="1.73679">
        <ele>2546.418</ele>
        <time>2021-08-06T11:10:13Z</time>
      </trkpt>
      <trkpt lat="42.61506" lon="1.73679">
        <ele>2546.419</ele>
        <time>2021-08-06T11:10:15Z</time>
      </trkpt>
      <trkpt lat="42.61506" lon="1.73679">
        <ele>2546.417</ele>
        <time>2021-08-06T11:10:17Z</time>
      </trkpt>
      <trkpt lat="42.61506" lon="1.73679">
        <ele>2546.421</ele>
        <time>2021-08-06T11:10:19Z</time>
      </trkpt>
      <trkpt lat="42.61506" lon="1.73679">
        <ele>2546.42</ele>
        <time>2021-08-06T11:10:21Z</time>
      </trkpt>
      <trkpt lat="42.61506" lon="1.73679">
        <ele>2546.417</ele>
        <time>2021-08-06T11:10:23Z</time>
      </trkpt>
      <trkpt lat="42.61506" lon="1.73679">
        <ele>2546.419</ele>
        <time>2021-08-06T11:10:25Z</time>
      </trkpt>
      <trkpt lat="42.61506" lon="1.73679">
        <ele>2546.416</ele>
        <time>2021-08-06T11:10:27Z</time>
      </trkpt>
      <trkpt lat="42.61506" lon="1.73679">
        <ele>2546.418</ele>
        <time>2021-08-06T11:10:29Z</time>
      </trkpt>
      <trkpt lat="42.61506" lon="1.73679">
        <ele>2546.419</ele>
        <time>2021-08-06T11:10:31Z</time>
      </trkpt>
      <trkpt lat="42.61506" lon="1.73679">
        <ele>2546.419</ele>
        <time>2021-08-06T11:10:33Z</time>
      </trkpt>
      <trkpt lat="42.61506" lon="1.73679">
        <ele>2546.416</ele>
        <time>2021-08-06T11:10:35Z</time>
      </trkpt>
      <trkpt lat="42.61506" lon="1.73679">
        <ele>2546.414</ele>
        <time>2021-08-06T11:10:37Z</time>
      </trkpt>
      <trkpt lat="42.61506" lon="1.73679">
        <ele>2546.418</ele>
        <time>2021-08-06T11:10:39Z</time>
      </trkpt>
      <trkpt lat="42.61506" lon="1.73679">
        <ele>2546.416</ele>
        <time>2021-08-06T11:10:41Z</time>
      </trkpt>
      <trkpt lat="42.61506" lon="1.73679">
        <ele>2546.416</ele>
        <time>2021-08-06T11:10:43Z</time>
      </trkpt>
      <trkpt lat="42.61506" lon="1.73679">
        <ele>2546.413</ele>
        <time>2021-08-06T11:10:45Z</time>
      </trkpt>
      <trkpt lat="42.61506" lon="1.73679">
        <ele>2546.413</ele>
        <time>2021-08-06T11:10:47Z</time>
      </trkpt>
      <trkpt lat="42.61506" lon="1.73679">
        <ele>2546.411</ele>
        <time>2021-08-06T11:10:49Z</time>
      </trkpt>
      <trkpt lat="42.61506" lon="1.73679">
        <ele>2546.408</ele>
        <time>2021-08-06T11:10:51Z</time>
      </trkpt>
      <trkpt lat="42.61506" lon="1.73679">
        <ele>2546.405</ele>
        <time>2021-08-06T11:10:53Z</time>
      </trkpt>
      <trkpt lat="42.61506" lon="1.73679">
        <ele>2546.399</ele>
        <time>2021-08-06T11:10:55Z</time>
      </trkpt>
      <trkpt lat="42.61506" lon="1.73679">
        <ele>2546.395</ele>
        <time>2021-08-06T11:10:57Z</time>
      </trkpt>
      <trkpt lat="42.61515" lon="1.73642">
        <ele>2544.296</ele>
        <time>2021-08-06T11:26:41Z</time>
      </trkpt>
      <trkpt lat="42.61509" lon="1.73674">
        <ele>2542.02</ele>
        <time>2021-08-06T11:26:45Z</time>
      </trkpt>
      <trkpt lat="42.61508" lon="1.73675">
        <ele>2542.647</ele>
        <time>2021-08-06T11:26:47Z</time>
      </trkpt>
      <trkpt lat="42.61508" lon="1.73675">
        <ele>2542.955</ele>
        <time>2021-08-06T11:26:49Z</time>
      </trkpt>
      <trkpt lat="42.61508" lon="1.73676">
        <ele>2542.801</ele>
        <time>2021-08-06T11:26:51Z</time>
      </trkpt>
      <trkpt lat="42.61508" lon="1.73675">
        <ele>2542.989</ele>
        <time>2021-08-06T11:26:53Z</time>
      </trkpt>
      <trkpt lat="42.61508" lon="1.73675">
        <ele>2542.994</ele>
        <time>2021-08-06T11:26:55Z</time>
      </trkpt>
      <trkpt lat="42.61508" lon="1.73675">
        <ele>2542.982</ele>
        <time>2021-08-06T11:26:57Z</time>
      </trkpt>
      <trkpt lat="42.61508" lon="1.73675">
        <ele>2542.972</ele>
        <time>2021-08-06T11:26:59Z</time>
      </trkpt>
      <trkpt lat="42.61508" lon="1.73675">
        <ele>2542.967</ele>
        <time>2021-08-06T11:27:01Z</time>
      </trkpt>
      <trkpt lat="42.61508" lon="1.73675">
        <ele>2542.95</ele>
        <time>2021-08-06T11:27:03Z</time>
      </trkpt>
      <trkpt lat="42.61508" lon="1.73675">
        <ele>2542.94</ele>
        <time>2021-08-06T11:27:05Z</time>
      </trkpt>
      <trkpt lat="42.61508" lon="1.73675">
        <ele>2542.925</ele>
        <time>2021-08-06T11:27:07Z</time>
      </trkpt>
      <trkpt lat="42.61508" lon="1.73675">
        <ele>2542.92</ele>
        <time>2021-08-06T11:27:09Z</time>
      </trkpt>
      <trkpt lat="42.61509" lon="1.73675">
        <ele>2542.588</ele>
        <time>2021-08-06T11:27:11Z</time>
      </trkpt>
      <trkpt lat="42.61509" lon="1.73675">
        <ele>2542.021</ele>
        <time>2021-08-06T11:27:13Z</time>
      </trkpt>
      <trkpt lat="42.6151" lon="1.73675">
        <ele>2541.855</ele>
        <time>2021-08-06T11:27:15Z</time>
      </trkpt>
      <trkpt lat="42.61509" lon="1.73674">
        <ele>2541.878</ele>
        <time>2021-08-06T11:27:17Z</time>
      </trkpt>
      <trkpt lat="42.61509" lon="1.73674">
        <ele>2541.888</ele>
        <time>2021-08-06T11:27:19Z</time>
      </trkpt>
      <trkpt lat="42.6151" lon="1.73674">
        <ele>2542.18</ele>
        <time>2021-08-06T11:27:21Z</time>
      </trkpt>
      <trkpt lat="42.6151" lon="1.73674">
        <ele>2542.183</ele>
        <time>2021-08-06T11:27:23Z</time>
      </trkpt>
      <trkpt lat="42.6151" lon="1.73674">
        <ele>2542.157</ele>
        <time>2021-08-06T11:27:25Z</time>
      </trkpt>
      <trkpt lat="42.6151" lon="1.73674">
        <ele>2541.976</ele>
        <time>2021-08-06T11:27:27Z</time>
      </trkpt>
      <trkpt lat="42.6151" lon="1.73672">
        <ele>2542.505</ele>
        <time>2021-08-06T11:27:29Z</time>
      </trkpt>
      <trkpt lat="42.6151" lon="1.73672">
        <ele>2542.532</ele>
        <time>2021-08-06T11:27:31Z</time>
      </trkpt>
      <trkpt lat="42.6151" lon="1.73672">
        <ele>2542.542</ele>
        <time>2021-08-06T11:27:33Z</time>
      </trkpt>
      <trkpt lat="42.6151" lon="1.73672">
        <ele>2542.558</ele>
        <time>2021-08-06T11:27:35Z</time>
      </trkpt>
      <trkpt lat="42.6151" lon="1.73672">
        <ele>2543.069</ele>
        <time>2021-08-06T11:27:37Z</time>
      </trkpt>
      <trkpt lat="42.6151" lon="1.73672">
        <ele>2543.171</ele>
        <time>2021-08-06T11:27:39Z</time>
      </trkpt>
      <trkpt lat="42.6151" lon="1.73672">
        <ele>2543.624</ele>
        <time>2021-08-06T11:27:41Z</time>
      </trkpt>
      <trkpt lat="42.61509" lon="1.73673">
        <ele>2543.909</ele>
        <time>2021-08-06T11:27:43Z</time>
      </trkpt>
      <trkpt lat="42.61509" lon="1.73673">
        <ele>2544.243</ele>
        <time>2021-08-06T11:27:45Z</time>
      </trkpt>
      <trkpt lat="42.61508" lon="1.73674">
        <ele>2543.332</ele>
        <time>2021-08-06T11:27:47Z</time>
      </trkpt>
      <trkpt lat="42.61507" lon="1.73674">
        <ele>2544.588</ele>
        <time>2021-08-06T11:27:49Z</time>
      </trkpt>
      <trkpt lat="42.61506" lon="1.73675">
        <ele>2544.69</ele>
        <time>2021-08-06T11:27:51Z</time>
      </trkpt>
      <trkpt lat="42.61505" lon="1.73676">
        <ele>2545.1</ele>
        <time>2021-08-06T11:27:53Z</time>
      </trkpt>
      <trkpt lat="42.61505" lon="1.73676">
        <ele>2544.889</ele>
        <time>2021-08-06T11:27:55Z</time>
      </trkpt>
      <trkpt lat="42.61505" lon="1.73676">
        <ele>2544.884</ele>
        <time>2021-08-06T11:27:57Z</time>
      </trkpt>
      <trkpt lat="42.61505" lon="1.73676">
        <ele>2544.877</ele>
        <time>2021-08-06T11:27:59Z</time>
      </trkpt>
      <trkpt lat="42.61504" lon="1.73676">
        <ele>2545.009</ele>
        <time>2021-08-06T11:28:01Z</time>
      </trkpt>
      <trkpt lat="42.61505" lon="1.73676">
        <ele>2545.337</ele>
        <time>2021-08-06T11:28:03Z</time>
      </trkpt>
      <trkpt lat="42.61505" lon="1.73676">
        <ele>2545.363</ele>
        <time>2021-08-06T11:28:05Z</time>
      </trkpt>
      <trkpt lat="42.61504" lon="1.73676">
        <ele>2545.484</ele>
        <time>2021-08-06T11:28:07Z</time>
      </trkpt>
      <trkpt lat="42.61504" lon="1.73676">
        <ele>2545.488</ele>
        <time>2021-08-06T11:28:09Z</time>
      </trkpt>
      <trkpt lat="42.61504" lon="1.73676">
        <ele>2545.487</ele>
        <time>2021-08-06T11:28:11Z</time>
      </trkpt>
      <trkpt lat="42.61504" lon="1.73676">
        <ele>2545.486</ele>
        <time>2021-08-06T11:28:13Z</time>
      </trkpt>
      <trkpt lat="42.61504" lon="1.73676">
        <ele>2545.487</ele>
        <time>2021-08-06T11:28:15Z</time>
      </trkpt>
      <trkpt lat="42.61504" lon="1.73676">
        <ele>2545.478</ele>
        <time>2021-08-06T11:28:17Z</time>
      </trkpt>
      <trkpt lat="42.61504" lon="1.73676">
        <ele>2545.477</ele>
        <time>2021-08-06T11:28:19Z</time>
      </trkpt>
      <trkpt lat="42.61504" lon="1.73676">
        <ele>2545.474</ele>
        <time>2021-08-06T11:28:21Z</time>
      </trkpt>
      <trkpt lat="42.61504" lon="1.73676">
        <ele>2545.472</ele>
        <time>2021-08-06T11:28:23Z</time>
      </trkpt>
      <trkpt lat="42.61504" lon="1.73676">
        <ele>2545.476</ele>
        <time>2021-08-06T11:28:25Z</time>
      </trkpt>
      <trkpt lat="42.61504" lon="1.73676">
        <ele>2545.468</ele>
        <time>2021-08-06T11:28:27Z</time>
      </trkpt>
      <trkpt lat="42.61504" lon="1.73676">
        <ele>2545.463</ele>
        <time>2021-08-06T11:28:29Z</time>
      </trkpt>
      <trkpt lat="42.61504" lon="1.73676">
        <ele>2545.471</ele>
        <time>2021-08-06T11:28:31Z</time>
      </trkpt>
      <trkpt lat="42.61504" lon="1.73676">
        <ele>2545.467</ele>
        <time>2021-08-06T11:28:33Z</time>
      </trkpt>
      <trkpt lat="42.61504" lon="1.73676">
        <ele>2545.471</ele>
        <time>2021-08-06T11:28:35Z</time>
      </trkpt>
      <trkpt lat="42.61504" lon="1.73676">
        <ele>2545.473</ele>
        <time>2021-08-06T11:28:37Z</time>
      </trkpt>
      <trkpt lat="42.61504" lon="1.73676">
        <ele>2545.478</ele>
        <time>2021-08-06T11:28:39Z</time>
      </trkpt>
      <trkpt lat="42.61504" lon="1.73676">
        <ele>2545.481</ele>
        <time>2021-08-06T11:28:41Z</time>
      </trkpt>
      <trkpt lat="42.61504" lon="1.73676">
        <ele>2545.48</ele>
        <time>2021-08-06T11:28:43Z</time>
      </trkpt>
      <trkpt lat="42.61504" lon="1.73676">
        <ele>2545.476</ele>
        <time>2021-08-06T11:28:45Z</time>
      </trkpt>
      <trkpt lat="42.61504" lon="1.73676">
        <ele>2545.474</ele>
        <time>2021-08-06T11:28:47Z</time>
      </trkpt>
      <trkpt lat="42.61504" lon="1.73676">
        <ele>2545.466</ele>
        <time>2021-08-06T11:28:49Z</time>
      </trkpt>
      <trkpt lat="42.61504" lon="1.73676">
        <ele>2545.466</ele>
        <time>2021-08-06T11:28:51Z</time>
      </trkpt>
      <trkpt lat="42.61504" lon="1.73676">
        <ele>2545.466</ele>
        <time>2021-08-06T11:28:53Z</time>
      </trkpt>
      <trkpt lat="42.61504" lon="1.73676">
        <ele>2545.469</ele>
        <time>2021-08-06T11:28:55Z</time>
      </trkpt>
      <trkpt lat="42.61504" lon="1.73676">
        <ele>2545.475</ele>
        <time>2021-08-06T11:28:57Z</time>
      </trkpt>
      <trkpt lat="42.61504" lon="1.73676">
        <ele>2545.47</ele>
        <time>2021-08-06T11:28:59Z</time>
      </trkpt>
      <trkpt lat="42.61504" lon="1.73676">
        <ele>2545.465</ele>
        <time>2021-08-06T11:29:01Z</time>
      </trkpt>
      <trkpt lat="42.61504" lon="1.73676">
        <ele>2545.465</ele>
        <time>2021-08-06T11:29:03Z</time>
      </trkpt>
      <trkpt lat="42.61504" lon="1.73676">
        <ele>2545.465</ele>
        <time>2021-08-06T11:29:05Z</time>
      </trkpt>
      <trkpt lat="42.61504" lon="1.73676">
        <ele>2545.461</ele>
        <time>2021-08-06T11:29:07Z</time>
      </trkpt>
      <trkpt lat="42.61504" lon="1.73676">
        <ele>2545.454</ele>
        <time>2021-08-06T11:29:09Z</time>
      </trkpt>
      <trkpt lat="42.61504" lon="1.73676">
        <ele>2545.458</ele>
        <time>2021-08-06T11:29:11Z</time>
      </trkpt>
      <trkpt lat="42.61504" lon="1.73676">
        <ele>2545.405</ele>
        <time>2021-08-06T11:29:13Z</time>
      </trkpt>
      <trkpt lat="42.61504" lon="1.73676">
        <ele>2545.43</ele>
        <time>2021-08-06T11:29:15Z</time>
      </trkpt>
      <trkpt lat="42.61504" lon="1.73676">
        <ele>2545.431</ele>
        <time>2021-08-06T11:29:17Z</time>
      </trkpt>
      <trkpt lat="42.61504" lon="1.73676">
        <ele>2545.429</ele>
        <time>2021-08-06T11:29:19Z</time>
      </trkpt>
      <trkpt lat="42.61504" lon="1.73676">
        <ele>2545.435</ele>
        <time>2021-08-06T11:29:21Z</time>
      </trkpt>
      <trkpt lat="42.61504" lon="1.73676">
        <ele>2545.433</ele>
        <time>2021-08-06T11:29:23Z</time>
      </trkpt>
      <trkpt lat="42.61504" lon="1.73676">
        <ele>2544.864</ele>
        <time>2021-08-06T11:29:25Z</time>
      </trkpt>
      <trkpt lat="42.61504" lon="1.73677">
        <ele>2544.853</ele>
        <time>2021-08-06T11:29:27Z</time>
      </trkpt>
      <trkpt lat="42.61504" lon="1.73677">
        <ele>2544.855</ele>
        <time>2021-08-06T11:29:29Z</time>
      </trkpt>
      <trkpt lat="42.61504" lon="1.73677">
        <ele>2544.855</ele>
        <time>2021-08-06T11:29:31Z</time>
      </trkpt>
      <trkpt lat="42.61504" lon="1.73677">
        <ele>2544.854</ele>
        <time>2021-08-06T11:29:33Z</time>
      </trkpt>
      <trkpt lat="42.61504" lon="1.73677">
        <ele>2544.852</ele>
        <time>2021-08-06T11:29:35Z</time>
      </trkpt>
      <trkpt lat="42.61504" lon="1.73677">
        <ele>2544.851</ele>
        <time>2021-08-06T11:29:37Z</time>
      </trkpt>
      <trkpt lat="42.61504" lon="1.73677">
        <ele>2544.85</ele>
        <time>2021-08-06T11:29:39Z</time>
      </trkpt>
      <trkpt lat="42.61504" lon="1.73677">
        <ele>2544.857</ele>
        <time>2021-08-06T11:29:41Z</time>
      </trkpt>
      <trkpt lat="42.61504" lon="1.73677">
        <ele>2544.855</ele>
        <time>2021-08-06T11:29:43Z</time>
      </trkpt>
      <trkpt lat="42.61504" lon="1.73677">
        <ele>2544.858</ele>
        <time>2021-08-06T11:29:45Z</time>
      </trkpt>
      <trkpt lat="42.61504" lon="1.73677">
        <ele>2544.86</ele>
        <time>2021-08-06T11:29:47Z</time>
      </trkpt>
      <trkpt lat="42.61504" lon="1.73677">
        <ele>2544.862</ele>
        <time>2021-08-06T11:29:49Z</time>
      </trkpt>
      <trkpt lat="42.61504" lon="1.73677">
        <ele>2544.861</ele>
        <time>2021-08-06T11:29:51Z</time>
      </trkpt>
      <trkpt lat="42.61504" lon="1.73677">
        <ele>2544.863</ele>
        <time>2021-08-06T11:29:53Z</time>
      </trkpt>
      <trkpt lat="42.61504" lon="1.73677">
        <ele>2544.858</ele>
        <time>2021-08-06T11:29:55Z</time>
      </trkpt>
      <trkpt lat="42.61504" lon="1.73677">
        <ele>2544.862</ele>
        <time>2021-08-06T11:29:57Z</time>
      </trkpt>
      <trkpt lat="42.61504" lon="1.73677">
        <ele>2544.862</ele>
        <time>2021-08-06T11:29:59Z</time>
      </trkpt>
      <trkpt lat="42.61504" lon="1.73677">
        <ele>2544.864</ele>
        <time>2021-08-06T11:30:01Z</time>
      </trkpt>
      <trkpt lat="42.61504" lon="1.73677">
        <ele>2544.863</ele>
        <time>2021-08-06T11:30:03Z</time>
      </trkpt>
      <trkpt lat="42.61504" lon="1.73677">
        <ele>2544.866</ele>
        <time>2021-08-06T11:30:05Z</time>
      </trkpt>
      <trkpt lat="42.61504" lon="1.73677">
        <ele>2544.865</ele>
        <time>2021-08-06T11:30:07Z</time>
      </trkpt>
      <trkpt lat="42.61504" lon="1.73677">
        <ele>2544.865</ele>
        <time>2021-08-06T11:30:09Z</time>
      </trkpt>
      <trkpt lat="42.61504" lon="1.73677">
        <ele>2544.869</ele>
        <time>2021-08-06T11:30:11Z</time>
      </trkpt>
      <trkpt lat="42.61504" lon="1.73677">
        <ele>2544.871</ele>
        <time>2021-08-06T11:30:13Z</time>
      </trkpt>
      <trkpt lat="42.61504" lon="1.73677">
        <ele>2544.872</ele>
        <time>2021-08-06T11:30:15Z</time>
      </trkpt>
      <trkpt lat="42.61504" lon="1.73677">
        <ele>2544.87</ele>
        <time>2021-08-06T11:30:17Z</time>
      </trkpt>
      <trkpt lat="42.61504" lon="1.73677">
        <ele>2544.876</ele>
        <time>2021-08-06T11:30:19Z</time>
      </trkpt>
      <trkpt lat="42.61504" lon="1.73677">
        <ele>2544.881</ele>
        <time>2021-08-06T11:30:21Z</time>
      </trkpt>
      <trkpt lat="42.61504" lon="1.73677">
        <ele>2544.879</ele>
        <time>2021-08-06T11:30:23Z</time>
      </trkpt>
      <trkpt lat="42.61504" lon="1.73677">
        <ele>2544.878</ele>
        <time>2021-08-06T11:30:25Z</time>
      </trkpt>
      <trkpt lat="42.61504" lon="1.73677">
        <ele>2544.875</ele>
        <time>2021-08-06T11:30:27Z</time>
      </trkpt>
      <trkpt lat="42.61504" lon="1.73677">
        <ele>2544.869</ele>
        <time>2021-08-06T11:30:29Z</time>
      </trkpt>
      <trkpt lat="42.61504" lon="1.73677">
        <ele>2544.865</ele>
        <time>2021-08-06T11:30:31Z</time>
      </trkpt>
      <trkpt lat="42.61504" lon="1.73677">
        <ele>2544.869</ele>
        <time>2021-08-06T11:30:33Z</time>
      </trkpt>
      <trkpt lat="42.61504" lon="1.73677">
        <ele>2544.864</ele>
        <time>2021-08-06T11:30:35Z</time>
      </trkpt>
      <trkpt lat="42.61504" lon="1.73677">
        <ele>2544.864</ele>
        <time>2021-08-06T11:30:37Z</time>
      </trkpt>
      <trkpt lat="42.61504" lon="1.73677">
        <ele>2544.863</ele>
        <time>2021-08-06T11:30:39Z</time>
      </trkpt>
      <trkpt lat="42.61504" lon="1.73677">
        <ele>2544.865</ele>
        <time>2021-08-06T11:30:41Z</time>
      </trkpt>
      <trkpt lat="42.61504" lon="1.73677">
        <ele>2544.864</ele>
        <time>2021-08-06T11:30:43Z</time>
      </trkpt>
      <trkpt lat="42.61504" lon="1.73677">
        <ele>2544.865</ele>
        <time>2021-08-06T11:30:45Z</time>
      </trkpt>
      <trkpt lat="42.61504" lon="1.73677">
        <ele>2544.86</ele>
        <time>2021-08-06T11:30:47Z</time>
      </trkpt>
      <trkpt lat="42.61504" lon="1.73677">
        <ele>2544.867</ele>
        <time>2021-08-06T11:30:49Z</time>
      </trkpt>
      <trkpt lat="42.61504" lon="1.73677">
        <ele>2544.869</ele>
        <time>2021-08-06T11:30:51Z</time>
      </trkpt>
      <trkpt lat="42.61504" lon="1.73677">
        <ele>2544.87</ele>
        <time>2021-08-06T11:30:53Z</time>
      </trkpt>
      <trkpt lat="42.61504" lon="1.73677">
        <ele>2544.872</ele>
        <time>2021-08-06T11:30:55Z</time>
      </trkpt>
      <trkpt lat="42.61504" lon="1.73677">
        <ele>2544.871</ele>
        <time>2021-08-06T11:30:57Z</time>
      </trkpt>
      <trkpt lat="42.61504" lon="1.73677">
        <ele>2544.871</ele>
        <time>2021-08-06T11:30:59Z</time>
      </trkpt>
      <trkpt lat="42.61504" lon="1.73677">
        <ele>2544.876</ele>
        <time>2021-08-06T11:31:01Z</time>
      </trkpt>
      <trkpt lat="42.61504" lon="1.73677">
        <ele>2544.874</ele>
        <time>2021-08-06T11:31:03Z</time>
      </trkpt>
      <trkpt lat="42.61504" lon="1.73677">
        <ele>2544.875</ele>
        <time>2021-08-06T11:31:05Z</time>
      </trkpt>
      <trkpt lat="42.61504" lon="1.73677">
        <ele>2544.873</ele>
        <time>2021-08-06T11:31:07Z</time>
      </trkpt>
      <trkpt lat="42.61504" lon="1.73677">
        <ele>2544.875</ele>
        <time>2021-08-06T11:31:09Z</time>
      </trkpt>
      <trkpt lat="42.61504" lon="1.73677">
        <ele>2544.877</ele>
        <time>2021-08-06T11:31:11Z</time>
      </trkpt>
      <trkpt lat="42.61504" lon="1.73677">
        <ele>2544.877</ele>
        <time>2021-08-06T11:31:13Z</time>
      </trkpt>
      <trkpt lat="42.61504" lon="1.73677">
        <ele>2544.879</ele>
        <time>2021-08-06T11:31:15Z</time>
      </trkpt>
      <trkpt lat="42.61504" lon="1.73677">
        <ele>2544.88</ele>
        <time>2021-08-06T11:31:17Z</time>
      </trkpt>
      <trkpt lat="42.61504" lon="1.73677">
        <ele>2544.88</ele>
        <time>2021-08-06T11:31:19Z</time>
      </trkpt>
      <trkpt lat="42.61504" lon="1.73677">
        <ele>2544.881</ele>
        <time>2021-08-06T11:31:21Z</time>
      </trkpt>
      <trkpt lat="42.61504" lon="1.73677">
        <ele>2544.885</ele>
        <time>2021-08-06T11:31:23Z</time>
      </trkpt>
      <trkpt lat="42.61504" lon="1.73677">
        <ele>2544.886</ele>
        <time>2021-08-06T11:31:25Z</time>
      </trkpt>
      <trkpt lat="42.61504" lon="1.73677">
        <ele>2544.888</ele>
        <time>2021-08-06T11:31:27Z</time>
      </trkpt>
      <trkpt lat="42.61504" lon="1.73677">
        <ele>2544.889</ele>
        <time>2021-08-06T11:31:29Z</time>
      </trkpt>
      <trkpt lat="42.61504" lon="1.73677">
        <ele>2544.889</ele>
        <time>2021-08-06T11:31:31Z</time>
      </trkpt>
      <trkpt lat="42.61504" lon="1.73677">
        <ele>2544.889</ele>
        <time>2021-08-06T11:31:33Z</time>
      </trkpt>
      <trkpt lat="42.61504" lon="1.73677">
        <ele>2544.892</ele>
        <time>2021-08-06T11:31:35Z</time>
      </trkpt>
      <trkpt lat="42.61504" lon="1.73677">
        <ele>2544.897</ele>
        <time>2021-08-06T11:31:37Z</time>
      </trkpt>
      <trkpt lat="42.61504" lon="1.73677">
        <ele>2544.898</ele>
        <time>2021-08-06T11:31:39Z</time>
      </trkpt>
      <trkpt lat="42.61504" lon="1.73677">
        <ele>2544.899</ele>
        <time>2021-08-06T11:31:41Z</time>
      </trkpt>
      <trkpt lat="42.61504" lon="1.73677">
        <ele>2544.9</ele>
        <time>2021-08-06T11:31:43Z</time>
      </trkpt>
      <trkpt lat="42.61504" lon="1.73677">
        <ele>2544.899</ele>
        <time>2021-08-06T11:31:45Z</time>
      </trkpt>
      <trkpt lat="42.61504" lon="1.73677">
        <ele>2544.9</ele>
        <time>2021-08-06T11:31:47Z</time>
      </trkpt>
      <trkpt lat="42.61504" lon="1.73677">
        <ele>2544.898</ele>
        <time>2021-08-06T11:31:49Z</time>
      </trkpt>
      <trkpt lat="42.61504" lon="1.73677">
        <ele>2544.905</ele>
        <time>2021-08-06T11:31:51Z</time>
      </trkpt>
      <trkpt lat="42.61504" lon="1.73677">
        <ele>2544.903</ele>
        <time>2021-08-06T11:31:53Z</time>
      </trkpt>
      <trkpt lat="42.61504" lon="1.73677">
        <ele>2544.909</ele>
        <time>2021-08-06T11:31:55Z</time>
      </trkpt>
      <trkpt lat="42.61504" lon="1.73677">
        <ele>2544.908</ele>
        <time>2021-08-06T11:31:57Z</time>
      </trkpt>
      <trkpt lat="42.61504" lon="1.73677">
        <ele>2544.909</ele>
        <time>2021-08-06T11:31:59Z</time>
      </trkpt>
      <trkpt lat="42.61504" lon="1.73677">
        <ele>2544.909</ele>
        <time>2021-08-06T11:32:01Z</time>
      </trkpt>
      <trkpt lat="42.61504" lon="1.73677">
        <ele>2544.916</ele>
        <time>2021-08-06T11:32:03Z</time>
      </trkpt>
      <trkpt lat="42.61504" lon="1.73677">
        <ele>2544.919</ele>
        <time>2021-08-06T11:32:05Z</time>
      </trkpt>
      <trkpt lat="42.61504" lon="1.73677">
        <ele>2544.922</ele>
        <time>2021-08-06T11:32:07Z</time>
      </trkpt>
      <trkpt lat="42.61504" lon="1.73677">
        <ele>2544.918</ele>
        <time>2021-08-06T11:32:09Z</time>
      </trkpt>
      <trkpt lat="42.61504" lon="1.73677">
        <ele>2544.92</ele>
        <time>2021-08-06T11:32:11Z</time>
      </trkpt>
      <trkpt lat="42.61504" lon="1.73677">
        <ele>2544.92</ele>
        <time>2021-08-06T11:32:13Z</time>
      </trkpt>
      <trkpt lat="42.61504" lon="1.73677">
        <ele>2544.916</ele>
        <time>2021-08-06T11:32:15Z</time>
      </trkpt>
      <trkpt lat="42.61504" lon="1.73677">
        <ele>2544.916</ele>
        <time>2021-08-06T11:32:17Z</time>
      </trkpt>
      <trkpt lat="42.61504" lon="1.73677">
        <ele>2544.916</ele>
        <time>2021-08-06T11:32:19Z</time>
      </trkpt>
      <trkpt lat="42.61504" lon="1.73677">
        <ele>2544.918</ele>
        <time>2021-08-06T11:32:21Z</time>
      </trkpt>
      <trkpt lat="42.61504" lon="1.73677">
        <ele>2544.92</ele>
        <time>2021-08-06T11:32:23Z</time>
      </trkpt>
      <trkpt lat="42.61504" lon="1.73677">
        <ele>2544.924</ele>
        <time>2021-08-06T11:32:25Z</time>
      </trkpt>
      <trkpt lat="42.61504" lon="1.73677">
        <ele>2544.928</ele>
        <time>2021-08-06T11:32:27Z</time>
      </trkpt>
      <trkpt lat="42.61504" lon="1.73677">
        <ele>2544.93</ele>
        <time>2021-08-06T11:32:29Z</time>
      </trkpt>
      <trkpt lat="42.61504" lon="1.73677">
        <ele>2544.932</ele>
        <time>2021-08-06T11:32:31Z</time>
      </trkpt>
      <trkpt lat="42.61504" lon="1.73677">
        <ele>2544.935</ele>
        <time>2021-08-06T11:32:33Z</time>
      </trkpt>
      <trkpt lat="42.61504" lon="1.73677">
        <ele>2544.932</ele>
        <time>2021-08-06T11:32:35Z</time>
      </trkpt>
      <trkpt lat="42.61504" lon="1.73677">
        <ele>2544.935</ele>
        <time>2021-08-06T11:32:37Z</time>
      </trkpt>
      <trkpt lat="42.61504" lon="1.73677">
        <ele>2544.936</ele>
        <time>2021-08-06T11:32:39Z</time>
      </trkpt>
      <trkpt lat="42.61504" lon="1.73677">
        <ele>2544.938</ele>
        <time>2021-08-06T11:32:41Z</time>
      </trkpt>
      <trkpt lat="42.61504" lon="1.73677">
        <ele>2544.938</ele>
        <time>2021-08-06T11:32:43Z</time>
      </trkpt>
      <trkpt lat="42.61504" lon="1.73677">
        <ele>2544.937</ele>
        <time>2021-08-06T11:32:45Z</time>
      </trkpt>
      <trkpt lat="42.61504" lon="1.73677">
        <ele>2544.938</ele>
        <time>2021-08-06T11:32:47Z</time>
      </trkpt>
      <trkpt lat="42.61504" lon="1.73677">
        <ele>2544.937</ele>
        <time>2021-08-06T11:32:49Z</time>
      </trkpt>
      <trkpt lat="42.61504" lon="1.73677">
        <ele>2544.942</ele>
        <time>2021-08-06T11:32:51Z</time>
      </trkpt>
      <trkpt lat="42.61504" lon="1.73677">
        <ele>2544.945</ele>
        <time>2021-08-06T11:32:53Z</time>
      </trkpt>
      <trkpt lat="42.61504" lon="1.73677">
        <ele>2544.944</ele>
        <time>2021-08-06T11:32:55Z</time>
      </trkpt>
      <trkpt lat="42.61504" lon="1.73677">
        <ele>2544.945</ele>
        <time>2021-08-06T11:32:57Z</time>
      </trkpt>
      <trkpt lat="42.61504" lon="1.73677">
        <ele>2544.948</ele>
        <time>2021-08-06T11:32:59Z</time>
      </trkpt>
      <trkpt lat="42.61504" lon="1.73677">
        <ele>2544.945</ele>
        <time>2021-08-06T11:33:01Z</time>
      </trkpt>
      <trkpt lat="42.61504" lon="1.73677">
        <ele>2544.946</ele>
        <time>2021-08-06T11:33:03Z</time>
      </trkpt>
      <trkpt lat="42.61504" lon="1.73677">
        <ele>2544.949</ele>
        <time>2021-08-06T11:33:05Z</time>
      </trkpt>
      <trkpt lat="42.61504" lon="1.73677">
        <ele>2544.952</ele>
        <time>2021-08-06T11:33:07Z</time>
      </trkpt>
      <trkpt lat="42.61504" lon="1.73677">
        <ele>2544.953</ele>
        <time>2021-08-06T11:33:09Z</time>
      </trkpt>
      <trkpt lat="42.61504" lon="1.73677">
        <ele>2544.952</ele>
        <time>2021-08-06T11:33:11Z</time>
      </trkpt>
      <trkpt lat="42.61504" lon="1.73677">
        <ele>2544.956</ele>
        <time>2021-08-06T11:33:13Z</time>
      </trkpt>
      <trkpt lat="42.61504" lon="1.73677">
        <ele>2544.955</ele>
        <time>2021-08-06T11:33:15Z</time>
      </trkpt>
      <trkpt lat="42.61504" lon="1.73677">
        <ele>2544.957</ele>
        <time>2021-08-06T11:33:17Z</time>
      </trkpt>
      <trkpt lat="42.61504" lon="1.73677">
        <ele>2544.959</ele>
        <time>2021-08-06T11:33:19Z</time>
      </trkpt>
      <trkpt lat="42.61504" lon="1.73677">
        <ele>2544.958</ele>
        <time>2021-08-06T11:33:21Z</time>
      </trkpt>
      <trkpt lat="42.61504" lon="1.73677">
        <ele>2544.962</ele>
        <time>2021-08-06T11:33:23Z</time>
      </trkpt>
      <trkpt lat="42.61504" lon="1.73677">
        <ele>2544.96</ele>
        <time>2021-08-06T11:33:25Z</time>
      </trkpt>
      <trkpt lat="42.61504" lon="1.73677">
        <ele>2544.961</ele>
        <time>2021-08-06T11:33:27Z</time>
      </trkpt>
      <trkpt lat="42.61504" lon="1.73677">
        <ele>2544.964</ele>
        <time>2021-08-06T11:33:29Z</time>
      </trkpt>
      <trkpt lat="42.61504" lon="1.73677">
        <ele>2544.964</ele>
        <time>2021-08-06T11:33:31Z</time>
      </trkpt>
      <trkpt lat="42.61504" lon="1.73677">
        <ele>2544.964</ele>
        <time>2021-08-06T11:33:33Z</time>
      </trkpt>
      <trkpt lat="42.61504" lon="1.73677">
        <ele>2544.97</ele>
        <time>2021-08-06T11:33:35Z</time>
      </trkpt>
      <trkpt lat="42.61504" lon="1.73677">
        <ele>2544.97</ele>
        <time>2021-08-06T11:33:37Z</time>
      </trkpt>
      <trkpt lat="42.61504" lon="1.73677">
        <ele>2544.967</ele>
        <time>2021-08-06T11:33:39Z</time>
      </trkpt>
      <trkpt lat="42.61504" lon="1.73677">
        <ele>2544.967</ele>
        <time>2021-08-06T11:33:41Z</time>
      </trkpt>
      <trkpt lat="42.61504" lon="1.73677">
        <ele>2544.968</ele>
        <time>2021-08-06T11:33:43Z</time>
      </trkpt>
      <trkpt lat="42.61504" lon="1.73677">
        <ele>2544.972</ele>
        <time>2021-08-06T11:33:45Z</time>
      </trkpt>
      <trkpt lat="42.61504" lon="1.73677">
        <ele>2544.971</ele>
        <time>2021-08-06T11:33:47Z</time>
      </trkpt>
      <trkpt lat="42.61504" lon="1.73677">
        <ele>2544.973</ele>
        <time>2021-08-06T11:33:49Z</time>
      </trkpt>
      <trkpt lat="42.61504" lon="1.73677">
        <ele>2544.972</ele>
        <time>2021-08-06T11:33:51Z</time>
      </trkpt>
      <trkpt lat="42.61504" lon="1.73677">
        <ele>2544.97</ele>
        <time>2021-08-06T11:33:53Z</time>
      </trkpt>
      <trkpt lat="42.61504" lon="1.73677">
        <ele>2544.969</ele>
        <time>2021-08-06T11:33:55Z</time>
      </trkpt>
      <trkpt lat="42.61504" lon="1.73677">
        <ele>2544.973</ele>
        <time>2021-08-06T11:33:57Z</time>
      </trkpt>
      <trkpt lat="42.61504" lon="1.73677">
        <ele>2544.971</ele>
        <time>2021-08-06T11:33:59Z</time>
      </trkpt>
      <trkpt lat="42.61504" lon="1.73677">
        <ele>2544.971</ele>
        <time>2021-08-06T11:34:01Z</time>
      </trkpt>
      <trkpt lat="42.61504" lon="1.73677">
        <ele>2544.976</ele>
        <time>2021-08-06T11:34:03Z</time>
      </trkpt>
      <trkpt lat="42.61504" lon="1.73677">
        <ele>2544.984</ele>
        <time>2021-08-06T11:34:06Z</time>
      </trkpt>
      <trkpt lat="42.61504" lon="1.73677">
        <ele>2544.981</ele>
        <time>2021-08-06T11:34:08Z</time>
      </trkpt>
      <trkpt lat="42.61504" lon="1.73677">
        <ele>2544.979</ele>
        <time>2021-08-06T11:34:10Z</time>
      </trkpt>
      <trkpt lat="42.61504" lon="1.73677">
        <ele>2544.983</ele>
        <time>2021-08-06T11:34:12Z</time>
      </trkpt>
      <trkpt lat="42.61504" lon="1.73677">
        <ele>2544.976</ele>
        <time>2021-08-06T11:34:14Z</time>
      </trkpt>
      <trkpt lat="42.61504" lon="1.73677">
        <ele>2544.978</ele>
        <time>2021-08-06T11:34:16Z</time>
      </trkpt>
      <trkpt lat="42.61504" lon="1.73677">
        <ele>2544.978</ele>
        <time>2021-08-06T11:34:18Z</time>
      </trkpt>
      <trkpt lat="42.61504" lon="1.73677">
        <ele>2544.975</ele>
        <time>2021-08-06T11:34:20Z</time>
      </trkpt>
      <trkpt lat="42.61504" lon="1.73677">
        <ele>2544.976</ele>
        <time>2021-08-06T11:34:22Z</time>
      </trkpt>
      <trkpt lat="42.61504" lon="1.73677">
        <ele>2544.976</ele>
        <time>2021-08-06T11:34:24Z</time>
      </trkpt>
      <trkpt lat="42.61504" lon="1.73677">
        <ele>2544.975</ele>
        <time>2021-08-06T11:34:26Z</time>
      </trkpt>
      <trkpt lat="42.61504" lon="1.73677">
        <ele>2544.981</ele>
        <time>2021-08-06T11:34:28Z</time>
      </trkpt>
      <trkpt lat="42.61504" lon="1.73677">
        <ele>2544.978</ele>
        <time>2021-08-06T11:34:30Z</time>
      </trkpt>
      <trkpt lat="42.61504" lon="1.73677">
        <ele>2544.978</ele>
        <time>2021-08-06T11:34:32Z</time>
      </trkpt>
      <trkpt lat="42.61504" lon="1.73677">
        <ele>2544.982</ele>
        <time>2021-08-06T11:34:34Z</time>
      </trkpt>
      <trkpt lat="42.61504" lon="1.73677">
        <ele>2544.981</ele>
        <time>2021-08-06T11:34:36Z</time>
      </trkpt>
      <trkpt lat="42.61504" lon="1.73677">
        <ele>2544.984</ele>
        <time>2021-08-06T11:34:38Z</time>
      </trkpt>
      <trkpt lat="42.61504" lon="1.73677">
        <ele>2544.981</ele>
        <time>2021-08-06T11:34:40Z</time>
      </trkpt>
      <trkpt lat="42.61504" lon="1.73677">
        <ele>2544.986</ele>
        <time>2021-08-06T11:34:42Z</time>
      </trkpt>
      <trkpt lat="42.61504" lon="1.73677">
        <ele>2544.986</ele>
        <time>2021-08-06T11:34:44Z</time>
      </trkpt>
      <trkpt lat="42.61504" lon="1.73677">
        <ele>2544.986</ele>
        <time>2021-08-06T11:34:46Z</time>
      </trkpt>
      <trkpt lat="42.61504" lon="1.73677">
        <ele>2544.986</ele>
        <time>2021-08-06T11:34:48Z</time>
      </trkpt>
      <trkpt lat="42.61504" lon="1.73677">
        <ele>2544.982</ele>
        <time>2021-08-06T11:34:50Z</time>
      </trkpt>
      <trkpt lat="42.61504" lon="1.73677">
        <ele>2544.983</ele>
        <time>2021-08-06T11:34:52Z</time>
      </trkpt>
      <trkpt lat="42.61504" lon="1.73677">
        <ele>2544.978</ele>
        <time>2021-08-06T11:34:54Z</time>
      </trkpt>
      <trkpt lat="42.61504" lon="1.73677">
        <ele>2544.984</ele>
        <time>2021-08-06T11:34:56Z</time>
      </trkpt>
      <trkpt lat="42.61504" lon="1.73677">
        <ele>2544.981</ele>
        <time>2021-08-06T11:34:58Z</time>
      </trkpt>
      <trkpt lat="42.61504" lon="1.73677">
        <ele>2544.977</ele>
        <time>2021-08-06T11:35:00Z</time>
      </trkpt>
      <trkpt lat="42.61504" lon="1.73677">
        <ele>2544.981</ele>
        <time>2021-08-06T11:35:02Z</time>
      </trkpt>
      <trkpt lat="42.61504" lon="1.73677">
        <ele>2544.978</ele>
        <time>2021-08-06T11:35:04Z</time>
      </trkpt>
      <trkpt lat="42.61504" lon="1.73677">
        <ele>2544.984</ele>
        <time>2021-08-06T11:35:06Z</time>
      </trkpt>
      <trkpt lat="42.61504" lon="1.73677">
        <ele>2544.983</ele>
        <time>2021-08-06T11:35:08Z</time>
      </trkpt>
      <trkpt lat="42.61504" lon="1.73677">
        <ele>2544.98</ele>
        <time>2021-08-06T11:35:10Z</time>
      </trkpt>
      <trkpt lat="42.61504" lon="1.73677">
        <ele>2544.978</ele>
        <time>2021-08-06T11:35:12Z</time>
      </trkpt>
      <trkpt lat="42.61504" lon="1.73677">
        <ele>2544.979</ele>
        <time>2021-08-06T11:35:14Z</time>
      </trkpt>
      <trkpt lat="42.61504" lon="1.73677">
        <ele>2544.977</ele>
        <time>2021-08-06T11:35:16Z</time>
      </trkpt>
      <trkpt lat="42.61504" lon="1.73677">
        <ele>2544.978</ele>
        <time>2021-08-06T11:35:18Z</time>
      </trkpt>
      <trkpt lat="42.61504" lon="1.73677">
        <ele>2544.98</ele>
        <time>2021-08-06T11:35:20Z</time>
      </trkpt>
      <trkpt lat="42.61504" lon="1.73677">
        <ele>2544.977</ele>
        <time>2021-08-06T11:35:22Z</time>
      </trkpt>
      <trkpt lat="42.61504" lon="1.73677">
        <ele>2544.973</ele>
        <time>2021-08-06T11:35:24Z</time>
      </trkpt>
      <trkpt lat="42.61504" lon="1.73677">
        <ele>2544.975</ele>
        <time>2021-08-06T11:35:26Z</time>
      </trkpt>
      <trkpt lat="42.61504" lon="1.73677">
        <ele>2544.974</ele>
        <time>2021-08-06T11:35:28Z</time>
      </trkpt>
      <trkpt lat="42.61504" lon="1.73677">
        <ele>2544.971</ele>
        <time>2021-08-06T11:35:30Z</time>
      </trkpt>
      <trkpt lat="42.61504" lon="1.73677">
        <ele>2544.97</ele>
        <time>2021-08-06T11:35:32Z</time>
      </trkpt>
      <trkpt lat="42.61504" lon="1.73677">
        <ele>2544.971</ele>
        <time>2021-08-06T11:35:34Z</time>
      </trkpt>
      <trkpt lat="42.61504" lon="1.73677">
        <ele>2544.97</ele>
        <time>2021-08-06T11:35:36Z</time>
      </trkpt>
      <trkpt lat="42.61504" lon="1.73677">
        <ele>2544.97</ele>
        <time>2021-08-06T11:35:38Z</time>
      </trkpt>
      <trkpt lat="42.61504" lon="1.73677">
        <ele>2544.971</ele>
        <time>2021-08-06T11:35:40Z</time>
      </trkpt>
      <trkpt lat="42.61504" lon="1.73677">
        <ele>2544.969</ele>
        <time>2021-08-06T11:35:42Z</time>
      </trkpt>
      <trkpt lat="42.61504" lon="1.73677">
        <ele>2544.971</ele>
        <time>2021-08-06T11:35:44Z</time>
      </trkpt>
      <trkpt lat="42.61504" lon="1.73677">
        <ele>2544.972</ele>
        <time>2021-08-06T11:35:46Z</time>
      </trkpt>
      <trkpt lat="42.61504" lon="1.73677">
        <ele>2544.975</ele>
        <time>2021-08-06T11:35:48Z</time>
      </trkpt>
      <trkpt lat="42.61504" lon="1.73677">
        <ele>2544.978</ele>
        <time>2021-08-06T11:35:50Z</time>
      </trkpt>
      <trkpt lat="42.61504" lon="1.73677">
        <ele>2544.978</ele>
        <time>2021-08-06T11:35:52Z</time>
      </trkpt>
      <trkpt lat="42.61504" lon="1.73677">
        <ele>2544.976</ele>
        <time>2021-08-06T11:35:54Z</time>
      </trkpt>
      <trkpt lat="42.61504" lon="1.73677">
        <ele>2544.978</ele>
        <time>2021-08-06T11:35:56Z</time>
      </trkpt>
      <trkpt lat="42.61504" lon="1.73677">
        <ele>2544.977</ele>
        <time>2021-08-06T11:35:58Z</time>
      </trkpt>
      <trkpt lat="42.61504" lon="1.73677">
        <ele>2544.974</ele>
        <time>2021-08-06T11:36:00Z</time>
      </trkpt>
      <trkpt lat="42.61504" lon="1.73677">
        <ele>2544.973</ele>
        <time>2021-08-06T11:36:02Z</time>
      </trkpt>
      <trkpt lat="42.61504" lon="1.73677">
        <ele>2544.961</ele>
        <time>2021-08-06T11:36:04Z</time>
      </trkpt>
      <trkpt lat="42.61504" lon="1.73677">
        <ele>2544.97</ele>
        <time>2021-08-06T11:36:06Z</time>
      </trkpt>
      <trkpt lat="42.61504" lon="1.73677">
        <ele>2544.973</ele>
        <time>2021-08-06T11:36:08Z</time>
      </trkpt>
      <trkpt lat="42.61504" lon="1.73677">
        <ele>2544.971</ele>
        <time>2021-08-06T11:36:10Z</time>
      </trkpt>
      <trkpt lat="42.61504" lon="1.73677">
        <ele>2544.963</ele>
        <time>2021-08-06T11:36:12Z</time>
      </trkpt>
      <trkpt lat="42.61504" lon="1.73677">
        <ele>2544.949</ele>
        <time>2021-08-06T11:36:14Z</time>
      </trkpt>
      <trkpt lat="42.61504" lon="1.73677">
        <ele>2544.942</ele>
        <time>2021-08-06T11:36:16Z</time>
      </trkpt>
      <trkpt lat="42.61504" lon="1.73677">
        <ele>2544.946</ele>
        <time>2021-08-06T11:36:18Z</time>
      </trkpt>
      <trkpt lat="42.61504" lon="1.73677">
        <ele>2544.932</ele>
        <time>2021-08-06T11:36:20Z</time>
      </trkpt>
      <trkpt lat="42.61504" lon="1.73677">
        <ele>2544.934</ele>
        <time>2021-08-06T11:36:22Z</time>
      </trkpt>
      <trkpt lat="42.61504" lon="1.73677">
        <ele>2544.926</ele>
        <time>2021-08-06T11:36:24Z</time>
      </trkpt>
      <trkpt lat="42.61504" lon="1.73677">
        <ele>2544.926</ele>
        <time>2021-08-06T11:36:26Z</time>
      </trkpt>
      <trkpt lat="42.61504" lon="1.73677">
        <ele>2544.931</ele>
        <time>2021-08-06T11:36:28Z</time>
      </trkpt>
      <trkpt lat="42.61504" lon="1.73677">
        <ele>2544.937</ele>
        <time>2021-08-06T11:36:30Z</time>
      </trkpt>
      <trkpt lat="42.61504" lon="1.73677">
        <ele>2544.931</ele>
        <time>2021-08-06T11:36:32Z</time>
      </trkpt>
      <trkpt lat="42.61504" lon="1.73677">
        <ele>2544.938</ele>
        <time>2021-08-06T11:36:34Z</time>
      </trkpt>
      <trkpt lat="42.61504" lon="1.73677">
        <ele>2544.938</ele>
        <time>2021-08-06T11:36:36Z</time>
      </trkpt>
      <trkpt lat="42.61504" lon="1.73677">
        <ele>2544.916</ele>
        <time>2021-08-06T11:36:38Z</time>
      </trkpt>
      <trkpt lat="42.61504" lon="1.73677">
        <ele>2544.904</ele>
        <time>2021-08-06T11:36:40Z</time>
      </trkpt>
      <trkpt lat="42.61504" lon="1.73677">
        <ele>2544.891</ele>
        <time>2021-08-06T11:36:42Z</time>
      </trkpt>
      <trkpt lat="42.61504" lon="1.73677">
        <ele>2544.888</ele>
        <time>2021-08-06T11:36:44Z</time>
      </trkpt>
      <trkpt lat="42.61504" lon="1.73677">
        <ele>2544.894</ele>
        <time>2021-08-06T11:36:46Z</time>
      </trkpt>
      <trkpt lat="42.61504" lon="1.73677">
        <ele>2544.898</ele>
        <time>2021-08-06T11:36:48Z</time>
      </trkpt>
      <trkpt lat="42.61504" lon="1.73677">
        <ele>2544.899</ele>
        <time>2021-08-06T11:36:50Z</time>
      </trkpt>
      <trkpt lat="42.61504" lon="1.73677">
        <ele>2544.898</ele>
        <time>2021-08-06T11:36:52Z</time>
      </trkpt>
      <trkpt lat="42.61504" lon="1.73677">
        <ele>2544.879</ele>
        <time>2021-08-06T11:36:54Z</time>
      </trkpt>
      <trkpt lat="42.61504" lon="1.73677">
        <ele>2544.875</ele>
        <time>2021-08-06T11:36:56Z</time>
      </trkpt>
      <trkpt lat="42.61504" lon="1.73677">
        <ele>2544.861</ele>
        <time>2021-08-06T11:36:58Z</time>
      </trkpt>
      <trkpt lat="42.61504" lon="1.73677">
        <ele>2544.863</ele>
        <time>2021-08-06T11:36:59Z</time>
      </trkpt>
      <trkpt lat="42.61504" lon="1.73677">
        <ele>2544.855</ele>
        <time>2021-08-06T11:37:02Z</time>
      </trkpt>
      <trkpt lat="42.61504" lon="1.73677">
        <ele>2544.851</ele>
        <time>2021-08-06T11:37:04Z</time>
      </trkpt>
      <trkpt lat="42.61504" lon="1.73677">
        <ele>2544.852</ele>
        <time>2021-08-06T11:37:06Z</time>
      </trkpt>
      <trkpt lat="42.61504" lon="1.73677">
        <ele>2544.856</ele>
        <time>2021-08-06T11:37:08Z</time>
      </trkpt>
      <trkpt lat="42.61504" lon="1.73677">
        <ele>2544.859</ele>
        <time>2021-08-06T11:37:10Z</time>
      </trkpt>
      <trkpt lat="42.61504" lon="1.73677">
        <ele>2544.864</ele>
        <time>2021-08-06T11:37:12Z</time>
      </trkpt>
      <trkpt lat="42.61504" lon="1.73677">
        <ele>2544.851</ele>
        <time>2021-08-06T11:37:14Z</time>
      </trkpt>
      <trkpt lat="42.61504" lon="1.73677">
        <ele>2544.841</ele>
        <time>2021-08-06T11:37:16Z</time>
      </trkpt>
      <trkpt lat="42.61504" lon="1.73677">
        <ele>2544.834</ele>
        <time>2021-08-06T11:37:18Z</time>
      </trkpt>
      <trkpt lat="42.61504" lon="1.73677">
        <ele>2544.825</ele>
        <time>2021-08-06T11:37:20Z</time>
      </trkpt>
      <trkpt lat="42.61504" lon="1.73677">
        <ele>2544.825</ele>
        <time>2021-08-06T11:37:22Z</time>
      </trkpt>
      <trkpt lat="42.61504" lon="1.73677">
        <ele>2544.821</ele>
        <time>2021-08-06T11:37:24Z</time>
      </trkpt>
      <trkpt lat="42.61504" lon="1.73677">
        <ele>2544.831</ele>
        <time>2021-08-06T11:37:26Z</time>
      </trkpt>
      <trkpt lat="42.61504" lon="1.73677">
        <ele>2545.085</ele>
        <time>2021-08-06T11:37:28Z</time>
      </trkpt>
      <trkpt lat="42.61504" lon="1.73677">
        <ele>2545.279</ele>
        <time>2021-08-06T11:37:30Z</time>
      </trkpt>
      <trkpt lat="42.61504" lon="1.73677">
        <ele>2545.29</ele>
        <time>2021-08-06T11:37:32Z</time>
      </trkpt>
      <trkpt lat="42.61504" lon="1.73677">
        <ele>2545.295</ele>
        <time>2021-08-06T11:37:34Z</time>
      </trkpt>
      <trkpt lat="42.61504" lon="1.73677">
        <ele>2545.301</ele>
        <time>2021-08-06T11:37:36Z</time>
      </trkpt>
      <trkpt lat="42.61504" lon="1.73677">
        <ele>2545.302</ele>
        <time>2021-08-06T11:37:38Z</time>
      </trkpt>
      <trkpt lat="42.61504" lon="1.73677">
        <ele>2545.301</ele>
        <time>2021-08-06T11:37:40Z</time>
      </trkpt>
      <trkpt lat="42.61504" lon="1.73677">
        <ele>2545.304</ele>
        <time>2021-08-06T11:37:42Z</time>
      </trkpt>
      <trkpt lat="42.61504" lon="1.73677">
        <ele>2545.306</ele>
        <time>2021-08-06T11:37:44Z</time>
      </trkpt>
      <trkpt lat="42.61504" lon="1.73677">
        <ele>2545.308</ele>
        <time>2021-08-06T11:37:46Z</time>
      </trkpt>
      <trkpt lat="42.61504" lon="1.73677">
        <ele>2545.311</ele>
        <time>2021-08-06T11:37:48Z</time>
      </trkpt>
      <trkpt lat="42.61504" lon="1.73677">
        <ele>2545.312</ele>
        <time>2021-08-06T11:37:49Z</time>
      </trkpt>
      <trkpt lat="42.61504" lon="1.73677">
        <ele>2545.312</ele>
        <time>2021-08-06T11:37:52Z</time>
      </trkpt>
      <trkpt lat="42.61504" lon="1.73677">
        <ele>2545.311</ele>
        <time>2021-08-06T11:37:54Z</time>
      </trkpt>
      <trkpt lat="42.61504" lon="1.73677">
        <ele>2545.312</ele>
        <time>2021-08-06T11:37:56Z</time>
      </trkpt>
      <trkpt lat="42.61504" lon="1.73677">
        <ele>2545.312</ele>
        <time>2021-08-06T11:37:58Z</time>
      </trkpt>
      <trkpt lat="42.61504" lon="1.73677">
        <ele>2545.312</ele>
        <time>2021-08-06T11:37:59Z</time>
      </trkpt>
      <trkpt lat="42.61504" lon="1.73677">
        <ele>2545.311</ele>
        <time>2021-08-06T11:38:02Z</time>
      </trkpt>
      <trkpt lat="42.61504" lon="1.73677">
        <ele>2545.311</ele>
        <time>2021-08-06T11:38:04Z</time>
      </trkpt>
      <trkpt lat="42.61504" lon="1.73677">
        <ele>2545.134</ele>
        <time>2021-08-06T11:38:06Z</time>
      </trkpt>
      <trkpt lat="42.61504" lon="1.73677">
        <ele>2545.132</ele>
        <time>2021-08-06T11:38:08Z</time>
      </trkpt>
      <trkpt lat="42.61504" lon="1.73677">
        <ele>2545.036</ele>
        <time>2021-08-06T11:38:10Z</time>
      </trkpt>
      <trkpt lat="42.61504" lon="1.73677">
        <ele>2545.034</ele>
        <time>2021-08-06T11:38:12Z</time>
      </trkpt>
      <trkpt lat="42.61504" lon="1.73677">
        <ele>2545.551</ele>
        <time>2021-08-06T11:38:14Z</time>
      </trkpt>
      <trkpt lat="42.61504" lon="1.73677">
        <ele>2545.552</ele>
        <time>2021-08-06T11:38:16Z</time>
      </trkpt>
      <trkpt lat="42.61504" lon="1.73677">
        <ele>2545.552</ele>
        <time>2021-08-06T11:38:18Z</time>
      </trkpt>
      <trkpt lat="42.61504" lon="1.73677">
        <ele>2545.554</ele>
        <time>2021-08-06T11:38:20Z</time>
      </trkpt>
      <trkpt lat="42.61504" lon="1.73677">
        <ele>2545.554</ele>
        <time>2021-08-06T11:38:22Z</time>
      </trkpt>
      <trkpt lat="42.61504" lon="1.73677">
        <ele>2545.555</ele>
        <time>2021-08-06T11:38:24Z</time>
      </trkpt>
      <trkpt lat="42.61504" lon="1.73677">
        <ele>2545.554</ele>
        <time>2021-08-06T11:38:26Z</time>
      </trkpt>
      <trkpt lat="42.61504" lon="1.73677">
        <ele>2545.553</ele>
        <time>2021-08-06T11:38:28Z</time>
      </trkpt>
      <trkpt lat="42.61504" lon="1.73677">
        <ele>2545.554</ele>
        <time>2021-08-06T11:38:30Z</time>
      </trkpt>
      <trkpt lat="42.61504" lon="1.73677">
        <ele>2545.551</ele>
        <time>2021-08-06T11:38:32Z</time>
      </trkpt>
      <trkpt lat="42.61504" lon="1.73677">
        <ele>2545.551</ele>
        <time>2021-08-06T11:38:34Z</time>
      </trkpt>
      <trkpt lat="42.61504" lon="1.73677">
        <ele>2545.555</ele>
        <time>2021-08-06T11:38:36Z</time>
      </trkpt>
      <trkpt lat="42.61504" lon="1.73677">
        <ele>2545.556</ele>
        <time>2021-08-06T11:38:38Z</time>
      </trkpt>
      <trkpt lat="42.61504" lon="1.73677">
        <ele>2545.554</ele>
        <time>2021-08-06T11:38:40Z</time>
      </trkpt>
      <trkpt lat="42.61504" lon="1.73677">
        <ele>2545.011</ele>
        <time>2021-08-06T11:38:42Z</time>
      </trkpt>
      <trkpt lat="42.61504" lon="1.73678">
        <ele>2545.016</ele>
        <time>2021-08-06T11:38:44Z</time>
      </trkpt>
      <trkpt lat="42.61504" lon="1.73678">
        <ele>2544.823</ele>
        <time>2021-08-06T11:38:46Z</time>
      </trkpt>
      <trkpt lat="42.61504" lon="1.73678">
        <ele>2544.81</ele>
        <time>2021-08-06T11:38:48Z</time>
      </trkpt>
      <trkpt lat="42.61504" lon="1.73678">
        <ele>2544.813</ele>
        <time>2021-08-06T11:38:50Z</time>
      </trkpt>
      <trkpt lat="42.61504" lon="1.73678">
        <ele>2544.707</ele>
        <time>2021-08-06T11:38:52Z</time>
      </trkpt>
      <trkpt lat="42.61504" lon="1.73678">
        <ele>2544.708</ele>
        <time>2021-08-06T11:38:54Z</time>
      </trkpt>
      <trkpt lat="42.61504" lon="1.73678">
        <ele>2544.707</ele>
        <time>2021-08-06T11:38:56Z</time>
      </trkpt>
      <trkpt lat="42.61504" lon="1.73678">
        <ele>2544.707</ele>
        <time>2021-08-06T11:38:58Z</time>
      </trkpt>
      <trkpt lat="42.61504" lon="1.73678">
        <ele>2544.716</ele>
        <time>2021-08-06T11:39:00Z</time>
      </trkpt>
      <trkpt lat="42.61504" lon="1.73677">
        <ele>2544.72</ele>
        <time>2021-08-06T11:39:02Z</time>
      </trkpt>
      <trkpt lat="42.61504" lon="1.73677">
        <ele>2544.726</ele>
        <time>2021-08-06T11:39:04Z</time>
      </trkpt>
      <trkpt lat="42.61504" lon="1.73677">
        <ele>2544.725</ele>
        <time>2021-08-06T11:39:06Z</time>
      </trkpt>
      <trkpt lat="42.61504" lon="1.73677">
        <ele>2544.723</ele>
        <time>2021-08-06T11:39:08Z</time>
      </trkpt>
      <trkpt lat="42.61504" lon="1.73677">
        <ele>2544.728</ele>
        <time>2021-08-06T11:39:10Z</time>
      </trkpt>
      <trkpt lat="42.61504" lon="1.73678">
        <ele>2544.368</ele>
        <time>2021-08-06T11:39:12Z</time>
      </trkpt>
      <trkpt lat="42.61504" lon="1.73678">
        <ele>2544.353</ele>
        <time>2021-08-06T11:39:14Z</time>
      </trkpt>
      <trkpt lat="42.61504" lon="1.73678">
        <ele>2544.346</ele>
        <time>2021-08-06T11:39:16Z</time>
      </trkpt>
      <trkpt lat="42.61504" lon="1.73678">
        <ele>2544.343</ele>
        <time>2021-08-06T11:39:18Z</time>
      </trkpt>
      <trkpt lat="42.61504" lon="1.73678">
        <ele>2544.34</ele>
        <time>2021-08-06T11:39:20Z</time>
      </trkpt>
      <trkpt lat="42.61504" lon="1.73678">
        <ele>2544.335</ele>
        <time>2021-08-06T11:39:22Z</time>
      </trkpt>
      <trkpt lat="42.61504" lon="1.73678">
        <ele>2544.34</ele>
        <time>2021-08-06T11:39:24Z</time>
      </trkpt>
      <trkpt lat="42.61504" lon="1.73678">
        <ele>2544.349</ele>
        <time>2021-08-06T11:39:26Z</time>
      </trkpt>
      <trkpt lat="42.61504" lon="1.73678">
        <ele>2544.352</ele>
        <time>2021-08-06T11:39:28Z</time>
      </trkpt>
      <trkpt lat="42.61504" lon="1.73678">
        <ele>2544.353</ele>
        <time>2021-08-06T11:39:29Z</time>
      </trkpt>
      <trkpt lat="42.61504" lon="1.73678">
        <ele>2544.36</ele>
        <time>2021-08-06T11:39:32Z</time>
      </trkpt>
      <trkpt lat="42.61504" lon="1.73678">
        <ele>2544.361</ele>
        <time>2021-08-06T11:39:34Z</time>
      </trkpt>
      <trkpt lat="42.61504" lon="1.73678">
        <ele>2544.359</ele>
        <time>2021-08-06T11:39:36Z</time>
      </trkpt>
      <trkpt lat="42.61504" lon="1.73678">
        <ele>2544.355</ele>
        <time>2021-08-06T11:39:38Z</time>
      </trkpt>
      <trkpt lat="42.61504" lon="1.73678">
        <ele>2544.352</ele>
        <time>2021-08-06T11:39:39Z</time>
      </trkpt>
      <trkpt lat="42.61504" lon="1.73678">
        <ele>2544.352</ele>
        <time>2021-08-06T11:39:42Z</time>
      </trkpt>
      <trkpt lat="42.61504" lon="1.73678">
        <ele>2544.352</ele>
        <time>2021-08-06T11:39:44Z</time>
      </trkpt>
      <trkpt lat="42.61504" lon="1.73678">
        <ele>2544.359</ele>
        <time>2021-08-06T11:39:46Z</time>
      </trkpt>
      <trkpt lat="42.61504" lon="1.73678">
        <ele>2544.354</ele>
        <time>2021-08-06T11:39:48Z</time>
      </trkpt>
      <trkpt lat="42.61504" lon="1.73678">
        <ele>2544.361</ele>
        <time>2021-08-06T11:39:50Z</time>
      </trkpt>
      <trkpt lat="42.61504" lon="1.73678">
        <ele>2544.356</ele>
        <time>2021-08-06T11:39:52Z</time>
      </trkpt>
      <trkpt lat="42.61504" lon="1.73678">
        <ele>2544.355</ele>
        <time>2021-08-06T11:39:54Z</time>
      </trkpt>
      <trkpt lat="42.61504" lon="1.73678">
        <ele>2544.352</ele>
        <time>2021-08-06T11:39:56Z</time>
      </trkpt>
      <trkpt lat="42.61504" lon="1.73678">
        <ele>2544.35</ele>
        <time>2021-08-06T11:39:58Z</time>
      </trkpt>
      <trkpt lat="42.61504" lon="1.73678">
        <ele>2544.35</ele>
        <time>2021-08-06T11:40:00Z</time>
      </trkpt>
      <trkpt lat="42.61504" lon="1.73678">
        <ele>2544.349</ele>
        <time>2021-08-06T11:40:02Z</time>
      </trkpt>
      <trkpt lat="42.61504" lon="1.73678">
        <ele>2544.352</ele>
        <time>2021-08-06T11:40:04Z</time>
      </trkpt>
      <trkpt lat="42.61504" lon="1.73678">
        <ele>2544.354</ele>
        <time>2021-08-06T11:40:06Z</time>
      </trkpt>
      <trkpt lat="42.61504" lon="1.73678">
        <ele>2544.361</ele>
        <time>2021-08-06T11:40:08Z</time>
      </trkpt>
      <trkpt lat="42.61504" lon="1.73678">
        <ele>2544.361</ele>
        <time>2021-08-06T11:40:09Z</time>
      </trkpt>
      <trkpt lat="42.61504" lon="1.73678">
        <ele>2544.367</ele>
        <time>2021-08-06T11:40:12Z</time>
      </trkpt>
      <trkpt lat="42.61504" lon="1.73678">
        <ele>2544.37</ele>
        <time>2021-08-06T11:40:14Z</time>
      </trkpt>
      <trkpt lat="42.61504" lon="1.73678">
        <ele>2544.37</ele>
        <time>2021-08-06T11:40:16Z</time>
      </trkpt>
      <trkpt lat="42.61504" lon="1.73678">
        <ele>2544.364</ele>
        <time>2021-08-06T11:40:18Z</time>
      </trkpt>
      <trkpt lat="42.61504" lon="1.73678">
        <ele>2544.366</ele>
        <time>2021-08-06T11:40:20Z</time>
      </trkpt>
      <trkpt lat="42.61504" lon="1.73678">
        <ele>2544.367</ele>
        <time>2021-08-06T11:40:22Z</time>
      </trkpt>
      <trkpt lat="42.61504" lon="1.73678">
        <ele>2544.365</ele>
        <time>2021-08-06T11:40:24Z</time>
      </trkpt>
      <trkpt lat="42.61504" lon="1.73678">
        <ele>2544.368</ele>
        <time>2021-08-06T11:40:26Z</time>
      </trkpt>
      <trkpt lat="42.61504" lon="1.73678">
        <ele>2544.374</ele>
        <time>2021-08-06T11:40:28Z</time>
      </trkpt>
      <trkpt lat="42.61504" lon="1.73678">
        <ele>2544.372</ele>
        <time>2021-08-06T11:40:30Z</time>
      </trkpt>
      <trkpt lat="42.61504" lon="1.73678">
        <ele>2544.369</ele>
        <time>2021-08-06T11:40:32Z</time>
      </trkpt>
      <trkpt lat="42.61504" lon="1.73678">
        <ele>2544.366</ele>
        <time>2021-08-06T11:40:34Z</time>
      </trkpt>
      <trkpt lat="42.61504" lon="1.73678">
        <ele>2544.365</ele>
        <time>2021-08-06T11:40:36Z</time>
      </trkpt>
      <trkpt lat="42.61504" lon="1.73678">
        <ele>2544.361</ele>
        <time>2021-08-06T11:40:37Z</time>
      </trkpt>
      <trkpt lat="42.61504" lon="1.73678">
        <ele>2544.353</ele>
        <time>2021-08-06T11:40:40Z</time>
      </trkpt>
      <trkpt lat="42.61504" lon="1.73678">
        <ele>2544.348</ele>
        <time>2021-08-06T11:40:42Z</time>
      </trkpt>
      <trkpt lat="42.61504" lon="1.73678">
        <ele>2544.346</ele>
        <time>2021-08-06T11:40:44Z</time>
      </trkpt>
      <trkpt lat="42.61504" lon="1.73678">
        <ele>2544.347</ele>
        <time>2021-08-06T11:40:46Z</time>
      </trkpt>
      <trkpt lat="42.61504" lon="1.73678">
        <ele>2544.346</ele>
        <time>2021-08-06T11:40:48Z</time>
      </trkpt>
      <trkpt lat="42.61504" lon="1.73678">
        <ele>2544.35</ele>
        <time>2021-08-06T11:40:50Z</time>
      </trkpt>
      <trkpt lat="42.61504" lon="1.73678">
        <ele>2544.352</ele>
        <time>2021-08-06T11:40:52Z</time>
      </trkpt>
      <trkpt lat="42.61504" lon="1.73678">
        <ele>2544.353</ele>
        <time>2021-08-06T11:40:54Z</time>
      </trkpt>
      <trkpt lat="42.61504" lon="1.73678">
        <ele>2544.354</ele>
        <time>2021-08-06T11:40:56Z</time>
      </trkpt>
      <trkpt lat="42.61504" lon="1.73678">
        <ele>2544.36</ele>
        <time>2021-08-06T11:40:58Z</time>
      </trkpt>
      <trkpt lat="42.61504" lon="1.73678">
        <ele>2544.361</ele>
        <time>2021-08-06T11:41:00Z</time>
      </trkpt>
      <trkpt lat="42.61504" lon="1.73678">
        <ele>2544.364</ele>
        <time>2021-08-06T11:41:02Z</time>
      </trkpt>
      <trkpt lat="42.61504" lon="1.73678">
        <ele>2544.363</ele>
        <time>2021-08-06T11:41:04Z</time>
      </trkpt>
      <trkpt lat="42.61504" lon="1.73678">
        <ele>2544.366</ele>
        <time>2021-08-06T11:41:06Z</time>
      </trkpt>
      <trkpt lat="42.61504" lon="1.73678">
        <ele>2544.368</ele>
        <time>2021-08-06T11:41:08Z</time>
      </trkpt>
      <trkpt lat="42.61504" lon="1.73678">
        <ele>2544.371</ele>
        <time>2021-08-06T11:41:10Z</time>
      </trkpt>
      <trkpt lat="42.61504" lon="1.73678">
        <ele>2544.364</ele>
        <time>2021-08-06T11:41:12Z</time>
      </trkpt>
      <trkpt lat="42.61504" lon="1.73678">
        <ele>2544.37</ele>
        <time>2021-08-06T11:41:14Z</time>
      </trkpt>
      <trkpt lat="42.61504" lon="1.73678">
        <ele>2544.364</ele>
        <time>2021-08-06T11:41:16Z</time>
      </trkpt>
      <trkpt lat="42.61504" lon="1.73678">
        <ele>2544.366</ele>
        <time>2021-08-06T11:41:18Z</time>
      </trkpt>
      <trkpt lat="42.61504" lon="1.73678">
        <ele>2544.366</ele>
        <time>2021-08-06T11:41:20Z</time>
      </trkpt>
      <trkpt lat="42.61504" lon="1.73678">
        <ele>2544.369</ele>
        <time>2021-08-06T11:41:22Z</time>
      </trkpt>
      <trkpt lat="42.61504" lon="1.73678">
        <ele>2544.374</ele>
        <time>2021-08-06T11:41:24Z</time>
      </trkpt>
      <trkpt lat="42.61504" lon="1.73678">
        <ele>2544.374</ele>
        <time>2021-08-06T11:41:26Z</time>
      </trkpt>
      <trkpt lat="42.61504" lon="1.73678">
        <ele>2544.378</ele>
        <time>2021-08-06T11:41:28Z</time>
      </trkpt>
      <trkpt lat="42.61504" lon="1.73678">
        <ele>2544.381</ele>
        <time>2021-08-06T11:41:30Z</time>
      </trkpt>
      <trkpt lat="42.61504" lon="1.73678">
        <ele>2544.383</ele>
        <time>2021-08-06T11:41:32Z</time>
      </trkpt>
      <trkpt lat="42.61504" lon="1.73678">
        <ele>2544.387</ele>
        <time>2021-08-06T11:41:34Z</time>
      </trkpt>
      <trkpt lat="42.61504" lon="1.73678">
        <ele>2544.376</ele>
        <time>2021-08-06T11:41:36Z</time>
      </trkpt>
      <trkpt lat="42.61504" lon="1.73678">
        <ele>2544.378</ele>
        <time>2021-08-06T11:41:38Z</time>
      </trkpt>
      <trkpt lat="42.61504" lon="1.73678">
        <ele>2544.373</ele>
        <time>2021-08-06T11:41:40Z</time>
      </trkpt>
      <trkpt lat="42.61504" lon="1.73678">
        <ele>2544.371</ele>
        <time>2021-08-06T11:41:42Z</time>
      </trkpt>
      <trkpt lat="42.61504" lon="1.73678">
        <ele>2544.363</ele>
        <time>2021-08-06T11:41:44Z</time>
      </trkpt>
      <trkpt lat="42.61504" lon="1.73678">
        <ele>2544.358</ele>
        <time>2021-08-06T11:41:46Z</time>
      </trkpt>
      <trkpt lat="42.61504" lon="1.73678">
        <ele>2544.358</ele>
        <time>2021-08-06T11:41:48Z</time>
      </trkpt>
      <trkpt lat="42.61504" lon="1.73678">
        <ele>2544.35</ele>
        <time>2021-08-06T11:41:50Z</time>
      </trkpt>
      <trkpt lat="42.61504" lon="1.73678">
        <ele>2544.347</ele>
        <time>2021-08-06T11:41:52Z</time>
      </trkpt>
      <trkpt lat="42.61504" lon="1.73678">
        <ele>2544.348</ele>
        <time>2021-08-06T11:41:54Z</time>
      </trkpt>
      <trkpt lat="42.61504" lon="1.73678">
        <ele>2544.349</ele>
        <time>2021-08-06T11:41:56Z</time>
      </trkpt>
      <trkpt lat="42.61504" lon="1.73678">
        <ele>2544.353</ele>
        <time>2021-08-06T11:41:58Z</time>
      </trkpt>
      <trkpt lat="42.61504" lon="1.73678">
        <ele>2544.347</ele>
        <time>2021-08-06T11:42:00Z</time>
      </trkpt>
      <trkpt lat="42.61504" lon="1.73678">
        <ele>2544.353</ele>
        <time>2021-08-06T11:42:02Z</time>
      </trkpt>
      <trkpt lat="42.61504" lon="1.73678">
        <ele>2544.358</ele>
        <time>2021-08-06T11:42:04Z</time>
      </trkpt>
      <trkpt lat="42.61504" lon="1.73678">
        <ele>2544.317</ele>
        <time>2021-08-06T11:42:06Z</time>
      </trkpt>
      <trkpt lat="42.61505" lon="1.73678">
        <ele>2544.196</ele>
        <time>2021-08-06T11:42:08Z</time>
      </trkpt>
      <trkpt lat="42.61505" lon="1.73678">
        <ele>2544.201</ele>
        <time>2021-08-06T11:42:10Z</time>
      </trkpt>
      <trkpt lat="42.61505" lon="1.73678">
        <ele>2544.204</ele>
        <time>2021-08-06T11:42:12Z</time>
      </trkpt>
      <trkpt lat="42.61505" lon="1.73678">
        <ele>2544.209</ele>
        <time>2021-08-06T11:42:14Z</time>
      </trkpt>
      <trkpt lat="42.61505" lon="1.73678">
        <ele>2544.207</ele>
        <time>2021-08-06T11:42:16Z</time>
      </trkpt>
      <trkpt lat="42.61505" lon="1.73678">
        <ele>2544.21</ele>
        <time>2021-08-06T11:42:18Z</time>
      </trkpt>
      <trkpt lat="42.61505" lon="1.73678">
        <ele>2544.21</ele>
        <time>2021-08-06T11:42:19Z</time>
      </trkpt>
      <trkpt lat="42.61505" lon="1.73678">
        <ele>2544.22</ele>
        <time>2021-08-06T11:42:22Z</time>
      </trkpt>
      <trkpt lat="42.61505" lon="1.73678">
        <ele>2544.226</ele>
        <time>2021-08-06T11:42:24Z</time>
      </trkpt>
      <trkpt lat="42.61505" lon="1.73678">
        <ele>2544.227</ele>
        <time>2021-08-06T11:42:26Z</time>
      </trkpt>
      <trkpt lat="42.61505" lon="1.73677">
        <ele>2544.127</ele>
        <time>2021-08-06T11:42:28Z</time>
      </trkpt>
      <trkpt lat="42.61505" lon="1.73677">
        <ele>2544.222</ele>
        <time>2021-08-06T11:42:30Z</time>
      </trkpt>
      <trkpt lat="42.61505" lon="1.73677">
        <ele>2544.337</ele>
        <time>2021-08-06T11:42:32Z</time>
      </trkpt>
      <trkpt lat="42.61505" lon="1.73677">
        <ele>2544.337</ele>
        <time>2021-08-06T11:42:34Z</time>
      </trkpt>
      <trkpt lat="42.61505" lon="1.73677">
        <ele>2544.339</ele>
        <time>2021-08-06T11:42:36Z</time>
      </trkpt>
      <trkpt lat="42.61505" lon="1.73677">
        <ele>2544.338</ele>
        <time>2021-08-06T11:42:38Z</time>
      </trkpt>
      <trkpt lat="42.61505" lon="1.73677">
        <ele>2544.333</ele>
        <time>2021-08-06T11:42:40Z</time>
      </trkpt>
      <trkpt lat="42.61505" lon="1.73677">
        <ele>2544.332</ele>
        <time>2021-08-06T11:42:42Z</time>
      </trkpt>
      <trkpt lat="42.61505" lon="1.73677">
        <ele>2544.333</ele>
        <time>2021-08-06T11:42:44Z</time>
      </trkpt>
      <trkpt lat="42.61505" lon="1.73677">
        <ele>2544.333</ele>
        <time>2021-08-06T11:42:46Z</time>
      </trkpt>
      <trkpt lat="42.61505" lon="1.73677">
        <ele>2544.336</ele>
        <time>2021-08-06T11:42:48Z</time>
      </trkpt>
      <trkpt lat="42.61505" lon="1.73677">
        <ele>2544.342</ele>
        <time>2021-08-06T11:42:50Z</time>
      </trkpt>
      <trkpt lat="42.61505" lon="1.73677">
        <ele>2544.345</ele>
        <time>2021-08-06T11:42:52Z</time>
      </trkpt>
      <trkpt lat="42.61505" lon="1.73677">
        <ele>2544.344</ele>
        <time>2021-08-06T11:42:54Z</time>
      </trkpt>
      <trkpt lat="42.61505" lon="1.73677">
        <ele>2544.343</ele>
        <time>2021-08-06T11:42:56Z</time>
      </trkpt>
      <trkpt lat="42.61505" lon="1.73677">
        <ele>2544.341</ele>
        <time>2021-08-06T11:42:58Z</time>
      </trkpt>
      <trkpt lat="42.61505" lon="1.73677">
        <ele>2544.339</ele>
        <time>2021-08-06T11:43:00Z</time>
      </trkpt>
      <trkpt lat="42.61505" lon="1.73677">
        <ele>2544.345</ele>
        <time>2021-08-06T11:43:02Z</time>
      </trkpt>
      <trkpt lat="42.61505" lon="1.73677">
        <ele>2544.346</ele>
        <time>2021-08-06T11:43:04Z</time>
      </trkpt>
      <trkpt lat="42.61504" lon="1.73677">
        <ele>2544.349</ele>
        <time>2021-08-06T11:43:06Z</time>
      </trkpt>
      <trkpt lat="42.61504" lon="1.73677">
        <ele>2544.353</ele>
        <time>2021-08-06T11:43:08Z</time>
      </trkpt>
      <trkpt lat="42.61504" lon="1.73677">
        <ele>2544.352</ele>
        <time>2021-08-06T11:43:10Z</time>
      </trkpt>
      <trkpt lat="42.61504" lon="1.73677">
        <ele>2544.348</ele>
        <time>2021-08-06T11:43:12Z</time>
      </trkpt>
      <trkpt lat="42.61504" lon="1.73677">
        <ele>2544.351</ele>
        <time>2021-08-06T11:43:14Z</time>
      </trkpt>
      <trkpt lat="42.61504" lon="1.73677">
        <ele>2544.353</ele>
        <time>2021-08-06T11:43:16Z</time>
      </trkpt>
      <trkpt lat="42.61504" lon="1.73677">
        <ele>2544.356</ele>
        <time>2021-08-06T11:43:18Z</time>
      </trkpt>
      <trkpt lat="42.61504" lon="1.73677">
        <ele>2544.349</ele>
        <time>2021-08-06T11:43:20Z</time>
      </trkpt>
      <trkpt lat="42.61504" lon="1.73677">
        <ele>2544.349</ele>
        <time>2021-08-06T11:43:22Z</time>
      </trkpt>
      <trkpt lat="42.61504" lon="1.73677">
        <ele>2544.348</ele>
        <time>2021-08-06T11:43:24Z</time>
      </trkpt>
      <trkpt lat="42.61504" lon="1.73677">
        <ele>2544.352</ele>
        <time>2021-08-06T11:43:26Z</time>
      </trkpt>
      <trkpt lat="42.61504" lon="1.73677">
        <ele>2544.352</ele>
        <time>2021-08-06T11:43:28Z</time>
      </trkpt>
      <trkpt lat="42.61504" lon="1.73677">
        <ele>2544.356</ele>
        <time>2021-08-06T11:43:30Z</time>
      </trkpt>
      <trkpt lat="42.61504" lon="1.73677">
        <ele>2544.36</ele>
        <time>2021-08-06T11:43:32Z</time>
      </trkpt>
      <trkpt lat="42.61504" lon="1.73677">
        <ele>2544.365</ele>
        <time>2021-08-06T11:43:34Z</time>
      </trkpt>
      <trkpt lat="42.61504" lon="1.73677">
        <ele>2544.364</ele>
        <time>2021-08-06T11:43:36Z</time>
      </trkpt>
      <trkpt lat="42.61504" lon="1.73677">
        <ele>2544.361</ele>
        <time>2021-08-06T11:43:38Z</time>
      </trkpt>
      <trkpt lat="42.61504" lon="1.73677">
        <ele>2544.365</ele>
        <time>2021-08-06T11:43:40Z</time>
      </trkpt>
      <trkpt lat="42.61504" lon="1.73677">
        <ele>2544.364</ele>
        <time>2021-08-06T11:43:42Z</time>
      </trkpt>
      <trkpt lat="42.61504" lon="1.73677">
        <ele>2544.37</ele>
        <time>2021-08-06T11:43:44Z</time>
      </trkpt>
      <trkpt lat="42.61504" lon="1.73677">
        <ele>2544.373</ele>
        <time>2021-08-06T11:43:46Z</time>
      </trkpt>
      <trkpt lat="42.61504" lon="1.73677">
        <ele>2544.372</ele>
        <time>2021-08-06T11:43:48Z</time>
      </trkpt>
      <trkpt lat="42.61504" lon="1.73677">
        <ele>2544.376</ele>
        <time>2021-08-06T11:43:50Z</time>
      </trkpt>
      <trkpt lat="42.61504" lon="1.73677">
        <ele>2544.375</ele>
        <time>2021-08-06T11:43:52Z</time>
      </trkpt>
      <trkpt lat="42.61504" lon="1.73677">
        <ele>2544.37</ele>
        <time>2021-08-06T11:43:54Z</time>
      </trkpt>
      <trkpt lat="42.61504" lon="1.73677">
        <ele>2544.371</ele>
        <time>2021-08-06T11:43:56Z</time>
      </trkpt>
      <trkpt lat="42.61504" lon="1.73677">
        <ele>2544.37</ele>
        <time>2021-08-06T11:43:58Z</time>
      </trkpt>
      <trkpt lat="42.61504" lon="1.73677">
        <ele>2544.372</ele>
        <time>2021-08-06T11:44:00Z</time>
      </trkpt>
      <trkpt lat="42.61504" lon="1.73677">
        <ele>2544.369</ele>
        <time>2021-08-06T11:44:02Z</time>
      </trkpt>
      <trkpt lat="42.61504" lon="1.73677">
        <ele>2544.368</ele>
        <time>2021-08-06T11:44:04Z</time>
      </trkpt>
      <trkpt lat="42.61504" lon="1.73677">
        <ele>2544.363</ele>
        <time>2021-08-06T11:44:06Z</time>
      </trkpt>
      <trkpt lat="42.61504" lon="1.73677">
        <ele>2544.363</ele>
        <time>2021-08-06T11:44:08Z</time>
      </trkpt>
      <trkpt lat="42.61504" lon="1.73677">
        <ele>2544.366</ele>
        <time>2021-08-06T11:44:10Z</time>
      </trkpt>
      <trkpt lat="42.61504" lon="1.73677">
        <ele>2544.368</ele>
        <time>2021-08-06T11:44:12Z</time>
      </trkpt>
      <trkpt lat="42.61504" lon="1.73677">
        <ele>2544.361</ele>
        <time>2021-08-06T11:44:14Z</time>
      </trkpt>
      <trkpt lat="42.61504" lon="1.73677">
        <ele>2544.363</ele>
        <time>2021-08-06T11:44:16Z</time>
      </trkpt>
      <trkpt lat="42.61504" lon="1.73677">
        <ele>2544.364</ele>
        <time>2021-08-06T11:44:18Z</time>
      </trkpt>
      <trkpt lat="42.61504" lon="1.73677">
        <ele>2544.367</ele>
        <time>2021-08-06T11:44:20Z</time>
      </trkpt>
      <trkpt lat="42.61504" lon="1.73677">
        <ele>2544.36</ele>
        <time>2021-08-06T11:44:22Z</time>
      </trkpt>
      <trkpt lat="42.61504" lon="1.73677">
        <ele>2544.352</ele>
        <time>2021-08-06T11:44:24Z</time>
      </trkpt>
      <trkpt lat="42.61504" lon="1.73677">
        <ele>2544.35</ele>
        <time>2021-08-06T11:44:26Z</time>
      </trkpt>
      <trkpt lat="42.61504" lon="1.73677">
        <ele>2544.351</ele>
        <time>2021-08-06T11:44:28Z</time>
      </trkpt>
      <trkpt lat="42.61504" lon="1.73677">
        <ele>2544.361</ele>
        <time>2021-08-06T11:44:30Z</time>
      </trkpt>
      <trkpt lat="42.61504" lon="1.73677">
        <ele>2544.371</ele>
        <time>2021-08-06T11:44:32Z</time>
      </trkpt>
      <trkpt lat="42.61504" lon="1.73677">
        <ele>2544.37</ele>
        <time>2021-08-06T11:44:34Z</time>
      </trkpt>
      <trkpt lat="42.61504" lon="1.73677">
        <ele>2544.374</ele>
        <time>2021-08-06T11:44:36Z</time>
      </trkpt>
      <trkpt lat="42.61504" lon="1.73677">
        <ele>2544.375</ele>
        <time>2021-08-06T11:44:38Z</time>
      </trkpt>
      <trkpt lat="42.61504" lon="1.73677">
        <ele>2544.373</ele>
        <time>2021-08-06T11:44:40Z</time>
      </trkpt>
      <trkpt lat="42.61504" lon="1.73677">
        <ele>2544.372</ele>
        <time>2021-08-06T11:44:42Z</time>
      </trkpt>
      <trkpt lat="42.61504" lon="1.73677">
        <ele>2544.372</ele>
        <time>2021-08-06T11:44:44Z</time>
      </trkpt>
      <trkpt lat="42.61504" lon="1.73677">
        <ele>2544.371</ele>
        <time>2021-08-06T11:44:46Z</time>
      </trkpt>
      <trkpt lat="42.61504" lon="1.73677">
        <ele>2544.375</ele>
        <time>2021-08-06T11:44:48Z</time>
      </trkpt>
      <trkpt lat="42.61504" lon="1.73677">
        <ele>2544.374</ele>
        <time>2021-08-06T11:44:50Z</time>
      </trkpt>
      <trkpt lat="42.61504" lon="1.73677">
        <ele>2544.375</ele>
        <time>2021-08-06T11:44:52Z</time>
      </trkpt>
      <trkpt lat="42.61504" lon="1.73677">
        <ele>2544.373</ele>
        <time>2021-08-06T11:44:54Z</time>
      </trkpt>
      <trkpt lat="42.61504" lon="1.73677">
        <ele>2544.37</ele>
        <time>2021-08-06T11:44:56Z</time>
      </trkpt>
      <trkpt lat="42.61504" lon="1.73677">
        <ele>2544.369</ele>
        <time>2021-08-06T11:44:58Z</time>
      </trkpt>
      <trkpt lat="42.61504" lon="1.73677">
        <ele>2544.37</ele>
        <time>2021-08-06T11:45:00Z</time>
      </trkpt>
      <trkpt lat="42.61504" lon="1.73677">
        <ele>2544.372</ele>
        <time>2021-08-06T11:45:02Z</time>
      </trkpt>
      <trkpt lat="42.61504" lon="1.73677">
        <ele>2544.375</ele>
        <time>2021-08-06T11:45:04Z</time>
      </trkpt>
      <trkpt lat="42.61504" lon="1.73677">
        <ele>2544.374</ele>
        <time>2021-08-06T11:45:06Z</time>
      </trkpt>
      <trkpt lat="42.61504" lon="1.73677">
        <ele>2544.371</ele>
        <time>2021-08-06T11:45:08Z</time>
      </trkpt>
      <trkpt lat="42.61504" lon="1.73677">
        <ele>2544.378</ele>
        <time>2021-08-06T11:45:10Z</time>
      </trkpt>
      <trkpt lat="42.61504" lon="1.73677">
        <ele>2544.379</ele>
        <time>2021-08-06T11:45:12Z</time>
      </trkpt>
      <trkpt lat="42.61504" lon="1.73677">
        <ele>2544.38</ele>
        <time>2021-08-06T11:45:14Z</time>
      </trkpt>
      <trkpt lat="42.61504" lon="1.73677">
        <ele>2544.379</ele>
        <time>2021-08-06T11:45:16Z</time>
      </trkpt>
      <trkpt lat="42.61504" lon="1.73677">
        <ele>2544.379</ele>
        <time>2021-08-06T11:45:18Z</time>
      </trkpt>
      <trkpt lat="42.61504" lon="1.73677">
        <ele>2544.376</ele>
        <time>2021-08-06T11:45:20Z</time>
      </trkpt>
      <trkpt lat="42.61504" lon="1.73677">
        <ele>2544.376</ele>
        <time>2021-08-06T11:45:22Z</time>
      </trkpt>
      <trkpt lat="42.61504" lon="1.73677">
        <ele>2544.381</ele>
        <time>2021-08-06T11:45:24Z</time>
      </trkpt>
      <trkpt lat="42.61504" lon="1.73677">
        <ele>2544.384</ele>
        <time>2021-08-06T11:45:26Z</time>
      </trkpt>
      <trkpt lat="42.61504" lon="1.73677">
        <ele>2544.39</ele>
        <time>2021-08-06T11:45:28Z</time>
      </trkpt>
      <trkpt lat="42.61504" lon="1.73677">
        <ele>2544.397</ele>
        <time>2021-08-06T11:45:30Z</time>
      </trkpt>
      <trkpt lat="42.61504" lon="1.73677">
        <ele>2544.4</ele>
        <time>2021-08-06T11:45:32Z</time>
      </trkpt>
      <trkpt lat="42.61504" lon="1.73677">
        <ele>2544.399</ele>
        <time>2021-08-06T11:45:34Z</time>
      </trkpt>
      <trkpt lat="42.61504" lon="1.73677">
        <ele>2544.4</ele>
        <time>2021-08-06T11:45:36Z</time>
      </trkpt>
      <trkpt lat="42.61504" lon="1.73677">
        <ele>2544.398</ele>
        <time>2021-08-06T11:45:38Z</time>
      </trkpt>
      <trkpt lat="42.61504" lon="1.73677">
        <ele>2544.4</ele>
        <time>2021-08-06T11:45:40Z</time>
      </trkpt>
      <trkpt lat="42.61504" lon="1.73677">
        <ele>2544.397</ele>
        <time>2021-08-06T11:45:42Z</time>
      </trkpt>
      <trkpt lat="42.61504" lon="1.73677">
        <ele>2544.393</ele>
        <time>2021-08-06T11:45:44Z</time>
      </trkpt>
      <trkpt lat="42.61504" lon="1.73677">
        <ele>2544.396</ele>
        <time>2021-08-06T11:45:46Z</time>
      </trkpt>
      <trkpt lat="42.61504" lon="1.73677">
        <ele>2544.397</ele>
        <time>2021-08-06T11:45:48Z</time>
      </trkpt>
      <trkpt lat="42.61504" lon="1.73677">
        <ele>2544.397</ele>
        <time>2021-08-06T11:45:50Z</time>
      </trkpt>
      <trkpt lat="42.61504" lon="1.73677">
        <ele>2544.397</ele>
        <time>2021-08-06T11:45:52Z</time>
      </trkpt>
      <trkpt lat="42.61504" lon="1.73677">
        <ele>2544.396</ele>
        <time>2021-08-06T11:45:54Z</time>
      </trkpt>
      <trkpt lat="42.61504" lon="1.73677">
        <ele>2544.399</ele>
        <time>2021-08-06T11:45:56Z</time>
      </trkpt>
      <trkpt lat="42.61504" lon="1.73677">
        <ele>2544.401</ele>
        <time>2021-08-06T11:45:58Z</time>
      </trkpt>
      <trkpt lat="42.61504" lon="1.73677">
        <ele>2544.404</ele>
        <time>2021-08-06T11:46:00Z</time>
      </trkpt>
      <trkpt lat="42.61504" lon="1.73677">
        <ele>2544.406</ele>
        <time>2021-08-06T11:46:02Z</time>
      </trkpt>
      <trkpt lat="42.61504" lon="1.73677">
        <ele>2544.408</ele>
        <time>2021-08-06T11:46:04Z</time>
      </trkpt>
      <trkpt lat="42.61504" lon="1.73677">
        <ele>2544.408</ele>
        <time>2021-08-06T11:46:06Z</time>
      </trkpt>
      <trkpt lat="42.61504" lon="1.73677">
        <ele>2544.412</ele>
        <time>2021-08-06T11:46:08Z</time>
      </trkpt>
      <trkpt lat="42.61504" lon="1.73677">
        <ele>2544.411</ele>
        <time>2021-08-06T11:46:10Z</time>
      </trkpt>
      <trkpt lat="42.61504" lon="1.73677">
        <ele>2544.416</ele>
        <time>2021-08-06T11:46:12Z</time>
      </trkpt>
      <trkpt lat="42.61504" lon="1.73677">
        <ele>2544.416</ele>
        <time>2021-08-06T11:46:14Z</time>
      </trkpt>
      <trkpt lat="42.61504" lon="1.73677">
        <ele>2544.413</ele>
        <time>2021-08-06T11:46:16Z</time>
      </trkpt>
      <trkpt lat="42.61504" lon="1.73677">
        <ele>2544.42</ele>
        <time>2021-08-06T11:46:18Z</time>
      </trkpt>
      <trkpt lat="42.61504" lon="1.73677">
        <ele>2544.412</ele>
        <time>2021-08-06T11:46:20Z</time>
      </trkpt>
      <trkpt lat="42.61504" lon="1.73677">
        <ele>2544.414</ele>
        <time>2021-08-06T11:46:22Z</time>
      </trkpt>
      <trkpt lat="42.61504" lon="1.73677">
        <ele>2544.413</ele>
        <time>2021-08-06T11:46:24Z</time>
      </trkpt>
      <trkpt lat="42.61504" lon="1.73677">
        <ele>2544.415</ele>
        <time>2021-08-06T11:46:26Z</time>
      </trkpt>
      <trkpt lat="42.61504" lon="1.73677">
        <ele>2544.416</ele>
        <time>2021-08-06T11:46:28Z</time>
      </trkpt>
      <trkpt lat="42.61504" lon="1.73677">
        <ele>2544.422</ele>
        <time>2021-08-06T11:46:30Z</time>
      </trkpt>
      <trkpt lat="42.61504" lon="1.73677">
        <ele>2544.42</ele>
        <time>2021-08-06T11:46:32Z</time>
      </trkpt>
      <trkpt lat="42.61504" lon="1.73677">
        <ele>2544.423</ele>
        <time>2021-08-06T11:46:34Z</time>
      </trkpt>
      <trkpt lat="42.61504" lon="1.73677">
        <ele>2544.426</ele>
        <time>2021-08-06T11:46:36Z</time>
      </trkpt>
      <trkpt lat="42.61504" lon="1.73677">
        <ele>2544.426</ele>
        <time>2021-08-06T11:46:38Z</time>
      </trkpt>
      <trkpt lat="42.61504" lon="1.73677">
        <ele>2544.428</ele>
        <time>2021-08-06T11:46:40Z</time>
      </trkpt>
      <trkpt lat="42.61504" lon="1.73677">
        <ele>2544.429</ele>
        <time>2021-08-06T11:46:42Z</time>
      </trkpt>
      <trkpt lat="42.61504" lon="1.73677">
        <ele>2544.431</ele>
        <time>2021-08-06T11:46:44Z</time>
      </trkpt>
      <trkpt lat="42.61504" lon="1.73677">
        <ele>2544.424</ele>
        <time>2021-08-06T11:46:46Z</time>
      </trkpt>
      <trkpt lat="42.61504" lon="1.73677">
        <ele>2544.426</ele>
        <time>2021-08-06T11:46:48Z</time>
      </trkpt>
      <trkpt lat="42.61504" lon="1.73677">
        <ele>2544.422</ele>
        <time>2021-08-06T11:46:50Z</time>
      </trkpt>
      <trkpt lat="42.61504" lon="1.73677">
        <ele>2544.429</ele>
        <time>2021-08-06T11:46:52Z</time>
      </trkpt>
      <trkpt lat="42.61504" lon="1.73677">
        <ele>2544.428</ele>
        <time>2021-08-06T11:46:54Z</time>
      </trkpt>
      <trkpt lat="42.61504" lon="1.73677">
        <ele>2544.428</ele>
        <time>2021-08-06T11:46:56Z</time>
      </trkpt>
      <trkpt lat="42.61504" lon="1.73677">
        <ele>2544.436</ele>
        <time>2021-08-06T11:46:58Z</time>
      </trkpt>
      <trkpt lat="42.61504" lon="1.73677">
        <ele>2544.437</ele>
        <time>2021-08-06T11:47:00Z</time>
      </trkpt>
      <trkpt lat="42.61504" lon="1.73677">
        <ele>2544.437</ele>
        <time>2021-08-06T11:47:02Z</time>
      </trkpt>
      <trkpt lat="42.61504" lon="1.73677">
        <ele>2544.436</ele>
        <time>2021-08-06T11:47:04Z</time>
      </trkpt>
      <trkpt lat="42.61504" lon="1.73677">
        <ele>2544.435</ele>
        <time>2021-08-06T11:47:06Z</time>
      </trkpt>
      <trkpt lat="42.61504" lon="1.73677">
        <ele>2544.433</ele>
        <time>2021-08-06T11:47:08Z</time>
      </trkpt>
      <trkpt lat="42.61504" lon="1.73677">
        <ele>2544.436</ele>
        <time>2021-08-06T11:47:10Z</time>
      </trkpt>
      <trkpt lat="42.61504" lon="1.73677">
        <ele>2544.43</ele>
        <time>2021-08-06T11:47:12Z</time>
      </trkpt>
      <trkpt lat="42.61504" lon="1.73677">
        <ele>2544.436</ele>
        <time>2021-08-06T11:47:14Z</time>
      </trkpt>
      <trkpt lat="42.61504" lon="1.73677">
        <ele>2544.434</ele>
        <time>2021-08-06T11:47:16Z</time>
      </trkpt>
      <trkpt lat="42.61504" lon="1.73677">
        <ele>2544.435</ele>
        <time>2021-08-06T11:47:18Z</time>
      </trkpt>
      <trkpt lat="42.61504" lon="1.73677">
        <ele>2544.438</ele>
        <time>2021-08-06T11:47:20Z</time>
      </trkpt>
      <trkpt lat="42.61504" lon="1.73677">
        <ele>2544.437</ele>
        <time>2021-08-06T11:47:22Z</time>
      </trkpt>
      <trkpt lat="42.61504" lon="1.73677">
        <ele>2544.437</ele>
        <time>2021-08-06T11:47:24Z</time>
      </trkpt>
      <trkpt lat="42.61504" lon="1.73677">
        <ele>2544.438</ele>
        <time>2021-08-06T11:47:26Z</time>
      </trkpt>
      <trkpt lat="42.61504" lon="1.73677">
        <ele>2544.438</ele>
        <time>2021-08-06T11:47:28Z</time>
      </trkpt>
      <trkpt lat="42.61504" lon="1.73677">
        <ele>2544.437</ele>
        <time>2021-08-06T11:47:30Z</time>
      </trkpt>
      <trkpt lat="42.61504" lon="1.73677">
        <ele>2544.437</ele>
        <time>2021-08-06T11:47:32Z</time>
      </trkpt>
      <trkpt lat="42.61504" lon="1.73677">
        <ele>2544.433</ele>
        <time>2021-08-06T11:47:34Z</time>
      </trkpt>
      <trkpt lat="42.61504" lon="1.73677">
        <ele>2544.44</ele>
        <time>2021-08-06T11:47:36Z</time>
      </trkpt>
      <trkpt lat="42.61504" lon="1.73677">
        <ele>2544.443</ele>
        <time>2021-08-06T11:47:38Z</time>
      </trkpt>
      <trkpt lat="42.61504" lon="1.73677">
        <ele>2544.445</ele>
        <time>2021-08-06T11:47:40Z</time>
      </trkpt>
      <trkpt lat="42.61504" lon="1.73677">
        <ele>2544.44</ele>
        <time>2021-08-06T11:47:42Z</time>
      </trkpt>
      <trkpt lat="42.61504" lon="1.73677">
        <ele>2544.448</ele>
        <time>2021-08-06T11:47:44Z</time>
      </trkpt>
      <trkpt lat="42.61504" lon="1.73677">
        <ele>2544.447</ele>
        <time>2021-08-06T11:47:46Z</time>
      </trkpt>
      <trkpt lat="42.61504" lon="1.73677">
        <ele>2544.449</ele>
        <time>2021-08-06T11:47:48Z</time>
      </trkpt>
      <trkpt lat="42.61504" lon="1.73677">
        <ele>2544.454</ele>
        <time>2021-08-06T11:47:50Z</time>
      </trkpt>
      <trkpt lat="42.61504" lon="1.73677">
        <ele>2544.455</ele>
        <time>2021-08-06T11:47:52Z</time>
      </trkpt>
      <trkpt lat="42.61504" lon="1.73677">
        <ele>2544.452</ele>
        <time>2021-08-06T11:47:54Z</time>
      </trkpt>
      <trkpt lat="42.61504" lon="1.73677">
        <ele>2544.452</ele>
        <time>2021-08-06T11:47:56Z</time>
      </trkpt>
      <trkpt lat="42.61504" lon="1.73677">
        <ele>2544.454</ele>
        <time>2021-08-06T11:47:58Z</time>
      </trkpt>
      <trkpt lat="42.61504" lon="1.73677">
        <ele>2544.452</ele>
        <time>2021-08-06T11:48:00Z</time>
      </trkpt>
      <trkpt lat="42.61504" lon="1.73677">
        <ele>2544.455</ele>
        <time>2021-08-06T11:48:02Z</time>
      </trkpt>
      <trkpt lat="42.61504" lon="1.73677">
        <ele>2544.458</ele>
        <time>2021-08-06T11:48:04Z</time>
      </trkpt>
      <trkpt lat="42.61504" lon="1.73677">
        <ele>2544.459</ele>
        <time>2021-08-06T11:48:06Z</time>
      </trkpt>
      <trkpt lat="42.61504" lon="1.73677">
        <ele>2544.458</ele>
        <time>2021-08-06T11:48:08Z</time>
      </trkpt>
      <trkpt lat="42.61504" lon="1.73677">
        <ele>2544.459</ele>
        <time>2021-08-06T11:48:10Z</time>
      </trkpt>
      <trkpt lat="42.61504" lon="1.73677">
        <ele>2544.459</ele>
        <time>2021-08-06T11:48:12Z</time>
      </trkpt>
      <trkpt lat="42.61504" lon="1.73677">
        <ele>2544.46</ele>
        <time>2021-08-06T11:48:14Z</time>
      </trkpt>
      <trkpt lat="42.61504" lon="1.73677">
        <ele>2544.46</ele>
        <time>2021-08-06T11:48:16Z</time>
      </trkpt>
      <trkpt lat="42.61504" lon="1.73677">
        <ele>2544.462</ele>
        <time>2021-08-06T11:48:18Z</time>
      </trkpt>
      <trkpt lat="42.61504" lon="1.73677">
        <ele>2544.465</ele>
        <time>2021-08-06T11:48:20Z</time>
      </trkpt>
      <trkpt lat="42.61504" lon="1.73677">
        <ele>2544.466</ele>
        <time>2021-08-06T11:48:22Z</time>
      </trkpt>
      <trkpt lat="42.61504" lon="1.73677">
        <ele>2544.468</ele>
        <time>2021-08-06T11:48:24Z</time>
      </trkpt>
      <trkpt lat="42.61504" lon="1.73677">
        <ele>2544.467</ele>
        <time>2021-08-06T11:48:26Z</time>
      </trkpt>
      <trkpt lat="42.61504" lon="1.73677">
        <ele>2544.461</ele>
        <time>2021-08-06T11:48:28Z</time>
      </trkpt>
      <trkpt lat="42.61504" lon="1.73677">
        <ele>2544.462</ele>
        <time>2021-08-06T11:48:30Z</time>
      </trkpt>
      <trkpt lat="42.61504" lon="1.73677">
        <ele>2544.46</ele>
        <time>2021-08-06T11:48:32Z</time>
      </trkpt>
      <trkpt lat="42.61504" lon="1.73677">
        <ele>2544.458</ele>
        <time>2021-08-06T11:48:34Z</time>
      </trkpt>
      <trkpt lat="42.61504" lon="1.73677">
        <ele>2544.461</ele>
        <time>2021-08-06T11:48:36Z</time>
      </trkpt>
      <trkpt lat="42.61504" lon="1.73677">
        <ele>2544.46</ele>
        <time>2021-08-06T11:48:38Z</time>
      </trkpt>
      <trkpt lat="42.61504" lon="1.73677">
        <ele>2544.463</ele>
        <time>2021-08-06T11:48:40Z</time>
      </trkpt>
      <trkpt lat="42.61504" lon="1.73677">
        <ele>2544.463</ele>
        <time>2021-08-06T11:48:42Z</time>
      </trkpt>
      <trkpt lat="42.61504" lon="1.73677">
        <ele>2544.463</ele>
        <time>2021-08-06T11:48:44Z</time>
      </trkpt>
      <trkpt lat="42.61504" lon="1.73677">
        <ele>2544.459</ele>
        <time>2021-08-06T11:48:46Z</time>
      </trkpt>
      <trkpt lat="42.61504" lon="1.73677">
        <ele>2544.464</ele>
        <time>2021-08-06T11:48:48Z</time>
      </trkpt>
      <trkpt lat="42.61504" lon="1.73677">
        <ele>2544.463</ele>
        <time>2021-08-06T11:48:50Z</time>
      </trkpt>
      <trkpt lat="42.61504" lon="1.73677">
        <ele>2544.465</ele>
        <time>2021-08-06T11:48:52Z</time>
      </trkpt>
      <trkpt lat="42.61504" lon="1.73677">
        <ele>2544.463</ele>
        <time>2021-08-06T11:48:54Z</time>
      </trkpt>
      <trkpt lat="42.61504" lon="1.73677">
        <ele>2544.462</ele>
        <time>2021-08-06T11:48:56Z</time>
      </trkpt>
      <trkpt lat="42.61504" lon="1.73677">
        <ele>2544.461</ele>
        <time>2021-08-06T11:48:58Z</time>
      </trkpt>
      <trkpt lat="42.61504" lon="1.73677">
        <ele>2544.459</ele>
        <time>2021-08-06T11:49:00Z</time>
      </trkpt>
      <trkpt lat="42.61504" lon="1.73677">
        <ele>2544.453</ele>
        <time>2021-08-06T11:49:02Z</time>
      </trkpt>
      <trkpt lat="42.61504" lon="1.73677">
        <ele>2544.455</ele>
        <time>2021-08-06T11:49:04Z</time>
      </trkpt>
      <trkpt lat="42.61504" lon="1.73677">
        <ele>2544.451</ele>
        <time>2021-08-06T11:49:06Z</time>
      </trkpt>
      <trkpt lat="42.61504" lon="1.73677">
        <ele>2544.451</ele>
        <time>2021-08-06T11:49:08Z</time>
      </trkpt>
      <trkpt lat="42.61504" lon="1.73677">
        <ele>2544.449</ele>
        <time>2021-08-06T11:49:10Z</time>
      </trkpt>
      <trkpt lat="42.61504" lon="1.73677">
        <ele>2544.449</ele>
        <time>2021-08-06T11:49:12Z</time>
      </trkpt>
      <trkpt lat="42.61504" lon="1.73677">
        <ele>2544.446</ele>
        <time>2021-08-06T11:49:14Z</time>
      </trkpt>
      <trkpt lat="42.61504" lon="1.73677">
        <ele>2544.445</ele>
        <time>2021-08-06T11:49:16Z</time>
      </trkpt>
      <trkpt lat="42.61504" lon="1.73677">
        <ele>2544.446</ele>
        <time>2021-08-06T11:49:18Z</time>
      </trkpt>
      <trkpt lat="42.61504" lon="1.73677">
        <ele>2544.446</ele>
        <time>2021-08-06T11:49:20Z</time>
      </trkpt>
      <trkpt lat="42.61504" lon="1.73677">
        <ele>2544.449</ele>
        <time>2021-08-06T11:49:22Z</time>
      </trkpt>
      <trkpt lat="42.61504" lon="1.73677">
        <ele>2544.449</ele>
        <time>2021-08-06T11:49:24Z</time>
      </trkpt>
      <trkpt lat="42.61504" lon="1.73677">
        <ele>2544.449</ele>
        <time>2021-08-06T11:49:26Z</time>
      </trkpt>
      <trkpt lat="42.61504" lon="1.73677">
        <ele>2544.449</ele>
        <time>2021-08-06T11:49:28Z</time>
      </trkpt>
      <trkpt lat="42.61504" lon="1.73677">
        <ele>2544.452</ele>
        <time>2021-08-06T11:49:30Z</time>
      </trkpt>
      <trkpt lat="42.61504" lon="1.73677">
        <ele>2544.449</ele>
        <time>2021-08-06T11:49:32Z</time>
      </trkpt>
      <trkpt lat="42.61504" lon="1.73677">
        <ele>2544.45</ele>
        <time>2021-08-06T11:49:34Z</time>
      </trkpt>
      <trkpt lat="42.61504" lon="1.73677">
        <ele>2544.449</ele>
        <time>2021-08-06T11:49:36Z</time>
      </trkpt>
      <trkpt lat="42.61504" lon="1.73677">
        <ele>2544.448</ele>
        <time>2021-08-06T11:49:38Z</time>
      </trkpt>
      <trkpt lat="42.61504" lon="1.73677">
        <ele>2544.45</ele>
        <time>2021-08-06T11:49:40Z</time>
      </trkpt>
      <trkpt lat="42.61504" lon="1.73677">
        <ele>2544.452</ele>
        <time>2021-08-06T11:49:42Z</time>
      </trkpt>
      <trkpt lat="42.61504" lon="1.73677">
        <ele>2544.451</ele>
        <time>2021-08-06T11:49:44Z</time>
      </trkpt>
      <trkpt lat="42.61504" lon="1.73677">
        <ele>2544.454</ele>
        <time>2021-08-06T11:49:46Z</time>
      </trkpt>
      <trkpt lat="42.61504" lon="1.73677">
        <ele>2544.451</ele>
        <time>2021-08-06T11:49:48Z</time>
      </trkpt>
      <trkpt lat="42.61504" lon="1.73677">
        <ele>2544.455</ele>
        <time>2021-08-06T11:49:50Z</time>
      </trkpt>
      <trkpt lat="42.61504" lon="1.73677">
        <ele>2544.451</ele>
        <time>2021-08-06T11:49:52Z</time>
      </trkpt>
      <trkpt lat="42.61504" lon="1.73677">
        <ele>2544.455</ele>
        <time>2021-08-06T11:49:54Z</time>
      </trkpt>
      <trkpt lat="42.61504" lon="1.73677">
        <ele>2544.457</ele>
        <time>2021-08-06T11:49:56Z</time>
      </trkpt>
      <trkpt lat="42.61504" lon="1.73677">
        <ele>2544.46</ele>
        <time>2021-08-06T11:49:58Z</time>
      </trkpt>
      <trkpt lat="42.61504" lon="1.73677">
        <ele>2544.462</ele>
        <time>2021-08-06T11:50:00Z</time>
      </trkpt>
      <trkpt lat="42.61504" lon="1.73677">
        <ele>2544.466</ele>
        <time>2021-08-06T11:50:02Z</time>
      </trkpt>
      <trkpt lat="42.61504" lon="1.73677">
        <ele>2544.467</ele>
        <time>2021-08-06T11:50:04Z</time>
      </trkpt>
      <trkpt lat="42.61504" lon="1.73677">
        <ele>2544.466</ele>
        <time>2021-08-06T11:50:06Z</time>
      </trkpt>
      <trkpt lat="42.61504" lon="1.73677">
        <ele>2544.466</ele>
        <time>2021-08-06T11:50:08Z</time>
      </trkpt>
      <trkpt lat="42.61504" lon="1.73677">
        <ele>2544.469</ele>
        <time>2021-08-06T11:50:10Z</time>
      </trkpt>
      <trkpt lat="42.61504" lon="1.73677">
        <ele>2544.469</ele>
        <time>2021-08-06T11:50:12Z</time>
      </trkpt>
      <trkpt lat="42.61504" lon="1.73677">
        <ele>2544.471</ele>
        <time>2021-08-06T11:50:14Z</time>
      </trkpt>
      <trkpt lat="42.61504" lon="1.73677">
        <ele>2544.472</ele>
        <time>2021-08-06T11:50:16Z</time>
      </trkpt>
      <trkpt lat="42.61504" lon="1.73677">
        <ele>2544.476</ele>
        <time>2021-08-06T11:50:18Z</time>
      </trkpt>
      <trkpt lat="42.61504" lon="1.73677">
        <ele>2544.473</ele>
        <time>2021-08-06T11:50:20Z</time>
      </trkpt>
      <trkpt lat="42.61504" lon="1.73677">
        <ele>2544.472</ele>
        <time>2021-08-06T11:50:22Z</time>
      </trkpt>
      <trkpt lat="42.61504" lon="1.73677">
        <ele>2544.473</ele>
        <time>2021-08-06T11:50:24Z</time>
      </trkpt>
      <trkpt lat="42.61504" lon="1.73677">
        <ele>2544.471</ele>
        <time>2021-08-06T11:50:26Z</time>
      </trkpt>
      <trkpt lat="42.61504" lon="1.73677">
        <ele>2544.471</ele>
        <time>2021-08-06T11:50:28Z</time>
      </trkpt>
      <trkpt lat="42.61504" lon="1.73677">
        <ele>2544.473</ele>
        <time>2021-08-06T11:50:30Z</time>
      </trkpt>
      <trkpt lat="42.61504" lon="1.73677">
        <ele>2544.471</ele>
        <time>2021-08-06T11:50:32Z</time>
      </trkpt>
      <trkpt lat="42.61504" lon="1.73677">
        <ele>2544.473</ele>
        <time>2021-08-06T11:50:34Z</time>
      </trkpt>
      <trkpt lat="42.61504" lon="1.73677">
        <ele>2544.475</ele>
        <time>2021-08-06T11:50:36Z</time>
      </trkpt>
      <trkpt lat="42.61504" lon="1.73677">
        <ele>2544.476</ele>
        <time>2021-08-06T11:50:38Z</time>
      </trkpt>
      <trkpt lat="42.61504" lon="1.73677">
        <ele>2544.478</ele>
        <time>2021-08-06T11:50:40Z</time>
      </trkpt>
      <trkpt lat="42.61504" lon="1.73677">
        <ele>2544.482</ele>
        <time>2021-08-06T11:50:42Z</time>
      </trkpt>
      <trkpt lat="42.61504" lon="1.73677">
        <ele>2544.485</ele>
        <time>2021-08-06T11:50:44Z</time>
      </trkpt>
      <trkpt lat="42.61504" lon="1.73677">
        <ele>2544.487</ele>
        <time>2021-08-06T11:50:46Z</time>
      </trkpt>
      <trkpt lat="42.61504" lon="1.73677">
        <ele>2544.49</ele>
        <time>2021-08-06T11:50:48Z</time>
      </trkpt>
      <trkpt lat="42.61504" lon="1.73677">
        <ele>2544.489</ele>
        <time>2021-08-06T11:50:50Z</time>
      </trkpt>
      <trkpt lat="42.61504" lon="1.73677">
        <ele>2544.491</ele>
        <time>2021-08-06T11:50:52Z</time>
      </trkpt>
      <trkpt lat="42.61504" lon="1.73677">
        <ele>2544.494</ele>
        <time>2021-08-06T11:50:54Z</time>
      </trkpt>
      <trkpt lat="42.61504" lon="1.73677">
        <ele>2544.491</ele>
        <time>2021-08-06T11:50:56Z</time>
      </trkpt>
      <trkpt lat="42.61504" lon="1.73677">
        <ele>2544.491</ele>
        <time>2021-08-06T11:50:58Z</time>
      </trkpt>
      <trkpt lat="42.61504" lon="1.73677">
        <ele>2544.49</ele>
        <time>2021-08-06T11:51:00Z</time>
      </trkpt>
      <trkpt lat="42.61504" lon="1.73677">
        <ele>2544.489</ele>
        <time>2021-08-06T11:51:02Z</time>
      </trkpt>
      <trkpt lat="42.61504" lon="1.73677">
        <ele>2544.49</ele>
        <time>2021-08-06T11:51:04Z</time>
      </trkpt>
      <trkpt lat="42.61504" lon="1.73677">
        <ele>2544.491</ele>
        <time>2021-08-06T11:51:06Z</time>
      </trkpt>
      <trkpt lat="42.61504" lon="1.73677">
        <ele>2544.491</ele>
        <time>2021-08-06T11:51:08Z</time>
      </trkpt>
      <trkpt lat="42.61504" lon="1.73677">
        <ele>2544.494</ele>
        <time>2021-08-06T11:51:10Z</time>
      </trkpt>
      <trkpt lat="42.61504" lon="1.73677">
        <ele>2544.491</ele>
        <time>2021-08-06T11:51:12Z</time>
      </trkpt>
      <trkpt lat="42.61504" lon="1.73677">
        <ele>2544.493</ele>
        <time>2021-08-06T11:51:14Z</time>
      </trkpt>
      <trkpt lat="42.61504" lon="1.73677">
        <ele>2544.496</ele>
        <time>2021-08-06T11:51:16Z</time>
      </trkpt>
      <trkpt lat="42.61504" lon="1.73677">
        <ele>2544.493</ele>
        <time>2021-08-06T11:51:18Z</time>
      </trkpt>
      <trkpt lat="42.61504" lon="1.73677">
        <ele>2544.495</ele>
        <time>2021-08-06T11:51:20Z</time>
      </trkpt>
      <trkpt lat="42.61504" lon="1.73677">
        <ele>2544.496</ele>
        <time>2021-08-06T11:51:22Z</time>
      </trkpt>
      <trkpt lat="42.61504" lon="1.73677">
        <ele>2544.497</ele>
        <time>2021-08-06T11:51:24Z</time>
      </trkpt>
      <trkpt lat="42.61504" lon="1.73677">
        <ele>2544.499</ele>
        <time>2021-08-06T11:51:26Z</time>
      </trkpt>
      <trkpt lat="42.61504" lon="1.73677">
        <ele>2544.499</ele>
        <time>2021-08-06T11:51:28Z</time>
      </trkpt>
      <trkpt lat="42.61504" lon="1.73677">
        <ele>2544.501</ele>
        <time>2021-08-06T11:51:30Z</time>
      </trkpt>
      <trkpt lat="42.61504" lon="1.73677">
        <ele>2544.501</ele>
        <time>2021-08-06T11:51:32Z</time>
      </trkpt>
      <trkpt lat="42.61504" lon="1.73677">
        <ele>2544.501</ele>
        <time>2021-08-06T11:51:34Z</time>
      </trkpt>
      <trkpt lat="42.61504" lon="1.73677">
        <ele>2544.497</ele>
        <time>2021-08-06T11:51:36Z</time>
      </trkpt>
      <trkpt lat="42.61504" lon="1.73677">
        <ele>2544.499</ele>
        <time>2021-08-06T11:51:38Z</time>
      </trkpt>
      <trkpt lat="42.61504" lon="1.73677">
        <ele>2544.499</ele>
        <time>2021-08-06T11:51:40Z</time>
      </trkpt>
      <trkpt lat="42.61504" lon="1.73677">
        <ele>2544.503</ele>
        <time>2021-08-06T11:51:42Z</time>
      </trkpt>
      <trkpt lat="42.61504" lon="1.73677">
        <ele>2544.497</ele>
        <time>2021-08-06T11:51:44Z</time>
      </trkpt>
      <trkpt lat="42.61504" lon="1.73677">
        <ele>2544.499</ele>
        <time>2021-08-06T11:51:46Z</time>
      </trkpt>
      <trkpt lat="42.61504" lon="1.73677">
        <ele>2544.495</ele>
        <time>2021-08-06T11:51:48Z</time>
      </trkpt>
      <trkpt lat="42.61504" lon="1.73677">
        <ele>2544.495</ele>
        <time>2021-08-06T11:51:50Z</time>
      </trkpt>
      <trkpt lat="42.61504" lon="1.73677">
        <ele>2544.495</ele>
        <time>2021-08-06T11:51:52Z</time>
      </trkpt>
      <trkpt lat="42.61504" lon="1.73677">
        <ele>2544.498</ele>
        <time>2021-08-06T11:51:54Z</time>
      </trkpt>
      <trkpt lat="42.61504" lon="1.73677">
        <ele>2544.498</ele>
        <time>2021-08-06T11:51:56Z</time>
      </trkpt>
      <trkpt lat="42.61504" lon="1.73677">
        <ele>2544.503</ele>
        <time>2021-08-06T11:51:58Z</time>
      </trkpt>
      <trkpt lat="42.61504" lon="1.73677">
        <ele>2544.504</ele>
        <time>2021-08-06T11:52:00Z</time>
      </trkpt>
      <trkpt lat="42.61504" lon="1.73677">
        <ele>2544.507</ele>
        <time>2021-08-06T11:52:02Z</time>
      </trkpt>
      <trkpt lat="42.61504" lon="1.73677">
        <ele>2544.505</ele>
        <time>2021-08-06T11:52:04Z</time>
      </trkpt>
      <trkpt lat="42.61504" lon="1.73677">
        <ele>2544.51</ele>
        <time>2021-08-06T11:52:06Z</time>
      </trkpt>
      <trkpt lat="42.61504" lon="1.73677">
        <ele>2544.508</ele>
        <time>2021-08-06T11:52:08Z</time>
      </trkpt>
      <trkpt lat="42.61504" lon="1.73677">
        <ele>2544.512</ele>
        <time>2021-08-06T11:52:10Z</time>
      </trkpt>
      <trkpt lat="42.61504" lon="1.73677">
        <ele>2544.512</ele>
        <time>2021-08-06T11:52:12Z</time>
      </trkpt>
      <trkpt lat="42.61504" lon="1.73677">
        <ele>2544.512</ele>
        <time>2021-08-06T11:52:14Z</time>
      </trkpt>
      <trkpt lat="42.61504" lon="1.73677">
        <ele>2544.516</ele>
        <time>2021-08-06T11:52:16Z</time>
      </trkpt>
      <trkpt lat="42.61504" lon="1.73677">
        <ele>2544.517</ele>
        <time>2021-08-06T11:52:18Z</time>
      </trkpt>
      <trkpt lat="42.61504" lon="1.73677">
        <ele>2544.523</ele>
        <time>2021-08-06T11:52:20Z</time>
      </trkpt>
      <trkpt lat="42.61504" lon="1.73677">
        <ele>2544.523</ele>
        <time>2021-08-06T11:52:22Z</time>
      </trkpt>
      <trkpt lat="42.61504" lon="1.73677">
        <ele>2544.525</ele>
        <time>2021-08-06T11:52:24Z</time>
      </trkpt>
      <trkpt lat="42.61504" lon="1.73677">
        <ele>2544.526</ele>
        <time>2021-08-06T11:52:26Z</time>
      </trkpt>
      <trkpt lat="42.61504" lon="1.73677">
        <ele>2544.525</ele>
        <time>2021-08-06T11:52:28Z</time>
      </trkpt>
      <trkpt lat="42.61504" lon="1.73677">
        <ele>2544.523</ele>
        <time>2021-08-06T11:52:30Z</time>
      </trkpt>
      <trkpt lat="42.61504" lon="1.73677">
        <ele>2544.522</ele>
        <time>2021-08-06T11:52:32Z</time>
      </trkpt>
      <trkpt lat="42.61504" lon="1.73677">
        <ele>2544.523</ele>
        <time>2021-08-06T11:52:34Z</time>
      </trkpt>
      <trkpt lat="42.61504" lon="1.73677">
        <ele>2544.526</ele>
        <time>2021-08-06T11:52:36Z</time>
      </trkpt>
      <trkpt lat="42.61504" lon="1.73677">
        <ele>2544.523</ele>
        <time>2021-08-06T11:52:38Z</time>
      </trkpt>
      <trkpt lat="42.61504" lon="1.73677">
        <ele>2544.524</ele>
        <time>2021-08-06T11:52:40Z</time>
      </trkpt>
      <trkpt lat="42.61504" lon="1.73677">
        <ele>2544.529</ele>
        <time>2021-08-06T11:52:42Z</time>
      </trkpt>
      <trkpt lat="42.61504" lon="1.73677">
        <ele>2544.529</ele>
        <time>2021-08-06T11:52:44Z</time>
      </trkpt>
      <trkpt lat="42.61504" lon="1.73677">
        <ele>2544.526</ele>
        <time>2021-08-06T11:52:46Z</time>
      </trkpt>
      <trkpt lat="42.61504" lon="1.73677">
        <ele>2544.523</ele>
        <time>2021-08-06T11:52:48Z</time>
      </trkpt>
      <trkpt lat="42.61504" lon="1.73677">
        <ele>2544.523</ele>
        <time>2021-08-06T11:52:50Z</time>
      </trkpt>
      <trkpt lat="42.61504" lon="1.73677">
        <ele>2544.523</ele>
        <time>2021-08-06T11:52:52Z</time>
      </trkpt>
      <trkpt lat="42.61504" lon="1.73677">
        <ele>2544.523</ele>
        <time>2021-08-06T11:52:54Z</time>
      </trkpt>
      <trkpt lat="42.61504" lon="1.73677">
        <ele>2544.522</ele>
        <time>2021-08-06T11:52:56Z</time>
      </trkpt>
      <trkpt lat="42.61504" lon="1.73677">
        <ele>2544.522</ele>
        <time>2021-08-06T11:52:58Z</time>
      </trkpt>
      <trkpt lat="42.61504" lon="1.73677">
        <ele>2544.523</ele>
        <time>2021-08-06T11:53:00Z</time>
      </trkpt>
      <trkpt lat="42.61504" lon="1.73677">
        <ele>2544.525</ele>
        <time>2021-08-06T11:53:02Z</time>
      </trkpt>
      <trkpt lat="42.61504" lon="1.73677">
        <ele>2544.527</ele>
        <time>2021-08-06T11:53:04Z</time>
      </trkpt>
      <trkpt lat="42.61504" lon="1.73677">
        <ele>2544.529</ele>
        <time>2021-08-06T11:53:06Z</time>
      </trkpt>
      <trkpt lat="42.61504" lon="1.73677">
        <ele>2544.531</ele>
        <time>2021-08-06T11:53:08Z</time>
      </trkpt>
      <trkpt lat="42.61504" lon="1.73677">
        <ele>2544.533</ele>
        <time>2021-08-06T11:53:10Z</time>
      </trkpt>
      <trkpt lat="42.61504" lon="1.73677">
        <ele>2544.537</ele>
        <time>2021-08-06T11:53:12Z</time>
      </trkpt>
      <trkpt lat="42.61504" lon="1.73677">
        <ele>2544.539</ele>
        <time>2021-08-06T11:53:14Z</time>
      </trkpt>
      <trkpt lat="42.61504" lon="1.73677">
        <ele>2544.545</ele>
        <time>2021-08-06T11:53:16Z</time>
      </trkpt>
      <trkpt lat="42.61504" lon="1.73677">
        <ele>2544.547</ele>
        <time>2021-08-06T11:53:18Z</time>
      </trkpt>
      <trkpt lat="42.61504" lon="1.73677">
        <ele>2544.554</ele>
        <time>2021-08-06T11:53:20Z</time>
      </trkpt>
      <trkpt lat="42.61504" lon="1.73677">
        <ele>2544.553</ele>
        <time>2021-08-06T11:53:22Z</time>
      </trkpt>
      <trkpt lat="42.61504" lon="1.73677">
        <ele>2544.556</ele>
        <time>2021-08-06T11:53:24Z</time>
      </trkpt>
      <trkpt lat="42.61504" lon="1.73677">
        <ele>2544.555</ele>
        <time>2021-08-06T11:53:26Z</time>
      </trkpt>
      <trkpt lat="42.61504" lon="1.73677">
        <ele>2544.556</ele>
        <time>2021-08-06T11:53:28Z</time>
      </trkpt>
      <trkpt lat="42.61504" lon="1.73677">
        <ele>2544.554</ele>
        <time>2021-08-06T11:53:30Z</time>
      </trkpt>
      <trkpt lat="42.61504" lon="1.73677">
        <ele>2544.555</ele>
        <time>2021-08-06T11:53:32Z</time>
      </trkpt>
      <trkpt lat="42.61504" lon="1.73677">
        <ele>2544.555</ele>
        <time>2021-08-06T11:53:34Z</time>
      </trkpt>
      <trkpt lat="42.61504" lon="1.73677">
        <ele>2544.557</ele>
        <time>2021-08-06T11:53:36Z</time>
      </trkpt>
      <trkpt lat="42.61504" lon="1.73677">
        <ele>2544.555</ele>
        <time>2021-08-06T11:53:38Z</time>
      </trkpt>
      <trkpt lat="42.61504" lon="1.73677">
        <ele>2544.555</ele>
        <time>2021-08-06T11:53:40Z</time>
      </trkpt>
      <trkpt lat="42.61504" lon="1.73677">
        <ele>2544.554</ele>
        <time>2021-08-06T11:53:42Z</time>
      </trkpt>
      <trkpt lat="42.61504" lon="1.73677">
        <ele>2544.554</ele>
        <time>2021-08-06T11:53:44Z</time>
      </trkpt>
      <trkpt lat="42.61504" lon="1.73677">
        <ele>2544.554</ele>
        <time>2021-08-06T11:53:46Z</time>
      </trkpt>
      <trkpt lat="42.61504" lon="1.73677">
        <ele>2544.553</ele>
        <time>2021-08-06T11:53:48Z</time>
      </trkpt>
      <trkpt lat="42.61504" lon="1.73677">
        <ele>2544.55</ele>
        <time>2021-08-06T11:53:50Z</time>
      </trkpt>
      <trkpt lat="42.61504" lon="1.73677">
        <ele>2544.548</ele>
        <time>2021-08-06T11:53:52Z</time>
      </trkpt>
      <trkpt lat="42.61504" lon="1.73677">
        <ele>2544.546</ele>
        <time>2021-08-06T11:53:54Z</time>
      </trkpt>
      <trkpt lat="42.61504" lon="1.73677">
        <ele>2544.547</ele>
        <time>2021-08-06T11:53:56Z</time>
      </trkpt>
      <trkpt lat="42.61504" lon="1.73677">
        <ele>2544.55</ele>
        <time>2021-08-06T11:53:58Z</time>
      </trkpt>
      <trkpt lat="42.61504" lon="1.73677">
        <ele>2544.545</ele>
        <time>2021-08-06T11:54:00Z</time>
      </trkpt>
      <trkpt lat="42.61504" lon="1.73677">
        <ele>2544.545</ele>
        <time>2021-08-06T11:54:02Z</time>
      </trkpt>
      <trkpt lat="42.61504" lon="1.73677">
        <ele>2544.545</ele>
        <time>2021-08-06T11:54:04Z</time>
      </trkpt>
      <trkpt lat="42.61504" lon="1.73677">
        <ele>2544.542</ele>
        <time>2021-08-06T11:54:06Z</time>
      </trkpt>
      <trkpt lat="42.61504" lon="1.73677">
        <ele>2544.54</ele>
        <time>2021-08-06T11:54:08Z</time>
      </trkpt>
      <trkpt lat="42.61504" lon="1.73677">
        <ele>2544.539</ele>
        <time>2021-08-06T11:54:10Z</time>
      </trkpt>
      <trkpt lat="42.61504" lon="1.73677">
        <ele>2544.538</ele>
        <time>2021-08-06T11:54:12Z</time>
      </trkpt>
      <trkpt lat="42.61504" lon="1.73677">
        <ele>2544.538</ele>
        <time>2021-08-06T11:54:14Z</time>
      </trkpt>
      <trkpt lat="42.61504" lon="1.73677">
        <ele>2544.539</ele>
        <time>2021-08-06T11:54:16Z</time>
      </trkpt>
      <trkpt lat="42.61504" lon="1.73677">
        <ele>2544.538</ele>
        <time>2021-08-06T11:54:18Z</time>
      </trkpt>
      <trkpt lat="42.61504" lon="1.73677">
        <ele>2544.651</ele>
        <time>2021-08-06T11:54:20Z</time>
      </trkpt>
      <trkpt lat="42.61504" lon="1.73677">
        <ele>2544.649</ele>
        <time>2021-08-06T11:54:22Z</time>
      </trkpt>
      <trkpt lat="42.61504" lon="1.73677">
        <ele>2544.647</ele>
        <time>2021-08-06T11:54:24Z</time>
      </trkpt>
      <trkpt lat="42.61504" lon="1.73677">
        <ele>2544.647</ele>
        <time>2021-08-06T11:54:26Z</time>
      </trkpt>
      <trkpt lat="42.61504" lon="1.73677">
        <ele>2544.643</ele>
        <time>2021-08-06T11:54:28Z</time>
      </trkpt>
      <trkpt lat="42.61504" lon="1.73677">
        <ele>2544.644</ele>
        <time>2021-08-06T11:54:30Z</time>
      </trkpt>
      <trkpt lat="42.61504" lon="1.73677">
        <ele>2544.647</ele>
        <time>2021-08-06T11:54:32Z</time>
      </trkpt>
      <trkpt lat="42.61504" lon="1.73677">
        <ele>2544.65</ele>
        <time>2021-08-06T11:54:34Z</time>
      </trkpt>
      <trkpt lat="42.61504" lon="1.73677">
        <ele>2544.655</ele>
        <time>2021-08-06T11:54:36Z</time>
      </trkpt>
      <trkpt lat="42.61504" lon="1.73677">
        <ele>2544.657</ele>
        <time>2021-08-06T11:54:38Z</time>
      </trkpt>
      <trkpt lat="42.61504" lon="1.73677">
        <ele>2544.658</ele>
        <time>2021-08-06T11:54:40Z</time>
      </trkpt>
      <trkpt lat="42.61504" lon="1.73677">
        <ele>2544.66</ele>
        <time>2021-08-06T11:54:42Z</time>
      </trkpt>
      <trkpt lat="42.61504" lon="1.73677">
        <ele>2544.656</ele>
        <time>2021-08-06T11:54:44Z</time>
      </trkpt>
      <trkpt lat="42.61504" lon="1.73677">
        <ele>2544.658</ele>
        <time>2021-08-06T11:54:46Z</time>
      </trkpt>
      <trkpt lat="42.61504" lon="1.73677">
        <ele>2544.663</ele>
        <time>2021-08-06T11:54:48Z</time>
      </trkpt>
      <trkpt lat="42.61504" lon="1.73677">
        <ele>2544.664</ele>
        <time>2021-08-06T11:54:50Z</time>
      </trkpt>
      <trkpt lat="42.61504" lon="1.73677">
        <ele>2544.664</ele>
        <time>2021-08-06T11:54:52Z</time>
      </trkpt>
      <trkpt lat="42.61504" lon="1.73677">
        <ele>2544.664</ele>
        <time>2021-08-06T11:54:54Z</time>
      </trkpt>
      <trkpt lat="42.61504" lon="1.73677">
        <ele>2544.666</ele>
        <time>2021-08-06T11:54:56Z</time>
      </trkpt>
      <trkpt lat="42.61504" lon="1.73677">
        <ele>2544.669</ele>
        <time>2021-08-06T11:54:58Z</time>
      </trkpt>
      <trkpt lat="42.61504" lon="1.73677">
        <ele>2544.662</ele>
        <time>2021-08-06T11:55:00Z</time>
      </trkpt>
      <trkpt lat="42.61504" lon="1.73677">
        <ele>2544.661</ele>
        <time>2021-08-06T11:55:02Z</time>
      </trkpt>
      <trkpt lat="42.61504" lon="1.73677">
        <ele>2544.665</ele>
        <time>2021-08-06T11:55:04Z</time>
      </trkpt>
      <trkpt lat="42.61504" lon="1.73677">
        <ele>2544.664</ele>
        <time>2021-08-06T11:55:06Z</time>
      </trkpt>
      <trkpt lat="42.61504" lon="1.73677">
        <ele>2544.664</ele>
        <time>2021-08-06T11:55:08Z</time>
      </trkpt>
      <trkpt lat="42.61504" lon="1.73677">
        <ele>2544.662</ele>
        <time>2021-08-06T11:55:10Z</time>
      </trkpt>
      <trkpt lat="42.61504" lon="1.73677">
        <ele>2544.662</ele>
        <time>2021-08-06T11:55:12Z</time>
      </trkpt>
      <trkpt lat="42.61504" lon="1.73677">
        <ele>2544.657</ele>
        <time>2021-08-06T11:55:14Z</time>
      </trkpt>
      <trkpt lat="42.61504" lon="1.73677">
        <ele>2544.662</ele>
        <time>2021-08-06T11:55:16Z</time>
      </trkpt>
      <trkpt lat="42.61504" lon="1.73677">
        <ele>2544.665</ele>
        <time>2021-08-06T11:55:18Z</time>
      </trkpt>
      <trkpt lat="42.61504" lon="1.73677">
        <ele>2544.663</ele>
        <time>2021-08-06T11:55:20Z</time>
      </trkpt>
      <trkpt lat="42.61504" lon="1.73677">
        <ele>2544.661</ele>
        <time>2021-08-06T11:55:22Z</time>
      </trkpt>
      <trkpt lat="42.61504" lon="1.73677">
        <ele>2544.658</ele>
        <time>2021-08-06T11:55:24Z</time>
      </trkpt>
      <trkpt lat="42.61504" lon="1.73677">
        <ele>2544.655</ele>
        <time>2021-08-06T11:55:26Z</time>
      </trkpt>
      <trkpt lat="42.61504" lon="1.73677">
        <ele>2544.657</ele>
        <time>2021-08-06T11:55:28Z</time>
      </trkpt>
      <trkpt lat="42.61504" lon="1.73677">
        <ele>2544.653</ele>
        <time>2021-08-06T11:55:30Z</time>
      </trkpt>
      <trkpt lat="42.61504" lon="1.73677">
        <ele>2544.653</ele>
        <time>2021-08-06T11:55:32Z</time>
      </trkpt>
      <trkpt lat="42.61504" lon="1.73677">
        <ele>2544.654</ele>
        <time>2021-08-06T11:55:34Z</time>
      </trkpt>
      <trkpt lat="42.61504" lon="1.73677">
        <ele>2544.654</ele>
        <time>2021-08-06T11:55:36Z</time>
      </trkpt>
      <trkpt lat="42.61504" lon="1.73677">
        <ele>2544.657</ele>
        <time>2021-08-06T11:55:38Z</time>
      </trkpt>
      <trkpt lat="42.61504" lon="1.73677">
        <ele>2544.657</ele>
        <time>2021-08-06T11:55:40Z</time>
      </trkpt>
      <trkpt lat="42.61504" lon="1.73677">
        <ele>2544.657</ele>
        <time>2021-08-06T11:55:42Z</time>
      </trkpt>
      <trkpt lat="42.61504" lon="1.73677">
        <ele>2544.657</ele>
        <time>2021-08-06T11:55:44Z</time>
      </trkpt>
      <trkpt lat="42.61504" lon="1.73677">
        <ele>2544.655</ele>
        <time>2021-08-06T11:55:46Z</time>
      </trkpt>
      <trkpt lat="42.61504" lon="1.73677">
        <ele>2544.654</ele>
        <time>2021-08-06T11:55:48Z</time>
      </trkpt>
      <trkpt lat="42.61504" lon="1.73677">
        <ele>2544.653</ele>
        <time>2021-08-06T11:55:50Z</time>
      </trkpt>
      <trkpt lat="42.61504" lon="1.73677">
        <ele>2544.658</ele>
        <time>2021-08-06T11:55:52Z</time>
      </trkpt>
      <trkpt lat="42.61504" lon="1.73677">
        <ele>2544.663</ele>
        <time>2021-08-06T11:55:54Z</time>
      </trkpt>
      <trkpt lat="42.61504" lon="1.73677">
        <ele>2544.665</ele>
        <time>2021-08-06T11:55:56Z</time>
      </trkpt>
      <trkpt lat="42.61504" lon="1.73677">
        <ele>2544.665</ele>
        <time>2021-08-06T11:55:58Z</time>
      </trkpt>
      <trkpt lat="42.61504" lon="1.73677">
        <ele>2544.667</ele>
        <time>2021-08-06T11:56:00Z</time>
      </trkpt>
      <trkpt lat="42.61504" lon="1.73677">
        <ele>2544.664</ele>
        <time>2021-08-06T11:56:02Z</time>
      </trkpt>
      <trkpt lat="42.61504" lon="1.73677">
        <ele>2544.663</ele>
        <time>2021-08-06T11:56:04Z</time>
      </trkpt>
      <trkpt lat="42.61504" lon="1.73677">
        <ele>2544.662</ele>
        <time>2021-08-06T11:56:06Z</time>
      </trkpt>
      <trkpt lat="42.61504" lon="1.73677">
        <ele>2544.667</ele>
        <time>2021-08-06T11:56:08Z</time>
      </trkpt>
      <trkpt lat="42.61504" lon="1.73677">
        <ele>2544.667</ele>
        <time>2021-08-06T11:56:10Z</time>
      </trkpt>
      <trkpt lat="42.61504" lon="1.73677">
        <ele>2544.677</ele>
        <time>2021-08-06T11:56:12Z</time>
      </trkpt>
      <trkpt lat="42.61504" lon="1.73677">
        <ele>2544.677</ele>
        <time>2021-08-06T11:56:14Z</time>
      </trkpt>
      <trkpt lat="42.61504" lon="1.73677">
        <ele>2544.677</ele>
        <time>2021-08-06T11:56:16Z</time>
      </trkpt>
      <trkpt lat="42.61504" lon="1.73677">
        <ele>2544.681</ele>
        <time>2021-08-06T11:56:18Z</time>
      </trkpt>
      <trkpt lat="42.61504" lon="1.73677">
        <ele>2544.679</ele>
        <time>2021-08-06T11:56:20Z</time>
      </trkpt>
      <trkpt lat="42.61504" lon="1.73677">
        <ele>2544.683</ele>
        <time>2021-08-06T11:56:22Z</time>
      </trkpt>
      <trkpt lat="42.61504" lon="1.73677">
        <ele>2544.683</ele>
        <time>2021-08-06T11:56:24Z</time>
      </trkpt>
      <trkpt lat="42.61504" lon="1.73677">
        <ele>2544.682</ele>
        <time>2021-08-06T11:56:26Z</time>
      </trkpt>
      <trkpt lat="42.61504" lon="1.73677">
        <ele>2544.687</ele>
        <time>2021-08-06T11:56:28Z</time>
      </trkpt>
      <trkpt lat="42.61504" lon="1.73677">
        <ele>2544.685</ele>
        <time>2021-08-06T11:56:30Z</time>
      </trkpt>
      <trkpt lat="42.61504" lon="1.73677">
        <ele>2544.685</ele>
        <time>2021-08-06T11:56:32Z</time>
      </trkpt>
      <trkpt lat="42.61504" lon="1.73677">
        <ele>2544.687</ele>
        <time>2021-08-06T11:56:34Z</time>
      </trkpt>
      <trkpt lat="42.61504" lon="1.73677">
        <ele>2544.689</ele>
        <time>2021-08-06T11:56:36Z</time>
      </trkpt>
      <trkpt lat="42.61504" lon="1.73677">
        <ele>2544.689</ele>
        <time>2021-08-06T11:56:38Z</time>
      </trkpt>
      <trkpt lat="42.61504" lon="1.73677">
        <ele>2544.691</ele>
        <time>2021-08-06T11:56:40Z</time>
      </trkpt>
      <trkpt lat="42.61504" lon="1.73677">
        <ele>2544.691</ele>
        <time>2021-08-06T11:56:42Z</time>
      </trkpt>
      <trkpt lat="42.61504" lon="1.73677">
        <ele>2544.694</ele>
        <time>2021-08-06T11:56:44Z</time>
      </trkpt>
      <trkpt lat="42.61504" lon="1.73677">
        <ele>2544.692</ele>
        <time>2021-08-06T11:56:46Z</time>
      </trkpt>
      <trkpt lat="42.61504" lon="1.73677">
        <ele>2544.693</ele>
        <time>2021-08-06T11:56:48Z</time>
      </trkpt>
      <trkpt lat="42.61504" lon="1.73677">
        <ele>2544.689</ele>
        <time>2021-08-06T11:56:50Z</time>
      </trkpt>
      <trkpt lat="42.61504" lon="1.73677">
        <ele>2544.689</ele>
        <time>2021-08-06T11:56:52Z</time>
      </trkpt>
      <trkpt lat="42.61504" lon="1.73677">
        <ele>2544.691</ele>
        <time>2021-08-06T11:56:54Z</time>
      </trkpt>
      <trkpt lat="42.61504" lon="1.73677">
        <ele>2544.692</ele>
        <time>2021-08-06T11:56:56Z</time>
      </trkpt>
      <trkpt lat="42.61504" lon="1.73677">
        <ele>2544.688</ele>
        <time>2021-08-06T11:56:58Z</time>
      </trkpt>
      <trkpt lat="42.61504" lon="1.73677">
        <ele>2544.688</ele>
        <time>2021-08-06T11:57:00Z</time>
      </trkpt>
      <trkpt lat="42.61504" lon="1.73677">
        <ele>2544.686</ele>
        <time>2021-08-06T11:57:02Z</time>
      </trkpt>
      <trkpt lat="42.61504" lon="1.73677">
        <ele>2544.687</ele>
        <time>2021-08-06T11:57:04Z</time>
      </trkpt>
      <trkpt lat="42.61504" lon="1.73677">
        <ele>2544.683</ele>
        <time>2021-08-06T11:57:06Z</time>
      </trkpt>
      <trkpt lat="42.61504" lon="1.73677">
        <ele>2544.678</ele>
        <time>2021-08-06T11:57:08Z</time>
      </trkpt>
      <trkpt lat="42.61504" lon="1.73677">
        <ele>2544.677</ele>
        <time>2021-08-06T11:57:10Z</time>
      </trkpt>
      <trkpt lat="42.61504" lon="1.73677">
        <ele>2544.678</ele>
        <time>2021-08-06T11:57:12Z</time>
      </trkpt>
      <trkpt lat="42.61504" lon="1.73677">
        <ele>2544.681</ele>
        <time>2021-08-06T11:57:14Z</time>
      </trkpt>
      <trkpt lat="42.61504" lon="1.73677">
        <ele>2544.683</ele>
        <time>2021-08-06T11:57:16Z</time>
      </trkpt>
      <trkpt lat="42.61504" lon="1.73677">
        <ele>2544.68</ele>
        <time>2021-08-06T11:57:18Z</time>
      </trkpt>
      <trkpt lat="42.61504" lon="1.73677">
        <ele>2544.678</ele>
        <time>2021-08-06T11:57:20Z</time>
      </trkpt>
      <trkpt lat="42.61504" lon="1.73677">
        <ele>2544.677</ele>
        <time>2021-08-06T11:57:22Z</time>
      </trkpt>
      <trkpt lat="42.61504" lon="1.73677">
        <ele>2544.683</ele>
        <time>2021-08-06T11:57:24Z</time>
      </trkpt>
      <trkpt lat="42.61504" lon="1.73677">
        <ele>2544.684</ele>
        <time>2021-08-06T11:57:26Z</time>
      </trkpt>
      <trkpt lat="42.61504" lon="1.73677">
        <ele>2544.679</ele>
        <time>2021-08-06T11:57:28Z</time>
      </trkpt>
      <trkpt lat="42.61507" lon="1.73681">
        <ele>2545.618</ele>
        <time>2021-08-06T12:00:13Z</time>
      </trkpt>
      <trkpt lat="42.61507" lon="1.73678">
        <ele>2546.238</ele>
        <time>2021-08-06T12:00:17Z</time>
      </trkpt>
      <trkpt lat="42.61507" lon="1.73682">
        <ele>2550.193</ele>
        <time>2021-08-06T12:00:19Z</time>
      </trkpt>
      <trkpt lat="42.61507" lon="1.73683">
        <ele>2547.612</ele>
        <time>2021-08-06T12:00:21Z</time>
      </trkpt>
      <trkpt lat="42.61508" lon="1.73683">
        <ele>2547.411</ele>
        <time>2021-08-06T12:00:23Z</time>
      </trkpt>
      <trkpt lat="42.61507" lon="1.73684">
        <ele>2548.725</ele>
        <time>2021-08-06T12:00:25Z</time>
      </trkpt>
      <trkpt lat="42.61507" lon="1.73684">
        <ele>2549.517</ele>
        <time>2021-08-06T12:00:27Z</time>
      </trkpt>
      <trkpt lat="42.61506" lon="1.73683">
        <ele>2549.086</ele>
        <time>2021-08-06T12:00:29Z</time>
      </trkpt>
      <trkpt lat="42.61507" lon="1.73683">
        <ele>2550.289</ele>
        <time>2021-08-06T12:00:31Z</time>
      </trkpt>
      <trkpt lat="42.61507" lon="1.73683">
        <ele>2551.892</ele>
        <time>2021-08-06T12:00:33Z</time>
      </trkpt>
      <trkpt lat="42.61507" lon="1.73684">
        <ele>2552.92</ele>
        <time>2021-08-06T12:00:35Z</time>
      </trkpt>
      <trkpt lat="42.61507" lon="1.73684">
        <ele>2552.888</ele>
        <time>2021-08-06T12:00:37Z</time>
      </trkpt>
      <trkpt lat="42.61507" lon="1.73684">
        <ele>2552.841</ele>
        <time>2021-08-06T12:00:39Z</time>
      </trkpt>
      <trkpt lat="42.61507" lon="1.73684">
        <ele>2552.815</ele>
        <time>2021-08-06T12:00:41Z</time>
      </trkpt>
      <trkpt lat="42.61506" lon="1.73682">
        <ele>2551.896</ele>
        <time>2021-08-06T12:00:43Z</time>
      </trkpt>
      <trkpt lat="42.61505" lon="1.7368">
        <ele>2550.162</ele>
        <time>2021-08-06T12:00:45Z</time>
      </trkpt>
      <trkpt lat="42.61505" lon="1.73681">
        <ele>2550.53</ele>
        <time>2021-08-06T12:00:47Z</time>
      </trkpt>
      <trkpt lat="42.61505" lon="1.73681">
        <ele>2550.481</ele>
        <time>2021-08-06T12:00:49Z</time>
      </trkpt>
      <trkpt lat="42.61505" lon="1.73681">
        <ele>2550.136</ele>
        <time>2021-08-06T12:00:51Z</time>
      </trkpt>
      <trkpt lat="42.61505" lon="1.73681">
        <ele>2550.054</ele>
        <time>2021-08-06T12:00:53Z</time>
      </trkpt>
      <trkpt lat="42.61505" lon="1.7368">
        <ele>2549.008</ele>
        <time>2021-08-06T12:00:55Z</time>
      </trkpt>
      <trkpt lat="42.61505" lon="1.7368">
        <ele>2548.896</ele>
        <time>2021-08-06T12:00:57Z</time>
      </trkpt>
      <trkpt lat="42.61505" lon="1.7368">
        <ele>2548.951</ele>
        <time>2021-08-06T12:00:59Z</time>
      </trkpt>
      <trkpt lat="42.61505" lon="1.7368">
        <ele>2548.963</ele>
        <time>2021-08-06T12:01:01Z</time>
      </trkpt>
      <trkpt lat="42.61505" lon="1.7368">
        <ele>2548.964</ele>
        <time>2021-08-06T12:01:03Z</time>
      </trkpt>
      <trkpt lat="42.61505" lon="1.7368">
        <ele>2548.975</ele>
        <time>2021-08-06T12:01:05Z</time>
      </trkpt>
      <trkpt lat="42.61505" lon="1.7368">
        <ele>2548.969</ele>
        <time>2021-08-06T12:01:07Z</time>
      </trkpt>
      <trkpt lat="42.61505" lon="1.7368">
        <ele>2548.945</ele>
        <time>2021-08-06T12:01:09Z</time>
      </trkpt>
      <trkpt lat="42.61505" lon="1.7368">
        <ele>2548.935</ele>
        <time>2021-08-06T12:01:11Z</time>
      </trkpt>
      <trkpt lat="42.61505" lon="1.7368">
        <ele>2548.933</ele>
        <time>2021-08-06T12:01:13Z</time>
      </trkpt>
      <trkpt lat="42.61505" lon="1.7368">
        <ele>2548.935</ele>
        <time>2021-08-06T12:01:15Z</time>
      </trkpt>
      <trkpt lat="42.61505" lon="1.7368">
        <ele>2548.933</ele>
        <time>2021-08-06T12:01:17Z</time>
      </trkpt>
      <trkpt lat="42.61505" lon="1.7368">
        <ele>2548.911</ele>
        <time>2021-08-06T12:01:19Z</time>
      </trkpt>
      <trkpt lat="42.61505" lon="1.7368">
        <ele>2548.927</ele>
        <time>2021-08-06T12:01:21Z</time>
      </trkpt>
      <trkpt lat="42.61505" lon="1.7368">
        <ele>2548.916</ele>
        <time>2021-08-06T12:01:23Z</time>
      </trkpt>
      <trkpt lat="42.61505" lon="1.7368">
        <ele>2548.895</ele>
        <time>2021-08-06T12:01:25Z</time>
      </trkpt>
      <trkpt lat="42.61505" lon="1.7368">
        <ele>2548.892</ele>
        <time>2021-08-06T12:01:27Z</time>
      </trkpt>
      <trkpt lat="42.61505" lon="1.7368">
        <ele>2548.904</ele>
        <time>2021-08-06T12:01:29Z</time>
      </trkpt>
      <trkpt lat="42.61505" lon="1.7368">
        <ele>2548.899</ele>
        <time>2021-08-06T12:01:31Z</time>
      </trkpt>
      <trkpt lat="42.61505" lon="1.7368">
        <ele>2548.911</ele>
        <time>2021-08-06T12:01:33Z</time>
      </trkpt>
      <trkpt lat="42.61505" lon="1.7368">
        <ele>2548.919</ele>
        <time>2021-08-06T12:01:35Z</time>
      </trkpt>
      <trkpt lat="42.61505" lon="1.7368">
        <ele>2548.923</ele>
        <time>2021-08-06T12:01:37Z</time>
      </trkpt>
      <trkpt lat="42.61505" lon="1.7368">
        <ele>2548.922</ele>
        <time>2021-08-06T12:01:39Z</time>
      </trkpt>
      <trkpt lat="42.61505" lon="1.7368">
        <ele>2548.918</ele>
        <time>2021-08-06T12:01:41Z</time>
      </trkpt>
      <trkpt lat="42.61505" lon="1.7368">
        <ele>2548.914</ele>
        <time>2021-08-06T12:01:43Z</time>
      </trkpt>
      <trkpt lat="42.61505" lon="1.7368">
        <ele>2548.906</ele>
        <time>2021-08-06T12:01:45Z</time>
      </trkpt>
      <trkpt lat="42.61505" lon="1.7368">
        <ele>2548.892</ele>
        <time>2021-08-06T12:01:47Z</time>
      </trkpt>
      <trkpt lat="42.61505" lon="1.7368">
        <ele>2548.889</ele>
        <time>2021-08-06T12:01:49Z</time>
      </trkpt>
      <trkpt lat="42.61505" lon="1.7368">
        <ele>2548.886</ele>
        <time>2021-08-06T12:01:51Z</time>
      </trkpt>
      <trkpt lat="42.61505" lon="1.7368">
        <ele>2548.898</ele>
        <time>2021-08-06T12:01:53Z</time>
      </trkpt>
      <trkpt lat="42.61505" lon="1.7368">
        <ele>2548.885</ele>
        <time>2021-08-06T12:01:55Z</time>
      </trkpt>
      <trkpt lat="42.61505" lon="1.7368">
        <ele>2548.87</ele>
        <time>2021-08-06T12:01:57Z</time>
      </trkpt>
      <trkpt lat="42.61505" lon="1.7368">
        <ele>2548.865</ele>
        <time>2021-08-06T12:01:59Z</time>
      </trkpt>
      <trkpt lat="42.61505" lon="1.7368">
        <ele>2548.867</ele>
        <time>2021-08-06T12:02:01Z</time>
      </trkpt>
      <trkpt lat="42.61505" lon="1.7368">
        <ele>2548.864</ele>
        <time>2021-08-06T12:02:03Z</time>
      </trkpt>
      <trkpt lat="42.61505" lon="1.7368">
        <ele>2548.866</ele>
        <time>2021-08-06T12:02:05Z</time>
      </trkpt>
      <trkpt lat="42.61505" lon="1.7368">
        <ele>2548.873</ele>
        <time>2021-08-06T12:02:07Z</time>
      </trkpt>
      <trkpt lat="42.61505" lon="1.7368">
        <ele>2548.878</ele>
        <time>2021-08-06T12:02:09Z</time>
      </trkpt>
      <trkpt lat="42.61505" lon="1.7368">
        <ele>2548.875</ele>
        <time>2021-08-06T12:02:11Z</time>
      </trkpt>
      <trkpt lat="42.61505" lon="1.7368">
        <ele>2548.878</ele>
        <time>2021-08-06T12:02:13Z</time>
      </trkpt>
      <trkpt lat="42.61505" lon="1.7368">
        <ele>2548.873</ele>
        <time>2021-08-06T12:02:15Z</time>
      </trkpt>
      <trkpt lat="42.61505" lon="1.7368">
        <ele>2548.865</ele>
        <time>2021-08-06T12:02:17Z</time>
      </trkpt>
      <trkpt lat="42.61505" lon="1.7368">
        <ele>2548.855</ele>
        <time>2021-08-06T12:02:19Z</time>
      </trkpt>
      <trkpt lat="42.61505" lon="1.7368">
        <ele>2548.551</ele>
        <time>2021-08-06T12:02:21Z</time>
      </trkpt>
      <trkpt lat="42.61505" lon="1.7368">
        <ele>2548.515</ele>
        <time>2021-08-06T12:02:23Z</time>
      </trkpt>
      <trkpt lat="42.61505" lon="1.7368">
        <ele>2548.473</ele>
        <time>2021-08-06T12:02:25Z</time>
      </trkpt>
      <trkpt lat="42.61505" lon="1.7368">
        <ele>2548.387</ele>
        <time>2021-08-06T12:02:27Z</time>
      </trkpt>
      <trkpt lat="42.61505" lon="1.7368">
        <ele>2548.265</ele>
        <time>2021-08-06T12:02:29Z</time>
      </trkpt>
      <trkpt lat="42.61505" lon="1.7368">
        <ele>2548.163</ele>
        <time>2021-08-06T12:02:31Z</time>
      </trkpt>
      <trkpt lat="42.61505" lon="1.7368">
        <ele>2548.188</ele>
        <time>2021-08-06T12:02:33Z</time>
      </trkpt>
      <trkpt lat="42.61505" lon="1.7368">
        <ele>2548.193</ele>
        <time>2021-08-06T12:02:35Z</time>
      </trkpt>
      <trkpt lat="42.61505" lon="1.7368">
        <ele>2548.191</ele>
        <time>2021-08-06T12:02:37Z</time>
      </trkpt>
      <trkpt lat="42.61505" lon="1.7368">
        <ele>2548.187</ele>
        <time>2021-08-06T12:02:39Z</time>
      </trkpt>
      <trkpt lat="42.61505" lon="1.7368">
        <ele>2548.239</ele>
        <time>2021-08-06T12:02:41Z</time>
      </trkpt>
      <trkpt lat="42.61505" lon="1.7368">
        <ele>2548.221</ele>
        <time>2021-08-06T12:02:43Z</time>
      </trkpt>
      <trkpt lat="42.61505" lon="1.7368">
        <ele>2548.223</ele>
        <time>2021-08-06T12:02:45Z</time>
      </trkpt>
      <trkpt lat="42.61505" lon="1.73679">
        <ele>2548.518</ele>
        <time>2021-08-06T12:02:47Z</time>
      </trkpt>
      <trkpt lat="42.61505" lon="1.73679">
        <ele>2549.269</ele>
        <time>2021-08-06T12:02:49Z</time>
      </trkpt>
      <trkpt lat="42.61506" lon="1.7368">
        <ele>2550.555</ele>
        <time>2021-08-06T12:02:51Z</time>
      </trkpt>
      <trkpt lat="42.61505" lon="1.7368">
        <ele>2550.77</ele>
        <time>2021-08-06T12:02:53Z</time>
      </trkpt>
      <trkpt lat="42.61506" lon="1.7368">
        <ele>2551.771</ele>
        <time>2021-08-06T12:02:55Z</time>
      </trkpt>
      <trkpt lat="42.61506" lon="1.7368">
        <ele>2552.333</ele>
        <time>2021-08-06T12:02:57Z</time>
      </trkpt>
      <trkpt lat="42.61506" lon="1.7368">
        <ele>2552.077</ele>
        <time>2021-08-06T12:02:59Z</time>
      </trkpt>
      <trkpt lat="42.61506" lon="1.7368">
        <ele>2552.02</ele>
        <time>2021-08-06T12:03:01Z</time>
      </trkpt>
      <trkpt lat="42.61506" lon="1.7368">
        <ele>2552.015</ele>
        <time>2021-08-06T12:03:03Z</time>
      </trkpt>
      <trkpt lat="42.61506" lon="1.7368">
        <ele>2552.021</ele>
        <time>2021-08-06T12:03:05Z</time>
      </trkpt>
      <trkpt lat="42.61506" lon="1.7368">
        <ele>2552</ele>
        <time>2021-08-06T12:03:07Z</time>
      </trkpt>
      <trkpt lat="42.61506" lon="1.7368">
        <ele>2551.994</ele>
        <time>2021-08-06T12:03:09Z</time>
      </trkpt>
      <trkpt lat="42.61506" lon="1.7368">
        <ele>2551.998</ele>
        <time>2021-08-06T12:03:11Z</time>
      </trkpt>
      <trkpt lat="42.61506" lon="1.7368">
        <ele>2551.995</ele>
        <time>2021-08-06T12:03:13Z</time>
      </trkpt>
      <trkpt lat="42.61506" lon="1.7368">
        <ele>2551.977</ele>
        <time>2021-08-06T12:03:15Z</time>
      </trkpt>
      <trkpt lat="42.61506" lon="1.7368">
        <ele>2551.98</ele>
        <time>2021-08-06T12:03:17Z</time>
      </trkpt>
      <trkpt lat="42.61506" lon="1.7368">
        <ele>2551.979</ele>
        <time>2021-08-06T12:03:19Z</time>
      </trkpt>
      <trkpt lat="42.61506" lon="1.7368">
        <ele>2551.982</ele>
        <time>2021-08-06T12:03:21Z</time>
      </trkpt>
      <trkpt lat="42.61506" lon="1.7368">
        <ele>2551.985</ele>
        <time>2021-08-06T12:03:23Z</time>
      </trkpt>
      <trkpt lat="42.61506" lon="1.7368">
        <ele>2551.985</ele>
        <time>2021-08-06T12:03:25Z</time>
      </trkpt>
      <trkpt lat="42.61506" lon="1.7368">
        <ele>2551.991</ele>
        <time>2021-08-06T12:03:27Z</time>
      </trkpt>
      <trkpt lat="42.61505" lon="1.7368">
        <ele>2551.997</ele>
        <time>2021-08-06T12:03:29Z</time>
      </trkpt>
      <trkpt lat="42.61505" lon="1.7368">
        <ele>2552.021</ele>
        <time>2021-08-06T12:03:31Z</time>
      </trkpt>
      <trkpt lat="42.61505" lon="1.7368">
        <ele>2552.025</ele>
        <time>2021-08-06T12:03:33Z</time>
      </trkpt>
      <trkpt lat="42.61505" lon="1.7368">
        <ele>2552.02</ele>
        <time>2021-08-06T12:03:35Z</time>
      </trkpt>
      <trkpt lat="42.61505" lon="1.7368">
        <ele>2552.004</ele>
        <time>2021-08-06T12:03:37Z</time>
      </trkpt>
      <trkpt lat="42.61505" lon="1.7368">
        <ele>2551.993</ele>
        <time>2021-08-06T12:03:39Z</time>
      </trkpt>
      <trkpt lat="42.61505" lon="1.7368">
        <ele>2551.827</ele>
        <time>2021-08-06T12:03:41Z</time>
      </trkpt>
      <trkpt lat="42.61505" lon="1.73681">
        <ele>2551.557</ele>
        <time>2021-08-06T12:03:43Z</time>
      </trkpt>
      <trkpt lat="42.61505" lon="1.73681">
        <ele>2551.6</ele>
        <time>2021-08-06T12:03:45Z</time>
      </trkpt>
      <trkpt lat="42.61505" lon="1.73681">
        <ele>2551.668</ele>
        <time>2021-08-06T12:03:47Z</time>
      </trkpt>
      <trkpt lat="42.61506" lon="1.73681">
        <ele>2551.371</ele>
        <time>2021-08-06T12:03:49Z</time>
      </trkpt>
      <trkpt lat="42.61506" lon="1.73681">
        <ele>2551.345</ele>
        <time>2021-08-06T12:03:51Z</time>
      </trkpt>
      <trkpt lat="42.61506" lon="1.73681">
        <ele>2551.9</ele>
        <time>2021-08-06T12:03:53Z</time>
      </trkpt>
      <trkpt lat="42.61505" lon="1.73681">
        <ele>2552.101</ele>
        <time>2021-08-06T12:03:55Z</time>
      </trkpt>
      <trkpt lat="42.61506" lon="1.73682">
        <ele>2553.34</ele>
        <time>2021-08-06T12:03:57Z</time>
      </trkpt>
      <trkpt lat="42.61506" lon="1.73682">
        <ele>2553.301</ele>
        <time>2021-08-06T12:03:59Z</time>
      </trkpt>
      <trkpt lat="42.61506" lon="1.73682">
        <ele>2553.254</ele>
        <time>2021-08-06T12:04:01Z</time>
      </trkpt>
      <trkpt lat="42.61506" lon="1.73682">
        <ele>2553.253</ele>
        <time>2021-08-06T12:04:03Z</time>
      </trkpt>
      <trkpt lat="42.61506" lon="1.73682">
        <ele>2553.255</ele>
        <time>2021-08-06T12:04:05Z</time>
      </trkpt>
      <trkpt lat="42.61506" lon="1.73682">
        <ele>2553.247</ele>
        <time>2021-08-06T12:04:07Z</time>
      </trkpt>
      <trkpt lat="42.61506" lon="1.73682">
        <ele>2553.252</ele>
        <time>2021-08-06T12:04:09Z</time>
      </trkpt>
      <trkpt lat="42.61506" lon="1.73682">
        <ele>2553.244</ele>
        <time>2021-08-06T12:04:11Z</time>
      </trkpt>
      <trkpt lat="42.61506" lon="1.73682">
        <ele>2553.235</ele>
        <time>2021-08-06T12:04:13Z</time>
      </trkpt>
      <trkpt lat="42.61506" lon="1.73682">
        <ele>2553.228</ele>
        <time>2021-08-06T12:04:15Z</time>
      </trkpt>
      <trkpt lat="42.61506" lon="1.73682">
        <ele>2553.237</ele>
        <time>2021-08-06T12:04:17Z</time>
      </trkpt>
      <trkpt lat="42.61506" lon="1.73682">
        <ele>2553.226</ele>
        <time>2021-08-06T12:04:19Z</time>
      </trkpt>
      <trkpt lat="42.61506" lon="1.73682">
        <ele>2553.234</ele>
        <time>2021-08-06T12:04:21Z</time>
      </trkpt>
      <trkpt lat="42.61506" lon="1.73682">
        <ele>2553.221</ele>
        <time>2021-08-06T12:04:23Z</time>
      </trkpt>
      <trkpt lat="42.61506" lon="1.73682">
        <ele>2553.219</ele>
        <time>2021-08-06T12:04:25Z</time>
      </trkpt>
      <trkpt lat="42.61506" lon="1.73682">
        <ele>2553.217</ele>
        <time>2021-08-06T12:04:27Z</time>
      </trkpt>
      <trkpt lat="42.61506" lon="1.7368">
        <ele>2552.728</ele>
        <time>2021-08-06T12:04:29Z</time>
      </trkpt>
      <trkpt lat="42.61506" lon="1.73679">
        <ele>2552.939</ele>
        <time>2021-08-06T12:04:31Z</time>
      </trkpt>
      <trkpt lat="42.61506" lon="1.73678">
        <ele>2552.145</ele>
        <time>2021-08-06T12:04:33Z</time>
      </trkpt>
      <trkpt lat="42.61506" lon="1.73677">
        <ele>2551.394</ele>
        <time>2021-08-06T12:04:35Z</time>
      </trkpt>
      <trkpt lat="42.61506" lon="1.73677">
        <ele>2551.386</ele>
        <time>2021-08-06T12:04:37Z</time>
      </trkpt>
      <trkpt lat="42.61506" lon="1.73677">
        <ele>2551.387</ele>
        <time>2021-08-06T12:04:39Z</time>
      </trkpt>
      <trkpt lat="42.61506" lon="1.73676">
        <ele>2552.01</ele>
        <time>2021-08-06T12:04:41Z</time>
      </trkpt>
      <trkpt lat="42.61505" lon="1.73674">
        <ele>2552.26</ele>
        <time>2021-08-06T12:04:43Z</time>
      </trkpt>
      <trkpt lat="42.61505" lon="1.73674">
        <ele>2552.813</ele>
        <time>2021-08-06T12:04:45Z</time>
      </trkpt>
      <trkpt lat="42.61505" lon="1.73674">
        <ele>2553.618</ele>
        <time>2021-08-06T12:04:47Z</time>
      </trkpt>
      <trkpt lat="42.61505" lon="1.73673">
        <ele>2554.333</ele>
        <time>2021-08-06T12:04:49Z</time>
      </trkpt>
      <trkpt lat="42.61505" lon="1.73672">
        <ele>2554.579</ele>
        <time>2021-08-06T12:04:51Z</time>
      </trkpt>
      <trkpt lat="42.61505" lon="1.73671">
        <ele>2554.943</ele>
        <time>2021-08-06T12:04:53Z</time>
      </trkpt>
      <trkpt lat="42.61504" lon="1.73668">
        <ele>2554.766</ele>
        <time>2021-08-06T12:04:55Z</time>
      </trkpt>
      <trkpt lat="42.61504" lon="1.73666">
        <ele>2555.071</ele>
        <time>2021-08-06T12:04:57Z</time>
      </trkpt>
      <trkpt lat="42.61504" lon="1.73664">
        <ele>2554.78</ele>
        <time>2021-08-06T12:04:59Z</time>
      </trkpt>
      <trkpt lat="42.61505" lon="1.73662">
        <ele>2555</ele>
        <time>2021-08-06T12:05:01Z</time>
      </trkpt>
      <trkpt lat="42.61506" lon="1.7366">
        <ele>2554.515</ele>
        <time>2021-08-06T12:05:03Z</time>
      </trkpt>
      <trkpt lat="42.61506" lon="1.73658">
        <ele>2554.364</ele>
        <time>2021-08-06T12:05:05Z</time>
      </trkpt>
      <trkpt lat="42.61506" lon="1.73656">
        <ele>2553.575</ele>
        <time>2021-08-06T12:05:07Z</time>
      </trkpt>
      <trkpt lat="42.61506" lon="1.73653">
        <ele>2553.131</ele>
        <time>2021-08-06T12:05:09Z</time>
      </trkpt>
      <trkpt lat="42.61506" lon="1.73651">
        <ele>2552.58</ele>
        <time>2021-08-06T12:05:11Z</time>
      </trkpt>
      <trkpt lat="42.61506" lon="1.73651">
        <ele>2552.476</ele>
        <time>2021-08-06T12:05:13Z</time>
      </trkpt>
      <trkpt lat="42.61506" lon="1.73651">
        <ele>2552.473</ele>
        <time>2021-08-06T12:05:15Z</time>
      </trkpt>
      <trkpt lat="42.61506" lon="1.7365">
        <ele>2551.766</ele>
        <time>2021-08-06T12:05:17Z</time>
      </trkpt>
      <trkpt lat="42.61507" lon="1.7365">
        <ele>2551.834</ele>
        <time>2021-08-06T12:05:19Z</time>
      </trkpt>
      <trkpt lat="42.61507" lon="1.7365">
        <ele>2551.833</ele>
        <time>2021-08-06T12:05:21Z</time>
      </trkpt>
      <trkpt lat="42.61507" lon="1.7365">
        <ele>2551.824</ele>
        <time>2021-08-06T12:05:23Z</time>
      </trkpt>
      <trkpt lat="42.61507" lon="1.7365">
        <ele>2551.819</ele>
        <time>2021-08-06T12:05:25Z</time>
      </trkpt>
      <trkpt lat="42.61507" lon="1.73649">
        <ele>2551.929</ele>
        <time>2021-08-06T12:05:27Z</time>
      </trkpt>
      <trkpt lat="42.61508" lon="1.73648">
        <ele>2551.486</ele>
        <time>2021-08-06T12:05:29Z</time>
      </trkpt>
      <trkpt lat="42.61509" lon="1.73646">
        <ele>2551.636</ele>
        <time>2021-08-06T12:05:31Z</time>
      </trkpt>
      <trkpt lat="42.6151" lon="1.73644">
        <ele>2552.075</ele>
        <time>2021-08-06T12:05:33Z</time>
      </trkpt>
      <trkpt lat="42.61511" lon="1.73642">
        <ele>2551.448</ele>
        <time>2021-08-06T12:05:35Z</time>
      </trkpt>
      <trkpt lat="42.61511" lon="1.73641">
        <ele>2551.429</ele>
        <time>2021-08-06T12:05:37Z</time>
      </trkpt>
      <trkpt lat="42.61511" lon="1.73639">
        <ele>2551.205</ele>
        <time>2021-08-06T12:05:39Z</time>
      </trkpt>
      <trkpt lat="42.61511" lon="1.73639">
        <ele>2551.225</ele>
        <time>2021-08-06T12:05:41Z</time>
      </trkpt>
      <trkpt lat="42.61512" lon="1.73638">
        <ele>2551.621</ele>
        <time>2021-08-06T12:05:43Z</time>
      </trkpt>
      <trkpt lat="42.61512" lon="1.73636">
        <ele>2551.458</ele>
        <time>2021-08-06T12:05:45Z</time>
      </trkpt>
      <trkpt lat="42.61513" lon="1.73633">
        <ele>2551.271</ele>
        <time>2021-08-06T12:05:47Z</time>
      </trkpt>
      <trkpt lat="42.61513" lon="1.73632">
        <ele>2550.302</ele>
        <time>2021-08-06T12:05:49Z</time>
      </trkpt>
      <trkpt lat="42.61513" lon="1.73633">
        <ele>2550.647</ele>
        <time>2021-08-06T12:05:51Z</time>
      </trkpt>
      <trkpt lat="42.61514" lon="1.73632">
        <ele>2550.817</ele>
        <time>2021-08-06T12:05:53Z</time>
      </trkpt>
      <trkpt lat="42.61514" lon="1.73631">
        <ele>2551.268</ele>
        <time>2021-08-06T12:05:55Z</time>
      </trkpt>
      <trkpt lat="42.61514" lon="1.73629">
        <ele>2551.524</ele>
        <time>2021-08-06T12:05:57Z</time>
      </trkpt>
      <trkpt lat="42.61514" lon="1.73628">
        <ele>2551.204</ele>
        <time>2021-08-06T12:05:59Z</time>
      </trkpt>
      <trkpt lat="42.61515" lon="1.73627">
        <ele>2550.393</ele>
        <time>2021-08-06T12:06:01Z</time>
      </trkpt>
      <trkpt lat="42.61516" lon="1.73626">
        <ele>2550.356</ele>
        <time>2021-08-06T12:06:03Z</time>
      </trkpt>
      <trkpt lat="42.61517" lon="1.73626">
        <ele>2550.043</ele>
        <time>2021-08-06T12:06:05Z</time>
      </trkpt>
      <trkpt lat="42.61518" lon="1.73626">
        <ele>2549.534</ele>
        <time>2021-08-06T12:06:07Z</time>
      </trkpt>
      <trkpt lat="42.61519" lon="1.73626">
        <ele>2549.446</ele>
        <time>2021-08-06T12:06:09Z</time>
      </trkpt>
      <trkpt lat="42.6152" lon="1.73625">
        <ele>2549.345</ele>
        <time>2021-08-06T12:06:11Z</time>
      </trkpt>
      <trkpt lat="42.61521" lon="1.73625">
        <ele>2549.66</ele>
        <time>2021-08-06T12:06:13Z</time>
      </trkpt>
      <trkpt lat="42.61522" lon="1.73624">
        <ele>2549.048</ele>
        <time>2021-08-06T12:06:15Z</time>
      </trkpt>
      <trkpt lat="42.61523" lon="1.73623">
        <ele>2548.261</ele>
        <time>2021-08-06T12:06:17Z</time>
      </trkpt>
      <trkpt lat="42.61523" lon="1.73622">
        <ele>2547.317</ele>
        <time>2021-08-06T12:06:19Z</time>
      </trkpt>
      <trkpt lat="42.61524" lon="1.73621">
        <ele>2547.097</ele>
        <time>2021-08-06T12:06:21Z</time>
      </trkpt>
      <trkpt lat="42.61524" lon="1.7362">
        <ele>2546.428</ele>
        <time>2021-08-06T12:06:23Z</time>
      </trkpt>
      <trkpt lat="42.61525" lon="1.73618">
        <ele>2545.988</ele>
        <time>2021-08-06T12:06:25Z</time>
      </trkpt>
      <trkpt lat="42.61525" lon="1.73616">
        <ele>2545.665</ele>
        <time>2021-08-06T12:06:27Z</time>
      </trkpt>
      <trkpt lat="42.61525" lon="1.73614">
        <ele>2545.316</ele>
        <time>2021-08-06T12:06:29Z</time>
      </trkpt>
      <trkpt lat="42.61526" lon="1.73612">
        <ele>2545.705</ele>
        <time>2021-08-06T12:06:31Z</time>
      </trkpt>
      <trkpt lat="42.61527" lon="1.7361">
        <ele>2546.231</ele>
        <time>2021-08-06T12:06:33Z</time>
      </trkpt>
      <trkpt lat="42.61527" lon="1.73609">
        <ele>2546.513</ele>
        <time>2021-08-06T12:06:35Z</time>
      </trkpt>
      <trkpt lat="42.61525" lon="1.73607">
        <ele>2546.429</ele>
        <time>2021-08-06T12:06:37Z</time>
      </trkpt>
      <trkpt lat="42.61524" lon="1.73608">
        <ele>2545.959</ele>
        <time>2021-08-06T12:06:39Z</time>
      </trkpt>
      <trkpt lat="42.61523" lon="1.73608">
        <ele>2545.958</ele>
        <time>2021-08-06T12:06:41Z</time>
      </trkpt>
      <trkpt lat="42.61523" lon="1.73608">
        <ele>2545.974</ele>
        <time>2021-08-06T12:06:43Z</time>
      </trkpt>
      <trkpt lat="42.61524" lon="1.73608">
        <ele>2545.904</ele>
        <time>2021-08-06T12:06:45Z</time>
      </trkpt>
      <trkpt lat="42.61524" lon="1.73608">
        <ele>2545.827</ele>
        <time>2021-08-06T12:06:47Z</time>
      </trkpt>
      <trkpt lat="42.61524" lon="1.73608">
        <ele>2545.819</ele>
        <time>2021-08-06T12:06:49Z</time>
      </trkpt>
      <trkpt lat="42.61524" lon="1.73608">
        <ele>2545.818</ele>
        <time>2021-08-06T12:06:51Z</time>
      </trkpt>
      <trkpt lat="42.61524" lon="1.73608">
        <ele>2545.818</ele>
        <time>2021-08-06T12:06:53Z</time>
      </trkpt>
      <trkpt lat="42.61524" lon="1.73608">
        <ele>2545.818</ele>
        <time>2021-08-06T12:06:55Z</time>
      </trkpt>
      <trkpt lat="42.61524" lon="1.73608">
        <ele>2545.817</ele>
        <time>2021-08-06T12:06:57Z</time>
      </trkpt>
      <trkpt lat="42.61524" lon="1.73608">
        <ele>2545.817</ele>
        <time>2021-08-06T12:06:59Z</time>
      </trkpt>
      <trkpt lat="42.61524" lon="1.73607">
        <ele>2545.824</ele>
        <time>2021-08-06T12:07:01Z</time>
      </trkpt>
      <trkpt lat="42.61524" lon="1.73607">
        <ele>2545.829</ele>
        <time>2021-08-06T12:07:03Z</time>
      </trkpt>
      <trkpt lat="42.61525" lon="1.73606">
        <ele>2546.051</ele>
        <time>2021-08-06T12:07:05Z</time>
      </trkpt>
      <trkpt lat="42.61525" lon="1.73605">
        <ele>2546.324</ele>
        <time>2021-08-06T12:07:07Z</time>
      </trkpt>
      <trkpt lat="42.61525" lon="1.73603">
        <ele>2546.119</ele>
        <time>2021-08-06T12:07:09Z</time>
      </trkpt>
      <trkpt lat="42.61526" lon="1.73601">
        <ele>2546.521</ele>
        <time>2021-08-06T12:07:11Z</time>
      </trkpt>
      <trkpt lat="42.61526" lon="1.736">
        <ele>2546.362</ele>
        <time>2021-08-06T12:07:13Z</time>
      </trkpt>
      <trkpt lat="42.61525" lon="1.736">
        <ele>2546.264</ele>
        <time>2021-08-06T12:07:15Z</time>
      </trkpt>
      <trkpt lat="42.61525" lon="1.736">
        <ele>2546.263</ele>
        <time>2021-08-06T12:07:17Z</time>
      </trkpt>
      <trkpt lat="42.61525" lon="1.736">
        <ele>2546.266</ele>
        <time>2021-08-06T12:07:19Z</time>
      </trkpt>
      <trkpt lat="42.61525" lon="1.736">
        <ele>2546.271</ele>
        <time>2021-08-06T12:07:21Z</time>
      </trkpt>
      <trkpt lat="42.61525" lon="1.736">
        <ele>2546.275</ele>
        <time>2021-08-06T12:07:23Z</time>
      </trkpt>
      <trkpt lat="42.61525" lon="1.736">
        <ele>2546.278</ele>
        <time>2021-08-06T12:07:25Z</time>
      </trkpt>
      <trkpt lat="42.61525" lon="1.736">
        <ele>2546.283</ele>
        <time>2021-08-06T12:07:27Z</time>
      </trkpt>
      <trkpt lat="42.61525" lon="1.736">
        <ele>2546.283</ele>
        <time>2021-08-06T12:07:29Z</time>
      </trkpt>
      <trkpt lat="42.61525" lon="1.736">
        <ele>2546.288</ele>
        <time>2021-08-06T12:07:31Z</time>
      </trkpt>
      <trkpt lat="42.61525" lon="1.736">
        <ele>2546.288</ele>
        <time>2021-08-06T12:07:33Z</time>
      </trkpt>
      <trkpt lat="42.61525" lon="1.736">
        <ele>2546.301</ele>
        <time>2021-08-06T12:07:35Z</time>
      </trkpt>
      <trkpt lat="42.61525" lon="1.736">
        <ele>2546.306</ele>
        <time>2021-08-06T12:07:37Z</time>
      </trkpt>
      <trkpt lat="42.61525" lon="1.736">
        <ele>2546.301</ele>
        <time>2021-08-06T12:07:39Z</time>
      </trkpt>
      <trkpt lat="42.61525" lon="1.736">
        <ele>2546.303</ele>
        <time>2021-08-06T12:07:41Z</time>
      </trkpt>
      <trkpt lat="42.61525" lon="1.736">
        <ele>2546.303</ele>
        <time>2021-08-06T12:07:43Z</time>
      </trkpt>
      <trkpt lat="42.61525" lon="1.736">
        <ele>2546.296</ele>
        <time>2021-08-06T12:07:45Z</time>
      </trkpt>
      <trkpt lat="42.61525" lon="1.736">
        <ele>2546.292</ele>
        <time>2021-08-06T12:07:47Z</time>
      </trkpt>
      <trkpt lat="42.61525" lon="1.736">
        <ele>2546.296</ele>
        <time>2021-08-06T12:07:49Z</time>
      </trkpt>
      <trkpt lat="42.61525" lon="1.736">
        <ele>2546.537</ele>
        <time>2021-08-06T12:07:51Z</time>
      </trkpt>
      <trkpt lat="42.61525" lon="1.73599">
        <ele>2546.59</ele>
        <time>2021-08-06T12:07:53Z</time>
      </trkpt>
      <trkpt lat="42.61524" lon="1.73598">
        <ele>2546.317</ele>
        <time>2021-08-06T12:07:55Z</time>
      </trkpt>
      <trkpt lat="42.61523" lon="1.73597">
        <ele>2546.072</ele>
        <time>2021-08-06T12:07:57Z</time>
      </trkpt>
      <trkpt lat="42.61523" lon="1.73596">
        <ele>2546.289</ele>
        <time>2021-08-06T12:07:59Z</time>
      </trkpt>
      <trkpt lat="42.61523" lon="1.73595">
        <ele>2546.135</ele>
        <time>2021-08-06T12:08:01Z</time>
      </trkpt>
      <trkpt lat="42.61524" lon="1.73593">
        <ele>2546.231</ele>
        <time>2021-08-06T12:08:03Z</time>
      </trkpt>
      <trkpt lat="42.61524" lon="1.73592">
        <ele>2547.198</ele>
        <time>2021-08-06T12:08:05Z</time>
      </trkpt>
      <trkpt lat="42.61524" lon="1.73591">
        <ele>2547.405</ele>
        <time>2021-08-06T12:08:07Z</time>
      </trkpt>
      <trkpt lat="42.61523" lon="1.7359">
        <ele>2547.242</ele>
        <time>2021-08-06T12:08:09Z</time>
      </trkpt>
      <trkpt lat="42.61522" lon="1.73589">
        <ele>2547.051</ele>
        <time>2021-08-06T12:08:11Z</time>
      </trkpt>
      <trkpt lat="42.6152" lon="1.73589">
        <ele>2546.088</ele>
        <time>2021-08-06T12:08:13Z</time>
      </trkpt>
      <trkpt lat="42.61518" lon="1.73589">
        <ele>2545.213</ele>
        <time>2021-08-06T12:08:15Z</time>
      </trkpt>
      <trkpt lat="42.61517" lon="1.73587">
        <ele>2544.413</ele>
        <time>2021-08-06T12:08:17Z</time>
      </trkpt>
      <trkpt lat="42.61516" lon="1.73585">
        <ele>2544.753</ele>
        <time>2021-08-06T12:08:19Z</time>
      </trkpt>
      <trkpt lat="42.61514" lon="1.73583">
        <ele>2544.483</ele>
        <time>2021-08-06T12:08:21Z</time>
      </trkpt>
      <trkpt lat="42.61513" lon="1.73581">
        <ele>2544.153</ele>
        <time>2021-08-06T12:08:23Z</time>
      </trkpt>
      <trkpt lat="42.61512" lon="1.73578">
        <ele>2543.244</ele>
        <time>2021-08-06T12:08:25Z</time>
      </trkpt>
      <trkpt lat="42.61511" lon="1.73576">
        <ele>2542.347</ele>
        <time>2021-08-06T12:08:27Z</time>
      </trkpt>
      <trkpt lat="42.61509" lon="1.73575">
        <ele>2542.322</ele>
        <time>2021-08-06T12:08:29Z</time>
      </trkpt>
      <trkpt lat="42.61507" lon="1.73575">
        <ele>2541.346</ele>
        <time>2021-08-06T12:08:31Z</time>
      </trkpt>
      <trkpt lat="42.61505" lon="1.73575">
        <ele>2540.622</ele>
        <time>2021-08-06T12:08:33Z</time>
      </trkpt>
      <trkpt lat="42.61502" lon="1.73574">
        <ele>2539.575</ele>
        <time>2021-08-06T12:08:35Z</time>
      </trkpt>
      <trkpt lat="42.615" lon="1.73572">
        <ele>2537.588</ele>
        <time>2021-08-06T12:08:37Z</time>
      </trkpt>
      <trkpt lat="42.61498" lon="1.7357">
        <ele>2537.508</ele>
        <time>2021-08-06T12:08:39Z</time>
      </trkpt>
      <trkpt lat="42.61496" lon="1.73568">
        <ele>2536.584</ele>
        <time>2021-08-06T12:08:41Z</time>
      </trkpt>
      <trkpt lat="42.61496" lon="1.73565">
        <ele>2536.336</ele>
        <time>2021-08-06T12:08:43Z</time>
      </trkpt>
      <trkpt lat="42.61496" lon="1.73562">
        <ele>2536.634</ele>
        <time>2021-08-06T12:08:45Z</time>
      </trkpt>
      <trkpt lat="42.61496" lon="1.7356">
        <ele>2535.982</ele>
        <time>2021-08-06T12:08:47Z</time>
      </trkpt>
      <trkpt lat="42.61496" lon="1.73557">
        <ele>2535.713</ele>
        <time>2021-08-06T12:08:49Z</time>
      </trkpt>
      <trkpt lat="42.61494" lon="1.73554">
        <ele>2535.066</ele>
        <time>2021-08-06T12:08:51Z</time>
      </trkpt>
      <trkpt lat="42.61492" lon="1.73552">
        <ele>2535.712</ele>
        <time>2021-08-06T12:08:53Z</time>
      </trkpt>
      <trkpt lat="42.6149" lon="1.73551">
        <ele>2535.141</ele>
        <time>2021-08-06T12:08:55Z</time>
      </trkpt>
      <trkpt lat="42.6149" lon="1.7355">
        <ele>2535.478</ele>
        <time>2021-08-06T12:08:56Z</time>
      </trkpt>
      <trkpt lat="42.61487" lon="1.73547">
        <ele>2534.683</ele>
        <time>2021-08-06T12:08:59Z</time>
      </trkpt>
      <trkpt lat="42.61485" lon="1.73545">
        <ele>2534.633</ele>
        <time>2021-08-06T12:09:01Z</time>
      </trkpt>
      <trkpt lat="42.61483" lon="1.73544">
        <ele>2534.061</ele>
        <time>2021-08-06T12:09:03Z</time>
      </trkpt>
      <trkpt lat="42.61481" lon="1.73542">
        <ele>2533.2</ele>
        <time>2021-08-06T12:09:05Z</time>
      </trkpt>
      <trkpt lat="42.6148" lon="1.73539">
        <ele>2533.281</ele>
        <time>2021-08-06T12:09:07Z</time>
      </trkpt>
      <trkpt lat="42.61479" lon="1.73537">
        <ele>2532.913</ele>
        <time>2021-08-06T12:09:09Z</time>
      </trkpt>
      <trkpt lat="42.61477" lon="1.73534">
        <ele>2532.075</ele>
        <time>2021-08-06T12:09:11Z</time>
      </trkpt>
      <trkpt lat="42.61475" lon="1.73533">
        <ele>2530.801</ele>
        <time>2021-08-06T12:09:13Z</time>
      </trkpt>
      <trkpt lat="42.61474" lon="1.73529">
        <ele>2530.562</ele>
        <time>2021-08-06T12:09:15Z</time>
      </trkpt>
      <trkpt lat="42.61473" lon="1.73526">
        <ele>2530.571</ele>
        <time>2021-08-06T12:09:17Z</time>
      </trkpt>
      <trkpt lat="42.61471" lon="1.73523">
        <ele>2529.588</ele>
        <time>2021-08-06T12:09:19Z</time>
      </trkpt>
      <trkpt lat="42.61469" lon="1.73522">
        <ele>2529.655</ele>
        <time>2021-08-06T12:09:21Z</time>
      </trkpt>
      <trkpt lat="42.61466" lon="1.73521">
        <ele>2529.315</ele>
        <time>2021-08-06T12:09:23Z</time>
      </trkpt>
      <trkpt lat="42.61464" lon="1.73521">
        <ele>2529.025</ele>
        <time>2021-08-06T12:09:25Z</time>
      </trkpt>
      <trkpt lat="42.61462" lon="1.7352">
        <ele>2528.689</ele>
        <time>2021-08-06T12:09:27Z</time>
      </trkpt>
      <trkpt lat="42.61461" lon="1.73518">
        <ele>2528.787</ele>
        <time>2021-08-06T12:09:29Z</time>
      </trkpt>
      <trkpt lat="42.61459" lon="1.73517">
        <ele>2527.847</ele>
        <time>2021-08-06T12:09:31Z</time>
      </trkpt>
      <trkpt lat="42.61457" lon="1.73516">
        <ele>2527.579</ele>
        <time>2021-08-06T12:09:33Z</time>
      </trkpt>
      <trkpt lat="42.61455" lon="1.73515">
        <ele>2526.903</ele>
        <time>2021-08-06T12:09:35Z</time>
      </trkpt>
      <trkpt lat="42.61453" lon="1.73514">
        <ele>2526.804</ele>
        <time>2021-08-06T12:09:37Z</time>
      </trkpt>
      <trkpt lat="42.61451" lon="1.73513">
        <ele>2526.703</ele>
        <time>2021-08-06T12:09:39Z</time>
      </trkpt>
      <trkpt lat="42.61449" lon="1.73511">
        <ele>2525.869</ele>
        <time>2021-08-06T12:09:41Z</time>
      </trkpt>
      <trkpt lat="42.61448" lon="1.73509">
        <ele>2525.51</ele>
        <time>2021-08-06T12:09:43Z</time>
      </trkpt>
      <trkpt lat="42.61448" lon="1.73507">
        <ele>2525.566</ele>
        <time>2021-08-06T12:09:45Z</time>
      </trkpt>
      <trkpt lat="42.61446" lon="1.73505">
        <ele>2524.813</ele>
        <time>2021-08-06T12:09:47Z</time>
      </trkpt>
      <trkpt lat="42.61446" lon="1.73503">
        <ele>2524.438</ele>
        <time>2021-08-06T12:09:49Z</time>
      </trkpt>
      <trkpt lat="42.61445" lon="1.73502">
        <ele>2523.817</ele>
        <time>2021-08-06T12:09:51Z</time>
      </trkpt>
      <trkpt lat="42.61444" lon="1.73501">
        <ele>2523.291</ele>
        <time>2021-08-06T12:09:53Z</time>
      </trkpt>
      <trkpt lat="42.61443" lon="1.73499">
        <ele>2522.764</ele>
        <time>2021-08-06T12:09:55Z</time>
      </trkpt>
      <trkpt lat="42.61442" lon="1.73497">
        <ele>2522.238</ele>
        <time>2021-08-06T12:09:57Z</time>
      </trkpt>
      <trkpt lat="42.61442" lon="1.73495">
        <ele>2521.49</ele>
        <time>2021-08-06T12:09:59Z</time>
      </trkpt>
      <trkpt lat="42.61441" lon="1.73493">
        <ele>2521.401</ele>
        <time>2021-08-06T12:10:01Z</time>
      </trkpt>
      <trkpt lat="42.6144" lon="1.73491">
        <ele>2520.699</ele>
        <time>2021-08-06T12:10:03Z</time>
      </trkpt>
      <trkpt lat="42.6144" lon="1.73489">
        <ele>2520.604</ele>
        <time>2021-08-06T12:10:05Z</time>
      </trkpt>
      <trkpt lat="42.61442" lon="1.73487">
        <ele>2520.911</ele>
        <time>2021-08-06T12:10:07Z</time>
      </trkpt>
      <trkpt lat="42.61442" lon="1.73485">
        <ele>2520.586</ele>
        <time>2021-08-06T12:10:09Z</time>
      </trkpt>
      <trkpt lat="42.61443" lon="1.73483">
        <ele>2520.733</ele>
        <time>2021-08-06T12:10:11Z</time>
      </trkpt>
      <trkpt lat="42.61442" lon="1.73481">
        <ele>2520.846</ele>
        <time>2021-08-06T12:10:13Z</time>
      </trkpt>
      <trkpt lat="42.61441" lon="1.73479">
        <ele>2520.197</ele>
        <time>2021-08-06T12:10:15Z</time>
      </trkpt>
      <trkpt lat="42.6144" lon="1.73477">
        <ele>2520.073</ele>
        <time>2021-08-06T12:10:17Z</time>
      </trkpt>
      <trkpt lat="42.61439" lon="1.73476">
        <ele>2519.27</ele>
        <time>2021-08-06T12:10:19Z</time>
      </trkpt>
      <trkpt lat="42.61438" lon="1.73475">
        <ele>2518.802</ele>
        <time>2021-08-06T12:10:21Z</time>
      </trkpt>
      <trkpt lat="42.61438" lon="1.73473">
        <ele>2518.858</ele>
        <time>2021-08-06T12:10:23Z</time>
      </trkpt>
      <trkpt lat="42.61438" lon="1.73471">
        <ele>2518.06</ele>
        <time>2021-08-06T12:10:25Z</time>
      </trkpt>
      <trkpt lat="42.61438" lon="1.73469">
        <ele>2517.633</ele>
        <time>2021-08-06T12:10:27Z</time>
      </trkpt>
      <trkpt lat="42.61438" lon="1.73467">
        <ele>2517.072</ele>
        <time>2021-08-06T12:10:29Z</time>
      </trkpt>
      <trkpt lat="42.61437" lon="1.73465">
        <ele>2516.672</ele>
        <time>2021-08-06T12:10:31Z</time>
      </trkpt>
      <trkpt lat="42.61437" lon="1.73463">
        <ele>2516.231</ele>
        <time>2021-08-06T12:10:33Z</time>
      </trkpt>
      <trkpt lat="42.61436" lon="1.73461">
        <ele>2515.778</ele>
        <time>2021-08-06T12:10:35Z</time>
      </trkpt>
      <trkpt lat="42.61436" lon="1.73459">
        <ele>2514.77</ele>
        <time>2021-08-06T12:10:37Z</time>
      </trkpt>
      <trkpt lat="42.61436" lon="1.73457">
        <ele>2513.978</ele>
        <time>2021-08-06T12:10:39Z</time>
      </trkpt>
      <trkpt lat="42.61435" lon="1.73455">
        <ele>2513.392</ele>
        <time>2021-08-06T12:10:41Z</time>
      </trkpt>
      <trkpt lat="42.61435" lon="1.73453">
        <ele>2513.151</ele>
        <time>2021-08-06T12:10:43Z</time>
      </trkpt>
      <trkpt lat="42.61435" lon="1.7345">
        <ele>2512.695</ele>
        <time>2021-08-06T12:10:45Z</time>
      </trkpt>
      <trkpt lat="42.61435" lon="1.73448">
        <ele>2512.288</ele>
        <time>2021-08-06T12:10:47Z</time>
      </trkpt>
      <trkpt lat="42.61435" lon="1.73446">
        <ele>2511.871</ele>
        <time>2021-08-06T12:10:49Z</time>
      </trkpt>
      <trkpt lat="42.61434" lon="1.73444">
        <ele>2511.362</ele>
        <time>2021-08-06T12:10:51Z</time>
      </trkpt>
      <trkpt lat="42.61433" lon="1.73441">
        <ele>2511.134</ele>
        <time>2021-08-06T12:10:53Z</time>
      </trkpt>
      <trkpt lat="42.61431" lon="1.73439">
        <ele>2510.293</ele>
        <time>2021-08-06T12:10:55Z</time>
      </trkpt>
      <trkpt lat="42.61431" lon="1.73437">
        <ele>2509.555</ele>
        <time>2021-08-06T12:10:57Z</time>
      </trkpt>
      <trkpt lat="42.6143" lon="1.73435">
        <ele>2509.022</ele>
        <time>2021-08-06T12:10:59Z</time>
      </trkpt>
      <trkpt lat="42.6143" lon="1.73433">
        <ele>2508.847</ele>
        <time>2021-08-06T12:11:01Z</time>
      </trkpt>
      <trkpt lat="42.61429" lon="1.73431">
        <ele>2508.169</ele>
        <time>2021-08-06T12:11:03Z</time>
      </trkpt>
      <trkpt lat="42.61427" lon="1.7343">
        <ele>2508.344</ele>
        <time>2021-08-06T12:11:05Z</time>
      </trkpt>
      <trkpt lat="42.61426" lon="1.73428">
        <ele>2507.847</ele>
        <time>2021-08-06T12:11:07Z</time>
      </trkpt>
      <trkpt lat="42.61426" lon="1.73426">
        <ele>2507.271</ele>
        <time>2021-08-06T12:11:09Z</time>
      </trkpt>
      <trkpt lat="42.61426" lon="1.73424">
        <ele>2506.842</ele>
        <time>2021-08-06T12:11:11Z</time>
      </trkpt>
      <trkpt lat="42.61426" lon="1.73422">
        <ele>2507.12</ele>
        <time>2021-08-06T12:11:13Z</time>
      </trkpt>
      <trkpt lat="42.61425" lon="1.7342">
        <ele>2506.755</ele>
        <time>2021-08-06T12:11:15Z</time>
      </trkpt>
      <trkpt lat="42.61424" lon="1.73417">
        <ele>2506.482</ele>
        <time>2021-08-06T12:11:17Z</time>
      </trkpt>
      <trkpt lat="42.61424" lon="1.73414">
        <ele>2506.803</ele>
        <time>2021-08-06T12:11:19Z</time>
      </trkpt>
      <trkpt lat="42.61423" lon="1.73412">
        <ele>2507.055</ele>
        <time>2021-08-06T12:11:21Z</time>
      </trkpt>
      <trkpt lat="42.61422" lon="1.73409">
        <ele>2506.789</ele>
        <time>2021-08-06T12:11:23Z</time>
      </trkpt>
      <trkpt lat="42.61421" lon="1.73406">
        <ele>2506.963</ele>
        <time>2021-08-06T12:11:25Z</time>
      </trkpt>
      <trkpt lat="42.61421" lon="1.73403">
        <ele>2506.034</ele>
        <time>2021-08-06T12:11:27Z</time>
      </trkpt>
      <trkpt lat="42.6142" lon="1.73401">
        <ele>2505.9</ele>
        <time>2021-08-06T12:11:29Z</time>
      </trkpt>
      <trkpt lat="42.6142" lon="1.73398">
        <ele>2505.755</ele>
        <time>2021-08-06T12:11:31Z</time>
      </trkpt>
      <trkpt lat="42.61421" lon="1.73394">
        <ele>2506.115</ele>
        <time>2021-08-06T12:11:33Z</time>
      </trkpt>
      <trkpt lat="42.61421" lon="1.73392">
        <ele>2506.252</ele>
        <time>2021-08-06T12:11:35Z</time>
      </trkpt>
      <trkpt lat="42.61422" lon="1.73389">
        <ele>2506.042</ele>
        <time>2021-08-06T12:11:37Z</time>
      </trkpt>
      <trkpt lat="42.61422" lon="1.73387">
        <ele>2505.747</ele>
        <time>2021-08-06T12:11:39Z</time>
      </trkpt>
      <trkpt lat="42.61423" lon="1.73384">
        <ele>2505.706</ele>
        <time>2021-08-06T12:11:41Z</time>
      </trkpt>
      <trkpt lat="42.61423" lon="1.73382">
        <ele>2505.495</ele>
        <time>2021-08-06T12:11:43Z</time>
      </trkpt>
      <trkpt lat="42.61422" lon="1.7338">
        <ele>2504.538</ele>
        <time>2021-08-06T12:11:45Z</time>
      </trkpt>
      <trkpt lat="42.6142" lon="1.73378">
        <ele>2504.412</ele>
        <time>2021-08-06T12:11:47Z</time>
      </trkpt>
      <trkpt lat="42.61418" lon="1.73377">
        <ele>2503.959</ele>
        <time>2021-08-06T12:11:49Z</time>
      </trkpt>
      <trkpt lat="42.61416" lon="1.73376">
        <ele>2503.156</ele>
        <time>2021-08-06T12:11:51Z</time>
      </trkpt>
      <trkpt lat="42.61414" lon="1.73375">
        <ele>2503.37</ele>
        <time>2021-08-06T12:11:53Z</time>
      </trkpt>
      <trkpt lat="42.61413" lon="1.73373">
        <ele>2503.832</ele>
        <time>2021-08-06T12:11:55Z</time>
      </trkpt>
      <trkpt lat="42.61412" lon="1.73371">
        <ele>2503.404</ele>
        <time>2021-08-06T12:11:57Z</time>
      </trkpt>
      <trkpt lat="42.61411" lon="1.73369">
        <ele>2503.05</ele>
        <time>2021-08-06T12:11:59Z</time>
      </trkpt>
      <trkpt lat="42.61411" lon="1.73367">
        <ele>2502.874</ele>
        <time>2021-08-06T12:12:01Z</time>
      </trkpt>
      <trkpt lat="42.6141" lon="1.73364">
        <ele>2502.622</ele>
        <time>2021-08-06T12:12:03Z</time>
      </trkpt>
      <trkpt lat="42.6141" lon="1.73362">
        <ele>2502.329</ele>
        <time>2021-08-06T12:12:05Z</time>
      </trkpt>
      <trkpt lat="42.6141" lon="1.73359">
        <ele>2502.571</ele>
        <time>2021-08-06T12:12:07Z</time>
      </trkpt>
      <trkpt lat="42.61409" lon="1.73357">
        <ele>2502.04</ele>
        <time>2021-08-06T12:12:09Z</time>
      </trkpt>
      <trkpt lat="42.61408" lon="1.73355">
        <ele>2501.765</ele>
        <time>2021-08-06T12:12:11Z</time>
      </trkpt>
      <trkpt lat="42.61407" lon="1.73352">
        <ele>2501.34</ele>
        <time>2021-08-06T12:12:13Z</time>
      </trkpt>
      <trkpt lat="42.61408" lon="1.7335">
        <ele>2500.756</ele>
        <time>2021-08-06T12:12:15Z</time>
      </trkpt>
      <trkpt lat="42.61407" lon="1.73348">
        <ele>2500.247</ele>
        <time>2021-08-06T12:12:17Z</time>
      </trkpt>
      <trkpt lat="42.61405" lon="1.73346">
        <ele>2499.829</ele>
        <time>2021-08-06T12:12:19Z</time>
      </trkpt>
      <trkpt lat="42.61404" lon="1.73344">
        <ele>2499.61</ele>
        <time>2021-08-06T12:12:21Z</time>
      </trkpt>
      <trkpt lat="42.61402" lon="1.73342">
        <ele>2498.755</ele>
        <time>2021-08-06T12:12:23Z</time>
      </trkpt>
      <trkpt lat="42.61401" lon="1.73339">
        <ele>2499.262</ele>
        <time>2021-08-06T12:12:25Z</time>
      </trkpt>
      <trkpt lat="42.61399" lon="1.73337">
        <ele>2498.643</ele>
        <time>2021-08-06T12:12:27Z</time>
      </trkpt>
      <trkpt lat="42.61398" lon="1.73334">
        <ele>2498.709</ele>
        <time>2021-08-06T12:12:29Z</time>
      </trkpt>
      <trkpt lat="42.61397" lon="1.73332">
        <ele>2498.49</ele>
        <time>2021-08-06T12:12:31Z</time>
      </trkpt>
      <trkpt lat="42.61395" lon="1.73329">
        <ele>2498.123</ele>
        <time>2021-08-06T12:12:33Z</time>
      </trkpt>
      <trkpt lat="42.61394" lon="1.73327">
        <ele>2497.582</ele>
        <time>2021-08-06T12:12:35Z</time>
      </trkpt>
      <trkpt lat="42.61394" lon="1.73324">
        <ele>2496.681</ele>
        <time>2021-08-06T12:12:37Z</time>
      </trkpt>
      <trkpt lat="42.61393" lon="1.73321">
        <ele>2496.191</ele>
        <time>2021-08-06T12:12:39Z</time>
      </trkpt>
      <trkpt lat="42.61392" lon="1.73318">
        <ele>2495.897</ele>
        <time>2021-08-06T12:12:41Z</time>
      </trkpt>
      <trkpt lat="42.61391" lon="1.73316">
        <ele>2495.406</ele>
        <time>2021-08-06T12:12:43Z</time>
      </trkpt>
      <trkpt lat="42.61391" lon="1.73313">
        <ele>2495.029</ele>
        <time>2021-08-06T12:12:45Z</time>
      </trkpt>
      <trkpt lat="42.61391" lon="1.7331">
        <ele>2494.272</ele>
        <time>2021-08-06T12:12:47Z</time>
      </trkpt>
      <trkpt lat="42.61392" lon="1.73307">
        <ele>2493.336</ele>
        <time>2021-08-06T12:12:49Z</time>
      </trkpt>
      <trkpt lat="42.61393" lon="1.73305">
        <ele>2493.13</ele>
        <time>2021-08-06T12:12:51Z</time>
      </trkpt>
      <trkpt lat="42.61395" lon="1.73304">
        <ele>2494.116</ele>
        <time>2021-08-06T12:12:53Z</time>
      </trkpt>
      <trkpt lat="42.61395" lon="1.73301">
        <ele>2493.86</ele>
        <time>2021-08-06T12:12:55Z</time>
      </trkpt>
      <trkpt lat="42.61395" lon="1.73299">
        <ele>2493.743</ele>
        <time>2021-08-06T12:12:57Z</time>
      </trkpt>
      <trkpt lat="42.61394" lon="1.73297">
        <ele>2492.886</ele>
        <time>2021-08-06T12:12:59Z</time>
      </trkpt>
      <trkpt lat="42.61395" lon="1.73294">
        <ele>2492.959</ele>
        <time>2021-08-06T12:13:01Z</time>
      </trkpt>
      <trkpt lat="42.61395" lon="1.73292">
        <ele>2492.453</ele>
        <time>2021-08-06T12:13:03Z</time>
      </trkpt>
      <trkpt lat="42.61395" lon="1.73291">
        <ele>2492.292</ele>
        <time>2021-08-06T12:13:05Z</time>
      </trkpt>
      <trkpt lat="42.61395" lon="1.73289">
        <ele>2492.005</ele>
        <time>2021-08-06T12:13:07Z</time>
      </trkpt>
      <trkpt lat="42.61396" lon="1.73288">
        <ele>2491.364</ele>
        <time>2021-08-06T12:13:09Z</time>
      </trkpt>
      <trkpt lat="42.61396" lon="1.73286">
        <ele>2490.633</ele>
        <time>2021-08-06T12:13:11Z</time>
      </trkpt>
      <trkpt lat="42.61397" lon="1.73284">
        <ele>2489.261</ele>
        <time>2021-08-06T12:13:13Z</time>
      </trkpt>
      <trkpt lat="42.61398" lon="1.73281">
        <ele>2489.184</ele>
        <time>2021-08-06T12:13:15Z</time>
      </trkpt>
      <trkpt lat="42.61398" lon="1.73278">
        <ele>2489.256</ele>
        <time>2021-08-06T12:13:17Z</time>
      </trkpt>
      <trkpt lat="42.61397" lon="1.73275">
        <ele>2489.353</ele>
        <time>2021-08-06T12:13:19Z</time>
      </trkpt>
      <trkpt lat="42.61396" lon="1.73272">
        <ele>2489.852</ele>
        <time>2021-08-06T12:13:21Z</time>
      </trkpt>
      <trkpt lat="42.61396" lon="1.73268">
        <ele>2489.336</ele>
        <time>2021-08-06T12:13:23Z</time>
      </trkpt>
      <trkpt lat="42.61395" lon="1.73264">
        <ele>2489.357</ele>
        <time>2021-08-06T12:13:25Z</time>
      </trkpt>
      <trkpt lat="42.61395" lon="1.73261">
        <ele>2488.999</ele>
        <time>2021-08-06T12:13:27Z</time>
      </trkpt>
      <trkpt lat="42.61395" lon="1.73258">
        <ele>2489.056</ele>
        <time>2021-08-06T12:13:29Z</time>
      </trkpt>
      <trkpt lat="42.61395" lon="1.73255">
        <ele>2488.821</ele>
        <time>2021-08-06T12:13:31Z</time>
      </trkpt>
      <trkpt lat="42.61395" lon="1.73252">
        <ele>2489.193</ele>
        <time>2021-08-06T12:13:33Z</time>
      </trkpt>
      <trkpt lat="42.61395" lon="1.73249">
        <ele>2489.563</ele>
        <time>2021-08-06T12:13:35Z</time>
      </trkpt>
      <trkpt lat="42.61396" lon="1.73246">
        <ele>2490.141</ele>
        <time>2021-08-06T12:13:37Z</time>
      </trkpt>
      <trkpt lat="42.61396" lon="1.73243">
        <ele>2490.581</ele>
        <time>2021-08-06T12:13:39Z</time>
      </trkpt>
      <trkpt lat="42.61397" lon="1.73239">
        <ele>2490.154</ele>
        <time>2021-08-06T12:13:41Z</time>
      </trkpt>
      <trkpt lat="42.61397" lon="1.73236">
        <ele>2490.737</ele>
        <time>2021-08-06T12:13:43Z</time>
      </trkpt>
      <trkpt lat="42.61397" lon="1.73234">
        <ele>2490.139</ele>
        <time>2021-08-06T12:13:45Z</time>
      </trkpt>
      <trkpt lat="42.61397" lon="1.73232">
        <ele>2489.763</ele>
        <time>2021-08-06T12:13:47Z</time>
      </trkpt>
      <trkpt lat="42.61397" lon="1.73227">
        <ele>2490.755</ele>
        <time>2021-08-06T12:13:49Z</time>
      </trkpt>
      <trkpt lat="42.61398" lon="1.73223">
        <ele>2492.266</ele>
        <time>2021-08-06T12:13:51Z</time>
      </trkpt>
      <trkpt lat="42.614" lon="1.7322">
        <ele>2492.508</ele>
        <time>2021-08-06T12:13:53Z</time>
      </trkpt>
      <trkpt lat="42.614" lon="1.73216">
        <ele>2492.851</ele>
        <time>2021-08-06T12:13:55Z</time>
      </trkpt>
      <trkpt lat="42.61401" lon="1.73214">
        <ele>2492.978</ele>
        <time>2021-08-06T12:13:57Z</time>
      </trkpt>
      <trkpt lat="42.614" lon="1.73212">
        <ele>2492.036</ele>
        <time>2021-08-06T12:13:59Z</time>
      </trkpt>
      <trkpt lat="42.614" lon="1.7321">
        <ele>2490.648</ele>
        <time>2021-08-06T12:14:01Z</time>
      </trkpt>
      <trkpt lat="42.61399" lon="1.73207">
        <ele>2490.39</ele>
        <time>2021-08-06T12:14:03Z</time>
      </trkpt>
      <trkpt lat="42.61398" lon="1.73205">
        <ele>2489.662</ele>
        <time>2021-08-06T12:14:05Z</time>
      </trkpt>
      <trkpt lat="42.61398" lon="1.73202">
        <ele>2489.062</ele>
        <time>2021-08-06T12:14:07Z</time>
      </trkpt>
      <trkpt lat="42.61398" lon="1.732">
        <ele>2487.595</ele>
        <time>2021-08-06T12:14:09Z</time>
      </trkpt>
      <trkpt lat="42.61399" lon="1.73197">
        <ele>2486.768</ele>
        <time>2021-08-06T12:14:11Z</time>
      </trkpt>
      <trkpt lat="42.614" lon="1.73195">
        <ele>2486.867</ele>
        <time>2021-08-06T12:14:13Z</time>
      </trkpt>
      <trkpt lat="42.61399" lon="1.73192">
        <ele>2487.78</ele>
        <time>2021-08-06T12:14:15Z</time>
      </trkpt>
      <trkpt lat="42.61397" lon="1.73189">
        <ele>2487.709</ele>
        <time>2021-08-06T12:14:17Z</time>
      </trkpt>
      <trkpt lat="42.61396" lon="1.73187">
        <ele>2487.416</ele>
        <time>2021-08-06T12:14:19Z</time>
      </trkpt>
      <trkpt lat="42.61396" lon="1.73185">
        <ele>2487.479</ele>
        <time>2021-08-06T12:14:21Z</time>
      </trkpt>
      <trkpt lat="42.61397" lon="1.73183">
        <ele>2487.096</ele>
        <time>2021-08-06T12:14:23Z</time>
      </trkpt>
      <trkpt lat="42.61398" lon="1.73182">
        <ele>2485.998</ele>
        <time>2021-08-06T12:14:25Z</time>
      </trkpt>
      <trkpt lat="42.61399" lon="1.73181">
        <ele>2485.383</ele>
        <time>2021-08-06T12:14:27Z</time>
      </trkpt>
      <trkpt lat="42.614" lon="1.73179">
        <ele>2485.505</ele>
        <time>2021-08-06T12:14:29Z</time>
      </trkpt>
      <trkpt lat="42.614" lon="1.73176">
        <ele>2485.411</ele>
        <time>2021-08-06T12:14:31Z</time>
      </trkpt>
      <trkpt lat="42.614" lon="1.73174">
        <ele>2485.395</ele>
        <time>2021-08-06T12:14:33Z</time>
      </trkpt>
      <trkpt lat="42.614" lon="1.73174">
        <ele>2484.645</ele>
        <time>2021-08-06T12:14:35Z</time>
      </trkpt>
      <trkpt lat="42.614" lon="1.73174">
        <ele>2484.406</ele>
        <time>2021-08-06T12:14:37Z</time>
      </trkpt>
      <trkpt lat="42.61404" lon="1.73174">
        <ele>2485.565</ele>
        <time>2021-08-06T12:14:39Z</time>
      </trkpt>
      <trkpt lat="42.61403" lon="1.73171">
        <ele>2485.132</ele>
        <time>2021-08-06T12:14:41Z</time>
      </trkpt>
      <trkpt lat="42.61403" lon="1.7317">
        <ele>2485.188</ele>
        <time>2021-08-06T12:14:43Z</time>
      </trkpt>
      <trkpt lat="42.61405" lon="1.73168">
        <ele>2485.226</ele>
        <time>2021-08-06T12:14:45Z</time>
      </trkpt>
      <trkpt lat="42.61406" lon="1.73167">
        <ele>2484.264</ele>
        <time>2021-08-06T12:14:47Z</time>
      </trkpt>
      <trkpt lat="42.61407" lon="1.73165">
        <ele>2483.441</ele>
        <time>2021-08-06T12:14:49Z</time>
      </trkpt>
      <trkpt lat="42.61407" lon="1.73163">
        <ele>2482.744</ele>
        <time>2021-08-06T12:14:51Z</time>
      </trkpt>
      <trkpt lat="42.61407" lon="1.7316">
        <ele>2482.514</ele>
        <time>2021-08-06T12:14:53Z</time>
      </trkpt>
      <trkpt lat="42.61407" lon="1.73158">
        <ele>2480.151</ele>
        <time>2021-08-06T12:14:55Z</time>
      </trkpt>
      <trkpt lat="42.61407" lon="1.73156">
        <ele>2479.656</ele>
        <time>2021-08-06T12:14:57Z</time>
      </trkpt>
      <trkpt lat="42.61408" lon="1.73153">
        <ele>2479.437</ele>
        <time>2021-08-06T12:14:59Z</time>
      </trkpt>
      <trkpt lat="42.61409" lon="1.73151">
        <ele>2479.094</ele>
        <time>2021-08-06T12:15:01Z</time>
      </trkpt>
      <trkpt lat="42.6141" lon="1.73149">
        <ele>2477.78</ele>
        <time>2021-08-06T12:15:03Z</time>
      </trkpt>
      <trkpt lat="42.61411" lon="1.73146">
        <ele>2477.173</ele>
        <time>2021-08-06T12:15:05Z</time>
      </trkpt>
      <trkpt lat="42.61411" lon="1.73144">
        <ele>2476.825</ele>
        <time>2021-08-06T12:15:07Z</time>
      </trkpt>
      <trkpt lat="42.61412" lon="1.73141">
        <ele>2474.636</ele>
        <time>2021-08-06T12:15:09Z</time>
      </trkpt>
      <trkpt lat="42.61413" lon="1.73138">
        <ele>2473.414</ele>
        <time>2021-08-06T12:15:11Z</time>
      </trkpt>
      <trkpt lat="42.61413" lon="1.73135">
        <ele>2472.318</ele>
        <time>2021-08-06T12:15:13Z</time>
      </trkpt>
      <trkpt lat="42.61414" lon="1.73132">
        <ele>2472.524</ele>
        <time>2021-08-06T12:15:15Z</time>
      </trkpt>
      <trkpt lat="42.61415" lon="1.73129">
        <ele>2470.935</ele>
        <time>2021-08-06T12:15:17Z</time>
      </trkpt>
      <trkpt lat="42.61416" lon="1.73127">
        <ele>2471.244</ele>
        <time>2021-08-06T12:15:19Z</time>
      </trkpt>
      <trkpt lat="42.61418" lon="1.73126">
        <ele>2471.274</ele>
        <time>2021-08-06T12:15:21Z</time>
      </trkpt>
      <trkpt lat="42.6142" lon="1.73124">
        <ele>2471.488</ele>
        <time>2021-08-06T12:15:23Z</time>
      </trkpt>
      <trkpt lat="42.61421" lon="1.73124">
        <ele>2470.61</ele>
        <time>2021-08-06T12:15:25Z</time>
      </trkpt>
      <trkpt lat="42.61423" lon="1.73123">
        <ele>2469.394</ele>
        <time>2021-08-06T12:15:27Z</time>
      </trkpt>
      <trkpt lat="42.61424" lon="1.73121">
        <ele>2469.409</ele>
        <time>2021-08-06T12:15:29Z</time>
      </trkpt>
      <trkpt lat="42.61423" lon="1.7312">
        <ele>2469.89</ele>
        <time>2021-08-06T12:15:31Z</time>
      </trkpt>
      <trkpt lat="42.61421" lon="1.73118">
        <ele>2469.611</ele>
        <time>2021-08-06T12:15:33Z</time>
      </trkpt>
      <trkpt lat="42.6142" lon="1.73117">
        <ele>2469.914</ele>
        <time>2021-08-06T12:15:35Z</time>
      </trkpt>
      <trkpt lat="42.6142" lon="1.73115">
        <ele>2469.369</ele>
        <time>2021-08-06T12:15:37Z</time>
      </trkpt>
      <trkpt lat="42.61421" lon="1.73114">
        <ele>2469.849</ele>
        <time>2021-08-06T12:15:39Z</time>
      </trkpt>
      <trkpt lat="42.61422" lon="1.73113">
        <ele>2468.626</ele>
        <time>2021-08-06T12:15:41Z</time>
      </trkpt>
      <trkpt lat="42.61424" lon="1.73113">
        <ele>2467.914</ele>
        <time>2021-08-06T12:15:43Z</time>
      </trkpt>
      <trkpt lat="42.61425" lon="1.73113">
        <ele>2467.165</ele>
        <time>2021-08-06T12:15:45Z</time>
      </trkpt>
      <trkpt lat="42.61426" lon="1.73113">
        <ele>2467.09</ele>
        <time>2021-08-06T12:15:47Z</time>
      </trkpt>
      <trkpt lat="42.61427" lon="1.73112">
        <ele>2466.874</ele>
        <time>2021-08-06T12:15:49Z</time>
      </trkpt>
      <trkpt lat="42.61428" lon="1.73111">
        <ele>2466.1</ele>
        <time>2021-08-06T12:15:51Z</time>
      </trkpt>
      <trkpt lat="42.61428" lon="1.73109">
        <ele>2466.364</ele>
        <time>2021-08-06T12:15:53Z</time>
      </trkpt>
      <trkpt lat="42.61428" lon="1.73108">
        <ele>2466.124</ele>
        <time>2021-08-06T12:15:55Z</time>
      </trkpt>
      <trkpt lat="42.61427" lon="1.73106">
        <ele>2465.14</ele>
        <time>2021-08-06T12:15:57Z</time>
      </trkpt>
      <trkpt lat="42.61426" lon="1.73105">
        <ele>2464.291</ele>
        <time>2021-08-06T12:15:59Z</time>
      </trkpt>
      <trkpt lat="42.61426" lon="1.73103">
        <ele>2463.776</ele>
        <time>2021-08-06T12:16:01Z</time>
      </trkpt>
      <trkpt lat="42.61426" lon="1.73101">
        <ele>2462.901</ele>
        <time>2021-08-06T12:16:03Z</time>
      </trkpt>
      <trkpt lat="42.61426" lon="1.73099">
        <ele>2461.932</ele>
        <time>2021-08-06T12:16:05Z</time>
      </trkpt>
      <trkpt lat="42.61425" lon="1.73098">
        <ele>2461.313</ele>
        <time>2021-08-06T12:16:07Z</time>
      </trkpt>
      <trkpt lat="42.61425" lon="1.73096">
        <ele>2460.83</ele>
        <time>2021-08-06T12:16:09Z</time>
      </trkpt>
      <trkpt lat="42.61426" lon="1.73095">
        <ele>2459.464</ele>
        <time>2021-08-06T12:16:11Z</time>
      </trkpt>
      <trkpt lat="42.61427" lon="1.73093">
        <ele>2458.712</ele>
        <time>2021-08-06T12:16:13Z</time>
      </trkpt>
      <trkpt lat="42.61429" lon="1.73091">
        <ele>2457.425</ele>
        <time>2021-08-06T12:16:15Z</time>
      </trkpt>
      <trkpt lat="42.6143" lon="1.7309">
        <ele>2457.049</ele>
        <time>2021-08-06T12:16:17Z</time>
      </trkpt>
      <trkpt lat="42.61432" lon="1.73087">
        <ele>2455.563</ele>
        <time>2021-08-06T12:16:19Z</time>
      </trkpt>
      <trkpt lat="42.61433" lon="1.73085">
        <ele>2455.917</ele>
        <time>2021-08-06T12:16:21Z</time>
      </trkpt>
      <trkpt lat="42.61434" lon="1.73082">
        <ele>2455.512</ele>
        <time>2021-08-06T12:16:23Z</time>
      </trkpt>
      <trkpt lat="42.61436" lon="1.73079">
        <ele>2454.873</ele>
        <time>2021-08-06T12:16:25Z</time>
      </trkpt>
      <trkpt lat="42.61436" lon="1.73076">
        <ele>2454.697</ele>
        <time>2021-08-06T12:16:27Z</time>
      </trkpt>
      <trkpt lat="42.61437" lon="1.73074">
        <ele>2455.105</ele>
        <time>2021-08-06T12:16:29Z</time>
      </trkpt>
      <trkpt lat="42.61438" lon="1.73071">
        <ele>2454.695</ele>
        <time>2021-08-06T12:16:31Z</time>
      </trkpt>
      <trkpt lat="42.61439" lon="1.73069">
        <ele>2454.42</ele>
        <time>2021-08-06T12:16:33Z</time>
      </trkpt>
      <trkpt lat="42.6144" lon="1.73066">
        <ele>2454.674</ele>
        <time>2021-08-06T12:16:35Z</time>
      </trkpt>
      <trkpt lat="42.61442" lon="1.73064">
        <ele>2455.014</ele>
        <time>2021-08-06T12:16:37Z</time>
      </trkpt>
      <trkpt lat="42.61443" lon="1.73063">
        <ele>2455.043</ele>
        <time>2021-08-06T12:16:39Z</time>
      </trkpt>
      <trkpt lat="42.61444" lon="1.7306">
        <ele>2455.216</ele>
        <time>2021-08-06T12:16:41Z</time>
      </trkpt>
      <trkpt lat="42.61445" lon="1.73058">
        <ele>2454.69</ele>
        <time>2021-08-06T12:16:43Z</time>
      </trkpt>
      <trkpt lat="42.61446" lon="1.73056">
        <ele>2453.98</ele>
        <time>2021-08-06T12:16:45Z</time>
      </trkpt>
      <trkpt lat="42.61447" lon="1.73054">
        <ele>2454.276</ele>
        <time>2021-08-06T12:16:47Z</time>
      </trkpt>
      <trkpt lat="42.61447" lon="1.73052">
        <ele>2454.122</ele>
        <time>2021-08-06T12:16:49Z</time>
      </trkpt>
      <trkpt lat="42.61448" lon="1.73049">
        <ele>2454.431</ele>
        <time>2021-08-06T12:16:51Z</time>
      </trkpt>
      <trkpt lat="42.61448" lon="1.73047">
        <ele>2454.455</ele>
        <time>2021-08-06T12:16:53Z</time>
      </trkpt>
      <trkpt lat="42.61448" lon="1.73045">
        <ele>2454.549</ele>
        <time>2021-08-06T12:16:55Z</time>
      </trkpt>
      <trkpt lat="42.61449" lon="1.73043">
        <ele>2454.226</ele>
        <time>2021-08-06T12:16:57Z</time>
      </trkpt>
      <trkpt lat="42.61449" lon="1.73041">
        <ele>2453.868</ele>
        <time>2021-08-06T12:16:59Z</time>
      </trkpt>
      <trkpt lat="42.61448" lon="1.73039">
        <ele>2453.668</ele>
        <time>2021-08-06T12:17:01Z</time>
      </trkpt>
      <trkpt lat="42.61447" lon="1.73039">
        <ele>2452.828</ele>
        <time>2021-08-06T12:17:03Z</time>
      </trkpt>
      <trkpt lat="42.61446" lon="1.73037">
        <ele>2452.826</ele>
        <time>2021-08-06T12:17:05Z</time>
      </trkpt>
      <trkpt lat="42.61445" lon="1.73036">
        <ele>2452.549</ele>
        <time>2021-08-06T12:17:07Z</time>
      </trkpt>
      <trkpt lat="42.61444" lon="1.73035">
        <ele>2451.562</ele>
        <time>2021-08-06T12:17:09Z</time>
      </trkpt>
      <trkpt lat="42.61445" lon="1.73033">
        <ele>2451.031</ele>
        <time>2021-08-06T12:17:11Z</time>
      </trkpt>
      <trkpt lat="42.61447" lon="1.73033">
        <ele>2450.578</ele>
        <time>2021-08-06T12:17:13Z</time>
      </trkpt>
      <trkpt lat="42.61448" lon="1.73033">
        <ele>2450.314</ele>
        <time>2021-08-06T12:17:15Z</time>
      </trkpt>
      <trkpt lat="42.61449" lon="1.73034">
        <ele>2449.826</ele>
        <time>2021-08-06T12:17:17Z</time>
      </trkpt>
      <trkpt lat="42.6145" lon="1.73033">
        <ele>2450.173</ele>
        <time>2021-08-06T12:17:19Z</time>
      </trkpt>
      <trkpt lat="42.61452" lon="1.73033">
        <ele>2450.085</ele>
        <time>2021-08-06T12:17:21Z</time>
      </trkpt>
      <trkpt lat="42.61453" lon="1.73033">
        <ele>2449.368</ele>
        <time>2021-08-06T12:17:23Z</time>
      </trkpt>
      <trkpt lat="42.61452" lon="1.73031">
        <ele>2449.115</ele>
        <time>2021-08-06T12:17:25Z</time>
      </trkpt>
      <trkpt lat="42.61451" lon="1.7303">
        <ele>2448.457</ele>
        <time>2021-08-06T12:17:27Z</time>
      </trkpt>
      <trkpt lat="42.61451" lon="1.73029">
        <ele>2447.883</ele>
        <time>2021-08-06T12:17:29Z</time>
      </trkpt>
      <trkpt lat="42.61451" lon="1.73028">
        <ele>2447.388</ele>
        <time>2021-08-06T12:17:31Z</time>
      </trkpt>
      <trkpt lat="42.61451" lon="1.73027">
        <ele>2446.446</ele>
        <time>2021-08-06T12:17:33Z</time>
      </trkpt>
      <trkpt lat="42.61451" lon="1.73025">
        <ele>2445.958</ele>
        <time>2021-08-06T12:17:35Z</time>
      </trkpt>
      <trkpt lat="42.61451" lon="1.73023">
        <ele>2444.547</ele>
        <time>2021-08-06T12:17:37Z</time>
      </trkpt>
      <trkpt lat="42.61451" lon="1.73021">
        <ele>2443.874</ele>
        <time>2021-08-06T12:17:39Z</time>
      </trkpt>
      <trkpt lat="42.61453" lon="1.73021">
        <ele>2443.927</ele>
        <time>2021-08-06T12:17:41Z</time>
      </trkpt>
      <trkpt lat="42.61455" lon="1.73021">
        <ele>2444.202</ele>
        <time>2021-08-06T12:17:43Z</time>
      </trkpt>
      <trkpt lat="42.61457" lon="1.73023">
        <ele>2444.155</ele>
        <time>2021-08-06T12:17:45Z</time>
      </trkpt>
      <trkpt lat="42.61459" lon="1.73023">
        <ele>2444.195</ele>
        <time>2021-08-06T12:17:47Z</time>
      </trkpt>
      <trkpt lat="42.61461" lon="1.73024">
        <ele>2444.042</ele>
        <time>2021-08-06T12:17:49Z</time>
      </trkpt>
      <trkpt lat="42.61463" lon="1.73024">
        <ele>2444.414</ele>
        <time>2021-08-06T12:17:51Z</time>
      </trkpt>
      <trkpt lat="42.61464" lon="1.73026">
        <ele>2444.37</ele>
        <time>2021-08-06T12:17:53Z</time>
      </trkpt>
      <trkpt lat="42.61467" lon="1.73027">
        <ele>2444.442</ele>
        <time>2021-08-06T12:17:55Z</time>
      </trkpt>
      <trkpt lat="42.61469" lon="1.73025">
        <ele>2444.384</ele>
        <time>2021-08-06T12:17:57Z</time>
      </trkpt>
      <trkpt lat="42.61471" lon="1.73024">
        <ele>2444.886</ele>
        <time>2021-08-06T12:17:59Z</time>
      </trkpt>
      <trkpt lat="42.61471" lon="1.73023">
        <ele>2444.483</ele>
        <time>2021-08-06T12:18:01Z</time>
      </trkpt>
      <trkpt lat="42.61472" lon="1.73022">
        <ele>2444.358</ele>
        <time>2021-08-06T12:18:03Z</time>
      </trkpt>
      <trkpt lat="42.61472" lon="1.73022">
        <ele>2444.353</ele>
        <time>2021-08-06T12:18:05Z</time>
      </trkpt>
      <trkpt lat="42.61472" lon="1.73022">
        <ele>2444.364</ele>
        <time>2021-08-06T12:18:07Z</time>
      </trkpt>
      <trkpt lat="42.61472" lon="1.73022">
        <ele>2444.364</ele>
        <time>2021-08-06T12:18:09Z</time>
      </trkpt>
      <trkpt lat="42.61472" lon="1.73022">
        <ele>2444.362</ele>
        <time>2021-08-06T12:18:11Z</time>
      </trkpt>
      <trkpt lat="42.61472" lon="1.73022">
        <ele>2444.059</ele>
        <time>2021-08-06T12:18:13Z</time>
      </trkpt>
      <trkpt lat="42.61475" lon="1.73022">
        <ele>2443.92</ele>
        <time>2021-08-06T12:18:15Z</time>
      </trkpt>
      <trkpt lat="42.61477" lon="1.73023">
        <ele>2443.524</ele>
        <time>2021-08-06T12:18:17Z</time>
      </trkpt>
      <trkpt lat="42.61478" lon="1.73023">
        <ele>2443.226</ele>
        <time>2021-08-06T12:18:19Z</time>
      </trkpt>
      <trkpt lat="42.6148" lon="1.73023">
        <ele>2442.852</ele>
        <time>2021-08-06T12:18:21Z</time>
      </trkpt>
      <trkpt lat="42.61482" lon="1.7302">
        <ele>2442.892</ele>
        <time>2021-08-06T12:18:23Z</time>
      </trkpt>
      <trkpt lat="42.61484" lon="1.73019">
        <ele>2442.552</ele>
        <time>2021-08-06T12:18:25Z</time>
      </trkpt>
      <trkpt lat="42.61486" lon="1.73018">
        <ele>2442.547</ele>
        <time>2021-08-06T12:18:27Z</time>
      </trkpt>
      <trkpt lat="42.61488" lon="1.73018">
        <ele>2442.894</ele>
        <time>2021-08-06T12:18:29Z</time>
      </trkpt>
      <trkpt lat="42.6149" lon="1.73018">
        <ele>2442.936</ele>
        <time>2021-08-06T12:18:31Z</time>
      </trkpt>
      <trkpt lat="42.61491" lon="1.73019">
        <ele>2442.671</ele>
        <time>2021-08-06T12:18:33Z</time>
      </trkpt>
      <trkpt lat="42.61491" lon="1.73019">
        <ele>2442.669</ele>
        <time>2021-08-06T12:18:35Z</time>
      </trkpt>
      <trkpt lat="42.61491" lon="1.73019">
        <ele>2442.657</ele>
        <time>2021-08-06T12:18:37Z</time>
      </trkpt>
      <trkpt lat="42.61491" lon="1.73019">
        <ele>2442.94</ele>
        <time>2021-08-06T12:18:39Z</time>
      </trkpt>
      <trkpt lat="42.61492" lon="1.7302">
        <ele>2442.436</ele>
        <time>2021-08-06T12:18:41Z</time>
      </trkpt>
      <trkpt lat="42.61494" lon="1.73022">
        <ele>2442.891</ele>
        <time>2021-08-06T12:18:43Z</time>
      </trkpt>
      <trkpt lat="42.61496" lon="1.73023">
        <ele>2441.846</ele>
        <time>2021-08-06T12:18:45Z</time>
      </trkpt>
      <trkpt lat="42.61497" lon="1.73022">
        <ele>2442.187</ele>
        <time>2021-08-06T12:18:47Z</time>
      </trkpt>
      <trkpt lat="42.61497" lon="1.73022">
        <ele>2442.422</ele>
        <time>2021-08-06T12:18:49Z</time>
      </trkpt>
      <trkpt lat="42.61498" lon="1.73022">
        <ele>2442.402</ele>
        <time>2021-08-06T12:18:51Z</time>
      </trkpt>
      <trkpt lat="42.61497" lon="1.73022">
        <ele>2442.654</ele>
        <time>2021-08-06T12:18:53Z</time>
      </trkpt>
      <trkpt lat="42.61498" lon="1.73021">
        <ele>2442.575</ele>
        <time>2021-08-06T12:18:55Z</time>
      </trkpt>
      <trkpt lat="42.61498" lon="1.7302">
        <ele>2442.898</ele>
        <time>2021-08-06T12:18:57Z</time>
      </trkpt>
      <trkpt lat="42.61497" lon="1.73019">
        <ele>2442.599</ele>
        <time>2021-08-06T12:18:59Z</time>
      </trkpt>
      <trkpt lat="42.61497" lon="1.73017">
        <ele>2443.26</ele>
        <time>2021-08-06T12:19:01Z</time>
      </trkpt>
      <trkpt lat="42.61498" lon="1.73016">
        <ele>2443.465</ele>
        <time>2021-08-06T12:19:03Z</time>
      </trkpt>
      <trkpt lat="42.61498" lon="1.73016">
        <ele>2443.431</ele>
        <time>2021-08-06T12:19:05Z</time>
      </trkpt>
      <trkpt lat="42.61499" lon="1.73016">
        <ele>2443.429</ele>
        <time>2021-08-06T12:19:07Z</time>
      </trkpt>
      <trkpt lat="42.61499" lon="1.73016">
        <ele>2443.433</ele>
        <time>2021-08-06T12:19:09Z</time>
      </trkpt>
      <trkpt lat="42.61499" lon="1.73016">
        <ele>2443.457</ele>
        <time>2021-08-06T12:19:11Z</time>
      </trkpt>
      <trkpt lat="42.61499" lon="1.73016">
        <ele>2443.339</ele>
        <time>2021-08-06T12:19:13Z</time>
      </trkpt>
      <trkpt lat="42.61499" lon="1.73017">
        <ele>2443.605</ele>
        <time>2021-08-06T12:19:15Z</time>
      </trkpt>
      <trkpt lat="42.61499" lon="1.73017">
        <ele>2443.651</ele>
        <time>2021-08-06T12:19:17Z</time>
      </trkpt>
      <trkpt lat="42.61499" lon="1.73017">
        <ele>2443.633</ele>
        <time>2021-08-06T12:19:19Z</time>
      </trkpt>
      <trkpt lat="42.61499" lon="1.73017">
        <ele>2443.634</ele>
        <time>2021-08-06T12:19:21Z</time>
      </trkpt>
      <trkpt lat="42.61499" lon="1.73017">
        <ele>2443.642</ele>
        <time>2021-08-06T12:19:23Z</time>
      </trkpt>
      <trkpt lat="42.61499" lon="1.73017">
        <ele>2443.631</ele>
        <time>2021-08-06T12:19:25Z</time>
      </trkpt>
      <trkpt lat="42.61498" lon="1.73016">
        <ele>2443.185</ele>
        <time>2021-08-06T12:19:27Z</time>
      </trkpt>
      <trkpt lat="42.61498" lon="1.73016">
        <ele>2443.042</ele>
        <time>2021-08-06T12:19:29Z</time>
      </trkpt>
      <trkpt lat="42.61498" lon="1.73016">
        <ele>2443.043</ele>
        <time>2021-08-06T12:19:31Z</time>
      </trkpt>
      <trkpt lat="42.61498" lon="1.73016">
        <ele>2443.056</ele>
        <time>2021-08-06T12:19:33Z</time>
      </trkpt>
      <trkpt lat="42.61498" lon="1.73016">
        <ele>2443.072</ele>
        <time>2021-08-06T12:19:35Z</time>
      </trkpt>
      <trkpt lat="42.61498" lon="1.73016">
        <ele>2443.071</ele>
        <time>2021-08-06T12:19:37Z</time>
      </trkpt>
      <trkpt lat="42.61498" lon="1.73016">
        <ele>2442.667</ele>
        <time>2021-08-06T12:19:39Z</time>
      </trkpt>
      <trkpt lat="42.61498" lon="1.73015">
        <ele>2442.637</ele>
        <time>2021-08-06T12:19:41Z</time>
      </trkpt>
      <trkpt lat="42.61498" lon="1.73017">
        <ele>2444.276</ele>
        <time>2021-08-06T12:19:43Z</time>
      </trkpt>
      <trkpt lat="42.61498" lon="1.73017">
        <ele>2444.458</ele>
        <time>2021-08-06T12:19:45Z</time>
      </trkpt>
      <trkpt lat="42.61498" lon="1.73017">
        <ele>2444.481</ele>
        <time>2021-08-06T12:19:47Z</time>
      </trkpt>
      <trkpt lat="42.61498" lon="1.73017">
        <ele>2444.481</ele>
        <time>2021-08-06T12:19:49Z</time>
      </trkpt>
      <trkpt lat="42.61497" lon="1.73017">
        <ele>2444.336</ele>
        <time>2021-08-06T12:19:51Z</time>
      </trkpt>
      <trkpt lat="42.61497" lon="1.73017">
        <ele>2444.332</ele>
        <time>2021-08-06T12:19:53Z</time>
      </trkpt>
      <trkpt lat="42.61497" lon="1.73017">
        <ele>2444.32</ele>
        <time>2021-08-06T12:19:55Z</time>
      </trkpt>
      <trkpt lat="42.61497" lon="1.73017">
        <ele>2444.313</ele>
        <time>2021-08-06T12:19:57Z</time>
      </trkpt>
      <trkpt lat="42.61497" lon="1.73017">
        <ele>2444.361</ele>
        <time>2021-08-06T12:19:59Z</time>
      </trkpt>
      <trkpt lat="42.61497" lon="1.73017">
        <ele>2444.347</ele>
        <time>2021-08-06T12:20:01Z</time>
      </trkpt>
      <trkpt lat="42.61497" lon="1.73017">
        <ele>2444.33</ele>
        <time>2021-08-06T12:20:03Z</time>
      </trkpt>
      <trkpt lat="42.61497" lon="1.73017">
        <ele>2444.312</ele>
        <time>2021-08-06T12:20:05Z</time>
      </trkpt>
      <trkpt lat="42.61497" lon="1.73017">
        <ele>2444.3</ele>
        <time>2021-08-06T12:20:07Z</time>
      </trkpt>
      <trkpt lat="42.61498" lon="1.73018">
        <ele>2444.414</ele>
        <time>2021-08-06T12:20:09Z</time>
      </trkpt>
      <trkpt lat="42.61498" lon="1.73017">
        <ele>2444.825</ele>
        <time>2021-08-06T12:20:11Z</time>
      </trkpt>
      <trkpt lat="42.61498" lon="1.73017">
        <ele>2444.821</ele>
        <time>2021-08-06T12:20:13Z</time>
      </trkpt>
      <trkpt lat="42.61498" lon="1.73016">
        <ele>2445.491</ele>
        <time>2021-08-06T12:20:15Z</time>
      </trkpt>
      <trkpt lat="42.61497" lon="1.73016">
        <ele>2445.308</ele>
        <time>2021-08-06T12:20:17Z</time>
      </trkpt>
      <trkpt lat="42.61497" lon="1.73016">
        <ele>2445.31</ele>
        <time>2021-08-06T12:20:19Z</time>
      </trkpt>
      <trkpt lat="42.61497" lon="1.73016">
        <ele>2445.312</ele>
        <time>2021-08-06T12:20:21Z</time>
      </trkpt>
      <trkpt lat="42.61497" lon="1.73016">
        <ele>2445.326</ele>
        <time>2021-08-06T12:20:23Z</time>
      </trkpt>
      <trkpt lat="42.61497" lon="1.73016">
        <ele>2445.319</ele>
        <time>2021-08-06T12:20:25Z</time>
      </trkpt>
      <trkpt lat="42.61497" lon="1.73016">
        <ele>2445.336</ele>
        <time>2021-08-06T12:20:27Z</time>
      </trkpt>
      <trkpt lat="42.61497" lon="1.73016">
        <ele>2445.662</ele>
        <time>2021-08-06T12:20:29Z</time>
      </trkpt>
      <trkpt lat="42.61497" lon="1.73016">
        <ele>2445.685</ele>
        <time>2021-08-06T12:20:31Z</time>
      </trkpt>
      <trkpt lat="42.61498" lon="1.73017">
        <ele>2445.793</ele>
        <time>2021-08-06T12:20:33Z</time>
      </trkpt>
      <trkpt lat="42.61499" lon="1.73018">
        <ele>2446.053</ele>
        <time>2021-08-06T12:20:35Z</time>
      </trkpt>
      <trkpt lat="42.61499" lon="1.73019">
        <ele>2446.134</ele>
        <time>2021-08-06T12:20:37Z</time>
      </trkpt>
      <trkpt lat="42.615" lon="1.73019">
        <ele>2447.296</ele>
        <time>2021-08-06T12:20:39Z</time>
      </trkpt>
      <trkpt lat="42.615" lon="1.73018">
        <ele>2446.704</ele>
        <time>2021-08-06T12:20:41Z</time>
      </trkpt>
      <trkpt lat="42.615" lon="1.73017">
        <ele>2446.697</ele>
        <time>2021-08-06T12:20:43Z</time>
      </trkpt>
      <trkpt lat="42.61499" lon="1.73017">
        <ele>2446.704</ele>
        <time>2021-08-06T12:20:45Z</time>
      </trkpt>
      <trkpt lat="42.61499" lon="1.73017">
        <ele>2447.172</ele>
        <time>2021-08-06T12:20:47Z</time>
      </trkpt>
      <trkpt lat="42.61499" lon="1.73017">
        <ele>2447.329</ele>
        <time>2021-08-06T12:20:49Z</time>
      </trkpt>
      <trkpt lat="42.61499" lon="1.73017">
        <ele>2447.015</ele>
        <time>2021-08-06T12:20:51Z</time>
      </trkpt>
      <trkpt lat="42.61499" lon="1.73017">
        <ele>2446.976</ele>
        <time>2021-08-06T12:20:53Z</time>
      </trkpt>
      <trkpt lat="42.61499" lon="1.73017">
        <ele>2446.956</ele>
        <time>2021-08-06T12:20:55Z</time>
      </trkpt>
      <trkpt lat="42.61499" lon="1.73017">
        <ele>2446.948</ele>
        <time>2021-08-06T12:20:57Z</time>
      </trkpt>
      <trkpt lat="42.61499" lon="1.73018">
        <ele>2446.508</ele>
        <time>2021-08-06T12:20:59Z</time>
      </trkpt>
      <trkpt lat="42.61499" lon="1.73019">
        <ele>2445.573</ele>
        <time>2021-08-06T12:21:01Z</time>
      </trkpt>
      <trkpt lat="42.61498" lon="1.73022">
        <ele>2445.656</ele>
        <time>2021-08-06T12:21:03Z</time>
      </trkpt>
      <trkpt lat="42.61498" lon="1.73023">
        <ele>2444.879</ele>
        <time>2021-08-06T12:21:05Z</time>
      </trkpt>
      <trkpt lat="42.61498" lon="1.73025">
        <ele>2444.883</ele>
        <time>2021-08-06T12:21:07Z</time>
      </trkpt>
      <trkpt lat="42.61497" lon="1.73025">
        <ele>2444.64</ele>
        <time>2021-08-06T12:21:09Z</time>
      </trkpt>
      <trkpt lat="42.61497" lon="1.73025">
        <ele>2444.63</ele>
        <time>2021-08-06T12:21:11Z</time>
      </trkpt>
      <trkpt lat="42.61498" lon="1.73025">
        <ele>2444.23</ele>
        <time>2021-08-06T12:21:13Z</time>
      </trkpt>
      <trkpt lat="42.61498" lon="1.73024">
        <ele>2444.216</ele>
        <time>2021-08-06T12:21:15Z</time>
      </trkpt>
      <trkpt lat="42.61499" lon="1.73023">
        <ele>2444.982</ele>
        <time>2021-08-06T12:21:17Z</time>
      </trkpt>
      <trkpt lat="42.615" lon="1.73022">
        <ele>2445.836</ele>
        <time>2021-08-06T12:21:19Z</time>
      </trkpt>
      <trkpt lat="42.61501" lon="1.73021">
        <ele>2446.442</ele>
        <time>2021-08-06T12:21:21Z</time>
      </trkpt>
      <trkpt lat="42.61502" lon="1.73021">
        <ele>2446.361</ele>
        <time>2021-08-06T12:21:23Z</time>
      </trkpt>
      <trkpt lat="42.61502" lon="1.73019">
        <ele>2447.076</ele>
        <time>2021-08-06T12:21:25Z</time>
      </trkpt>
      <trkpt lat="42.61503" lon="1.73019">
        <ele>2447.854</ele>
        <time>2021-08-06T12:21:27Z</time>
      </trkpt>
      <trkpt lat="42.61503" lon="1.73018">
        <ele>2448.464</ele>
        <time>2021-08-06T12:21:29Z</time>
      </trkpt>
      <trkpt lat="42.61503" lon="1.73018">
        <ele>2448.119</ele>
        <time>2021-08-06T12:21:31Z</time>
      </trkpt>
      <trkpt lat="42.61503" lon="1.73018">
        <ele>2448.085</ele>
        <time>2021-08-06T12:21:33Z</time>
      </trkpt>
      <trkpt lat="42.61503" lon="1.73019">
        <ele>2447.911</ele>
        <time>2021-08-06T12:21:35Z</time>
      </trkpt>
      <trkpt lat="42.61503" lon="1.73019">
        <ele>2447.892</ele>
        <time>2021-08-06T12:21:37Z</time>
      </trkpt>
      <trkpt lat="42.61503" lon="1.73019">
        <ele>2447.969</ele>
        <time>2021-08-06T12:21:39Z</time>
      </trkpt>
      <trkpt lat="42.61503" lon="1.73019">
        <ele>2447.649</ele>
        <time>2021-08-06T12:21:41Z</time>
      </trkpt>
      <trkpt lat="42.61503" lon="1.73019">
        <ele>2447.713</ele>
        <time>2021-08-06T12:21:43Z</time>
      </trkpt>
      <trkpt lat="42.61503" lon="1.73017">
        <ele>2448.823</ele>
        <time>2021-08-06T12:21:45Z</time>
      </trkpt>
      <trkpt lat="42.61504" lon="1.73017">
        <ele>2449.2</ele>
        <time>2021-08-06T12:21:47Z</time>
      </trkpt>
      <trkpt lat="42.61504" lon="1.73018">
        <ele>2449.158</ele>
        <time>2021-08-06T12:21:49Z</time>
      </trkpt>
      <trkpt lat="42.61504" lon="1.73018">
        <ele>2449.143</ele>
        <time>2021-08-06T12:21:51Z</time>
      </trkpt>
      <trkpt lat="42.61505" lon="1.73017">
        <ele>2448.657</ele>
        <time>2021-08-06T12:21:53Z</time>
      </trkpt>
      <trkpt lat="42.61506" lon="1.73015">
        <ele>2448.267</ele>
        <time>2021-08-06T12:21:55Z</time>
      </trkpt>
      <trkpt lat="42.61506" lon="1.73015">
        <ele>2448.139</ele>
        <time>2021-08-06T12:21:57Z</time>
      </trkpt>
      <trkpt lat="42.61506" lon="1.73012">
        <ele>2447.983</ele>
        <time>2021-08-06T12:21:59Z</time>
      </trkpt>
      <trkpt lat="42.61506" lon="1.73012">
        <ele>2447.988</ele>
        <time>2021-08-06T12:22:01Z</time>
      </trkpt>
      <trkpt lat="42.61506" lon="1.73012">
        <ele>2447.972</ele>
        <time>2021-08-06T12:22:03Z</time>
      </trkpt>
      <trkpt lat="42.61505" lon="1.73012">
        <ele>2447.602</ele>
        <time>2021-08-06T12:22:05Z</time>
      </trkpt>
      <trkpt lat="42.61505" lon="1.73012">
        <ele>2447.583</ele>
        <time>2021-08-06T12:22:07Z</time>
      </trkpt>
      <trkpt lat="42.61505" lon="1.73012">
        <ele>2447.563</ele>
        <time>2021-08-06T12:22:09Z</time>
      </trkpt>
      <trkpt lat="42.61505" lon="1.73012">
        <ele>2447.557</ele>
        <time>2021-08-06T12:22:11Z</time>
      </trkpt>
      <trkpt lat="42.61505" lon="1.73012">
        <ele>2447.552</ele>
        <time>2021-08-06T12:22:13Z</time>
      </trkpt>
      <trkpt lat="42.61505" lon="1.73012">
        <ele>2447.552</ele>
        <time>2021-08-06T12:22:15Z</time>
      </trkpt>
      <trkpt lat="42.61505" lon="1.73012">
        <ele>2447.549</ele>
        <time>2021-08-06T12:22:17Z</time>
      </trkpt>
      <trkpt lat="42.61505" lon="1.73012">
        <ele>2447.305</ele>
        <time>2021-08-06T12:22:19Z</time>
      </trkpt>
      <trkpt lat="42.61505" lon="1.73012">
        <ele>2447.313</ele>
        <time>2021-08-06T12:22:21Z</time>
      </trkpt>
      <trkpt lat="42.61505" lon="1.73012">
        <ele>2447.317</ele>
        <time>2021-08-06T12:22:23Z</time>
      </trkpt>
      <trkpt lat="42.61505" lon="1.73012">
        <ele>2447.31</ele>
        <time>2021-08-06T12:22:25Z</time>
      </trkpt>
      <trkpt lat="42.61505" lon="1.73012">
        <ele>2447.307</ele>
        <time>2021-08-06T12:22:27Z</time>
      </trkpt>
      <trkpt lat="42.61505" lon="1.73012">
        <ele>2447.309</ele>
        <time>2021-08-06T12:22:29Z</time>
      </trkpt>
      <trkpt lat="42.61505" lon="1.73012">
        <ele>2447.313</ele>
        <time>2021-08-06T12:22:31Z</time>
      </trkpt>
      <trkpt lat="42.61505" lon="1.73012">
        <ele>2447.247</ele>
        <time>2021-08-06T12:22:33Z</time>
      </trkpt>
      <trkpt lat="42.61505" lon="1.73012">
        <ele>2447.246</ele>
        <time>2021-08-06T12:22:35Z</time>
      </trkpt>
      <trkpt lat="42.61505" lon="1.73012">
        <ele>2447.25</ele>
        <time>2021-08-06T12:22:37Z</time>
      </trkpt>
      <trkpt lat="42.61505" lon="1.73012">
        <ele>2446.854</ele>
        <time>2021-08-06T12:22:39Z</time>
      </trkpt>
      <trkpt lat="42.61506" lon="1.73012">
        <ele>2447.224</ele>
        <time>2021-08-06T12:22:41Z</time>
      </trkpt>
      <trkpt lat="42.61506" lon="1.73011">
        <ele>2446.935</ele>
        <time>2021-08-06T12:22:43Z</time>
      </trkpt>
      <trkpt lat="42.61508" lon="1.73011">
        <ele>2446.952</ele>
        <time>2021-08-06T12:22:45Z</time>
      </trkpt>
      <trkpt lat="42.61509" lon="1.7301">
        <ele>2446.739</ele>
        <time>2021-08-06T12:22:47Z</time>
      </trkpt>
      <trkpt lat="42.6151" lon="1.73009">
        <ele>2446.35</ele>
        <time>2021-08-06T12:22:49Z</time>
      </trkpt>
      <trkpt lat="42.6151" lon="1.73007">
        <ele>2446.642</ele>
        <time>2021-08-06T12:22:51Z</time>
      </trkpt>
      <trkpt lat="42.61511" lon="1.73005">
        <ele>2446.492</ele>
        <time>2021-08-06T12:22:53Z</time>
      </trkpt>
      <trkpt lat="42.61512" lon="1.73003">
        <ele>2446.202</ele>
        <time>2021-08-06T12:22:55Z</time>
      </trkpt>
      <trkpt lat="42.61513" lon="1.73002">
        <ele>2446.233</ele>
        <time>2021-08-06T12:22:57Z</time>
      </trkpt>
      <trkpt lat="42.61514" lon="1.73001">
        <ele>2445.763</ele>
        <time>2021-08-06T12:22:59Z</time>
      </trkpt>
      <trkpt lat="42.61515" lon="1.73">
        <ele>2445.955</ele>
        <time>2021-08-06T12:23:01Z</time>
      </trkpt>
      <trkpt lat="42.61516" lon="1.72999">
        <ele>2446.158</ele>
        <time>2021-08-06T12:23:03Z</time>
      </trkpt>
      <trkpt lat="42.61518" lon="1.73">
        <ele>2447.289</ele>
        <time>2021-08-06T12:23:05Z</time>
      </trkpt>
      <trkpt lat="42.61518" lon="1.73">
        <ele>2447.278</ele>
        <time>2021-08-06T12:23:07Z</time>
      </trkpt>
      <trkpt lat="42.61518" lon="1.73">
        <ele>2447.278</ele>
        <time>2021-08-06T12:23:09Z</time>
      </trkpt>
      <trkpt lat="42.61517" lon="1.73">
        <ele>2446.797</ele>
        <time>2021-08-06T12:23:11Z</time>
      </trkpt>
      <trkpt lat="42.61516" lon="1.73">
        <ele>2446.319</ele>
        <time>2021-08-06T12:23:13Z</time>
      </trkpt>
      <trkpt lat="42.61514" lon="1.72998">
        <ele>2446.291</ele>
        <time>2021-08-06T12:23:15Z</time>
      </trkpt>
      <trkpt lat="42.61513" lon="1.72999">
        <ele>2446.565</ele>
        <time>2021-08-06T12:23:17Z</time>
      </trkpt>
      <trkpt lat="42.61512" lon="1.73001">
        <ele>2446.034</ele>
        <time>2021-08-06T12:23:19Z</time>
      </trkpt>
      <trkpt lat="42.61512" lon="1.73003">
        <ele>2446.181</ele>
        <time>2021-08-06T12:23:21Z</time>
      </trkpt>
      <trkpt lat="42.61511" lon="1.73005">
        <ele>2445.798</ele>
        <time>2021-08-06T12:23:23Z</time>
      </trkpt>
      <trkpt lat="42.6151" lon="1.73006">
        <ele>2445.702</ele>
        <time>2021-08-06T12:23:25Z</time>
      </trkpt>
      <trkpt lat="42.61511" lon="1.73007">
        <ele>2445.89</ele>
        <time>2021-08-06T12:23:27Z</time>
      </trkpt>
      <trkpt lat="42.61511" lon="1.73007">
        <ele>2445.888</ele>
        <time>2021-08-06T12:23:29Z</time>
      </trkpt>
      <trkpt lat="42.61511" lon="1.73007">
        <ele>2445.889</ele>
        <time>2021-08-06T12:23:31Z</time>
      </trkpt>
      <trkpt lat="42.61511" lon="1.73007">
        <ele>2445.884</ele>
        <time>2021-08-06T12:23:33Z</time>
      </trkpt>
      <trkpt lat="42.61511" lon="1.73007">
        <ele>2445.884</ele>
        <time>2021-08-06T12:23:35Z</time>
      </trkpt>
      <trkpt lat="42.61511" lon="1.73007">
        <ele>2445.849</ele>
        <time>2021-08-06T12:23:37Z</time>
      </trkpt>
      <trkpt lat="42.61511" lon="1.73007">
        <ele>2445.847</ele>
        <time>2021-08-06T12:23:39Z</time>
      </trkpt>
      <trkpt lat="42.61511" lon="1.73007">
        <ele>2445.658</ele>
        <time>2021-08-06T12:23:41Z</time>
      </trkpt>
      <trkpt lat="42.6151" lon="1.73007">
        <ele>2445.145</ele>
        <time>2021-08-06T12:23:43Z</time>
      </trkpt>
      <trkpt lat="42.61513" lon="1.73011">
        <ele>2444.642</ele>
        <time>2021-08-06T12:23:45Z</time>
      </trkpt>
      <trkpt lat="42.61514" lon="1.73012">
        <ele>2444.285</ele>
        <time>2021-08-06T12:23:47Z</time>
      </trkpt>
      <trkpt lat="42.61511" lon="1.73013">
        <ele>2443.815</ele>
        <time>2021-08-06T12:23:49Z</time>
      </trkpt>
      <trkpt lat="42.6151" lon="1.73013">
        <ele>2443.529</ele>
        <time>2021-08-06T12:23:51Z</time>
      </trkpt>
      <trkpt lat="42.61508" lon="1.73015">
        <ele>2445.26</ele>
        <time>2021-08-06T12:23:53Z</time>
      </trkpt>
      <trkpt lat="42.61506" lon="1.73016">
        <ele>2445.587</ele>
        <time>2021-08-06T12:23:55Z</time>
      </trkpt>
      <trkpt lat="42.61505" lon="1.73017">
        <ele>2446.162</ele>
        <time>2021-08-06T12:23:57Z</time>
      </trkpt>
      <trkpt lat="42.61504" lon="1.73018">
        <ele>2446.13</ele>
        <time>2021-08-06T12:23:59Z</time>
      </trkpt>
      <trkpt lat="42.61503" lon="1.73019">
        <ele>2444.867</ele>
        <time>2021-08-06T12:24:01Z</time>
      </trkpt>
      <trkpt lat="42.61503" lon="1.7302">
        <ele>2444.652</ele>
        <time>2021-08-06T12:24:03Z</time>
      </trkpt>
      <trkpt lat="42.61501" lon="1.73021">
        <ele>2443.864</ele>
        <time>2021-08-06T12:24:05Z</time>
      </trkpt>
      <trkpt lat="42.615" lon="1.73021">
        <ele>2443.568</ele>
        <time>2021-08-06T12:24:07Z</time>
      </trkpt>
      <trkpt lat="42.61498" lon="1.7302">
        <ele>2441.787</ele>
        <time>2021-08-06T12:24:09Z</time>
      </trkpt>
      <trkpt lat="42.61496" lon="1.73018">
        <ele>2443.812</ele>
        <time>2021-08-06T12:24:11Z</time>
      </trkpt>
      <trkpt lat="42.61494" lon="1.73017">
        <ele>2444.424</ele>
        <time>2021-08-06T12:24:13Z</time>
      </trkpt>
      <trkpt lat="42.61492" lon="1.73021">
        <ele>2443.262</ele>
        <time>2021-08-06T12:24:15Z</time>
      </trkpt>
      <trkpt lat="42.61491" lon="1.73022">
        <ele>2443.26</ele>
        <time>2021-08-06T12:24:17Z</time>
      </trkpt>
      <trkpt lat="42.61491" lon="1.73023">
        <ele>2443.241</ele>
        <time>2021-08-06T12:24:19Z</time>
      </trkpt>
      <trkpt lat="42.61491" lon="1.73023">
        <ele>2443.222</ele>
        <time>2021-08-06T12:24:21Z</time>
      </trkpt>
      <trkpt lat="42.61491" lon="1.73023">
        <ele>2443.207</ele>
        <time>2021-08-06T12:24:23Z</time>
      </trkpt>
      <trkpt lat="42.61491" lon="1.73023">
        <ele>2443.195</ele>
        <time>2021-08-06T12:24:25Z</time>
      </trkpt>
      <trkpt lat="42.61491" lon="1.73023">
        <ele>2443.204</ele>
        <time>2021-08-06T12:24:27Z</time>
      </trkpt>
      <trkpt lat="42.61491" lon="1.73023">
        <ele>2443.21</ele>
        <time>2021-08-06T12:24:29Z</time>
      </trkpt>
      <trkpt lat="42.61491" lon="1.73023">
        <ele>2443.206</ele>
        <time>2021-08-06T12:24:31Z</time>
      </trkpt>
      <trkpt lat="42.61491" lon="1.73023">
        <ele>2443.195</ele>
        <time>2021-08-06T12:24:33Z</time>
      </trkpt>
      <trkpt lat="42.61491" lon="1.73023">
        <ele>2443.186</ele>
        <time>2021-08-06T12:24:35Z</time>
      </trkpt>
      <trkpt lat="42.61491" lon="1.73023">
        <ele>2443.183</ele>
        <time>2021-08-06T12:24:37Z</time>
      </trkpt>
      <trkpt lat="42.61491" lon="1.73023">
        <ele>2443.193</ele>
        <time>2021-08-06T12:24:39Z</time>
      </trkpt>
      <trkpt lat="42.61491" lon="1.73023">
        <ele>2443.211</ele>
        <time>2021-08-06T12:24:41Z</time>
      </trkpt>
      <trkpt lat="42.61491" lon="1.73023">
        <ele>2443.214</ele>
        <time>2021-08-06T12:24:43Z</time>
      </trkpt>
      <trkpt lat="42.61492" lon="1.73023">
        <ele>2443.206</ele>
        <time>2021-08-06T12:24:45Z</time>
      </trkpt>
      <trkpt lat="42.61492" lon="1.73023">
        <ele>2443.21</ele>
        <time>2021-08-06T12:24:47Z</time>
      </trkpt>
      <trkpt lat="42.61492" lon="1.73023">
        <ele>2443.229</ele>
        <time>2021-08-06T12:24:49Z</time>
      </trkpt>
      <trkpt lat="42.61492" lon="1.73023">
        <ele>2443.254</ele>
        <time>2021-08-06T12:24:51Z</time>
      </trkpt>
      <trkpt lat="42.61492" lon="1.73023">
        <ele>2443.266</ele>
        <time>2021-08-06T12:24:53Z</time>
      </trkpt>
      <trkpt lat="42.61492" lon="1.73023">
        <ele>2443.27</ele>
        <time>2021-08-06T12:24:55Z</time>
      </trkpt>
      <trkpt lat="42.61492" lon="1.73023">
        <ele>2443.278</ele>
        <time>2021-08-06T12:24:57Z</time>
      </trkpt>
      <trkpt lat="42.61492" lon="1.73023">
        <ele>2443.282</ele>
        <time>2021-08-06T12:24:59Z</time>
      </trkpt>
      <trkpt lat="42.61492" lon="1.73023">
        <ele>2443.283</ele>
        <time>2021-08-06T12:25:01Z</time>
      </trkpt>
      <trkpt lat="42.61492" lon="1.73023">
        <ele>2443.282</ele>
        <time>2021-08-06T12:25:03Z</time>
      </trkpt>
      <trkpt lat="42.61492" lon="1.73023">
        <ele>2443.287</ele>
        <time>2021-08-06T12:25:05Z</time>
      </trkpt>
      <trkpt lat="42.61492" lon="1.73023">
        <ele>2443.291</ele>
        <time>2021-08-06T12:25:07Z</time>
      </trkpt>
      <trkpt lat="42.61492" lon="1.73023">
        <ele>2443.27</ele>
        <time>2021-08-06T12:25:09Z</time>
      </trkpt>
      <trkpt lat="42.61492" lon="1.73023">
        <ele>2443.257</ele>
        <time>2021-08-06T12:25:11Z</time>
      </trkpt>
      <trkpt lat="42.61492" lon="1.73023">
        <ele>2443.244</ele>
        <time>2021-08-06T12:25:13Z</time>
      </trkpt>
      <trkpt lat="42.61492" lon="1.73023">
        <ele>2443.24</ele>
        <time>2021-08-06T12:25:15Z</time>
      </trkpt>
      <trkpt lat="42.61492" lon="1.73023">
        <ele>2443.256</ele>
        <time>2021-08-06T12:25:17Z</time>
      </trkpt>
      <trkpt lat="42.61492" lon="1.73023">
        <ele>2443.261</ele>
        <time>2021-08-06T12:25:19Z</time>
      </trkpt>
      <trkpt lat="42.61492" lon="1.73023">
        <ele>2443.266</ele>
        <time>2021-08-06T12:25:21Z</time>
      </trkpt>
      <trkpt lat="42.61492" lon="1.73023">
        <ele>2443.273</ele>
        <time>2021-08-06T12:25:23Z</time>
      </trkpt>
      <trkpt lat="42.61492" lon="1.73023">
        <ele>2443.268</ele>
        <time>2021-08-06T12:25:25Z</time>
      </trkpt>
      <trkpt lat="42.61492" lon="1.73023">
        <ele>2443.265</ele>
        <time>2021-08-06T12:25:27Z</time>
      </trkpt>
      <trkpt lat="42.61492" lon="1.73023">
        <ele>2443.264</ele>
        <time>2021-08-06T12:25:29Z</time>
      </trkpt>
      <trkpt lat="42.61492" lon="1.73023">
        <ele>2443.257</ele>
        <time>2021-08-06T12:25:31Z</time>
      </trkpt>
      <trkpt lat="42.61492" lon="1.73023">
        <ele>2443.254</ele>
        <time>2021-08-06T12:25:33Z</time>
      </trkpt>
      <trkpt lat="42.61492" lon="1.73023">
        <ele>2443.252</ele>
        <time>2021-08-06T12:25:35Z</time>
      </trkpt>
      <trkpt lat="42.61492" lon="1.73023">
        <ele>2443.247</ele>
        <time>2021-08-06T12:25:37Z</time>
      </trkpt>
      <trkpt lat="42.61492" lon="1.73023">
        <ele>2443.242</ele>
        <time>2021-08-06T12:25:39Z</time>
      </trkpt>
      <trkpt lat="42.61492" lon="1.73023">
        <ele>2443.238</ele>
        <time>2021-08-06T12:25:41Z</time>
      </trkpt>
      <trkpt lat="42.61492" lon="1.73024">
        <ele>2443.237</ele>
        <time>2021-08-06T12:25:43Z</time>
      </trkpt>
      <trkpt lat="42.61492" lon="1.73023">
        <ele>2443.233</ele>
        <time>2021-08-06T12:25:45Z</time>
      </trkpt>
      <trkpt lat="42.61492" lon="1.73023">
        <ele>2443.231</ele>
        <time>2021-08-06T12:25:47Z</time>
      </trkpt>
      <trkpt lat="42.61492" lon="1.73024">
        <ele>2443.237</ele>
        <time>2021-08-06T12:25:49Z</time>
      </trkpt>
      <trkpt lat="42.61492" lon="1.73024">
        <ele>2443.237</ele>
        <time>2021-08-06T12:25:51Z</time>
      </trkpt>
      <trkpt lat="42.61492" lon="1.73024">
        <ele>2443.239</ele>
        <time>2021-08-06T12:25:53Z</time>
      </trkpt>
      <trkpt lat="42.61492" lon="1.73024">
        <ele>2443.304</ele>
        <time>2021-08-06T12:25:55Z</time>
      </trkpt>
      <trkpt lat="42.61494" lon="1.73023">
        <ele>2442.709</ele>
        <time>2021-08-06T12:25:57Z</time>
      </trkpt>
      <trkpt lat="42.61496" lon="1.73023">
        <ele>2442.275</ele>
        <time>2021-08-06T12:25:59Z</time>
      </trkpt>
      <trkpt lat="42.61497" lon="1.73022">
        <ele>2443.473</ele>
        <time>2021-08-06T12:26:01Z</time>
      </trkpt>
      <trkpt lat="42.61498" lon="1.73021">
        <ele>2443.204</ele>
        <time>2021-08-06T12:26:03Z</time>
      </trkpt>
      <trkpt lat="42.61498" lon="1.73021">
        <ele>2443.12</ele>
        <time>2021-08-06T12:26:05Z</time>
      </trkpt>
      <trkpt lat="42.61497" lon="1.73017">
        <ele>2442.727</ele>
        <time>2021-08-06T12:26:07Z</time>
      </trkpt>
      <trkpt lat="42.61498" lon="1.73014">
        <ele>2441.952</ele>
        <time>2021-08-06T12:26:09Z</time>
      </trkpt>
      <trkpt lat="42.615" lon="1.73014">
        <ele>2441.906</ele>
        <time>2021-08-06T12:26:11Z</time>
      </trkpt>
      <trkpt lat="42.61501" lon="1.73013">
        <ele>2441.964</ele>
        <time>2021-08-06T12:26:13Z</time>
      </trkpt>
      <trkpt lat="42.61503" lon="1.73013">
        <ele>2441.811</ele>
        <time>2021-08-06T12:26:15Z</time>
      </trkpt>
      <trkpt lat="42.61503" lon="1.73013">
        <ele>2442.068</ele>
        <time>2021-08-06T12:26:17Z</time>
      </trkpt>
      <trkpt lat="42.61503" lon="1.73013">
        <ele>2442.201</ele>
        <time>2021-08-06T12:26:19Z</time>
      </trkpt>
      <trkpt lat="42.61504" lon="1.73012">
        <ele>2442.893</ele>
        <time>2021-08-06T12:26:21Z</time>
      </trkpt>
      <trkpt lat="42.61506" lon="1.73011">
        <ele>2443.375</ele>
        <time>2021-08-06T12:26:23Z</time>
      </trkpt>
      <trkpt lat="42.61507" lon="1.73009">
        <ele>2443.22</ele>
        <time>2021-08-06T12:26:25Z</time>
      </trkpt>
      <trkpt lat="42.61509" lon="1.73008">
        <ele>2443.016</ele>
        <time>2021-08-06T12:26:27Z</time>
      </trkpt>
      <trkpt lat="42.61509" lon="1.73007">
        <ele>2443.152</ele>
        <time>2021-08-06T12:26:29Z</time>
      </trkpt>
      <trkpt lat="42.61509" lon="1.73008">
        <ele>2443.13</ele>
        <time>2021-08-06T12:26:31Z</time>
      </trkpt>
      <trkpt lat="42.61509" lon="1.73008">
        <ele>2443.123</ele>
        <time>2021-08-06T12:26:33Z</time>
      </trkpt>
      <trkpt lat="42.61509" lon="1.73008">
        <ele>2443.128</ele>
        <time>2021-08-06T12:26:35Z</time>
      </trkpt>
      <trkpt lat="42.61509" lon="1.73007">
        <ele>2443.287</ele>
        <time>2021-08-06T12:26:37Z</time>
      </trkpt>
      <trkpt lat="42.61509" lon="1.73005">
        <ele>2442.631</ele>
        <time>2021-08-06T12:26:39Z</time>
      </trkpt>
      <trkpt lat="42.6151" lon="1.73004">
        <ele>2441.996</ele>
        <time>2021-08-06T12:26:41Z</time>
      </trkpt>
      <trkpt lat="42.6151" lon="1.73003">
        <ele>2442.115</ele>
        <time>2021-08-06T12:26:43Z</time>
      </trkpt>
      <trkpt lat="42.61512" lon="1.73001">
        <ele>2442.146</ele>
        <time>2021-08-06T12:26:45Z</time>
      </trkpt>
      <trkpt lat="42.61512" lon="1.73001">
        <ele>2442.719</ele>
        <time>2021-08-06T12:26:47Z</time>
      </trkpt>
      <trkpt lat="42.61512" lon="1.73001">
        <ele>2442.74</ele>
        <time>2021-08-06T12:26:49Z</time>
      </trkpt>
      <trkpt lat="42.61512" lon="1.73001">
        <ele>2442.741</ele>
        <time>2021-08-06T12:26:51Z</time>
      </trkpt>
      <trkpt lat="42.61513" lon="1.73">
        <ele>2442.666</ele>
        <time>2021-08-06T12:26:53Z</time>
      </trkpt>
      <trkpt lat="42.61513" lon="1.72999">
        <ele>2442.791</ele>
        <time>2021-08-06T12:26:55Z</time>
      </trkpt>
      <trkpt lat="42.61515" lon="1.72997">
        <ele>2443.342</ele>
        <time>2021-08-06T12:26:57Z</time>
      </trkpt>
      <trkpt lat="42.61515" lon="1.72995">
        <ele>2443.19</ele>
        <time>2021-08-06T12:26:59Z</time>
      </trkpt>
      <trkpt lat="42.61515" lon="1.72993">
        <ele>2442.696</ele>
        <time>2021-08-06T12:27:01Z</time>
      </trkpt>
      <trkpt lat="42.61515" lon="1.72991">
        <ele>2443.171</ele>
        <time>2021-08-06T12:27:03Z</time>
      </trkpt>
      <trkpt lat="42.61516" lon="1.7299">
        <ele>2442.88</ele>
        <time>2021-08-06T12:27:05Z</time>
      </trkpt>
      <trkpt lat="42.61517" lon="1.72988">
        <ele>2442.579</ele>
        <time>2021-08-06T12:27:07Z</time>
      </trkpt>
      <trkpt lat="42.61517" lon="1.72986">
        <ele>2442.568</ele>
        <time>2021-08-06T12:27:09Z</time>
      </trkpt>
      <trkpt lat="42.61517" lon="1.72984">
        <ele>2442.647</ele>
        <time>2021-08-06T12:27:11Z</time>
      </trkpt>
      <trkpt lat="42.61517" lon="1.72981">
        <ele>2441.465</ele>
        <time>2021-08-06T12:27:13Z</time>
      </trkpt>
      <trkpt lat="42.61518" lon="1.72981">
        <ele>2442.149</ele>
        <time>2021-08-06T12:27:15Z</time>
      </trkpt>
      <trkpt lat="42.61518" lon="1.72979">
        <ele>2441.805</ele>
        <time>2021-08-06T12:27:17Z</time>
      </trkpt>
      <trkpt lat="42.61519" lon="1.72979">
        <ele>2441.22</ele>
        <time>2021-08-06T12:27:19Z</time>
      </trkpt>
      <trkpt lat="42.61521" lon="1.72978">
        <ele>2441.157</ele>
        <time>2021-08-06T12:27:21Z</time>
      </trkpt>
      <trkpt lat="42.61522" lon="1.72977">
        <ele>2442.098</ele>
        <time>2021-08-06T12:27:23Z</time>
      </trkpt>
      <trkpt lat="42.61524" lon="1.72977">
        <ele>2444.086</ele>
        <time>2021-08-06T12:27:25Z</time>
      </trkpt>
      <trkpt lat="42.61525" lon="1.72978">
        <ele>2443.979</ele>
        <time>2021-08-06T12:27:27Z</time>
      </trkpt>
      <trkpt lat="42.61527" lon="1.72975">
        <ele>2443.805</ele>
        <time>2021-08-06T12:27:29Z</time>
      </trkpt>
      <trkpt lat="42.61527" lon="1.72974">
        <ele>2444.421</ele>
        <time>2021-08-06T12:27:31Z</time>
      </trkpt>
      <trkpt lat="42.61529" lon="1.72974">
        <ele>2444.112</ele>
        <time>2021-08-06T12:27:33Z</time>
      </trkpt>
      <trkpt lat="42.6153" lon="1.72972">
        <ele>2443.332</ele>
        <time>2021-08-06T12:27:35Z</time>
      </trkpt>
      <trkpt lat="42.61531" lon="1.72971">
        <ele>2442.899</ele>
        <time>2021-08-06T12:27:37Z</time>
      </trkpt>
      <trkpt lat="42.6153" lon="1.72971">
        <ele>2442.422</ele>
        <time>2021-08-06T12:27:39Z</time>
      </trkpt>
      <trkpt lat="42.61528" lon="1.7297">
        <ele>2442.375</ele>
        <time>2021-08-06T12:27:41Z</time>
      </trkpt>
      <trkpt lat="42.61527" lon="1.72969">
        <ele>2442.282</ele>
        <time>2021-08-06T12:27:43Z</time>
      </trkpt>
      <trkpt lat="42.61526" lon="1.72968">
        <ele>2441.962</ele>
        <time>2021-08-06T12:27:45Z</time>
      </trkpt>
      <trkpt lat="42.61526" lon="1.72968">
        <ele>2441.326</ele>
        <time>2021-08-06T12:27:47Z</time>
      </trkpt>
      <trkpt lat="42.61527" lon="1.72968">
        <ele>2440.781</ele>
        <time>2021-08-06T12:27:49Z</time>
      </trkpt>
      <trkpt lat="42.61527" lon="1.72968">
        <ele>2440.365</ele>
        <time>2021-08-06T12:27:51Z</time>
      </trkpt>
      <trkpt lat="42.61529" lon="1.72968">
        <ele>2440.68</ele>
        <time>2021-08-06T12:27:53Z</time>
      </trkpt>
      <trkpt lat="42.61529" lon="1.72968">
        <ele>2440.854</ele>
        <time>2021-08-06T12:27:55Z</time>
      </trkpt>
      <trkpt lat="42.61529" lon="1.72966">
        <ele>2439.99</ele>
        <time>2021-08-06T12:27:57Z</time>
      </trkpt>
      <trkpt lat="42.6153" lon="1.72965">
        <ele>2438.891</ele>
        <time>2021-08-06T12:27:59Z</time>
      </trkpt>
      <trkpt lat="42.61531" lon="1.72964">
        <ele>2438.65</ele>
        <time>2021-08-06T12:28:01Z</time>
      </trkpt>
      <trkpt lat="42.61531" lon="1.72963">
        <ele>2438.756</ele>
        <time>2021-08-06T12:28:03Z</time>
      </trkpt>
      <trkpt lat="42.61532" lon="1.72962">
        <ele>2439.32</ele>
        <time>2021-08-06T12:28:05Z</time>
      </trkpt>
      <trkpt lat="42.61533" lon="1.72962">
        <ele>2439.623</ele>
        <time>2021-08-06T12:28:07Z</time>
      </trkpt>
      <trkpt lat="42.61533" lon="1.72962">
        <ele>2439.323</ele>
        <time>2021-08-06T12:28:09Z</time>
      </trkpt>
      <trkpt lat="42.61534" lon="1.72962">
        <ele>2438.93</ele>
        <time>2021-08-06T12:28:11Z</time>
      </trkpt>
      <trkpt lat="42.61534" lon="1.72961">
        <ele>2438.89</ele>
        <time>2021-08-06T12:28:13Z</time>
      </trkpt>
      <trkpt lat="42.61534" lon="1.7296">
        <ele>2438.996</ele>
        <time>2021-08-06T12:28:15Z</time>
      </trkpt>
      <trkpt lat="42.61534" lon="1.7296">
        <ele>2439.007</ele>
        <time>2021-08-06T12:28:17Z</time>
      </trkpt>
      <trkpt lat="42.61535" lon="1.72957">
        <ele>2438.04</ele>
        <time>2021-08-06T12:28:19Z</time>
      </trkpt>
      <trkpt lat="42.61536" lon="1.72957">
        <ele>2437.831</ele>
        <time>2021-08-06T12:28:21Z</time>
      </trkpt>
      <trkpt lat="42.61538" lon="1.72957">
        <ele>2436.213</ele>
        <time>2021-08-06T12:28:23Z</time>
      </trkpt>
      <trkpt lat="42.61537" lon="1.72957">
        <ele>2433.443</ele>
        <time>2021-08-06T12:28:25Z</time>
      </trkpt>
      <trkpt lat="42.61538" lon="1.72958">
        <ele>2432.964</ele>
        <time>2021-08-06T12:28:27Z</time>
      </trkpt>
      <trkpt lat="42.61538" lon="1.72957">
        <ele>2432.711</ele>
        <time>2021-08-06T12:28:29Z</time>
      </trkpt>
      <trkpt lat="42.61537" lon="1.72957">
        <ele>2432.134</ele>
        <time>2021-08-06T12:28:31Z</time>
      </trkpt>
      <trkpt lat="42.61537" lon="1.72957">
        <ele>2432.012</ele>
        <time>2021-08-06T12:28:33Z</time>
      </trkpt>
      <trkpt lat="42.61537" lon="1.72957">
        <ele>2431.98</ele>
        <time>2021-08-06T12:28:35Z</time>
      </trkpt>
      <trkpt lat="42.61537" lon="1.72957">
        <ele>2431.947</ele>
        <time>2021-08-06T12:28:37Z</time>
      </trkpt>
      <trkpt lat="42.61538" lon="1.72957">
        <ele>2431.258</ele>
        <time>2021-08-06T12:28:39Z</time>
      </trkpt>
      <trkpt lat="42.61539" lon="1.72957">
        <ele>2429.852</ele>
        <time>2021-08-06T12:28:41Z</time>
      </trkpt>
      <trkpt lat="42.61539" lon="1.72956">
        <ele>2428.912</ele>
        <time>2021-08-06T12:28:43Z</time>
      </trkpt>
      <trkpt lat="42.61538" lon="1.72956">
        <ele>2428.881</ele>
        <time>2021-08-06T12:28:45Z</time>
      </trkpt>
      <trkpt lat="42.61538" lon="1.72956">
        <ele>2428.884</ele>
        <time>2021-08-06T12:28:47Z</time>
      </trkpt>
      <trkpt lat="42.61538" lon="1.72956">
        <ele>2428.891</ele>
        <time>2021-08-06T12:28:49Z</time>
      </trkpt>
      <trkpt lat="42.61538" lon="1.72956">
        <ele>2428.901</ele>
        <time>2021-08-06T12:28:51Z</time>
      </trkpt>
      <trkpt lat="42.61538" lon="1.72956">
        <ele>2428.908</ele>
        <time>2021-08-06T12:28:53Z</time>
      </trkpt>
      <trkpt lat="42.61538" lon="1.72956">
        <ele>2428.907</ele>
        <time>2021-08-06T12:28:55Z</time>
      </trkpt>
      <trkpt lat="42.61539" lon="1.72957">
        <ele>2428.422</ele>
        <time>2021-08-06T12:28:57Z</time>
      </trkpt>
      <trkpt lat="42.6154" lon="1.72957">
        <ele>2429.044</ele>
        <time>2021-08-06T12:28:59Z</time>
      </trkpt>
      <trkpt lat="42.6154" lon="1.72957">
        <ele>2429.023</ele>
        <time>2021-08-06T12:29:01Z</time>
      </trkpt>
      <trkpt lat="42.6154" lon="1.72957">
        <ele>2429.022</ele>
        <time>2021-08-06T12:29:03Z</time>
      </trkpt>
      <trkpt lat="42.6154" lon="1.72957">
        <ele>2429.042</ele>
        <time>2021-08-06T12:29:05Z</time>
      </trkpt>
      <trkpt lat="42.6154" lon="1.72957">
        <ele>2429.051</ele>
        <time>2021-08-06T12:29:07Z</time>
      </trkpt>
      <trkpt lat="42.61541" lon="1.72958">
        <ele>2428.885</ele>
        <time>2021-08-06T12:29:09Z</time>
      </trkpt>
      <trkpt lat="42.6154" lon="1.72958">
        <ele>2428.765</ele>
        <time>2021-08-06T12:29:11Z</time>
      </trkpt>
      <trkpt lat="42.6154" lon="1.72958">
        <ele>2428.754</ele>
        <time>2021-08-06T12:29:13Z</time>
      </trkpt>
      <trkpt lat="42.6154" lon="1.72958">
        <ele>2428.729</ele>
        <time>2021-08-06T12:29:15Z</time>
      </trkpt>
      <trkpt lat="42.6154" lon="1.72959">
        <ele>2428.208</ele>
        <time>2021-08-06T12:29:17Z</time>
      </trkpt>
      <trkpt lat="42.61541" lon="1.7296">
        <ele>2426.899</ele>
        <time>2021-08-06T12:29:19Z</time>
      </trkpt>
      <trkpt lat="42.61541" lon="1.72962">
        <ele>2427.573</ele>
        <time>2021-08-06T12:29:21Z</time>
      </trkpt>
      <trkpt lat="42.61542" lon="1.72963">
        <ele>2426.703</ele>
        <time>2021-08-06T12:29:23Z</time>
      </trkpt>
      <trkpt lat="42.61542" lon="1.72965">
        <ele>2426.237</ele>
        <time>2021-08-06T12:29:25Z</time>
      </trkpt>
      <trkpt lat="42.61543" lon="1.72967">
        <ele>2426.467</ele>
        <time>2021-08-06T12:29:27Z</time>
      </trkpt>
      <trkpt lat="42.61543" lon="1.72969">
        <ele>2426.446</ele>
        <time>2021-08-06T12:29:29Z</time>
      </trkpt>
      <trkpt lat="42.61544" lon="1.7297">
        <ele>2426.406</ele>
        <time>2021-08-06T12:29:31Z</time>
      </trkpt>
      <trkpt lat="42.61544" lon="1.7297">
        <ele>2426.407</ele>
        <time>2021-08-06T12:29:33Z</time>
      </trkpt>
      <trkpt lat="42.61544" lon="1.7297">
        <ele>2426.399</ele>
        <time>2021-08-06T12:29:35Z</time>
      </trkpt>
      <trkpt lat="42.61544" lon="1.7297">
        <ele>2426.387</ele>
        <time>2021-08-06T12:29:37Z</time>
      </trkpt>
      <trkpt lat="42.61544" lon="1.72971">
        <ele>2426.492</ele>
        <time>2021-08-06T12:29:39Z</time>
      </trkpt>
      <trkpt lat="42.61544" lon="1.72972">
        <ele>2426.103</ele>
        <time>2021-08-06T12:29:41Z</time>
      </trkpt>
      <trkpt lat="42.61544" lon="1.72975">
        <ele>2426.229</ele>
        <time>2021-08-06T12:29:43Z</time>
      </trkpt>
      <trkpt lat="42.61544" lon="1.72977">
        <ele>2426.314</ele>
        <time>2021-08-06T12:29:45Z</time>
      </trkpt>
      <trkpt lat="42.61544" lon="1.72979">
        <ele>2426.117</ele>
        <time>2021-08-06T12:29:47Z</time>
      </trkpt>
      <trkpt lat="42.61544" lon="1.72981">
        <ele>2425.791</ele>
        <time>2021-08-06T12:29:49Z</time>
      </trkpt>
      <trkpt lat="42.61544" lon="1.72982">
        <ele>2426.04</ele>
        <time>2021-08-06T12:29:51Z</time>
      </trkpt>
      <trkpt lat="42.61544" lon="1.72983">
        <ele>2424.852</ele>
        <time>2021-08-06T12:29:53Z</time>
      </trkpt>
      <trkpt lat="42.61545" lon="1.72985">
        <ele>2424.956</ele>
        <time>2021-08-06T12:29:55Z</time>
      </trkpt>
      <trkpt lat="42.61545" lon="1.72984">
        <ele>2423.828</ele>
        <time>2021-08-06T12:29:57Z</time>
      </trkpt>
      <trkpt lat="42.61547" lon="1.72982">
        <ele>2423.024</ele>
        <time>2021-08-06T12:29:59Z</time>
      </trkpt>
      <trkpt lat="42.61549" lon="1.7298">
        <ele>2422.697</ele>
        <time>2021-08-06T12:30:01Z</time>
      </trkpt>
      <trkpt lat="42.61548" lon="1.72985">
        <ele>2421.206</ele>
        <time>2021-08-06T12:30:03Z</time>
      </trkpt>
      <trkpt lat="42.61549" lon="1.72987">
        <ele>2421.597</ele>
        <time>2021-08-06T12:30:05Z</time>
      </trkpt>
      <trkpt lat="42.61549" lon="1.7299">
        <ele>2420.215</ele>
        <time>2021-08-06T12:30:07Z</time>
      </trkpt>
      <trkpt lat="42.6155" lon="1.72991">
        <ele>2419.591</ele>
        <time>2021-08-06T12:30:09Z</time>
      </trkpt>
      <trkpt lat="42.6155" lon="1.72993">
        <ele>2419.046</ele>
        <time>2021-08-06T12:30:11Z</time>
      </trkpt>
      <trkpt lat="42.61549" lon="1.72996">
        <ele>2419.523</ele>
        <time>2021-08-06T12:30:13Z</time>
      </trkpt>
      <trkpt lat="42.61549" lon="1.72998">
        <ele>2419.508</ele>
        <time>2021-08-06T12:30:15Z</time>
      </trkpt>
      <trkpt lat="42.61548" lon="1.73">
        <ele>2419.261</ele>
        <time>2021-08-06T12:30:17Z</time>
      </trkpt>
      <trkpt lat="42.61548" lon="1.73002">
        <ele>2419.404</ele>
        <time>2021-08-06T12:30:19Z</time>
      </trkpt>
      <trkpt lat="42.61547" lon="1.73004">
        <ele>2419.634</ele>
        <time>2021-08-06T12:30:21Z</time>
      </trkpt>
      <trkpt lat="42.61546" lon="1.73006">
        <ele>2419.575</ele>
        <time>2021-08-06T12:30:23Z</time>
      </trkpt>
      <trkpt lat="42.61546" lon="1.73009">
        <ele>2419.511</ele>
        <time>2021-08-06T12:30:25Z</time>
      </trkpt>
      <trkpt lat="42.61546" lon="1.73011">
        <ele>2418.884</ele>
        <time>2021-08-06T12:30:27Z</time>
      </trkpt>
      <trkpt lat="42.61547" lon="1.73012">
        <ele>2418.118</ele>
        <time>2021-08-06T12:30:29Z</time>
      </trkpt>
      <trkpt lat="42.61549" lon="1.73013">
        <ele>2418.124</ele>
        <time>2021-08-06T12:30:31Z</time>
      </trkpt>
      <trkpt lat="42.6155" lon="1.73011">
        <ele>2418.006</ele>
        <time>2021-08-06T12:30:33Z</time>
      </trkpt>
      <trkpt lat="42.61553" lon="1.73006">
        <ele>2417.308</ele>
        <time>2021-08-06T12:30:35Z</time>
      </trkpt>
      <trkpt lat="42.61557" lon="1.73009">
        <ele>2416.132</ele>
        <time>2021-08-06T12:30:37Z</time>
      </trkpt>
      <trkpt lat="42.61557" lon="1.73013">
        <ele>2417.037</ele>
        <time>2021-08-06T12:30:39Z</time>
      </trkpt>
      <trkpt lat="42.61556" lon="1.73017">
        <ele>2417.059</ele>
        <time>2021-08-06T12:30:41Z</time>
      </trkpt>
      <trkpt lat="42.61556" lon="1.7302">
        <ele>2416.508</ele>
        <time>2021-08-06T12:30:43Z</time>
      </trkpt>
      <trkpt lat="42.61556" lon="1.73023">
        <ele>2416.144</ele>
        <time>2021-08-06T12:30:45Z</time>
      </trkpt>
      <trkpt lat="42.61556" lon="1.73026">
        <ele>2416.215</ele>
        <time>2021-08-06T12:30:47Z</time>
      </trkpt>
      <trkpt lat="42.61557" lon="1.73028">
        <ele>2416.142</ele>
        <time>2021-08-06T12:30:49Z</time>
      </trkpt>
      <trkpt lat="42.61557" lon="1.7303">
        <ele>2415.191</ele>
        <time>2021-08-06T12:30:51Z</time>
      </trkpt>
      <trkpt lat="42.61557" lon="1.73032">
        <ele>2414.624</ele>
        <time>2021-08-06T12:30:53Z</time>
      </trkpt>
      <trkpt lat="42.61556" lon="1.73035">
        <ele>2414.378</ele>
        <time>2021-08-06T12:30:55Z</time>
      </trkpt>
      <trkpt lat="42.61556" lon="1.73037">
        <ele>2414.12</ele>
        <time>2021-08-06T12:30:57Z</time>
      </trkpt>
      <trkpt lat="42.61556" lon="1.73039">
        <ele>2413.561</ele>
        <time>2021-08-06T12:30:59Z</time>
      </trkpt>
      <trkpt lat="42.61558" lon="1.73041">
        <ele>2413.793</ele>
        <time>2021-08-06T12:31:01Z</time>
      </trkpt>
      <trkpt lat="42.6156" lon="1.73042">
        <ele>2413.183</ele>
        <time>2021-08-06T12:31:03Z</time>
      </trkpt>
      <trkpt lat="42.61561" lon="1.73043">
        <ele>2412.865</ele>
        <time>2021-08-06T12:31:05Z</time>
      </trkpt>
      <trkpt lat="42.61561" lon="1.73043">
        <ele>2412.733</ele>
        <time>2021-08-06T12:31:07Z</time>
      </trkpt>
      <trkpt lat="42.61561" lon="1.73043">
        <ele>2412.719</ele>
        <time>2021-08-06T12:31:09Z</time>
      </trkpt>
      <trkpt lat="42.61561" lon="1.73044">
        <ele>2412.303</ele>
        <time>2021-08-06T12:31:11Z</time>
      </trkpt>
      <trkpt lat="42.61562" lon="1.73047">
        <ele>2413.285</ele>
        <time>2021-08-06T12:31:13Z</time>
      </trkpt>
      <trkpt lat="42.61564" lon="1.73047">
        <ele>2412.526</ele>
        <time>2021-08-06T12:31:15Z</time>
      </trkpt>
      <trkpt lat="42.61566" lon="1.73046">
        <ele>2412.267</ele>
        <time>2021-08-06T12:31:17Z</time>
      </trkpt>
      <trkpt lat="42.61568" lon="1.73046">
        <ele>2412.334</ele>
        <time>2021-08-06T12:31:19Z</time>
      </trkpt>
      <trkpt lat="42.6157" lon="1.73045">
        <ele>2412.436</ele>
        <time>2021-08-06T12:31:21Z</time>
      </trkpt>
      <trkpt lat="42.61572" lon="1.73046">
        <ele>2413.706</ele>
        <time>2021-08-06T12:31:23Z</time>
      </trkpt>
      <trkpt lat="42.61574" lon="1.73045">
        <ele>2413.906</ele>
        <time>2021-08-06T12:31:25Z</time>
      </trkpt>
      <trkpt lat="42.61576" lon="1.73046">
        <ele>2413.169</ele>
        <time>2021-08-06T12:31:27Z</time>
      </trkpt>
      <trkpt lat="42.61577" lon="1.73048">
        <ele>2414.364</ele>
        <time>2021-08-06T12:31:29Z</time>
      </trkpt>
      <trkpt lat="42.61578" lon="1.73049">
        <ele>2414.762</ele>
        <time>2021-08-06T12:31:31Z</time>
      </trkpt>
      <trkpt lat="42.61579" lon="1.7305">
        <ele>2414.653</ele>
        <time>2021-08-06T12:31:33Z</time>
      </trkpt>
      <trkpt lat="42.6158" lon="1.73051">
        <ele>2414.504</ele>
        <time>2021-08-06T12:31:35Z</time>
      </trkpt>
      <trkpt lat="42.61581" lon="1.73053">
        <ele>2413.754</ele>
        <time>2021-08-06T12:31:37Z</time>
      </trkpt>
      <trkpt lat="42.61582" lon="1.73055">
        <ele>2412.553</ele>
        <time>2021-08-06T12:31:39Z</time>
      </trkpt>
      <trkpt lat="42.61583" lon="1.73056">
        <ele>2411.74</ele>
        <time>2021-08-06T12:31:41Z</time>
      </trkpt>
      <trkpt lat="42.61583" lon="1.73057">
        <ele>2410.554</ele>
        <time>2021-08-06T12:31:43Z</time>
      </trkpt>
      <trkpt lat="42.61585" lon="1.73058">
        <ele>2409.563</ele>
        <time>2021-08-06T12:31:45Z</time>
      </trkpt>
      <trkpt lat="42.61586" lon="1.73059">
        <ele>2409.248</ele>
        <time>2021-08-06T12:31:47Z</time>
      </trkpt>
      <trkpt lat="42.61587" lon="1.73059">
        <ele>2409.774</ele>
        <time>2021-08-06T12:31:49Z</time>
      </trkpt>
      <trkpt lat="42.61589" lon="1.7306">
        <ele>2408.788</ele>
        <time>2021-08-06T12:31:51Z</time>
      </trkpt>
      <trkpt lat="42.61589" lon="1.73061">
        <ele>2408.469</ele>
        <time>2021-08-06T12:31:53Z</time>
      </trkpt>
      <trkpt lat="42.6159" lon="1.73063">
        <ele>2407.488</ele>
        <time>2021-08-06T12:31:55Z</time>
      </trkpt>
      <trkpt lat="42.61591" lon="1.73063">
        <ele>2405.859</ele>
        <time>2021-08-06T12:31:57Z</time>
      </trkpt>
      <trkpt lat="42.61593" lon="1.73062">
        <ele>2406.232</ele>
        <time>2021-08-06T12:31:59Z</time>
      </trkpt>
      <trkpt lat="42.61593" lon="1.73061">
        <ele>2405.959</ele>
        <time>2021-08-06T12:32:01Z</time>
      </trkpt>
      <trkpt lat="42.61594" lon="1.73061">
        <ele>2404.757</ele>
        <time>2021-08-06T12:32:03Z</time>
      </trkpt>
      <trkpt lat="42.61596" lon="1.73058">
        <ele>2403.483</ele>
        <time>2021-08-06T12:32:05Z</time>
      </trkpt>
      <trkpt lat="42.61597" lon="1.73058">
        <ele>2403.698</ele>
        <time>2021-08-06T12:32:07Z</time>
      </trkpt>
      <trkpt lat="42.61599" lon="1.73058">
        <ele>2403.201</ele>
        <time>2021-08-06T12:32:09Z</time>
      </trkpt>
      <trkpt lat="42.616" lon="1.73059">
        <ele>2402.033</ele>
        <time>2021-08-06T12:32:11Z</time>
      </trkpt>
      <trkpt lat="42.61601" lon="1.73059">
        <ele>2401.006</ele>
        <time>2021-08-06T12:32:13Z</time>
      </trkpt>
      <trkpt lat="42.61602" lon="1.73059">
        <ele>2400.355</ele>
        <time>2021-08-06T12:32:15Z</time>
      </trkpt>
      <trkpt lat="42.61603" lon="1.73059">
        <ele>2399.915</ele>
        <time>2021-08-06T12:32:17Z</time>
      </trkpt>
      <trkpt lat="42.61605" lon="1.73058">
        <ele>2399.068</ele>
        <time>2021-08-06T12:32:19Z</time>
      </trkpt>
      <trkpt lat="42.61606" lon="1.73057">
        <ele>2398.755</ele>
        <time>2021-08-06T12:32:21Z</time>
      </trkpt>
      <trkpt lat="42.61607" lon="1.73057">
        <ele>2398.175</ele>
        <time>2021-08-06T12:32:23Z</time>
      </trkpt>
      <trkpt lat="42.61608" lon="1.73057">
        <ele>2397.549</ele>
        <time>2021-08-06T12:32:25Z</time>
      </trkpt>
      <trkpt lat="42.61609" lon="1.73057">
        <ele>2396.553</ele>
        <time>2021-08-06T12:32:27Z</time>
      </trkpt>
      <trkpt lat="42.61611" lon="1.73058">
        <ele>2395.941</ele>
        <time>2021-08-06T12:32:29Z</time>
      </trkpt>
      <trkpt lat="42.61612" lon="1.73059">
        <ele>2395.324</ele>
        <time>2021-08-06T12:32:31Z</time>
      </trkpt>
      <trkpt lat="42.61613" lon="1.7306">
        <ele>2395.498</ele>
        <time>2021-08-06T12:32:33Z</time>
      </trkpt>
      <trkpt lat="42.61615" lon="1.7306">
        <ele>2394.655</ele>
        <time>2021-08-06T12:32:35Z</time>
      </trkpt>
      <trkpt lat="42.61617" lon="1.7306">
        <ele>2394.18</ele>
        <time>2021-08-06T12:32:37Z</time>
      </trkpt>
      <trkpt lat="42.61618" lon="1.7306">
        <ele>2393.556</ele>
        <time>2021-08-06T12:32:39Z</time>
      </trkpt>
      <trkpt lat="42.6162" lon="1.73059">
        <ele>2392.73</ele>
        <time>2021-08-06T12:32:41Z</time>
      </trkpt>
      <trkpt lat="42.61622" lon="1.73058">
        <ele>2392.186</ele>
        <time>2021-08-06T12:32:43Z</time>
      </trkpt>
      <trkpt lat="42.61623" lon="1.73058">
        <ele>2392.634</ele>
        <time>2021-08-06T12:32:45Z</time>
      </trkpt>
      <trkpt lat="42.61626" lon="1.73059">
        <ele>2391.642</ele>
        <time>2021-08-06T12:32:47Z</time>
      </trkpt>
      <trkpt lat="42.61627" lon="1.7306">
        <ele>2392.486</ele>
        <time>2021-08-06T12:32:49Z</time>
      </trkpt>
      <trkpt lat="42.61629" lon="1.7306">
        <ele>2392.289</ele>
        <time>2021-08-06T12:32:51Z</time>
      </trkpt>
      <trkpt lat="42.6163" lon="1.73062">
        <ele>2391.688</ele>
        <time>2021-08-06T12:32:53Z</time>
      </trkpt>
      <trkpt lat="42.6163" lon="1.73066">
        <ele>2392.364</ele>
        <time>2021-08-06T12:32:55Z</time>
      </trkpt>
      <trkpt lat="42.6163" lon="1.73069">
        <ele>2393.147</ele>
        <time>2021-08-06T12:32:57Z</time>
      </trkpt>
      <trkpt lat="42.6163" lon="1.73072">
        <ele>2393.05</ele>
        <time>2021-08-06T12:32:59Z</time>
      </trkpt>
      <trkpt lat="42.6163" lon="1.73075">
        <ele>2392.661</ele>
        <time>2021-08-06T12:33:01Z</time>
      </trkpt>
      <trkpt lat="42.61632" lon="1.73078">
        <ele>2393.161</ele>
        <time>2021-08-06T12:33:03Z</time>
      </trkpt>
      <trkpt lat="42.61634" lon="1.73079">
        <ele>2393.348</ele>
        <time>2021-08-06T12:33:05Z</time>
      </trkpt>
      <trkpt lat="42.61636" lon="1.7308">
        <ele>2393.766</ele>
        <time>2021-08-06T12:33:07Z</time>
      </trkpt>
      <trkpt lat="42.61636" lon="1.73081">
        <ele>2393.548</ele>
        <time>2021-08-06T12:33:09Z</time>
      </trkpt>
      <trkpt lat="42.61636" lon="1.73083">
        <ele>2392.141</ele>
        <time>2021-08-06T12:33:11Z</time>
      </trkpt>
      <trkpt lat="42.61638" lon="1.73082">
        <ele>2391.41</ele>
        <time>2021-08-06T12:33:13Z</time>
      </trkpt>
      <trkpt lat="42.6164" lon="1.7308">
        <ele>2390.385</ele>
        <time>2021-08-06T12:33:15Z</time>
      </trkpt>
      <trkpt lat="42.61641" lon="1.7308">
        <ele>2389.499</ele>
        <time>2021-08-06T12:33:17Z</time>
      </trkpt>
      <trkpt lat="42.61642" lon="1.73081">
        <ele>2388.722</ele>
        <time>2021-08-06T12:33:19Z</time>
      </trkpt>
      <trkpt lat="42.61642" lon="1.73083">
        <ele>2388.682</ele>
        <time>2021-08-06T12:33:21Z</time>
      </trkpt>
      <trkpt lat="42.61643" lon="1.73086">
        <ele>2388.528</ele>
        <time>2021-08-06T12:33:23Z</time>
      </trkpt>
      <trkpt lat="42.61644" lon="1.73089">
        <ele>2389.194</ele>
        <time>2021-08-06T12:33:25Z</time>
      </trkpt>
      <trkpt lat="42.61644" lon="1.7309">
        <ele>2388.455</ele>
        <time>2021-08-06T12:33:27Z</time>
      </trkpt>
      <trkpt lat="42.61645" lon="1.73092">
        <ele>2386.943</ele>
        <time>2021-08-06T12:33:29Z</time>
      </trkpt>
      <trkpt lat="42.61646" lon="1.73094">
        <ele>2386.29</ele>
        <time>2021-08-06T12:33:31Z</time>
      </trkpt>
      <trkpt lat="42.61647" lon="1.73096">
        <ele>2385.245</ele>
        <time>2021-08-06T12:33:33Z</time>
      </trkpt>
      <trkpt lat="42.61648" lon="1.73097">
        <ele>2384.42</ele>
        <time>2021-08-06T12:33:35Z</time>
      </trkpt>
      <trkpt lat="42.6165" lon="1.73099">
        <ele>2383.744</ele>
        <time>2021-08-06T12:33:37Z</time>
      </trkpt>
      <trkpt lat="42.61651" lon="1.731">
        <ele>2382.891</ele>
        <time>2021-08-06T12:33:39Z</time>
      </trkpt>
      <trkpt lat="42.61653" lon="1.731">
        <ele>2382.612</ele>
        <time>2021-08-06T12:33:41Z</time>
      </trkpt>
      <trkpt lat="42.61654" lon="1.73101">
        <ele>2382.471</ele>
        <time>2021-08-06T12:33:43Z</time>
      </trkpt>
      <trkpt lat="42.61656" lon="1.73101">
        <ele>2381.995</ele>
        <time>2021-08-06T12:33:45Z</time>
      </trkpt>
      <trkpt lat="42.61658" lon="1.73102">
        <ele>2381.706</ele>
        <time>2021-08-06T12:33:47Z</time>
      </trkpt>
      <trkpt lat="42.61659" lon="1.73102">
        <ele>2380.884</ele>
        <time>2021-08-06T12:33:49Z</time>
      </trkpt>
      <trkpt lat="42.61661" lon="1.73101">
        <ele>2381.03</ele>
        <time>2021-08-06T12:33:51Z</time>
      </trkpt>
      <trkpt lat="42.61662" lon="1.73101">
        <ele>2381.632</ele>
        <time>2021-08-06T12:33:53Z</time>
      </trkpt>
      <trkpt lat="42.61663" lon="1.73102">
        <ele>2380.803</ele>
        <time>2021-08-06T12:33:55Z</time>
      </trkpt>
      <trkpt lat="42.61664" lon="1.73103">
        <ele>2380.618</ele>
        <time>2021-08-06T12:33:57Z</time>
      </trkpt>
      <trkpt lat="42.61666" lon="1.73102">
        <ele>2379.615</ele>
        <time>2021-08-06T12:33:59Z</time>
      </trkpt>
      <trkpt lat="42.61668" lon="1.73103">
        <ele>2379.538</ele>
        <time>2021-08-06T12:34:01Z</time>
      </trkpt>
      <trkpt lat="42.6167" lon="1.73103">
        <ele>2378.747</ele>
        <time>2021-08-06T12:34:03Z</time>
      </trkpt>
      <trkpt lat="42.61672" lon="1.73104">
        <ele>2378.352</ele>
        <time>2021-08-06T12:34:05Z</time>
      </trkpt>
      <trkpt lat="42.61673" lon="1.73105">
        <ele>2378.567</ele>
        <time>2021-08-06T12:34:07Z</time>
      </trkpt>
      <trkpt lat="42.61675" lon="1.73106">
        <ele>2378.004</ele>
        <time>2021-08-06T12:34:09Z</time>
      </trkpt>
      <trkpt lat="42.61677" lon="1.73105">
        <ele>2377.625</ele>
        <time>2021-08-06T12:34:11Z</time>
      </trkpt>
      <trkpt lat="42.61679" lon="1.73104">
        <ele>2377.235</ele>
        <time>2021-08-06T12:34:13Z</time>
      </trkpt>
      <trkpt lat="42.61681" lon="1.73105">
        <ele>2377.373</ele>
        <time>2021-08-06T12:34:15Z</time>
      </trkpt>
      <trkpt lat="42.61683" lon="1.73106">
        <ele>2376.863</ele>
        <time>2021-08-06T12:34:17Z</time>
      </trkpt>
      <trkpt lat="42.61685" lon="1.73106">
        <ele>2376.545</ele>
        <time>2021-08-06T12:34:19Z</time>
      </trkpt>
      <trkpt lat="42.61686" lon="1.73108">
        <ele>2376.538</ele>
        <time>2021-08-06T12:34:21Z</time>
      </trkpt>
      <trkpt lat="42.61687" lon="1.73109">
        <ele>2375.691</ele>
        <time>2021-08-06T12:34:23Z</time>
      </trkpt>
      <trkpt lat="42.61688" lon="1.73111">
        <ele>2375.52</ele>
        <time>2021-08-06T12:34:25Z</time>
      </trkpt>
      <trkpt lat="42.61689" lon="1.73113">
        <ele>2374.584</ele>
        <time>2021-08-06T12:34:27Z</time>
      </trkpt>
      <trkpt lat="42.6169" lon="1.73114">
        <ele>2374.214</ele>
        <time>2021-08-06T12:34:29Z</time>
      </trkpt>
      <trkpt lat="42.61692" lon="1.73115">
        <ele>2374.08</ele>
        <time>2021-08-06T12:34:31Z</time>
      </trkpt>
      <trkpt lat="42.61693" lon="1.73116">
        <ele>2374.379</ele>
        <time>2021-08-06T12:34:33Z</time>
      </trkpt>
      <trkpt lat="42.61695" lon="1.73116">
        <ele>2374.918</ele>
        <time>2021-08-06T12:34:35Z</time>
      </trkpt>
      <trkpt lat="42.61697" lon="1.73117">
        <ele>2374.568</ele>
        <time>2021-08-06T12:34:37Z</time>
      </trkpt>
      <trkpt lat="42.61699" lon="1.73118">
        <ele>2374.769</ele>
        <time>2021-08-06T12:34:39Z</time>
      </trkpt>
      <trkpt lat="42.617" lon="1.73116">
        <ele>2377.615</ele>
        <time>2021-08-06T12:34:41Z</time>
      </trkpt>
      <trkpt lat="42.617" lon="1.73115">
        <ele>2377.416</ele>
        <time>2021-08-06T12:34:43Z</time>
      </trkpt>
      <trkpt lat="42.617" lon="1.73115">
        <ele>2377.308</ele>
        <time>2021-08-06T12:34:45Z</time>
      </trkpt>
      <trkpt lat="42.61701" lon="1.73117">
        <ele>2376.877</ele>
        <time>2021-08-06T12:34:47Z</time>
      </trkpt>
      <trkpt lat="42.61701" lon="1.73118">
        <ele>2376.478</ele>
        <time>2021-08-06T12:34:49Z</time>
      </trkpt>
      <trkpt lat="42.61707" lon="1.73116">
        <ele>2376.786</ele>
        <time>2021-08-06T12:34:51Z</time>
      </trkpt>
      <trkpt lat="42.61706" lon="1.73122">
        <ele>2377.605</ele>
        <time>2021-08-06T12:34:53Z</time>
      </trkpt>
      <trkpt lat="42.61707" lon="1.73124">
        <ele>2377.75</ele>
        <time>2021-08-06T12:34:55Z</time>
      </trkpt>
      <trkpt lat="42.61708" lon="1.73125">
        <ele>2377.042</ele>
        <time>2021-08-06T12:34:56Z</time>
      </trkpt>
      <trkpt lat="42.61709" lon="1.73128">
        <ele>2377.455</ele>
        <time>2021-08-06T12:34:59Z</time>
      </trkpt>
      <trkpt lat="42.6171" lon="1.7313">
        <ele>2378.682</ele>
        <time>2021-08-06T12:35:01Z</time>
      </trkpt>
      <trkpt lat="42.61711" lon="1.7313">
        <ele>2379.239</ele>
        <time>2021-08-06T12:35:03Z</time>
      </trkpt>
      <trkpt lat="42.61712" lon="1.73131">
        <ele>2379.022</ele>
        <time>2021-08-06T12:35:05Z</time>
      </trkpt>
      <trkpt lat="42.61713" lon="1.73132">
        <ele>2377.843</ele>
        <time>2021-08-06T12:35:07Z</time>
      </trkpt>
      <trkpt lat="42.61714" lon="1.73132">
        <ele>2377.439</ele>
        <time>2021-08-06T12:35:09Z</time>
      </trkpt>
      <trkpt lat="42.61716" lon="1.73132">
        <ele>2377.68</ele>
        <time>2021-08-06T12:35:11Z</time>
      </trkpt>
      <trkpt lat="42.61717" lon="1.73132">
        <ele>2377.996</ele>
        <time>2021-08-06T12:35:13Z</time>
      </trkpt>
      <trkpt lat="42.61719" lon="1.73133">
        <ele>2377.576</ele>
        <time>2021-08-06T12:35:15Z</time>
      </trkpt>
      <trkpt lat="42.61721" lon="1.73134">
        <ele>2376.473</ele>
        <time>2021-08-06T12:35:17Z</time>
      </trkpt>
      <trkpt lat="42.61722" lon="1.73134">
        <ele>2376.618</ele>
        <time>2021-08-06T12:35:19Z</time>
      </trkpt>
      <trkpt lat="42.61724" lon="1.73134">
        <ele>2376.657</ele>
        <time>2021-08-06T12:35:21Z</time>
      </trkpt>
      <trkpt lat="42.61726" lon="1.73134">
        <ele>2376.651</ele>
        <time>2021-08-06T12:35:23Z</time>
      </trkpt>
      <trkpt lat="42.61727" lon="1.73136">
        <ele>2375.351</ele>
        <time>2021-08-06T12:35:25Z</time>
      </trkpt>
      <trkpt lat="42.61729" lon="1.73138">
        <ele>2373.437</ele>
        <time>2021-08-06T12:35:27Z</time>
      </trkpt>
      <trkpt lat="42.61732" lon="1.73139">
        <ele>2373.149</ele>
        <time>2021-08-06T12:35:29Z</time>
      </trkpt>
      <trkpt lat="42.61734" lon="1.73139">
        <ele>2373.124</ele>
        <time>2021-08-06T12:35:31Z</time>
      </trkpt>
      <trkpt lat="42.61735" lon="1.7314">
        <ele>2371.997</ele>
        <time>2021-08-06T12:35:33Z</time>
      </trkpt>
      <trkpt lat="42.61736" lon="1.73141">
        <ele>2370.022</ele>
        <time>2021-08-06T12:35:35Z</time>
      </trkpt>
      <trkpt lat="42.61737" lon="1.73143">
        <ele>2368.853</ele>
        <time>2021-08-06T12:35:37Z</time>
      </trkpt>
      <trkpt lat="42.61738" lon="1.73145">
        <ele>2367.647</ele>
        <time>2021-08-06T12:35:39Z</time>
      </trkpt>
      <trkpt lat="42.61739" lon="1.73144">
        <ele>2367.999</ele>
        <time>2021-08-06T12:35:41Z</time>
      </trkpt>
      <trkpt lat="42.61742" lon="1.73145">
        <ele>2368.928</ele>
        <time>2021-08-06T12:35:43Z</time>
      </trkpt>
      <trkpt lat="42.61743" lon="1.73147">
        <ele>2369.229</ele>
        <time>2021-08-06T12:35:45Z</time>
      </trkpt>
      <trkpt lat="42.61744" lon="1.73146">
        <ele>2367.918</ele>
        <time>2021-08-06T12:35:47Z</time>
      </trkpt>
      <trkpt lat="42.61745" lon="1.73145">
        <ele>2367.871</ele>
        <time>2021-08-06T12:35:49Z</time>
      </trkpt>
      <trkpt lat="42.61745" lon="1.73143">
        <ele>2366.825</ele>
        <time>2021-08-06T12:35:51Z</time>
      </trkpt>
      <trkpt lat="42.61746" lon="1.73142">
        <ele>2365.06</ele>
        <time>2021-08-06T12:35:53Z</time>
      </trkpt>
      <trkpt lat="42.61747" lon="1.73143">
        <ele>2365.534</ele>
        <time>2021-08-06T12:35:55Z</time>
      </trkpt>
      <trkpt lat="42.61749" lon="1.73142">
        <ele>2365.195</ele>
        <time>2021-08-06T12:35:57Z</time>
      </trkpt>
      <trkpt lat="42.61751" lon="1.73142">
        <ele>2367.833</ele>
        <time>2021-08-06T12:35:59Z</time>
      </trkpt>
      <trkpt lat="42.61753" lon="1.73142">
        <ele>2368.657</ele>
        <time>2021-08-06T12:36:01Z</time>
      </trkpt>
      <trkpt lat="42.61756" lon="1.73143">
        <ele>2370.094</ele>
        <time>2021-08-06T12:36:03Z</time>
      </trkpt>
      <trkpt lat="42.61758" lon="1.73143">
        <ele>2370.069</ele>
        <time>2021-08-06T12:36:05Z</time>
      </trkpt>
      <trkpt lat="42.6176" lon="1.73143">
        <ele>2371.233</ele>
        <time>2021-08-06T12:36:07Z</time>
      </trkpt>
      <trkpt lat="42.61761" lon="1.73144">
        <ele>2370.731</ele>
        <time>2021-08-06T12:36:09Z</time>
      </trkpt>
      <trkpt lat="42.61762" lon="1.73146">
        <ele>2370.348</ele>
        <time>2021-08-06T12:36:11Z</time>
      </trkpt>
      <trkpt lat="42.61763" lon="1.73147">
        <ele>2370.054</ele>
        <time>2021-08-06T12:36:13Z</time>
      </trkpt>
      <trkpt lat="42.61764" lon="1.73146">
        <ele>2369.392</ele>
        <time>2021-08-06T12:36:15Z</time>
      </trkpt>
      <trkpt lat="42.61765" lon="1.73146">
        <ele>2368.621</ele>
        <time>2021-08-06T12:36:17Z</time>
      </trkpt>
      <trkpt lat="42.61766" lon="1.73146">
        <ele>2368.117</ele>
        <time>2021-08-06T12:36:19Z</time>
      </trkpt>
      <trkpt lat="42.61767" lon="1.73147">
        <ele>2368.131</ele>
        <time>2021-08-06T12:36:21Z</time>
      </trkpt>
      <trkpt lat="42.61766" lon="1.73147">
        <ele>2367.294</ele>
        <time>2021-08-06T12:36:23Z</time>
      </trkpt>
      <trkpt lat="42.61768" lon="1.73146">
        <ele>2366.766</ele>
        <time>2021-08-06T12:36:25Z</time>
      </trkpt>
      <trkpt lat="42.61769" lon="1.73146">
        <ele>2366.816</ele>
        <time>2021-08-06T12:36:27Z</time>
      </trkpt>
      <trkpt lat="42.6177" lon="1.73146">
        <ele>2366.88</ele>
        <time>2021-08-06T12:36:29Z</time>
      </trkpt>
      <trkpt lat="42.6177" lon="1.73144">
        <ele>2366.203</ele>
        <time>2021-08-06T12:36:31Z</time>
      </trkpt>
      <trkpt lat="42.6177" lon="1.73142">
        <ele>2365.644</ele>
        <time>2021-08-06T12:36:33Z</time>
      </trkpt>
      <trkpt lat="42.6177" lon="1.73142">
        <ele>2365.195</ele>
        <time>2021-08-06T12:36:35Z</time>
      </trkpt>
      <trkpt lat="42.61771" lon="1.7314">
        <ele>2365.233</ele>
        <time>2021-08-06T12:36:37Z</time>
      </trkpt>
      <trkpt lat="42.61771" lon="1.73139">
        <ele>2364.93</ele>
        <time>2021-08-06T12:36:39Z</time>
      </trkpt>
      <trkpt lat="42.61772" lon="1.73138">
        <ele>2363.875</ele>
        <time>2021-08-06T12:36:41Z</time>
      </trkpt>
      <trkpt lat="42.61772" lon="1.73136">
        <ele>2362.763</ele>
        <time>2021-08-06T12:36:43Z</time>
      </trkpt>
      <trkpt lat="42.61773" lon="1.73133">
        <ele>2362.472</ele>
        <time>2021-08-06T12:36:45Z</time>
      </trkpt>
      <trkpt lat="42.61774" lon="1.73131">
        <ele>2361.709</ele>
        <time>2021-08-06T12:36:47Z</time>
      </trkpt>
      <trkpt lat="42.61774" lon="1.73128">
        <ele>2361.062</ele>
        <time>2021-08-06T12:36:49Z</time>
      </trkpt>
      <trkpt lat="42.61776" lon="1.73128">
        <ele>2360.251</ele>
        <time>2021-08-06T12:36:51Z</time>
      </trkpt>
      <trkpt lat="42.61777" lon="1.73127">
        <ele>2359.267</ele>
        <time>2021-08-06T12:36:53Z</time>
      </trkpt>
      <trkpt lat="42.61779" lon="1.73126">
        <ele>2358.401</ele>
        <time>2021-08-06T12:36:55Z</time>
      </trkpt>
      <trkpt lat="42.6178" lon="1.73124">
        <ele>2359.266</ele>
        <time>2021-08-06T12:36:57Z</time>
      </trkpt>
      <trkpt lat="42.6178" lon="1.73125">
        <ele>2358.136</ele>
        <time>2021-08-06T12:36:59Z</time>
      </trkpt>
      <trkpt lat="42.6178" lon="1.73125">
        <ele>2358.116</ele>
        <time>2021-08-06T12:37:01Z</time>
      </trkpt>
      <trkpt lat="42.61781" lon="1.73124">
        <ele>2358.093</ele>
        <time>2021-08-06T12:37:03Z</time>
      </trkpt>
      <trkpt lat="42.61782" lon="1.73122">
        <ele>2357.742</ele>
        <time>2021-08-06T12:37:05Z</time>
      </trkpt>
      <trkpt lat="42.61782" lon="1.73121">
        <ele>2357.144</ele>
        <time>2021-08-06T12:37:07Z</time>
      </trkpt>
      <trkpt lat="42.61784" lon="1.7312">
        <ele>2355.805</ele>
        <time>2021-08-06T12:37:09Z</time>
      </trkpt>
      <trkpt lat="42.61785" lon="1.7312">
        <ele>2354.795</ele>
        <time>2021-08-06T12:37:11Z</time>
      </trkpt>
      <trkpt lat="42.61787" lon="1.73121">
        <ele>2353.692</ele>
        <time>2021-08-06T12:37:13Z</time>
      </trkpt>
      <trkpt lat="42.61788" lon="1.73121">
        <ele>2352.356</ele>
        <time>2021-08-06T12:37:15Z</time>
      </trkpt>
      <trkpt lat="42.61789" lon="1.73123">
        <ele>2352.74</ele>
        <time>2021-08-06T12:37:17Z</time>
      </trkpt>
      <trkpt lat="42.6179" lon="1.73125">
        <ele>2352.397</ele>
        <time>2021-08-06T12:37:19Z</time>
      </trkpt>
      <trkpt lat="42.61792" lon="1.73127">
        <ele>2352.008</ele>
        <time>2021-08-06T12:37:21Z</time>
      </trkpt>
      <trkpt lat="42.61794" lon="1.73128">
        <ele>2352.311</ele>
        <time>2021-08-06T12:37:23Z</time>
      </trkpt>
      <trkpt lat="42.61796" lon="1.73128">
        <ele>2353.063</ele>
        <time>2021-08-06T12:37:25Z</time>
      </trkpt>
      <trkpt lat="42.61797" lon="1.73131">
        <ele>2353.149</ele>
        <time>2021-08-06T12:37:27Z</time>
      </trkpt>
      <trkpt lat="42.61798" lon="1.73134">
        <ele>2354.801</ele>
        <time>2021-08-06T12:37:29Z</time>
      </trkpt>
      <trkpt lat="42.618" lon="1.73135">
        <ele>2355.062</ele>
        <time>2021-08-06T12:37:31Z</time>
      </trkpt>
      <trkpt lat="42.61803" lon="1.73135">
        <ele>2355.144</ele>
        <time>2021-08-06T12:37:33Z</time>
      </trkpt>
      <trkpt lat="42.61805" lon="1.73135">
        <ele>2356.015</ele>
        <time>2021-08-06T12:37:35Z</time>
      </trkpt>
      <trkpt lat="42.61807" lon="1.73134">
        <ele>2355.252</ele>
        <time>2021-08-06T12:37:37Z</time>
      </trkpt>
      <trkpt lat="42.61809" lon="1.73132">
        <ele>2355.491</ele>
        <time>2021-08-06T12:37:39Z</time>
      </trkpt>
      <trkpt lat="42.61809" lon="1.73132">
        <ele>2355.606</ele>
        <time>2021-08-06T12:37:41Z</time>
      </trkpt>
      <trkpt lat="42.61809" lon="1.73131">
        <ele>2355.635</ele>
        <time>2021-08-06T12:37:43Z</time>
      </trkpt>
      <trkpt lat="42.61808" lon="1.73131">
        <ele>2355.61</ele>
        <time>2021-08-06T12:37:45Z</time>
      </trkpt>
      <trkpt lat="42.61808" lon="1.73131">
        <ele>2355.603</ele>
        <time>2021-08-06T12:37:47Z</time>
      </trkpt>
      <trkpt lat="42.61808" lon="1.73131">
        <ele>2355.579</ele>
        <time>2021-08-06T12:37:49Z</time>
      </trkpt>
      <trkpt lat="42.61808" lon="1.73131">
        <ele>2355.568</ele>
        <time>2021-08-06T12:37:51Z</time>
      </trkpt>
      <trkpt lat="42.61808" lon="1.73131">
        <ele>2354.692</ele>
        <time>2021-08-06T12:37:53Z</time>
      </trkpt>
      <trkpt lat="42.61809" lon="1.73129">
        <ele>2354.35</ele>
        <time>2021-08-06T12:37:55Z</time>
      </trkpt>
      <trkpt lat="42.61809" lon="1.73128">
        <ele>2354.254</ele>
        <time>2021-08-06T12:37:57Z</time>
      </trkpt>
      <trkpt lat="42.61808" lon="1.73126">
        <ele>2354.463</ele>
        <time>2021-08-06T12:37:59Z</time>
      </trkpt>
      <trkpt lat="42.61809" lon="1.73126">
        <ele>2354.02</ele>
        <time>2021-08-06T12:38:01Z</time>
      </trkpt>
      <trkpt lat="42.6181" lon="1.73125">
        <ele>2354.085</ele>
        <time>2021-08-06T12:38:03Z</time>
      </trkpt>
      <trkpt lat="42.6181" lon="1.73123">
        <ele>2353.508</ele>
        <time>2021-08-06T12:38:05Z</time>
      </trkpt>
      <trkpt lat="42.6181" lon="1.73122">
        <ele>2353.146</ele>
        <time>2021-08-06T12:38:07Z</time>
      </trkpt>
      <trkpt lat="42.61811" lon="1.73121">
        <ele>2352.735</ele>
        <time>2021-08-06T12:38:09Z</time>
      </trkpt>
      <trkpt lat="42.61812" lon="1.7312">
        <ele>2351.837</ele>
        <time>2021-08-06T12:38:11Z</time>
      </trkpt>
      <trkpt lat="42.61812" lon="1.7312">
        <ele>2350.996</ele>
        <time>2021-08-06T12:38:13Z</time>
      </trkpt>
      <trkpt lat="42.61813" lon="1.7312">
        <ele>2350.169</ele>
        <time>2021-08-06T12:38:15Z</time>
      </trkpt>
      <trkpt lat="42.61813" lon="1.7312">
        <ele>2349.89</ele>
        <time>2021-08-06T12:38:17Z</time>
      </trkpt>
      <trkpt lat="42.61814" lon="1.73121">
        <ele>2349.283</ele>
        <time>2021-08-06T12:38:19Z</time>
      </trkpt>
      <trkpt lat="42.61815" lon="1.73121">
        <ele>2348.005</ele>
        <time>2021-08-06T12:38:21Z</time>
      </trkpt>
      <trkpt lat="42.61815" lon="1.73122">
        <ele>2347.858</ele>
        <time>2021-08-06T12:38:23Z</time>
      </trkpt>
      <trkpt lat="42.61815" lon="1.73124">
        <ele>2348.469</ele>
        <time>2021-08-06T12:38:25Z</time>
      </trkpt>
      <trkpt lat="42.61816" lon="1.73125">
        <ele>2349.123</ele>
        <time>2021-08-06T12:38:27Z</time>
      </trkpt>
      <trkpt lat="42.61817" lon="1.73125">
        <ele>2348.516</ele>
        <time>2021-08-06T12:38:29Z</time>
      </trkpt>
      <trkpt lat="42.61818" lon="1.73127">
        <ele>2347.939</ele>
        <time>2021-08-06T12:38:31Z</time>
      </trkpt>
      <trkpt lat="42.61819" lon="1.73129">
        <ele>2347.68</ele>
        <time>2021-08-06T12:38:33Z</time>
      </trkpt>
      <trkpt lat="42.6182" lon="1.7313">
        <ele>2348.088</ele>
        <time>2021-08-06T12:38:35Z</time>
      </trkpt>
      <trkpt lat="42.61822" lon="1.7313">
        <ele>2349.775</ele>
        <time>2021-08-06T12:38:37Z</time>
      </trkpt>
      <trkpt lat="42.61823" lon="1.7313">
        <ele>2347.819</ele>
        <time>2021-08-06T12:38:39Z</time>
      </trkpt>
      <trkpt lat="42.61824" lon="1.73131">
        <ele>2346.861</ele>
        <time>2021-08-06T12:38:41Z</time>
      </trkpt>
      <trkpt lat="42.61825" lon="1.73129">
        <ele>2346.555</ele>
        <time>2021-08-06T12:38:43Z</time>
      </trkpt>
      <trkpt lat="42.61825" lon="1.73128">
        <ele>2346.282</ele>
        <time>2021-08-06T12:38:45Z</time>
      </trkpt>
      <trkpt lat="42.61826" lon="1.73127">
        <ele>2345.924</ele>
        <time>2021-08-06T12:38:47Z</time>
      </trkpt>
      <trkpt lat="42.61828" lon="1.73126">
        <ele>2345.248</ele>
        <time>2021-08-06T12:38:49Z</time>
      </trkpt>
      <trkpt lat="42.61829" lon="1.73126">
        <ele>2343.444</ele>
        <time>2021-08-06T12:38:51Z</time>
      </trkpt>
      <trkpt lat="42.61829" lon="1.73126">
        <ele>2342.801</ele>
        <time>2021-08-06T12:38:53Z</time>
      </trkpt>
      <trkpt lat="42.6183" lon="1.73126">
        <ele>2342.525</ele>
        <time>2021-08-06T12:38:55Z</time>
      </trkpt>
      <trkpt lat="42.61831" lon="1.73126">
        <ele>2341.807</ele>
        <time>2021-08-06T12:38:57Z</time>
      </trkpt>
      <trkpt lat="42.61832" lon="1.73127">
        <ele>2341.107</ele>
        <time>2021-08-06T12:38:59Z</time>
      </trkpt>
      <trkpt lat="42.61833" lon="1.73128">
        <ele>2341.328</ele>
        <time>2021-08-06T12:39:01Z</time>
      </trkpt>
      <trkpt lat="42.61833" lon="1.73127">
        <ele>2339.879</ele>
        <time>2021-08-06T12:39:03Z</time>
      </trkpt>
      <trkpt lat="42.61833" lon="1.73125">
        <ele>2340.38</ele>
        <time>2021-08-06T12:39:05Z</time>
      </trkpt>
      <trkpt lat="42.61834" lon="1.73123">
        <ele>2340.466</ele>
        <time>2021-08-06T12:39:07Z</time>
      </trkpt>
      <trkpt lat="42.61834" lon="1.73121">
        <ele>2339.995</ele>
        <time>2021-08-06T12:39:09Z</time>
      </trkpt>
      <trkpt lat="42.61834" lon="1.73118">
        <ele>2339.625</ele>
        <time>2021-08-06T12:39:11Z</time>
      </trkpt>
      <trkpt lat="42.61835" lon="1.73116">
        <ele>2339.391</ele>
        <time>2021-08-06T12:39:13Z</time>
      </trkpt>
      <trkpt lat="42.61836" lon="1.73113">
        <ele>2338.441</ele>
        <time>2021-08-06T12:39:15Z</time>
      </trkpt>
      <trkpt lat="42.61837" lon="1.73111">
        <ele>2337.684</ele>
        <time>2021-08-06T12:39:17Z</time>
      </trkpt>
      <trkpt lat="42.61838" lon="1.73109">
        <ele>2337.253</ele>
        <time>2021-08-06T12:39:19Z</time>
      </trkpt>
      <trkpt lat="42.61838" lon="1.73107">
        <ele>2337.73</ele>
        <time>2021-08-06T12:39:21Z</time>
      </trkpt>
      <trkpt lat="42.61839" lon="1.73104">
        <ele>2337.162</ele>
        <time>2021-08-06T12:39:23Z</time>
      </trkpt>
      <trkpt lat="42.6184" lon="1.73102">
        <ele>2337.216</ele>
        <time>2021-08-06T12:39:25Z</time>
      </trkpt>
      <trkpt lat="42.6184" lon="1.731">
        <ele>2336.189</ele>
        <time>2021-08-06T12:39:27Z</time>
      </trkpt>
      <trkpt lat="42.61841" lon="1.73098">
        <ele>2336.016</ele>
        <time>2021-08-06T12:39:29Z</time>
      </trkpt>
      <trkpt lat="42.61842" lon="1.73096">
        <ele>2335.861</ele>
        <time>2021-08-06T12:39:31Z</time>
      </trkpt>
      <trkpt lat="42.61843" lon="1.73094">
        <ele>2335.483</ele>
        <time>2021-08-06T12:39:33Z</time>
      </trkpt>
      <trkpt lat="42.61845" lon="1.73091">
        <ele>2335.215</ele>
        <time>2021-08-06T12:39:35Z</time>
      </trkpt>
      <trkpt lat="42.61846" lon="1.7309">
        <ele>2335.492</ele>
        <time>2021-08-06T12:39:37Z</time>
      </trkpt>
      <trkpt lat="42.61849" lon="1.73088">
        <ele>2335.526</ele>
        <time>2021-08-06T12:39:39Z</time>
      </trkpt>
      <trkpt lat="42.61851" lon="1.73087">
        <ele>2334.146</ele>
        <time>2021-08-06T12:39:41Z</time>
      </trkpt>
      <trkpt lat="42.61853" lon="1.73085">
        <ele>2334.136</ele>
        <time>2021-08-06T12:39:43Z</time>
      </trkpt>
      <trkpt lat="42.61854" lon="1.73083">
        <ele>2334.076</ele>
        <time>2021-08-06T12:39:45Z</time>
      </trkpt>
      <trkpt lat="42.61855" lon="1.73081">
        <ele>2334.564</ele>
        <time>2021-08-06T12:39:47Z</time>
      </trkpt>
      <trkpt lat="42.61852" lon="1.73081">
        <ele>2333.105</ele>
        <time>2021-08-06T12:39:49Z</time>
      </trkpt>
      <trkpt lat="42.61852" lon="1.73082">
        <ele>2330.645</ele>
        <time>2021-08-06T12:39:51Z</time>
      </trkpt>
      <trkpt lat="42.61853" lon="1.73082">
        <ele>2330.677</ele>
        <time>2021-08-06T12:39:53Z</time>
      </trkpt>
      <trkpt lat="42.61851" lon="1.73079">
        <ele>2326.323</ele>
        <time>2021-08-06T12:39:55Z</time>
      </trkpt>
      <trkpt lat="42.61854" lon="1.73078">
        <ele>2327.479</ele>
        <time>2021-08-06T12:39:57Z</time>
      </trkpt>
      <trkpt lat="42.61856" lon="1.73077">
        <ele>2328.66</ele>
        <time>2021-08-06T12:39:59Z</time>
      </trkpt>
      <trkpt lat="42.61858" lon="1.73076">
        <ele>2329.794</ele>
        <time>2021-08-06T12:40:01Z</time>
      </trkpt>
      <trkpt lat="42.61859" lon="1.73074">
        <ele>2330.716</ele>
        <time>2021-08-06T12:40:03Z</time>
      </trkpt>
      <trkpt lat="42.61859" lon="1.73073">
        <ele>2330.461</ele>
        <time>2021-08-06T12:40:05Z</time>
      </trkpt>
      <trkpt lat="42.61861" lon="1.73072">
        <ele>2330.507</ele>
        <time>2021-08-06T12:40:07Z</time>
      </trkpt>
      <trkpt lat="42.61863" lon="1.73071">
        <ele>2331.669</ele>
        <time>2021-08-06T12:40:09Z</time>
      </trkpt>
      <trkpt lat="42.61864" lon="1.73071">
        <ele>2331.832</ele>
        <time>2021-08-06T12:40:11Z</time>
      </trkpt>
      <trkpt lat="42.61865" lon="1.7307">
        <ele>2331.793</ele>
        <time>2021-08-06T12:40:13Z</time>
      </trkpt>
      <trkpt lat="42.61867" lon="1.7307">
        <ele>2331.751</ele>
        <time>2021-08-06T12:40:15Z</time>
      </trkpt>
      <trkpt lat="42.61867" lon="1.73069">
        <ele>2331.328</ele>
        <time>2021-08-06T12:40:17Z</time>
      </trkpt>
      <trkpt lat="42.61867" lon="1.73069">
        <ele>2331.328</ele>
        <time>2021-08-06T12:40:19Z</time>
      </trkpt>
      <trkpt lat="42.61868" lon="1.73069">
        <ele>2332.031</ele>
        <time>2021-08-06T12:40:21Z</time>
      </trkpt>
      <trkpt lat="42.6187" lon="1.73067">
        <ele>2332.492</ele>
        <time>2021-08-06T12:40:23Z</time>
      </trkpt>
      <trkpt lat="42.61871" lon="1.73066">
        <ele>2332.19</ele>
        <time>2021-08-06T12:40:25Z</time>
      </trkpt>
      <trkpt lat="42.61873" lon="1.73065">
        <ele>2333.115</ele>
        <time>2021-08-06T12:40:27Z</time>
      </trkpt>
      <trkpt lat="42.61875" lon="1.73064">
        <ele>2333.275</ele>
        <time>2021-08-06T12:40:29Z</time>
      </trkpt>
      <trkpt lat="42.61876" lon="1.73064">
        <ele>2334.564</ele>
        <time>2021-08-06T12:40:31Z</time>
      </trkpt>
      <trkpt lat="42.61878" lon="1.73063">
        <ele>2334.939</ele>
        <time>2021-08-06T12:40:33Z</time>
      </trkpt>
      <trkpt lat="42.61879" lon="1.73062">
        <ele>2335.205</ele>
        <time>2021-08-06T12:40:35Z</time>
      </trkpt>
      <trkpt lat="42.6188" lon="1.7306">
        <ele>2334.742</ele>
        <time>2021-08-06T12:40:37Z</time>
      </trkpt>
      <trkpt lat="42.6188" lon="1.73059">
        <ele>2334.504</ele>
        <time>2021-08-06T12:40:39Z</time>
      </trkpt>
      <trkpt lat="42.61881" lon="1.73058">
        <ele>2334.688</ele>
        <time>2021-08-06T12:40:41Z</time>
      </trkpt>
      <trkpt lat="42.61882" lon="1.73056">
        <ele>2335.201</ele>
        <time>2021-08-06T12:40:43Z</time>
      </trkpt>
      <trkpt lat="42.61883" lon="1.73055">
        <ele>2335.107</ele>
        <time>2021-08-06T12:40:45Z</time>
      </trkpt>
      <trkpt lat="42.61885" lon="1.73054">
        <ele>2336.102</ele>
        <time>2021-08-06T12:40:47Z</time>
      </trkpt>
      <trkpt lat="42.61886" lon="1.73053">
        <ele>2335.651</ele>
        <time>2021-08-06T12:40:49Z</time>
      </trkpt>
      <trkpt lat="42.61887" lon="1.73052">
        <ele>2335.695</ele>
        <time>2021-08-06T12:40:51Z</time>
      </trkpt>
      <trkpt lat="42.61887" lon="1.73051">
        <ele>2336.145</ele>
        <time>2021-08-06T12:40:53Z</time>
      </trkpt>
      <trkpt lat="42.61888" lon="1.73049">
        <ele>2335.935</ele>
        <time>2021-08-06T12:40:55Z</time>
      </trkpt>
      <trkpt lat="42.61888" lon="1.73048">
        <ele>2336.371</ele>
        <time>2021-08-06T12:40:57Z</time>
      </trkpt>
      <trkpt lat="42.61888" lon="1.73048">
        <ele>2336.088</ele>
        <time>2021-08-06T12:40:59Z</time>
      </trkpt>
      <trkpt lat="42.61888" lon="1.73048">
        <ele>2336.086</ele>
        <time>2021-08-06T12:41:01Z</time>
      </trkpt>
      <trkpt lat="42.61888" lon="1.73048">
        <ele>2336.103</ele>
        <time>2021-08-06T12:41:03Z</time>
      </trkpt>
      <trkpt lat="42.61888" lon="1.73048">
        <ele>2336.11</ele>
        <time>2021-08-06T12:41:05Z</time>
      </trkpt>
      <trkpt lat="42.61888" lon="1.73048">
        <ele>2336.174</ele>
        <time>2021-08-06T12:41:07Z</time>
      </trkpt>
      <trkpt lat="42.61889" lon="1.73046">
        <ele>2336.723</ele>
        <time>2021-08-06T12:41:09Z</time>
      </trkpt>
      <trkpt lat="42.61889" lon="1.73045">
        <ele>2336.652</ele>
        <time>2021-08-06T12:41:11Z</time>
      </trkpt>
      <trkpt lat="42.61889" lon="1.73044">
        <ele>2335.949</ele>
        <time>2021-08-06T12:41:13Z</time>
      </trkpt>
      <trkpt lat="42.61891" lon="1.73043">
        <ele>2337.74</ele>
        <time>2021-08-06T12:41:15Z</time>
      </trkpt>
      <trkpt lat="42.61892" lon="1.73042">
        <ele>2338.713</ele>
        <time>2021-08-06T12:41:17Z</time>
      </trkpt>
      <trkpt lat="42.61893" lon="1.73044">
        <ele>2337.895</ele>
        <time>2021-08-06T12:41:19Z</time>
      </trkpt>
      <trkpt lat="42.61893" lon="1.73044">
        <ele>2337.899</ele>
        <time>2021-08-06T12:41:21Z</time>
      </trkpt>
      <trkpt lat="42.61893" lon="1.73044">
        <ele>2337.963</ele>
        <time>2021-08-06T12:41:23Z</time>
      </trkpt>
      <trkpt lat="42.61894" lon="1.73043">
        <ele>2337.956</ele>
        <time>2021-08-06T12:41:25Z</time>
      </trkpt>
      <trkpt lat="42.61896" lon="1.73043">
        <ele>2338.638</ele>
        <time>2021-08-06T12:41:27Z</time>
      </trkpt>
      <trkpt lat="42.61897" lon="1.73043">
        <ele>2339.452</ele>
        <time>2021-08-06T12:41:29Z</time>
      </trkpt>
      <trkpt lat="42.61899" lon="1.73042">
        <ele>2339.19</ele>
        <time>2021-08-06T12:41:31Z</time>
      </trkpt>
      <trkpt lat="42.619" lon="1.73041">
        <ele>2339.216</ele>
        <time>2021-08-06T12:41:33Z</time>
      </trkpt>
      <trkpt lat="42.61901" lon="1.7304">
        <ele>2340.016</ele>
        <time>2021-08-06T12:41:35Z</time>
      </trkpt>
      <trkpt lat="42.61902" lon="1.73039">
        <ele>2340.547</ele>
        <time>2021-08-06T12:41:37Z</time>
      </trkpt>
      <trkpt lat="42.61904" lon="1.73039">
        <ele>2340.686</ele>
        <time>2021-08-06T12:41:39Z</time>
      </trkpt>
      <trkpt lat="42.61906" lon="1.73039">
        <ele>2340.814</ele>
        <time>2021-08-06T12:41:41Z</time>
      </trkpt>
      <trkpt lat="42.61907" lon="1.73039">
        <ele>2339.596</ele>
        <time>2021-08-06T12:41:43Z</time>
      </trkpt>
      <trkpt lat="42.61909" lon="1.73038">
        <ele>2339.778</ele>
        <time>2021-08-06T12:41:45Z</time>
      </trkpt>
      <trkpt lat="42.61911" lon="1.73038">
        <ele>2339.789</ele>
        <time>2021-08-06T12:41:47Z</time>
      </trkpt>
      <trkpt lat="42.61912" lon="1.73037">
        <ele>2339.336</ele>
        <time>2021-08-06T12:41:49Z</time>
      </trkpt>
      <trkpt lat="42.61914" lon="1.73037">
        <ele>2338.925</ele>
        <time>2021-08-06T12:41:51Z</time>
      </trkpt>
      <trkpt lat="42.61915" lon="1.73037">
        <ele>2339.45</ele>
        <time>2021-08-06T12:41:53Z</time>
      </trkpt>
      <trkpt lat="42.61916" lon="1.73038">
        <ele>2339.088</ele>
        <time>2021-08-06T12:41:55Z</time>
      </trkpt>
      <trkpt lat="42.61917" lon="1.73038">
        <ele>2338.367</ele>
        <time>2021-08-06T12:41:57Z</time>
      </trkpt>
      <trkpt lat="42.61917" lon="1.73038">
        <ele>2337.718</ele>
        <time>2021-08-06T12:41:59Z</time>
      </trkpt>
      <trkpt lat="42.61918" lon="1.73038">
        <ele>2337.548</ele>
        <time>2021-08-06T12:42:01Z</time>
      </trkpt>
      <trkpt lat="42.61919" lon="1.73037">
        <ele>2336.835</ele>
        <time>2021-08-06T12:42:03Z</time>
      </trkpt>
      <trkpt lat="42.61919" lon="1.73036">
        <ele>2336.412</ele>
        <time>2021-08-06T12:42:05Z</time>
      </trkpt>
      <trkpt lat="42.61921" lon="1.73034">
        <ele>2335.468</ele>
        <time>2021-08-06T12:42:07Z</time>
      </trkpt>
      <trkpt lat="42.61922" lon="1.73033">
        <ele>2335.845</ele>
        <time>2021-08-06T12:42:09Z</time>
      </trkpt>
      <trkpt lat="42.61924" lon="1.73034">
        <ele>2336.668</ele>
        <time>2021-08-06T12:42:11Z</time>
      </trkpt>
      <trkpt lat="42.61926" lon="1.73034">
        <ele>2336.944</ele>
        <time>2021-08-06T12:42:13Z</time>
      </trkpt>
      <trkpt lat="42.61927" lon="1.73034">
        <ele>2337.808</ele>
        <time>2021-08-06T12:42:15Z</time>
      </trkpt>
      <trkpt lat="42.61929" lon="1.73035">
        <ele>2337.816</ele>
        <time>2021-08-06T12:42:17Z</time>
      </trkpt>
      <trkpt lat="42.6193" lon="1.73035">
        <ele>2337.422</ele>
        <time>2021-08-06T12:42:19Z</time>
      </trkpt>
      <trkpt lat="42.61931" lon="1.73033">
        <ele>2335.489</ele>
        <time>2021-08-06T12:42:21Z</time>
      </trkpt>
      <trkpt lat="42.61934" lon="1.73032">
        <ele>2334.269</ele>
        <time>2021-08-06T12:42:23Z</time>
      </trkpt>
      <trkpt lat="42.61936" lon="1.73032">
        <ele>2334.268</ele>
        <time>2021-08-06T12:42:25Z</time>
      </trkpt>
      <trkpt lat="42.61938" lon="1.73031">
        <ele>2333.469</ele>
        <time>2021-08-06T12:42:27Z</time>
      </trkpt>
      <trkpt lat="42.61941" lon="1.7303">
        <ele>2332.973</ele>
        <time>2021-08-06T12:42:29Z</time>
      </trkpt>
      <trkpt lat="42.61943" lon="1.73029">
        <ele>2332.532</ele>
        <time>2021-08-06T12:42:31Z</time>
      </trkpt>
      <trkpt lat="42.61945" lon="1.73028">
        <ele>2331.615</ele>
        <time>2021-08-06T12:42:33Z</time>
      </trkpt>
      <trkpt lat="42.61947" lon="1.73026">
        <ele>2330.983</ele>
        <time>2021-08-06T12:42:35Z</time>
      </trkpt>
      <trkpt lat="42.61948" lon="1.73024">
        <ele>2331.896</ele>
        <time>2021-08-06T12:42:37Z</time>
      </trkpt>
      <trkpt lat="42.6195" lon="1.73023">
        <ele>2332.469</ele>
        <time>2021-08-06T12:42:39Z</time>
      </trkpt>
      <trkpt lat="42.61952" lon="1.73021">
        <ele>2333.045</ele>
        <time>2021-08-06T12:42:41Z</time>
      </trkpt>
      <trkpt lat="42.61953" lon="1.73018">
        <ele>2332.492</ele>
        <time>2021-08-06T12:42:43Z</time>
      </trkpt>
      <trkpt lat="42.61955" lon="1.73016">
        <ele>2333.163</ele>
        <time>2021-08-06T12:42:45Z</time>
      </trkpt>
      <trkpt lat="42.61957" lon="1.73015">
        <ele>2333.394</ele>
        <time>2021-08-06T12:42:47Z</time>
      </trkpt>
      <trkpt lat="42.61959" lon="1.73014">
        <ele>2333.711</ele>
        <time>2021-08-06T12:42:49Z</time>
      </trkpt>
      <trkpt lat="42.61962" lon="1.73013">
        <ele>2334.43</ele>
        <time>2021-08-06T12:42:51Z</time>
      </trkpt>
      <trkpt lat="42.61964" lon="1.73015">
        <ele>2333.992</ele>
        <time>2021-08-06T12:42:53Z</time>
      </trkpt>
      <trkpt lat="42.61965" lon="1.73017">
        <ele>2334.234</ele>
        <time>2021-08-06T12:42:55Z</time>
      </trkpt>
      <trkpt lat="42.61965" lon="1.73019">
        <ele>2333.863</ele>
        <time>2021-08-06T12:42:57Z</time>
      </trkpt>
      <trkpt lat="42.61965" lon="1.73022">
        <ele>2335.324</ele>
        <time>2021-08-06T12:42:59Z</time>
      </trkpt>
      <trkpt lat="42.61965" lon="1.73024">
        <ele>2334.943</ele>
        <time>2021-08-06T12:43:01Z</time>
      </trkpt>
      <trkpt lat="42.61964" lon="1.73025">
        <ele>2336.012</ele>
        <time>2021-08-06T12:43:03Z</time>
      </trkpt>
      <trkpt lat="42.61963" lon="1.73027">
        <ele>2335.83</ele>
        <time>2021-08-06T12:43:05Z</time>
      </trkpt>
      <trkpt lat="42.61962" lon="1.73028">
        <ele>2333.888</ele>
        <time>2021-08-06T12:43:07Z</time>
      </trkpt>
      <trkpt lat="42.61962" lon="1.73028">
        <ele>2333.892</ele>
        <time>2021-08-06T12:43:09Z</time>
      </trkpt>
      <trkpt lat="42.61962" lon="1.73029">
        <ele>2334.621</ele>
        <time>2021-08-06T12:43:11Z</time>
      </trkpt>
      <trkpt lat="42.61962" lon="1.73029">
        <ele>2334.622</ele>
        <time>2021-08-06T12:43:13Z</time>
      </trkpt>
      <trkpt lat="42.61961" lon="1.73029">
        <ele>2334.624</ele>
        <time>2021-08-06T12:43:15Z</time>
      </trkpt>
      <trkpt lat="42.61961" lon="1.73029">
        <ele>2334.627</ele>
        <time>2021-08-06T12:43:17Z</time>
      </trkpt>
      <trkpt lat="42.61961" lon="1.73029">
        <ele>2334.631</ele>
        <time>2021-08-06T12:43:19Z</time>
      </trkpt>
      <trkpt lat="42.61961" lon="1.73029">
        <ele>2334.629</ele>
        <time>2021-08-06T12:43:21Z</time>
      </trkpt>
      <trkpt lat="42.61961" lon="1.73029">
        <ele>2334.625</ele>
        <time>2021-08-06T12:43:23Z</time>
      </trkpt>
      <trkpt lat="42.61961" lon="1.73029">
        <ele>2334.622</ele>
        <time>2021-08-06T12:43:25Z</time>
      </trkpt>
      <trkpt lat="42.61961" lon="1.73029">
        <ele>2334.623</ele>
        <time>2021-08-06T12:43:27Z</time>
      </trkpt>
      <trkpt lat="42.61961" lon="1.73029">
        <ele>2334.625</ele>
        <time>2021-08-06T12:43:29Z</time>
      </trkpt>
      <trkpt lat="42.61961" lon="1.73029">
        <ele>2334.631</ele>
        <time>2021-08-06T12:43:31Z</time>
      </trkpt>
      <trkpt lat="42.61961" lon="1.73029">
        <ele>2334.637</ele>
        <time>2021-08-06T12:43:33Z</time>
      </trkpt>
      <trkpt lat="42.61961" lon="1.73029">
        <ele>2334.643</ele>
        <time>2021-08-06T12:43:35Z</time>
      </trkpt>
      <trkpt lat="42.61961" lon="1.73029">
        <ele>2334.643</ele>
        <time>2021-08-06T12:43:37Z</time>
      </trkpt>
      <trkpt lat="42.61961" lon="1.73029">
        <ele>2334.642</ele>
        <time>2021-08-06T12:43:39Z</time>
      </trkpt>
      <trkpt lat="42.61962" lon="1.73029">
        <ele>2334.645</ele>
        <time>2021-08-06T12:43:41Z</time>
      </trkpt>
      <trkpt lat="42.61962" lon="1.73029">
        <ele>2334.643</ele>
        <time>2021-08-06T12:43:43Z</time>
      </trkpt>
      <trkpt lat="42.61962" lon="1.73029">
        <ele>2334.644</ele>
        <time>2021-08-06T12:43:45Z</time>
      </trkpt>
      <trkpt lat="42.61962" lon="1.73029">
        <ele>2334.644</ele>
        <time>2021-08-06T12:43:47Z</time>
      </trkpt>
      <trkpt lat="42.61962" lon="1.73029">
        <ele>2334.643</ele>
        <time>2021-08-06T12:43:49Z</time>
      </trkpt>
      <trkpt lat="42.61962" lon="1.73029">
        <ele>2334.64</ele>
        <time>2021-08-06T12:43:51Z</time>
      </trkpt>
      <trkpt lat="42.61962" lon="1.73029">
        <ele>2334.641</ele>
        <time>2021-08-06T12:43:53Z</time>
      </trkpt>
      <trkpt lat="42.61962" lon="1.73028">
        <ele>2334.747</ele>
        <time>2021-08-06T12:43:55Z</time>
      </trkpt>
      <trkpt lat="42.61962" lon="1.73028">
        <ele>2334.7</ele>
        <time>2021-08-06T12:43:57Z</time>
      </trkpt>
      <trkpt lat="42.61962" lon="1.73028">
        <ele>2334.703</ele>
        <time>2021-08-06T12:43:59Z</time>
      </trkpt>
      <trkpt lat="42.61962" lon="1.73028">
        <ele>2334.702</ele>
        <time>2021-08-06T12:44:01Z</time>
      </trkpt>
      <trkpt lat="42.61962" lon="1.73028">
        <ele>2334.924</ele>
        <time>2021-08-06T12:44:03Z</time>
      </trkpt>
      <trkpt lat="42.61963" lon="1.73027">
        <ele>2335.017</ele>
        <time>2021-08-06T12:44:05Z</time>
      </trkpt>
      <trkpt lat="42.61963" lon="1.73028">
        <ele>2335.649</ele>
        <time>2021-08-06T12:44:07Z</time>
      </trkpt>
      <trkpt lat="42.61965" lon="1.73028">
        <ele>2336.57</ele>
        <time>2021-08-06T12:44:09Z</time>
      </trkpt>
      <trkpt lat="42.61966" lon="1.73024">
        <ele>2337.204</ele>
        <time>2021-08-06T12:44:11Z</time>
      </trkpt>
      <trkpt lat="42.61967" lon="1.73022">
        <ele>2336.484</ele>
        <time>2021-08-06T12:44:13Z</time>
      </trkpt>
      <trkpt lat="42.61968" lon="1.7302">
        <ele>2336.639</ele>
        <time>2021-08-06T12:44:15Z</time>
      </trkpt>
      <trkpt lat="42.61969" lon="1.73018">
        <ele>2336.692</ele>
        <time>2021-08-06T12:44:17Z</time>
      </trkpt>
      <trkpt lat="42.61971" lon="1.73017">
        <ele>2335.791</ele>
        <time>2021-08-06T12:44:19Z</time>
      </trkpt>
      <trkpt lat="42.61973" lon="1.73017">
        <ele>2334.818</ele>
        <time>2021-08-06T12:44:21Z</time>
      </trkpt>
      <trkpt lat="42.61974" lon="1.73016">
        <ele>2336.323</ele>
        <time>2021-08-06T12:44:23Z</time>
      </trkpt>
      <trkpt lat="42.61974" lon="1.73015">
        <ele>2336.674</ele>
        <time>2021-08-06T12:44:25Z</time>
      </trkpt>
      <trkpt lat="42.61973" lon="1.73015">
        <ele>2336.673</ele>
        <time>2021-08-06T12:44:27Z</time>
      </trkpt>
      <trkpt lat="42.61973" lon="1.73015">
        <ele>2336.674</ele>
        <time>2021-08-06T12:44:29Z</time>
      </trkpt>
      <trkpt lat="42.61973" lon="1.73015">
        <ele>2336.665</ele>
        <time>2021-08-06T12:44:31Z</time>
      </trkpt>
      <trkpt lat="42.61973" lon="1.73015">
        <ele>2336.656</ele>
        <time>2021-08-06T12:44:33Z</time>
      </trkpt>
      <trkpt lat="42.61973" lon="1.73015">
        <ele>2336.654</ele>
        <time>2021-08-06T12:44:35Z</time>
      </trkpt>
      <trkpt lat="42.61973" lon="1.73015">
        <ele>2336.648</ele>
        <time>2021-08-06T12:44:37Z</time>
      </trkpt>
      <trkpt lat="42.61973" lon="1.73015">
        <ele>2336.585</ele>
        <time>2021-08-06T12:44:39Z</time>
      </trkpt>
      <trkpt lat="42.61974" lon="1.73014">
        <ele>2335.676</ele>
        <time>2021-08-06T12:44:41Z</time>
      </trkpt>
      <trkpt lat="42.61973" lon="1.73012">
        <ele>2332.855</ele>
        <time>2021-08-06T12:44:43Z</time>
      </trkpt>
      <trkpt lat="42.61975" lon="1.7301">
        <ele>2331.608</ele>
        <time>2021-08-06T12:44:45Z</time>
      </trkpt>
      <trkpt lat="42.6198" lon="1.73015">
        <ele>2332.259</ele>
        <time>2021-08-06T12:44:47Z</time>
      </trkpt>
      <trkpt lat="42.6198" lon="1.73015">
        <ele>2332.686</ele>
        <time>2021-08-06T12:44:49Z</time>
      </trkpt>
      <trkpt lat="42.6198" lon="1.73014">
        <ele>2332.174</ele>
        <time>2021-08-06T12:44:51Z</time>
      </trkpt>
      <trkpt lat="42.6198" lon="1.73014">
        <ele>2332.135</ele>
        <time>2021-08-06T12:44:53Z</time>
      </trkpt>
      <trkpt lat="42.6198" lon="1.73014">
        <ele>2332.666</ele>
        <time>2021-08-06T12:44:55Z</time>
      </trkpt>
      <trkpt lat="42.6198" lon="1.73013">
        <ele>2332.53</ele>
        <time>2021-08-06T12:44:57Z</time>
      </trkpt>
      <trkpt lat="42.6198" lon="1.73013">
        <ele>2332.413</ele>
        <time>2021-08-06T12:44:59Z</time>
      </trkpt>
      <trkpt lat="42.6198" lon="1.73013">
        <ele>2332.274</ele>
        <time>2021-08-06T12:45:01Z</time>
      </trkpt>
      <trkpt lat="42.6198" lon="1.73013">
        <ele>2332.243</ele>
        <time>2021-08-06T12:45:03Z</time>
      </trkpt>
      <trkpt lat="42.6198" lon="1.73013">
        <ele>2332.241</ele>
        <time>2021-08-06T12:45:05Z</time>
      </trkpt>
      <trkpt lat="42.6198" lon="1.73013">
        <ele>2332.233</ele>
        <time>2021-08-06T12:45:07Z</time>
      </trkpt>
      <trkpt lat="42.6198" lon="1.73013">
        <ele>2332.229</ele>
        <time>2021-08-06T12:45:09Z</time>
      </trkpt>
      <trkpt lat="42.6198" lon="1.73013">
        <ele>2332.233</ele>
        <time>2021-08-06T12:45:11Z</time>
      </trkpt>
      <trkpt lat="42.6198" lon="1.73013">
        <ele>2332.234</ele>
        <time>2021-08-06T12:45:13Z</time>
      </trkpt>
      <trkpt lat="42.6198" lon="1.73013">
        <ele>2332.23</ele>
        <time>2021-08-06T12:45:15Z</time>
      </trkpt>
      <trkpt lat="42.6198" lon="1.73013">
        <ele>2332.222</ele>
        <time>2021-08-06T12:45:17Z</time>
      </trkpt>
      <trkpt lat="42.6198" lon="1.73013">
        <ele>2332.212</ele>
        <time>2021-08-06T12:45:19Z</time>
      </trkpt>
      <trkpt lat="42.6198" lon="1.73013">
        <ele>2332.206</ele>
        <time>2021-08-06T12:45:21Z</time>
      </trkpt>
      <trkpt lat="42.6198" lon="1.73013">
        <ele>2332.203</ele>
        <time>2021-08-06T12:45:23Z</time>
      </trkpt>
      <trkpt lat="42.6198" lon="1.73013">
        <ele>2332.197</ele>
        <time>2021-08-06T12:45:25Z</time>
      </trkpt>
      <trkpt lat="42.6198" lon="1.73013">
        <ele>2332.197</ele>
        <time>2021-08-06T12:45:27Z</time>
      </trkpt>
      <trkpt lat="42.6198" lon="1.73013">
        <ele>2332.199</ele>
        <time>2021-08-06T12:45:29Z</time>
      </trkpt>
      <trkpt lat="42.6198" lon="1.73013">
        <ele>2332.195</ele>
        <time>2021-08-06T12:45:31Z</time>
      </trkpt>
      <trkpt lat="42.6198" lon="1.73013">
        <ele>2332.202</ele>
        <time>2021-08-06T12:45:33Z</time>
      </trkpt>
      <trkpt lat="42.61981" lon="1.73014">
        <ele>2332.358</ele>
        <time>2021-08-06T12:45:35Z</time>
      </trkpt>
      <trkpt lat="42.61981" lon="1.73014">
        <ele>2331.804</ele>
        <time>2021-08-06T12:45:37Z</time>
      </trkpt>
      <trkpt lat="42.61982" lon="1.73015">
        <ele>2332.146</ele>
        <time>2021-08-06T12:45:39Z</time>
      </trkpt>
      <trkpt lat="42.61983" lon="1.73015">
        <ele>2331.698</ele>
        <time>2021-08-06T12:45:41Z</time>
      </trkpt>
      <trkpt lat="42.61985" lon="1.73015">
        <ele>2331.077</ele>
        <time>2021-08-06T12:45:43Z</time>
      </trkpt>
      <trkpt lat="42.61987" lon="1.73014">
        <ele>2330.559</ele>
        <time>2021-08-06T12:45:45Z</time>
      </trkpt>
      <trkpt lat="42.61989" lon="1.73014">
        <ele>2331.544</ele>
        <time>2021-08-06T12:45:47Z</time>
      </trkpt>
      <trkpt lat="42.61991" lon="1.73013">
        <ele>2331.094</ele>
        <time>2021-08-06T12:45:49Z</time>
      </trkpt>
      <trkpt lat="42.61993" lon="1.73013">
        <ele>2331.302</ele>
        <time>2021-08-06T12:45:51Z</time>
      </trkpt>
      <trkpt lat="42.61995" lon="1.73013">
        <ele>2331.364</ele>
        <time>2021-08-06T12:45:53Z</time>
      </trkpt>
      <trkpt lat="42.61998" lon="1.73014">
        <ele>2331.975</ele>
        <time>2021-08-06T12:45:55Z</time>
      </trkpt>
      <trkpt lat="42.62" lon="1.73013">
        <ele>2333.407</ele>
        <time>2021-08-06T12:45:57Z</time>
      </trkpt>
      <trkpt lat="42.62001" lon="1.73014">
        <ele>2333.151</ele>
        <time>2021-08-06T12:45:59Z</time>
      </trkpt>
      <trkpt lat="42.62003" lon="1.73014">
        <ele>2333.607</ele>
        <time>2021-08-06T12:46:01Z</time>
      </trkpt>
      <trkpt lat="42.62004" lon="1.73015">
        <ele>2332.911</ele>
        <time>2021-08-06T12:46:03Z</time>
      </trkpt>
      <trkpt lat="42.62005" lon="1.73015">
        <ele>2331.481</ele>
        <time>2021-08-06T12:46:05Z</time>
      </trkpt>
      <trkpt lat="42.62006" lon="1.73016">
        <ele>2330.741</ele>
        <time>2021-08-06T12:46:07Z</time>
      </trkpt>
      <trkpt lat="42.62008" lon="1.73017">
        <ele>2330.294</ele>
        <time>2021-08-06T12:46:09Z</time>
      </trkpt>
      <trkpt lat="42.6201" lon="1.73018">
        <ele>2331.247</ele>
        <time>2021-08-06T12:46:11Z</time>
      </trkpt>
      <trkpt lat="42.62011" lon="1.73018">
        <ele>2330.75</ele>
        <time>2021-08-06T12:46:13Z</time>
      </trkpt>
      <trkpt lat="42.62013" lon="1.73019">
        <ele>2330.363</ele>
        <time>2021-08-06T12:46:15Z</time>
      </trkpt>
      <trkpt lat="42.62014" lon="1.73021">
        <ele>2329.668</ele>
        <time>2021-08-06T12:46:17Z</time>
      </trkpt>
      <trkpt lat="42.62015" lon="1.73022">
        <ele>2330.134</ele>
        <time>2021-08-06T12:46:19Z</time>
      </trkpt>
      <trkpt lat="42.62017" lon="1.73022">
        <ele>2329.984</ele>
        <time>2021-08-06T12:46:21Z</time>
      </trkpt>
      <trkpt lat="42.62019" lon="1.73023">
        <ele>2330.368</ele>
        <time>2021-08-06T12:46:23Z</time>
      </trkpt>
      <trkpt lat="42.6202" lon="1.73023">
        <ele>2330.707</ele>
        <time>2021-08-06T12:46:25Z</time>
      </trkpt>
      <trkpt lat="42.62021" lon="1.73024">
        <ele>2329.907</ele>
        <time>2021-08-06T12:46:27Z</time>
      </trkpt>
      <trkpt lat="42.62024" lon="1.73023">
        <ele>2330.302</ele>
        <time>2021-08-06T12:46:29Z</time>
      </trkpt>
      <trkpt lat="42.62026" lon="1.73022">
        <ele>2330.632</ele>
        <time>2021-08-06T12:46:31Z</time>
      </trkpt>
      <trkpt lat="42.62028" lon="1.73022">
        <ele>2330.936</ele>
        <time>2021-08-06T12:46:33Z</time>
      </trkpt>
      <trkpt lat="42.62029" lon="1.73021">
        <ele>2330.789</ele>
        <time>2021-08-06T12:46:35Z</time>
      </trkpt>
      <trkpt lat="42.62031" lon="1.73021">
        <ele>2330.45</ele>
        <time>2021-08-06T12:46:37Z</time>
      </trkpt>
      <trkpt lat="42.62032" lon="1.7302">
        <ele>2330.887</ele>
        <time>2021-08-06T12:46:39Z</time>
      </trkpt>
      <trkpt lat="42.62033" lon="1.73018">
        <ele>2331.29</ele>
        <time>2021-08-06T12:46:41Z</time>
      </trkpt>
      <trkpt lat="42.62034" lon="1.73017">
        <ele>2332.396</ele>
        <time>2021-08-06T12:46:43Z</time>
      </trkpt>
      <trkpt lat="42.62035" lon="1.73017">
        <ele>2332.139</ele>
        <time>2021-08-06T12:46:45Z</time>
      </trkpt>
      <trkpt lat="42.62037" lon="1.73016">
        <ele>2331.993</ele>
        <time>2021-08-06T12:46:47Z</time>
      </trkpt>
      <trkpt lat="42.62039" lon="1.73017">
        <ele>2332.06</ele>
        <time>2021-08-06T12:46:49Z</time>
      </trkpt>
      <trkpt lat="42.6204" lon="1.73017">
        <ele>2333.593</ele>
        <time>2021-08-06T12:46:51Z</time>
      </trkpt>
      <trkpt lat="42.62042" lon="1.73017">
        <ele>2333.321</ele>
        <time>2021-08-06T12:46:53Z</time>
      </trkpt>
      <trkpt lat="42.62043" lon="1.73017">
        <ele>2332.728</ele>
        <time>2021-08-06T12:46:55Z</time>
      </trkpt>
      <trkpt lat="42.62044" lon="1.73018">
        <ele>2331.276</ele>
        <time>2021-08-06T12:46:57Z</time>
      </trkpt>
      <trkpt lat="42.62045" lon="1.7302">
        <ele>2330.87</ele>
        <time>2021-08-06T12:46:59Z</time>
      </trkpt>
      <trkpt lat="42.62044" lon="1.73022">
        <ele>2331.071</ele>
        <time>2021-08-06T12:47:01Z</time>
      </trkpt>
      <trkpt lat="42.62043" lon="1.73024">
        <ele>2330.039</ele>
        <time>2021-08-06T12:47:03Z</time>
      </trkpt>
      <trkpt lat="42.62043" lon="1.73026">
        <ele>2329.649</ele>
        <time>2021-08-06T12:47:05Z</time>
      </trkpt>
      <trkpt lat="42.62043" lon="1.73028">
        <ele>2329.229</ele>
        <time>2021-08-06T12:47:07Z</time>
      </trkpt>
      <trkpt lat="42.62043" lon="1.7303">
        <ele>2329.504</ele>
        <time>2021-08-06T12:47:09Z</time>
      </trkpt>
      <trkpt lat="42.62044" lon="1.73032">
        <ele>2330.804</ele>
        <time>2021-08-06T12:47:11Z</time>
      </trkpt>
      <trkpt lat="42.62044" lon="1.73033">
        <ele>2330.911</ele>
        <time>2021-08-06T12:47:13Z</time>
      </trkpt>
      <trkpt lat="42.62045" lon="1.73034">
        <ele>2330.843</ele>
        <time>2021-08-06T12:47:15Z</time>
      </trkpt>
      <trkpt lat="42.62046" lon="1.73034">
        <ele>2331.209</ele>
        <time>2021-08-06T12:47:17Z</time>
      </trkpt>
      <trkpt lat="42.62047" lon="1.73034">
        <ele>2332.577</ele>
        <time>2021-08-06T12:47:19Z</time>
      </trkpt>
      <trkpt lat="42.62049" lon="1.73035">
        <ele>2333.231</ele>
        <time>2021-08-06T12:47:21Z</time>
      </trkpt>
      <trkpt lat="42.62049" lon="1.73036">
        <ele>2334.059</ele>
        <time>2021-08-06T12:47:23Z</time>
      </trkpt>
      <trkpt lat="42.6205" lon="1.73037">
        <ele>2333.165</ele>
        <time>2021-08-06T12:47:25Z</time>
      </trkpt>
      <trkpt lat="42.6205" lon="1.73037">
        <ele>2333.381</ele>
        <time>2021-08-06T12:47:27Z</time>
      </trkpt>
      <trkpt lat="42.62051" lon="1.73036">
        <ele>2333.421</ele>
        <time>2021-08-06T12:47:29Z</time>
      </trkpt>
      <trkpt lat="42.62052" lon="1.73036">
        <ele>2334.373</ele>
        <time>2021-08-06T12:47:31Z</time>
      </trkpt>
      <trkpt lat="42.62053" lon="1.73036">
        <ele>2334.29</ele>
        <time>2021-08-06T12:47:33Z</time>
      </trkpt>
      <trkpt lat="42.62053" lon="1.73037">
        <ele>2334.677</ele>
        <time>2021-08-06T12:47:35Z</time>
      </trkpt>
      <trkpt lat="42.62054" lon="1.73037">
        <ele>2334.501</ele>
        <time>2021-08-06T12:47:37Z</time>
      </trkpt>
      <trkpt lat="42.62055" lon="1.73037">
        <ele>2334.219</ele>
        <time>2021-08-06T12:47:39Z</time>
      </trkpt>
      <trkpt lat="42.62056" lon="1.73036">
        <ele>2335.001</ele>
        <time>2021-08-06T12:47:41Z</time>
      </trkpt>
      <trkpt lat="42.62056" lon="1.73035">
        <ele>2334.675</ele>
        <time>2021-08-06T12:47:43Z</time>
      </trkpt>
      <trkpt lat="42.62057" lon="1.73036">
        <ele>2335.68</ele>
        <time>2021-08-06T12:47:45Z</time>
      </trkpt>
      <trkpt lat="42.62058" lon="1.73037">
        <ele>2335.316</ele>
        <time>2021-08-06T12:47:47Z</time>
      </trkpt>
      <trkpt lat="42.62059" lon="1.73038">
        <ele>2336.9</ele>
        <time>2021-08-06T12:47:49Z</time>
      </trkpt>
      <trkpt lat="42.62061" lon="1.73038">
        <ele>2336.66</ele>
        <time>2021-08-06T12:47:51Z</time>
      </trkpt>
      <trkpt lat="42.62062" lon="1.73039">
        <ele>2336.324</ele>
        <time>2021-08-06T12:47:53Z</time>
      </trkpt>
      <trkpt lat="42.62063" lon="1.73039">
        <ele>2337.204</ele>
        <time>2021-08-06T12:47:55Z</time>
      </trkpt>
      <trkpt lat="42.62062" lon="1.73039">
        <ele>2338.618</ele>
        <time>2021-08-06T12:47:57Z</time>
      </trkpt>
      <trkpt lat="42.62063" lon="1.73039">
        <ele>2338.96</ele>
        <time>2021-08-06T12:47:59Z</time>
      </trkpt>
      <trkpt lat="42.62065" lon="1.73041">
        <ele>2339.499</ele>
        <time>2021-08-06T12:48:01Z</time>
      </trkpt>
      <trkpt lat="42.62066" lon="1.73042">
        <ele>2339.262</ele>
        <time>2021-08-06T12:48:03Z</time>
      </trkpt>
      <trkpt lat="42.62068" lon="1.73043">
        <ele>2339.031</ele>
        <time>2021-08-06T12:48:05Z</time>
      </trkpt>
      <trkpt lat="42.6207" lon="1.73043">
        <ele>2338.975</ele>
        <time>2021-08-06T12:48:07Z</time>
      </trkpt>
      <trkpt lat="42.62072" lon="1.73043">
        <ele>2338.64</ele>
        <time>2021-08-06T12:48:09Z</time>
      </trkpt>
      <trkpt lat="42.62074" lon="1.73043">
        <ele>2339.321</ele>
        <time>2021-08-06T12:48:11Z</time>
      </trkpt>
      <trkpt lat="42.62076" lon="1.73044">
        <ele>2339.035</ele>
        <time>2021-08-06T12:48:13Z</time>
      </trkpt>
      <trkpt lat="42.62078" lon="1.73044">
        <ele>2339.868</ele>
        <time>2021-08-06T12:48:15Z</time>
      </trkpt>
      <trkpt lat="42.62078" lon="1.73042">
        <ele>2341.346</ele>
        <time>2021-08-06T12:48:17Z</time>
      </trkpt>
      <trkpt lat="42.6208" lon="1.73041">
        <ele>2342.034</ele>
        <time>2021-08-06T12:48:19Z</time>
      </trkpt>
      <trkpt lat="42.62082" lon="1.7304">
        <ele>2341.92</ele>
        <time>2021-08-06T12:48:21Z</time>
      </trkpt>
      <trkpt lat="42.62084" lon="1.7304">
        <ele>2342.268</ele>
        <time>2021-08-06T12:48:23Z</time>
      </trkpt>
      <trkpt lat="42.62086" lon="1.73039">
        <ele>2342.882</ele>
        <time>2021-08-06T12:48:25Z</time>
      </trkpt>
      <trkpt lat="42.62087" lon="1.7304">
        <ele>2342.495</ele>
        <time>2021-08-06T12:48:27Z</time>
      </trkpt>
      <trkpt lat="42.62088" lon="1.7304">
        <ele>2342.445</ele>
        <time>2021-08-06T12:48:29Z</time>
      </trkpt>
      <trkpt lat="42.62089" lon="1.73042">
        <ele>2341.838</ele>
        <time>2021-08-06T12:48:31Z</time>
      </trkpt>
      <trkpt lat="42.62091" lon="1.73042">
        <ele>2342.22</ele>
        <time>2021-08-06T12:48:33Z</time>
      </trkpt>
      <trkpt lat="42.62092" lon="1.73044">
        <ele>2342.761</ele>
        <time>2021-08-06T12:48:35Z</time>
      </trkpt>
      <trkpt lat="42.62092" lon="1.73046">
        <ele>2342.348</ele>
        <time>2021-08-06T12:48:37Z</time>
      </trkpt>
      <trkpt lat="42.62093" lon="1.73046">
        <ele>2341.984</ele>
        <time>2021-08-06T12:48:39Z</time>
      </trkpt>
      <trkpt lat="42.62093" lon="1.73046">
        <ele>2342.536</ele>
        <time>2021-08-06T12:48:41Z</time>
      </trkpt>
      <trkpt lat="42.62094" lon="1.73045">
        <ele>2341.804</ele>
        <time>2021-08-06T12:48:43Z</time>
      </trkpt>
      <trkpt lat="42.62095" lon="1.73044">
        <ele>2341.061</ele>
        <time>2021-08-06T12:48:45Z</time>
      </trkpt>
      <trkpt lat="42.62096" lon="1.73043">
        <ele>2340.786</ele>
        <time>2021-08-06T12:48:47Z</time>
      </trkpt>
      <trkpt lat="42.62096" lon="1.73043">
        <ele>2340.906</ele>
        <time>2021-08-06T12:48:49Z</time>
      </trkpt>
      <trkpt lat="42.62097" lon="1.73041">
        <ele>2340.495</ele>
        <time>2021-08-06T12:48:51Z</time>
      </trkpt>
      <trkpt lat="42.62098" lon="1.7304">
        <ele>2341.442</ele>
        <time>2021-08-06T12:48:53Z</time>
      </trkpt>
      <trkpt lat="42.62098" lon="1.73039">
        <ele>2342.085</ele>
        <time>2021-08-06T12:48:55Z</time>
      </trkpt>
      <trkpt lat="42.62098" lon="1.73039">
        <ele>2342.076</ele>
        <time>2021-08-06T12:48:57Z</time>
      </trkpt>
      <trkpt lat="42.62098" lon="1.73039">
        <ele>2342.085</ele>
        <time>2021-08-06T12:48:59Z</time>
      </trkpt>
      <trkpt lat="42.62098" lon="1.73039">
        <ele>2342.09</ele>
        <time>2021-08-06T12:49:01Z</time>
      </trkpt>
      <trkpt lat="42.62098" lon="1.73039">
        <ele>2341.742</ele>
        <time>2021-08-06T12:49:03Z</time>
      </trkpt>
      <trkpt lat="42.62098" lon="1.73039">
        <ele>2341.696</ele>
        <time>2021-08-06T12:49:05Z</time>
      </trkpt>
      <trkpt lat="42.62098" lon="1.73039">
        <ele>2342.043</ele>
        <time>2021-08-06T12:49:07Z</time>
      </trkpt>
      <trkpt lat="42.62098" lon="1.73039">
        <ele>2342.179</ele>
        <time>2021-08-06T12:49:09Z</time>
      </trkpt>
      <trkpt lat="42.62099" lon="1.73039">
        <ele>2341.956</ele>
        <time>2021-08-06T12:49:11Z</time>
      </trkpt>
      <trkpt lat="42.62098" lon="1.73036">
        <ele>2344.257</ele>
        <time>2021-08-06T12:49:13Z</time>
      </trkpt>
      <trkpt lat="42.62097" lon="1.73035">
        <ele>2344.917</ele>
        <time>2021-08-06T12:49:15Z</time>
      </trkpt>
      <trkpt lat="42.62096" lon="1.73035">
        <ele>2345.187</ele>
        <time>2021-08-06T12:49:17Z</time>
      </trkpt>
      <trkpt lat="42.62095" lon="1.73036">
        <ele>2345.285</ele>
        <time>2021-08-06T12:49:19Z</time>
      </trkpt>
      <trkpt lat="42.62094" lon="1.73036">
        <ele>2344.895</ele>
        <time>2021-08-06T12:49:21Z</time>
      </trkpt>
      <trkpt lat="42.62094" lon="1.73036">
        <ele>2344.794</ele>
        <time>2021-08-06T12:49:23Z</time>
      </trkpt>
      <trkpt lat="42.62094" lon="1.73036">
        <ele>2345.377</ele>
        <time>2021-08-06T12:49:25Z</time>
      </trkpt>
      <trkpt lat="42.62094" lon="1.73036">
        <ele>2345.357</ele>
        <time>2021-08-06T12:49:27Z</time>
      </trkpt>
      <trkpt lat="42.62094" lon="1.73036">
        <ele>2345.321</ele>
        <time>2021-08-06T12:49:29Z</time>
      </trkpt>
      <trkpt lat="42.62094" lon="1.73036">
        <ele>2345.333</ele>
        <time>2021-08-06T12:49:31Z</time>
      </trkpt>
      <trkpt lat="42.62094" lon="1.73036">
        <ele>2345.247</ele>
        <time>2021-08-06T12:49:33Z</time>
      </trkpt>
      <trkpt lat="42.62094" lon="1.73036">
        <ele>2345.256</ele>
        <time>2021-08-06T12:49:35Z</time>
      </trkpt>
      <trkpt lat="42.62095" lon="1.73036">
        <ele>2345.396</ele>
        <time>2021-08-06T12:49:37Z</time>
      </trkpt>
      <trkpt lat="42.62095" lon="1.73035">
        <ele>2346.365</ele>
        <time>2021-08-06T12:49:39Z</time>
      </trkpt>
      <trkpt lat="42.62095" lon="1.73035">
        <ele>2346.417</ele>
        <time>2021-08-06T12:49:41Z</time>
      </trkpt>
      <trkpt lat="42.62095" lon="1.73035">
        <ele>2346.424</ele>
        <time>2021-08-06T12:49:43Z</time>
      </trkpt>
      <trkpt lat="42.62095" lon="1.73035">
        <ele>2346.419</ele>
        <time>2021-08-06T12:49:45Z</time>
      </trkpt>
      <trkpt lat="42.62095" lon="1.73035">
        <ele>2346.079</ele>
        <time>2021-08-06T12:49:47Z</time>
      </trkpt>
      <trkpt lat="42.62095" lon="1.73035">
        <ele>2346.031</ele>
        <time>2021-08-06T12:49:49Z</time>
      </trkpt>
      <trkpt lat="42.62095" lon="1.73035">
        <ele>2346.014</ele>
        <time>2021-08-06T12:49:51Z</time>
      </trkpt>
      <trkpt lat="42.62095" lon="1.73035">
        <ele>2345.994</ele>
        <time>2021-08-06T12:49:53Z</time>
      </trkpt>
      <trkpt lat="42.62095" lon="1.73035">
        <ele>2345.983</ele>
        <time>2021-08-06T12:49:55Z</time>
      </trkpt>
      <trkpt lat="42.62096" lon="1.73035">
        <ele>2345.905</ele>
        <time>2021-08-06T12:49:57Z</time>
      </trkpt>
      <trkpt lat="42.62096" lon="1.73035">
        <ele>2345.897</ele>
        <time>2021-08-06T12:49:59Z</time>
      </trkpt>
      <trkpt lat="42.62095" lon="1.73036">
        <ele>2346.154</ele>
        <time>2021-08-06T12:50:01Z</time>
      </trkpt>
      <trkpt lat="42.62095" lon="1.73036">
        <ele>2345.946</ele>
        <time>2021-08-06T12:50:03Z</time>
      </trkpt>
      <trkpt lat="42.62096" lon="1.73036">
        <ele>2346.017</ele>
        <time>2021-08-06T12:50:05Z</time>
      </trkpt>
      <trkpt lat="42.62096" lon="1.73036">
        <ele>2346.013</ele>
        <time>2021-08-06T12:50:07Z</time>
      </trkpt>
      <trkpt lat="42.62096" lon="1.73036">
        <ele>2346.012</ele>
        <time>2021-08-06T12:50:09Z</time>
      </trkpt>
      <trkpt lat="42.62096" lon="1.73036">
        <ele>2346.006</ele>
        <time>2021-08-06T12:50:11Z</time>
      </trkpt>
      <trkpt lat="42.62096" lon="1.73037">
        <ele>2346.412</ele>
        <time>2021-08-06T12:50:13Z</time>
      </trkpt>
      <trkpt lat="42.62096" lon="1.73037">
        <ele>2346.412</ele>
        <time>2021-08-06T12:50:15Z</time>
      </trkpt>
      <trkpt lat="42.62096" lon="1.73037">
        <ele>2346.427</ele>
        <time>2021-08-06T12:50:17Z</time>
      </trkpt>
      <trkpt lat="42.62096" lon="1.73037">
        <ele>2346.445</ele>
        <time>2021-08-06T12:50:19Z</time>
      </trkpt>
      <trkpt lat="42.62096" lon="1.73037">
        <ele>2346.467</ele>
        <time>2021-08-06T12:50:21Z</time>
      </trkpt>
      <trkpt lat="42.62096" lon="1.73037">
        <ele>2346.48</ele>
        <time>2021-08-06T12:50:23Z</time>
      </trkpt>
      <trkpt lat="42.62096" lon="1.73037">
        <ele>2346.479</ele>
        <time>2021-08-06T12:50:25Z</time>
      </trkpt>
      <trkpt lat="42.62096" lon="1.73037">
        <ele>2346.485</ele>
        <time>2021-08-06T12:50:27Z</time>
      </trkpt>
      <trkpt lat="42.62096" lon="1.73037">
        <ele>2346.484</ele>
        <time>2021-08-06T12:50:29Z</time>
      </trkpt>
      <trkpt lat="42.62096" lon="1.73037">
        <ele>2346.481</ele>
        <time>2021-08-06T12:50:31Z</time>
      </trkpt>
      <trkpt lat="42.62096" lon="1.73037">
        <ele>2346.476</ele>
        <time>2021-08-06T12:50:33Z</time>
      </trkpt>
      <trkpt lat="42.62096" lon="1.73037">
        <ele>2346.481</ele>
        <time>2021-08-06T12:50:35Z</time>
      </trkpt>
      <trkpt lat="42.62096" lon="1.73037">
        <ele>2346.503</ele>
        <time>2021-08-06T12:50:37Z</time>
      </trkpt>
      <trkpt lat="42.62096" lon="1.73037">
        <ele>2346.502</ele>
        <time>2021-08-06T12:50:39Z</time>
      </trkpt>
      <trkpt lat="42.62096" lon="1.73037">
        <ele>2346.493</ele>
        <time>2021-08-06T12:50:41Z</time>
      </trkpt>
      <trkpt lat="42.62096" lon="1.73037">
        <ele>2346.497</ele>
        <time>2021-08-06T12:50:43Z</time>
      </trkpt>
      <trkpt lat="42.62096" lon="1.73037">
        <ele>2346.496</ele>
        <time>2021-08-06T12:50:45Z</time>
      </trkpt>
      <trkpt lat="42.62096" lon="1.73037">
        <ele>2346.49</ele>
        <time>2021-08-06T12:50:47Z</time>
      </trkpt>
      <trkpt lat="42.62096" lon="1.73037">
        <ele>2346.482</ele>
        <time>2021-08-06T12:50:49Z</time>
      </trkpt>
      <trkpt lat="42.62096" lon="1.73037">
        <ele>2346.456</ele>
        <time>2021-08-06T12:50:51Z</time>
      </trkpt>
      <trkpt lat="42.62096" lon="1.73037">
        <ele>2346.44</ele>
        <time>2021-08-06T12:50:53Z</time>
      </trkpt>
      <trkpt lat="42.62096" lon="1.73037">
        <ele>2346.442</ele>
        <time>2021-08-06T12:50:55Z</time>
      </trkpt>
      <trkpt lat="42.62096" lon="1.73037">
        <ele>2346.449</ele>
        <time>2021-08-06T12:50:57Z</time>
      </trkpt>
      <trkpt lat="42.62096" lon="1.73037">
        <ele>2346.454</ele>
        <time>2021-08-06T12:50:59Z</time>
      </trkpt>
      <trkpt lat="42.62096" lon="1.73037">
        <ele>2346.458</ele>
        <time>2021-08-06T12:51:01Z</time>
      </trkpt>
      <trkpt lat="42.62095" lon="1.73037">
        <ele>2346.935</ele>
        <time>2021-08-06T12:51:03Z</time>
      </trkpt>
      <trkpt lat="42.62094" lon="1.73038">
        <ele>2346.774</ele>
        <time>2021-08-06T12:51:05Z</time>
      </trkpt>
      <trkpt lat="42.62092" lon="1.73039">
        <ele>2347.286</ele>
        <time>2021-08-06T12:51:07Z</time>
      </trkpt>
      <trkpt lat="42.62091" lon="1.73039">
        <ele>2348.503</ele>
        <time>2021-08-06T12:51:09Z</time>
      </trkpt>
      <trkpt lat="42.62091" lon="1.73039">
        <ele>2348.5</ele>
        <time>2021-08-06T12:51:11Z</time>
      </trkpt>
      <trkpt lat="42.62091" lon="1.73039">
        <ele>2348.501</ele>
        <time>2021-08-06T12:51:13Z</time>
      </trkpt>
      <trkpt lat="42.62091" lon="1.73039">
        <ele>2348.49</ele>
        <time>2021-08-06T12:51:15Z</time>
      </trkpt>
      <trkpt lat="42.62091" lon="1.73039">
        <ele>2348.485</ele>
        <time>2021-08-06T12:51:17Z</time>
      </trkpt>
      <trkpt lat="42.62091" lon="1.73039">
        <ele>2348.496</ele>
        <time>2021-08-06T12:51:19Z</time>
      </trkpt>
      <trkpt lat="42.62091" lon="1.73039">
        <ele>2348.488</ele>
        <time>2021-08-06T12:51:21Z</time>
      </trkpt>
      <trkpt lat="42.62091" lon="1.73039">
        <ele>2348.488</ele>
        <time>2021-08-06T12:51:23Z</time>
      </trkpt>
      <trkpt lat="42.62091" lon="1.73039">
        <ele>2348.458</ele>
        <time>2021-08-06T12:51:25Z</time>
      </trkpt>
      <trkpt lat="42.62091" lon="1.73039">
        <ele>2348.455</ele>
        <time>2021-08-06T12:51:27Z</time>
      </trkpt>
      <trkpt lat="42.62091" lon="1.73039">
        <ele>2348.443</ele>
        <time>2021-08-06T12:51:29Z</time>
      </trkpt>
      <trkpt lat="42.62091" lon="1.73039">
        <ele>2348.43</ele>
        <time>2021-08-06T12:51:31Z</time>
      </trkpt>
      <trkpt lat="42.62091" lon="1.73039">
        <ele>2348.448</ele>
        <time>2021-08-06T12:51:33Z</time>
      </trkpt>
      <trkpt lat="42.62091" lon="1.73039">
        <ele>2348.446</ele>
        <time>2021-08-06T12:51:35Z</time>
      </trkpt>
      <trkpt lat="42.62091" lon="1.73039">
        <ele>2347.906</ele>
        <time>2021-08-06T12:51:37Z</time>
      </trkpt>
      <trkpt lat="42.62092" lon="1.73039">
        <ele>2347.854</ele>
        <time>2021-08-06T12:51:39Z</time>
      </trkpt>
      <trkpt lat="42.62092" lon="1.73038">
        <ele>2348.039</ele>
        <time>2021-08-06T12:51:41Z</time>
      </trkpt>
      <trkpt lat="42.62093" lon="1.73038">
        <ele>2347.939</ele>
        <time>2021-08-06T12:51:43Z</time>
      </trkpt>
      <trkpt lat="42.62093" lon="1.73038">
        <ele>2347.927</ele>
        <time>2021-08-06T12:51:45Z</time>
      </trkpt>
      <trkpt lat="42.62092" lon="1.73038">
        <ele>2347.618</ele>
        <time>2021-08-06T12:51:47Z</time>
      </trkpt>
      <trkpt lat="42.62092" lon="1.73038">
        <ele>2347.613</ele>
        <time>2021-08-06T12:51:49Z</time>
      </trkpt>
      <trkpt lat="42.62092" lon="1.73038">
        <ele>2347.609</ele>
        <time>2021-08-06T12:51:51Z</time>
      </trkpt>
      <trkpt lat="42.62092" lon="1.73038">
        <ele>2347.614</ele>
        <time>2021-08-06T12:51:53Z</time>
      </trkpt>
      <trkpt lat="42.62092" lon="1.73038">
        <ele>2347.622</ele>
        <time>2021-08-06T12:51:55Z</time>
      </trkpt>
      <trkpt lat="42.62092" lon="1.73038">
        <ele>2347.622</ele>
        <time>2021-08-06T12:51:57Z</time>
      </trkpt>
      <trkpt lat="42.62092" lon="1.73038">
        <ele>2347.613</ele>
        <time>2021-08-06T12:51:59Z</time>
      </trkpt>
      <trkpt lat="42.62092" lon="1.73038">
        <ele>2347.612</ele>
        <time>2021-08-06T12:52:01Z</time>
      </trkpt>
      <trkpt lat="42.62092" lon="1.73038">
        <ele>2347.615</ele>
        <time>2021-08-06T12:52:03Z</time>
      </trkpt>
      <trkpt lat="42.62093" lon="1.73039">
        <ele>2346.654</ele>
        <time>2021-08-06T12:52:05Z</time>
      </trkpt>
      <trkpt lat="42.62093" lon="1.73039">
        <ele>2346.636</ele>
        <time>2021-08-06T12:52:07Z</time>
      </trkpt>
      <trkpt lat="42.62094" lon="1.73039">
        <ele>2346.529</ele>
        <time>2021-08-06T12:52:09Z</time>
      </trkpt>
      <trkpt lat="42.62094" lon="1.73039">
        <ele>2346.143</ele>
        <time>2021-08-06T12:52:11Z</time>
      </trkpt>
      <trkpt lat="42.62094" lon="1.73039">
        <ele>2346.126</ele>
        <time>2021-08-06T12:52:13Z</time>
      </trkpt>
      <trkpt lat="42.62093" lon="1.73039">
        <ele>2346.312</ele>
        <time>2021-08-06T12:52:15Z</time>
      </trkpt>
      <trkpt lat="42.62094" lon="1.73039">
        <ele>2346.46</ele>
        <time>2021-08-06T12:52:17Z</time>
      </trkpt>
      <trkpt lat="42.62094" lon="1.73039">
        <ele>2346.445</ele>
        <time>2021-08-06T12:52:19Z</time>
      </trkpt>
      <trkpt lat="42.62094" lon="1.73039">
        <ele>2346.444</ele>
        <time>2021-08-06T12:52:21Z</time>
      </trkpt>
      <trkpt lat="42.62094" lon="1.73039">
        <ele>2346.432</ele>
        <time>2021-08-06T12:52:23Z</time>
      </trkpt>
      <trkpt lat="42.62094" lon="1.73039">
        <ele>2346.94</ele>
        <time>2021-08-06T12:52:25Z</time>
      </trkpt>
      <trkpt lat="42.62094" lon="1.73039">
        <ele>2347.676</ele>
        <time>2021-08-06T12:52:27Z</time>
      </trkpt>
      <trkpt lat="42.62094" lon="1.73039">
        <ele>2347.96</ele>
        <time>2021-08-06T12:52:29Z</time>
      </trkpt>
      <trkpt lat="42.62095" lon="1.73039">
        <ele>2348.056</ele>
        <time>2021-08-06T12:52:31Z</time>
      </trkpt>
      <trkpt lat="42.62096" lon="1.73038">
        <ele>2347.481</ele>
        <time>2021-08-06T12:52:33Z</time>
      </trkpt>
      <trkpt lat="42.62097" lon="1.73039">
        <ele>2347.692</ele>
        <time>2021-08-06T12:52:35Z</time>
      </trkpt>
      <trkpt lat="42.62097" lon="1.73033">
        <ele>2348.135</ele>
        <time>2021-08-06T12:52:37Z</time>
      </trkpt>
      <trkpt lat="42.62097" lon="1.73028">
        <ele>2347.452</ele>
        <time>2021-08-06T12:52:39Z</time>
      </trkpt>
      <trkpt lat="42.62099" lon="1.73032">
        <ele>2347.909</ele>
        <time>2021-08-06T12:52:41Z</time>
      </trkpt>
      <trkpt lat="42.62101" lon="1.73033">
        <ele>2347.963</ele>
        <time>2021-08-06T12:52:43Z</time>
      </trkpt>
      <trkpt lat="42.62103" lon="1.73034">
        <ele>2346.581</ele>
        <time>2021-08-06T12:52:45Z</time>
      </trkpt>
      <trkpt lat="42.62103" lon="1.73034">
        <ele>2346.663</ele>
        <time>2021-08-06T12:52:47Z</time>
      </trkpt>
      <trkpt lat="42.62105" lon="1.73034">
        <ele>2347.106</ele>
        <time>2021-08-06T12:52:49Z</time>
      </trkpt>
      <trkpt lat="42.62107" lon="1.73035">
        <ele>2346.009</ele>
        <time>2021-08-06T12:52:51Z</time>
      </trkpt>
      <trkpt lat="42.62108" lon="1.73035">
        <ele>2346.264</ele>
        <time>2021-08-06T12:52:53Z</time>
      </trkpt>
      <trkpt lat="42.62108" lon="1.73035">
        <ele>2346.549</ele>
        <time>2021-08-06T12:52:55Z</time>
      </trkpt>
      <trkpt lat="42.62109" lon="1.73035">
        <ele>2346.513</ele>
        <time>2021-08-06T12:52:57Z</time>
      </trkpt>
      <trkpt lat="42.6211" lon="1.73035">
        <ele>2346.591</ele>
        <time>2021-08-06T12:52:59Z</time>
      </trkpt>
      <trkpt lat="42.6211" lon="1.73035">
        <ele>2346.588</ele>
        <time>2021-08-06T12:53:01Z</time>
      </trkpt>
      <trkpt lat="42.6211" lon="1.73035">
        <ele>2346.579</ele>
        <time>2021-08-06T12:53:03Z</time>
      </trkpt>
      <trkpt lat="42.6211" lon="1.73035">
        <ele>2346.582</ele>
        <time>2021-08-06T12:53:05Z</time>
      </trkpt>
      <trkpt lat="42.6211" lon="1.73035">
        <ele>2346.601</ele>
        <time>2021-08-06T12:53:07Z</time>
      </trkpt>
      <trkpt lat="42.6211" lon="1.73035">
        <ele>2346.607</ele>
        <time>2021-08-06T12:53:09Z</time>
      </trkpt>
      <trkpt lat="42.6211" lon="1.73035">
        <ele>2346.616</ele>
        <time>2021-08-06T12:53:11Z</time>
      </trkpt>
      <trkpt lat="42.6211" lon="1.73035">
        <ele>2346.609</ele>
        <time>2021-08-06T12:53:13Z</time>
      </trkpt>
      <trkpt lat="42.6211" lon="1.73035">
        <ele>2346.609</ele>
        <time>2021-08-06T12:53:15Z</time>
      </trkpt>
      <trkpt lat="42.6211" lon="1.73035">
        <ele>2346.629</ele>
        <time>2021-08-06T12:53:17Z</time>
      </trkpt>
      <trkpt lat="42.6211" lon="1.73035">
        <ele>2348.509</ele>
        <time>2021-08-06T12:53:19Z</time>
      </trkpt>
      <trkpt lat="42.62109" lon="1.73035">
        <ele>2348.49</ele>
        <time>2021-08-06T12:53:21Z</time>
      </trkpt>
      <trkpt lat="42.62109" lon="1.73035">
        <ele>2348.495</ele>
        <time>2021-08-06T12:53:23Z</time>
      </trkpt>
      <trkpt lat="42.62109" lon="1.73035">
        <ele>2348.489</ele>
        <time>2021-08-06T12:53:25Z</time>
      </trkpt>
      <trkpt lat="42.62109" lon="1.73035">
        <ele>2348.51</ele>
        <time>2021-08-06T12:53:27Z</time>
      </trkpt>
      <trkpt lat="42.62109" lon="1.73035">
        <ele>2348.506</ele>
        <time>2021-08-06T12:53:29Z</time>
      </trkpt>
      <trkpt lat="42.62109" lon="1.73034">
        <ele>2348.488</ele>
        <time>2021-08-06T12:53:31Z</time>
      </trkpt>
      <trkpt lat="42.62109" lon="1.73034">
        <ele>2348.693</ele>
        <time>2021-08-06T12:53:33Z</time>
      </trkpt>
      <trkpt lat="42.62109" lon="1.73034">
        <ele>2348.793</ele>
        <time>2021-08-06T12:53:35Z</time>
      </trkpt>
      <trkpt lat="42.62108" lon="1.73032">
        <ele>2348.209</ele>
        <time>2021-08-06T12:53:37Z</time>
      </trkpt>
      <trkpt lat="42.62106" lon="1.73028">
        <ele>2348.409</ele>
        <time>2021-08-06T12:53:39Z</time>
      </trkpt>
      <trkpt lat="42.62106" lon="1.73027">
        <ele>2348.619</ele>
        <time>2021-08-06T12:53:41Z</time>
      </trkpt>
      <trkpt lat="42.62107" lon="1.73025">
        <ele>2348.313</ele>
        <time>2021-08-06T12:53:43Z</time>
      </trkpt>
      <trkpt lat="42.62108" lon="1.73024">
        <ele>2348.306</ele>
        <time>2021-08-06T12:53:45Z</time>
      </trkpt>
      <trkpt lat="42.62108" lon="1.73024">
        <ele>2348.312</ele>
        <time>2021-08-06T12:53:47Z</time>
      </trkpt>
      <trkpt lat="42.62109" lon="1.73024">
        <ele>2348.142</ele>
        <time>2021-08-06T12:53:49Z</time>
      </trkpt>
      <trkpt lat="42.62112" lon="1.73022">
        <ele>2348.629</ele>
        <time>2021-08-06T12:53:51Z</time>
      </trkpt>
      <trkpt lat="42.62112" lon="1.73023">
        <ele>2348.574</ele>
        <time>2021-08-06T12:53:53Z</time>
      </trkpt>
      <trkpt lat="42.62113" lon="1.73023">
        <ele>2347.539</ele>
        <time>2021-08-06T12:53:55Z</time>
      </trkpt>
      <trkpt lat="42.62113" lon="1.73024">
        <ele>2346.813</ele>
        <time>2021-08-06T12:53:57Z</time>
      </trkpt>
      <trkpt lat="42.62113" lon="1.73023">
        <ele>2346.813</ele>
        <time>2021-08-06T12:53:59Z</time>
      </trkpt>
      <trkpt lat="42.62114" lon="1.73022">
        <ele>2346.228</ele>
        <time>2021-08-06T12:54:01Z</time>
      </trkpt>
      <trkpt lat="42.62115" lon="1.73021">
        <ele>2345.971</ele>
        <time>2021-08-06T12:54:03Z</time>
      </trkpt>
      <trkpt lat="42.62115" lon="1.73021">
        <ele>2346.925</ele>
        <time>2021-08-06T12:54:05Z</time>
      </trkpt>
      <trkpt lat="42.62116" lon="1.7302">
        <ele>2346.704</ele>
        <time>2021-08-06T12:54:07Z</time>
      </trkpt>
      <trkpt lat="42.62116" lon="1.73021">
        <ele>2346.698</ele>
        <time>2021-08-06T12:54:09Z</time>
      </trkpt>
      <trkpt lat="42.62117" lon="1.73022">
        <ele>2346.75</ele>
        <time>2021-08-06T12:54:11Z</time>
      </trkpt>
      <trkpt lat="42.62118" lon="1.73022">
        <ele>2347.04</ele>
        <time>2021-08-06T12:54:13Z</time>
      </trkpt>
      <trkpt lat="42.62118" lon="1.73022">
        <ele>2346.745</ele>
        <time>2021-08-06T12:54:15Z</time>
      </trkpt>
      <trkpt lat="42.6212" lon="1.73022">
        <ele>2346.356</ele>
        <time>2021-08-06T12:54:17Z</time>
      </trkpt>
      <trkpt lat="42.6212" lon="1.73022">
        <ele>2345.915</ele>
        <time>2021-08-06T12:54:19Z</time>
      </trkpt>
      <trkpt lat="42.62121" lon="1.73023">
        <ele>2346.296</ele>
        <time>2021-08-06T12:54:21Z</time>
      </trkpt>
      <trkpt lat="42.62121" lon="1.73023">
        <ele>2346.222</ele>
        <time>2021-08-06T12:54:23Z</time>
      </trkpt>
      <trkpt lat="42.62121" lon="1.73022">
        <ele>2347.322</ele>
        <time>2021-08-06T12:54:25Z</time>
      </trkpt>
      <trkpt lat="42.62122" lon="1.73021">
        <ele>2347.325</ele>
        <time>2021-08-06T12:54:27Z</time>
      </trkpt>
      <trkpt lat="42.62122" lon="1.73021">
        <ele>2347.197</ele>
        <time>2021-08-06T12:54:29Z</time>
      </trkpt>
      <trkpt lat="42.62122" lon="1.73021">
        <ele>2347.952</ele>
        <time>2021-08-06T12:54:31Z</time>
      </trkpt>
      <trkpt lat="42.62122" lon="1.73021">
        <ele>2347.962</ele>
        <time>2021-08-06T12:54:33Z</time>
      </trkpt>
      <trkpt lat="42.62122" lon="1.7302">
        <ele>2347.621</ele>
        <time>2021-08-06T12:54:35Z</time>
      </trkpt>
      <trkpt lat="42.62122" lon="1.73019">
        <ele>2346.683</ele>
        <time>2021-08-06T12:54:37Z</time>
      </trkpt>
      <trkpt lat="42.62124" lon="1.73018">
        <ele>2347.012</ele>
        <time>2021-08-06T12:54:39Z</time>
      </trkpt>
      <trkpt lat="42.62124" lon="1.73018">
        <ele>2346.529</ele>
        <time>2021-08-06T12:54:41Z</time>
      </trkpt>
      <trkpt lat="42.62125" lon="1.73017">
        <ele>2345.81</ele>
        <time>2021-08-06T12:54:43Z</time>
      </trkpt>
      <trkpt lat="42.62126" lon="1.73017">
        <ele>2346.083</ele>
        <time>2021-08-06T12:54:45Z</time>
      </trkpt>
      <trkpt lat="42.62127" lon="1.73016">
        <ele>2344.881</ele>
        <time>2021-08-06T12:54:47Z</time>
      </trkpt>
      <trkpt lat="42.62127" lon="1.73016">
        <ele>2344.939</ele>
        <time>2021-08-06T12:54:49Z</time>
      </trkpt>
      <trkpt lat="42.62128" lon="1.73014">
        <ele>2344.991</ele>
        <time>2021-08-06T12:54:51Z</time>
      </trkpt>
      <trkpt lat="42.62129" lon="1.73014">
        <ele>2344.522</ele>
        <time>2021-08-06T12:54:53Z</time>
      </trkpt>
      <trkpt lat="42.62129" lon="1.73013">
        <ele>2344.242</ele>
        <time>2021-08-06T12:54:55Z</time>
      </trkpt>
      <trkpt lat="42.62129" lon="1.73012">
        <ele>2344.041</ele>
        <time>2021-08-06T12:54:57Z</time>
      </trkpt>
      <trkpt lat="42.62129" lon="1.7301">
        <ele>2344.023</ele>
        <time>2021-08-06T12:54:59Z</time>
      </trkpt>
      <trkpt lat="42.6213" lon="1.73009">
        <ele>2343.325</ele>
        <time>2021-08-06T12:55:01Z</time>
      </trkpt>
      <trkpt lat="42.62131" lon="1.73007">
        <ele>2343.893</ele>
        <time>2021-08-06T12:55:03Z</time>
      </trkpt>
      <trkpt lat="42.62131" lon="1.73007">
        <ele>2342.791</ele>
        <time>2021-08-06T12:55:05Z</time>
      </trkpt>
      <trkpt lat="42.62131" lon="1.73007">
        <ele>2342.796</ele>
        <time>2021-08-06T12:55:07Z</time>
      </trkpt>
      <trkpt lat="42.62131" lon="1.73007">
        <ele>2342.797</ele>
        <time>2021-08-06T12:55:09Z</time>
      </trkpt>
      <trkpt lat="42.62131" lon="1.73007">
        <ele>2342.848</ele>
        <time>2021-08-06T12:55:11Z</time>
      </trkpt>
      <trkpt lat="42.62132" lon="1.73006">
        <ele>2343.462</ele>
        <time>2021-08-06T12:55:13Z</time>
      </trkpt>
      <trkpt lat="42.62132" lon="1.73005">
        <ele>2344.303</ele>
        <time>2021-08-06T12:55:15Z</time>
      </trkpt>
      <trkpt lat="42.62133" lon="1.73004">
        <ele>2344.948</ele>
        <time>2021-08-06T12:55:17Z</time>
      </trkpt>
      <trkpt lat="42.62133" lon="1.73002">
        <ele>2345.788</ele>
        <time>2021-08-06T12:55:19Z</time>
      </trkpt>
      <trkpt lat="42.62133" lon="1.73001">
        <ele>2345.235</ele>
        <time>2021-08-06T12:55:21Z</time>
      </trkpt>
      <trkpt lat="42.62134" lon="1.73001">
        <ele>2344.706</ele>
        <time>2021-08-06T12:55:23Z</time>
      </trkpt>
      <trkpt lat="42.62134" lon="1.73001">
        <ele>2344.702</ele>
        <time>2021-08-06T12:55:25Z</time>
      </trkpt>
      <trkpt lat="42.62134" lon="1.73001">
        <ele>2344.078</ele>
        <time>2021-08-06T12:55:27Z</time>
      </trkpt>
      <trkpt lat="42.62135" lon="1.73">
        <ele>2344.371</ele>
        <time>2021-08-06T12:55:29Z</time>
      </trkpt>
      <trkpt lat="42.62136" lon="1.73">
        <ele>2344.256</ele>
        <time>2021-08-06T12:55:31Z</time>
      </trkpt>
      <trkpt lat="42.62137" lon="1.72999">
        <ele>2344.298</ele>
        <time>2021-08-06T12:55:33Z</time>
      </trkpt>
      <trkpt lat="42.62137" lon="1.72996">
        <ele>2343.825</ele>
        <time>2021-08-06T12:55:35Z</time>
      </trkpt>
      <trkpt lat="42.62137" lon="1.72994">
        <ele>2344.403</ele>
        <time>2021-08-06T12:55:37Z</time>
      </trkpt>
      <trkpt lat="42.62138" lon="1.72991">
        <ele>2346.12</ele>
        <time>2021-08-06T12:55:39Z</time>
      </trkpt>
      <trkpt lat="42.62139" lon="1.7299">
        <ele>2346.51</ele>
        <time>2021-08-06T12:55:41Z</time>
      </trkpt>
      <trkpt lat="42.62139" lon="1.72988">
        <ele>2346.423</ele>
        <time>2021-08-06T12:55:43Z</time>
      </trkpt>
      <trkpt lat="42.62139" lon="1.72985">
        <ele>2346.117</ele>
        <time>2021-08-06T12:55:45Z</time>
      </trkpt>
      <trkpt lat="42.62139" lon="1.72983">
        <ele>2345.559</ele>
        <time>2021-08-06T12:55:47Z</time>
      </trkpt>
      <trkpt lat="42.62139" lon="1.72981">
        <ele>2345.979</ele>
        <time>2021-08-06T12:55:49Z</time>
      </trkpt>
      <trkpt lat="42.6214" lon="1.7298">
        <ele>2346.279</ele>
        <time>2021-08-06T12:55:51Z</time>
      </trkpt>
      <trkpt lat="42.62141" lon="1.72979">
        <ele>2346.364</ele>
        <time>2021-08-06T12:55:53Z</time>
      </trkpt>
      <trkpt lat="42.62142" lon="1.72977">
        <ele>2346.873</ele>
        <time>2021-08-06T12:55:55Z</time>
      </trkpt>
      <trkpt lat="42.62142" lon="1.72975">
        <ele>2346.477</ele>
        <time>2021-08-06T12:55:57Z</time>
      </trkpt>
      <trkpt lat="42.62142" lon="1.72974">
        <ele>2346.26</ele>
        <time>2021-08-06T12:55:59Z</time>
      </trkpt>
      <trkpt lat="42.62142" lon="1.72972">
        <ele>2346.835</ele>
        <time>2021-08-06T12:56:01Z</time>
      </trkpt>
      <trkpt lat="42.62143" lon="1.72971">
        <ele>2347.124</ele>
        <time>2021-08-06T12:56:03Z</time>
      </trkpt>
      <trkpt lat="42.62144" lon="1.72969">
        <ele>2347.27</ele>
        <time>2021-08-06T12:56:05Z</time>
      </trkpt>
      <trkpt lat="42.62145" lon="1.72968">
        <ele>2347.157</ele>
        <time>2021-08-06T12:56:07Z</time>
      </trkpt>
      <trkpt lat="42.62145" lon="1.72966">
        <ele>2346.504</ele>
        <time>2021-08-06T12:56:09Z</time>
      </trkpt>
      <trkpt lat="42.62146" lon="1.72964">
        <ele>2346.244</ele>
        <time>2021-08-06T12:56:11Z</time>
      </trkpt>
      <trkpt lat="42.62146" lon="1.72963">
        <ele>2346.608</ele>
        <time>2021-08-06T12:56:13Z</time>
      </trkpt>
      <trkpt lat="42.62148" lon="1.72962">
        <ele>2347.247</ele>
        <time>2021-08-06T12:56:15Z</time>
      </trkpt>
      <trkpt lat="42.62148" lon="1.72959">
        <ele>2348.261</ele>
        <time>2021-08-06T12:56:17Z</time>
      </trkpt>
      <trkpt lat="42.62148" lon="1.72958">
        <ele>2348.823</ele>
        <time>2021-08-06T12:56:19Z</time>
      </trkpt>
      <trkpt lat="42.62148" lon="1.72956">
        <ele>2348.844</ele>
        <time>2021-08-06T12:56:21Z</time>
      </trkpt>
      <trkpt lat="42.62148" lon="1.72955">
        <ele>2348.856</ele>
        <time>2021-08-06T12:56:23Z</time>
      </trkpt>
      <trkpt lat="42.62148" lon="1.72953">
        <ele>2350.077</ele>
        <time>2021-08-06T12:56:25Z</time>
      </trkpt>
      <trkpt lat="42.62148" lon="1.72952">
        <ele>2350.238</ele>
        <time>2021-08-06T12:56:27Z</time>
      </trkpt>
      <trkpt lat="42.62148" lon="1.72952">
        <ele>2349.252</ele>
        <time>2021-08-06T12:56:29Z</time>
      </trkpt>
      <trkpt lat="42.62147" lon="1.7295">
        <ele>2348.158</ele>
        <time>2021-08-06T12:56:31Z</time>
      </trkpt>
      <trkpt lat="42.62148" lon="1.72949">
        <ele>2347.736</ele>
        <time>2021-08-06T12:56:33Z</time>
      </trkpt>
      <trkpt lat="42.62149" lon="1.72947">
        <ele>2348.339</ele>
        <time>2021-08-06T12:56:35Z</time>
      </trkpt>
      <trkpt lat="42.6215" lon="1.72946">
        <ele>2348.387</ele>
        <time>2021-08-06T12:56:37Z</time>
      </trkpt>
      <trkpt lat="42.62151" lon="1.72944">
        <ele>2347.946</ele>
        <time>2021-08-06T12:56:39Z</time>
      </trkpt>
      <trkpt lat="42.62152" lon="1.72943">
        <ele>2346.822</ele>
        <time>2021-08-06T12:56:41Z</time>
      </trkpt>
      <trkpt lat="42.62152" lon="1.72943">
        <ele>2342.436</ele>
        <time>2021-08-06T12:56:43Z</time>
      </trkpt>
      <trkpt lat="42.62151" lon="1.72942">
        <ele>2341.91</ele>
        <time>2021-08-06T12:56:45Z</time>
      </trkpt>
      <trkpt lat="42.62152" lon="1.7294">
        <ele>2341.56</ele>
        <time>2021-08-06T12:56:47Z</time>
      </trkpt>
      <trkpt lat="42.62152" lon="1.72938">
        <ele>2341.055</ele>
        <time>2021-08-06T12:56:49Z</time>
      </trkpt>
      <trkpt lat="42.62152" lon="1.72936">
        <ele>2340.844</ele>
        <time>2021-08-06T12:56:51Z</time>
      </trkpt>
      <trkpt lat="42.62153" lon="1.72935">
        <ele>2341.099</ele>
        <time>2021-08-06T12:56:53Z</time>
      </trkpt>
      <trkpt lat="42.62155" lon="1.72933">
        <ele>2341.219</ele>
        <time>2021-08-06T12:56:55Z</time>
      </trkpt>
      <trkpt lat="42.62156" lon="1.72931">
        <ele>2341.925</ele>
        <time>2021-08-06T12:56:57Z</time>
      </trkpt>
      <trkpt lat="42.62157" lon="1.72929">
        <ele>2341.211</ele>
        <time>2021-08-06T12:56:59Z</time>
      </trkpt>
      <trkpt lat="42.62158" lon="1.72927">
        <ele>2341.627</ele>
        <time>2021-08-06T12:57:01Z</time>
      </trkpt>
      <trkpt lat="42.6216" lon="1.72925">
        <ele>2342.461</ele>
        <time>2021-08-06T12:57:03Z</time>
      </trkpt>
      <trkpt lat="42.6216" lon="1.72924">
        <ele>2343.963</ele>
        <time>2021-08-06T12:57:05Z</time>
      </trkpt>
      <trkpt lat="42.62161" lon="1.72922">
        <ele>2344.733</ele>
        <time>2021-08-06T12:57:07Z</time>
      </trkpt>
      <trkpt lat="42.62162" lon="1.7292">
        <ele>2345.328</ele>
        <time>2021-08-06T12:57:09Z</time>
      </trkpt>
      <trkpt lat="42.62162" lon="1.72918">
        <ele>2346.543</ele>
        <time>2021-08-06T12:57:11Z</time>
      </trkpt>
      <trkpt lat="42.62161" lon="1.72916">
        <ele>2347.983</ele>
        <time>2021-08-06T12:57:13Z</time>
      </trkpt>
      <trkpt lat="42.62161" lon="1.72914">
        <ele>2348.133</ele>
        <time>2021-08-06T12:57:15Z</time>
      </trkpt>
      <trkpt lat="42.62161" lon="1.72912">
        <ele>2349.359</ele>
        <time>2021-08-06T12:57:17Z</time>
      </trkpt>
      <trkpt lat="42.6216" lon="1.72912">
        <ele>2348.276</ele>
        <time>2021-08-06T12:57:19Z</time>
      </trkpt>
      <trkpt lat="42.6216" lon="1.72911">
        <ele>2347.712</ele>
        <time>2021-08-06T12:57:21Z</time>
      </trkpt>
      <trkpt lat="42.62161" lon="1.7291">
        <ele>2348.275</ele>
        <time>2021-08-06T12:57:23Z</time>
      </trkpt>
      <trkpt lat="42.62161" lon="1.72911">
        <ele>2347.748</ele>
        <time>2021-08-06T12:57:25Z</time>
      </trkpt>
      <trkpt lat="42.62162" lon="1.72909">
        <ele>2348.125</ele>
        <time>2021-08-06T12:57:27Z</time>
      </trkpt>
      <trkpt lat="42.62162" lon="1.72909">
        <ele>2346.847</ele>
        <time>2021-08-06T12:57:29Z</time>
      </trkpt>
      <trkpt lat="42.62163" lon="1.72909">
        <ele>2346.252</ele>
        <time>2021-08-06T12:57:31Z</time>
      </trkpt>
      <trkpt lat="42.62163" lon="1.72908">
        <ele>2346.145</ele>
        <time>2021-08-06T12:57:33Z</time>
      </trkpt>
      <trkpt lat="42.62163" lon="1.72907">
        <ele>2346.586</ele>
        <time>2021-08-06T12:57:35Z</time>
      </trkpt>
      <trkpt lat="42.62162" lon="1.72906">
        <ele>2343.369</ele>
        <time>2021-08-06T12:57:37Z</time>
      </trkpt>
      <trkpt lat="42.62162" lon="1.72905">
        <ele>2343.291</ele>
        <time>2021-08-06T12:57:39Z</time>
      </trkpt>
      <trkpt lat="42.62163" lon="1.72904">
        <ele>2344.141</ele>
        <time>2021-08-06T12:57:41Z</time>
      </trkpt>
      <trkpt lat="42.62164" lon="1.72904">
        <ele>2342.589</ele>
        <time>2021-08-06T12:57:43Z</time>
      </trkpt>
      <trkpt lat="42.62164" lon="1.72905">
        <ele>2341.424</ele>
        <time>2021-08-06T12:57:45Z</time>
      </trkpt>
      <trkpt lat="42.62164" lon="1.72903">
        <ele>2341.55</ele>
        <time>2021-08-06T12:57:47Z</time>
      </trkpt>
      <trkpt lat="42.62164" lon="1.72902">
        <ele>2341.958</ele>
        <time>2021-08-06T12:57:49Z</time>
      </trkpt>
      <trkpt lat="42.62165" lon="1.72901">
        <ele>2340.449</ele>
        <time>2021-08-06T12:57:51Z</time>
      </trkpt>
      <trkpt lat="42.62165" lon="1.729">
        <ele>2339.074</ele>
        <time>2021-08-06T12:57:53Z</time>
      </trkpt>
      <trkpt lat="42.62164" lon="1.72898">
        <ele>2338.35</ele>
        <time>2021-08-06T12:57:55Z</time>
      </trkpt>
      <trkpt lat="42.62164" lon="1.72896">
        <ele>2336.869</ele>
        <time>2021-08-06T12:57:57Z</time>
      </trkpt>
      <trkpt lat="42.62165" lon="1.72895">
        <ele>2336.541</ele>
        <time>2021-08-06T12:57:59Z</time>
      </trkpt>
      <trkpt lat="42.62166" lon="1.72893">
        <ele>2336.363</ele>
        <time>2021-08-06T12:58:01Z</time>
      </trkpt>
      <trkpt lat="42.62166" lon="1.72891">
        <ele>2336.519</ele>
        <time>2021-08-06T12:58:03Z</time>
      </trkpt>
      <trkpt lat="42.62167" lon="1.7289">
        <ele>2335.186</ele>
        <time>2021-08-06T12:58:05Z</time>
      </trkpt>
      <trkpt lat="42.62167" lon="1.72888">
        <ele>2335.792</ele>
        <time>2021-08-06T12:58:07Z</time>
      </trkpt>
      <trkpt lat="42.62168" lon="1.72886">
        <ele>2335.968</ele>
        <time>2021-08-06T12:58:09Z</time>
      </trkpt>
      <trkpt lat="42.6217" lon="1.72884">
        <ele>2335.815</ele>
        <time>2021-08-06T12:58:11Z</time>
      </trkpt>
      <trkpt lat="42.62171" lon="1.72884">
        <ele>2335.629</ele>
        <time>2021-08-06T12:58:13Z</time>
      </trkpt>
      <trkpt lat="42.62171" lon="1.72883">
        <ele>2334.166</ele>
        <time>2021-08-06T12:58:15Z</time>
      </trkpt>
      <trkpt lat="42.62172" lon="1.72882">
        <ele>2332.997</ele>
        <time>2021-08-06T12:58:17Z</time>
      </trkpt>
      <trkpt lat="42.62173" lon="1.72881">
        <ele>2333.066</ele>
        <time>2021-08-06T12:58:19Z</time>
      </trkpt>
      <trkpt lat="42.62172" lon="1.72879">
        <ele>2333.06</ele>
        <time>2021-08-06T12:58:21Z</time>
      </trkpt>
      <trkpt lat="42.62174" lon="1.72878">
        <ele>2333.468</ele>
        <time>2021-08-06T12:58:23Z</time>
      </trkpt>
      <trkpt lat="42.62175" lon="1.72878">
        <ele>2332.968</ele>
        <time>2021-08-06T12:58:25Z</time>
      </trkpt>
      <trkpt lat="42.62177" lon="1.72878">
        <ele>2332.416</ele>
        <time>2021-08-06T12:58:27Z</time>
      </trkpt>
      <trkpt lat="42.62177" lon="1.72878">
        <ele>2332.708</ele>
        <time>2021-08-06T12:58:29Z</time>
      </trkpt>
      <trkpt lat="42.62177" lon="1.72878">
        <ele>2332.722</ele>
        <time>2021-08-06T12:58:31Z</time>
      </trkpt>
      <trkpt lat="42.62177" lon="1.72878">
        <ele>2333.377</ele>
        <time>2021-08-06T12:58:33Z</time>
      </trkpt>
      <trkpt lat="42.62178" lon="1.72878">
        <ele>2333.664</ele>
        <time>2021-08-06T12:58:35Z</time>
      </trkpt>
      <trkpt lat="42.62179" lon="1.72877">
        <ele>2332.966</ele>
        <time>2021-08-06T12:58:37Z</time>
      </trkpt>
      <trkpt lat="42.62179" lon="1.72877">
        <ele>2333.156</ele>
        <time>2021-08-06T12:58:39Z</time>
      </trkpt>
      <trkpt lat="42.6218" lon="1.72877">
        <ele>2334.025</ele>
        <time>2021-08-06T12:58:41Z</time>
      </trkpt>
      <trkpt lat="42.6218" lon="1.72877">
        <ele>2333.986</ele>
        <time>2021-08-06T12:58:43Z</time>
      </trkpt>
      <trkpt lat="42.62181" lon="1.72874">
        <ele>2334.774</ele>
        <time>2021-08-06T12:58:45Z</time>
      </trkpt>
      <trkpt lat="42.62182" lon="1.72872">
        <ele>2336.289</ele>
        <time>2021-08-06T12:58:47Z</time>
      </trkpt>
      <trkpt lat="42.62182" lon="1.7287">
        <ele>2337.696</ele>
        <time>2021-08-06T12:58:49Z</time>
      </trkpt>
      <trkpt lat="42.62179" lon="1.72869">
        <ele>2339.02</ele>
        <time>2021-08-06T12:58:51Z</time>
      </trkpt>
      <trkpt lat="42.62179" lon="1.72868">
        <ele>2339.125</ele>
        <time>2021-08-06T12:58:53Z</time>
      </trkpt>
      <trkpt lat="42.62178" lon="1.72866">
        <ele>2339.807</ele>
        <time>2021-08-06T12:58:55Z</time>
      </trkpt>
      <trkpt lat="42.62178" lon="1.72864">
        <ele>2340.417</ele>
        <time>2021-08-06T12:58:57Z</time>
      </trkpt>
      <trkpt lat="42.62178" lon="1.72862">
        <ele>2341.392</ele>
        <time>2021-08-06T12:58:59Z</time>
      </trkpt>
      <trkpt lat="42.62177" lon="1.7286">
        <ele>2342.033</ele>
        <time>2021-08-06T12:59:01Z</time>
      </trkpt>
      <trkpt lat="42.62177" lon="1.7286">
        <ele>2341.653</ele>
        <time>2021-08-06T12:59:03Z</time>
      </trkpt>
      <trkpt lat="42.62177" lon="1.72859">
        <ele>2342.338</ele>
        <time>2021-08-06T12:59:05Z</time>
      </trkpt>
      <trkpt lat="42.62176" lon="1.72857">
        <ele>2342.588</ele>
        <time>2021-08-06T12:59:07Z</time>
      </trkpt>
      <trkpt lat="42.62175" lon="1.72854">
        <ele>2341.774</ele>
        <time>2021-08-06T12:59:09Z</time>
      </trkpt>
      <trkpt lat="42.62175" lon="1.72853">
        <ele>2340.989</ele>
        <time>2021-08-06T12:59:11Z</time>
      </trkpt>
      <trkpt lat="42.62174" lon="1.7285">
        <ele>2341.732</ele>
        <time>2021-08-06T12:59:13Z</time>
      </trkpt>
      <trkpt lat="42.62173" lon="1.72849">
        <ele>2340.902</ele>
        <time>2021-08-06T12:59:15Z</time>
      </trkpt>
      <trkpt lat="42.62173" lon="1.72848">
        <ele>2339.394</ele>
        <time>2021-08-06T12:59:17Z</time>
      </trkpt>
      <trkpt lat="42.62173" lon="1.72846">
        <ele>2337.982</ele>
        <time>2021-08-06T12:59:19Z</time>
      </trkpt>
      <trkpt lat="42.62173" lon="1.72845">
        <ele>2337.227</ele>
        <time>2021-08-06T12:59:21Z</time>
      </trkpt>
      <trkpt lat="42.62173" lon="1.72842">
        <ele>2337.057</ele>
        <time>2021-08-06T12:59:23Z</time>
      </trkpt>
      <trkpt lat="42.62173" lon="1.7284">
        <ele>2338.118</ele>
        <time>2021-08-06T12:59:25Z</time>
      </trkpt>
      <trkpt lat="42.62174" lon="1.72839">
        <ele>2337.08</ele>
        <time>2021-08-06T12:59:27Z</time>
      </trkpt>
      <trkpt lat="42.62175" lon="1.72837">
        <ele>2337.543</ele>
        <time>2021-08-06T12:59:29Z</time>
      </trkpt>
      <trkpt lat="42.62175" lon="1.72834">
        <ele>2336.553</ele>
        <time>2021-08-06T12:59:31Z</time>
      </trkpt>
      <trkpt lat="42.62177" lon="1.72832">
        <ele>2337.284</ele>
        <time>2021-08-06T12:59:33Z</time>
      </trkpt>
      <trkpt lat="42.62177" lon="1.7283">
        <ele>2337.484</ele>
        <time>2021-08-06T12:59:35Z</time>
      </trkpt>
      <trkpt lat="42.62178" lon="1.72828">
        <ele>2338.007</ele>
        <time>2021-08-06T12:59:37Z</time>
      </trkpt>
      <trkpt lat="42.62178" lon="1.72827">
        <ele>2337.346</ele>
        <time>2021-08-06T12:59:39Z</time>
      </trkpt>
      <trkpt lat="42.62179" lon="1.72826">
        <ele>2337.425</ele>
        <time>2021-08-06T12:59:41Z</time>
      </trkpt>
      <trkpt lat="42.62179" lon="1.72825">
        <ele>2338.059</ele>
        <time>2021-08-06T12:59:43Z</time>
      </trkpt>
      <trkpt lat="42.62179" lon="1.72825">
        <ele>2338.478</ele>
        <time>2021-08-06T12:59:45Z</time>
      </trkpt>
      <trkpt lat="42.62179" lon="1.72825">
        <ele>2338.468</ele>
        <time>2021-08-06T12:59:47Z</time>
      </trkpt>
      <trkpt lat="42.62179" lon="1.72825">
        <ele>2338.577</ele>
        <time>2021-08-06T12:59:49Z</time>
      </trkpt>
      <trkpt lat="42.6218" lon="1.72824">
        <ele>2339.276</ele>
        <time>2021-08-06T12:59:51Z</time>
      </trkpt>
      <trkpt lat="42.62181" lon="1.72823">
        <ele>2339.349</ele>
        <time>2021-08-06T12:59:53Z</time>
      </trkpt>
      <trkpt lat="42.62181" lon="1.7282">
        <ele>2340.184</ele>
        <time>2021-08-06T12:59:55Z</time>
      </trkpt>
      <trkpt lat="42.62181" lon="1.72817">
        <ele>2340.099</ele>
        <time>2021-08-06T12:59:57Z</time>
      </trkpt>
      <trkpt lat="42.62181" lon="1.72816">
        <ele>2340.333</ele>
        <time>2021-08-06T12:59:59Z</time>
      </trkpt>
      <trkpt lat="42.62181" lon="1.72816">
        <ele>2340.342</ele>
        <time>2021-08-06T13:00:01Z</time>
      </trkpt>
      <trkpt lat="42.62181" lon="1.72816">
        <ele>2340.357</ele>
        <time>2021-08-06T13:00:03Z</time>
      </trkpt>
      <trkpt lat="42.62181" lon="1.72816">
        <ele>2340.361</ele>
        <time>2021-08-06T13:00:05Z</time>
      </trkpt>
      <trkpt lat="42.62181" lon="1.72816">
        <ele>2340.369</ele>
        <time>2021-08-06T13:00:07Z</time>
      </trkpt>
      <trkpt lat="42.62181" lon="1.72816">
        <ele>2340.367</ele>
        <time>2021-08-06T13:00:09Z</time>
      </trkpt>
      <trkpt lat="42.62181" lon="1.72816">
        <ele>2340.561</ele>
        <time>2021-08-06T13:00:11Z</time>
      </trkpt>
      <trkpt lat="42.62181" lon="1.72817">
        <ele>2340.493</ele>
        <time>2021-08-06T13:00:13Z</time>
      </trkpt>
      <trkpt lat="42.62181" lon="1.72817">
        <ele>2340.499</ele>
        <time>2021-08-06T13:00:15Z</time>
      </trkpt>
      <trkpt lat="42.62181" lon="1.72817">
        <ele>2340.828</ele>
        <time>2021-08-06T13:00:17Z</time>
      </trkpt>
      <trkpt lat="42.62182" lon="1.72817">
        <ele>2341.105</ele>
        <time>2021-08-06T13:00:19Z</time>
      </trkpt>
      <trkpt lat="42.62182" lon="1.72816">
        <ele>2340.208</ele>
        <time>2021-08-06T13:00:21Z</time>
      </trkpt>
      <trkpt lat="42.62183" lon="1.72816">
        <ele>2339.884</ele>
        <time>2021-08-06T13:00:23Z</time>
      </trkpt>
      <trkpt lat="42.62184" lon="1.72815">
        <ele>2339.218</ele>
        <time>2021-08-06T13:00:25Z</time>
      </trkpt>
      <trkpt lat="42.62186" lon="1.72816">
        <ele>2340.865</ele>
        <time>2021-08-06T13:00:27Z</time>
      </trkpt>
      <trkpt lat="42.62187" lon="1.72815">
        <ele>2340.647</ele>
        <time>2021-08-06T13:00:29Z</time>
      </trkpt>
      <trkpt lat="42.62188" lon="1.72814">
        <ele>2340.029</ele>
        <time>2021-08-06T13:00:31Z</time>
      </trkpt>
      <trkpt lat="42.62189" lon="1.72812">
        <ele>2339.783</ele>
        <time>2021-08-06T13:00:33Z</time>
      </trkpt>
      <trkpt lat="42.62191" lon="1.72812">
        <ele>2340.229</ele>
        <time>2021-08-06T13:00:35Z</time>
      </trkpt>
      <trkpt lat="42.62192" lon="1.72812">
        <ele>2340.285</ele>
        <time>2021-08-06T13:00:37Z</time>
      </trkpt>
      <trkpt lat="42.62193" lon="1.7281">
        <ele>2340.88</ele>
        <time>2021-08-06T13:00:39Z</time>
      </trkpt>
      <trkpt lat="42.62194" lon="1.72809">
        <ele>2340.949</ele>
        <time>2021-08-06T13:00:41Z</time>
      </trkpt>
      <trkpt lat="42.62194" lon="1.72806">
        <ele>2341.121</ele>
        <time>2021-08-06T13:00:43Z</time>
      </trkpt>
      <trkpt lat="42.62194" lon="1.72805">
        <ele>2340.722</ele>
        <time>2021-08-06T13:00:45Z</time>
      </trkpt>
      <trkpt lat="42.62194" lon="1.72803">
        <ele>2340.28</ele>
        <time>2021-08-06T13:00:47Z</time>
      </trkpt>
      <trkpt lat="42.62192" lon="1.72801">
        <ele>2340.603</ele>
        <time>2021-08-06T13:00:49Z</time>
      </trkpt>
      <trkpt lat="42.62191" lon="1.72797">
        <ele>2341.497</ele>
        <time>2021-08-06T13:00:51Z</time>
      </trkpt>
      <trkpt lat="42.62191" lon="1.72795">
        <ele>2341.96</ele>
        <time>2021-08-06T13:00:53Z</time>
      </trkpt>
      <trkpt lat="42.6219" lon="1.72794">
        <ele>2341.752</ele>
        <time>2021-08-06T13:00:55Z</time>
      </trkpt>
      <trkpt lat="42.62189" lon="1.72793">
        <ele>2342.898</ele>
        <time>2021-08-06T13:00:57Z</time>
      </trkpt>
      <trkpt lat="42.62188" lon="1.72791">
        <ele>2343.18</ele>
        <time>2021-08-06T13:00:59Z</time>
      </trkpt>
      <trkpt lat="42.62186" lon="1.72789">
        <ele>2343.418</ele>
        <time>2021-08-06T13:01:01Z</time>
      </trkpt>
      <trkpt lat="42.62185" lon="1.72787">
        <ele>2342.595</ele>
        <time>2021-08-06T13:01:03Z</time>
      </trkpt>
      <trkpt lat="42.62185" lon="1.72785">
        <ele>2341.488</ele>
        <time>2021-08-06T13:01:05Z</time>
      </trkpt>
      <trkpt lat="42.62185" lon="1.72782">
        <ele>2342.908</ele>
        <time>2021-08-06T13:01:07Z</time>
      </trkpt>
      <trkpt lat="42.62184" lon="1.7278">
        <ele>2342.768</ele>
        <time>2021-08-06T13:01:09Z</time>
      </trkpt>
      <trkpt lat="42.62182" lon="1.72777">
        <ele>2342.207</ele>
        <time>2021-08-06T13:01:11Z</time>
      </trkpt>
      <trkpt lat="42.62181" lon="1.72774">
        <ele>2341.222</ele>
        <time>2021-08-06T13:01:13Z</time>
      </trkpt>
      <trkpt lat="42.62182" lon="1.7277">
        <ele>2341.891</ele>
        <time>2021-08-06T13:01:15Z</time>
      </trkpt>
      <trkpt lat="42.62184" lon="1.72769">
        <ele>2342.679</ele>
        <time>2021-08-06T13:01:17Z</time>
      </trkpt>
      <trkpt lat="42.62185" lon="1.72766">
        <ele>2341.839</ele>
        <time>2021-08-06T13:01:19Z</time>
      </trkpt>
      <trkpt lat="42.62184" lon="1.72763">
        <ele>2341.016</ele>
        <time>2021-08-06T13:01:21Z</time>
      </trkpt>
      <trkpt lat="42.62183" lon="1.7276">
        <ele>2339.192</ele>
        <time>2021-08-06T13:01:23Z</time>
      </trkpt>
      <trkpt lat="42.62181" lon="1.72759">
        <ele>2337.327</ele>
        <time>2021-08-06T13:01:25Z</time>
      </trkpt>
      <trkpt lat="42.62179" lon="1.72759">
        <ele>2336.542</ele>
        <time>2021-08-06T13:01:27Z</time>
      </trkpt>
      <trkpt lat="42.62178" lon="1.7276">
        <ele>2336.021</ele>
        <time>2021-08-06T13:01:29Z</time>
      </trkpt>
      <trkpt lat="42.62176" lon="1.72761">
        <ele>2335.904</ele>
        <time>2021-08-06T13:01:31Z</time>
      </trkpt>
      <trkpt lat="42.62175" lon="1.72761">
        <ele>2335.725</ele>
        <time>2021-08-06T13:01:33Z</time>
      </trkpt>
      <trkpt lat="42.62173" lon="1.72762">
        <ele>2335.645</ele>
        <time>2021-08-06T13:01:35Z</time>
      </trkpt>
      <trkpt lat="42.62172" lon="1.72762">
        <ele>2335.433</ele>
        <time>2021-08-06T13:01:37Z</time>
      </trkpt>
      <trkpt lat="42.6217" lon="1.72762">
        <ele>2334.615</ele>
        <time>2021-08-06T13:01:39Z</time>
      </trkpt>
      <trkpt lat="42.62168" lon="1.72762">
        <ele>2333.501</ele>
        <time>2021-08-06T13:01:41Z</time>
      </trkpt>
      <trkpt lat="42.62167" lon="1.72763">
        <ele>2333.325</ele>
        <time>2021-08-06T13:01:43Z</time>
      </trkpt>
      <trkpt lat="42.62164" lon="1.72763">
        <ele>2334.243</ele>
        <time>2021-08-06T13:01:45Z</time>
      </trkpt>
      <trkpt lat="42.62162" lon="1.72763">
        <ele>2334.408</ele>
        <time>2021-08-06T13:01:47Z</time>
      </trkpt>
      <trkpt lat="42.62161" lon="1.72763">
        <ele>2334.244</ele>
        <time>2021-08-06T13:01:49Z</time>
      </trkpt>
      <trkpt lat="42.62159" lon="1.72762">
        <ele>2333.929</ele>
        <time>2021-08-06T13:01:51Z</time>
      </trkpt>
      <trkpt lat="42.62157" lon="1.72761">
        <ele>2333.925</ele>
        <time>2021-08-06T13:01:53Z</time>
      </trkpt>
      <trkpt lat="42.62157" lon="1.7276">
        <ele>2333.265</ele>
        <time>2021-08-06T13:01:55Z</time>
      </trkpt>
      <trkpt lat="42.62156" lon="1.72758">
        <ele>2332.772</ele>
        <time>2021-08-06T13:01:57Z</time>
      </trkpt>
      <trkpt lat="42.62156" lon="1.72756">
        <ele>2332.134</ele>
        <time>2021-08-06T13:01:59Z</time>
      </trkpt>
      <trkpt lat="42.62155" lon="1.72754">
        <ele>2331.87</ele>
        <time>2021-08-06T13:02:01Z</time>
      </trkpt>
      <trkpt lat="42.62155" lon="1.72752">
        <ele>2331.803</ele>
        <time>2021-08-06T13:02:03Z</time>
      </trkpt>
      <trkpt lat="42.62154" lon="1.72749">
        <ele>2332.051</ele>
        <time>2021-08-06T13:02:05Z</time>
      </trkpt>
      <trkpt lat="42.62154" lon="1.72747">
        <ele>2332.091</ele>
        <time>2021-08-06T13:02:07Z</time>
      </trkpt>
      <trkpt lat="42.62153" lon="1.72745">
        <ele>2331.609</ele>
        <time>2021-08-06T13:02:09Z</time>
      </trkpt>
      <trkpt lat="42.62153" lon="1.72744">
        <ele>2331.707</ele>
        <time>2021-08-06T13:02:11Z</time>
      </trkpt>
      <trkpt lat="42.62153" lon="1.72741">
        <ele>2331.714</ele>
        <time>2021-08-06T13:02:13Z</time>
      </trkpt>
      <trkpt lat="42.62154" lon="1.72739">
        <ele>2331.116</ele>
        <time>2021-08-06T13:02:15Z</time>
      </trkpt>
      <trkpt lat="42.62153" lon="1.72736">
        <ele>2331.096</ele>
        <time>2021-08-06T13:02:17Z</time>
      </trkpt>
      <trkpt lat="42.62153" lon="1.72734">
        <ele>2331.311</ele>
        <time>2021-08-06T13:02:19Z</time>
      </trkpt>
      <trkpt lat="42.62152" lon="1.72732">
        <ele>2331.378</ele>
        <time>2021-08-06T13:02:21Z</time>
      </trkpt>
      <trkpt lat="42.62152" lon="1.72729">
        <ele>2331.455</ele>
        <time>2021-08-06T13:02:23Z</time>
      </trkpt>
      <trkpt lat="42.62152" lon="1.72727">
        <ele>2331.107</ele>
        <time>2021-08-06T13:02:25Z</time>
      </trkpt>
      <trkpt lat="42.62151" lon="1.72725">
        <ele>2331.232</ele>
        <time>2021-08-06T13:02:27Z</time>
      </trkpt>
      <trkpt lat="42.6215" lon="1.72722">
        <ele>2331.795</ele>
        <time>2021-08-06T13:02:29Z</time>
      </trkpt>
      <trkpt lat="42.62151" lon="1.7272">
        <ele>2331.089</ele>
        <time>2021-08-06T13:02:31Z</time>
      </trkpt>
      <trkpt lat="42.62151" lon="1.72718">
        <ele>2331.86</ele>
        <time>2021-08-06T13:02:33Z</time>
      </trkpt>
      <trkpt lat="42.62151" lon="1.72716">
        <ele>2332.444</ele>
        <time>2021-08-06T13:02:35Z</time>
      </trkpt>
      <trkpt lat="42.62151" lon="1.72714">
        <ele>2333.144</ele>
        <time>2021-08-06T13:02:37Z</time>
      </trkpt>
      <trkpt lat="42.62151" lon="1.72712">
        <ele>2333.787</ele>
        <time>2021-08-06T13:02:39Z</time>
      </trkpt>
      <trkpt lat="42.6215" lon="1.72711">
        <ele>2333.889</ele>
        <time>2021-08-06T13:02:41Z</time>
      </trkpt>
      <trkpt lat="42.62149" lon="1.7271">
        <ele>2334.814</ele>
        <time>2021-08-06T13:02:43Z</time>
      </trkpt>
      <trkpt lat="42.62149" lon="1.72708">
        <ele>2334.97</ele>
        <time>2021-08-06T13:02:45Z</time>
      </trkpt>
      <trkpt lat="42.62148" lon="1.72706">
        <ele>2335.264</ele>
        <time>2021-08-06T13:02:47Z</time>
      </trkpt>
      <trkpt lat="42.62147" lon="1.72705">
        <ele>2335.661</ele>
        <time>2021-08-06T13:02:49Z</time>
      </trkpt>
      <trkpt lat="42.62146" lon="1.72703">
        <ele>2335.774</ele>
        <time>2021-08-06T13:02:51Z</time>
      </trkpt>
      <trkpt lat="42.62145" lon="1.72702">
        <ele>2336.335</ele>
        <time>2021-08-06T13:02:53Z</time>
      </trkpt>
      <trkpt lat="42.62145" lon="1.72701">
        <ele>2337.109</ele>
        <time>2021-08-06T13:02:55Z</time>
      </trkpt>
      <trkpt lat="42.62144" lon="1.72699">
        <ele>2337.332</ele>
        <time>2021-08-06T13:02:57Z</time>
      </trkpt>
      <trkpt lat="42.62143" lon="1.72698">
        <ele>2338.578</ele>
        <time>2021-08-06T13:02:59Z</time>
      </trkpt>
      <trkpt lat="42.62142" lon="1.72698">
        <ele>2339.578</ele>
        <time>2021-08-06T13:03:01Z</time>
      </trkpt>
      <trkpt lat="42.62142" lon="1.72698">
        <ele>2339.649</ele>
        <time>2021-08-06T13:03:03Z</time>
      </trkpt>
      <trkpt lat="42.62142" lon="1.72698">
        <ele>2339.56</ele>
        <time>2021-08-06T13:03:05Z</time>
      </trkpt>
      <trkpt lat="42.6214" lon="1.72698">
        <ele>2339.693</ele>
        <time>2021-08-06T13:03:07Z</time>
      </trkpt>
      <trkpt lat="42.62139" lon="1.72699">
        <ele>2339.387</ele>
        <time>2021-08-06T13:03:09Z</time>
      </trkpt>
      <trkpt lat="42.62137" lon="1.72699">
        <ele>2338.707</ele>
        <time>2021-08-06T13:03:11Z</time>
      </trkpt>
      <trkpt lat="42.62136" lon="1.72698">
        <ele>2338.928</ele>
        <time>2021-08-06T13:03:13Z</time>
      </trkpt>
      <trkpt lat="42.62135" lon="1.72698">
        <ele>2339.392</ele>
        <time>2021-08-06T13:03:15Z</time>
      </trkpt>
      <trkpt lat="42.62134" lon="1.72697">
        <ele>2339.972</ele>
        <time>2021-08-06T13:03:17Z</time>
      </trkpt>
      <trkpt lat="42.62133" lon="1.72698">
        <ele>2340.423</ele>
        <time>2021-08-06T13:03:19Z</time>
      </trkpt>
      <trkpt lat="42.62131" lon="1.72697">
        <ele>2340.921</ele>
        <time>2021-08-06T13:03:21Z</time>
      </trkpt>
      <trkpt lat="42.6213" lon="1.72696">
        <ele>2341.484</ele>
        <time>2021-08-06T13:03:23Z</time>
      </trkpt>
      <trkpt lat="42.62129" lon="1.72695">
        <ele>2342.125</ele>
        <time>2021-08-06T13:03:25Z</time>
      </trkpt>
      <trkpt lat="42.62126" lon="1.72692">
        <ele>2341.218</ele>
        <time>2021-08-06T13:03:27Z</time>
      </trkpt>
      <trkpt lat="42.62124" lon="1.7269">
        <ele>2339.24</ele>
        <time>2021-08-06T13:03:29Z</time>
      </trkpt>
      <trkpt lat="42.62123" lon="1.72688">
        <ele>2339.768</ele>
        <time>2021-08-06T13:03:31Z</time>
      </trkpt>
      <trkpt lat="42.62123" lon="1.72686">
        <ele>2339.923</ele>
        <time>2021-08-06T13:03:33Z</time>
      </trkpt>
      <trkpt lat="42.62122" lon="1.72684">
        <ele>2340.381</ele>
        <time>2021-08-06T13:03:35Z</time>
      </trkpt>
      <trkpt lat="42.62122" lon="1.72682">
        <ele>2341.082</ele>
        <time>2021-08-06T13:03:37Z</time>
      </trkpt>
      <trkpt lat="42.62122" lon="1.7268">
        <ele>2341.516</ele>
        <time>2021-08-06T13:03:39Z</time>
      </trkpt>
      <trkpt lat="42.6212" lon="1.72679">
        <ele>2341.108</ele>
        <time>2021-08-06T13:03:41Z</time>
      </trkpt>
      <trkpt lat="42.62119" lon="1.72677">
        <ele>2341.168</ele>
        <time>2021-08-06T13:03:43Z</time>
      </trkpt>
      <trkpt lat="42.62119" lon="1.72675">
        <ele>2340.579</ele>
        <time>2021-08-06T13:03:45Z</time>
      </trkpt>
      <trkpt lat="42.62118" lon="1.72673">
        <ele>2340.628</ele>
        <time>2021-08-06T13:03:47Z</time>
      </trkpt>
      <trkpt lat="42.62117" lon="1.7267">
        <ele>2341.236</ele>
        <time>2021-08-06T13:03:49Z</time>
      </trkpt>
      <trkpt lat="42.62116" lon="1.72668">
        <ele>2342.206</ele>
        <time>2021-08-06T13:03:51Z</time>
      </trkpt>
      <trkpt lat="42.62115" lon="1.72666">
        <ele>2342.478</ele>
        <time>2021-08-06T13:03:53Z</time>
      </trkpt>
      <trkpt lat="42.62114" lon="1.72663">
        <ele>2343.196</ele>
        <time>2021-08-06T13:03:55Z</time>
      </trkpt>
      <trkpt lat="42.62113" lon="1.72661">
        <ele>2342.675</ele>
        <time>2021-08-06T13:03:57Z</time>
      </trkpt>
      <trkpt lat="42.62111" lon="1.72659">
        <ele>2341.895</ele>
        <time>2021-08-06T13:03:59Z</time>
      </trkpt>
      <trkpt lat="42.6211" lon="1.72656">
        <ele>2341.116</ele>
        <time>2021-08-06T13:04:01Z</time>
      </trkpt>
      <trkpt lat="42.6211" lon="1.72654">
        <ele>2340.158</ele>
        <time>2021-08-06T13:04:03Z</time>
      </trkpt>
      <trkpt lat="42.62109" lon="1.72652">
        <ele>2338.843</ele>
        <time>2021-08-06T13:04:05Z</time>
      </trkpt>
      <trkpt lat="42.62109" lon="1.72649">
        <ele>2337.845</ele>
        <time>2021-08-06T13:04:07Z</time>
      </trkpt>
      <trkpt lat="42.62108" lon="1.72647">
        <ele>2336.843</ele>
        <time>2021-08-06T13:04:09Z</time>
      </trkpt>
      <trkpt lat="42.62109" lon="1.72644">
        <ele>2336.19</ele>
        <time>2021-08-06T13:04:11Z</time>
      </trkpt>
      <trkpt lat="42.62109" lon="1.72642">
        <ele>2336.562</ele>
        <time>2021-08-06T13:04:13Z</time>
      </trkpt>
      <trkpt lat="42.62109" lon="1.72639">
        <ele>2336.306</ele>
        <time>2021-08-06T13:04:15Z</time>
      </trkpt>
      <trkpt lat="42.62108" lon="1.72636">
        <ele>2336.156</ele>
        <time>2021-08-06T13:04:17Z</time>
      </trkpt>
      <trkpt lat="42.6211" lon="1.72633">
        <ele>2336.164</ele>
        <time>2021-08-06T13:04:19Z</time>
      </trkpt>
      <trkpt lat="42.62111" lon="1.72631">
        <ele>2336.538</ele>
        <time>2021-08-06T13:04:21Z</time>
      </trkpt>
      <trkpt lat="42.62111" lon="1.72629">
        <ele>2336.095</ele>
        <time>2021-08-06T13:04:23Z</time>
      </trkpt>
      <trkpt lat="42.62112" lon="1.72627">
        <ele>2335.689</ele>
        <time>2021-08-06T13:04:25Z</time>
      </trkpt>
      <trkpt lat="42.62112" lon="1.72624">
        <ele>2334.657</ele>
        <time>2021-08-06T13:04:27Z</time>
      </trkpt>
      <trkpt lat="42.62112" lon="1.72623">
        <ele>2334.645</ele>
        <time>2021-08-06T13:04:29Z</time>
      </trkpt>
      <trkpt lat="42.62112" lon="1.7262">
        <ele>2333.71</ele>
        <time>2021-08-06T13:04:31Z</time>
      </trkpt>
      <trkpt lat="42.62112" lon="1.72618">
        <ele>2333.597</ele>
        <time>2021-08-06T13:04:33Z</time>
      </trkpt>
      <trkpt lat="42.62112" lon="1.72615">
        <ele>2333.637</ele>
        <time>2021-08-06T13:04:35Z</time>
      </trkpt>
      <trkpt lat="42.62113" lon="1.72612">
        <ele>2333.259</ele>
        <time>2021-08-06T13:04:37Z</time>
      </trkpt>
      <trkpt lat="42.62115" lon="1.72611">
        <ele>2335.057</ele>
        <time>2021-08-06T13:04:39Z</time>
      </trkpt>
      <trkpt lat="42.62117" lon="1.72609">
        <ele>2335.916</ele>
        <time>2021-08-06T13:04:41Z</time>
      </trkpt>
      <trkpt lat="42.62119" lon="1.72607">
        <ele>2337.164</ele>
        <time>2021-08-06T13:04:43Z</time>
      </trkpt>
      <trkpt lat="42.6212" lon="1.72606">
        <ele>2338.276</ele>
        <time>2021-08-06T13:04:45Z</time>
      </trkpt>
      <trkpt lat="42.62122" lon="1.72604">
        <ele>2337.905</ele>
        <time>2021-08-06T13:04:47Z</time>
      </trkpt>
      <trkpt lat="42.62123" lon="1.72604">
        <ele>2337.922</ele>
        <time>2021-08-06T13:04:49Z</time>
      </trkpt>
      <trkpt lat="42.62124" lon="1.72604">
        <ele>2336.665</ele>
        <time>2021-08-06T13:04:51Z</time>
      </trkpt>
      <trkpt lat="42.62125" lon="1.72604">
        <ele>2336.314</ele>
        <time>2021-08-06T13:04:53Z</time>
      </trkpt>
      <trkpt lat="42.62125" lon="1.72605">
        <ele>2336.753</ele>
        <time>2021-08-06T13:04:55Z</time>
      </trkpt>
      <trkpt lat="42.62126" lon="1.72605">
        <ele>2336.752</ele>
        <time>2021-08-06T13:04:57Z</time>
      </trkpt>
      <trkpt lat="42.62126" lon="1.72605">
        <ele>2336.753</ele>
        <time>2021-08-06T13:04:59Z</time>
      </trkpt>
      <trkpt lat="42.62126" lon="1.72604">
        <ele>2336.759</ele>
        <time>2021-08-06T13:05:01Z</time>
      </trkpt>
      <trkpt lat="42.62126" lon="1.72604">
        <ele>2336.76</ele>
        <time>2021-08-06T13:05:03Z</time>
      </trkpt>
      <trkpt lat="42.62126" lon="1.72604">
        <ele>2336.746</ele>
        <time>2021-08-06T13:05:05Z</time>
      </trkpt>
      <trkpt lat="42.62126" lon="1.72604">
        <ele>2336.728</ele>
        <time>2021-08-06T13:05:07Z</time>
      </trkpt>
      <trkpt lat="42.62126" lon="1.72604">
        <ele>2336.727</ele>
        <time>2021-08-06T13:05:09Z</time>
      </trkpt>
      <trkpt lat="42.62126" lon="1.72604">
        <ele>2336.723</ele>
        <time>2021-08-06T13:05:11Z</time>
      </trkpt>
      <trkpt lat="42.62126" lon="1.72604">
        <ele>2336.711</ele>
        <time>2021-08-06T13:05:13Z</time>
      </trkpt>
      <trkpt lat="42.62126" lon="1.72604">
        <ele>2336.713</ele>
        <time>2021-08-06T13:05:15Z</time>
      </trkpt>
      <trkpt lat="42.62126" lon="1.72604">
        <ele>2336.712</ele>
        <time>2021-08-06T13:05:17Z</time>
      </trkpt>
      <trkpt lat="42.62126" lon="1.72604">
        <ele>2336.706</ele>
        <time>2021-08-06T13:05:19Z</time>
      </trkpt>
      <trkpt lat="42.62126" lon="1.72604">
        <ele>2336.703</ele>
        <time>2021-08-06T13:05:21Z</time>
      </trkpt>
      <trkpt lat="42.62126" lon="1.72604">
        <ele>2336.705</ele>
        <time>2021-08-06T13:05:23Z</time>
      </trkpt>
      <trkpt lat="42.62126" lon="1.72604">
        <ele>2336.876</ele>
        <time>2021-08-06T13:05:25Z</time>
      </trkpt>
      <trkpt lat="42.62126" lon="1.72604">
        <ele>2336.568</ele>
        <time>2021-08-06T13:05:27Z</time>
      </trkpt>
      <trkpt lat="42.62127" lon="1.72604">
        <ele>2336.278</ele>
        <time>2021-08-06T13:05:29Z</time>
      </trkpt>
      <trkpt lat="42.62128" lon="1.72604">
        <ele>2335.46</ele>
        <time>2021-08-06T13:05:31Z</time>
      </trkpt>
      <trkpt lat="42.62129" lon="1.72604">
        <ele>2335.578</ele>
        <time>2021-08-06T13:05:33Z</time>
      </trkpt>
      <trkpt lat="42.6213" lon="1.72603">
        <ele>2334.994</ele>
        <time>2021-08-06T13:05:35Z</time>
      </trkpt>
      <trkpt lat="42.6213" lon="1.72601">
        <ele>2334.411</ele>
        <time>2021-08-06T13:05:37Z</time>
      </trkpt>
      <trkpt lat="42.62131" lon="1.72601">
        <ele>2334.397</ele>
        <time>2021-08-06T13:05:39Z</time>
      </trkpt>
      <trkpt lat="42.62132" lon="1.72602">
        <ele>2334.281</ele>
        <time>2021-08-06T13:05:41Z</time>
      </trkpt>
      <trkpt lat="42.62133" lon="1.72601">
        <ele>2334.476</ele>
        <time>2021-08-06T13:05:43Z</time>
      </trkpt>
      <trkpt lat="42.62134" lon="1.726">
        <ele>2334.504</ele>
        <time>2021-08-06T13:05:45Z</time>
      </trkpt>
      <trkpt lat="42.62135" lon="1.726">
        <ele>2333.822</ele>
        <time>2021-08-06T13:05:47Z</time>
      </trkpt>
      <trkpt lat="42.62136" lon="1.72598">
        <ele>2333.166</ele>
        <time>2021-08-06T13:05:49Z</time>
      </trkpt>
      <trkpt lat="42.62137" lon="1.72597">
        <ele>2332.608</ele>
        <time>2021-08-06T13:05:51Z</time>
      </trkpt>
      <trkpt lat="42.62138" lon="1.72596">
        <ele>2332.278</ele>
        <time>2021-08-06T13:05:53Z</time>
      </trkpt>
      <trkpt lat="42.62139" lon="1.72596">
        <ele>2331.203</ele>
        <time>2021-08-06T13:05:55Z</time>
      </trkpt>
      <trkpt lat="42.6214" lon="1.72596">
        <ele>2330.573</ele>
        <time>2021-08-06T13:05:57Z</time>
      </trkpt>
      <trkpt lat="42.62141" lon="1.72594">
        <ele>2330.156</ele>
        <time>2021-08-06T13:05:59Z</time>
      </trkpt>
      <trkpt lat="42.62142" lon="1.72593">
        <ele>2329.1</ele>
        <time>2021-08-06T13:06:01Z</time>
      </trkpt>
      <trkpt lat="42.62143" lon="1.72592">
        <ele>2328.667</ele>
        <time>2021-08-06T13:06:03Z</time>
      </trkpt>
      <trkpt lat="42.62144" lon="1.72592">
        <ele>2329.322</ele>
        <time>2021-08-06T13:06:05Z</time>
      </trkpt>
      <trkpt lat="42.62145" lon="1.72591">
        <ele>2329.01</ele>
        <time>2021-08-06T13:06:07Z</time>
      </trkpt>
      <trkpt lat="42.62146" lon="1.7259">
        <ele>2328.477</ele>
        <time>2021-08-06T13:06:09Z</time>
      </trkpt>
      <trkpt lat="42.62148" lon="1.72589">
        <ele>2328.965</ele>
        <time>2021-08-06T13:06:11Z</time>
      </trkpt>
      <trkpt lat="42.62149" lon="1.72587">
        <ele>2329.203</ele>
        <time>2021-08-06T13:06:13Z</time>
      </trkpt>
      <trkpt lat="42.62149" lon="1.72587">
        <ele>2328.201</ele>
        <time>2021-08-06T13:06:15Z</time>
      </trkpt>
      <trkpt lat="42.6215" lon="1.72585">
        <ele>2327.665</ele>
        <time>2021-08-06T13:06:17Z</time>
      </trkpt>
      <trkpt lat="42.62151" lon="1.72585">
        <ele>2327.646</ele>
        <time>2021-08-06T13:06:19Z</time>
      </trkpt>
      <trkpt lat="42.62152" lon="1.72584">
        <ele>2327.572</ele>
        <time>2021-08-06T13:06:21Z</time>
      </trkpt>
      <trkpt lat="42.62153" lon="1.72583">
        <ele>2327.258</ele>
        <time>2021-08-06T13:06:23Z</time>
      </trkpt>
      <trkpt lat="42.62154" lon="1.72583">
        <ele>2327.465</ele>
        <time>2021-08-06T13:06:25Z</time>
      </trkpt>
      <trkpt lat="42.62156" lon="1.72582">
        <ele>2326.244</ele>
        <time>2021-08-06T13:06:27Z</time>
      </trkpt>
      <trkpt lat="42.62156" lon="1.72582">
        <ele>2326.18</ele>
        <time>2021-08-06T13:06:29Z</time>
      </trkpt>
      <trkpt lat="42.62157" lon="1.72582">
        <ele>2326.554</ele>
        <time>2021-08-06T13:06:31Z</time>
      </trkpt>
      <trkpt lat="42.62158" lon="1.72582">
        <ele>2326.556</ele>
        <time>2021-08-06T13:06:33Z</time>
      </trkpt>
      <trkpt lat="42.6216" lon="1.72581">
        <ele>2326.378</ele>
        <time>2021-08-06T13:06:35Z</time>
      </trkpt>
      <trkpt lat="42.62162" lon="1.72581">
        <ele>2327.942</ele>
        <time>2021-08-06T13:06:37Z</time>
      </trkpt>
      <trkpt lat="42.62165" lon="1.72582">
        <ele>2329.521</ele>
        <time>2021-08-06T13:06:39Z</time>
      </trkpt>
      <trkpt lat="42.62166" lon="1.72583">
        <ele>2331.414</ele>
        <time>2021-08-06T13:06:41Z</time>
      </trkpt>
      <trkpt lat="42.62169" lon="1.72584">
        <ele>2333.391</ele>
        <time>2021-08-06T13:06:43Z</time>
      </trkpt>
      <trkpt lat="42.62171" lon="1.72583">
        <ele>2333.585</ele>
        <time>2021-08-06T13:06:45Z</time>
      </trkpt>
      <trkpt lat="42.62173" lon="1.72582">
        <ele>2334.397</ele>
        <time>2021-08-06T13:06:47Z</time>
      </trkpt>
      <trkpt lat="42.62174" lon="1.7258">
        <ele>2334.957</ele>
        <time>2021-08-06T13:06:49Z</time>
      </trkpt>
      <trkpt lat="42.62177" lon="1.72579">
        <ele>2335.422</ele>
        <time>2021-08-06T13:06:51Z</time>
      </trkpt>
      <trkpt lat="42.62179" lon="1.72579">
        <ele>2336.559</ele>
        <time>2021-08-06T13:06:53Z</time>
      </trkpt>
      <trkpt lat="42.6218" lon="1.72579">
        <ele>2335.87</ele>
        <time>2021-08-06T13:06:55Z</time>
      </trkpt>
      <trkpt lat="42.6218" lon="1.72579">
        <ele>2334.986</ele>
        <time>2021-08-06T13:06:57Z</time>
      </trkpt>
      <trkpt lat="42.6218" lon="1.72579">
        <ele>2334.245</ele>
        <time>2021-08-06T13:06:59Z</time>
      </trkpt>
      <trkpt lat="42.6218" lon="1.72579">
        <ele>2333.119</ele>
        <time>2021-08-06T13:07:01Z</time>
      </trkpt>
      <trkpt lat="42.62183" lon="1.72577">
        <ele>2333.734</ele>
        <time>2021-08-06T13:07:03Z</time>
      </trkpt>
      <trkpt lat="42.62185" lon="1.72575">
        <ele>2333.612</ele>
        <time>2021-08-06T13:07:05Z</time>
      </trkpt>
      <trkpt lat="42.62186" lon="1.72572">
        <ele>2334.237</ele>
        <time>2021-08-06T13:07:07Z</time>
      </trkpt>
      <trkpt lat="42.62185" lon="1.7257">
        <ele>2333.23</ele>
        <time>2021-08-06T13:07:09Z</time>
      </trkpt>
      <trkpt lat="42.62185" lon="1.72569">
        <ele>2332.221</ele>
        <time>2021-08-06T13:07:11Z</time>
      </trkpt>
      <trkpt lat="42.62186" lon="1.72569">
        <ele>2333.434</ele>
        <time>2021-08-06T13:07:13Z</time>
      </trkpt>
      <trkpt lat="42.62186" lon="1.72569">
        <ele>2333.253</ele>
        <time>2021-08-06T13:07:15Z</time>
      </trkpt>
      <trkpt lat="42.62187" lon="1.72568">
        <ele>2333.267</ele>
        <time>2021-08-06T13:07:17Z</time>
      </trkpt>
      <trkpt lat="42.62188" lon="1.72567">
        <ele>2331.885</ele>
        <time>2021-08-06T13:07:19Z</time>
      </trkpt>
      <trkpt lat="42.62189" lon="1.72567">
        <ele>2331.39</ele>
        <time>2021-08-06T13:07:21Z</time>
      </trkpt>
      <trkpt lat="42.6219" lon="1.72565">
        <ele>2330.801</ele>
        <time>2021-08-06T13:07:23Z</time>
      </trkpt>
      <trkpt lat="42.62189" lon="1.72566">
        <ele>2328.77</ele>
        <time>2021-08-06T13:07:25Z</time>
      </trkpt>
      <trkpt lat="42.62189" lon="1.72565">
        <ele>2328.12</ele>
        <time>2021-08-06T13:07:27Z</time>
      </trkpt>
      <trkpt lat="42.6219" lon="1.72564">
        <ele>2327.572</ele>
        <time>2021-08-06T13:07:29Z</time>
      </trkpt>
      <trkpt lat="42.62191" lon="1.72564">
        <ele>2326.859</ele>
        <time>2021-08-06T13:07:31Z</time>
      </trkpt>
      <trkpt lat="42.6219" lon="1.72564">
        <ele>2326.496</ele>
        <time>2021-08-06T13:07:33Z</time>
      </trkpt>
      <trkpt lat="42.62191" lon="1.72565">
        <ele>2325.724</ele>
        <time>2021-08-06T13:07:35Z</time>
      </trkpt>
      <trkpt lat="42.62191" lon="1.72565">
        <ele>2325.067</ele>
        <time>2021-08-06T13:07:37Z</time>
      </trkpt>
      <trkpt lat="42.62191" lon="1.72565">
        <ele>2325.034</ele>
        <time>2021-08-06T13:07:39Z</time>
      </trkpt>
      <trkpt lat="42.62191" lon="1.72565">
        <ele>2324.992</ele>
        <time>2021-08-06T13:07:41Z</time>
      </trkpt>
      <trkpt lat="42.62191" lon="1.72565">
        <ele>2324.736</ele>
        <time>2021-08-06T13:07:43Z</time>
      </trkpt>
      <trkpt lat="42.62192" lon="1.72565">
        <ele>2324.703</ele>
        <time>2021-08-06T13:07:45Z</time>
      </trkpt>
      <trkpt lat="42.62193" lon="1.72564">
        <ele>2324.81</ele>
        <time>2021-08-06T13:07:47Z</time>
      </trkpt>
      <trkpt lat="42.62194" lon="1.72564">
        <ele>2324.811</ele>
        <time>2021-08-06T13:07:49Z</time>
      </trkpt>
      <trkpt lat="42.62196" lon="1.72564">
        <ele>2323.943</ele>
        <time>2021-08-06T13:07:51Z</time>
      </trkpt>
      <trkpt lat="42.62196" lon="1.72565">
        <ele>2323.331</ele>
        <time>2021-08-06T13:07:53Z</time>
      </trkpt>
      <trkpt lat="42.62197" lon="1.72564">
        <ele>2321.503</ele>
        <time>2021-08-06T13:07:55Z</time>
      </trkpt>
      <trkpt lat="42.62198" lon="1.72563">
        <ele>2321.648</ele>
        <time>2021-08-06T13:07:57Z</time>
      </trkpt>
      <trkpt lat="42.62198" lon="1.72564">
        <ele>2318.595</ele>
        <time>2021-08-06T13:07:59Z</time>
      </trkpt>
      <trkpt lat="42.62197" lon="1.72562">
        <ele>2316.449</ele>
        <time>2021-08-06T13:08:01Z</time>
      </trkpt>
      <trkpt lat="42.62198" lon="1.72561">
        <ele>2315.281</ele>
        <time>2021-08-06T13:08:03Z</time>
      </trkpt>
      <trkpt lat="42.62198" lon="1.72562">
        <ele>2314.54</ele>
        <time>2021-08-06T13:08:05Z</time>
      </trkpt>
      <trkpt lat="42.62198" lon="1.72562">
        <ele>2313.856</ele>
        <time>2021-08-06T13:08:07Z</time>
      </trkpt>
      <trkpt lat="42.62199" lon="1.72562">
        <ele>2313.414</ele>
        <time>2021-08-06T13:08:09Z</time>
      </trkpt>
      <trkpt lat="42.62199" lon="1.72562">
        <ele>2313.385</ele>
        <time>2021-08-06T13:08:11Z</time>
      </trkpt>
      <trkpt lat="42.62199" lon="1.72562">
        <ele>2313.374</ele>
        <time>2021-08-06T13:08:13Z</time>
      </trkpt>
      <trkpt lat="42.62199" lon="1.72562">
        <ele>2313.356</ele>
        <time>2021-08-06T13:08:15Z</time>
      </trkpt>
      <trkpt lat="42.62199" lon="1.72562">
        <ele>2313.314</ele>
        <time>2021-08-06T13:08:17Z</time>
      </trkpt>
      <trkpt lat="42.62199" lon="1.72562">
        <ele>2313.304</ele>
        <time>2021-08-06T13:08:19Z</time>
      </trkpt>
      <trkpt lat="42.62199" lon="1.72562">
        <ele>2313.296</ele>
        <time>2021-08-06T13:08:21Z</time>
      </trkpt>
      <trkpt lat="42.62199" lon="1.72562">
        <ele>2313.287</ele>
        <time>2021-08-06T13:08:23Z</time>
      </trkpt>
      <trkpt lat="42.62199" lon="1.72562">
        <ele>2313.272</ele>
        <time>2021-08-06T13:08:25Z</time>
      </trkpt>
      <trkpt lat="42.62199" lon="1.72562">
        <ele>2313.26</ele>
        <time>2021-08-06T13:08:27Z</time>
      </trkpt>
      <trkpt lat="42.62199" lon="1.72562">
        <ele>2313.247</ele>
        <time>2021-08-06T13:08:29Z</time>
      </trkpt>
      <trkpt lat="42.62199" lon="1.72562">
        <ele>2313.232</ele>
        <time>2021-08-06T13:08:31Z</time>
      </trkpt>
      <trkpt lat="42.62199" lon="1.72562">
        <ele>2313.226</ele>
        <time>2021-08-06T13:08:33Z</time>
      </trkpt>
      <trkpt lat="42.62199" lon="1.72562">
        <ele>2313.219</ele>
        <time>2021-08-06T13:08:35Z</time>
      </trkpt>
      <trkpt lat="42.62199" lon="1.72562">
        <ele>2312.982</ele>
        <time>2021-08-06T13:08:37Z</time>
      </trkpt>
      <trkpt lat="42.62199" lon="1.72562">
        <ele>2312.951</ele>
        <time>2021-08-06T13:08:39Z</time>
      </trkpt>
      <trkpt lat="42.62199" lon="1.72562">
        <ele>2312.941</ele>
        <time>2021-08-06T13:08:41Z</time>
      </trkpt>
      <trkpt lat="42.62198" lon="1.72562">
        <ele>2312.923</ele>
        <time>2021-08-06T13:08:43Z</time>
      </trkpt>
      <trkpt lat="42.62199" lon="1.72562">
        <ele>2312.907</ele>
        <time>2021-08-06T13:08:45Z</time>
      </trkpt>
      <trkpt lat="42.62199" lon="1.72562">
        <ele>2312.893</ele>
        <time>2021-08-06T13:08:47Z</time>
      </trkpt>
      <trkpt lat="42.62199" lon="1.72563">
        <ele>2312.865</ele>
        <time>2021-08-06T13:08:49Z</time>
      </trkpt>
      <trkpt lat="42.62199" lon="1.72563">
        <ele>2312.843</ele>
        <time>2021-08-06T13:08:51Z</time>
      </trkpt>
      <trkpt lat="42.62199" lon="1.72563">
        <ele>2312.816</ele>
        <time>2021-08-06T13:08:53Z</time>
      </trkpt>
      <trkpt lat="42.62199" lon="1.72563">
        <ele>2312.795</ele>
        <time>2021-08-06T13:08:55Z</time>
      </trkpt>
      <trkpt lat="42.62199" lon="1.72563">
        <ele>2312.779</ele>
        <time>2021-08-06T13:08:57Z</time>
      </trkpt>
      <trkpt lat="42.62199" lon="1.72563">
        <ele>2312.792</ele>
        <time>2021-08-06T13:08:59Z</time>
      </trkpt>
      <trkpt lat="42.62199" lon="1.72563">
        <ele>2312.786</ele>
        <time>2021-08-06T13:09:01Z</time>
      </trkpt>
      <trkpt lat="42.62198" lon="1.72562">
        <ele>2312.456</ele>
        <time>2021-08-06T13:09:03Z</time>
      </trkpt>
      <trkpt lat="42.62198" lon="1.72562">
        <ele>2312.459</ele>
        <time>2021-08-06T13:09:05Z</time>
      </trkpt>
      <trkpt lat="42.62198" lon="1.72562">
        <ele>2312.459</ele>
        <time>2021-08-06T13:09:07Z</time>
      </trkpt>
      <trkpt lat="42.62198" lon="1.72562">
        <ele>2312.456</ele>
        <time>2021-08-06T13:09:09Z</time>
      </trkpt>
      <trkpt lat="42.62198" lon="1.72562">
        <ele>2312.447</ele>
        <time>2021-08-06T13:09:11Z</time>
      </trkpt>
      <trkpt lat="42.62198" lon="1.72562">
        <ele>2312.442</ele>
        <time>2021-08-06T13:09:13Z</time>
      </trkpt>
      <trkpt lat="42.62198" lon="1.72562">
        <ele>2312.441</ele>
        <time>2021-08-06T13:09:15Z</time>
      </trkpt>
      <trkpt lat="42.62198" lon="1.72562">
        <ele>2312.436</ele>
        <time>2021-08-06T13:09:17Z</time>
      </trkpt>
      <trkpt lat="42.62198" lon="1.72562">
        <ele>2312.436</ele>
        <time>2021-08-06T13:09:19Z</time>
      </trkpt>
      <trkpt lat="42.62198" lon="1.72562">
        <ele>2312.435</ele>
        <time>2021-08-06T13:09:21Z</time>
      </trkpt>
      <trkpt lat="42.62198" lon="1.72562">
        <ele>2312.433</ele>
        <time>2021-08-06T13:09:23Z</time>
      </trkpt>
      <trkpt lat="42.62198" lon="1.72562">
        <ele>2312.431</ele>
        <time>2021-08-06T13:09:25Z</time>
      </trkpt>
      <trkpt lat="42.62198" lon="1.72562">
        <ele>2312.43</ele>
        <time>2021-08-06T13:09:27Z</time>
      </trkpt>
      <trkpt lat="42.62198" lon="1.72562">
        <ele>2312.43</ele>
        <time>2021-08-06T13:09:29Z</time>
      </trkpt>
      <trkpt lat="42.62198" lon="1.72562">
        <ele>2312.43</ele>
        <time>2021-08-06T13:09:31Z</time>
      </trkpt>
      <trkpt lat="42.62198" lon="1.72562">
        <ele>2312.429</ele>
        <time>2021-08-06T13:09:33Z</time>
      </trkpt>
      <trkpt lat="42.62198" lon="1.72562">
        <ele>2312.43</ele>
        <time>2021-08-06T13:09:35Z</time>
      </trkpt>
      <trkpt lat="42.62198" lon="1.72562">
        <ele>2312.43</ele>
        <time>2021-08-06T13:09:37Z</time>
      </trkpt>
      <trkpt lat="42.62198" lon="1.72562">
        <ele>2312.426</ele>
        <time>2021-08-06T13:09:39Z</time>
      </trkpt>
      <trkpt lat="42.62198" lon="1.72562">
        <ele>2312.425</ele>
        <time>2021-08-06T13:09:41Z</time>
      </trkpt>
      <trkpt lat="42.62198" lon="1.72562">
        <ele>2312.421</ele>
        <time>2021-08-06T13:09:43Z</time>
      </trkpt>
      <trkpt lat="42.62197" lon="1.72561">
        <ele>2311.566</ele>
        <time>2021-08-06T13:09:45Z</time>
      </trkpt>
      <trkpt lat="42.62197" lon="1.72561">
        <ele>2311.58</ele>
        <time>2021-08-06T13:09:47Z</time>
      </trkpt>
      <trkpt lat="42.62197" lon="1.72561">
        <ele>2311.583</ele>
        <time>2021-08-06T13:09:49Z</time>
      </trkpt>
      <trkpt lat="42.62197" lon="1.72561">
        <ele>2311.582</ele>
        <time>2021-08-06T13:09:51Z</time>
      </trkpt>
      <trkpt lat="42.62197" lon="1.72561">
        <ele>2311.583</ele>
        <time>2021-08-06T13:09:53Z</time>
      </trkpt>
      <trkpt lat="42.62197" lon="1.72561">
        <ele>2311.581</ele>
        <time>2021-08-06T13:09:55Z</time>
      </trkpt>
      <trkpt lat="42.62197" lon="1.72561">
        <ele>2311.58</ele>
        <time>2021-08-06T13:09:57Z</time>
      </trkpt>
      <trkpt lat="42.62197" lon="1.72561">
        <ele>2311.58</ele>
        <time>2021-08-06T13:09:59Z</time>
      </trkpt>
      <trkpt lat="42.62197" lon="1.72561">
        <ele>2311.592</ele>
        <time>2021-08-06T13:10:01Z</time>
      </trkpt>
      <trkpt lat="42.62197" lon="1.72561">
        <ele>2311.597</ele>
        <time>2021-08-06T13:10:03Z</time>
      </trkpt>
      <trkpt lat="42.62197" lon="1.72561">
        <ele>2311.599</ele>
        <time>2021-08-06T13:10:05Z</time>
      </trkpt>
      <trkpt lat="42.62197" lon="1.72561">
        <ele>2311.602</ele>
        <time>2021-08-06T13:10:07Z</time>
      </trkpt>
      <trkpt lat="42.62197" lon="1.72561">
        <ele>2311.601</ele>
        <time>2021-08-06T13:10:09Z</time>
      </trkpt>
      <trkpt lat="42.62197" lon="1.72561">
        <ele>2311.6</ele>
        <time>2021-08-06T13:10:11Z</time>
      </trkpt>
      <trkpt lat="42.62197" lon="1.72561">
        <ele>2311.6</ele>
        <time>2021-08-06T13:10:13Z</time>
      </trkpt>
      <trkpt lat="42.62197" lon="1.72561">
        <ele>2311.599</ele>
        <time>2021-08-06T13:10:15Z</time>
      </trkpt>
      <trkpt lat="42.62197" lon="1.72561">
        <ele>2311.6</ele>
        <time>2021-08-06T13:10:17Z</time>
      </trkpt>
      <trkpt lat="42.62197" lon="1.72562">
        <ele>2313.531</ele>
        <time>2021-08-06T13:10:19Z</time>
      </trkpt>
      <trkpt lat="42.62197" lon="1.72562">
        <ele>2314.082</ele>
        <time>2021-08-06T13:10:21Z</time>
      </trkpt>
      <trkpt lat="42.62197" lon="1.72562">
        <ele>2314.022</ele>
        <time>2021-08-06T13:10:23Z</time>
      </trkpt>
      <trkpt lat="42.62197" lon="1.72562">
        <ele>2314.007</ele>
        <time>2021-08-06T13:10:25Z</time>
      </trkpt>
      <trkpt lat="42.62197" lon="1.72562">
        <ele>2313.998</ele>
        <time>2021-08-06T13:10:27Z</time>
      </trkpt>
      <trkpt lat="42.62197" lon="1.72562">
        <ele>2313.994</ele>
        <time>2021-08-06T13:10:29Z</time>
      </trkpt>
      <trkpt lat="42.62197" lon="1.72562">
        <ele>2313.99</ele>
        <time>2021-08-06T13:10:31Z</time>
      </trkpt>
      <trkpt lat="42.62197" lon="1.72562">
        <ele>2313.307</ele>
        <time>2021-08-06T13:10:33Z</time>
      </trkpt>
      <trkpt lat="42.62197" lon="1.72562">
        <ele>2313.28</ele>
        <time>2021-08-06T13:10:34Z</time>
      </trkpt>
      <trkpt lat="42.62197" lon="1.72562">
        <ele>2313.237</ele>
        <time>2021-08-06T13:10:41Z</time>
      </trkpt>
      <trkpt lat="42.62197" lon="1.72562">
        <ele>2313.24</ele>
        <time>2021-08-06T13:10:43Z</time>
      </trkpt>
      <trkpt lat="42.62197" lon="1.72562">
        <ele>2313.955</ele>
        <time>2021-08-06T13:10:45Z</time>
      </trkpt>
      <trkpt lat="42.62196" lon="1.72563">
        <ele>2313.513</ele>
        <time>2021-08-06T13:10:47Z</time>
      </trkpt>
      <trkpt lat="42.62197" lon="1.72563">
        <ele>2313.377</ele>
        <time>2021-08-06T13:10:49Z</time>
      </trkpt>
      <trkpt lat="42.62197" lon="1.72563">
        <ele>2313.378</ele>
        <time>2021-08-06T13:10:51Z</time>
      </trkpt>
      <trkpt lat="42.62197" lon="1.72563">
        <ele>2313.378</ele>
        <time>2021-08-06T13:10:53Z</time>
      </trkpt>
      <trkpt lat="42.62197" lon="1.72563">
        <ele>2313.38</ele>
        <time>2021-08-06T13:10:55Z</time>
      </trkpt>
      <trkpt lat="42.62197" lon="1.72563">
        <ele>2313.382</ele>
        <time>2021-08-06T13:10:57Z</time>
      </trkpt>
      <trkpt lat="42.62197" lon="1.72563">
        <ele>2313.382</ele>
        <time>2021-08-06T13:10:59Z</time>
      </trkpt>
      <trkpt lat="42.62197" lon="1.72563">
        <ele>2313.378</ele>
        <time>2021-08-06T13:11:01Z</time>
      </trkpt>
      <trkpt lat="42.62197" lon="1.72563">
        <ele>2313.969</ele>
        <time>2021-08-06T13:11:03Z</time>
      </trkpt>
      <trkpt lat="42.62197" lon="1.72563">
        <ele>2314.022</ele>
        <time>2021-08-06T13:11:05Z</time>
      </trkpt>
      <trkpt lat="42.62197" lon="1.72563">
        <ele>2314.04</ele>
        <time>2021-08-06T13:11:07Z</time>
      </trkpt>
      <trkpt lat="42.62197" lon="1.72563">
        <ele>2314.056</ele>
        <time>2021-08-06T13:11:09Z</time>
      </trkpt>
      <trkpt lat="42.62197" lon="1.72563">
        <ele>2314.058</ele>
        <time>2021-08-06T13:11:11Z</time>
      </trkpt>
      <trkpt lat="42.62197" lon="1.72563">
        <ele>2314.07</ele>
        <time>2021-08-06T13:11:13Z</time>
      </trkpt>
      <trkpt lat="42.62197" lon="1.72563">
        <ele>2314.083</ele>
        <time>2021-08-06T13:11:15Z</time>
      </trkpt>
      <trkpt lat="42.62197" lon="1.72563">
        <ele>2314.077</ele>
        <time>2021-08-06T13:11:17Z</time>
      </trkpt>
      <trkpt lat="42.62197" lon="1.72563">
        <ele>2314.077</ele>
        <time>2021-08-06T13:11:19Z</time>
      </trkpt>
      <trkpt lat="42.62197" lon="1.72563">
        <ele>2314.086</ele>
        <time>2021-08-06T13:11:21Z</time>
      </trkpt>
      <trkpt lat="42.62197" lon="1.72563">
        <ele>2314.097</ele>
        <time>2021-08-06T13:11:23Z</time>
      </trkpt>
      <trkpt lat="42.62197" lon="1.72563">
        <ele>2314.077</ele>
        <time>2021-08-06T13:11:25Z</time>
      </trkpt>
      <trkpt lat="42.62197" lon="1.72563">
        <ele>2314.088</ele>
        <time>2021-08-06T13:11:27Z</time>
      </trkpt>
      <trkpt lat="42.62197" lon="1.72563">
        <ele>2314.083</ele>
        <time>2021-08-06T13:11:29Z</time>
      </trkpt>
      <trkpt lat="42.62197" lon="1.72563">
        <ele>2314.098</ele>
        <time>2021-08-06T13:11:31Z</time>
      </trkpt>
      <trkpt lat="42.62197" lon="1.72563">
        <ele>2314.092</ele>
        <time>2021-08-06T13:11:33Z</time>
      </trkpt>
      <trkpt lat="42.62197" lon="1.72563">
        <ele>2314.096</ele>
        <time>2021-08-06T13:11:35Z</time>
      </trkpt>
      <trkpt lat="42.62197" lon="1.72562">
        <ele>2314.055</ele>
        <time>2021-08-06T13:11:37Z</time>
      </trkpt>
      <trkpt lat="42.62197" lon="1.72562">
        <ele>2313.94</ele>
        <time>2021-08-06T13:11:39Z</time>
      </trkpt>
      <trkpt lat="42.62197" lon="1.72563">
        <ele>2314.01</ele>
        <time>2021-08-06T13:11:41Z</time>
      </trkpt>
      <trkpt lat="42.62197" lon="1.72563">
        <ele>2313.948</ele>
        <time>2021-08-06T13:11:43Z</time>
      </trkpt>
      <trkpt lat="42.62197" lon="1.72563">
        <ele>2313.944</ele>
        <time>2021-08-06T13:11:45Z</time>
      </trkpt>
      <trkpt lat="42.62197" lon="1.72563">
        <ele>2313.939</ele>
        <time>2021-08-06T13:11:47Z</time>
      </trkpt>
      <trkpt lat="42.62197" lon="1.72563">
        <ele>2313.935</ele>
        <time>2021-08-06T13:11:49Z</time>
      </trkpt>
      <trkpt lat="42.62197" lon="1.72563">
        <ele>2313.933</ele>
        <time>2021-08-06T13:11:51Z</time>
      </trkpt>
      <trkpt lat="42.62197" lon="1.72563">
        <ele>2313.931</ele>
        <time>2021-08-06T13:11:53Z</time>
      </trkpt>
      <trkpt lat="42.62197" lon="1.72563">
        <ele>2313.929</ele>
        <time>2021-08-06T13:11:55Z</time>
      </trkpt>
      <trkpt lat="42.62197" lon="1.72563">
        <ele>2313.929</ele>
        <time>2021-08-06T13:11:57Z</time>
      </trkpt>
      <trkpt lat="42.62197" lon="1.72563">
        <ele>2313.93</ele>
        <time>2021-08-06T13:11:59Z</time>
      </trkpt>
      <trkpt lat="42.62197" lon="1.72563">
        <ele>2313.934</ele>
        <time>2021-08-06T13:12:01Z</time>
      </trkpt>
      <trkpt lat="42.62197" lon="1.72563">
        <ele>2313.942</ele>
        <time>2021-08-06T13:12:03Z</time>
      </trkpt>
      <trkpt lat="42.62197" lon="1.72563">
        <ele>2313.946</ele>
        <time>2021-08-06T13:12:05Z</time>
      </trkpt>
      <trkpt lat="42.62197" lon="1.72563">
        <ele>2313.952</ele>
        <time>2021-08-06T13:12:07Z</time>
      </trkpt>
      <trkpt lat="42.62197" lon="1.72563">
        <ele>2313.99</ele>
        <time>2021-08-06T13:12:09Z</time>
      </trkpt>
      <trkpt lat="42.62197" lon="1.72562">
        <ele>2313.722</ele>
        <time>2021-08-06T13:12:11Z</time>
      </trkpt>
      <trkpt lat="42.62197" lon="1.72563">
        <ele>2313.347</ele>
        <time>2021-08-06T13:12:13Z</time>
      </trkpt>
      <trkpt lat="42.62196" lon="1.72563">
        <ele>2312.697</ele>
        <time>2021-08-06T13:12:15Z</time>
      </trkpt>
      <trkpt lat="42.62196" lon="1.72563">
        <ele>2312.692</ele>
        <time>2021-08-06T13:12:17Z</time>
      </trkpt>
      <trkpt lat="42.62196" lon="1.72563">
        <ele>2312.605</ele>
        <time>2021-08-06T13:12:19Z</time>
      </trkpt>
      <trkpt lat="42.62196" lon="1.72562">
        <ele>2312.478</ele>
        <time>2021-08-06T13:12:21Z</time>
      </trkpt>
      <trkpt lat="42.62196" lon="1.72562">
        <ele>2312.63</ele>
        <time>2021-08-06T13:12:23Z</time>
      </trkpt>
      <trkpt lat="42.62196" lon="1.72562">
        <ele>2312.626</ele>
        <time>2021-08-06T13:12:25Z</time>
      </trkpt>
      <trkpt lat="42.62196" lon="1.72562">
        <ele>2312.627</ele>
        <time>2021-08-06T13:12:27Z</time>
      </trkpt>
      <trkpt lat="42.62196" lon="1.72562">
        <ele>2312.627</ele>
        <time>2021-08-06T13:12:29Z</time>
      </trkpt>
      <trkpt lat="42.62196" lon="1.72562">
        <ele>2312.626</ele>
        <time>2021-08-06T13:12:31Z</time>
      </trkpt>
      <trkpt lat="42.62196" lon="1.72562">
        <ele>2312.622</ele>
        <time>2021-08-06T13:12:33Z</time>
      </trkpt>
      <trkpt lat="42.62196" lon="1.72562">
        <ele>2312.612</ele>
        <time>2021-08-06T13:12:35Z</time>
      </trkpt>
      <trkpt lat="42.62196" lon="1.72562">
        <ele>2312.602</ele>
        <time>2021-08-06T13:12:37Z</time>
      </trkpt>
      <trkpt lat="42.62196" lon="1.72562">
        <ele>2312.593</ele>
        <time>2021-08-06T13:12:39Z</time>
      </trkpt>
      <trkpt lat="42.62196" lon="1.72562">
        <ele>2312.593</ele>
        <time>2021-08-06T13:12:41Z</time>
      </trkpt>
      <trkpt lat="42.62196" lon="1.72562">
        <ele>2312.595</ele>
        <time>2021-08-06T13:12:43Z</time>
      </trkpt>
      <trkpt lat="42.62196" lon="1.72562">
        <ele>2312.586</ele>
        <time>2021-08-06T13:12:45Z</time>
      </trkpt>
      <trkpt lat="42.62196" lon="1.72562">
        <ele>2312.582</ele>
        <time>2021-08-06T13:12:47Z</time>
      </trkpt>
      <trkpt lat="42.62196" lon="1.72562">
        <ele>2312.576</ele>
        <time>2021-08-06T13:12:49Z</time>
      </trkpt>
      <trkpt lat="42.62196" lon="1.72562">
        <ele>2312.566</ele>
        <time>2021-08-06T13:12:51Z</time>
      </trkpt>
      <trkpt lat="42.62196" lon="1.72562">
        <ele>2312.562</ele>
        <time>2021-08-06T13:12:53Z</time>
      </trkpt>
      <trkpt lat="42.62196" lon="1.72562">
        <ele>2312.57</ele>
        <time>2021-08-06T13:12:55Z</time>
      </trkpt>
      <trkpt lat="42.62196" lon="1.72562">
        <ele>2312.571</ele>
        <time>2021-08-06T13:12:57Z</time>
      </trkpt>
      <trkpt lat="42.62196" lon="1.72562">
        <ele>2312.572</ele>
        <time>2021-08-06T13:12:59Z</time>
      </trkpt>
      <trkpt lat="42.62196" lon="1.72562">
        <ele>2312.578</ele>
        <time>2021-08-06T13:13:01Z</time>
      </trkpt>
      <trkpt lat="42.62196" lon="1.72563">
        <ele>2312.724</ele>
        <time>2021-08-06T13:13:03Z</time>
      </trkpt>
      <trkpt lat="42.62196" lon="1.72564">
        <ele>2313.633</ele>
        <time>2021-08-06T13:13:05Z</time>
      </trkpt>
      <trkpt lat="42.62197" lon="1.72564">
        <ele>2313.59</ele>
        <time>2021-08-06T13:13:07Z</time>
      </trkpt>
      <trkpt lat="42.62197" lon="1.72564">
        <ele>2313.563</ele>
        <time>2021-08-06T13:13:09Z</time>
      </trkpt>
      <trkpt lat="42.62197" lon="1.72564">
        <ele>2313.547</ele>
        <time>2021-08-06T13:13:11Z</time>
      </trkpt>
      <trkpt lat="42.62197" lon="1.72564">
        <ele>2313.519</ele>
        <time>2021-08-06T13:13:13Z</time>
      </trkpt>
      <trkpt lat="42.62197" lon="1.72564">
        <ele>2313.489</ele>
        <time>2021-08-06T13:13:15Z</time>
      </trkpt>
      <trkpt lat="42.62197" lon="1.72563">
        <ele>2313.601</ele>
        <time>2021-08-06T13:13:17Z</time>
      </trkpt>
      <trkpt lat="42.62197" lon="1.72563">
        <ele>2313.603</ele>
        <time>2021-08-06T13:13:19Z</time>
      </trkpt>
      <trkpt lat="42.62197" lon="1.72563">
        <ele>2313.6</ele>
        <time>2021-08-06T13:13:21Z</time>
      </trkpt>
      <trkpt lat="42.62197" lon="1.72563">
        <ele>2313.582</ele>
        <time>2021-08-06T13:13:23Z</time>
      </trkpt>
      <trkpt lat="42.62197" lon="1.72563">
        <ele>2313.583</ele>
        <time>2021-08-06T13:13:25Z</time>
      </trkpt>
      <trkpt lat="42.62197" lon="1.72563">
        <ele>2313.585</ele>
        <time>2021-08-06T13:13:27Z</time>
      </trkpt>
      <trkpt lat="42.62197" lon="1.72563">
        <ele>2313.588</ele>
        <time>2021-08-06T13:13:29Z</time>
      </trkpt>
      <trkpt lat="42.62197" lon="1.72563">
        <ele>2313.066</ele>
        <time>2021-08-06T13:13:31Z</time>
      </trkpt>
      <trkpt lat="42.62197" lon="1.72562">
        <ele>2311.934</ele>
        <time>2021-08-06T13:13:33Z</time>
      </trkpt>
      <trkpt lat="42.62197" lon="1.72561">
        <ele>2311.058</ele>
        <time>2021-08-06T13:13:35Z</time>
      </trkpt>
      <trkpt lat="42.62198" lon="1.7256">
        <ele>2310.733</ele>
        <time>2021-08-06T13:13:37Z</time>
      </trkpt>
      <trkpt lat="42.62199" lon="1.72559">
        <ele>2310.269</ele>
        <time>2021-08-06T13:13:39Z</time>
      </trkpt>
      <trkpt lat="42.622" lon="1.72558">
        <ele>2310.607</ele>
        <time>2021-08-06T13:13:41Z</time>
      </trkpt>
      <trkpt lat="42.62201" lon="1.72557">
        <ele>2310.033</ele>
        <time>2021-08-06T13:13:43Z</time>
      </trkpt>
      <trkpt lat="42.62203" lon="1.72556">
        <ele>2309.602</ele>
        <time>2021-08-06T13:13:45Z</time>
      </trkpt>
      <trkpt lat="42.62203" lon="1.72555">
        <ele>2308.959</ele>
        <time>2021-08-06T13:13:47Z</time>
      </trkpt>
      <trkpt lat="42.62204" lon="1.72552">
        <ele>2309.564</ele>
        <time>2021-08-06T13:13:49Z</time>
      </trkpt>
      <trkpt lat="42.62205" lon="1.72551">
        <ele>2308.873</ele>
        <time>2021-08-06T13:13:51Z</time>
      </trkpt>
      <trkpt lat="42.62206" lon="1.72548">
        <ele>2307.923</ele>
        <time>2021-08-06T13:13:53Z</time>
      </trkpt>
      <trkpt lat="42.62205" lon="1.72545">
        <ele>2307.876</ele>
        <time>2021-08-06T13:13:55Z</time>
      </trkpt>
      <trkpt lat="42.62205" lon="1.72543">
        <ele>2307.619</ele>
        <time>2021-08-06T13:13:57Z</time>
      </trkpt>
      <trkpt lat="42.62207" lon="1.72542">
        <ele>2308.404</ele>
        <time>2021-08-06T13:13:59Z</time>
      </trkpt>
      <trkpt lat="42.62208" lon="1.72543">
        <ele>2307.99</ele>
        <time>2021-08-06T13:14:01Z</time>
      </trkpt>
      <trkpt lat="42.62208" lon="1.72544">
        <ele>2308.503</ele>
        <time>2021-08-06T13:14:03Z</time>
      </trkpt>
      <trkpt lat="42.62209" lon="1.72545">
        <ele>2310.072</ele>
        <time>2021-08-06T13:14:05Z</time>
      </trkpt>
      <trkpt lat="42.6221" lon="1.72546">
        <ele>2310.761</ele>
        <time>2021-08-06T13:14:07Z</time>
      </trkpt>
      <trkpt lat="42.62211" lon="1.72547">
        <ele>2311.589</ele>
        <time>2021-08-06T13:14:09Z</time>
      </trkpt>
      <trkpt lat="42.62212" lon="1.72547">
        <ele>2311.462</ele>
        <time>2021-08-06T13:14:11Z</time>
      </trkpt>
      <trkpt lat="42.62212" lon="1.72547">
        <ele>2311.457</ele>
        <time>2021-08-06T13:14:13Z</time>
      </trkpt>
      <trkpt lat="42.62212" lon="1.72547">
        <ele>2311.458</ele>
        <time>2021-08-06T13:14:15Z</time>
      </trkpt>
      <trkpt lat="42.62212" lon="1.72547">
        <ele>2311.453</ele>
        <time>2021-08-06T13:14:17Z</time>
      </trkpt>
      <trkpt lat="42.62212" lon="1.72547">
        <ele>2311.449</ele>
        <time>2021-08-06T13:14:19Z</time>
      </trkpt>
      <trkpt lat="42.62212" lon="1.72547">
        <ele>2311.453</ele>
        <time>2021-08-06T13:14:21Z</time>
      </trkpt>
      <trkpt lat="42.62212" lon="1.72547">
        <ele>2311.455</ele>
        <time>2021-08-06T13:14:23Z</time>
      </trkpt>
      <trkpt lat="42.62212" lon="1.72547">
        <ele>2311.454</ele>
        <time>2021-08-06T13:14:25Z</time>
      </trkpt>
      <trkpt lat="42.62212" lon="1.72547">
        <ele>2311.449</ele>
        <time>2021-08-06T13:14:27Z</time>
      </trkpt>
      <trkpt lat="42.62212" lon="1.72547">
        <ele>2311.441</ele>
        <time>2021-08-06T13:14:29Z</time>
      </trkpt>
      <trkpt lat="42.62212" lon="1.72547">
        <ele>2311.449</ele>
        <time>2021-08-06T13:14:31Z</time>
      </trkpt>
      <trkpt lat="42.62212" lon="1.72547">
        <ele>2311.437</ele>
        <time>2021-08-06T13:14:33Z</time>
      </trkpt>
      <trkpt lat="42.62212" lon="1.72547">
        <ele>2311.653</ele>
        <time>2021-08-06T13:14:35Z</time>
      </trkpt>
      <trkpt lat="42.62212" lon="1.72547">
        <ele>2311.656</ele>
        <time>2021-08-06T13:14:37Z</time>
      </trkpt>
      <trkpt lat="42.62212" lon="1.72547">
        <ele>2311.659</ele>
        <time>2021-08-06T13:14:39Z</time>
      </trkpt>
      <trkpt lat="42.62212" lon="1.72547">
        <ele>2311.659</ele>
        <time>2021-08-06T13:14:41Z</time>
      </trkpt>
      <trkpt lat="42.62212" lon="1.72547">
        <ele>2311.642</ele>
        <time>2021-08-06T13:14:43Z</time>
      </trkpt>
      <trkpt lat="42.62212" lon="1.72547">
        <ele>2311.63</ele>
        <time>2021-08-06T13:14:45Z</time>
      </trkpt>
      <trkpt lat="42.62212" lon="1.72547">
        <ele>2311.622</ele>
        <time>2021-08-06T13:14:47Z</time>
      </trkpt>
      <trkpt lat="42.62212" lon="1.72547">
        <ele>2311.605</ele>
        <time>2021-08-06T13:14:49Z</time>
      </trkpt>
      <trkpt lat="42.62212" lon="1.72547">
        <ele>2311.595</ele>
        <time>2021-08-06T13:14:51Z</time>
      </trkpt>
      <trkpt lat="42.62212" lon="1.72547">
        <ele>2311.6</ele>
        <time>2021-08-06T13:14:53Z</time>
      </trkpt>
      <trkpt lat="42.62212" lon="1.72547">
        <ele>2311.605</ele>
        <time>2021-08-06T13:14:55Z</time>
      </trkpt>
      <trkpt lat="42.62212" lon="1.72547">
        <ele>2311.629</ele>
        <time>2021-08-06T13:14:57Z</time>
      </trkpt>
      <trkpt lat="42.62212" lon="1.72547">
        <ele>2311.624</ele>
        <time>2021-08-06T13:14:59Z</time>
      </trkpt>
      <trkpt lat="42.62212" lon="1.72547">
        <ele>2311.629</ele>
        <time>2021-08-06T13:15:01Z</time>
      </trkpt>
      <trkpt lat="42.62212" lon="1.72547">
        <ele>2311.625</ele>
        <time>2021-08-06T13:15:03Z</time>
      </trkpt>
      <trkpt lat="42.62212" lon="1.72547">
        <ele>2311.618</ele>
        <time>2021-08-06T13:15:05Z</time>
      </trkpt>
      <trkpt lat="42.62212" lon="1.72547">
        <ele>2311.592</ele>
        <time>2021-08-06T13:15:07Z</time>
      </trkpt>
      <trkpt lat="42.62212" lon="1.72547">
        <ele>2311.568</ele>
        <time>2021-08-06T13:15:09Z</time>
      </trkpt>
      <trkpt lat="42.62212" lon="1.72547">
        <ele>2311.548</ele>
        <time>2021-08-06T13:15:11Z</time>
      </trkpt>
      <trkpt lat="42.62212" lon="1.72547">
        <ele>2311.529</ele>
        <time>2021-08-06T13:15:13Z</time>
      </trkpt>
      <trkpt lat="42.62212" lon="1.72547">
        <ele>2311.524</ele>
        <time>2021-08-06T13:15:15Z</time>
      </trkpt>
      <trkpt lat="42.62212" lon="1.72547">
        <ele>2311.518</ele>
        <time>2021-08-06T13:15:17Z</time>
      </trkpt>
      <trkpt lat="42.62212" lon="1.72547">
        <ele>2311.517</ele>
        <time>2021-08-06T13:15:19Z</time>
      </trkpt>
      <trkpt lat="42.62212" lon="1.72547">
        <ele>2311.514</ele>
        <time>2021-08-06T13:15:21Z</time>
      </trkpt>
      <trkpt lat="42.62212" lon="1.72547">
        <ele>2311.51</ele>
        <time>2021-08-06T13:15:23Z</time>
      </trkpt>
      <trkpt lat="42.62212" lon="1.72547">
        <ele>2311.492</ele>
        <time>2021-08-06T13:15:25Z</time>
      </trkpt>
      <trkpt lat="42.62212" lon="1.72547">
        <ele>2311.482</ele>
        <time>2021-08-06T13:15:27Z</time>
      </trkpt>
      <trkpt lat="42.62212" lon="1.72547">
        <ele>2311.485</ele>
        <time>2021-08-06T13:15:29Z</time>
      </trkpt>
      <trkpt lat="42.62212" lon="1.72547">
        <ele>2312.028</ele>
        <time>2021-08-06T13:15:31Z</time>
      </trkpt>
      <trkpt lat="42.62212" lon="1.72547">
        <ele>2311.694</ele>
        <time>2021-08-06T13:15:33Z</time>
      </trkpt>
      <trkpt lat="42.62213" lon="1.72548">
        <ele>2311.513</ele>
        <time>2021-08-06T13:15:35Z</time>
      </trkpt>
      <trkpt lat="42.62213" lon="1.7255">
        <ele>2311.379</ele>
        <time>2021-08-06T13:15:37Z</time>
      </trkpt>
      <trkpt lat="42.62213" lon="1.72552">
        <ele>2311.622</ele>
        <time>2021-08-06T13:15:39Z</time>
      </trkpt>
      <trkpt lat="42.62213" lon="1.72554">
        <ele>2310.541</ele>
        <time>2021-08-06T13:15:41Z</time>
      </trkpt>
      <trkpt lat="42.62213" lon="1.72556">
        <ele>2309.767</ele>
        <time>2021-08-06T13:15:43Z</time>
      </trkpt>
      <trkpt lat="42.62213" lon="1.72559">
        <ele>2310.072</ele>
        <time>2021-08-06T13:15:45Z</time>
      </trkpt>
      <trkpt lat="42.62213" lon="1.72561">
        <ele>2309.312</ele>
        <time>2021-08-06T13:15:47Z</time>
      </trkpt>
      <trkpt lat="42.62213" lon="1.72563">
        <ele>2309.183</ele>
        <time>2021-08-06T13:15:49Z</time>
      </trkpt>
      <trkpt lat="42.62214" lon="1.72565">
        <ele>2307.938</ele>
        <time>2021-08-06T13:15:51Z</time>
      </trkpt>
      <trkpt lat="42.62213" lon="1.72567">
        <ele>2306.792</ele>
        <time>2021-08-06T13:15:53Z</time>
      </trkpt>
      <trkpt lat="42.62211" lon="1.72569">
        <ele>2305.653</ele>
        <time>2021-08-06T13:15:55Z</time>
      </trkpt>
      <trkpt lat="42.6221" lon="1.7257">
        <ele>2304.844</ele>
        <time>2021-08-06T13:15:57Z</time>
      </trkpt>
      <trkpt lat="42.6221" lon="1.72572">
        <ele>2304.956</ele>
        <time>2021-08-06T13:15:59Z</time>
      </trkpt>
      <trkpt lat="42.6221" lon="1.72574">
        <ele>2304.305</ele>
        <time>2021-08-06T13:16:01Z</time>
      </trkpt>
      <trkpt lat="42.6221" lon="1.72575">
        <ele>2303.279</ele>
        <time>2021-08-06T13:16:03Z</time>
      </trkpt>
      <trkpt lat="42.62212" lon="1.72576">
        <ele>2302.477</ele>
        <time>2021-08-06T13:16:05Z</time>
      </trkpt>
      <trkpt lat="42.62213" lon="1.72575">
        <ele>2301.578</ele>
        <time>2021-08-06T13:16:07Z</time>
      </trkpt>
      <trkpt lat="42.62214" lon="1.72576">
        <ele>2300.795</ele>
        <time>2021-08-06T13:16:09Z</time>
      </trkpt>
      <trkpt lat="42.62215" lon="1.72576">
        <ele>2300.201</ele>
        <time>2021-08-06T13:16:11Z</time>
      </trkpt>
      <trkpt lat="42.62216" lon="1.72576">
        <ele>2299.401</ele>
        <time>2021-08-06T13:16:13Z</time>
      </trkpt>
      <trkpt lat="42.62217" lon="1.72576">
        <ele>2298.522</ele>
        <time>2021-08-06T13:16:15Z</time>
      </trkpt>
      <trkpt lat="42.62217" lon="1.72575">
        <ele>2298.556</ele>
        <time>2021-08-06T13:16:17Z</time>
      </trkpt>
      <trkpt lat="42.62218" lon="1.72574">
        <ele>2298.323</ele>
        <time>2021-08-06T13:16:19Z</time>
      </trkpt>
      <trkpt lat="42.62219" lon="1.72574">
        <ele>2297.604</ele>
        <time>2021-08-06T13:16:21Z</time>
      </trkpt>
      <trkpt lat="42.6222" lon="1.72573">
        <ele>2297.232</ele>
        <time>2021-08-06T13:16:23Z</time>
      </trkpt>
      <trkpt lat="42.62221" lon="1.72572">
        <ele>2296.565</ele>
        <time>2021-08-06T13:16:25Z</time>
      </trkpt>
      <trkpt lat="42.62222" lon="1.7257">
        <ele>2296.43</ele>
        <time>2021-08-06T13:16:27Z</time>
      </trkpt>
      <trkpt lat="42.62223" lon="1.72569">
        <ele>2295.419</ele>
        <time>2021-08-06T13:16:29Z</time>
      </trkpt>
      <trkpt lat="42.62224" lon="1.72568">
        <ele>2295.718</ele>
        <time>2021-08-06T13:16:31Z</time>
      </trkpt>
      <trkpt lat="42.62225" lon="1.72566">
        <ele>2295.294</ele>
        <time>2021-08-06T13:16:33Z</time>
      </trkpt>
      <trkpt lat="42.62225" lon="1.72565">
        <ele>2295.475</ele>
        <time>2021-08-06T13:16:35Z</time>
      </trkpt>
      <trkpt lat="42.62225" lon="1.72562">
        <ele>2295.808</ele>
        <time>2021-08-06T13:16:37Z</time>
      </trkpt>
      <trkpt lat="42.62226" lon="1.72561">
        <ele>2295.857</ele>
        <time>2021-08-06T13:16:39Z</time>
      </trkpt>
      <trkpt lat="42.62225" lon="1.72561">
        <ele>2295.432</ele>
        <time>2021-08-06T13:16:41Z</time>
      </trkpt>
      <trkpt lat="42.62225" lon="1.7256">
        <ele>2295.408</ele>
        <time>2021-08-06T13:16:43Z</time>
      </trkpt>
      <trkpt lat="42.62224" lon="1.72558">
        <ele>2293.679</ele>
        <time>2021-08-06T13:16:45Z</time>
      </trkpt>
      <trkpt lat="42.62225" lon="1.72556">
        <ele>2293.265</ele>
        <time>2021-08-06T13:16:47Z</time>
      </trkpt>
      <trkpt lat="42.62225" lon="1.72554">
        <ele>2292.628</ele>
        <time>2021-08-06T13:16:49Z</time>
      </trkpt>
      <trkpt lat="42.62225" lon="1.72551">
        <ele>2291.684</ele>
        <time>2021-08-06T13:16:51Z</time>
      </trkpt>
      <trkpt lat="42.62226" lon="1.72549">
        <ele>2291.276</ele>
        <time>2021-08-06T13:16:53Z</time>
      </trkpt>
      <trkpt lat="42.62227" lon="1.72547">
        <ele>2292.133</ele>
        <time>2021-08-06T13:16:55Z</time>
      </trkpt>
      <trkpt lat="42.62229" lon="1.72549">
        <ele>2292.623</ele>
        <time>2021-08-06T13:16:57Z</time>
      </trkpt>
      <trkpt lat="42.62229" lon="1.72552">
        <ele>2291.726</ele>
        <time>2021-08-06T13:16:59Z</time>
      </trkpt>
      <trkpt lat="42.62229" lon="1.72554">
        <ele>2290.962</ele>
        <time>2021-08-06T13:17:01Z</time>
      </trkpt>
      <trkpt lat="42.62229" lon="1.72555">
        <ele>2290.512</ele>
        <time>2021-08-06T13:17:03Z</time>
      </trkpt>
      <trkpt lat="42.62229" lon="1.72557">
        <ele>2290.578</ele>
        <time>2021-08-06T13:17:05Z</time>
      </trkpt>
      <trkpt lat="42.6223" lon="1.7256">
        <ele>2290.496</ele>
        <time>2021-08-06T13:17:07Z</time>
      </trkpt>
      <trkpt lat="42.62231" lon="1.72562">
        <ele>2291.619</ele>
        <time>2021-08-06T13:17:09Z</time>
      </trkpt>
      <trkpt lat="42.62231" lon="1.72564">
        <ele>2291.318</ele>
        <time>2021-08-06T13:17:11Z</time>
      </trkpt>
      <trkpt lat="42.62232" lon="1.72565">
        <ele>2291.511</ele>
        <time>2021-08-06T13:17:13Z</time>
      </trkpt>
      <trkpt lat="42.62232" lon="1.72567">
        <ele>2291.436</ele>
        <time>2021-08-06T13:17:15Z</time>
      </trkpt>
      <trkpt lat="42.62232" lon="1.72569">
        <ele>2292.051</ele>
        <time>2021-08-06T13:17:17Z</time>
      </trkpt>
      <trkpt lat="42.62232" lon="1.72571">
        <ele>2291.076</ele>
        <time>2021-08-06T13:17:19Z</time>
      </trkpt>
      <trkpt lat="42.62233" lon="1.72572">
        <ele>2289.84</ele>
        <time>2021-08-06T13:17:21Z</time>
      </trkpt>
      <trkpt lat="42.62233" lon="1.72574">
        <ele>2289.314</ele>
        <time>2021-08-06T13:17:23Z</time>
      </trkpt>
      <trkpt lat="42.62233" lon="1.72576">
        <ele>2288.772</ele>
        <time>2021-08-06T13:17:25Z</time>
      </trkpt>
      <trkpt lat="42.62233" lon="1.72577">
        <ele>2289.566</ele>
        <time>2021-08-06T13:17:27Z</time>
      </trkpt>
      <trkpt lat="42.62233" lon="1.72579">
        <ele>2289.199</ele>
        <time>2021-08-06T13:17:29Z</time>
      </trkpt>
      <trkpt lat="42.62235" lon="1.72579">
        <ele>2289.514</ele>
        <time>2021-08-06T13:17:31Z</time>
      </trkpt>
      <trkpt lat="42.62237" lon="1.72578">
        <ele>2288.909</ele>
        <time>2021-08-06T13:17:33Z</time>
      </trkpt>
      <trkpt lat="42.62238" lon="1.72577">
        <ele>2288.588</ele>
        <time>2021-08-06T13:17:35Z</time>
      </trkpt>
      <trkpt lat="42.6224" lon="1.72576">
        <ele>2288.933</ele>
        <time>2021-08-06T13:17:37Z</time>
      </trkpt>
      <trkpt lat="42.62242" lon="1.72574">
        <ele>2288.453</ele>
        <time>2021-08-06T13:17:39Z</time>
      </trkpt>
      <trkpt lat="42.62244" lon="1.72572">
        <ele>2288.989</ele>
        <time>2021-08-06T13:17:41Z</time>
      </trkpt>
      <trkpt lat="42.62245" lon="1.72569">
        <ele>2289.327</ele>
        <time>2021-08-06T13:17:43Z</time>
      </trkpt>
      <trkpt lat="42.62247" lon="1.72567">
        <ele>2290.206</ele>
        <time>2021-08-06T13:17:45Z</time>
      </trkpt>
      <trkpt lat="42.62248" lon="1.72564">
        <ele>2291.784</ele>
        <time>2021-08-06T13:17:47Z</time>
      </trkpt>
      <trkpt lat="42.62249" lon="1.72562">
        <ele>2292.711</ele>
        <time>2021-08-06T13:17:49Z</time>
      </trkpt>
      <trkpt lat="42.6225" lon="1.7256">
        <ele>2294.131</ele>
        <time>2021-08-06T13:17:51Z</time>
      </trkpt>
      <trkpt lat="42.62252" lon="1.72558">
        <ele>2295.357</ele>
        <time>2021-08-06T13:17:53Z</time>
      </trkpt>
      <trkpt lat="42.62253" lon="1.72556">
        <ele>2297.108</ele>
        <time>2021-08-06T13:17:55Z</time>
      </trkpt>
      <trkpt lat="42.62253" lon="1.72554">
        <ele>2298.093</ele>
        <time>2021-08-06T13:17:57Z</time>
      </trkpt>
      <trkpt lat="42.62253" lon="1.72551">
        <ele>2297.968</ele>
        <time>2021-08-06T13:17:59Z</time>
      </trkpt>
      <trkpt lat="42.62253" lon="1.72549">
        <ele>2297.973</ele>
        <time>2021-08-06T13:18:01Z</time>
      </trkpt>
      <trkpt lat="42.62252" lon="1.72547">
        <ele>2298.107</ele>
        <time>2021-08-06T13:18:03Z</time>
      </trkpt>
      <trkpt lat="42.62252" lon="1.72546">
        <ele>2297.089</ele>
        <time>2021-08-06T13:18:05Z</time>
      </trkpt>
      <trkpt lat="42.62251" lon="1.72543">
        <ele>2295.865</ele>
        <time>2021-08-06T13:18:07Z</time>
      </trkpt>
      <trkpt lat="42.62252" lon="1.72541">
        <ele>2295.065</ele>
        <time>2021-08-06T13:18:09Z</time>
      </trkpt>
      <trkpt lat="42.62252" lon="1.72539">
        <ele>2294.436</ele>
        <time>2021-08-06T13:18:11Z</time>
      </trkpt>
      <trkpt lat="42.62252" lon="1.72537">
        <ele>2293.667</ele>
        <time>2021-08-06T13:18:13Z</time>
      </trkpt>
      <trkpt lat="42.62253" lon="1.72536">
        <ele>2293.543</ele>
        <time>2021-08-06T13:18:15Z</time>
      </trkpt>
      <trkpt lat="42.62253" lon="1.72534">
        <ele>2293.411</ele>
        <time>2021-08-06T13:18:17Z</time>
      </trkpt>
      <trkpt lat="42.62254" lon="1.72532">
        <ele>2291.962</ele>
        <time>2021-08-06T13:18:19Z</time>
      </trkpt>
      <trkpt lat="42.62253" lon="1.72529">
        <ele>2291.645</ele>
        <time>2021-08-06T13:18:21Z</time>
      </trkpt>
      <trkpt lat="42.62252" lon="1.72527">
        <ele>2291.362</ele>
        <time>2021-08-06T13:18:23Z</time>
      </trkpt>
      <trkpt lat="42.62252" lon="1.72524">
        <ele>2290.114</ele>
        <time>2021-08-06T13:18:25Z</time>
      </trkpt>
      <trkpt lat="42.62252" lon="1.72522">
        <ele>2289.41</ele>
        <time>2021-08-06T13:18:27Z</time>
      </trkpt>
      <trkpt lat="42.62253" lon="1.7252">
        <ele>2288.735</ele>
        <time>2021-08-06T13:18:29Z</time>
      </trkpt>
      <trkpt lat="42.62252" lon="1.72517">
        <ele>2288.365</ele>
        <time>2021-08-06T13:18:31Z</time>
      </trkpt>
      <trkpt lat="42.62252" lon="1.72514">
        <ele>2288.212</ele>
        <time>2021-08-06T13:18:33Z</time>
      </trkpt>
      <trkpt lat="42.62252" lon="1.72511">
        <ele>2288.035</ele>
        <time>2021-08-06T13:18:35Z</time>
      </trkpt>
      <trkpt lat="42.62252" lon="1.72509">
        <ele>2287.143</ele>
        <time>2021-08-06T13:18:37Z</time>
      </trkpt>
      <trkpt lat="42.62252" lon="1.72506">
        <ele>2285.987</ele>
        <time>2021-08-06T13:18:39Z</time>
      </trkpt>
      <trkpt lat="42.62252" lon="1.72503">
        <ele>2284.451</ele>
        <time>2021-08-06T13:18:41Z</time>
      </trkpt>
      <trkpt lat="42.62252" lon="1.725">
        <ele>2282.948</ele>
        <time>2021-08-06T13:18:43Z</time>
      </trkpt>
      <trkpt lat="42.62252" lon="1.72499">
        <ele>2282.572</ele>
        <time>2021-08-06T13:18:45Z</time>
      </trkpt>
      <trkpt lat="42.62254" lon="1.725">
        <ele>2283.424</ele>
        <time>2021-08-06T13:18:47Z</time>
      </trkpt>
      <trkpt lat="42.62254" lon="1.72501">
        <ele>2283.022</ele>
        <time>2021-08-06T13:18:49Z</time>
      </trkpt>
      <trkpt lat="42.62254" lon="1.72503">
        <ele>2283.384</ele>
        <time>2021-08-06T13:18:51Z</time>
      </trkpt>
      <trkpt lat="42.62254" lon="1.72506">
        <ele>2282.126</ele>
        <time>2021-08-06T13:18:53Z</time>
      </trkpt>
      <trkpt lat="42.62254" lon="1.72509">
        <ele>2281.813</ele>
        <time>2021-08-06T13:18:55Z</time>
      </trkpt>
      <trkpt lat="42.62254" lon="1.72511">
        <ele>2281.173</ele>
        <time>2021-08-06T13:18:57Z</time>
      </trkpt>
      <trkpt lat="42.62255" lon="1.72513">
        <ele>2280.2</ele>
        <time>2021-08-06T13:18:59Z</time>
      </trkpt>
      <trkpt lat="42.62255" lon="1.72516">
        <ele>2279.983</ele>
        <time>2021-08-06T13:19:01Z</time>
      </trkpt>
      <trkpt lat="42.62255" lon="1.72518">
        <ele>2279.473</ele>
        <time>2021-08-06T13:19:03Z</time>
      </trkpt>
      <trkpt lat="42.62256" lon="1.72521">
        <ele>2279.081</ele>
        <time>2021-08-06T13:19:05Z</time>
      </trkpt>
      <trkpt lat="42.62256" lon="1.72523">
        <ele>2278.696</ele>
        <time>2021-08-06T13:19:07Z</time>
      </trkpt>
      <trkpt lat="42.62256" lon="1.72526">
        <ele>2279.191</ele>
        <time>2021-08-06T13:19:09Z</time>
      </trkpt>
      <trkpt lat="42.62256" lon="1.72528">
        <ele>2279.493</ele>
        <time>2021-08-06T13:19:11Z</time>
      </trkpt>
      <trkpt lat="42.62256" lon="1.72531">
        <ele>2279.066</ele>
        <time>2021-08-06T13:19:13Z</time>
      </trkpt>
      <trkpt lat="42.62257" lon="1.72533">
        <ele>2277.832</ele>
        <time>2021-08-06T13:19:15Z</time>
      </trkpt>
      <trkpt lat="42.62257" lon="1.72535">
        <ele>2278.978</ele>
        <time>2021-08-06T13:19:17Z</time>
      </trkpt>
      <trkpt lat="42.62258" lon="1.72537">
        <ele>2278.307</ele>
        <time>2021-08-06T13:19:19Z</time>
      </trkpt>
      <trkpt lat="42.62259" lon="1.72537">
        <ele>2277.258</ele>
        <time>2021-08-06T13:19:21Z</time>
      </trkpt>
      <trkpt lat="42.62261" lon="1.72535">
        <ele>2277.402</ele>
        <time>2021-08-06T13:19:23Z</time>
      </trkpt>
      <trkpt lat="42.62262" lon="1.72533">
        <ele>2277.796</ele>
        <time>2021-08-06T13:19:25Z</time>
      </trkpt>
      <trkpt lat="42.62262" lon="1.72531">
        <ele>2277.12</ele>
        <time>2021-08-06T13:19:27Z</time>
      </trkpt>
      <trkpt lat="42.62262" lon="1.72528">
        <ele>2275.732</ele>
        <time>2021-08-06T13:19:29Z</time>
      </trkpt>
      <trkpt lat="42.62262" lon="1.72526">
        <ele>2275.242</ele>
        <time>2021-08-06T13:19:31Z</time>
      </trkpt>
      <trkpt lat="42.62265" lon="1.72524">
        <ele>2276.031</ele>
        <time>2021-08-06T13:19:33Z</time>
      </trkpt>
      <trkpt lat="42.62266" lon="1.72527">
        <ele>2273.588</ele>
        <time>2021-08-06T13:19:35Z</time>
      </trkpt>
      <trkpt lat="42.62266" lon="1.7253">
        <ele>2272.192</ele>
        <time>2021-08-06T13:19:37Z</time>
      </trkpt>
      <trkpt lat="42.62266" lon="1.72532">
        <ele>2270.63</ele>
        <time>2021-08-06T13:19:39Z</time>
      </trkpt>
      <trkpt lat="42.62266" lon="1.72535">
        <ele>2269.911</ele>
        <time>2021-08-06T13:19:41Z</time>
      </trkpt>
      <trkpt lat="42.62267" lon="1.72536">
        <ele>2270.278</ele>
        <time>2021-08-06T13:19:43Z</time>
      </trkpt>
      <trkpt lat="42.62268" lon="1.72536">
        <ele>2271.164</ele>
        <time>2021-08-06T13:19:45Z</time>
      </trkpt>
      <trkpt lat="42.62269" lon="1.72539">
        <ele>2270.976</ele>
        <time>2021-08-06T13:19:47Z</time>
      </trkpt>
      <trkpt lat="42.62269" lon="1.72541">
        <ele>2269.845</ele>
        <time>2021-08-06T13:19:49Z</time>
      </trkpt>
      <trkpt lat="42.62269" lon="1.72543">
        <ele>2268.957</ele>
        <time>2021-08-06T13:19:51Z</time>
      </trkpt>
      <trkpt lat="42.6227" lon="1.72545">
        <ele>2268.34</ele>
        <time>2021-08-06T13:19:53Z</time>
      </trkpt>
      <trkpt lat="42.6227" lon="1.72547">
        <ele>2269.131</ele>
        <time>2021-08-06T13:19:55Z</time>
      </trkpt>
      <trkpt lat="42.62271" lon="1.72549">
        <ele>2269.493</ele>
        <time>2021-08-06T13:19:57Z</time>
      </trkpt>
      <trkpt lat="42.62272" lon="1.72551">
        <ele>2269.469</ele>
        <time>2021-08-06T13:19:59Z</time>
      </trkpt>
      <trkpt lat="42.62273" lon="1.72553">
        <ele>2270.028</ele>
        <time>2021-08-06T13:20:01Z</time>
      </trkpt>
      <trkpt lat="42.62273" lon="1.72554">
        <ele>2269.335</ele>
        <time>2021-08-06T13:20:03Z</time>
      </trkpt>
      <trkpt lat="42.62275" lon="1.72555">
        <ele>2268.967</ele>
        <time>2021-08-06T13:20:05Z</time>
      </trkpt>
      <trkpt lat="42.62275" lon="1.72557">
        <ele>2269.36</ele>
        <time>2021-08-06T13:20:07Z</time>
      </trkpt>
      <trkpt lat="42.62276" lon="1.72559">
        <ele>2269.457</ele>
        <time>2021-08-06T13:20:09Z</time>
      </trkpt>
      <trkpt lat="42.62277" lon="1.72559">
        <ele>2269.487</ele>
        <time>2021-08-06T13:20:11Z</time>
      </trkpt>
      <trkpt lat="42.62279" lon="1.72558">
        <ele>2269.382</ele>
        <time>2021-08-06T13:20:13Z</time>
      </trkpt>
      <trkpt lat="42.6228" lon="1.72556">
        <ele>2269.335</ele>
        <time>2021-08-06T13:20:15Z</time>
      </trkpt>
      <trkpt lat="42.62281" lon="1.72554">
        <ele>2268.922</ele>
        <time>2021-08-06T13:20:17Z</time>
      </trkpt>
      <trkpt lat="42.62282" lon="1.72552">
        <ele>2268.101</ele>
        <time>2021-08-06T13:20:19Z</time>
      </trkpt>
      <trkpt lat="42.62282" lon="1.72549">
        <ele>2266.994</ele>
        <time>2021-08-06T13:20:21Z</time>
      </trkpt>
      <trkpt lat="42.62282" lon="1.72547">
        <ele>2266.308</ele>
        <time>2021-08-06T13:20:23Z</time>
      </trkpt>
      <trkpt lat="42.62281" lon="1.72546">
        <ele>2266.147</ele>
        <time>2021-08-06T13:20:25Z</time>
      </trkpt>
      <trkpt lat="42.6228" lon="1.72543">
        <ele>2265.075</ele>
        <time>2021-08-06T13:20:27Z</time>
      </trkpt>
      <trkpt lat="42.6228" lon="1.72541">
        <ele>2263.522</ele>
        <time>2021-08-06T13:20:29Z</time>
      </trkpt>
      <trkpt lat="42.62279" lon="1.7254">
        <ele>2263.274</ele>
        <time>2021-08-06T13:20:30Z</time>
      </trkpt>
      <trkpt lat="42.62281" lon="1.72536">
        <ele>2262.533</ele>
        <time>2021-08-06T13:20:33Z</time>
      </trkpt>
      <trkpt lat="42.62281" lon="1.72534">
        <ele>2262.603</ele>
        <time>2021-08-06T13:20:35Z</time>
      </trkpt>
      <trkpt lat="42.62281" lon="1.72531">
        <ele>2261.767</ele>
        <time>2021-08-06T13:20:37Z</time>
      </trkpt>
      <trkpt lat="42.62281" lon="1.72529">
        <ele>2261.327</ele>
        <time>2021-08-06T13:20:39Z</time>
      </trkpt>
      <trkpt lat="42.62282" lon="1.72526">
        <ele>2260.918</ele>
        <time>2021-08-06T13:20:41Z</time>
      </trkpt>
      <trkpt lat="42.62281" lon="1.72525">
        <ele>2259.648</ele>
        <time>2021-08-06T13:20:43Z</time>
      </trkpt>
      <trkpt lat="42.6228" lon="1.72523">
        <ele>2258.121</ele>
        <time>2021-08-06T13:20:45Z</time>
      </trkpt>
      <trkpt lat="42.62279" lon="1.72521">
        <ele>2257.291</ele>
        <time>2021-08-06T13:20:47Z</time>
      </trkpt>
      <trkpt lat="42.62279" lon="1.7252">
        <ele>2257.249</ele>
        <time>2021-08-06T13:20:49Z</time>
      </trkpt>
      <trkpt lat="42.62279" lon="1.72517">
        <ele>2256.924</ele>
        <time>2021-08-06T13:20:51Z</time>
      </trkpt>
      <trkpt lat="42.62279" lon="1.72515">
        <ele>2256.988</ele>
        <time>2021-08-06T13:20:53Z</time>
      </trkpt>
      <trkpt lat="42.62279" lon="1.72513">
        <ele>2256.441</ele>
        <time>2021-08-06T13:20:55Z</time>
      </trkpt>
      <trkpt lat="42.6228" lon="1.7251">
        <ele>2254.534</ele>
        <time>2021-08-06T13:20:57Z</time>
      </trkpt>
      <trkpt lat="42.6228" lon="1.72507">
        <ele>2253.498</ele>
        <time>2021-08-06T13:20:59Z</time>
      </trkpt>
      <trkpt lat="42.6228" lon="1.72505">
        <ele>2253.428</ele>
        <time>2021-08-06T13:21:01Z</time>
      </trkpt>
      <trkpt lat="42.62282" lon="1.72503">
        <ele>2254.212</ele>
        <time>2021-08-06T13:21:03Z</time>
      </trkpt>
      <trkpt lat="42.62283" lon="1.72503">
        <ele>2253.785</ele>
        <time>2021-08-06T13:21:05Z</time>
      </trkpt>
      <trkpt lat="42.62284" lon="1.72505">
        <ele>2253.129</ele>
        <time>2021-08-06T13:21:07Z</time>
      </trkpt>
      <trkpt lat="42.62283" lon="1.72508">
        <ele>2253.913</ele>
        <time>2021-08-06T13:21:09Z</time>
      </trkpt>
      <trkpt lat="42.62283" lon="1.7251">
        <ele>2253.322</ele>
        <time>2021-08-06T13:21:11Z</time>
      </trkpt>
      <trkpt lat="42.62284" lon="1.72512">
        <ele>2254.052</ele>
        <time>2021-08-06T13:21:13Z</time>
      </trkpt>
      <trkpt lat="42.62284" lon="1.72514">
        <ele>2253.209</ele>
        <time>2021-08-06T13:21:15Z</time>
      </trkpt>
      <trkpt lat="42.62285" lon="1.72515">
        <ele>2253.659</ele>
        <time>2021-08-06T13:21:17Z</time>
      </trkpt>
      <trkpt lat="42.62286" lon="1.72517">
        <ele>2254.36</ele>
        <time>2021-08-06T13:21:19Z</time>
      </trkpt>
      <trkpt lat="42.62287" lon="1.72519">
        <ele>2255.91</ele>
        <time>2021-08-06T13:21:21Z</time>
      </trkpt>
      <trkpt lat="42.62287" lon="1.72521">
        <ele>2255.601</ele>
        <time>2021-08-06T13:21:23Z</time>
      </trkpt>
      <trkpt lat="42.62286" lon="1.72522">
        <ele>2254.987</ele>
        <time>2021-08-06T13:21:25Z</time>
      </trkpt>
      <trkpt lat="42.62286" lon="1.72523">
        <ele>2254.74</ele>
        <time>2021-08-06T13:21:27Z</time>
      </trkpt>
      <trkpt lat="42.62286" lon="1.72524">
        <ele>2255.181</ele>
        <time>2021-08-06T13:21:29Z</time>
      </trkpt>
      <trkpt lat="42.62286" lon="1.72524">
        <ele>2254.905</ele>
        <time>2021-08-06T13:21:31Z</time>
      </trkpt>
      <trkpt lat="42.62286" lon="1.72526">
        <ele>2254.492</ele>
        <time>2021-08-06T13:21:33Z</time>
      </trkpt>
      <trkpt lat="42.62286" lon="1.72528">
        <ele>2253.576</ele>
        <time>2021-08-06T13:21:35Z</time>
      </trkpt>
      <trkpt lat="42.62287" lon="1.72529">
        <ele>2254.06</ele>
        <time>2021-08-06T13:21:37Z</time>
      </trkpt>
      <trkpt lat="42.62286" lon="1.7253">
        <ele>2253.927</ele>
        <time>2021-08-06T13:21:39Z</time>
      </trkpt>
      <trkpt lat="42.62287" lon="1.72531">
        <ele>2253.724</ele>
        <time>2021-08-06T13:21:41Z</time>
      </trkpt>
      <trkpt lat="42.62289" lon="1.7253">
        <ele>2252.803</ele>
        <time>2021-08-06T13:21:43Z</time>
      </trkpt>
      <trkpt lat="42.62289" lon="1.7253">
        <ele>2252.488</ele>
        <time>2021-08-06T13:21:45Z</time>
      </trkpt>
      <trkpt lat="42.62289" lon="1.7253">
        <ele>2252.465</ele>
        <time>2021-08-06T13:21:47Z</time>
      </trkpt>
      <trkpt lat="42.62289" lon="1.72529">
        <ele>2252.447</ele>
        <time>2021-08-06T13:21:49Z</time>
      </trkpt>
      <trkpt lat="42.6229" lon="1.72528">
        <ele>2250.744</ele>
        <time>2021-08-06T13:21:51Z</time>
      </trkpt>
      <trkpt lat="42.62291" lon="1.72526">
        <ele>2251.454</ele>
        <time>2021-08-06T13:21:53Z</time>
      </trkpt>
      <trkpt lat="42.62292" lon="1.72523">
        <ele>2251.306</ele>
        <time>2021-08-06T13:21:55Z</time>
      </trkpt>
      <trkpt lat="42.62293" lon="1.72521">
        <ele>2250.589</ele>
        <time>2021-08-06T13:21:57Z</time>
      </trkpt>
      <trkpt lat="42.62293" lon="1.72518">
        <ele>2249.996</ele>
        <time>2021-08-06T13:21:59Z</time>
      </trkpt>
      <trkpt lat="42.62293" lon="1.72516">
        <ele>2250.041</ele>
        <time>2021-08-06T13:22:01Z</time>
      </trkpt>
      <trkpt lat="42.62294" lon="1.72513">
        <ele>2249.428</ele>
        <time>2021-08-06T13:22:03Z</time>
      </trkpt>
      <trkpt lat="42.62294" lon="1.72511">
        <ele>2248.379</ele>
        <time>2021-08-06T13:22:05Z</time>
      </trkpt>
      <trkpt lat="42.62295" lon="1.72509">
        <ele>2247.349</ele>
        <time>2021-08-06T13:22:07Z</time>
      </trkpt>
      <trkpt lat="42.62295" lon="1.72508">
        <ele>2246.825</ele>
        <time>2021-08-06T13:22:09Z</time>
      </trkpt>
      <trkpt lat="42.62296" lon="1.72506">
        <ele>2246.342</ele>
        <time>2021-08-06T13:22:11Z</time>
      </trkpt>
      <trkpt lat="42.62296" lon="1.72505">
        <ele>2246.235</ele>
        <time>2021-08-06T13:22:13Z</time>
      </trkpt>
      <trkpt lat="42.62297" lon="1.72504">
        <ele>2247.618</ele>
        <time>2021-08-06T13:22:15Z</time>
      </trkpt>
      <trkpt lat="42.62298" lon="1.72503">
        <ele>2247.75</ele>
        <time>2021-08-06T13:22:17Z</time>
      </trkpt>
      <trkpt lat="42.62298" lon="1.72503">
        <ele>2247.793</ele>
        <time>2021-08-06T13:22:19Z</time>
      </trkpt>
      <trkpt lat="42.623" lon="1.72502">
        <ele>2247.652</ele>
        <time>2021-08-06T13:22:21Z</time>
      </trkpt>
      <trkpt lat="42.623" lon="1.72501">
        <ele>2246.985</ele>
        <time>2021-08-06T13:22:23Z</time>
      </trkpt>
      <trkpt lat="42.62301" lon="1.72501">
        <ele>2246.745</ele>
        <time>2021-08-06T13:22:25Z</time>
      </trkpt>
      <trkpt lat="42.62302" lon="1.72501">
        <ele>2246.032</ele>
        <time>2021-08-06T13:22:27Z</time>
      </trkpt>
      <trkpt lat="42.62302" lon="1.72502">
        <ele>2246.237</ele>
        <time>2021-08-06T13:22:29Z</time>
      </trkpt>
      <trkpt lat="42.62301" lon="1.72504">
        <ele>2245.676</ele>
        <time>2021-08-06T13:22:31Z</time>
      </trkpt>
      <trkpt lat="42.62301" lon="1.72506">
        <ele>2244.499</ele>
        <time>2021-08-06T13:22:33Z</time>
      </trkpt>
      <trkpt lat="42.62301" lon="1.72507">
        <ele>2244.073</ele>
        <time>2021-08-06T13:22:35Z</time>
      </trkpt>
      <trkpt lat="42.62302" lon="1.72509">
        <ele>2243.272</ele>
        <time>2021-08-06T13:22:37Z</time>
      </trkpt>
      <trkpt lat="42.62302" lon="1.7251">
        <ele>2242.786</ele>
        <time>2021-08-06T13:22:39Z</time>
      </trkpt>
      <trkpt lat="42.62302" lon="1.72512">
        <ele>2241.919</ele>
        <time>2021-08-06T13:22:41Z</time>
      </trkpt>
      <trkpt lat="42.62302" lon="1.72513">
        <ele>2241.043</ele>
        <time>2021-08-06T13:22:43Z</time>
      </trkpt>
      <trkpt lat="42.62302" lon="1.72515">
        <ele>2240.55</ele>
        <time>2021-08-06T13:22:45Z</time>
      </trkpt>
      <trkpt lat="42.62302" lon="1.72518">
        <ele>2240.408</ele>
        <time>2021-08-06T13:22:47Z</time>
      </trkpt>
      <trkpt lat="42.62302" lon="1.72521">
        <ele>2239.797</ele>
        <time>2021-08-06T13:22:49Z</time>
      </trkpt>
      <trkpt lat="42.62303" lon="1.72523">
        <ele>2239.664</ele>
        <time>2021-08-06T13:22:51Z</time>
      </trkpt>
      <trkpt lat="42.62303" lon="1.72525">
        <ele>2238.391</ele>
        <time>2021-08-06T13:22:53Z</time>
      </trkpt>
      <trkpt lat="42.62303" lon="1.72526">
        <ele>2238.201</ele>
        <time>2021-08-06T13:22:55Z</time>
      </trkpt>
      <trkpt lat="42.62304" lon="1.72528">
        <ele>2237.142</ele>
        <time>2021-08-06T13:22:57Z</time>
      </trkpt>
      <trkpt lat="42.62305" lon="1.72528">
        <ele>2236.752</ele>
        <time>2021-08-06T13:22:59Z</time>
      </trkpt>
      <trkpt lat="42.62307" lon="1.72529">
        <ele>2237.513</ele>
        <time>2021-08-06T13:23:01Z</time>
      </trkpt>
      <trkpt lat="42.62309" lon="1.72527">
        <ele>2238.568</ele>
        <time>2021-08-06T13:23:03Z</time>
      </trkpt>
      <trkpt lat="42.6231" lon="1.72524">
        <ele>2239.75</ele>
        <time>2021-08-06T13:23:05Z</time>
      </trkpt>
      <trkpt lat="42.62311" lon="1.72522">
        <ele>2238.24</ele>
        <time>2021-08-06T13:23:07Z</time>
      </trkpt>
      <trkpt lat="42.62311" lon="1.72523">
        <ele>2237.113</ele>
        <time>2021-08-06T13:23:09Z</time>
      </trkpt>
      <trkpt lat="42.62311" lon="1.72525">
        <ele>2236.376</ele>
        <time>2021-08-06T13:23:11Z</time>
      </trkpt>
      <trkpt lat="42.6231" lon="1.72527">
        <ele>2235.875</ele>
        <time>2021-08-06T13:23:13Z</time>
      </trkpt>
      <trkpt lat="42.62311" lon="1.72528">
        <ele>2235.2</ele>
        <time>2021-08-06T13:23:15Z</time>
      </trkpt>
      <trkpt lat="42.62311" lon="1.72528">
        <ele>2234.909</ele>
        <time>2021-08-06T13:23:17Z</time>
      </trkpt>
      <trkpt lat="42.62312" lon="1.72527">
        <ele>2234.121</ele>
        <time>2021-08-06T13:23:19Z</time>
      </trkpt>
      <trkpt lat="42.62313" lon="1.72527">
        <ele>2233.795</ele>
        <time>2021-08-06T13:23:21Z</time>
      </trkpt>
      <trkpt lat="42.62313" lon="1.72528">
        <ele>2233.097</ele>
        <time>2021-08-06T13:23:23Z</time>
      </trkpt>
      <trkpt lat="42.62313" lon="1.72529">
        <ele>2232.828</ele>
        <time>2021-08-06T13:23:25Z</time>
      </trkpt>
      <trkpt lat="42.62313" lon="1.72531">
        <ele>2232.864</ele>
        <time>2021-08-06T13:23:27Z</time>
      </trkpt>
      <trkpt lat="42.62313" lon="1.72532">
        <ele>2232.305</ele>
        <time>2021-08-06T13:23:29Z</time>
      </trkpt>
      <trkpt lat="42.62314" lon="1.72534">
        <ele>2232.099</ele>
        <time>2021-08-06T13:23:31Z</time>
      </trkpt>
      <trkpt lat="42.62314" lon="1.72535">
        <ele>2230.409</ele>
        <time>2021-08-06T13:23:33Z</time>
      </trkpt>
      <trkpt lat="42.62314" lon="1.72537">
        <ele>2229.226</ele>
        <time>2021-08-06T13:23:35Z</time>
      </trkpt>
      <trkpt lat="42.62314" lon="1.72538">
        <ele>2228.835</ele>
        <time>2021-08-06T13:23:37Z</time>
      </trkpt>
      <trkpt lat="42.62315" lon="1.72539">
        <ele>2227.831</ele>
        <time>2021-08-06T13:23:39Z</time>
      </trkpt>
      <trkpt lat="42.62315" lon="1.7254">
        <ele>2227.126</ele>
        <time>2021-08-06T13:23:41Z</time>
      </trkpt>
      <trkpt lat="42.62316" lon="1.72541">
        <ele>2227.408</ele>
        <time>2021-08-06T13:23:43Z</time>
      </trkpt>
      <trkpt lat="42.62317" lon="1.7254">
        <ele>2227.226</ele>
        <time>2021-08-06T13:23:45Z</time>
      </trkpt>
      <trkpt lat="42.62318" lon="1.72539">
        <ele>2226.859</ele>
        <time>2021-08-06T13:23:47Z</time>
      </trkpt>
      <trkpt lat="42.62319" lon="1.72537">
        <ele>2226.473</ele>
        <time>2021-08-06T13:23:49Z</time>
      </trkpt>
      <trkpt lat="42.62319" lon="1.72536">
        <ele>2226.245</ele>
        <time>2021-08-06T13:23:51Z</time>
      </trkpt>
      <trkpt lat="42.62319" lon="1.72534">
        <ele>2226.26</ele>
        <time>2021-08-06T13:23:53Z</time>
      </trkpt>
      <trkpt lat="42.6232" lon="1.72533">
        <ele>2226.242</ele>
        <time>2021-08-06T13:23:55Z</time>
      </trkpt>
      <trkpt lat="42.6232" lon="1.72532">
        <ele>2226</ele>
        <time>2021-08-06T13:23:57Z</time>
      </trkpt>
      <trkpt lat="42.6232" lon="1.72531">
        <ele>2225.248</ele>
        <time>2021-08-06T13:23:59Z</time>
      </trkpt>
      <trkpt lat="42.6232" lon="1.7253">
        <ele>2225.264</ele>
        <time>2021-08-06T13:24:01Z</time>
      </trkpt>
      <trkpt lat="42.62319" lon="1.72529">
        <ele>2224.827</ele>
        <time>2021-08-06T13:24:03Z</time>
      </trkpt>
      <trkpt lat="42.6232" lon="1.72528">
        <ele>2225.064</ele>
        <time>2021-08-06T13:24:05Z</time>
      </trkpt>
      <trkpt lat="42.62321" lon="1.72527">
        <ele>2224.694</ele>
        <time>2021-08-06T13:24:07Z</time>
      </trkpt>
      <trkpt lat="42.62321" lon="1.72526">
        <ele>2224.77</ele>
        <time>2021-08-06T13:24:09Z</time>
      </trkpt>
      <trkpt lat="42.62322" lon="1.72526">
        <ele>2224.681</ele>
        <time>2021-08-06T13:24:11Z</time>
      </trkpt>
      <trkpt lat="42.62322" lon="1.72526">
        <ele>2224.648</ele>
        <time>2021-08-06T13:24:13Z</time>
      </trkpt>
      <trkpt lat="42.62322" lon="1.72526">
        <ele>2223.995</ele>
        <time>2021-08-06T13:24:15Z</time>
      </trkpt>
      <trkpt lat="42.62321" lon="1.72527">
        <ele>2222.786</ele>
        <time>2021-08-06T13:24:17Z</time>
      </trkpt>
      <trkpt lat="42.62321" lon="1.72529">
        <ele>2221.618</ele>
        <time>2021-08-06T13:24:19Z</time>
      </trkpt>
      <trkpt lat="42.62321" lon="1.7253">
        <ele>2221.401</ele>
        <time>2021-08-06T13:24:21Z</time>
      </trkpt>
      <trkpt lat="42.62324" lon="1.72531">
        <ele>2220.592</ele>
        <time>2021-08-06T13:24:23Z</time>
      </trkpt>
      <trkpt lat="42.62324" lon="1.72532">
        <ele>2219.786</ele>
        <time>2021-08-06T13:24:25Z</time>
      </trkpt>
      <trkpt lat="42.62325" lon="1.72533">
        <ele>2220.254</ele>
        <time>2021-08-06T13:24:27Z</time>
      </trkpt>
      <trkpt lat="42.62325" lon="1.72532">
        <ele>2219.877</ele>
        <time>2021-08-06T13:24:29Z</time>
      </trkpt>
      <trkpt lat="42.62325" lon="1.72531">
        <ele>2219.385</ele>
        <time>2021-08-06T13:24:31Z</time>
      </trkpt>
      <trkpt lat="42.62326" lon="1.7253">
        <ele>2219.221</ele>
        <time>2021-08-06T13:24:33Z</time>
      </trkpt>
      <trkpt lat="42.62326" lon="1.72529">
        <ele>2218.329</ele>
        <time>2021-08-06T13:24:35Z</time>
      </trkpt>
      <trkpt lat="42.62326" lon="1.72528">
        <ele>2218.805</ele>
        <time>2021-08-06T13:24:37Z</time>
      </trkpt>
      <trkpt lat="42.62328" lon="1.72526">
        <ele>2219.405</ele>
        <time>2021-08-06T13:24:39Z</time>
      </trkpt>
      <trkpt lat="42.62328" lon="1.72525">
        <ele>2219.244</ele>
        <time>2021-08-06T13:24:41Z</time>
      </trkpt>
      <trkpt lat="42.62329" lon="1.72526">
        <ele>2218.504</ele>
        <time>2021-08-06T13:24:43Z</time>
      </trkpt>
      <trkpt lat="42.62328" lon="1.72527">
        <ele>2217.215</ele>
        <time>2021-08-06T13:24:45Z</time>
      </trkpt>
      <trkpt lat="42.62328" lon="1.72528">
        <ele>2216.26</ele>
        <time>2021-08-06T13:24:47Z</time>
      </trkpt>
      <trkpt lat="42.62329" lon="1.7253">
        <ele>2215.267</ele>
        <time>2021-08-06T13:24:49Z</time>
      </trkpt>
      <trkpt lat="42.62329" lon="1.72531">
        <ele>2214.242</ele>
        <time>2021-08-06T13:24:51Z</time>
      </trkpt>
      <trkpt lat="42.62329" lon="1.72532">
        <ele>2213.346</ele>
        <time>2021-08-06T13:24:53Z</time>
      </trkpt>
      <trkpt lat="42.62329" lon="1.72533">
        <ele>2212.736</ele>
        <time>2021-08-06T13:24:55Z</time>
      </trkpt>
      <trkpt lat="42.62329" lon="1.72535">
        <ele>2212.993</ele>
        <time>2021-08-06T13:24:57Z</time>
      </trkpt>
      <trkpt lat="42.6233" lon="1.72536">
        <ele>2212.794</ele>
        <time>2021-08-06T13:24:59Z</time>
      </trkpt>
      <trkpt lat="42.62331" lon="1.72535">
        <ele>2212.995</ele>
        <time>2021-08-06T13:25:01Z</time>
      </trkpt>
      <trkpt lat="42.62331" lon="1.72535">
        <ele>2212.841</ele>
        <time>2021-08-06T13:25:03Z</time>
      </trkpt>
      <trkpt lat="42.62331" lon="1.72535">
        <ele>2212.703</ele>
        <time>2021-08-06T13:25:05Z</time>
      </trkpt>
      <trkpt lat="42.62331" lon="1.72534">
        <ele>2211.321</ele>
        <time>2021-08-06T13:25:07Z</time>
      </trkpt>
      <trkpt lat="42.62333" lon="1.72533">
        <ele>2210.573</ele>
        <time>2021-08-06T13:25:09Z</time>
      </trkpt>
      <trkpt lat="42.62334" lon="1.72532">
        <ele>2209.508</ele>
        <time>2021-08-06T13:25:11Z</time>
      </trkpt>
      <trkpt lat="42.62335" lon="1.7253">
        <ele>2209.185</ele>
        <time>2021-08-06T13:25:13Z</time>
      </trkpt>
      <trkpt lat="42.62336" lon="1.72527">
        <ele>2208.204</ele>
        <time>2021-08-06T13:25:15Z</time>
      </trkpt>
      <trkpt lat="42.62337" lon="1.72525">
        <ele>2207.845</ele>
        <time>2021-08-06T13:25:17Z</time>
      </trkpt>
      <trkpt lat="42.62337" lon="1.72522">
        <ele>2207.531</ele>
        <time>2021-08-06T13:25:19Z</time>
      </trkpt>
      <trkpt lat="42.62338" lon="1.72519">
        <ele>2206.815</ele>
        <time>2021-08-06T13:25:21Z</time>
      </trkpt>
      <trkpt lat="42.62338" lon="1.72517">
        <ele>2206.253</ele>
        <time>2021-08-06T13:25:23Z</time>
      </trkpt>
      <trkpt lat="42.62337" lon="1.72515">
        <ele>2204.826</ele>
        <time>2021-08-06T13:25:25Z</time>
      </trkpt>
      <trkpt lat="42.62338" lon="1.72513">
        <ele>2204.217</ele>
        <time>2021-08-06T13:25:27Z</time>
      </trkpt>
      <trkpt lat="42.62339" lon="1.72511">
        <ele>2203.635</ele>
        <time>2021-08-06T13:25:29Z</time>
      </trkpt>
      <trkpt lat="42.62339" lon="1.72508">
        <ele>2202.948</ele>
        <time>2021-08-06T13:25:31Z</time>
      </trkpt>
      <trkpt lat="42.62339" lon="1.72505">
        <ele>2202.168</ele>
        <time>2021-08-06T13:25:33Z</time>
      </trkpt>
      <trkpt lat="42.62339" lon="1.72502">
        <ele>2200.856</ele>
        <time>2021-08-06T13:25:35Z</time>
      </trkpt>
      <trkpt lat="42.62339" lon="1.725">
        <ele>2198.108</ele>
        <time>2021-08-06T13:25:37Z</time>
      </trkpt>
      <trkpt lat="42.6234" lon="1.72498">
        <ele>2197.906</ele>
        <time>2021-08-06T13:25:39Z</time>
      </trkpt>
      <trkpt lat="42.62341" lon="1.72496">
        <ele>2197.865</ele>
        <time>2021-08-06T13:25:41Z</time>
      </trkpt>
      <trkpt lat="42.62343" lon="1.72494">
        <ele>2198.02</ele>
        <time>2021-08-06T13:25:43Z</time>
      </trkpt>
      <trkpt lat="42.62344" lon="1.72493">
        <ele>2198.45</ele>
        <time>2021-08-06T13:25:45Z</time>
      </trkpt>
      <trkpt lat="42.62345" lon="1.72491">
        <ele>2198.246</ele>
        <time>2021-08-06T13:25:47Z</time>
      </trkpt>
      <trkpt lat="42.62347" lon="1.72492">
        <ele>2198.639</ele>
        <time>2021-08-06T13:25:49Z</time>
      </trkpt>
      <trkpt lat="42.62348" lon="1.72494">
        <ele>2198.42</ele>
        <time>2021-08-06T13:25:51Z</time>
      </trkpt>
      <trkpt lat="42.62348" lon="1.72498">
        <ele>2197.464</ele>
        <time>2021-08-06T13:25:53Z</time>
      </trkpt>
      <trkpt lat="42.62348" lon="1.72501">
        <ele>2197.142</ele>
        <time>2021-08-06T13:25:55Z</time>
      </trkpt>
      <trkpt lat="42.62349" lon="1.72504">
        <ele>2197.202</ele>
        <time>2021-08-06T13:25:57Z</time>
      </trkpt>
      <trkpt lat="42.62349" lon="1.72508">
        <ele>2197.867</ele>
        <time>2021-08-06T13:25:59Z</time>
      </trkpt>
      <trkpt lat="42.62349" lon="1.7251">
        <ele>2197.01</ele>
        <time>2021-08-06T13:26:01Z</time>
      </trkpt>
      <trkpt lat="42.62351" lon="1.72511">
        <ele>2196.449</ele>
        <time>2021-08-06T13:26:03Z</time>
      </trkpt>
      <trkpt lat="42.62353" lon="1.72509">
        <ele>2195.915</ele>
        <time>2021-08-06T13:26:05Z</time>
      </trkpt>
      <trkpt lat="42.62354" lon="1.72506">
        <ele>2195.129</ele>
        <time>2021-08-06T13:26:07Z</time>
      </trkpt>
      <trkpt lat="42.62354" lon="1.72503">
        <ele>2194.262</ele>
        <time>2021-08-06T13:26:09Z</time>
      </trkpt>
      <trkpt lat="42.62356" lon="1.72502">
        <ele>2194.365</ele>
        <time>2021-08-06T13:26:11Z</time>
      </trkpt>
      <trkpt lat="42.62357" lon="1.72505">
        <ele>2195.352</ele>
        <time>2021-08-06T13:26:13Z</time>
      </trkpt>
      <trkpt lat="42.62358" lon="1.72508">
        <ele>2194.889</ele>
        <time>2021-08-06T13:26:15Z</time>
      </trkpt>
      <trkpt lat="42.62357" lon="1.72511">
        <ele>2194.379</ele>
        <time>2021-08-06T13:26:17Z</time>
      </trkpt>
      <trkpt lat="42.62356" lon="1.72514">
        <ele>2193.528</ele>
        <time>2021-08-06T13:26:19Z</time>
      </trkpt>
      <trkpt lat="42.62355" lon="1.72517">
        <ele>2192.08</ele>
        <time>2021-08-06T13:26:21Z</time>
      </trkpt>
      <trkpt lat="42.62356" lon="1.72519">
        <ele>2190.783</ele>
        <time>2021-08-06T13:26:23Z</time>
      </trkpt>
      <trkpt lat="42.62357" lon="1.72518">
        <ele>2192.214</ele>
        <time>2021-08-06T13:26:25Z</time>
      </trkpt>
      <trkpt lat="42.62358" lon="1.72517">
        <ele>2192.872</ele>
        <time>2021-08-06T13:26:27Z</time>
      </trkpt>
      <trkpt lat="42.62361" lon="1.72517">
        <ele>2193.044</ele>
        <time>2021-08-06T13:26:29Z</time>
      </trkpt>
      <trkpt lat="42.62363" lon="1.72517">
        <ele>2193.934</ele>
        <time>2021-08-06T13:26:31Z</time>
      </trkpt>
      <trkpt lat="42.62366" lon="1.72517">
        <ele>2193.838</ele>
        <time>2021-08-06T13:26:33Z</time>
      </trkpt>
      <trkpt lat="42.62368" lon="1.72516">
        <ele>2194.646</ele>
        <time>2021-08-06T13:26:35Z</time>
      </trkpt>
      <trkpt lat="42.62371" lon="1.72514">
        <ele>2194.564</ele>
        <time>2021-08-06T13:26:37Z</time>
      </trkpt>
      <trkpt lat="42.62373" lon="1.72514">
        <ele>2195.151</ele>
        <time>2021-08-06T13:26:39Z</time>
      </trkpt>
      <trkpt lat="42.62373" lon="1.7252">
        <ele>2194.021</ele>
        <time>2021-08-06T13:26:41Z</time>
      </trkpt>
      <trkpt lat="42.62372" lon="1.72523">
        <ele>2193.532</ele>
        <time>2021-08-06T13:26:43Z</time>
      </trkpt>
      <trkpt lat="42.62373" lon="1.72524">
        <ele>2192.721</ele>
        <time>2021-08-06T13:26:45Z</time>
      </trkpt>
      <trkpt lat="42.62374" lon="1.72522">
        <ele>2190.847</ele>
        <time>2021-08-06T13:26:47Z</time>
      </trkpt>
      <trkpt lat="42.62375" lon="1.72519">
        <ele>2189.578</ele>
        <time>2021-08-06T13:26:49Z</time>
      </trkpt>
      <trkpt lat="42.62375" lon="1.72516">
        <ele>2187.917</ele>
        <time>2021-08-06T13:26:51Z</time>
      </trkpt>
      <trkpt lat="42.62376" lon="1.72515">
        <ele>2187.427</ele>
        <time>2021-08-06T13:26:53Z</time>
      </trkpt>
      <trkpt lat="42.62377" lon="1.72517">
        <ele>2188.025</ele>
        <time>2021-08-06T13:26:55Z</time>
      </trkpt>
      <trkpt lat="42.62376" lon="1.72519">
        <ele>2187.224</ele>
        <time>2021-08-06T13:26:57Z</time>
      </trkpt>
      <trkpt lat="42.62376" lon="1.72521">
        <ele>2187.865</ele>
        <time>2021-08-06T13:26:59Z</time>
      </trkpt>
      <trkpt lat="42.62376" lon="1.72523">
        <ele>2186.737</ele>
        <time>2021-08-06T13:27:01Z</time>
      </trkpt>
      <trkpt lat="42.62376" lon="1.72525">
        <ele>2186.095</ele>
        <time>2021-08-06T13:27:03Z</time>
      </trkpt>
      <trkpt lat="42.62377" lon="1.72526">
        <ele>2185.403</ele>
        <time>2021-08-06T13:27:05Z</time>
      </trkpt>
      <trkpt lat="42.62379" lon="1.72525">
        <ele>2183.019</ele>
        <time>2021-08-06T13:27:07Z</time>
      </trkpt>
      <trkpt lat="42.6238" lon="1.72523">
        <ele>2181.911</ele>
        <time>2021-08-06T13:27:09Z</time>
      </trkpt>
      <trkpt lat="42.62381" lon="1.72521">
        <ele>2180.757</ele>
        <time>2021-08-06T13:27:11Z</time>
      </trkpt>
      <trkpt lat="42.62382" lon="1.7252">
        <ele>2179.492</ele>
        <time>2021-08-06T13:27:13Z</time>
      </trkpt>
      <trkpt lat="42.62383" lon="1.7252">
        <ele>2179.59</ele>
        <time>2021-08-06T13:27:15Z</time>
      </trkpt>
      <trkpt lat="42.62382" lon="1.72522">
        <ele>2179.656</ele>
        <time>2021-08-06T13:27:17Z</time>
      </trkpt>
      <trkpt lat="42.62381" lon="1.72525">
        <ele>2178.463</ele>
        <time>2021-08-06T13:27:19Z</time>
      </trkpt>
      <trkpt lat="42.62381" lon="1.72526">
        <ele>2178.036</ele>
        <time>2021-08-06T13:27:21Z</time>
      </trkpt>
      <trkpt lat="42.6238" lon="1.72528">
        <ele>2177.424</ele>
        <time>2021-08-06T13:27:23Z</time>
      </trkpt>
      <trkpt lat="42.6238" lon="1.7253">
        <ele>2175.752</ele>
        <time>2021-08-06T13:27:25Z</time>
      </trkpt>
      <trkpt lat="42.6238" lon="1.72533">
        <ele>2174.257</ele>
        <time>2021-08-06T13:27:27Z</time>
      </trkpt>
      <trkpt lat="42.6238" lon="1.72535">
        <ele>2172.888</ele>
        <time>2021-08-06T13:27:29Z</time>
      </trkpt>
      <trkpt lat="42.62379" lon="1.72538">
        <ele>2173.494</ele>
        <time>2021-08-06T13:27:31Z</time>
      </trkpt>
      <trkpt lat="42.62378" lon="1.72541">
        <ele>2175.047</ele>
        <time>2021-08-06T13:27:33Z</time>
      </trkpt>
      <trkpt lat="42.62377" lon="1.72543">
        <ele>2176.944</ele>
        <time>2021-08-06T13:27:35Z</time>
      </trkpt>
      <trkpt lat="42.62376" lon="1.72545">
        <ele>2176.903</ele>
        <time>2021-08-06T13:27:37Z</time>
      </trkpt>
      <trkpt lat="42.62375" lon="1.72548">
        <ele>2177.226</ele>
        <time>2021-08-06T13:27:39Z</time>
      </trkpt>
      <trkpt lat="42.62377" lon="1.72549">
        <ele>2176.957</ele>
        <time>2021-08-06T13:27:41Z</time>
      </trkpt>
      <trkpt lat="42.62378" lon="1.72548">
        <ele>2175.271</ele>
        <time>2021-08-06T13:27:43Z</time>
      </trkpt>
      <trkpt lat="42.6238" lon="1.72548">
        <ele>2174.078</ele>
        <time>2021-08-06T13:27:45Z</time>
      </trkpt>
      <trkpt lat="42.62381" lon="1.72548">
        <ele>2172.37</ele>
        <time>2021-08-06T13:27:47Z</time>
      </trkpt>
      <trkpt lat="42.62383" lon="1.72548">
        <ele>2172.083</ele>
        <time>2021-08-06T13:27:49Z</time>
      </trkpt>
      <trkpt lat="42.62384" lon="1.72548">
        <ele>2170.85</ele>
        <time>2021-08-06T13:27:51Z</time>
      </trkpt>
      <trkpt lat="42.62386" lon="1.72548">
        <ele>2170.07</ele>
        <time>2021-08-06T13:27:53Z</time>
      </trkpt>
      <trkpt lat="42.62388" lon="1.72547">
        <ele>2170.06</ele>
        <time>2021-08-06T13:27:55Z</time>
      </trkpt>
      <trkpt lat="42.6239" lon="1.72545">
        <ele>2170.088</ele>
        <time>2021-08-06T13:27:57Z</time>
      </trkpt>
      <trkpt lat="42.62392" lon="1.72545">
        <ele>2169.742</ele>
        <time>2021-08-06T13:27:59Z</time>
      </trkpt>
      <trkpt lat="42.62394" lon="1.72544">
        <ele>2169.524</ele>
        <time>2021-08-06T13:28:01Z</time>
      </trkpt>
      <trkpt lat="42.62395" lon="1.72543">
        <ele>2169.142</ele>
        <time>2021-08-06T13:28:03Z</time>
      </trkpt>
      <trkpt lat="42.62397" lon="1.72542">
        <ele>2168.166</ele>
        <time>2021-08-06T13:28:05Z</time>
      </trkpt>
      <trkpt lat="42.62397" lon="1.72544">
        <ele>2167.917</ele>
        <time>2021-08-06T13:28:07Z</time>
      </trkpt>
      <trkpt lat="42.62397" lon="1.72546">
        <ele>2166.888</ele>
        <time>2021-08-06T13:28:09Z</time>
      </trkpt>
      <trkpt lat="42.62397" lon="1.72547">
        <ele>2166.741</ele>
        <time>2021-08-06T13:28:11Z</time>
      </trkpt>
      <trkpt lat="42.62397" lon="1.72549">
        <ele>2166.172</ele>
        <time>2021-08-06T13:28:13Z</time>
      </trkpt>
      <trkpt lat="42.62395" lon="1.72551">
        <ele>2167.842</ele>
        <time>2021-08-06T13:28:15Z</time>
      </trkpt>
      <trkpt lat="42.62396" lon="1.72554">
        <ele>2168.636</ele>
        <time>2021-08-06T13:28:17Z</time>
      </trkpt>
      <trkpt lat="42.62398" lon="1.72554">
        <ele>2166.937</ele>
        <time>2021-08-06T13:28:19Z</time>
      </trkpt>
      <trkpt lat="42.624" lon="1.72553">
        <ele>2164.463</ele>
        <time>2021-08-06T13:28:21Z</time>
      </trkpt>
      <trkpt lat="42.62401" lon="1.72552">
        <ele>2163.798</ele>
        <time>2021-08-06T13:28:23Z</time>
      </trkpt>
      <trkpt lat="42.62403" lon="1.72555">
        <ele>2162.429</ele>
        <time>2021-08-06T13:28:25Z</time>
      </trkpt>
      <trkpt lat="42.62404" lon="1.72557">
        <ele>2162.139</ele>
        <time>2021-08-06T13:28:27Z</time>
      </trkpt>
      <trkpt lat="42.62403" lon="1.72559">
        <ele>2163.323</ele>
        <time>2021-08-06T13:28:29Z</time>
      </trkpt>
      <trkpt lat="42.62402" lon="1.72562">
        <ele>2163.292</ele>
        <time>2021-08-06T13:28:31Z</time>
      </trkpt>
      <trkpt lat="42.62401" lon="1.72564">
        <ele>2161.631</ele>
        <time>2021-08-06T13:28:33Z</time>
      </trkpt>
      <trkpt lat="42.62402" lon="1.72564">
        <ele>2159.991</ele>
        <time>2021-08-06T13:28:35Z</time>
      </trkpt>
      <trkpt lat="42.62404" lon="1.72564">
        <ele>2159.425</ele>
        <time>2021-08-06T13:28:37Z</time>
      </trkpt>
      <trkpt lat="42.62406" lon="1.72564">
        <ele>2157.827</ele>
        <time>2021-08-06T13:28:39Z</time>
      </trkpt>
      <trkpt lat="42.62407" lon="1.72565">
        <ele>2156.779</ele>
        <time>2021-08-06T13:28:41Z</time>
      </trkpt>
      <trkpt lat="42.62407" lon="1.72568">
        <ele>2157.126</ele>
        <time>2021-08-06T13:28:43Z</time>
      </trkpt>
      <trkpt lat="42.62406" lon="1.72571">
        <ele>2156.849</ele>
        <time>2021-08-06T13:28:45Z</time>
      </trkpt>
      <trkpt lat="42.62408" lon="1.72573">
        <ele>2158.11</ele>
        <time>2021-08-06T13:28:47Z</time>
      </trkpt>
      <trkpt lat="42.6241" lon="1.72572">
        <ele>2157.117</ele>
        <time>2021-08-06T13:28:49Z</time>
      </trkpt>
      <trkpt lat="42.62411" lon="1.72569">
        <ele>2155.027</ele>
        <time>2021-08-06T13:28:51Z</time>
      </trkpt>
      <trkpt lat="42.62413" lon="1.72568">
        <ele>2154.619</ele>
        <time>2021-08-06T13:28:53Z</time>
      </trkpt>
      <trkpt lat="42.62415" lon="1.72566">
        <ele>2153.374</ele>
        <time>2021-08-06T13:28:55Z</time>
      </trkpt>
      <trkpt lat="42.62416" lon="1.72564">
        <ele>2151.594</ele>
        <time>2021-08-06T13:28:57Z</time>
      </trkpt>
      <trkpt lat="42.62417" lon="1.72562">
        <ele>2151.008</ele>
        <time>2021-08-06T13:28:59Z</time>
      </trkpt>
      <trkpt lat="42.62419" lon="1.72561">
        <ele>2150.292</ele>
        <time>2021-08-06T13:29:01Z</time>
      </trkpt>
      <trkpt lat="42.6242" lon="1.72561">
        <ele>2149.915</ele>
        <time>2021-08-06T13:29:03Z</time>
      </trkpt>
      <trkpt lat="42.62421" lon="1.72563">
        <ele>2150.152</ele>
        <time>2021-08-06T13:29:05Z</time>
      </trkpt>
      <trkpt lat="42.62423" lon="1.72565">
        <ele>2148.94</ele>
        <time>2021-08-06T13:29:07Z</time>
      </trkpt>
      <trkpt lat="42.62424" lon="1.72566">
        <ele>2148.381</ele>
        <time>2021-08-06T13:29:09Z</time>
      </trkpt>
      <trkpt lat="42.62426" lon="1.72566">
        <ele>2147.206</ele>
        <time>2021-08-06T13:29:11Z</time>
      </trkpt>
      <trkpt lat="42.62428" lon="1.72564">
        <ele>2145.901</ele>
        <time>2021-08-06T13:29:13Z</time>
      </trkpt>
      <trkpt lat="42.62429" lon="1.72564">
        <ele>2144.378</ele>
        <time>2021-08-06T13:29:15Z</time>
      </trkpt>
      <trkpt lat="42.62431" lon="1.72565">
        <ele>2143.817</ele>
        <time>2021-08-06T13:29:17Z</time>
      </trkpt>
      <trkpt lat="42.62433" lon="1.72566">
        <ele>2143.854</ele>
        <time>2021-08-06T13:29:19Z</time>
      </trkpt>
      <trkpt lat="42.62434" lon="1.72566">
        <ele>2144.042</ele>
        <time>2021-08-06T13:29:21Z</time>
      </trkpt>
      <trkpt lat="42.62435" lon="1.72568">
        <ele>2143.158</ele>
        <time>2021-08-06T13:29:23Z</time>
      </trkpt>
      <trkpt lat="42.62437" lon="1.72568">
        <ele>2143.339</ele>
        <time>2021-08-06T13:29:25Z</time>
      </trkpt>
      <trkpt lat="42.62438" lon="1.72567">
        <ele>2143.25</ele>
        <time>2021-08-06T13:29:27Z</time>
      </trkpt>
      <trkpt lat="42.6244" lon="1.72567">
        <ele>2142.328</ele>
        <time>2021-08-06T13:29:29Z</time>
      </trkpt>
      <trkpt lat="42.62442" lon="1.72567">
        <ele>2142.817</ele>
        <time>2021-08-06T13:29:31Z</time>
      </trkpt>
      <trkpt lat="42.62443" lon="1.72566">
        <ele>2142.645</ele>
        <time>2021-08-06T13:29:33Z</time>
      </trkpt>
      <trkpt lat="42.62445" lon="1.72566">
        <ele>2141.177</ele>
        <time>2021-08-06T13:29:35Z</time>
      </trkpt>
      <trkpt lat="42.62447" lon="1.72567">
        <ele>2140.741</ele>
        <time>2021-08-06T13:29:37Z</time>
      </trkpt>
      <trkpt lat="42.62447" lon="1.72569">
        <ele>2139.694</ele>
        <time>2021-08-06T13:29:39Z</time>
      </trkpt>
      <trkpt lat="42.62448" lon="1.72571">
        <ele>2138.991</ele>
        <time>2021-08-06T13:29:41Z</time>
      </trkpt>
      <trkpt lat="42.62449" lon="1.72573">
        <ele>2137.712</ele>
        <time>2021-08-06T13:29:43Z</time>
      </trkpt>
      <trkpt lat="42.6245" lon="1.72574">
        <ele>2137.618</ele>
        <time>2021-08-06T13:29:45Z</time>
      </trkpt>
      <trkpt lat="42.62451" lon="1.72574">
        <ele>2138.303</ele>
        <time>2021-08-06T13:29:47Z</time>
      </trkpt>
      <trkpt lat="42.62453" lon="1.72574">
        <ele>2138.762</ele>
        <time>2021-08-06T13:29:49Z</time>
      </trkpt>
      <trkpt lat="42.62454" lon="1.72575">
        <ele>2138.768</ele>
        <time>2021-08-06T13:29:51Z</time>
      </trkpt>
      <trkpt lat="42.62455" lon="1.72576">
        <ele>2139.097</ele>
        <time>2021-08-06T13:29:53Z</time>
      </trkpt>
      <trkpt lat="42.62456" lon="1.72577">
        <ele>2138.222</ele>
        <time>2021-08-06T13:29:55Z</time>
      </trkpt>
      <trkpt lat="42.62457" lon="1.72577">
        <ele>2138.148</ele>
        <time>2021-08-06T13:29:57Z</time>
      </trkpt>
      <trkpt lat="42.62458" lon="1.72576">
        <ele>2136.975</ele>
        <time>2021-08-06T13:29:59Z</time>
      </trkpt>
      <trkpt lat="42.62459" lon="1.72573">
        <ele>2135.53</ele>
        <time>2021-08-06T13:30:01Z</time>
      </trkpt>
      <trkpt lat="42.6246" lon="1.72572">
        <ele>2134.89</ele>
        <time>2021-08-06T13:30:03Z</time>
      </trkpt>
      <trkpt lat="42.62461" lon="1.72572">
        <ele>2133.894</ele>
        <time>2021-08-06T13:30:05Z</time>
      </trkpt>
      <trkpt lat="42.62463" lon="1.72572">
        <ele>2133.042</ele>
        <time>2021-08-06T13:30:07Z</time>
      </trkpt>
      <trkpt lat="42.62464" lon="1.72573">
        <ele>2131.388</ele>
        <time>2021-08-06T13:30:09Z</time>
      </trkpt>
      <trkpt lat="42.62465" lon="1.72574">
        <ele>2131.525</ele>
        <time>2021-08-06T13:30:11Z</time>
      </trkpt>
      <trkpt lat="42.62466" lon="1.72578">
        <ele>2131.893</ele>
        <time>2021-08-06T13:30:13Z</time>
      </trkpt>
      <trkpt lat="42.62465" lon="1.72581">
        <ele>2130.281</ele>
        <time>2021-08-06T13:30:15Z</time>
      </trkpt>
      <trkpt lat="42.62464" lon="1.72583">
        <ele>2130.165</ele>
        <time>2021-08-06T13:30:17Z</time>
      </trkpt>
      <trkpt lat="42.62464" lon="1.72586">
        <ele>2130.325</ele>
        <time>2021-08-06T13:30:19Z</time>
      </trkpt>
      <trkpt lat="42.62464" lon="1.72588">
        <ele>2131.33</ele>
        <time>2021-08-06T13:30:21Z</time>
      </trkpt>
      <trkpt lat="42.62465" lon="1.7259">
        <ele>2131.317</ele>
        <time>2021-08-06T13:30:23Z</time>
      </trkpt>
      <trkpt lat="42.62467" lon="1.7259">
        <ele>2129.649</ele>
        <time>2021-08-06T13:30:25Z</time>
      </trkpt>
      <trkpt lat="42.6247" lon="1.7259">
        <ele>2128.555</ele>
        <time>2021-08-06T13:30:27Z</time>
      </trkpt>
      <trkpt lat="42.62471" lon="1.72588">
        <ele>2126.833</ele>
        <time>2021-08-06T13:30:29Z</time>
      </trkpt>
      <trkpt lat="42.62473" lon="1.72586">
        <ele>2125.611</ele>
        <time>2021-08-06T13:30:31Z</time>
      </trkpt>
      <trkpt lat="42.62474" lon="1.72589">
        <ele>2124.713</ele>
        <time>2021-08-06T13:30:33Z</time>
      </trkpt>
      <trkpt lat="42.62476" lon="1.72589">
        <ele>2123.348</ele>
        <time>2021-08-06T13:30:35Z</time>
      </trkpt>
      <trkpt lat="42.62477" lon="1.72586">
        <ele>2123.168</ele>
        <time>2021-08-06T13:30:37Z</time>
      </trkpt>
      <trkpt lat="42.62479" lon="1.72585">
        <ele>2122.373</ele>
        <time>2021-08-06T13:30:39Z</time>
      </trkpt>
      <trkpt lat="42.6248" lon="1.72586">
        <ele>2121.9</ele>
        <time>2021-08-06T13:30:41Z</time>
      </trkpt>
      <trkpt lat="42.62481" lon="1.72586">
        <ele>2120.194</ele>
        <time>2021-08-06T13:30:43Z</time>
      </trkpt>
      <trkpt lat="42.62482" lon="1.72587">
        <ele>2118.735</ele>
        <time>2021-08-06T13:30:45Z</time>
      </trkpt>
      <trkpt lat="42.62483" lon="1.72588">
        <ele>2117.973</ele>
        <time>2021-08-06T13:30:47Z</time>
      </trkpt>
      <trkpt lat="42.62485" lon="1.72589">
        <ele>2118.088</ele>
        <time>2021-08-06T13:30:49Z</time>
      </trkpt>
      <trkpt lat="42.62486" lon="1.7259">
        <ele>2118.947</ele>
        <time>2021-08-06T13:30:51Z</time>
      </trkpt>
      <trkpt lat="42.62488" lon="1.72589">
        <ele>2118.229</ele>
        <time>2021-08-06T13:30:53Z</time>
      </trkpt>
      <trkpt lat="42.62489" lon="1.72588">
        <ele>2117.171</ele>
        <time>2021-08-06T13:30:55Z</time>
      </trkpt>
      <trkpt lat="42.6249" lon="1.72588">
        <ele>2116.721</ele>
        <time>2021-08-06T13:30:57Z</time>
      </trkpt>
      <trkpt lat="42.62492" lon="1.72587">
        <ele>2115.579</ele>
        <time>2021-08-06T13:30:59Z</time>
      </trkpt>
      <trkpt lat="42.62493" lon="1.72587">
        <ele>2115.257</ele>
        <time>2021-08-06T13:31:01Z</time>
      </trkpt>
      <trkpt lat="42.62495" lon="1.72586">
        <ele>2114.594</ele>
        <time>2021-08-06T13:31:03Z</time>
      </trkpt>
      <trkpt lat="42.62497" lon="1.72584">
        <ele>2116.76</ele>
        <time>2021-08-06T13:31:05Z</time>
      </trkpt>
      <trkpt lat="42.62498" lon="1.72583">
        <ele>2116.521</ele>
        <time>2021-08-06T13:31:07Z</time>
      </trkpt>
      <trkpt lat="42.625" lon="1.72582">
        <ele>2116.269</ele>
        <time>2021-08-06T13:31:09Z</time>
      </trkpt>
      <trkpt lat="42.62501" lon="1.7258">
        <ele>2116.885</ele>
        <time>2021-08-06T13:31:11Z</time>
      </trkpt>
      <trkpt lat="42.62502" lon="1.72579">
        <ele>2116.791</ele>
        <time>2021-08-06T13:31:13Z</time>
      </trkpt>
      <trkpt lat="42.62504" lon="1.72579">
        <ele>2116.095</ele>
        <time>2021-08-06T13:31:15Z</time>
      </trkpt>
      <trkpt lat="42.62505" lon="1.72577">
        <ele>2115.985</ele>
        <time>2021-08-06T13:31:17Z</time>
      </trkpt>
      <trkpt lat="42.62505" lon="1.72575">
        <ele>2115.875</ele>
        <time>2021-08-06T13:31:19Z</time>
      </trkpt>
      <trkpt lat="42.62506" lon="1.72574">
        <ele>2115.68</ele>
        <time>2021-08-06T13:31:21Z</time>
      </trkpt>
      <trkpt lat="42.62507" lon="1.72571">
        <ele>2115.47</ele>
        <time>2021-08-06T13:31:23Z</time>
      </trkpt>
      <trkpt lat="42.62508" lon="1.7257">
        <ele>2116.004</ele>
        <time>2021-08-06T13:31:25Z</time>
      </trkpt>
      <trkpt lat="42.62509" lon="1.72571">
        <ele>2116.166</ele>
        <time>2021-08-06T13:31:27Z</time>
      </trkpt>
      <trkpt lat="42.62511" lon="1.72572">
        <ele>2115.593</ele>
        <time>2021-08-06T13:31:29Z</time>
      </trkpt>
      <trkpt lat="42.62514" lon="1.72573">
        <ele>2115.685</ele>
        <time>2021-08-06T13:31:31Z</time>
      </trkpt>
      <trkpt lat="42.62516" lon="1.72574">
        <ele>2116.265</ele>
        <time>2021-08-06T13:31:33Z</time>
      </trkpt>
      <trkpt lat="42.62517" lon="1.72576">
        <ele>2116.265</ele>
        <time>2021-08-06T13:31:35Z</time>
      </trkpt>
      <trkpt lat="42.62519" lon="1.72578">
        <ele>2115.475</ele>
        <time>2021-08-06T13:31:37Z</time>
      </trkpt>
      <trkpt lat="42.62521" lon="1.72579">
        <ele>2116.562</ele>
        <time>2021-08-06T13:31:39Z</time>
      </trkpt>
      <trkpt lat="42.62522" lon="1.72581">
        <ele>2116.767</ele>
        <time>2021-08-06T13:31:41Z</time>
      </trkpt>
      <trkpt lat="42.62524" lon="1.72583">
        <ele>2117.351</ele>
        <time>2021-08-06T13:31:43Z</time>
      </trkpt>
      <trkpt lat="42.62526" lon="1.72585">
        <ele>2117.423</ele>
        <time>2021-08-06T13:31:45Z</time>
      </trkpt>
      <trkpt lat="42.62527" lon="1.72587">
        <ele>2118.202</ele>
        <time>2021-08-06T13:31:47Z</time>
      </trkpt>
      <trkpt lat="42.62528" lon="1.72588">
        <ele>2119.148</ele>
        <time>2021-08-06T13:31:49Z</time>
      </trkpt>
      <trkpt lat="42.6253" lon="1.72591">
        <ele>2120.455</ele>
        <time>2021-08-06T13:31:51Z</time>
      </trkpt>
      <trkpt lat="42.6253" lon="1.72594">
        <ele>2118.649</ele>
        <time>2021-08-06T13:31:53Z</time>
      </trkpt>
      <trkpt lat="42.6253" lon="1.72593">
        <ele>2118.262</ele>
        <time>2021-08-06T13:31:55Z</time>
      </trkpt>
      <trkpt lat="42.6253" lon="1.72594">
        <ele>2119.446</ele>
        <time>2021-08-06T13:31:57Z</time>
      </trkpt>
      <trkpt lat="42.62529" lon="1.72596">
        <ele>2118.971</ele>
        <time>2021-08-06T13:31:59Z</time>
      </trkpt>
      <trkpt lat="42.62528" lon="1.72596">
        <ele>2118.95</ele>
        <time>2021-08-06T13:32:01Z</time>
      </trkpt>
      <trkpt lat="42.62528" lon="1.72596">
        <ele>2118.939</ele>
        <time>2021-08-06T13:32:03Z</time>
      </trkpt>
      <trkpt lat="42.62528" lon="1.72596">
        <ele>2118.921</ele>
        <time>2021-08-06T13:32:05Z</time>
      </trkpt>
      <trkpt lat="42.62528" lon="1.72596">
        <ele>2118.923</ele>
        <time>2021-08-06T13:32:07Z</time>
      </trkpt>
      <trkpt lat="42.62528" lon="1.72596">
        <ele>2118.937</ele>
        <time>2021-08-06T13:32:09Z</time>
      </trkpt>
      <trkpt lat="42.62528" lon="1.72596">
        <ele>2118.935</ele>
        <time>2021-08-06T13:32:11Z</time>
      </trkpt>
      <trkpt lat="42.62528" lon="1.72596">
        <ele>2118.935</ele>
        <time>2021-08-06T13:32:13Z</time>
      </trkpt>
      <trkpt lat="42.62528" lon="1.72596">
        <ele>2118.951</ele>
        <time>2021-08-06T13:32:15Z</time>
      </trkpt>
      <trkpt lat="42.62528" lon="1.72596">
        <ele>2120.479</ele>
        <time>2021-08-06T13:32:17Z</time>
      </trkpt>
      <trkpt lat="42.62528" lon="1.72596">
        <ele>2120.462</ele>
        <time>2021-08-06T13:32:19Z</time>
      </trkpt>
      <trkpt lat="42.62529" lon="1.72595">
        <ele>2120.06</ele>
        <time>2021-08-06T13:32:21Z</time>
      </trkpt>
      <trkpt lat="42.62529" lon="1.72595">
        <ele>2120.26</ele>
        <time>2021-08-06T13:32:23Z</time>
      </trkpt>
      <trkpt lat="42.6253" lon="1.72595">
        <ele>2121.023</ele>
        <time>2021-08-06T13:32:25Z</time>
      </trkpt>
      <trkpt lat="42.62531" lon="1.72597">
        <ele>2121.024</ele>
        <time>2021-08-06T13:32:27Z</time>
      </trkpt>
      <trkpt lat="42.62531" lon="1.72596">
        <ele>2121.793</ele>
        <time>2021-08-06T13:32:29Z</time>
      </trkpt>
      <trkpt lat="42.62531" lon="1.72596">
        <ele>2121.736</ele>
        <time>2021-08-06T13:32:31Z</time>
      </trkpt>
      <trkpt lat="42.62532" lon="1.72595">
        <ele>2122.223</ele>
        <time>2021-08-06T13:32:33Z</time>
      </trkpt>
      <trkpt lat="42.62532" lon="1.72595">
        <ele>2122.345</ele>
        <time>2021-08-06T13:32:35Z</time>
      </trkpt>
      <trkpt lat="42.62532" lon="1.72595">
        <ele>2122.326</ele>
        <time>2021-08-06T13:32:37Z</time>
      </trkpt>
      <trkpt lat="42.62532" lon="1.72595">
        <ele>2122.283</ele>
        <time>2021-08-06T13:32:39Z</time>
      </trkpt>
      <trkpt lat="42.62532" lon="1.72595">
        <ele>2122.232</ele>
        <time>2021-08-06T13:32:41Z</time>
      </trkpt>
      <trkpt lat="42.62532" lon="1.72595">
        <ele>2122.123</ele>
        <time>2021-08-06T13:32:43Z</time>
      </trkpt>
      <trkpt lat="42.62532" lon="1.72595">
        <ele>2122.035</ele>
        <time>2021-08-06T13:32:45Z</time>
      </trkpt>
      <trkpt lat="42.62532" lon="1.72595">
        <ele>2122.044</ele>
        <time>2021-08-06T13:32:47Z</time>
      </trkpt>
      <trkpt lat="42.62532" lon="1.72595">
        <ele>2123.037</ele>
        <time>2021-08-06T13:32:49Z</time>
      </trkpt>
      <trkpt lat="42.62532" lon="1.72595">
        <ele>2123.021</ele>
        <time>2021-08-06T13:32:51Z</time>
      </trkpt>
      <trkpt lat="42.62532" lon="1.72595">
        <ele>2122.991</ele>
        <time>2021-08-06T13:32:53Z</time>
      </trkpt>
      <trkpt lat="42.62532" lon="1.72595">
        <ele>2122.978</ele>
        <time>2021-08-06T13:32:55Z</time>
      </trkpt>
      <trkpt lat="42.62532" lon="1.72595">
        <ele>2122.981</ele>
        <time>2021-08-06T13:32:57Z</time>
      </trkpt>
      <trkpt lat="42.62532" lon="1.72595">
        <ele>2122.969</ele>
        <time>2021-08-06T13:32:59Z</time>
      </trkpt>
      <trkpt lat="42.62532" lon="1.72595">
        <ele>2122.956</ele>
        <time>2021-08-06T13:33:01Z</time>
      </trkpt>
      <trkpt lat="42.62532" lon="1.72595">
        <ele>2123.527</ele>
        <time>2021-08-06T13:33:03Z</time>
      </trkpt>
      <trkpt lat="42.62532" lon="1.72595">
        <ele>2123.509</ele>
        <time>2021-08-06T13:33:05Z</time>
      </trkpt>
      <trkpt lat="42.62532" lon="1.72595">
        <ele>2123.52</ele>
        <time>2021-08-06T13:33:07Z</time>
      </trkpt>
      <trkpt lat="42.62532" lon="1.72595">
        <ele>2123.509</ele>
        <time>2021-08-06T13:33:09Z</time>
      </trkpt>
      <trkpt lat="42.62532" lon="1.72595">
        <ele>2123.494</ele>
        <time>2021-08-06T13:33:11Z</time>
      </trkpt>
      <trkpt lat="42.62532" lon="1.72595">
        <ele>2123.285</ele>
        <time>2021-08-06T13:33:13Z</time>
      </trkpt>
      <trkpt lat="42.62533" lon="1.72595">
        <ele>2122.904</ele>
        <time>2021-08-06T13:33:15Z</time>
      </trkpt>
      <trkpt lat="42.62533" lon="1.72595">
        <ele>2122.884</ele>
        <time>2021-08-06T13:33:17Z</time>
      </trkpt>
      <trkpt lat="42.62533" lon="1.72595">
        <ele>2122.86</ele>
        <time>2021-08-06T13:33:19Z</time>
      </trkpt>
      <trkpt lat="42.62533" lon="1.72595">
        <ele>2122.833</ele>
        <time>2021-08-06T13:33:21Z</time>
      </trkpt>
      <trkpt lat="42.62533" lon="1.72595">
        <ele>2122.795</ele>
        <time>2021-08-06T13:33:23Z</time>
      </trkpt>
      <trkpt lat="42.62533" lon="1.72595">
        <ele>2122.776</ele>
        <time>2021-08-06T13:33:25Z</time>
      </trkpt>
      <trkpt lat="42.62533" lon="1.72595">
        <ele>2122.758</ele>
        <time>2021-08-06T13:33:27Z</time>
      </trkpt>
      <trkpt lat="42.62533" lon="1.72595">
        <ele>2122.777</ele>
        <time>2021-08-06T13:33:29Z</time>
      </trkpt>
      <trkpt lat="42.62533" lon="1.72595">
        <ele>2122.785</ele>
        <time>2021-08-06T13:33:31Z</time>
      </trkpt>
      <trkpt lat="42.62533" lon="1.72595">
        <ele>2122.781</ele>
        <time>2021-08-06T13:33:33Z</time>
      </trkpt>
      <trkpt lat="42.62533" lon="1.72595">
        <ele>2122.775</ele>
        <time>2021-08-06T13:33:35Z</time>
      </trkpt>
      <trkpt lat="42.62533" lon="1.72595">
        <ele>2122.75</ele>
        <time>2021-08-06T13:33:37Z</time>
      </trkpt>
      <trkpt lat="42.62533" lon="1.72595">
        <ele>2122.736</ele>
        <time>2021-08-06T13:33:39Z</time>
      </trkpt>
      <trkpt lat="42.62533" lon="1.72595">
        <ele>2122.737</ele>
        <time>2021-08-06T13:33:41Z</time>
      </trkpt>
      <trkpt lat="42.62533" lon="1.72595">
        <ele>2122.746</ele>
        <time>2021-08-06T13:33:43Z</time>
      </trkpt>
      <trkpt lat="42.62533" lon="1.72595">
        <ele>2122.749</ele>
        <time>2021-08-06T13:33:45Z</time>
      </trkpt>
      <trkpt lat="42.62533" lon="1.72595">
        <ele>2122.556</ele>
        <time>2021-08-06T13:33:47Z</time>
      </trkpt>
      <trkpt lat="42.62533" lon="1.72595">
        <ele>2122.568</ele>
        <time>2021-08-06T13:33:49Z</time>
      </trkpt>
      <trkpt lat="42.62533" lon="1.72595">
        <ele>2122.554</ele>
        <time>2021-08-06T13:33:51Z</time>
      </trkpt>
      <trkpt lat="42.62533" lon="1.72595">
        <ele>2122.548</ele>
        <time>2021-08-06T13:33:53Z</time>
      </trkpt>
      <trkpt lat="42.62533" lon="1.72595">
        <ele>2122.498</ele>
        <time>2021-08-06T13:33:55Z</time>
      </trkpt>
      <trkpt lat="42.62533" lon="1.72595">
        <ele>2122.326</ele>
        <time>2021-08-06T13:33:57Z</time>
      </trkpt>
      <trkpt lat="42.62533" lon="1.72595">
        <ele>2123.061</ele>
        <time>2021-08-06T13:33:59Z</time>
      </trkpt>
      <trkpt lat="42.62533" lon="1.72595">
        <ele>2123.04</ele>
        <time>2021-08-06T13:34:01Z</time>
      </trkpt>
      <trkpt lat="42.62533" lon="1.72595">
        <ele>2122.965</ele>
        <time>2021-08-06T13:34:03Z</time>
      </trkpt>
      <trkpt lat="42.62533" lon="1.72595">
        <ele>2122.909</ele>
        <time>2021-08-06T13:34:05Z</time>
      </trkpt>
      <trkpt lat="42.62533" lon="1.72595">
        <ele>2122.887</ele>
        <time>2021-08-06T13:34:07Z</time>
      </trkpt>
      <trkpt lat="42.62533" lon="1.72595">
        <ele>2122.885</ele>
        <time>2021-08-06T13:34:09Z</time>
      </trkpt>
      <trkpt lat="42.62533" lon="1.72595">
        <ele>2122.901</ele>
        <time>2021-08-06T13:34:11Z</time>
      </trkpt>
      <trkpt lat="42.62533" lon="1.72595">
        <ele>2122.906</ele>
        <time>2021-08-06T13:34:13Z</time>
      </trkpt>
      <trkpt lat="42.62533" lon="1.72595">
        <ele>2122.883</ele>
        <time>2021-08-06T13:34:15Z</time>
      </trkpt>
      <trkpt lat="42.62533" lon="1.72595">
        <ele>2122.872</ele>
        <time>2021-08-06T13:34:17Z</time>
      </trkpt>
      <trkpt lat="42.62533" lon="1.72595">
        <ele>2122.82</ele>
        <time>2021-08-06T13:34:19Z</time>
      </trkpt>
      <trkpt lat="42.62533" lon="1.72595">
        <ele>2122.787</ele>
        <time>2021-08-06T13:34:21Z</time>
      </trkpt>
      <trkpt lat="42.62533" lon="1.72595">
        <ele>2122.754</ele>
        <time>2021-08-06T13:34:23Z</time>
      </trkpt>
      <trkpt lat="42.62533" lon="1.72595">
        <ele>2122.732</ele>
        <time>2021-08-06T13:34:25Z</time>
      </trkpt>
      <trkpt lat="42.62533" lon="1.72595">
        <ele>2122.487</ele>
        <time>2021-08-06T13:34:27Z</time>
      </trkpt>
      <trkpt lat="42.62533" lon="1.72594">
        <ele>2122.084</ele>
        <time>2021-08-06T13:34:29Z</time>
      </trkpt>
      <trkpt lat="42.62534" lon="1.72593">
        <ele>2121.375</ele>
        <time>2021-08-06T13:34:31Z</time>
      </trkpt>
      <trkpt lat="42.62535" lon="1.72593">
        <ele>2121.264</ele>
        <time>2021-08-06T13:34:33Z</time>
      </trkpt>
      <trkpt lat="42.62538" lon="1.72592">
        <ele>2121.29</ele>
        <time>2021-08-06T13:34:35Z</time>
      </trkpt>
      <trkpt lat="42.62539" lon="1.7259">
        <ele>2121.018</ele>
        <time>2021-08-06T13:34:37Z</time>
      </trkpt>
      <trkpt lat="42.6254" lon="1.72587">
        <ele>2120.387</ele>
        <time>2021-08-06T13:34:39Z</time>
      </trkpt>
      <trkpt lat="42.62541" lon="1.72586">
        <ele>2120.972</ele>
        <time>2021-08-06T13:34:41Z</time>
      </trkpt>
      <trkpt lat="42.62543" lon="1.72587">
        <ele>2121.623</ele>
        <time>2021-08-06T13:34:43Z</time>
      </trkpt>
      <trkpt lat="42.62544" lon="1.72589">
        <ele>2122.814</ele>
        <time>2021-08-06T13:34:45Z</time>
      </trkpt>
      <trkpt lat="42.62546" lon="1.7259">
        <ele>2123.102</ele>
        <time>2021-08-06T13:34:47Z</time>
      </trkpt>
      <trkpt lat="42.62547" lon="1.7259">
        <ele>2123.193</ele>
        <time>2021-08-06T13:34:49Z</time>
      </trkpt>
      <trkpt lat="42.62549" lon="1.72592">
        <ele>2123.418</ele>
        <time>2021-08-06T13:34:51Z</time>
      </trkpt>
      <trkpt lat="42.62551" lon="1.72592">
        <ele>2123.985</ele>
        <time>2021-08-06T13:34:53Z</time>
      </trkpt>
      <trkpt lat="42.62552" lon="1.72593">
        <ele>2123.117</ele>
        <time>2021-08-06T13:34:55Z</time>
      </trkpt>
      <trkpt lat="42.62554" lon="1.72593">
        <ele>2123.061</ele>
        <time>2021-08-06T13:34:57Z</time>
      </trkpt>
      <trkpt lat="42.62555" lon="1.72594">
        <ele>2122.621</ele>
        <time>2021-08-06T13:34:59Z</time>
      </trkpt>
      <trkpt lat="42.62556" lon="1.72595">
        <ele>2123.141</ele>
        <time>2021-08-06T13:35:01Z</time>
      </trkpt>
      <trkpt lat="42.62557" lon="1.72597">
        <ele>2122.825</ele>
        <time>2021-08-06T13:35:03Z</time>
      </trkpt>
      <trkpt lat="42.62559" lon="1.72597">
        <ele>2122.363</ele>
        <time>2021-08-06T13:35:05Z</time>
      </trkpt>
      <trkpt lat="42.6256" lon="1.72596">
        <ele>2121.845</ele>
        <time>2021-08-06T13:35:07Z</time>
      </trkpt>
      <trkpt lat="42.62562" lon="1.72596">
        <ele>2121.91</ele>
        <time>2021-08-06T13:35:09Z</time>
      </trkpt>
      <trkpt lat="42.62564" lon="1.72597">
        <ele>2121.631</ele>
        <time>2021-08-06T13:35:11Z</time>
      </trkpt>
      <trkpt lat="42.62566" lon="1.72598">
        <ele>2121.456</ele>
        <time>2021-08-06T13:35:13Z</time>
      </trkpt>
      <trkpt lat="42.62567" lon="1.72599">
        <ele>2120.328</ele>
        <time>2021-08-06T13:35:15Z</time>
      </trkpt>
      <trkpt lat="42.62569" lon="1.726">
        <ele>2120.208</ele>
        <time>2021-08-06T13:35:17Z</time>
      </trkpt>
      <trkpt lat="42.6257" lon="1.726">
        <ele>2119.542</ele>
        <time>2021-08-06T13:35:19Z</time>
      </trkpt>
      <trkpt lat="42.62571" lon="1.72602">
        <ele>2119.42</ele>
        <time>2021-08-06T13:35:21Z</time>
      </trkpt>
      <trkpt lat="42.62572" lon="1.72604">
        <ele>2119.623</ele>
        <time>2021-08-06T13:35:23Z</time>
      </trkpt>
      <trkpt lat="42.62574" lon="1.72605">
        <ele>2119.605</ele>
        <time>2021-08-06T13:35:25Z</time>
      </trkpt>
      <trkpt lat="42.62575" lon="1.72606">
        <ele>2119.545</ele>
        <time>2021-08-06T13:35:27Z</time>
      </trkpt>
      <trkpt lat="42.62577" lon="1.72608">
        <ele>2119.656</ele>
        <time>2021-08-06T13:35:29Z</time>
      </trkpt>
      <trkpt lat="42.62578" lon="1.7261">
        <ele>2120.306</ele>
        <time>2021-08-06T13:35:31Z</time>
      </trkpt>
      <trkpt lat="42.6258" lon="1.7261">
        <ele>2120.626</ele>
        <time>2021-08-06T13:35:33Z</time>
      </trkpt>
      <trkpt lat="42.62582" lon="1.72612">
        <ele>2120.272</ele>
        <time>2021-08-06T13:35:35Z</time>
      </trkpt>
      <trkpt lat="42.62584" lon="1.72613">
        <ele>2120.079</ele>
        <time>2021-08-06T13:35:37Z</time>
      </trkpt>
      <trkpt lat="42.62586" lon="1.72616">
        <ele>2120.176</ele>
        <time>2021-08-06T13:35:39Z</time>
      </trkpt>
      <trkpt lat="42.62588" lon="1.72617">
        <ele>2120.212</ele>
        <time>2021-08-06T13:35:41Z</time>
      </trkpt>
      <trkpt lat="42.6259" lon="1.72618">
        <ele>2120.963</ele>
        <time>2021-08-06T13:35:43Z</time>
      </trkpt>
      <trkpt lat="42.62592" lon="1.72618">
        <ele>2121.757</ele>
        <time>2021-08-06T13:35:45Z</time>
      </trkpt>
      <trkpt lat="42.62594" lon="1.7262">
        <ele>2122.075</ele>
        <time>2021-08-06T13:35:47Z</time>
      </trkpt>
      <trkpt lat="42.62596" lon="1.72622">
        <ele>2121.554</ele>
        <time>2021-08-06T13:35:49Z</time>
      </trkpt>
      <trkpt lat="42.62598" lon="1.72623">
        <ele>2121.988</ele>
        <time>2021-08-06T13:35:51Z</time>
      </trkpt>
      <trkpt lat="42.626" lon="1.72624">
        <ele>2122.003</ele>
        <time>2021-08-06T13:35:53Z</time>
      </trkpt>
      <trkpt lat="42.62601" lon="1.72625">
        <ele>2122.007</ele>
        <time>2021-08-06T13:35:55Z</time>
      </trkpt>
      <trkpt lat="42.62603" lon="1.72625">
        <ele>2122.513</ele>
        <time>2021-08-06T13:35:57Z</time>
      </trkpt>
      <trkpt lat="42.62605" lon="1.72625">
        <ele>2122.195</ele>
        <time>2021-08-06T13:35:59Z</time>
      </trkpt>
      <trkpt lat="42.62607" lon="1.72624">
        <ele>2121.648</ele>
        <time>2021-08-06T13:36:01Z</time>
      </trkpt>
      <trkpt lat="42.62609" lon="1.72625">
        <ele>2121.81</ele>
        <time>2021-08-06T13:36:03Z</time>
      </trkpt>
      <trkpt lat="42.62611" lon="1.72626">
        <ele>2121.353</ele>
        <time>2021-08-06T13:36:05Z</time>
      </trkpt>
      <trkpt lat="42.62613" lon="1.72626">
        <ele>2121.136</ele>
        <time>2021-08-06T13:36:07Z</time>
      </trkpt>
      <trkpt lat="42.62615" lon="1.72626">
        <ele>2121.279</ele>
        <time>2021-08-06T13:36:09Z</time>
      </trkpt>
      <trkpt lat="42.62617" lon="1.72625">
        <ele>2121.306</ele>
        <time>2021-08-06T13:36:11Z</time>
      </trkpt>
      <trkpt lat="42.62618" lon="1.72624">
        <ele>2120.792</ele>
        <time>2021-08-06T13:36:13Z</time>
      </trkpt>
      <trkpt lat="42.62621" lon="1.72624">
        <ele>2120.54</ele>
        <time>2021-08-06T13:36:15Z</time>
      </trkpt>
      <trkpt lat="42.62623" lon="1.72623">
        <ele>2120.082</ele>
        <time>2021-08-06T13:36:17Z</time>
      </trkpt>
      <trkpt lat="42.62624" lon="1.72623">
        <ele>2120.791</ele>
        <time>2021-08-06T13:36:19Z</time>
      </trkpt>
      <trkpt lat="42.62626" lon="1.72621">
        <ele>2121.028</ele>
        <time>2021-08-06T13:36:21Z</time>
      </trkpt>
      <trkpt lat="42.62628" lon="1.72622">
        <ele>2121.501</ele>
        <time>2021-08-06T13:36:23Z</time>
      </trkpt>
      <trkpt lat="42.6263" lon="1.72622">
        <ele>2121.528</ele>
        <time>2021-08-06T13:36:25Z</time>
      </trkpt>
      <trkpt lat="42.62632" lon="1.72623">
        <ele>2121.714</ele>
        <time>2021-08-06T13:36:27Z</time>
      </trkpt>
      <trkpt lat="42.62634" lon="1.72623">
        <ele>2121.577</ele>
        <time>2021-08-06T13:36:29Z</time>
      </trkpt>
      <trkpt lat="42.62636" lon="1.72623">
        <ele>2121.587</ele>
        <time>2021-08-06T13:36:31Z</time>
      </trkpt>
      <trkpt lat="42.62639" lon="1.72623">
        <ele>2122.283</ele>
        <time>2021-08-06T13:36:33Z</time>
      </trkpt>
      <trkpt lat="42.62641" lon="1.72622">
        <ele>2122.184</ele>
        <time>2021-08-06T13:36:35Z</time>
      </trkpt>
      <trkpt lat="42.62643" lon="1.72623">
        <ele>2122.297</ele>
        <time>2021-08-06T13:36:37Z</time>
      </trkpt>
      <trkpt lat="42.62644" lon="1.72622">
        <ele>2122.997</ele>
        <time>2021-08-06T13:36:39Z</time>
      </trkpt>
      <trkpt lat="42.62646" lon="1.72622">
        <ele>2122.824</ele>
        <time>2021-08-06T13:36:41Z</time>
      </trkpt>
      <trkpt lat="42.62648" lon="1.72623">
        <ele>2122.987</ele>
        <time>2021-08-06T13:36:43Z</time>
      </trkpt>
      <trkpt lat="42.6265" lon="1.72623">
        <ele>2122.799</ele>
        <time>2021-08-06T13:36:45Z</time>
      </trkpt>
      <trkpt lat="42.62652" lon="1.72624">
        <ele>2122.584</ele>
        <time>2021-08-06T13:36:47Z</time>
      </trkpt>
      <trkpt lat="42.62654" lon="1.72625">
        <ele>2123.141</ele>
        <time>2021-08-06T13:36:49Z</time>
      </trkpt>
      <trkpt lat="42.62656" lon="1.72627">
        <ele>2123.695</ele>
        <time>2021-08-06T13:36:51Z</time>
      </trkpt>
      <trkpt lat="42.62657" lon="1.72629">
        <ele>2123.167</ele>
        <time>2021-08-06T13:36:53Z</time>
      </trkpt>
      <trkpt lat="42.62659" lon="1.72631">
        <ele>2123.359</ele>
        <time>2021-08-06T13:36:55Z</time>
      </trkpt>
      <trkpt lat="42.6266" lon="1.72632">
        <ele>2123.432</ele>
        <time>2021-08-06T13:36:57Z</time>
      </trkpt>
      <trkpt lat="42.62662" lon="1.72634">
        <ele>2123.765</ele>
        <time>2021-08-06T13:36:59Z</time>
      </trkpt>
      <trkpt lat="42.62663" lon="1.72637">
        <ele>2124.056</ele>
        <time>2021-08-06T13:37:01Z</time>
      </trkpt>
      <trkpt lat="42.62665" lon="1.72641">
        <ele>2124.466</ele>
        <time>2021-08-06T13:37:03Z</time>
      </trkpt>
      <trkpt lat="42.62667" lon="1.72645">
        <ele>2125.757</ele>
        <time>2021-08-06T13:37:05Z</time>
      </trkpt>
      <trkpt lat="42.62669" lon="1.72648">
        <ele>2126.457</ele>
        <time>2021-08-06T13:37:07Z</time>
      </trkpt>
      <trkpt lat="42.62671" lon="1.72648">
        <ele>2126.573</ele>
        <time>2021-08-06T13:37:09Z</time>
      </trkpt>
      <trkpt lat="42.62673" lon="1.72648">
        <ele>2126.465</ele>
        <time>2021-08-06T13:37:11Z</time>
      </trkpt>
      <trkpt lat="42.62674" lon="1.72649">
        <ele>2125.957</ele>
        <time>2021-08-06T13:37:13Z</time>
      </trkpt>
      <trkpt lat="42.62674" lon="1.72652">
        <ele>2126.668</ele>
        <time>2021-08-06T13:37:15Z</time>
      </trkpt>
      <trkpt lat="42.62676" lon="1.72653">
        <ele>2125.91</ele>
        <time>2021-08-06T13:37:17Z</time>
      </trkpt>
      <trkpt lat="42.62677" lon="1.72653">
        <ele>2125.293</ele>
        <time>2021-08-06T13:37:19Z</time>
      </trkpt>
      <trkpt lat="42.62679" lon="1.72654">
        <ele>2125.299</ele>
        <time>2021-08-06T13:37:21Z</time>
      </trkpt>
      <trkpt lat="42.6268" lon="1.72655">
        <ele>2125.08</ele>
        <time>2021-08-06T13:37:23Z</time>
      </trkpt>
      <trkpt lat="42.62683" lon="1.72655">
        <ele>2125.936</ele>
        <time>2021-08-06T13:37:25Z</time>
      </trkpt>
      <trkpt lat="42.62684" lon="1.72656">
        <ele>2126.646</ele>
        <time>2021-08-06T13:37:27Z</time>
      </trkpt>
      <trkpt lat="42.62686" lon="1.72656">
        <ele>2126.512</ele>
        <time>2021-08-06T13:37:29Z</time>
      </trkpt>
      <trkpt lat="42.62688" lon="1.72655">
        <ele>2126.299</ele>
        <time>2021-08-06T13:37:31Z</time>
      </trkpt>
      <trkpt lat="42.6269" lon="1.72655">
        <ele>2126.711</ele>
        <time>2021-08-06T13:37:33Z</time>
      </trkpt>
      <trkpt lat="42.62692" lon="1.72654">
        <ele>2125.992</ele>
        <time>2021-08-06T13:37:35Z</time>
      </trkpt>
      <trkpt lat="42.62694" lon="1.72653">
        <ele>2124.62</ele>
        <time>2021-08-06T13:37:37Z</time>
      </trkpt>
      <trkpt lat="42.62696" lon="1.72654">
        <ele>2124.087</ele>
        <time>2021-08-06T13:37:39Z</time>
      </trkpt>
      <trkpt lat="42.62697" lon="1.72656">
        <ele>2123.541</ele>
        <time>2021-08-06T13:37:41Z</time>
      </trkpt>
      <trkpt lat="42.62699" lon="1.72658">
        <ele>2123.982</ele>
        <time>2021-08-06T13:37:43Z</time>
      </trkpt>
      <trkpt lat="42.62701" lon="1.72659">
        <ele>2123.693</ele>
        <time>2021-08-06T13:37:45Z</time>
      </trkpt>
      <trkpt lat="42.62703" lon="1.72659">
        <ele>2123.71</ele>
        <time>2021-08-06T13:37:47Z</time>
      </trkpt>
      <trkpt lat="42.62705" lon="1.72659">
        <ele>2123.348</ele>
        <time>2021-08-06T13:37:49Z</time>
      </trkpt>
      <trkpt lat="42.62707" lon="1.7266">
        <ele>2123.26</ele>
        <time>2021-08-06T13:37:51Z</time>
      </trkpt>
      <trkpt lat="42.62709" lon="1.7266">
        <ele>2123.329</ele>
        <time>2021-08-06T13:37:53Z</time>
      </trkpt>
      <trkpt lat="42.62711" lon="1.7266">
        <ele>2124.469</ele>
        <time>2021-08-06T13:37:55Z</time>
      </trkpt>
      <trkpt lat="42.62712" lon="1.7266">
        <ele>2124.215</ele>
        <time>2021-08-06T13:37:57Z</time>
      </trkpt>
      <trkpt lat="42.62714" lon="1.72661">
        <ele>2123.777</ele>
        <time>2021-08-06T13:37:59Z</time>
      </trkpt>
      <trkpt lat="42.62716" lon="1.7266">
        <ele>2123.448</ele>
        <time>2021-08-06T13:38:01Z</time>
      </trkpt>
      <trkpt lat="42.62717" lon="1.72663">
        <ele>2123.436</ele>
        <time>2021-08-06T13:38:03Z</time>
      </trkpt>
      <trkpt lat="42.62719" lon="1.72666">
        <ele>2123.96</ele>
        <time>2021-08-06T13:38:05Z</time>
      </trkpt>
      <trkpt lat="42.6272" lon="1.72668">
        <ele>2125.791</ele>
        <time>2021-08-06T13:38:07Z</time>
      </trkpt>
      <trkpt lat="42.62721" lon="1.72671">
        <ele>2126.607</ele>
        <time>2021-08-06T13:38:09Z</time>
      </trkpt>
      <trkpt lat="42.62722" lon="1.72672">
        <ele>2127.259</ele>
        <time>2021-08-06T13:38:11Z</time>
      </trkpt>
      <trkpt lat="42.62723" lon="1.72673">
        <ele>2127.991</ele>
        <time>2021-08-06T13:38:13Z</time>
      </trkpt>
      <trkpt lat="42.62725" lon="1.72674">
        <ele>2128.012</ele>
        <time>2021-08-06T13:38:15Z</time>
      </trkpt>
      <trkpt lat="42.62726" lon="1.72676">
        <ele>2127.532</ele>
        <time>2021-08-06T13:38:17Z</time>
      </trkpt>
      <trkpt lat="42.62727" lon="1.72677">
        <ele>2127.333</ele>
        <time>2021-08-06T13:38:19Z</time>
      </trkpt>
      <trkpt lat="42.62729" lon="1.72679">
        <ele>2127.208</ele>
        <time>2021-08-06T13:38:21Z</time>
      </trkpt>
      <trkpt lat="42.6273" lon="1.72681">
        <ele>2127.678</ele>
        <time>2021-08-06T13:38:23Z</time>
      </trkpt>
      <trkpt lat="42.62731" lon="1.72683">
        <ele>2127.552</ele>
        <time>2021-08-06T13:38:25Z</time>
      </trkpt>
      <trkpt lat="42.62733" lon="1.72685">
        <ele>2127.968</ele>
        <time>2021-08-06T13:38:27Z</time>
      </trkpt>
      <trkpt lat="42.62734" lon="1.72686">
        <ele>2128.013</ele>
        <time>2021-08-06T13:38:29Z</time>
      </trkpt>
      <trkpt lat="42.62735" lon="1.72687">
        <ele>2127.916</ele>
        <time>2021-08-06T13:38:31Z</time>
      </trkpt>
      <trkpt lat="42.62736" lon="1.72688">
        <ele>2128.215</ele>
        <time>2021-08-06T13:38:33Z</time>
      </trkpt>
      <trkpt lat="42.62738" lon="1.72689">
        <ele>2128.363</ele>
        <time>2021-08-06T13:38:35Z</time>
      </trkpt>
      <trkpt lat="42.62738" lon="1.72691">
        <ele>2128.038</ele>
        <time>2021-08-06T13:38:37Z</time>
      </trkpt>
      <trkpt lat="42.62737" lon="1.72692">
        <ele>2128.295</ele>
        <time>2021-08-06T13:38:39Z</time>
      </trkpt>
      <trkpt lat="42.62737" lon="1.72692">
        <ele>2128.388</ele>
        <time>2021-08-06T13:38:41Z</time>
      </trkpt>
      <trkpt lat="42.62737" lon="1.72692">
        <ele>2128.145</ele>
        <time>2021-08-06T13:38:43Z</time>
      </trkpt>
      <trkpt lat="42.62735" lon="1.72693">
        <ele>2128.09</ele>
        <time>2021-08-06T13:38:45Z</time>
      </trkpt>
      <trkpt lat="42.62735" lon="1.72693">
        <ele>2128.088</ele>
        <time>2021-08-06T13:38:47Z</time>
      </trkpt>
      <trkpt lat="42.62735" lon="1.72693">
        <ele>2128.074</ele>
        <time>2021-08-06T13:38:49Z</time>
      </trkpt>
      <trkpt lat="42.62735" lon="1.72693">
        <ele>2128.066</ele>
        <time>2021-08-06T13:38:51Z</time>
      </trkpt>
      <trkpt lat="42.62735" lon="1.72693">
        <ele>2127.997</ele>
        <time>2021-08-06T13:38:53Z</time>
      </trkpt>
      <trkpt lat="42.62735" lon="1.72693">
        <ele>2128.002</ele>
        <time>2021-08-06T13:38:55Z</time>
      </trkpt>
      <trkpt lat="42.62735" lon="1.72693">
        <ele>2127.995</ele>
        <time>2021-08-06T13:38:57Z</time>
      </trkpt>
      <trkpt lat="42.62735" lon="1.72693">
        <ele>2128.016</ele>
        <time>2021-08-06T13:38:59Z</time>
      </trkpt>
      <trkpt lat="42.62734" lon="1.72693">
        <ele>2127.499</ele>
        <time>2021-08-06T13:39:01Z</time>
      </trkpt>
      <trkpt lat="42.62733" lon="1.72692">
        <ele>2127.056</ele>
        <time>2021-08-06T13:39:03Z</time>
      </trkpt>
      <trkpt lat="42.62733" lon="1.72692">
        <ele>2127.066</ele>
        <time>2021-08-06T13:39:05Z</time>
      </trkpt>
      <trkpt lat="42.62733" lon="1.72692">
        <ele>2127.06</ele>
        <time>2021-08-06T13:39:07Z</time>
      </trkpt>
      <trkpt lat="42.62733" lon="1.72692">
        <ele>2126.934</ele>
        <time>2021-08-06T13:39:09Z</time>
      </trkpt>
      <trkpt lat="42.62733" lon="1.72691">
        <ele>2127.016</ele>
        <time>2021-08-06T13:39:11Z</time>
      </trkpt>
      <trkpt lat="42.62733" lon="1.72691">
        <ele>2127.067</ele>
        <time>2021-08-06T13:39:13Z</time>
      </trkpt>
      <trkpt lat="42.62731" lon="1.72688">
        <ele>2127.558</ele>
        <time>2021-08-06T13:39:15Z</time>
      </trkpt>
      <trkpt lat="42.62732" lon="1.72688">
        <ele>2127.51</ele>
        <time>2021-08-06T13:39:17Z</time>
      </trkpt>
      <trkpt lat="42.62732" lon="1.72688">
        <ele>2127.536</ele>
        <time>2021-08-06T13:39:19Z</time>
      </trkpt>
      <trkpt lat="42.62732" lon="1.72688">
        <ele>2127.526</ele>
        <time>2021-08-06T13:39:21Z</time>
      </trkpt>
      <trkpt lat="42.62732" lon="1.72689">
        <ele>2128.014</ele>
        <time>2021-08-06T13:39:23Z</time>
      </trkpt>
      <trkpt lat="42.62732" lon="1.72689">
        <ele>2128.019</ele>
        <time>2021-08-06T13:39:25Z</time>
      </trkpt>
      <trkpt lat="42.62732" lon="1.72689">
        <ele>2128.029</ele>
        <time>2021-08-06T13:39:27Z</time>
      </trkpt>
      <trkpt lat="42.62732" lon="1.72689">
        <ele>2128.032</ele>
        <time>2021-08-06T13:39:29Z</time>
      </trkpt>
      <trkpt lat="42.62732" lon="1.72689">
        <ele>2127.851</ele>
        <time>2021-08-06T13:39:31Z</time>
      </trkpt>
      <trkpt lat="42.62732" lon="1.72689">
        <ele>2127.85</ele>
        <time>2021-08-06T13:39:33Z</time>
      </trkpt>
      <trkpt lat="42.62732" lon="1.72689">
        <ele>2127.865</ele>
        <time>2021-08-06T13:39:35Z</time>
      </trkpt>
      <trkpt lat="42.62732" lon="1.72689">
        <ele>2127.878</ele>
        <time>2021-08-06T13:39:37Z</time>
      </trkpt>
      <trkpt lat="42.62732" lon="1.72689">
        <ele>2127.876</ele>
        <time>2021-08-06T13:39:39Z</time>
      </trkpt>
      <trkpt lat="42.62732" lon="1.72688">
        <ele>2128.594</ele>
        <time>2021-08-06T13:39:41Z</time>
      </trkpt>
      <trkpt lat="42.62732" lon="1.72688">
        <ele>2128.659</ele>
        <time>2021-08-06T13:39:43Z</time>
      </trkpt>
      <trkpt lat="42.62732" lon="1.72687">
        <ele>2128.619</ele>
        <time>2021-08-06T13:39:45Z</time>
      </trkpt>
      <trkpt lat="42.62732" lon="1.72687">
        <ele>2128.094</ele>
        <time>2021-08-06T13:39:47Z</time>
      </trkpt>
      <trkpt lat="42.62732" lon="1.72686">
        <ele>2128.077</ele>
        <time>2021-08-06T13:39:49Z</time>
      </trkpt>
      <trkpt lat="42.62732" lon="1.72686">
        <ele>2128.08</ele>
        <time>2021-08-06T13:39:51Z</time>
      </trkpt>
      <trkpt lat="42.62732" lon="1.72686">
        <ele>2128.094</ele>
        <time>2021-08-06T13:39:53Z</time>
      </trkpt>
      <trkpt lat="42.62733" lon="1.72686">
        <ele>2128.678</ele>
        <time>2021-08-06T13:39:55Z</time>
      </trkpt>
      <trkpt lat="42.62733" lon="1.72686">
        <ele>2128.677</ele>
        <time>2021-08-06T13:39:57Z</time>
      </trkpt>
      <trkpt lat="42.62733" lon="1.72686">
        <ele>2128.673</ele>
        <time>2021-08-06T13:39:59Z</time>
      </trkpt>
      <trkpt lat="42.62733" lon="1.72686">
        <ele>2128.683</ele>
        <time>2021-08-06T13:40:01Z</time>
      </trkpt>
      <trkpt lat="42.62733" lon="1.72686">
        <ele>2128.504</ele>
        <time>2021-08-06T13:40:03Z</time>
      </trkpt>
      <trkpt lat="42.62733" lon="1.72686">
        <ele>2129.12</ele>
        <time>2021-08-06T13:40:05Z</time>
      </trkpt>
      <trkpt lat="42.62733" lon="1.72686">
        <ele>2128.701</ele>
        <time>2021-08-06T13:40:07Z</time>
      </trkpt>
      <trkpt lat="42.62733" lon="1.72686">
        <ele>2128.681</ele>
        <time>2021-08-06T13:40:09Z</time>
      </trkpt>
      <trkpt lat="42.62733" lon="1.72686">
        <ele>2128.681</ele>
        <time>2021-08-06T13:40:11Z</time>
      </trkpt>
      <trkpt lat="42.62733" lon="1.72686">
        <ele>2128.675</ele>
        <time>2021-08-06T13:40:13Z</time>
      </trkpt>
      <trkpt lat="42.62733" lon="1.72686">
        <ele>2128.67</ele>
        <time>2021-08-06T13:40:15Z</time>
      </trkpt>
      <trkpt lat="42.62733" lon="1.72686">
        <ele>2128.672</ele>
        <time>2021-08-06T13:40:17Z</time>
      </trkpt>
      <trkpt lat="42.62733" lon="1.72686">
        <ele>2128.667</ele>
        <time>2021-08-06T13:40:19Z</time>
      </trkpt>
      <trkpt lat="42.62733" lon="1.72686">
        <ele>2128.674</ele>
        <time>2021-08-06T13:40:21Z</time>
      </trkpt>
      <trkpt lat="42.62733" lon="1.72686">
        <ele>2128.675</ele>
        <time>2021-08-06T13:40:23Z</time>
      </trkpt>
      <trkpt lat="42.62733" lon="1.72686">
        <ele>2128.691</ele>
        <time>2021-08-06T13:40:25Z</time>
      </trkpt>
      <trkpt lat="42.62733" lon="1.72686">
        <ele>2128.696</ele>
        <time>2021-08-06T13:40:27Z</time>
      </trkpt>
      <trkpt lat="42.62733" lon="1.72686">
        <ele>2128.693</ele>
        <time>2021-08-06T13:40:29Z</time>
      </trkpt>
      <trkpt lat="42.62733" lon="1.72686">
        <ele>2128.687</ele>
        <time>2021-08-06T13:40:31Z</time>
      </trkpt>
      <trkpt lat="42.62733" lon="1.72686">
        <ele>2128.697</ele>
        <time>2021-08-06T13:40:33Z</time>
      </trkpt>
      <trkpt lat="42.62733" lon="1.72686">
        <ele>2128.705</ele>
        <time>2021-08-06T13:40:35Z</time>
      </trkpt>
      <trkpt lat="42.62733" lon="1.72686">
        <ele>2128.709</ele>
        <time>2021-08-06T13:40:37Z</time>
      </trkpt>
      <trkpt lat="42.62733" lon="1.72686">
        <ele>2128.705</ele>
        <time>2021-08-06T13:40:39Z</time>
      </trkpt>
      <trkpt lat="42.62733" lon="1.72686">
        <ele>2128.697</ele>
        <time>2021-08-06T13:40:41Z</time>
      </trkpt>
      <trkpt lat="42.62733" lon="1.72686">
        <ele>2128.702</ele>
        <time>2021-08-06T13:40:43Z</time>
      </trkpt>
      <trkpt lat="42.62733" lon="1.72686">
        <ele>2128.699</ele>
        <time>2021-08-06T13:40:45Z</time>
      </trkpt>
      <trkpt lat="42.62733" lon="1.72686">
        <ele>2128.689</ele>
        <time>2021-08-06T13:40:47Z</time>
      </trkpt>
      <trkpt lat="42.62733" lon="1.72686">
        <ele>2128.692</ele>
        <time>2021-08-06T13:40:49Z</time>
      </trkpt>
      <trkpt lat="42.62733" lon="1.72686">
        <ele>2128.694</ele>
        <time>2021-08-06T13:40:51Z</time>
      </trkpt>
      <trkpt lat="42.62733" lon="1.72686">
        <ele>2128.709</ele>
        <time>2021-08-06T13:40:53Z</time>
      </trkpt>
      <trkpt lat="42.62733" lon="1.72686">
        <ele>2128.715</ele>
        <time>2021-08-06T13:40:55Z</time>
      </trkpt>
      <trkpt lat="42.62733" lon="1.72686">
        <ele>2128.718</ele>
        <time>2021-08-06T13:40:57Z</time>
      </trkpt>
      <trkpt lat="42.62733" lon="1.72686">
        <ele>2128.718</ele>
        <time>2021-08-06T13:40:59Z</time>
      </trkpt>
      <trkpt lat="42.62733" lon="1.72686">
        <ele>2128.719</ele>
        <time>2021-08-06T13:41:01Z</time>
      </trkpt>
      <trkpt lat="42.62733" lon="1.72686">
        <ele>2128.718</ele>
        <time>2021-08-06T13:41:03Z</time>
      </trkpt>
      <trkpt lat="42.62733" lon="1.72686">
        <ele>2128.702</ele>
        <time>2021-08-06T13:41:05Z</time>
      </trkpt>
      <trkpt lat="42.62733" lon="1.72686">
        <ele>2128.716</ele>
        <time>2021-08-06T13:41:07Z</time>
      </trkpt>
      <trkpt lat="42.62733" lon="1.72686">
        <ele>2128.713</ele>
        <time>2021-08-06T13:41:09Z</time>
      </trkpt>
      <trkpt lat="42.62733" lon="1.72686">
        <ele>2128.711</ele>
        <time>2021-08-06T13:41:11Z</time>
      </trkpt>
      <trkpt lat="42.62733" lon="1.72686">
        <ele>2128.697</ele>
        <time>2021-08-06T13:41:13Z</time>
      </trkpt>
      <trkpt lat="42.62733" lon="1.72686">
        <ele>2128.99</ele>
        <time>2021-08-06T13:41:15Z</time>
      </trkpt>
      <trkpt lat="42.62733" lon="1.72686">
        <ele>2128.994</ele>
        <time>2021-08-06T13:41:17Z</time>
      </trkpt>
      <trkpt lat="42.62733" lon="1.72686">
        <ele>2128.994</ele>
        <time>2021-08-06T13:41:19Z</time>
      </trkpt>
      <trkpt lat="42.62733" lon="1.72686">
        <ele>2128.993</ele>
        <time>2021-08-06T13:41:21Z</time>
      </trkpt>
      <trkpt lat="42.62733" lon="1.72686">
        <ele>2129</ele>
        <time>2021-08-06T13:41:23Z</time>
      </trkpt>
      <trkpt lat="42.62733" lon="1.72686">
        <ele>2129.005</ele>
        <time>2021-08-06T13:41:25Z</time>
      </trkpt>
      <trkpt lat="42.62733" lon="1.72686">
        <ele>2129.006</ele>
        <time>2021-08-06T13:41:27Z</time>
      </trkpt>
      <trkpt lat="42.62733" lon="1.72686">
        <ele>2129.008</ele>
        <time>2021-08-06T13:41:29Z</time>
      </trkpt>
      <trkpt lat="42.62733" lon="1.72686">
        <ele>2129.021</ele>
        <time>2021-08-06T13:41:31Z</time>
      </trkpt>
      <trkpt lat="42.62733" lon="1.72686">
        <ele>2129.024</ele>
        <time>2021-08-06T13:41:33Z</time>
      </trkpt>
      <trkpt lat="42.62733" lon="1.72686">
        <ele>2129.075</ele>
        <time>2021-08-06T13:41:35Z</time>
      </trkpt>
      <trkpt lat="42.62733" lon="1.72686">
        <ele>2129.072</ele>
        <time>2021-08-06T13:41:37Z</time>
      </trkpt>
      <trkpt lat="42.62733" lon="1.72686">
        <ele>2129.072</ele>
        <time>2021-08-06T13:41:39Z</time>
      </trkpt>
      <trkpt lat="42.62733" lon="1.72686">
        <ele>2129.08</ele>
        <time>2021-08-06T13:41:41Z</time>
      </trkpt>
      <trkpt lat="42.62733" lon="1.72686">
        <ele>2129.086</ele>
        <time>2021-08-06T13:41:43Z</time>
      </trkpt>
      <trkpt lat="42.62733" lon="1.72686">
        <ele>2129.09</ele>
        <time>2021-08-06T13:41:45Z</time>
      </trkpt>
      <trkpt lat="42.62733" lon="1.72686">
        <ele>2129.099</ele>
        <time>2021-08-06T13:41:47Z</time>
      </trkpt>
      <trkpt lat="42.62733" lon="1.72686">
        <ele>2129.106</ele>
        <time>2021-08-06T13:41:49Z</time>
      </trkpt>
      <trkpt lat="42.62733" lon="1.72686">
        <ele>2129.106</ele>
        <time>2021-08-06T13:41:51Z</time>
      </trkpt>
      <trkpt lat="42.62733" lon="1.72686">
        <ele>2129.107</ele>
        <time>2021-08-06T13:41:53Z</time>
      </trkpt>
      <trkpt lat="42.62733" lon="1.72686">
        <ele>2129.101</ele>
        <time>2021-08-06T13:41:55Z</time>
      </trkpt>
      <trkpt lat="42.62733" lon="1.72686">
        <ele>2129.098</ele>
        <time>2021-08-06T13:41:57Z</time>
      </trkpt>
      <trkpt lat="42.62733" lon="1.72687">
        <ele>2128.646</ele>
        <time>2021-08-06T13:41:59Z</time>
      </trkpt>
      <trkpt lat="42.62733" lon="1.72687">
        <ele>2128.627</ele>
        <time>2021-08-06T13:42:01Z</time>
      </trkpt>
      <trkpt lat="42.62733" lon="1.72687">
        <ele>2128.625</ele>
        <time>2021-08-06T13:42:03Z</time>
      </trkpt>
      <trkpt lat="42.62733" lon="1.72687">
        <ele>2128.628</ele>
        <time>2021-08-06T13:42:05Z</time>
      </trkpt>
      <trkpt lat="42.62733" lon="1.72687">
        <ele>2128.624</ele>
        <time>2021-08-06T13:42:07Z</time>
      </trkpt>
      <trkpt lat="42.62733" lon="1.72687">
        <ele>2128.625</ele>
        <time>2021-08-06T13:42:09Z</time>
      </trkpt>
      <trkpt lat="42.62734" lon="1.72687">
        <ele>2129.095</ele>
        <time>2021-08-06T13:42:11Z</time>
      </trkpt>
      <trkpt lat="42.62734" lon="1.72686">
        <ele>2129.106</ele>
        <time>2021-08-06T13:42:13Z</time>
      </trkpt>
      <trkpt lat="42.62734" lon="1.72686">
        <ele>2129.099</ele>
        <time>2021-08-06T13:42:15Z</time>
      </trkpt>
      <trkpt lat="42.62734" lon="1.72686">
        <ele>2129.092</ele>
        <time>2021-08-06T13:42:17Z</time>
      </trkpt>
      <trkpt lat="42.62734" lon="1.72686">
        <ele>2129.094</ele>
        <time>2021-08-06T13:42:19Z</time>
      </trkpt>
      <trkpt lat="42.62734" lon="1.72686">
        <ele>2129.096</ele>
        <time>2021-08-06T13:42:21Z</time>
      </trkpt>
      <trkpt lat="42.62734" lon="1.72686">
        <ele>2129.099</ele>
        <time>2021-08-06T13:42:23Z</time>
      </trkpt>
      <trkpt lat="42.62734" lon="1.72686">
        <ele>2129.097</ele>
        <time>2021-08-06T13:42:25Z</time>
      </trkpt>
      <trkpt lat="42.62734" lon="1.72686">
        <ele>2129.1</ele>
        <time>2021-08-06T13:42:27Z</time>
      </trkpt>
      <trkpt lat="42.62734" lon="1.72686">
        <ele>2129.091</ele>
        <time>2021-08-06T13:42:29Z</time>
      </trkpt>
      <trkpt lat="42.62734" lon="1.72686">
        <ele>2129.072</ele>
        <time>2021-08-06T13:42:31Z</time>
      </trkpt>
      <trkpt lat="42.62734" lon="1.72686">
        <ele>2129.068</ele>
        <time>2021-08-06T13:42:33Z</time>
      </trkpt>
      <trkpt lat="42.62734" lon="1.72686">
        <ele>2129.06</ele>
        <time>2021-08-06T13:42:35Z</time>
      </trkpt>
      <trkpt lat="42.62734" lon="1.72686">
        <ele>2129.057</ele>
        <time>2021-08-06T13:42:37Z</time>
      </trkpt>
      <trkpt lat="42.62734" lon="1.72686">
        <ele>2129.047</ele>
        <time>2021-08-06T13:42:39Z</time>
      </trkpt>
      <trkpt lat="42.62734" lon="1.72686">
        <ele>2128.681</ele>
        <time>2021-08-06T13:42:41Z</time>
      </trkpt>
      <trkpt lat="42.62734" lon="1.72685">
        <ele>2128.622</ele>
        <time>2021-08-06T13:42:43Z</time>
      </trkpt>
      <trkpt lat="42.62734" lon="1.72685">
        <ele>2128.622</ele>
        <time>2021-08-06T13:42:45Z</time>
      </trkpt>
      <trkpt lat="42.62734" lon="1.72685">
        <ele>2128.627</ele>
        <time>2021-08-06T13:42:47Z</time>
      </trkpt>
      <trkpt lat="42.62735" lon="1.72685">
        <ele>2128.525</ele>
        <time>2021-08-06T13:42:49Z</time>
      </trkpt>
      <trkpt lat="42.62735" lon="1.72685">
        <ele>2128.533</ele>
        <time>2021-08-06T13:42:51Z</time>
      </trkpt>
      <trkpt lat="42.62735" lon="1.72685">
        <ele>2128.376</ele>
        <time>2021-08-06T13:42:53Z</time>
      </trkpt>
      <trkpt lat="42.62735" lon="1.72685">
        <ele>2128.381</ele>
        <time>2021-08-06T13:42:55Z</time>
      </trkpt>
      <trkpt lat="42.62735" lon="1.72685">
        <ele>2129.421</ele>
        <time>2021-08-06T13:42:57Z</time>
      </trkpt>
      <trkpt lat="42.62735" lon="1.72685">
        <ele>2129.508</ele>
        <time>2021-08-06T13:42:59Z</time>
      </trkpt>
      <trkpt lat="42.62735" lon="1.72685">
        <ele>2129.517</ele>
        <time>2021-08-06T13:43:01Z</time>
      </trkpt>
      <trkpt lat="42.62735" lon="1.72685">
        <ele>2129.524</ele>
        <time>2021-08-06T13:43:03Z</time>
      </trkpt>
      <trkpt lat="42.62735" lon="1.72685">
        <ele>2129.525</ele>
        <time>2021-08-06T13:43:05Z</time>
      </trkpt>
      <trkpt lat="42.62735" lon="1.72685">
        <ele>2129.53</ele>
        <time>2021-08-06T13:43:07Z</time>
      </trkpt>
      <trkpt lat="42.62735" lon="1.72685">
        <ele>2129.544</ele>
        <time>2021-08-06T13:43:09Z</time>
      </trkpt>
      <trkpt lat="42.62735" lon="1.72685">
        <ele>2129.554</ele>
        <time>2021-08-06T13:43:11Z</time>
      </trkpt>
      <trkpt lat="42.62735" lon="1.72685">
        <ele>2129.556</ele>
        <time>2021-08-06T13:43:13Z</time>
      </trkpt>
      <trkpt lat="42.62735" lon="1.72685">
        <ele>2129.554</ele>
        <time>2021-08-06T13:43:15Z</time>
      </trkpt>
      <trkpt lat="42.62735" lon="1.72685">
        <ele>2129.542</ele>
        <time>2021-08-06T13:43:17Z</time>
      </trkpt>
      <trkpt lat="42.62735" lon="1.72685">
        <ele>2129.544</ele>
        <time>2021-08-06T13:43:19Z</time>
      </trkpt>
      <trkpt lat="42.62735" lon="1.72685">
        <ele>2129.544</ele>
        <time>2021-08-06T13:43:21Z</time>
      </trkpt>
      <trkpt lat="42.62735" lon="1.72685">
        <ele>2129.548</ele>
        <time>2021-08-06T13:43:23Z</time>
      </trkpt>
      <trkpt lat="42.62735" lon="1.72685">
        <ele>2129.55</ele>
        <time>2021-08-06T13:43:25Z</time>
      </trkpt>
      <trkpt lat="42.62735" lon="1.72685">
        <ele>2129.552</ele>
        <time>2021-08-06T13:43:27Z</time>
      </trkpt>
      <trkpt lat="42.62735" lon="1.72685">
        <ele>2129.553</ele>
        <time>2021-08-06T13:43:29Z</time>
      </trkpt>
      <trkpt lat="42.62735" lon="1.72685">
        <ele>2129.552</ele>
        <time>2021-08-06T13:43:31Z</time>
      </trkpt>
      <trkpt lat="42.62735" lon="1.72685">
        <ele>2129.555</ele>
        <time>2021-08-06T13:43:33Z</time>
      </trkpt>
      <trkpt lat="42.62735" lon="1.72685">
        <ele>2129.558</ele>
        <time>2021-08-06T13:43:35Z</time>
      </trkpt>
      <trkpt lat="42.62735" lon="1.72685">
        <ele>2129.562</ele>
        <time>2021-08-06T13:43:37Z</time>
      </trkpt>
      <trkpt lat="42.62735" lon="1.72685">
        <ele>2129.56</ele>
        <time>2021-08-06T13:43:39Z</time>
      </trkpt>
      <trkpt lat="42.62735" lon="1.72685">
        <ele>2129.56</ele>
        <time>2021-08-06T13:43:41Z</time>
      </trkpt>
      <trkpt lat="42.62735" lon="1.72685">
        <ele>2129.565</ele>
        <time>2021-08-06T13:43:43Z</time>
      </trkpt>
      <trkpt lat="42.62735" lon="1.72685">
        <ele>2129.759</ele>
        <time>2021-08-06T13:43:45Z</time>
      </trkpt>
      <trkpt lat="42.62735" lon="1.72685">
        <ele>2129.754</ele>
        <time>2021-08-06T13:43:47Z</time>
      </trkpt>
      <trkpt lat="42.62735" lon="1.72685">
        <ele>2129.754</ele>
        <time>2021-08-06T13:43:49Z</time>
      </trkpt>
      <trkpt lat="42.62735" lon="1.72685">
        <ele>2129.758</ele>
        <time>2021-08-06T13:43:51Z</time>
      </trkpt>
      <trkpt lat="42.62735" lon="1.72685">
        <ele>2129.757</ele>
        <time>2021-08-06T13:43:53Z</time>
      </trkpt>
      <trkpt lat="42.62735" lon="1.72685">
        <ele>2129.761</ele>
        <time>2021-08-06T13:43:55Z</time>
      </trkpt>
      <trkpt lat="42.62735" lon="1.72685">
        <ele>2129.762</ele>
        <time>2021-08-06T13:43:57Z</time>
      </trkpt>
      <trkpt lat="42.62735" lon="1.72685">
        <ele>2129.766</ele>
        <time>2021-08-06T13:43:59Z</time>
      </trkpt>
      <trkpt lat="42.62735" lon="1.72685">
        <ele>2129.772</ele>
        <time>2021-08-06T13:44:01Z</time>
      </trkpt>
      <trkpt lat="42.62735" lon="1.72685">
        <ele>2129.773</ele>
        <time>2021-08-06T13:44:03Z</time>
      </trkpt>
      <trkpt lat="42.62735" lon="1.72685">
        <ele>2129.773</ele>
        <time>2021-08-06T13:44:05Z</time>
      </trkpt>
      <trkpt lat="42.62735" lon="1.72685">
        <ele>2129.774</ele>
        <time>2021-08-06T13:44:07Z</time>
      </trkpt>
      <trkpt lat="42.62735" lon="1.72685">
        <ele>2129.773</ele>
        <time>2021-08-06T13:44:09Z</time>
      </trkpt>
      <trkpt lat="42.62735" lon="1.72685">
        <ele>2129.776</ele>
        <time>2021-08-06T13:44:11Z</time>
      </trkpt>
      <trkpt lat="42.62735" lon="1.72685">
        <ele>2129.776</ele>
        <time>2021-08-06T13:44:13Z</time>
      </trkpt>
      <trkpt lat="42.62735" lon="1.72685">
        <ele>2129.781</ele>
        <time>2021-08-06T13:44:15Z</time>
      </trkpt>
      <trkpt lat="42.62735" lon="1.72685">
        <ele>2129.786</ele>
        <time>2021-08-06T13:44:17Z</time>
      </trkpt>
      <trkpt lat="42.62735" lon="1.72685">
        <ele>2129.79</ele>
        <time>2021-08-06T13:44:19Z</time>
      </trkpt>
      <trkpt lat="42.62735" lon="1.72685">
        <ele>2129.795</ele>
        <time>2021-08-06T13:44:21Z</time>
      </trkpt>
      <trkpt lat="42.62735" lon="1.72685">
        <ele>2129.799</ele>
        <time>2021-08-06T13:44:23Z</time>
      </trkpt>
      <trkpt lat="42.62735" lon="1.72685">
        <ele>2129.801</ele>
        <time>2021-08-06T13:44:25Z</time>
      </trkpt>
      <trkpt lat="42.62735" lon="1.72685">
        <ele>2129.802</ele>
        <time>2021-08-06T13:44:27Z</time>
      </trkpt>
      <trkpt lat="42.62735" lon="1.72685">
        <ele>2129.807</ele>
        <time>2021-08-06T13:44:29Z</time>
      </trkpt>
      <trkpt lat="42.62735" lon="1.72685">
        <ele>2129.808</ele>
        <time>2021-08-06T13:44:31Z</time>
      </trkpt>
      <trkpt lat="42.62735" lon="1.72685">
        <ele>2129.812</ele>
        <time>2021-08-06T13:44:33Z</time>
      </trkpt>
      <trkpt lat="42.62735" lon="1.72685">
        <ele>2129.813</ele>
        <time>2021-08-06T13:44:35Z</time>
      </trkpt>
      <trkpt lat="42.62735" lon="1.72685">
        <ele>2129.808</ele>
        <time>2021-08-06T13:44:37Z</time>
      </trkpt>
      <trkpt lat="42.62735" lon="1.72685">
        <ele>2129.806</ele>
        <time>2021-08-06T13:44:39Z</time>
      </trkpt>
      <trkpt lat="42.62735" lon="1.72685">
        <ele>2129.805</ele>
        <time>2021-08-06T13:44:41Z</time>
      </trkpt>
      <trkpt lat="42.62735" lon="1.72685">
        <ele>2129.805</ele>
        <time>2021-08-06T13:44:43Z</time>
      </trkpt>
      <trkpt lat="42.62735" lon="1.72685">
        <ele>2129.803</ele>
        <time>2021-08-06T13:44:45Z</time>
      </trkpt>
      <trkpt lat="42.62735" lon="1.72685">
        <ele>2129.802</ele>
        <time>2021-08-06T13:44:47Z</time>
      </trkpt>
      <trkpt lat="42.62735" lon="1.72685">
        <ele>2129.806</ele>
        <time>2021-08-06T13:44:49Z</time>
      </trkpt>
      <trkpt lat="42.62735" lon="1.72685">
        <ele>2129.81</ele>
        <time>2021-08-06T13:44:51Z</time>
      </trkpt>
      <trkpt lat="42.62735" lon="1.72685">
        <ele>2129.809</ele>
        <time>2021-08-06T13:44:53Z</time>
      </trkpt>
      <trkpt lat="42.62735" lon="1.72685">
        <ele>2129.807</ele>
        <time>2021-08-06T13:44:55Z</time>
      </trkpt>
      <trkpt lat="42.62735" lon="1.72685">
        <ele>2129.811</ele>
        <time>2021-08-06T13:44:57Z</time>
      </trkpt>
      <trkpt lat="42.62735" lon="1.72685">
        <ele>2129.817</ele>
        <time>2021-08-06T13:44:59Z</time>
      </trkpt>
      <trkpt lat="42.62735" lon="1.72685">
        <ele>2129.816</ele>
        <time>2021-08-06T13:45:01Z</time>
      </trkpt>
      <trkpt lat="42.62735" lon="1.72685">
        <ele>2129.819</ele>
        <time>2021-08-06T13:45:03Z</time>
      </trkpt>
      <trkpt lat="42.62735" lon="1.72685">
        <ele>2129.822</ele>
        <time>2021-08-06T13:45:05Z</time>
      </trkpt>
      <trkpt lat="42.62735" lon="1.72685">
        <ele>2129.819</ele>
        <time>2021-08-06T13:45:07Z</time>
      </trkpt>
      <trkpt lat="42.62735" lon="1.72685">
        <ele>2129.82</ele>
        <time>2021-08-06T13:45:09Z</time>
      </trkpt>
      <trkpt lat="42.62735" lon="1.72685">
        <ele>2129.82</ele>
        <time>2021-08-06T13:45:11Z</time>
      </trkpt>
      <trkpt lat="42.62735" lon="1.72685">
        <ele>2129.826</ele>
        <time>2021-08-06T13:45:13Z</time>
      </trkpt>
      <trkpt lat="42.62735" lon="1.72685">
        <ele>2129.82</ele>
        <time>2021-08-06T13:45:15Z</time>
      </trkpt>
      <trkpt lat="42.62735" lon="1.72685">
        <ele>2129.819</ele>
        <time>2021-08-06T13:45:17Z</time>
      </trkpt>
      <trkpt lat="42.62735" lon="1.72685">
        <ele>2129.816</ele>
        <time>2021-08-06T13:45:19Z</time>
      </trkpt>
      <trkpt lat="42.62735" lon="1.72685">
        <ele>2129.821</ele>
        <time>2021-08-06T13:45:21Z</time>
      </trkpt>
      <trkpt lat="42.62735" lon="1.72685">
        <ele>2129.823</ele>
        <time>2021-08-06T13:45:23Z</time>
      </trkpt>
      <trkpt lat="42.62735" lon="1.72685">
        <ele>2129.824</ele>
        <time>2021-08-06T13:45:25Z</time>
      </trkpt>
      <trkpt lat="42.62735" lon="1.72685">
        <ele>2129.817</ele>
        <time>2021-08-06T13:45:27Z</time>
      </trkpt>
      <trkpt lat="42.62735" lon="1.72685">
        <ele>2129.82</ele>
        <time>2021-08-06T13:45:29Z</time>
      </trkpt>
      <trkpt lat="42.62735" lon="1.72685">
        <ele>2129.824</ele>
        <time>2021-08-06T13:45:31Z</time>
      </trkpt>
      <trkpt lat="42.62735" lon="1.72685">
        <ele>2129.819</ele>
        <time>2021-08-06T13:45:33Z</time>
      </trkpt>
      <trkpt lat="42.62735" lon="1.72685">
        <ele>2129.818</ele>
        <time>2021-08-06T13:45:35Z</time>
      </trkpt>
      <trkpt lat="42.62735" lon="1.72685">
        <ele>2129.82</ele>
        <time>2021-08-06T13:45:37Z</time>
      </trkpt>
      <trkpt lat="42.62735" lon="1.72685">
        <ele>2129.823</ele>
        <time>2021-08-06T13:45:39Z</time>
      </trkpt>
      <trkpt lat="42.62735" lon="1.72685">
        <ele>2129.825</ele>
        <time>2021-08-06T13:45:41Z</time>
      </trkpt>
      <trkpt lat="42.62735" lon="1.72685">
        <ele>2129.827</ele>
        <time>2021-08-06T13:45:43Z</time>
      </trkpt>
      <trkpt lat="42.62735" lon="1.72685">
        <ele>2129.83</ele>
        <time>2021-08-06T13:45:45Z</time>
      </trkpt>
      <trkpt lat="42.62735" lon="1.72685">
        <ele>2129.839</ele>
        <time>2021-08-06T13:45:47Z</time>
      </trkpt>
      <trkpt lat="42.62735" lon="1.72685">
        <ele>2129.84</ele>
        <time>2021-08-06T13:45:49Z</time>
      </trkpt>
      <trkpt lat="42.62735" lon="1.72685">
        <ele>2129.852</ele>
        <time>2021-08-06T13:45:51Z</time>
      </trkpt>
      <trkpt lat="42.62735" lon="1.72685">
        <ele>2129.853</ele>
        <time>2021-08-06T13:45:53Z</time>
      </trkpt>
      <trkpt lat="42.62735" lon="1.72685">
        <ele>2129.853</ele>
        <time>2021-08-06T13:45:55Z</time>
      </trkpt>
      <trkpt lat="42.62735" lon="1.72685">
        <ele>2129.864</ele>
        <time>2021-08-06T13:45:57Z</time>
      </trkpt>
      <trkpt lat="42.62735" lon="1.72685">
        <ele>2129.868</ele>
        <time>2021-08-06T13:45:59Z</time>
      </trkpt>
      <trkpt lat="42.62735" lon="1.72685">
        <ele>2129.868</ele>
        <time>2021-08-06T13:46:01Z</time>
      </trkpt>
      <trkpt lat="42.62735" lon="1.72685">
        <ele>2129.873</ele>
        <time>2021-08-06T13:46:03Z</time>
      </trkpt>
      <trkpt lat="42.62735" lon="1.72685">
        <ele>2129.874</ele>
        <time>2021-08-06T13:46:05Z</time>
      </trkpt>
      <trkpt lat="42.62735" lon="1.72685">
        <ele>2129.875</ele>
        <time>2021-08-06T13:46:07Z</time>
      </trkpt>
      <trkpt lat="42.62735" lon="1.72685">
        <ele>2129.874</ele>
        <time>2021-08-06T13:46:09Z</time>
      </trkpt>
      <trkpt lat="42.62735" lon="1.72685">
        <ele>2129.875</ele>
        <time>2021-08-06T13:46:11Z</time>
      </trkpt>
      <trkpt lat="42.62735" lon="1.72685">
        <ele>2129.993</ele>
        <time>2021-08-06T13:46:13Z</time>
      </trkpt>
      <trkpt lat="42.62735" lon="1.72685">
        <ele>2129.985</ele>
        <time>2021-08-06T13:46:15Z</time>
      </trkpt>
      <trkpt lat="42.62736" lon="1.72685">
        <ele>2130.421</ele>
        <time>2021-08-06T13:46:17Z</time>
      </trkpt>
      <trkpt lat="42.62737" lon="1.72686">
        <ele>2130.735</ele>
        <time>2021-08-06T13:46:19Z</time>
      </trkpt>
      <trkpt lat="42.62738" lon="1.72686">
        <ele>2130.641</ele>
        <time>2021-08-06T13:46:21Z</time>
      </trkpt>
      <trkpt lat="42.62739" lon="1.72686">
        <ele>2130.543</ele>
        <time>2021-08-06T13:46:23Z</time>
      </trkpt>
      <trkpt lat="42.62739" lon="1.72685">
        <ele>2131.298</ele>
        <time>2021-08-06T13:46:25Z</time>
      </trkpt>
      <trkpt lat="42.62739" lon="1.72685">
        <ele>2131.234</ele>
        <time>2021-08-06T13:46:27Z</time>
      </trkpt>
      <trkpt lat="42.62739" lon="1.72684">
        <ele>2131.098</ele>
        <time>2021-08-06T13:46:29Z</time>
      </trkpt>
      <trkpt lat="42.62739" lon="1.72684">
        <ele>2131.748</ele>
        <time>2021-08-06T13:46:31Z</time>
      </trkpt>
      <trkpt lat="42.62739" lon="1.72684">
        <ele>2132.463</ele>
        <time>2021-08-06T13:46:33Z</time>
      </trkpt>
      <trkpt lat="42.62739" lon="1.72684">
        <ele>2132.446</ele>
        <time>2021-08-06T13:46:35Z</time>
      </trkpt>
      <trkpt lat="42.62739" lon="1.72684">
        <ele>2132.442</ele>
        <time>2021-08-06T13:46:37Z</time>
      </trkpt>
      <trkpt lat="42.62739" lon="1.72684">
        <ele>2132.447</ele>
        <time>2021-08-06T13:46:39Z</time>
      </trkpt>
      <trkpt lat="42.62739" lon="1.72684">
        <ele>2132.438</ele>
        <time>2021-08-06T13:46:41Z</time>
      </trkpt>
      <trkpt lat="42.62739" lon="1.72684">
        <ele>2132.432</ele>
        <time>2021-08-06T13:46:43Z</time>
      </trkpt>
      <trkpt lat="42.62739" lon="1.72684">
        <ele>2132.427</ele>
        <time>2021-08-06T13:46:45Z</time>
      </trkpt>
      <trkpt lat="42.62739" lon="1.72684">
        <ele>2132.408</ele>
        <time>2021-08-06T13:46:47Z</time>
      </trkpt>
      <trkpt lat="42.62739" lon="1.72684">
        <ele>2132.405</ele>
        <time>2021-08-06T13:46:49Z</time>
      </trkpt>
      <trkpt lat="42.62739" lon="1.72684">
        <ele>2132.404</ele>
        <time>2021-08-06T13:46:51Z</time>
      </trkpt>
      <trkpt lat="42.62739" lon="1.72684">
        <ele>2132.399</ele>
        <time>2021-08-06T13:46:53Z</time>
      </trkpt>
      <trkpt lat="42.62739" lon="1.72684">
        <ele>2132.377</ele>
        <time>2021-08-06T13:46:55Z</time>
      </trkpt>
      <trkpt lat="42.62739" lon="1.72684">
        <ele>2132.373</ele>
        <time>2021-08-06T13:46:57Z</time>
      </trkpt>
      <trkpt lat="42.62739" lon="1.72684">
        <ele>2132.363</ele>
        <time>2021-08-06T13:46:59Z</time>
      </trkpt>
      <trkpt lat="42.62739" lon="1.72684">
        <ele>2132.366</ele>
        <time>2021-08-06T13:47:01Z</time>
      </trkpt>
      <trkpt lat="42.62739" lon="1.72684">
        <ele>2132.373</ele>
        <time>2021-08-06T13:47:03Z</time>
      </trkpt>
      <trkpt lat="42.62739" lon="1.72684">
        <ele>2132.373</ele>
        <time>2021-08-06T13:47:05Z</time>
      </trkpt>
      <trkpt lat="42.62739" lon="1.72684">
        <ele>2132.363</ele>
        <time>2021-08-06T13:47:07Z</time>
      </trkpt>
      <trkpt lat="42.62739" lon="1.72684">
        <ele>2132.352</ele>
        <time>2021-08-06T13:47:09Z</time>
      </trkpt>
      <trkpt lat="42.62739" lon="1.72684">
        <ele>2132.352</ele>
        <time>2021-08-06T13:47:11Z</time>
      </trkpt>
      <trkpt lat="42.62739" lon="1.72684">
        <ele>2132.326</ele>
        <time>2021-08-06T13:47:13Z</time>
      </trkpt>
      <trkpt lat="42.62739" lon="1.72684">
        <ele>2132.311</ele>
        <time>2021-08-06T13:47:15Z</time>
      </trkpt>
      <trkpt lat="42.62739" lon="1.72684">
        <ele>2132.289</ele>
        <time>2021-08-06T13:47:17Z</time>
      </trkpt>
      <trkpt lat="42.62739" lon="1.72684">
        <ele>2132.291</ele>
        <time>2021-08-06T13:47:19Z</time>
      </trkpt>
      <trkpt lat="42.62739" lon="1.72684">
        <ele>2132.295</ele>
        <time>2021-08-06T13:47:21Z</time>
      </trkpt>
      <trkpt lat="42.62739" lon="1.72684">
        <ele>2132.293</ele>
        <time>2021-08-06T13:47:23Z</time>
      </trkpt>
      <trkpt lat="42.62739" lon="1.72684">
        <ele>2132.286</ele>
        <time>2021-08-06T13:47:25Z</time>
      </trkpt>
      <trkpt lat="42.62739" lon="1.72684">
        <ele>2132.292</ele>
        <time>2021-08-06T13:47:27Z</time>
      </trkpt>
      <trkpt lat="42.62739" lon="1.72684">
        <ele>2132.299</ele>
        <time>2021-08-06T13:47:29Z</time>
      </trkpt>
      <trkpt lat="42.62739" lon="1.72684">
        <ele>2132.309</ele>
        <time>2021-08-06T13:47:31Z</time>
      </trkpt>
      <trkpt lat="42.62739" lon="1.72684">
        <ele>2132.312</ele>
        <time>2021-08-06T13:47:33Z</time>
      </trkpt>
      <trkpt lat="42.62739" lon="1.72684">
        <ele>2132.327</ele>
        <time>2021-08-06T13:47:35Z</time>
      </trkpt>
      <trkpt lat="42.62739" lon="1.72684">
        <ele>2132.316</ele>
        <time>2021-08-06T13:47:37Z</time>
      </trkpt>
      <trkpt lat="42.62739" lon="1.72684">
        <ele>2132.301</ele>
        <time>2021-08-06T13:47:39Z</time>
      </trkpt>
      <trkpt lat="42.62739" lon="1.72684">
        <ele>2132.289</ele>
        <time>2021-08-06T13:47:41Z</time>
      </trkpt>
      <trkpt lat="42.62739" lon="1.72684">
        <ele>2132.276</ele>
        <time>2021-08-06T13:47:43Z</time>
      </trkpt>
      <trkpt lat="42.62739" lon="1.72684">
        <ele>2132.277</ele>
        <time>2021-08-06T13:47:45Z</time>
      </trkpt>
      <trkpt lat="42.62739" lon="1.72684">
        <ele>2132.302</ele>
        <time>2021-08-06T13:47:47Z</time>
      </trkpt>
      <trkpt lat="42.62739" lon="1.72684">
        <ele>2132.297</ele>
        <time>2021-08-06T13:47:49Z</time>
      </trkpt>
      <trkpt lat="42.62739" lon="1.72684">
        <ele>2132.29</ele>
        <time>2021-08-06T13:47:51Z</time>
      </trkpt>
      <trkpt lat="42.62739" lon="1.72684">
        <ele>2132.288</ele>
        <time>2021-08-06T13:47:53Z</time>
      </trkpt>
      <trkpt lat="42.62739" lon="1.72684">
        <ele>2132.283</ele>
        <time>2021-08-06T13:47:55Z</time>
      </trkpt>
      <trkpt lat="42.62739" lon="1.72684">
        <ele>2132.279</ele>
        <time>2021-08-06T13:47:57Z</time>
      </trkpt>
      <trkpt lat="42.62739" lon="1.72684">
        <ele>2132.28</ele>
        <time>2021-08-06T13:47:59Z</time>
      </trkpt>
      <trkpt lat="42.62739" lon="1.72684">
        <ele>2132.271</ele>
        <time>2021-08-06T13:48:01Z</time>
      </trkpt>
      <trkpt lat="42.62739" lon="1.72684">
        <ele>2132.272</ele>
        <time>2021-08-06T13:48:03Z</time>
      </trkpt>
      <trkpt lat="42.62739" lon="1.72684">
        <ele>2132.263</ele>
        <time>2021-08-06T13:48:05Z</time>
      </trkpt>
      <trkpt lat="42.62739" lon="1.72684">
        <ele>2132.265</ele>
        <time>2021-08-06T13:48:07Z</time>
      </trkpt>
      <trkpt lat="42.62739" lon="1.72684">
        <ele>2132.266</ele>
        <time>2021-08-06T13:48:09Z</time>
      </trkpt>
      <trkpt lat="42.62739" lon="1.72684">
        <ele>2132.27</ele>
        <time>2021-08-06T13:48:11Z</time>
      </trkpt>
      <trkpt lat="42.62739" lon="1.72684">
        <ele>2132.273</ele>
        <time>2021-08-06T13:48:13Z</time>
      </trkpt>
      <trkpt lat="42.62739" lon="1.72684">
        <ele>2132.273</ele>
        <time>2021-08-06T13:48:15Z</time>
      </trkpt>
      <trkpt lat="42.62739" lon="1.72684">
        <ele>2132.272</ele>
        <time>2021-08-06T13:48:17Z</time>
      </trkpt>
      <trkpt lat="42.62739" lon="1.72684">
        <ele>2132.272</ele>
        <time>2021-08-06T13:48:19Z</time>
      </trkpt>
      <trkpt lat="42.62739" lon="1.72684">
        <ele>2132.264</ele>
        <time>2021-08-06T13:48:21Z</time>
      </trkpt>
      <trkpt lat="42.62739" lon="1.72684">
        <ele>2132.271</ele>
        <time>2021-08-06T13:48:23Z</time>
      </trkpt>
      <trkpt lat="42.62739" lon="1.72684">
        <ele>2132.266</ele>
        <time>2021-08-06T13:48:25Z</time>
      </trkpt>
      <trkpt lat="42.62739" lon="1.72684">
        <ele>2132.273</ele>
        <time>2021-08-06T13:48:27Z</time>
      </trkpt>
      <trkpt lat="42.62739" lon="1.72684">
        <ele>2132.284</ele>
        <time>2021-08-06T13:48:29Z</time>
      </trkpt>
      <trkpt lat="42.62739" lon="1.72684">
        <ele>2132.285</ele>
        <time>2021-08-06T13:48:31Z</time>
      </trkpt>
      <trkpt lat="42.62739" lon="1.72684">
        <ele>2132.288</ele>
        <time>2021-08-06T13:48:33Z</time>
      </trkpt>
      <trkpt lat="42.62739" lon="1.72684">
        <ele>2132.287</ele>
        <time>2021-08-06T13:48:35Z</time>
      </trkpt>
      <trkpt lat="42.62739" lon="1.72684">
        <ele>2132.288</ele>
        <time>2021-08-06T13:48:37Z</time>
      </trkpt>
      <trkpt lat="42.62739" lon="1.72684">
        <ele>2132.289</ele>
        <time>2021-08-06T13:48:39Z</time>
      </trkpt>
      <trkpt lat="42.62739" lon="1.72684">
        <ele>2132.287</ele>
        <time>2021-08-06T13:48:41Z</time>
      </trkpt>
      <trkpt lat="42.62739" lon="1.72684">
        <ele>2132.294</ele>
        <time>2021-08-06T13:48:43Z</time>
      </trkpt>
      <trkpt lat="42.62739" lon="1.72684">
        <ele>2132.301</ele>
        <time>2021-08-06T13:48:45Z</time>
      </trkpt>
      <trkpt lat="42.62739" lon="1.72684">
        <ele>2132.301</ele>
        <time>2021-08-06T13:48:47Z</time>
      </trkpt>
      <trkpt lat="42.62739" lon="1.72684">
        <ele>2132.291</ele>
        <time>2021-08-06T13:48:49Z</time>
      </trkpt>
      <trkpt lat="42.62739" lon="1.72684">
        <ele>2132.287</ele>
        <time>2021-08-06T13:48:51Z</time>
      </trkpt>
      <trkpt lat="42.62739" lon="1.72684">
        <ele>2132.283</ele>
        <time>2021-08-06T13:48:53Z</time>
      </trkpt>
      <trkpt lat="42.62739" lon="1.72684">
        <ele>2132.282</ele>
        <time>2021-08-06T13:48:55Z</time>
      </trkpt>
      <trkpt lat="42.62739" lon="1.72684">
        <ele>2132.269</ele>
        <time>2021-08-06T13:48:57Z</time>
      </trkpt>
      <trkpt lat="42.62739" lon="1.72684">
        <ele>2132.269</ele>
        <time>2021-08-06T13:48:59Z</time>
      </trkpt>
      <trkpt lat="42.62739" lon="1.72684">
        <ele>2132.272</ele>
        <time>2021-08-06T13:49:01Z</time>
      </trkpt>
      <trkpt lat="42.62739" lon="1.72684">
        <ele>2132.273</ele>
        <time>2021-08-06T13:49:03Z</time>
      </trkpt>
      <trkpt lat="42.62739" lon="1.72684">
        <ele>2132.277</ele>
        <time>2021-08-06T13:49:05Z</time>
      </trkpt>
      <trkpt lat="42.62739" lon="1.72684">
        <ele>2132.282</ele>
        <time>2021-08-06T13:49:07Z</time>
      </trkpt>
      <trkpt lat="42.62739" lon="1.72684">
        <ele>2132.283</ele>
        <time>2021-08-06T13:49:09Z</time>
      </trkpt>
      <trkpt lat="42.62739" lon="1.72684">
        <ele>2132.278</ele>
        <time>2021-08-06T13:49:11Z</time>
      </trkpt>
      <trkpt lat="42.62739" lon="1.72684">
        <ele>2132.275</ele>
        <time>2021-08-06T13:49:13Z</time>
      </trkpt>
      <trkpt lat="42.62739" lon="1.72684">
        <ele>2132.265</ele>
        <time>2021-08-06T13:49:15Z</time>
      </trkpt>
      <trkpt lat="42.62739" lon="1.72684">
        <ele>2132.273</ele>
        <time>2021-08-06T13:49:17Z</time>
      </trkpt>
      <trkpt lat="42.62739" lon="1.72684">
        <ele>2132.278</ele>
        <time>2021-08-06T13:49:19Z</time>
      </trkpt>
      <trkpt lat="42.62739" lon="1.72684">
        <ele>2132.295</ele>
        <time>2021-08-06T13:49:21Z</time>
      </trkpt>
      <trkpt lat="42.62739" lon="1.72684">
        <ele>2132.292</ele>
        <time>2021-08-06T13:49:23Z</time>
      </trkpt>
      <trkpt lat="42.62739" lon="1.72684">
        <ele>2132.3</ele>
        <time>2021-08-06T13:49:25Z</time>
      </trkpt>
      <trkpt lat="42.62739" lon="1.72684">
        <ele>2132.294</ele>
        <time>2021-08-06T13:49:27Z</time>
      </trkpt>
      <trkpt lat="42.62739" lon="1.72684">
        <ele>2132.295</ele>
        <time>2021-08-06T13:49:29Z</time>
      </trkpt>
      <trkpt lat="42.62739" lon="1.72684">
        <ele>2132.281</ele>
        <time>2021-08-06T13:49:31Z</time>
      </trkpt>
      <trkpt lat="42.62739" lon="1.72684">
        <ele>2132.276</ele>
        <time>2021-08-06T13:49:33Z</time>
      </trkpt>
      <trkpt lat="42.62739" lon="1.72684">
        <ele>2132.274</ele>
        <time>2021-08-06T13:49:35Z</time>
      </trkpt>
      <trkpt lat="42.62739" lon="1.72684">
        <ele>2132.275</ele>
        <time>2021-08-06T13:49:37Z</time>
      </trkpt>
      <trkpt lat="42.62739" lon="1.72684">
        <ele>2132.273</ele>
        <time>2021-08-06T13:49:39Z</time>
      </trkpt>
      <trkpt lat="42.62739" lon="1.72684">
        <ele>2132.275</ele>
        <time>2021-08-06T13:49:41Z</time>
      </trkpt>
      <trkpt lat="42.62739" lon="1.72684">
        <ele>2132.273</ele>
        <time>2021-08-06T13:49:43Z</time>
      </trkpt>
      <trkpt lat="42.62739" lon="1.72684">
        <ele>2132.271</ele>
        <time>2021-08-06T13:49:45Z</time>
      </trkpt>
      <trkpt lat="42.62739" lon="1.72684">
        <ele>2132.267</ele>
        <time>2021-08-06T13:49:47Z</time>
      </trkpt>
      <trkpt lat="42.62739" lon="1.72684">
        <ele>2132.255</ele>
        <time>2021-08-06T13:49:49Z</time>
      </trkpt>
      <trkpt lat="42.62739" lon="1.72684">
        <ele>2132.254</ele>
        <time>2021-08-06T13:49:51Z</time>
      </trkpt>
      <trkpt lat="42.62739" lon="1.72684">
        <ele>2132.258</ele>
        <time>2021-08-06T13:49:53Z</time>
      </trkpt>
      <trkpt lat="42.62739" lon="1.72684">
        <ele>2132.264</ele>
        <time>2021-08-06T13:49:55Z</time>
      </trkpt>
      <trkpt lat="42.62739" lon="1.72684">
        <ele>2132.273</ele>
        <time>2021-08-06T13:49:57Z</time>
      </trkpt>
      <trkpt lat="42.62739" lon="1.72684">
        <ele>2132.275</ele>
        <time>2021-08-06T13:49:59Z</time>
      </trkpt>
      <trkpt lat="42.62739" lon="1.72684">
        <ele>2132.292</ele>
        <time>2021-08-06T13:50:01Z</time>
      </trkpt>
      <trkpt lat="42.62739" lon="1.72684">
        <ele>2132.293</ele>
        <time>2021-08-06T13:50:03Z</time>
      </trkpt>
      <trkpt lat="42.62739" lon="1.72684">
        <ele>2132.294</ele>
        <time>2021-08-06T13:50:05Z</time>
      </trkpt>
      <trkpt lat="42.62739" lon="1.72684">
        <ele>2132.295</ele>
        <time>2021-08-06T13:50:07Z</time>
      </trkpt>
      <trkpt lat="42.62739" lon="1.72684">
        <ele>2132.298</ele>
        <time>2021-08-06T13:50:09Z</time>
      </trkpt>
      <trkpt lat="42.62739" lon="1.72684">
        <ele>2132.309</ele>
        <time>2021-08-06T13:50:11Z</time>
      </trkpt>
      <trkpt lat="42.62739" lon="1.72684">
        <ele>2132.309</ele>
        <time>2021-08-06T13:50:13Z</time>
      </trkpt>
      <trkpt lat="42.62739" lon="1.72684">
        <ele>2132.3</ele>
        <time>2021-08-06T13:50:15Z</time>
      </trkpt>
      <trkpt lat="42.62739" lon="1.72684">
        <ele>2132.305</ele>
        <time>2021-08-06T13:50:17Z</time>
      </trkpt>
      <trkpt lat="42.62739" lon="1.72684">
        <ele>2132.301</ele>
        <time>2021-08-06T13:50:19Z</time>
      </trkpt>
      <trkpt lat="42.62739" lon="1.72684">
        <ele>2132.29</ele>
        <time>2021-08-06T13:50:21Z</time>
      </trkpt>
      <trkpt lat="42.62739" lon="1.72684">
        <ele>2132.283</ele>
        <time>2021-08-06T13:50:23Z</time>
      </trkpt>
      <trkpt lat="42.62739" lon="1.72684">
        <ele>2132.271</ele>
        <time>2021-08-06T13:50:25Z</time>
      </trkpt>
      <trkpt lat="42.62739" lon="1.72684">
        <ele>2132.278</ele>
        <time>2021-08-06T13:50:27Z</time>
      </trkpt>
      <trkpt lat="42.62739" lon="1.72684">
        <ele>2132.279</ele>
        <time>2021-08-06T13:50:29Z</time>
      </trkpt>
      <trkpt lat="42.62739" lon="1.72684">
        <ele>2132.283</ele>
        <time>2021-08-06T13:50:31Z</time>
      </trkpt>
      <trkpt lat="42.62739" lon="1.72684">
        <ele>2132.267</ele>
        <time>2021-08-06T13:50:33Z</time>
      </trkpt>
      <trkpt lat="42.62739" lon="1.72684">
        <ele>2132.277</ele>
        <time>2021-08-06T13:50:35Z</time>
      </trkpt>
      <trkpt lat="42.62739" lon="1.72684">
        <ele>2132.273</ele>
        <time>2021-08-06T13:50:37Z</time>
      </trkpt>
      <trkpt lat="42.62739" lon="1.72684">
        <ele>2132.268</ele>
        <time>2021-08-06T13:50:39Z</time>
      </trkpt>
      <trkpt lat="42.62739" lon="1.72684">
        <ele>2132.261</ele>
        <time>2021-08-06T13:50:41Z</time>
      </trkpt>
      <trkpt lat="42.62739" lon="1.72684">
        <ele>2132.265</ele>
        <time>2021-08-06T13:50:43Z</time>
      </trkpt>
      <trkpt lat="42.62739" lon="1.72684">
        <ele>2132.249</ele>
        <time>2021-08-06T13:50:45Z</time>
      </trkpt>
      <trkpt lat="42.62739" lon="1.72684">
        <ele>2132.248</ele>
        <time>2021-08-06T13:50:47Z</time>
      </trkpt>
      <trkpt lat="42.62739" lon="1.72684">
        <ele>2132.251</ele>
        <time>2021-08-06T13:50:49Z</time>
      </trkpt>
      <trkpt lat="42.62739" lon="1.72684">
        <ele>2132.254</ele>
        <time>2021-08-06T13:50:51Z</time>
      </trkpt>
      <trkpt lat="42.62739" lon="1.72684">
        <ele>2132.253</ele>
        <time>2021-08-06T13:50:53Z</time>
      </trkpt>
      <trkpt lat="42.62739" lon="1.72684">
        <ele>2132.258</ele>
        <time>2021-08-06T13:50:55Z</time>
      </trkpt>
      <trkpt lat="42.62739" lon="1.72684">
        <ele>2132.257</ele>
        <time>2021-08-06T13:50:57Z</time>
      </trkpt>
      <trkpt lat="42.62739" lon="1.72684">
        <ele>2132.265</ele>
        <time>2021-08-06T13:50:59Z</time>
      </trkpt>
      <trkpt lat="42.62739" lon="1.72684">
        <ele>2132.276</ele>
        <time>2021-08-06T13:51:01Z</time>
      </trkpt>
      <trkpt lat="42.62739" lon="1.72684">
        <ele>2132.278</ele>
        <time>2021-08-06T13:51:03Z</time>
      </trkpt>
      <trkpt lat="42.62739" lon="1.72684">
        <ele>2132.281</ele>
        <time>2021-08-06T13:51:05Z</time>
      </trkpt>
      <trkpt lat="42.62739" lon="1.72684">
        <ele>2132.276</ele>
        <time>2021-08-06T13:51:07Z</time>
      </trkpt>
      <trkpt lat="42.62739" lon="1.72684">
        <ele>2132.273</ele>
        <time>2021-08-06T13:51:09Z</time>
      </trkpt>
      <trkpt lat="42.62739" lon="1.72684">
        <ele>2132.272</ele>
        <time>2021-08-06T13:51:11Z</time>
      </trkpt>
      <trkpt lat="42.62739" lon="1.72684">
        <ele>2132.267</ele>
        <time>2021-08-06T13:51:13Z</time>
      </trkpt>
      <trkpt lat="42.62739" lon="1.72684">
        <ele>2132.271</ele>
        <time>2021-08-06T13:51:14Z</time>
      </trkpt>
      <trkpt lat="42.62739" lon="1.72684">
        <ele>2132.263</ele>
        <time>2021-08-06T13:51:17Z</time>
      </trkpt>
      <trkpt lat="42.62739" lon="1.72684">
        <ele>2132.277</ele>
        <time>2021-08-06T13:51:19Z</time>
      </trkpt>
      <trkpt lat="42.62739" lon="1.72684">
        <ele>2132.285</ele>
        <time>2021-08-06T13:51:21Z</time>
      </trkpt>
      <trkpt lat="42.62739" lon="1.72684">
        <ele>2132.281</ele>
        <time>2021-08-06T13:51:23Z</time>
      </trkpt>
      <trkpt lat="42.62739" lon="1.72684">
        <ele>2132.273</ele>
        <time>2021-08-06T13:51:25Z</time>
      </trkpt>
      <trkpt lat="42.62739" lon="1.72684">
        <ele>2132.273</ele>
        <time>2021-08-06T13:51:27Z</time>
      </trkpt>
      <trkpt lat="42.62739" lon="1.72684">
        <ele>2132.274</ele>
        <time>2021-08-06T13:51:29Z</time>
      </trkpt>
      <trkpt lat="42.62739" lon="1.72684">
        <ele>2132.284</ele>
        <time>2021-08-06T13:51:31Z</time>
      </trkpt>
      <trkpt lat="42.62739" lon="1.72684">
        <ele>2132.297</ele>
        <time>2021-08-06T13:51:33Z</time>
      </trkpt>
      <trkpt lat="42.62739" lon="1.72684">
        <ele>2132.296</ele>
        <time>2021-08-06T13:51:35Z</time>
      </trkpt>
      <trkpt lat="42.62739" lon="1.72684">
        <ele>2132.308</ele>
        <time>2021-08-06T13:51:37Z</time>
      </trkpt>
      <trkpt lat="42.62739" lon="1.72684">
        <ele>2132.302</ele>
        <time>2021-08-06T13:51:39Z</time>
      </trkpt>
      <trkpt lat="42.62739" lon="1.72684">
        <ele>2132.291</ele>
        <time>2021-08-06T13:51:41Z</time>
      </trkpt>
      <trkpt lat="42.62739" lon="1.72684">
        <ele>2132.275</ele>
        <time>2021-08-06T13:51:43Z</time>
      </trkpt>
      <trkpt lat="42.62739" lon="1.72684">
        <ele>2132.283</ele>
        <time>2021-08-06T13:51:45Z</time>
      </trkpt>
      <trkpt lat="42.62739" lon="1.72684">
        <ele>2132.285</ele>
        <time>2021-08-06T13:51:47Z</time>
      </trkpt>
      <trkpt lat="42.62739" lon="1.72684">
        <ele>2132.282</ele>
        <time>2021-08-06T13:51:49Z</time>
      </trkpt>
      <trkpt lat="42.62739" lon="1.72684">
        <ele>2132.281</ele>
        <time>2021-08-06T13:51:51Z</time>
      </trkpt>
      <trkpt lat="42.62739" lon="1.72684">
        <ele>2132.276</ele>
        <time>2021-08-06T13:51:53Z</time>
      </trkpt>
      <trkpt lat="42.62739" lon="1.72684">
        <ele>2132.274</ele>
        <time>2021-08-06T13:51:55Z</time>
      </trkpt>
      <trkpt lat="42.62739" lon="1.72684">
        <ele>2132.269</ele>
        <time>2021-08-06T13:51:57Z</time>
      </trkpt>
      <trkpt lat="42.62739" lon="1.72684">
        <ele>2132.27</ele>
        <time>2021-08-06T13:51:59Z</time>
      </trkpt>
      <trkpt lat="42.62739" lon="1.72684">
        <ele>2132.268</ele>
        <time>2021-08-06T13:52:01Z</time>
      </trkpt>
      <trkpt lat="42.62739" lon="1.72684">
        <ele>2132.261</ele>
        <time>2021-08-06T13:52:03Z</time>
      </trkpt>
      <trkpt lat="42.62739" lon="1.72684">
        <ele>2132.26</ele>
        <time>2021-08-06T13:52:05Z</time>
      </trkpt>
      <trkpt lat="42.62739" lon="1.72684">
        <ele>2132.273</ele>
        <time>2021-08-06T13:52:07Z</time>
      </trkpt>
      <trkpt lat="42.62739" lon="1.72684">
        <ele>2132.279</ele>
        <time>2021-08-06T13:52:09Z</time>
      </trkpt>
      <trkpt lat="42.62739" lon="1.72684">
        <ele>2132.271</ele>
        <time>2021-08-06T13:52:11Z</time>
      </trkpt>
      <trkpt lat="42.62739" lon="1.72684">
        <ele>2132.268</ele>
        <time>2021-08-06T13:52:13Z</time>
      </trkpt>
      <trkpt lat="42.62739" lon="1.72684">
        <ele>2132.277</ele>
        <time>2021-08-06T13:52:15Z</time>
      </trkpt>
      <trkpt lat="42.62739" lon="1.72684">
        <ele>2132.277</ele>
        <time>2021-08-06T13:52:17Z</time>
      </trkpt>
      <trkpt lat="42.62739" lon="1.72684">
        <ele>2132.279</ele>
        <time>2021-08-06T13:52:19Z</time>
      </trkpt>
      <trkpt lat="42.62739" lon="1.72684">
        <ele>2132.275</ele>
        <time>2021-08-06T13:52:21Z</time>
      </trkpt>
      <trkpt lat="42.62739" lon="1.72684">
        <ele>2132.271</ele>
        <time>2021-08-06T13:52:23Z</time>
      </trkpt>
      <trkpt lat="42.62739" lon="1.72684">
        <ele>2132.268</ele>
        <time>2021-08-06T13:52:24Z</time>
      </trkpt>
      <trkpt lat="42.62739" lon="1.72684">
        <ele>2132.263</ele>
        <time>2021-08-06T13:52:27Z</time>
      </trkpt>
      <trkpt lat="42.62739" lon="1.72684">
        <ele>2132.273</ele>
        <time>2021-08-06T13:52:29Z</time>
      </trkpt>
      <trkpt lat="42.62739" lon="1.72684">
        <ele>2132.264</ele>
        <time>2021-08-06T13:52:31Z</time>
      </trkpt>
      <trkpt lat="42.62739" lon="1.72684">
        <ele>2132.26</ele>
        <time>2021-08-06T13:52:33Z</time>
      </trkpt>
      <trkpt lat="42.62739" lon="1.72684">
        <ele>2132.259</ele>
        <time>2021-08-06T13:52:35Z</time>
      </trkpt>
      <trkpt lat="42.62739" lon="1.72684">
        <ele>2132.253</ele>
        <time>2021-08-06T13:52:37Z</time>
      </trkpt>
      <trkpt lat="42.62739" lon="1.72684">
        <ele>2132.253</ele>
        <time>2021-08-06T13:52:39Z</time>
      </trkpt>
      <trkpt lat="42.62739" lon="1.72684">
        <ele>2132.25</ele>
        <time>2021-08-06T13:52:41Z</time>
      </trkpt>
      <trkpt lat="42.62739" lon="1.72684">
        <ele>2132.25</ele>
        <time>2021-08-06T13:52:43Z</time>
      </trkpt>
      <trkpt lat="42.62739" lon="1.72684">
        <ele>2132.251</ele>
        <time>2021-08-06T13:52:45Z</time>
      </trkpt>
      <trkpt lat="42.62739" lon="1.72684">
        <ele>2132.243</ele>
        <time>2021-08-06T13:52:47Z</time>
      </trkpt>
      <trkpt lat="42.62739" lon="1.72684">
        <ele>2132.243</ele>
        <time>2021-08-06T13:52:49Z</time>
      </trkpt>
      <trkpt lat="42.62739" lon="1.72684">
        <ele>2132.241</ele>
        <time>2021-08-06T13:52:51Z</time>
      </trkpt>
      <trkpt lat="42.62739" lon="1.72684">
        <ele>2132.24</ele>
        <time>2021-08-06T13:52:53Z</time>
      </trkpt>
      <trkpt lat="42.62739" lon="1.72684">
        <ele>2132.243</ele>
        <time>2021-08-06T13:52:55Z</time>
      </trkpt>
      <trkpt lat="42.62739" lon="1.72684">
        <ele>2132.231</ele>
        <time>2021-08-06T13:52:57Z</time>
      </trkpt>
      <trkpt lat="42.62739" lon="1.72684">
        <ele>2132.241</ele>
        <time>2021-08-06T13:52:59Z</time>
      </trkpt>
      <trkpt lat="42.62739" lon="1.72684">
        <ele>2132.239</ele>
        <time>2021-08-06T13:53:01Z</time>
      </trkpt>
      <trkpt lat="42.62739" lon="1.72684">
        <ele>2132.231</ele>
        <time>2021-08-06T13:53:03Z</time>
      </trkpt>
      <trkpt lat="42.62739" lon="1.72684">
        <ele>2132.228</ele>
        <time>2021-08-06T13:53:05Z</time>
      </trkpt>
      <trkpt lat="42.62739" lon="1.72684">
        <ele>2132.234</ele>
        <time>2021-08-06T13:53:07Z</time>
      </trkpt>
      <trkpt lat="42.62739" lon="1.72684">
        <ele>2132.236</ele>
        <time>2021-08-06T13:53:09Z</time>
      </trkpt>
      <trkpt lat="42.62739" lon="1.72684">
        <ele>2132.24</ele>
        <time>2021-08-06T13:53:11Z</time>
      </trkpt>
      <trkpt lat="42.62739" lon="1.72684">
        <ele>2132.242</ele>
        <time>2021-08-06T13:53:13Z</time>
      </trkpt>
      <trkpt lat="42.62739" lon="1.72684">
        <ele>2132.249</ele>
        <time>2021-08-06T13:53:15Z</time>
      </trkpt>
      <trkpt lat="42.62739" lon="1.72684">
        <ele>2132.251</ele>
        <time>2021-08-06T13:53:17Z</time>
      </trkpt>
      <trkpt lat="42.62739" lon="1.72684">
        <ele>2132.256</ele>
        <time>2021-08-06T13:53:19Z</time>
      </trkpt>
      <trkpt lat="42.62739" lon="1.72684">
        <ele>2132.252</ele>
        <time>2021-08-06T13:53:21Z</time>
      </trkpt>
      <trkpt lat="42.62739" lon="1.72684">
        <ele>2132.25</ele>
        <time>2021-08-06T13:53:23Z</time>
      </trkpt>
      <trkpt lat="42.62739" lon="1.72684">
        <ele>2132.256</ele>
        <time>2021-08-06T13:53:25Z</time>
      </trkpt>
      <trkpt lat="42.62739" lon="1.72684">
        <ele>2132.252</ele>
        <time>2021-08-06T13:53:27Z</time>
      </trkpt>
      <trkpt lat="42.62739" lon="1.72684">
        <ele>2132.243</ele>
        <time>2021-08-06T13:53:29Z</time>
      </trkpt>
      <trkpt lat="42.62739" lon="1.72684">
        <ele>2132.249</ele>
        <time>2021-08-06T13:53:31Z</time>
      </trkpt>
      <trkpt lat="42.62739" lon="1.72684">
        <ele>2132.239</ele>
        <time>2021-08-06T13:53:33Z</time>
      </trkpt>
      <trkpt lat="42.62739" lon="1.72684">
        <ele>2132.228</ele>
        <time>2021-08-06T13:53:35Z</time>
      </trkpt>
      <trkpt lat="42.62739" lon="1.72684">
        <ele>2132.228</ele>
        <time>2021-08-06T13:53:37Z</time>
      </trkpt>
      <trkpt lat="42.62739" lon="1.72684">
        <ele>2132.226</ele>
        <time>2021-08-06T13:53:39Z</time>
      </trkpt>
      <trkpt lat="42.62739" lon="1.72684">
        <ele>2132.219</ele>
        <time>2021-08-06T13:53:41Z</time>
      </trkpt>
      <trkpt lat="42.62739" lon="1.72684">
        <ele>2132.209</ele>
        <time>2021-08-06T13:53:43Z</time>
      </trkpt>
      <trkpt lat="42.62739" lon="1.72684">
        <ele>2132.214</ele>
        <time>2021-08-06T13:53:45Z</time>
      </trkpt>
      <trkpt lat="42.62739" lon="1.72684">
        <ele>2132.222</ele>
        <time>2021-08-06T13:53:47Z</time>
      </trkpt>
      <trkpt lat="42.62739" lon="1.72684">
        <ele>2132.22</ele>
        <time>2021-08-06T13:53:49Z</time>
      </trkpt>
      <trkpt lat="42.62739" lon="1.72684">
        <ele>2132.221</ele>
        <time>2021-08-06T13:53:51Z</time>
      </trkpt>
      <trkpt lat="42.62739" lon="1.72684">
        <ele>2132.224</ele>
        <time>2021-08-06T13:53:53Z</time>
      </trkpt>
      <trkpt lat="42.62739" lon="1.72684">
        <ele>2132.234</ele>
        <time>2021-08-06T13:53:55Z</time>
      </trkpt>
      <trkpt lat="42.62739" lon="1.72684">
        <ele>2132.237</ele>
        <time>2021-08-06T13:53:57Z</time>
      </trkpt>
      <trkpt lat="42.62739" lon="1.72684">
        <ele>2132.24</ele>
        <time>2021-08-06T13:53:59Z</time>
      </trkpt>
      <trkpt lat="42.62739" lon="1.72684">
        <ele>2132.241</ele>
        <time>2021-08-06T13:54:01Z</time>
      </trkpt>
      <trkpt lat="42.62739" lon="1.72684">
        <ele>2132.241</ele>
        <time>2021-08-06T13:54:03Z</time>
      </trkpt>
      <trkpt lat="42.62739" lon="1.72684">
        <ele>2132.26</ele>
        <time>2021-08-06T13:54:05Z</time>
      </trkpt>
      <trkpt lat="42.62739" lon="1.72684">
        <ele>2132.253</ele>
        <time>2021-08-06T13:54:07Z</time>
      </trkpt>
      <trkpt lat="42.62739" lon="1.72684">
        <ele>2132.252</ele>
        <time>2021-08-06T13:54:09Z</time>
      </trkpt>
      <trkpt lat="42.62739" lon="1.72684">
        <ele>2132.224</ele>
        <time>2021-08-06T13:54:11Z</time>
      </trkpt>
      <trkpt lat="42.62739" lon="1.72684">
        <ele>2132.216</ele>
        <time>2021-08-06T13:54:13Z</time>
      </trkpt>
      <trkpt lat="42.62739" lon="1.72684">
        <ele>2132.224</ele>
        <time>2021-08-06T13:54:15Z</time>
      </trkpt>
      <trkpt lat="42.62739" lon="1.72684">
        <ele>2132.215</ele>
        <time>2021-08-06T13:54:17Z</time>
      </trkpt>
      <trkpt lat="42.62739" lon="1.72684">
        <ele>2132.194</ele>
        <time>2021-08-06T13:54:19Z</time>
      </trkpt>
      <trkpt lat="42.62739" lon="1.72684">
        <ele>2132.181</ele>
        <time>2021-08-06T13:54:21Z</time>
      </trkpt>
      <trkpt lat="42.62739" lon="1.72684">
        <ele>2132.183</ele>
        <time>2021-08-06T13:54:23Z</time>
      </trkpt>
      <trkpt lat="42.62739" lon="1.72684">
        <ele>2132.183</ele>
        <time>2021-08-06T13:54:25Z</time>
      </trkpt>
      <trkpt lat="42.62739" lon="1.72684">
        <ele>2132.159</ele>
        <time>2021-08-06T13:54:27Z</time>
      </trkpt>
      <trkpt lat="42.62739" lon="1.72684">
        <ele>2132.163</ele>
        <time>2021-08-06T13:54:29Z</time>
      </trkpt>
      <trkpt lat="42.62739" lon="1.72684">
        <ele>2132.167</ele>
        <time>2021-08-06T13:54:31Z</time>
      </trkpt>
      <trkpt lat="42.62739" lon="1.72684">
        <ele>2132.175</ele>
        <time>2021-08-06T13:54:33Z</time>
      </trkpt>
      <trkpt lat="42.62739" lon="1.72684">
        <ele>2132.21</ele>
        <time>2021-08-06T13:54:35Z</time>
      </trkpt>
      <trkpt lat="42.62739" lon="1.72684">
        <ele>2132.221</ele>
        <time>2021-08-06T13:54:37Z</time>
      </trkpt>
      <trkpt lat="42.62739" lon="1.72684">
        <ele>2132.232</ele>
        <time>2021-08-06T13:54:39Z</time>
      </trkpt>
      <trkpt lat="42.62739" lon="1.72684">
        <ele>2132.211</ele>
        <time>2021-08-06T13:54:41Z</time>
      </trkpt>
      <trkpt lat="42.62739" lon="1.72684">
        <ele>2132.181</ele>
        <time>2021-08-06T13:54:43Z</time>
      </trkpt>
      <trkpt lat="42.62739" lon="1.72684">
        <ele>2132.164</ele>
        <time>2021-08-06T13:54:45Z</time>
      </trkpt>
      <trkpt lat="42.62739" lon="1.72684">
        <ele>2132.164</ele>
        <time>2021-08-06T13:54:47Z</time>
      </trkpt>
      <trkpt lat="42.62739" lon="1.72684">
        <ele>2132.155</ele>
        <time>2021-08-06T13:54:49Z</time>
      </trkpt>
      <trkpt lat="42.62739" lon="1.72684">
        <ele>2132.17</ele>
        <time>2021-08-06T13:54:51Z</time>
      </trkpt>
      <trkpt lat="42.62739" lon="1.72684">
        <ele>2132.169</ele>
        <time>2021-08-06T13:54:53Z</time>
      </trkpt>
      <trkpt lat="42.62739" lon="1.72684">
        <ele>2132.177</ele>
        <time>2021-08-06T13:54:55Z</time>
      </trkpt>
      <trkpt lat="42.62739" lon="1.72684">
        <ele>2132.179</ele>
        <time>2021-08-06T13:54:57Z</time>
      </trkpt>
      <trkpt lat="42.62739" lon="1.72684">
        <ele>2132.164</ele>
        <time>2021-08-06T13:54:59Z</time>
      </trkpt>
      <trkpt lat="42.62739" lon="1.72684">
        <ele>2132.173</ele>
        <time>2021-08-06T13:55:01Z</time>
      </trkpt>
      <trkpt lat="42.62739" lon="1.72684">
        <ele>2132.164</ele>
        <time>2021-08-06T13:55:03Z</time>
      </trkpt>
      <trkpt lat="42.62739" lon="1.72684">
        <ele>2132.177</ele>
        <time>2021-08-06T13:55:05Z</time>
      </trkpt>
      <trkpt lat="42.62739" lon="1.72684">
        <ele>2132.172</ele>
        <time>2021-08-06T13:55:07Z</time>
      </trkpt>
      <trkpt lat="42.62739" lon="1.72684">
        <ele>2132.168</ele>
        <time>2021-08-06T13:55:09Z</time>
      </trkpt>
      <trkpt lat="42.62739" lon="1.72684">
        <ele>2132.174</ele>
        <time>2021-08-06T13:55:11Z</time>
      </trkpt>
      <trkpt lat="42.62739" lon="1.72684">
        <ele>2132.153</ele>
        <time>2021-08-06T13:55:13Z</time>
      </trkpt>
      <trkpt lat="42.62739" lon="1.72684">
        <ele>2132.139</ele>
        <time>2021-08-06T13:55:15Z</time>
      </trkpt>
      <trkpt lat="42.62739" lon="1.72684">
        <ele>2132.156</ele>
        <time>2021-08-06T13:55:17Z</time>
      </trkpt>
      <trkpt lat="42.62739" lon="1.72684">
        <ele>2132.163</ele>
        <time>2021-08-06T13:55:19Z</time>
      </trkpt>
      <trkpt lat="42.62739" lon="1.72684">
        <ele>2132.173</ele>
        <time>2021-08-06T13:55:21Z</time>
      </trkpt>
      <trkpt lat="42.62739" lon="1.72684">
        <ele>2132.184</ele>
        <time>2021-08-06T13:55:23Z</time>
      </trkpt>
      <trkpt lat="42.62739" lon="1.72684">
        <ele>2132.18</ele>
        <time>2021-08-06T13:55:25Z</time>
      </trkpt>
      <trkpt lat="42.62739" lon="1.72684">
        <ele>2132.182</ele>
        <time>2021-08-06T13:55:27Z</time>
      </trkpt>
      <trkpt lat="42.62739" lon="1.72684">
        <ele>2132.178</ele>
        <time>2021-08-06T13:55:29Z</time>
      </trkpt>
      <trkpt lat="42.62739" lon="1.72684">
        <ele>2132.181</ele>
        <time>2021-08-06T13:55:31Z</time>
      </trkpt>
      <trkpt lat="42.62739" lon="1.72684">
        <ele>2132.172</ele>
        <time>2021-08-06T13:55:33Z</time>
      </trkpt>
      <trkpt lat="42.62739" lon="1.72684">
        <ele>2132.162</ele>
        <time>2021-08-06T13:55:35Z</time>
      </trkpt>
      <trkpt lat="42.62739" lon="1.72684">
        <ele>2132.172</ele>
        <time>2021-08-06T13:55:37Z</time>
      </trkpt>
      <trkpt lat="42.62739" lon="1.72684">
        <ele>2132.136</ele>
        <time>2021-08-06T13:55:39Z</time>
      </trkpt>
      <trkpt lat="42.62739" lon="1.72684">
        <ele>2132.136</ele>
        <time>2021-08-06T13:55:41Z</time>
      </trkpt>
      <trkpt lat="42.62739" lon="1.72684">
        <ele>2132.128</ele>
        <time>2021-08-06T13:55:43Z</time>
      </trkpt>
      <trkpt lat="42.62739" lon="1.72684">
        <ele>2132.118</ele>
        <time>2021-08-06T13:55:45Z</time>
      </trkpt>
      <trkpt lat="42.62739" lon="1.72684">
        <ele>2132.12</ele>
        <time>2021-08-06T13:55:47Z</time>
      </trkpt>
      <trkpt lat="42.62739" lon="1.72684">
        <ele>2132.111</ele>
        <time>2021-08-06T13:55:49Z</time>
      </trkpt>
      <trkpt lat="42.62739" lon="1.72684">
        <ele>2132.102</ele>
        <time>2021-08-06T13:55:51Z</time>
      </trkpt>
      <trkpt lat="42.62739" lon="1.72684">
        <ele>2132.086</ele>
        <time>2021-08-06T13:55:53Z</time>
      </trkpt>
      <trkpt lat="42.62739" lon="1.72684">
        <ele>2132.085</ele>
        <time>2021-08-06T13:55:55Z</time>
      </trkpt>
      <trkpt lat="42.62739" lon="1.72684">
        <ele>2132.084</ele>
        <time>2021-08-06T13:55:57Z</time>
      </trkpt>
      <trkpt lat="42.62739" lon="1.72684">
        <ele>2132.08</ele>
        <time>2021-08-06T13:55:59Z</time>
      </trkpt>
      <trkpt lat="42.62739" lon="1.72684">
        <ele>2132.063</ele>
        <time>2021-08-06T13:56:01Z</time>
      </trkpt>
      <trkpt lat="42.62739" lon="1.72684">
        <ele>2132.041</ele>
        <time>2021-08-06T13:56:03Z</time>
      </trkpt>
      <trkpt lat="42.62739" lon="1.72684">
        <ele>2132.029</ele>
        <time>2021-08-06T13:56:05Z</time>
      </trkpt>
      <trkpt lat="42.62739" lon="1.72684">
        <ele>2132.009</ele>
        <time>2021-08-06T13:56:07Z</time>
      </trkpt>
      <trkpt lat="42.62739" lon="1.72684">
        <ele>2132.027</ele>
        <time>2021-08-06T13:56:09Z</time>
      </trkpt>
      <trkpt lat="42.62739" lon="1.72684">
        <ele>2132.021</ele>
        <time>2021-08-06T13:56:11Z</time>
      </trkpt>
      <trkpt lat="42.62739" lon="1.72684">
        <ele>2132.006</ele>
        <time>2021-08-06T13:56:13Z</time>
      </trkpt>
      <trkpt lat="42.62739" lon="1.72684">
        <ele>2132.013</ele>
        <time>2021-08-06T13:56:15Z</time>
      </trkpt>
      <trkpt lat="42.62739" lon="1.72684">
        <ele>2132.021</ele>
        <time>2021-08-06T13:56:17Z</time>
      </trkpt>
      <trkpt lat="42.62739" lon="1.72684">
        <ele>2132.016</ele>
        <time>2021-08-06T13:56:19Z</time>
      </trkpt>
      <trkpt lat="42.62739" lon="1.72684">
        <ele>2132.043</ele>
        <time>2021-08-06T13:56:21Z</time>
      </trkpt>
      <trkpt lat="42.62739" lon="1.72685">
        <ele>2132.258</ele>
        <time>2021-08-06T13:56:23Z</time>
      </trkpt>
      <trkpt lat="42.62739" lon="1.72684">
        <ele>2132.252</ele>
        <time>2021-08-06T13:56:25Z</time>
      </trkpt>
      <trkpt lat="42.62739" lon="1.72684">
        <ele>2132.247</ele>
        <time>2021-08-06T13:56:27Z</time>
      </trkpt>
      <trkpt lat="42.62739" lon="1.72684">
        <ele>2132.253</ele>
        <time>2021-08-06T13:56:29Z</time>
      </trkpt>
      <trkpt lat="42.62739" lon="1.72684">
        <ele>2132.26</ele>
        <time>2021-08-06T13:56:31Z</time>
      </trkpt>
      <trkpt lat="42.62739" lon="1.72685">
        <ele>2132.263</ele>
        <time>2021-08-06T13:56:33Z</time>
      </trkpt>
      <trkpt lat="42.62739" lon="1.72685">
        <ele>2132.266</ele>
        <time>2021-08-06T13:56:35Z</time>
      </trkpt>
      <trkpt lat="42.62739" lon="1.72684">
        <ele>2132.273</ele>
        <time>2021-08-06T13:56:37Z</time>
      </trkpt>
      <trkpt lat="42.62739" lon="1.72685">
        <ele>2132.273</ele>
        <time>2021-08-06T13:56:39Z</time>
      </trkpt>
      <trkpt lat="42.62739" lon="1.72685">
        <ele>2132.27</ele>
        <time>2021-08-06T13:56:41Z</time>
      </trkpt>
      <trkpt lat="42.62739" lon="1.72685">
        <ele>2132.27</ele>
        <time>2021-08-06T13:56:43Z</time>
      </trkpt>
      <trkpt lat="42.62739" lon="1.72684">
        <ele>2132.278</ele>
        <time>2021-08-06T13:56:45Z</time>
      </trkpt>
      <trkpt lat="42.62739" lon="1.72684">
        <ele>2132.288</ele>
        <time>2021-08-06T13:56:47Z</time>
      </trkpt>
      <trkpt lat="42.62739" lon="1.72684">
        <ele>2132.282</ele>
        <time>2021-08-06T13:56:49Z</time>
      </trkpt>
      <trkpt lat="42.62739" lon="1.72684">
        <ele>2132.279</ele>
        <time>2021-08-06T13:56:51Z</time>
      </trkpt>
      <trkpt lat="42.62739" lon="1.72685">
        <ele>2132.263</ele>
        <time>2021-08-06T13:56:53Z</time>
      </trkpt>
      <trkpt lat="42.62739" lon="1.72685">
        <ele>2132.255</ele>
        <time>2021-08-06T13:56:55Z</time>
      </trkpt>
      <trkpt lat="42.62739" lon="1.72685">
        <ele>2132.243</ele>
        <time>2021-08-06T13:56:57Z</time>
      </trkpt>
      <trkpt lat="42.62739" lon="1.72685">
        <ele>2132.245</ele>
        <time>2021-08-06T13:56:59Z</time>
      </trkpt>
      <trkpt lat="42.62739" lon="1.72685">
        <ele>2132.24</ele>
        <time>2021-08-06T13:57:01Z</time>
      </trkpt>
      <trkpt lat="42.62739" lon="1.72685">
        <ele>2132.247</ele>
        <time>2021-08-06T13:57:03Z</time>
      </trkpt>
      <trkpt lat="42.62739" lon="1.72685">
        <ele>2132.237</ele>
        <time>2021-08-06T13:57:05Z</time>
      </trkpt>
      <trkpt lat="42.62739" lon="1.72685">
        <ele>2132.225</ele>
        <time>2021-08-06T13:57:07Z</time>
      </trkpt>
      <trkpt lat="42.62739" lon="1.72685">
        <ele>2132.221</ele>
        <time>2021-08-06T13:57:09Z</time>
      </trkpt>
      <trkpt lat="42.62739" lon="1.72685">
        <ele>2132.215</ele>
        <time>2021-08-06T13:57:11Z</time>
      </trkpt>
      <trkpt lat="42.62739" lon="1.72685">
        <ele>2132.222</ele>
        <time>2021-08-06T13:57:13Z</time>
      </trkpt>
      <trkpt lat="42.62739" lon="1.72685">
        <ele>2132.214</ele>
        <time>2021-08-06T13:57:15Z</time>
      </trkpt>
      <trkpt lat="42.62739" lon="1.72685">
        <ele>2132.207</ele>
        <time>2021-08-06T13:57:17Z</time>
      </trkpt>
      <trkpt lat="42.62739" lon="1.72685">
        <ele>2132.21</ele>
        <time>2021-08-06T13:57:19Z</time>
      </trkpt>
      <trkpt lat="42.62739" lon="1.72685">
        <ele>2132.209</ele>
        <time>2021-08-06T13:57:21Z</time>
      </trkpt>
      <trkpt lat="42.62739" lon="1.72685">
        <ele>2132.211</ele>
        <time>2021-08-06T13:57:23Z</time>
      </trkpt>
      <trkpt lat="42.62739" lon="1.72685">
        <ele>2132.2</ele>
        <time>2021-08-06T13:57:25Z</time>
      </trkpt>
      <trkpt lat="42.62739" lon="1.72685">
        <ele>2132.191</ele>
        <time>2021-08-06T13:57:27Z</time>
      </trkpt>
      <trkpt lat="42.62739" lon="1.72685">
        <ele>2132.194</ele>
        <time>2021-08-06T13:57:29Z</time>
      </trkpt>
      <trkpt lat="42.62739" lon="1.72685">
        <ele>2132.188</ele>
        <time>2021-08-06T13:57:31Z</time>
      </trkpt>
      <trkpt lat="42.62739" lon="1.72685">
        <ele>2132.191</ele>
        <time>2021-08-06T13:57:33Z</time>
      </trkpt>
      <trkpt lat="42.62739" lon="1.72685">
        <ele>2132.19</ele>
        <time>2021-08-06T13:57:35Z</time>
      </trkpt>
      <trkpt lat="42.62739" lon="1.72685">
        <ele>2132.188</ele>
        <time>2021-08-06T13:57:37Z</time>
      </trkpt>
      <trkpt lat="42.62739" lon="1.72685">
        <ele>2132.187</ele>
        <time>2021-08-06T13:57:39Z</time>
      </trkpt>
      <trkpt lat="42.62739" lon="1.72685">
        <ele>2132.186</ele>
        <time>2021-08-06T13:57:41Z</time>
      </trkpt>
      <trkpt lat="42.62739" lon="1.72685">
        <ele>2132.189</ele>
        <time>2021-08-06T13:57:43Z</time>
      </trkpt>
      <trkpt lat="42.62739" lon="1.72685">
        <ele>2132.192</ele>
        <time>2021-08-06T13:57:45Z</time>
      </trkpt>
      <trkpt lat="42.62739" lon="1.72685">
        <ele>2132.194</ele>
        <time>2021-08-06T13:57:47Z</time>
      </trkpt>
      <trkpt lat="42.62739" lon="1.72685">
        <ele>2132.2</ele>
        <time>2021-08-06T13:57:49Z</time>
      </trkpt>
      <trkpt lat="42.62739" lon="1.72685">
        <ele>2132.194</ele>
        <time>2021-08-06T13:57:51Z</time>
      </trkpt>
      <trkpt lat="42.62739" lon="1.72685">
        <ele>2132.19</ele>
        <time>2021-08-06T13:57:53Z</time>
      </trkpt>
      <trkpt lat="42.62739" lon="1.72685">
        <ele>2132.2</ele>
        <time>2021-08-06T13:57:55Z</time>
      </trkpt>
      <trkpt lat="42.62739" lon="1.72685">
        <ele>2132.208</ele>
        <time>2021-08-06T13:57:57Z</time>
      </trkpt>
      <trkpt lat="42.62739" lon="1.72685">
        <ele>2132.218</ele>
        <time>2021-08-06T13:57:59Z</time>
      </trkpt>
      <trkpt lat="42.62739" lon="1.72685">
        <ele>2132.228</ele>
        <time>2021-08-06T13:58:01Z</time>
      </trkpt>
      <trkpt lat="42.62739" lon="1.72684">
        <ele>2132.237</ele>
        <time>2021-08-06T13:58:03Z</time>
      </trkpt>
      <trkpt lat="42.62739" lon="1.72684">
        <ele>2132.244</ele>
        <time>2021-08-06T13:58:05Z</time>
      </trkpt>
      <trkpt lat="42.62739" lon="1.72685">
        <ele>2132.241</ele>
        <time>2021-08-06T13:58:07Z</time>
      </trkpt>
      <trkpt lat="42.62739" lon="1.72685">
        <ele>2132.245</ele>
        <time>2021-08-06T13:58:09Z</time>
      </trkpt>
      <trkpt lat="42.62739" lon="1.72685">
        <ele>2132.236</ele>
        <time>2021-08-06T13:58:11Z</time>
      </trkpt>
      <trkpt lat="42.62739" lon="1.72685">
        <ele>2132.23</ele>
        <time>2021-08-06T13:58:13Z</time>
      </trkpt>
      <trkpt lat="42.62739" lon="1.72685">
        <ele>2132.231</ele>
        <time>2021-08-06T13:58:15Z</time>
      </trkpt>
      <trkpt lat="42.62739" lon="1.72685">
        <ele>2132.239</ele>
        <time>2021-08-06T13:58:17Z</time>
      </trkpt>
      <trkpt lat="42.62739" lon="1.72685">
        <ele>2132.252</ele>
        <time>2021-08-06T13:58:19Z</time>
      </trkpt>
      <trkpt lat="42.62739" lon="1.72685">
        <ele>2132.259</ele>
        <time>2021-08-06T13:58:21Z</time>
      </trkpt>
      <trkpt lat="42.62739" lon="1.72685">
        <ele>2132.252</ele>
        <time>2021-08-06T13:58:23Z</time>
      </trkpt>
      <trkpt lat="42.62739" lon="1.72685">
        <ele>2132.259</ele>
        <time>2021-08-06T13:58:25Z</time>
      </trkpt>
      <trkpt lat="42.62739" lon="1.72685">
        <ele>2132.251</ele>
        <time>2021-08-06T13:58:27Z</time>
      </trkpt>
      <trkpt lat="42.62739" lon="1.72685">
        <ele>2132.236</ele>
        <time>2021-08-06T13:58:29Z</time>
      </trkpt>
      <trkpt lat="42.62739" lon="1.72685">
        <ele>2132.231</ele>
        <time>2021-08-06T13:58:31Z</time>
      </trkpt>
      <trkpt lat="42.62739" lon="1.72685">
        <ele>2132.232</ele>
        <time>2021-08-06T13:58:33Z</time>
      </trkpt>
      <trkpt lat="42.62739" lon="1.72685">
        <ele>2132.245</ele>
        <time>2021-08-06T13:58:35Z</time>
      </trkpt>
      <trkpt lat="42.62739" lon="1.72685">
        <ele>2132.243</ele>
        <time>2021-08-06T13:58:37Z</time>
      </trkpt>
      <trkpt lat="42.62739" lon="1.72685">
        <ele>2132.248</ele>
        <time>2021-08-06T13:58:39Z</time>
      </trkpt>
      <trkpt lat="42.62739" lon="1.72685">
        <ele>2132.24</ele>
        <time>2021-08-06T13:58:41Z</time>
      </trkpt>
      <trkpt lat="42.62739" lon="1.72685">
        <ele>2132.244</ele>
        <time>2021-08-06T13:58:43Z</time>
      </trkpt>
      <trkpt lat="42.62739" lon="1.72685">
        <ele>2132.248</ele>
        <time>2021-08-06T13:58:45Z</time>
      </trkpt>
      <trkpt lat="42.62739" lon="1.72685">
        <ele>2132.253</ele>
        <time>2021-08-06T13:58:47Z</time>
      </trkpt>
      <trkpt lat="42.62739" lon="1.72685">
        <ele>2132.245</ele>
        <time>2021-08-06T13:58:49Z</time>
      </trkpt>
      <trkpt lat="42.62739" lon="1.72685">
        <ele>2132.245</ele>
        <time>2021-08-06T13:58:51Z</time>
      </trkpt>
      <trkpt lat="42.62739" lon="1.72685">
        <ele>2132.242</ele>
        <time>2021-08-06T13:58:53Z</time>
      </trkpt>
      <trkpt lat="42.62739" lon="1.72685">
        <ele>2132.242</ele>
        <time>2021-08-06T13:58:55Z</time>
      </trkpt>
      <trkpt lat="42.62739" lon="1.72684">
        <ele>2132.242</ele>
        <time>2021-08-06T13:58:57Z</time>
      </trkpt>
      <trkpt lat="42.62739" lon="1.72684">
        <ele>2132.248</ele>
        <time>2021-08-06T13:58:59Z</time>
      </trkpt>
      <trkpt lat="42.62739" lon="1.72685">
        <ele>2132.246</ele>
        <time>2021-08-06T13:59:01Z</time>
      </trkpt>
      <trkpt lat="42.62739" lon="1.72685">
        <ele>2132.243</ele>
        <time>2021-08-06T13:59:03Z</time>
      </trkpt>
      <trkpt lat="42.62739" lon="1.72684">
        <ele>2132.242</ele>
        <time>2021-08-06T13:59:05Z</time>
      </trkpt>
      <trkpt lat="42.62739" lon="1.72684">
        <ele>2132.233</ele>
        <time>2021-08-06T13:59:07Z</time>
      </trkpt>
      <trkpt lat="42.62739" lon="1.72684">
        <ele>2132.226</ele>
        <time>2021-08-06T13:59:09Z</time>
      </trkpt>
      <trkpt lat="42.62739" lon="1.72684">
        <ele>2132.228</ele>
        <time>2021-08-06T13:59:11Z</time>
      </trkpt>
      <trkpt lat="42.62739" lon="1.72684">
        <ele>2132.227</ele>
        <time>2021-08-06T13:59:13Z</time>
      </trkpt>
      <trkpt lat="42.62739" lon="1.72684">
        <ele>2132.236</ele>
        <time>2021-08-06T13:59:15Z</time>
      </trkpt>
      <trkpt lat="42.62739" lon="1.72684">
        <ele>2132.248</ele>
        <time>2021-08-06T13:59:17Z</time>
      </trkpt>
      <trkpt lat="42.62739" lon="1.72684">
        <ele>2132.243</ele>
        <time>2021-08-06T13:59:19Z</time>
      </trkpt>
      <trkpt lat="42.62739" lon="1.72684">
        <ele>2132.244</ele>
        <time>2021-08-06T13:59:21Z</time>
      </trkpt>
      <trkpt lat="42.62739" lon="1.72684">
        <ele>2132.234</ele>
        <time>2021-08-06T13:59:23Z</time>
      </trkpt>
      <trkpt lat="42.62739" lon="1.72684">
        <ele>2132.225</ele>
        <time>2021-08-06T13:59:25Z</time>
      </trkpt>
      <trkpt lat="42.62739" lon="1.72684">
        <ele>2132.223</ele>
        <time>2021-08-06T13:59:27Z</time>
      </trkpt>
      <trkpt lat="42.62739" lon="1.72684">
        <ele>2132.226</ele>
        <time>2021-08-06T13:59:29Z</time>
      </trkpt>
      <trkpt lat="42.62739" lon="1.72684">
        <ele>2132.228</ele>
        <time>2021-08-06T13:59:31Z</time>
      </trkpt>
      <trkpt lat="42.62739" lon="1.72684">
        <ele>2132.221</ele>
        <time>2021-08-06T13:59:33Z</time>
      </trkpt>
      <trkpt lat="42.62739" lon="1.72684">
        <ele>2132.215</ele>
        <time>2021-08-06T13:59:35Z</time>
      </trkpt>
      <trkpt lat="42.62739" lon="1.72684">
        <ele>2132.221</ele>
        <time>2021-08-06T13:59:37Z</time>
      </trkpt>
      <trkpt lat="42.62739" lon="1.72685">
        <ele>2132.221</ele>
        <time>2021-08-06T13:59:39Z</time>
      </trkpt>
      <trkpt lat="42.62739" lon="1.72685">
        <ele>2132.218</ele>
        <time>2021-08-06T13:59:41Z</time>
      </trkpt>
      <trkpt lat="42.62739" lon="1.72685">
        <ele>2132.214</ele>
        <time>2021-08-06T13:59:43Z</time>
      </trkpt>
      <trkpt lat="42.62739" lon="1.72685">
        <ele>2132.203</ele>
        <time>2021-08-06T13:59:45Z</time>
      </trkpt>
      <trkpt lat="42.62739" lon="1.72685">
        <ele>2132.199</ele>
        <time>2021-08-06T13:59:47Z</time>
      </trkpt>
      <trkpt lat="42.62739" lon="1.72685">
        <ele>2132.191</ele>
        <time>2021-08-06T13:59:49Z</time>
      </trkpt>
      <trkpt lat="42.62739" lon="1.72685">
        <ele>2132.197</ele>
        <time>2021-08-06T13:59:51Z</time>
      </trkpt>
      <trkpt lat="42.62739" lon="1.72685">
        <ele>2132.187</ele>
        <time>2021-08-06T13:59:53Z</time>
      </trkpt>
      <trkpt lat="42.62739" lon="1.72685">
        <ele>2132.19</ele>
        <time>2021-08-06T13:59:55Z</time>
      </trkpt>
      <trkpt lat="42.62739" lon="1.72685">
        <ele>2132.194</ele>
        <time>2021-08-06T13:59:57Z</time>
      </trkpt>
      <trkpt lat="42.62739" lon="1.72685">
        <ele>2132.197</ele>
        <time>2021-08-06T13:59:59Z</time>
      </trkpt>
      <trkpt lat="42.62739" lon="1.72685">
        <ele>2132.195</ele>
        <time>2021-08-06T14:00:01Z</time>
      </trkpt>
      <trkpt lat="42.62739" lon="1.72685">
        <ele>2132.203</ele>
        <time>2021-08-06T14:00:03Z</time>
      </trkpt>
      <trkpt lat="42.62739" lon="1.72685">
        <ele>2132.195</ele>
        <time>2021-08-06T14:00:05Z</time>
      </trkpt>
      <trkpt lat="42.62739" lon="1.72685">
        <ele>2132.179</ele>
        <time>2021-08-06T14:00:07Z</time>
      </trkpt>
      <trkpt lat="42.62739" lon="1.72685">
        <ele>2132.187</ele>
        <time>2021-08-06T14:00:09Z</time>
      </trkpt>
      <trkpt lat="42.62739" lon="1.72685">
        <ele>2132.188</ele>
        <time>2021-08-06T14:00:11Z</time>
      </trkpt>
      <trkpt lat="42.62739" lon="1.72685">
        <ele>2132.189</ele>
        <time>2021-08-06T14:00:13Z</time>
      </trkpt>
      <trkpt lat="42.62739" lon="1.72685">
        <ele>2132.185</ele>
        <time>2021-08-06T14:00:15Z</time>
      </trkpt>
      <trkpt lat="42.62739" lon="1.72685">
        <ele>2132.18</ele>
        <time>2021-08-06T14:00:17Z</time>
      </trkpt>
      <trkpt lat="42.62739" lon="1.72685">
        <ele>2132.18</ele>
        <time>2021-08-06T14:00:19Z</time>
      </trkpt>
      <trkpt lat="42.62739" lon="1.72685">
        <ele>2132.173</ele>
        <time>2021-08-06T14:00:21Z</time>
      </trkpt>
      <trkpt lat="42.62739" lon="1.72685">
        <ele>2132.172</ele>
        <time>2021-08-06T14:00:23Z</time>
      </trkpt>
      <trkpt lat="42.62739" lon="1.72685">
        <ele>2132.177</ele>
        <time>2021-08-06T14:00:25Z</time>
      </trkpt>
      <trkpt lat="42.62739" lon="1.72685">
        <ele>2132.165</ele>
        <time>2021-08-06T14:00:27Z</time>
      </trkpt>
      <trkpt lat="42.62739" lon="1.72685">
        <ele>2132.166</ele>
        <time>2021-08-06T14:00:29Z</time>
      </trkpt>
      <trkpt lat="42.62739" lon="1.72685">
        <ele>2132.164</ele>
        <time>2021-08-06T14:00:31Z</time>
      </trkpt>
      <trkpt lat="42.62739" lon="1.72685">
        <ele>2132.158</ele>
        <time>2021-08-06T14:00:33Z</time>
      </trkpt>
      <trkpt lat="42.62739" lon="1.72685">
        <ele>2132.146</ele>
        <time>2021-08-06T14:00:35Z</time>
      </trkpt>
      <trkpt lat="42.62739" lon="1.72685">
        <ele>2132.146</ele>
        <time>2021-08-06T14:00:37Z</time>
      </trkpt>
      <trkpt lat="42.62739" lon="1.72685">
        <ele>2132.147</ele>
        <time>2021-08-06T14:00:39Z</time>
      </trkpt>
      <trkpt lat="42.62739" lon="1.72685">
        <ele>2132.149</ele>
        <time>2021-08-06T14:00:41Z</time>
      </trkpt>
      <trkpt lat="42.62739" lon="1.72685">
        <ele>2132.148</ele>
        <time>2021-08-06T14:00:43Z</time>
      </trkpt>
      <trkpt lat="42.62739" lon="1.72685">
        <ele>2132.145</ele>
        <time>2021-08-06T14:00:45Z</time>
      </trkpt>
      <trkpt lat="42.62739" lon="1.72685">
        <ele>2132.141</ele>
        <time>2021-08-06T14:00:47Z</time>
      </trkpt>
      <trkpt lat="42.62739" lon="1.72685">
        <ele>2132.138</ele>
        <time>2021-08-06T14:00:49Z</time>
      </trkpt>
      <trkpt lat="42.62739" lon="1.72685">
        <ele>2132.121</ele>
        <time>2021-08-06T14:00:51Z</time>
      </trkpt>
      <trkpt lat="42.62739" lon="1.72685">
        <ele>2132.124</ele>
        <time>2021-08-06T14:00:53Z</time>
      </trkpt>
      <trkpt lat="42.62739" lon="1.72685">
        <ele>2132.124</ele>
        <time>2021-08-06T14:00:55Z</time>
      </trkpt>
      <trkpt lat="42.62739" lon="1.72685">
        <ele>2132.134</ele>
        <time>2021-08-06T14:00:57Z</time>
      </trkpt>
      <trkpt lat="42.62739" lon="1.72685">
        <ele>2132.124</ele>
        <time>2021-08-06T14:00:59Z</time>
      </trkpt>
      <trkpt lat="42.62739" lon="1.72685">
        <ele>2132.124</ele>
        <time>2021-08-06T14:01:01Z</time>
      </trkpt>
      <trkpt lat="42.62739" lon="1.72685">
        <ele>2132.126</ele>
        <time>2021-08-06T14:01:03Z</time>
      </trkpt>
      <trkpt lat="42.62739" lon="1.72685">
        <ele>2132.118</ele>
        <time>2021-08-06T14:01:05Z</time>
      </trkpt>
      <trkpt lat="42.62739" lon="1.72685">
        <ele>2132.12</ele>
        <time>2021-08-06T14:01:07Z</time>
      </trkpt>
      <trkpt lat="42.62739" lon="1.72685">
        <ele>2132.126</ele>
        <time>2021-08-06T14:01:09Z</time>
      </trkpt>
      <trkpt lat="42.62739" lon="1.72685">
        <ele>2132.122</ele>
        <time>2021-08-06T14:01:11Z</time>
      </trkpt>
      <trkpt lat="42.62739" lon="1.72685">
        <ele>2132.132</ele>
        <time>2021-08-06T14:01:13Z</time>
      </trkpt>
      <trkpt lat="42.62739" lon="1.72685">
        <ele>2132.142</ele>
        <time>2021-08-06T14:01:15Z</time>
      </trkpt>
      <trkpt lat="42.62739" lon="1.72685">
        <ele>2132.15</ele>
        <time>2021-08-06T14:01:17Z</time>
      </trkpt>
      <trkpt lat="42.62739" lon="1.72685">
        <ele>2132.15</ele>
        <time>2021-08-06T14:01:19Z</time>
      </trkpt>
      <trkpt lat="42.62739" lon="1.72685">
        <ele>2132.158</ele>
        <time>2021-08-06T14:01:21Z</time>
      </trkpt>
      <trkpt lat="42.62739" lon="1.72685">
        <ele>2132.16</ele>
        <time>2021-08-06T14:01:23Z</time>
      </trkpt>
      <trkpt lat="42.62739" lon="1.72685">
        <ele>2132.161</ele>
        <time>2021-08-06T14:01:25Z</time>
      </trkpt>
      <trkpt lat="42.62739" lon="1.72685">
        <ele>2132.159</ele>
        <time>2021-08-06T14:01:27Z</time>
      </trkpt>
      <trkpt lat="42.62739" lon="1.72685">
        <ele>2132.157</ele>
        <time>2021-08-06T14:01:29Z</time>
      </trkpt>
      <trkpt lat="42.62739" lon="1.72685">
        <ele>2132.151</ele>
        <time>2021-08-06T14:01:31Z</time>
      </trkpt>
      <trkpt lat="42.62739" lon="1.72685">
        <ele>2132.149</ele>
        <time>2021-08-06T14:01:33Z</time>
      </trkpt>
      <trkpt lat="42.62739" lon="1.72685">
        <ele>2132.148</ele>
        <time>2021-08-06T14:01:35Z</time>
      </trkpt>
      <trkpt lat="42.62739" lon="1.72685">
        <ele>2132.144</ele>
        <time>2021-08-06T14:01:37Z</time>
      </trkpt>
      <trkpt lat="42.62739" lon="1.72685">
        <ele>2132.13</ele>
        <time>2021-08-06T14:01:39Z</time>
      </trkpt>
      <trkpt lat="42.62739" lon="1.72685">
        <ele>2132.127</ele>
        <time>2021-08-06T14:01:41Z</time>
      </trkpt>
      <trkpt lat="42.62739" lon="1.72685">
        <ele>2132.122</ele>
        <time>2021-08-06T14:01:43Z</time>
      </trkpt>
      <trkpt lat="42.62739" lon="1.72685">
        <ele>2132.119</ele>
        <time>2021-08-06T14:01:45Z</time>
      </trkpt>
      <trkpt lat="42.62739" lon="1.72685">
        <ele>2132.117</ele>
        <time>2021-08-06T14:01:47Z</time>
      </trkpt>
      <trkpt lat="42.62739" lon="1.72685">
        <ele>2132.117</ele>
        <time>2021-08-06T14:01:49Z</time>
      </trkpt>
      <trkpt lat="42.62739" lon="1.72685">
        <ele>2132.114</ele>
        <time>2021-08-06T14:01:51Z</time>
      </trkpt>
      <trkpt lat="42.62739" lon="1.72685">
        <ele>2132.11</ele>
        <time>2021-08-06T14:01:53Z</time>
      </trkpt>
      <trkpt lat="42.62739" lon="1.72685">
        <ele>2132.102</ele>
        <time>2021-08-06T14:01:55Z</time>
      </trkpt>
      <trkpt lat="42.62739" lon="1.72685">
        <ele>2132.094</ele>
        <time>2021-08-06T14:01:57Z</time>
      </trkpt>
      <trkpt lat="42.62739" lon="1.72685">
        <ele>2132.103</ele>
        <time>2021-08-06T14:01:59Z</time>
      </trkpt>
      <trkpt lat="42.62739" lon="1.72685">
        <ele>2132.105</ele>
        <time>2021-08-06T14:02:01Z</time>
      </trkpt>
      <trkpt lat="42.62739" lon="1.72685">
        <ele>2132.104</ele>
        <time>2021-08-06T14:02:03Z</time>
      </trkpt>
      <trkpt lat="42.62739" lon="1.72685">
        <ele>2132.106</ele>
        <time>2021-08-06T14:02:05Z</time>
      </trkpt>
      <trkpt lat="42.62739" lon="1.72685">
        <ele>2132.103</ele>
        <time>2021-08-06T14:02:07Z</time>
      </trkpt>
      <trkpt lat="42.62739" lon="1.72685">
        <ele>2132.106</ele>
        <time>2021-08-06T14:02:09Z</time>
      </trkpt>
      <trkpt lat="42.62739" lon="1.72685">
        <ele>2132.022</ele>
        <time>2021-08-06T14:02:11Z</time>
      </trkpt>
      <trkpt lat="42.62739" lon="1.72684">
        <ele>2132.263</ele>
        <time>2021-08-06T14:02:13Z</time>
      </trkpt>
      <trkpt lat="42.6274" lon="1.72684">
        <ele>2132.235</ele>
        <time>2021-08-06T14:02:15Z</time>
      </trkpt>
      <trkpt lat="42.6274" lon="1.72684">
        <ele>2132.176</ele>
        <time>2021-08-06T14:02:17Z</time>
      </trkpt>
      <trkpt lat="42.6274" lon="1.72684">
        <ele>2132.178</ele>
        <time>2021-08-06T14:02:19Z</time>
      </trkpt>
      <trkpt lat="42.6274" lon="1.72684">
        <ele>2132.167</ele>
        <time>2021-08-06T14:02:21Z</time>
      </trkpt>
      <trkpt lat="42.6274" lon="1.72684">
        <ele>2132.17</ele>
        <time>2021-08-06T14:02:23Z</time>
      </trkpt>
      <trkpt lat="42.6274" lon="1.72685">
        <ele>2132.318</ele>
        <time>2021-08-06T14:02:25Z</time>
      </trkpt>
      <trkpt lat="42.6274" lon="1.72685">
        <ele>2132.315</ele>
        <time>2021-08-06T14:02:27Z</time>
      </trkpt>
      <trkpt lat="42.6274" lon="1.72685">
        <ele>2132.305</ele>
        <time>2021-08-06T14:02:29Z</time>
      </trkpt>
      <trkpt lat="42.6274" lon="1.72685">
        <ele>2132.281</ele>
        <time>2021-08-06T14:02:31Z</time>
      </trkpt>
      <trkpt lat="42.6274" lon="1.72685">
        <ele>2132.277</ele>
        <time>2021-08-06T14:02:33Z</time>
      </trkpt>
      <trkpt lat="42.6274" lon="1.72685">
        <ele>2132.287</ele>
        <time>2021-08-06T14:02:35Z</time>
      </trkpt>
      <trkpt lat="42.6274" lon="1.72685">
        <ele>2132.3</ele>
        <time>2021-08-06T14:02:37Z</time>
      </trkpt>
      <trkpt lat="42.6274" lon="1.72685">
        <ele>2132.292</ele>
        <time>2021-08-06T14:02:39Z</time>
      </trkpt>
      <trkpt lat="42.6274" lon="1.72685">
        <ele>2132.261</ele>
        <time>2021-08-06T14:02:41Z</time>
      </trkpt>
      <trkpt lat="42.6274" lon="1.72685">
        <ele>2132.259</ele>
        <time>2021-08-06T14:02:43Z</time>
      </trkpt>
      <trkpt lat="42.6274" lon="1.72685">
        <ele>2132.25</ele>
        <time>2021-08-06T14:02:45Z</time>
      </trkpt>
      <trkpt lat="42.62741" lon="1.72685">
        <ele>2131.713</ele>
        <time>2021-08-06T14:02:47Z</time>
      </trkpt>
      <trkpt lat="42.62743" lon="1.72686">
        <ele>2131.513</ele>
        <time>2021-08-06T14:02:49Z</time>
      </trkpt>
      <trkpt lat="42.62745" lon="1.72687">
        <ele>2130.581</ele>
        <time>2021-08-06T14:02:51Z</time>
      </trkpt>
      <trkpt lat="42.62747" lon="1.72689">
        <ele>2129.548</ele>
        <time>2021-08-06T14:02:53Z</time>
      </trkpt>
      <trkpt lat="42.62749" lon="1.72689">
        <ele>2129.33</ele>
        <time>2021-08-06T14:02:55Z</time>
      </trkpt>
      <trkpt lat="42.62751" lon="1.7269">
        <ele>2127.889</ele>
        <time>2021-08-06T14:02:57Z</time>
      </trkpt>
      <trkpt lat="42.62754" lon="1.72691">
        <ele>2127.699</ele>
        <time>2021-08-06T14:02:59Z</time>
      </trkpt>
      <trkpt lat="42.62756" lon="1.72691">
        <ele>2126.453</ele>
        <time>2021-08-06T14:03:01Z</time>
      </trkpt>
      <trkpt lat="42.62758" lon="1.7269">
        <ele>2125.836</ele>
        <time>2021-08-06T14:03:03Z</time>
      </trkpt>
      <trkpt lat="42.6276" lon="1.7269">
        <ele>2125.533</ele>
        <time>2021-08-06T14:03:05Z</time>
      </trkpt>
      <trkpt lat="42.62762" lon="1.7269">
        <ele>2124.912</ele>
        <time>2021-08-06T14:03:07Z</time>
      </trkpt>
      <trkpt lat="42.62764" lon="1.7269">
        <ele>2124.398</ele>
        <time>2021-08-06T14:03:09Z</time>
      </trkpt>
      <trkpt lat="42.62766" lon="1.72689">
        <ele>2123.588</ele>
        <time>2021-08-06T14:03:11Z</time>
      </trkpt>
      <trkpt lat="42.62768" lon="1.72688">
        <ele>2123.875</ele>
        <time>2021-08-06T14:03:13Z</time>
      </trkpt>
      <trkpt lat="42.6277" lon="1.72688">
        <ele>2123.46</ele>
        <time>2021-08-06T14:03:15Z</time>
      </trkpt>
      <trkpt lat="42.62771" lon="1.72688">
        <ele>2123.672</ele>
        <time>2021-08-06T14:03:17Z</time>
      </trkpt>
      <trkpt lat="42.62773" lon="1.72687">
        <ele>2123.543</ele>
        <time>2021-08-06T14:03:19Z</time>
      </trkpt>
      <trkpt lat="42.62774" lon="1.72686">
        <ele>2123.443</ele>
        <time>2021-08-06T14:03:21Z</time>
      </trkpt>
      <trkpt lat="42.62776" lon="1.72687">
        <ele>2123.109</ele>
        <time>2021-08-06T14:03:23Z</time>
      </trkpt>
      <trkpt lat="42.62778" lon="1.72687">
        <ele>2122.079</ele>
        <time>2021-08-06T14:03:25Z</time>
      </trkpt>
      <trkpt lat="42.62779" lon="1.72686">
        <ele>2122.142</ele>
        <time>2021-08-06T14:03:27Z</time>
      </trkpt>
      <trkpt lat="42.6278" lon="1.72684">
        <ele>2121.827</ele>
        <time>2021-08-06T14:03:29Z</time>
      </trkpt>
      <trkpt lat="42.62781" lon="1.72685">
        <ele>2121.692</ele>
        <time>2021-08-06T14:03:31Z</time>
      </trkpt>
      <trkpt lat="42.62781" lon="1.72687">
        <ele>2121.421</ele>
        <time>2021-08-06T14:03:33Z</time>
      </trkpt>
      <trkpt lat="42.62782" lon="1.72689">
        <ele>2119.554</ele>
        <time>2021-08-06T14:03:35Z</time>
      </trkpt>
      <trkpt lat="42.62782" lon="1.7269">
        <ele>2120.18</ele>
        <time>2021-08-06T14:03:37Z</time>
      </trkpt>
      <trkpt lat="42.62785" lon="1.72691">
        <ele>2120.887</ele>
        <time>2021-08-06T14:03:39Z</time>
      </trkpt>
      <trkpt lat="42.62786" lon="1.72692">
        <ele>2120.71</ele>
        <time>2021-08-06T14:03:41Z</time>
      </trkpt>
      <trkpt lat="42.62786" lon="1.72693">
        <ele>2120.339</ele>
        <time>2021-08-06T14:03:43Z</time>
      </trkpt>
      <trkpt lat="42.62786" lon="1.72694">
        <ele>2119.632</ele>
        <time>2021-08-06T14:03:45Z</time>
      </trkpt>
      <trkpt lat="42.62787" lon="1.72693">
        <ele>2120.434</ele>
        <time>2021-08-06T14:03:47Z</time>
      </trkpt>
      <trkpt lat="42.62787" lon="1.7269">
        <ele>2121</ele>
        <time>2021-08-06T14:03:49Z</time>
      </trkpt>
      <trkpt lat="42.62787" lon="1.72688">
        <ele>2121.661</ele>
        <time>2021-08-06T14:03:51Z</time>
      </trkpt>
      <trkpt lat="42.62788" lon="1.72687">
        <ele>2122.371</ele>
        <time>2021-08-06T14:03:53Z</time>
      </trkpt>
      <trkpt lat="42.6279" lon="1.72687">
        <ele>2121.922</ele>
        <time>2021-08-06T14:03:55Z</time>
      </trkpt>
      <trkpt lat="42.62791" lon="1.72687">
        <ele>2120.318</ele>
        <time>2021-08-06T14:03:57Z</time>
      </trkpt>
      <trkpt lat="42.62792" lon="1.7269">
        <ele>2120.333</ele>
        <time>2021-08-06T14:03:59Z</time>
      </trkpt>
      <trkpt lat="42.62792" lon="1.72692">
        <ele>2120.273</ele>
        <time>2021-08-06T14:04:01Z</time>
      </trkpt>
      <trkpt lat="42.62793" lon="1.72693">
        <ele>2120.258</ele>
        <time>2021-08-06T14:04:03Z</time>
      </trkpt>
      <trkpt lat="42.62794" lon="1.72694">
        <ele>2119.664</ele>
        <time>2021-08-06T14:04:05Z</time>
      </trkpt>
      <trkpt lat="42.62795" lon="1.72694">
        <ele>2119.51</ele>
        <time>2021-08-06T14:04:07Z</time>
      </trkpt>
      <trkpt lat="42.62796" lon="1.72695">
        <ele>2119.565</ele>
        <time>2021-08-06T14:04:09Z</time>
      </trkpt>
      <trkpt lat="42.62797" lon="1.72696">
        <ele>2119.323</ele>
        <time>2021-08-06T14:04:11Z</time>
      </trkpt>
      <trkpt lat="42.62798" lon="1.72697">
        <ele>2119.045</ele>
        <time>2021-08-06T14:04:13Z</time>
      </trkpt>
      <trkpt lat="42.62799" lon="1.72697">
        <ele>2118.876</ele>
        <time>2021-08-06T14:04:15Z</time>
      </trkpt>
      <trkpt lat="42.628" lon="1.72697">
        <ele>2118.339</ele>
        <time>2021-08-06T14:04:17Z</time>
      </trkpt>
      <trkpt lat="42.62801" lon="1.72696">
        <ele>2118.072</ele>
        <time>2021-08-06T14:04:19Z</time>
      </trkpt>
      <trkpt lat="42.62802" lon="1.72695">
        <ele>2116.935</ele>
        <time>2021-08-06T14:04:21Z</time>
      </trkpt>
      <trkpt lat="42.62803" lon="1.72694">
        <ele>2117.483</ele>
        <time>2021-08-06T14:04:23Z</time>
      </trkpt>
      <trkpt lat="42.62804" lon="1.72694">
        <ele>2117.637</ele>
        <time>2021-08-06T14:04:25Z</time>
      </trkpt>
      <trkpt lat="42.62805" lon="1.72693">
        <ele>2117.353</ele>
        <time>2021-08-06T14:04:27Z</time>
      </trkpt>
      <trkpt lat="42.62806" lon="1.72692">
        <ele>2116.684</ele>
        <time>2021-08-06T14:04:29Z</time>
      </trkpt>
      <trkpt lat="42.62807" lon="1.72691">
        <ele>2116.516</ele>
        <time>2021-08-06T14:04:31Z</time>
      </trkpt>
      <trkpt lat="42.62809" lon="1.7269">
        <ele>2115.525</ele>
        <time>2021-08-06T14:04:33Z</time>
      </trkpt>
      <trkpt lat="42.62809" lon="1.72688">
        <ele>2114.897</ele>
        <time>2021-08-06T14:04:35Z</time>
      </trkpt>
      <trkpt lat="42.62811" lon="1.72688">
        <ele>2114.207</ele>
        <time>2021-08-06T14:04:37Z</time>
      </trkpt>
      <trkpt lat="42.62812" lon="1.72688">
        <ele>2114.011</ele>
        <time>2021-08-06T14:04:39Z</time>
      </trkpt>
      <trkpt lat="42.62813" lon="1.72687">
        <ele>2113.64</ele>
        <time>2021-08-06T14:04:41Z</time>
      </trkpt>
      <trkpt lat="42.62814" lon="1.72687">
        <ele>2113.597</ele>
        <time>2021-08-06T14:04:43Z</time>
      </trkpt>
      <trkpt lat="42.62815" lon="1.72685">
        <ele>2113.604</ele>
        <time>2021-08-06T14:04:45Z</time>
      </trkpt>
      <trkpt lat="42.62815" lon="1.72684">
        <ele>2112.969</ele>
        <time>2021-08-06T14:04:47Z</time>
      </trkpt>
      <trkpt lat="42.62816" lon="1.72682">
        <ele>2112.498</ele>
        <time>2021-08-06T14:04:49Z</time>
      </trkpt>
      <trkpt lat="42.62816" lon="1.7268">
        <ele>2113.047</ele>
        <time>2021-08-06T14:04:51Z</time>
      </trkpt>
      <trkpt lat="42.62817" lon="1.72679">
        <ele>2112.354</ele>
        <time>2021-08-06T14:04:53Z</time>
      </trkpt>
      <trkpt lat="42.62818" lon="1.72678">
        <ele>2111.772</ele>
        <time>2021-08-06T14:04:55Z</time>
      </trkpt>
      <trkpt lat="42.62819" lon="1.72677">
        <ele>2111.24</ele>
        <time>2021-08-06T14:04:57Z</time>
      </trkpt>
      <trkpt lat="42.62819" lon="1.72675">
        <ele>2111.159</ele>
        <time>2021-08-06T14:04:59Z</time>
      </trkpt>
      <trkpt lat="42.6282" lon="1.72673">
        <ele>2110.638</ele>
        <time>2021-08-06T14:05:01Z</time>
      </trkpt>
      <trkpt lat="42.62821" lon="1.72671">
        <ele>2109.281</ele>
        <time>2021-08-06T14:05:03Z</time>
      </trkpt>
      <trkpt lat="42.62821" lon="1.7267">
        <ele>2108.447</ele>
        <time>2021-08-06T14:05:05Z</time>
      </trkpt>
      <trkpt lat="42.62822" lon="1.72668">
        <ele>2107.917</ele>
        <time>2021-08-06T14:05:07Z</time>
      </trkpt>
      <trkpt lat="42.62823" lon="1.72666">
        <ele>2107.427</ele>
        <time>2021-08-06T14:05:09Z</time>
      </trkpt>
      <trkpt lat="42.62825" lon="1.72664">
        <ele>2107.84</ele>
        <time>2021-08-06T14:05:11Z</time>
      </trkpt>
      <trkpt lat="42.62827" lon="1.72663">
        <ele>2108.711</ele>
        <time>2021-08-06T14:05:13Z</time>
      </trkpt>
      <trkpt lat="42.62828" lon="1.72661">
        <ele>2109.418</ele>
        <time>2021-08-06T14:05:15Z</time>
      </trkpt>
      <trkpt lat="42.6283" lon="1.7266">
        <ele>2109.501</ele>
        <time>2021-08-06T14:05:17Z</time>
      </trkpt>
      <trkpt lat="42.62832" lon="1.72658">
        <ele>2109.582</ele>
        <time>2021-08-06T14:05:19Z</time>
      </trkpt>
      <trkpt lat="42.62833" lon="1.72657">
        <ele>2109.595</ele>
        <time>2021-08-06T14:05:21Z</time>
      </trkpt>
      <trkpt lat="42.62835" lon="1.72656">
        <ele>2109.318</ele>
        <time>2021-08-06T14:05:23Z</time>
      </trkpt>
      <trkpt lat="42.62836" lon="1.72655">
        <ele>2108.842</ele>
        <time>2021-08-06T14:05:25Z</time>
      </trkpt>
      <trkpt lat="42.62837" lon="1.72653">
        <ele>2108.296</ele>
        <time>2021-08-06T14:05:27Z</time>
      </trkpt>
      <trkpt lat="42.62838" lon="1.72651">
        <ele>2107.195</ele>
        <time>2021-08-06T14:05:29Z</time>
      </trkpt>
      <trkpt lat="42.62839" lon="1.72649">
        <ele>2106.794</ele>
        <time>2021-08-06T14:05:31Z</time>
      </trkpt>
      <trkpt lat="42.62839" lon="1.72647">
        <ele>2107.42</ele>
        <time>2021-08-06T14:05:33Z</time>
      </trkpt>
      <trkpt lat="42.6284" lon="1.72645">
        <ele>2106.919</ele>
        <time>2021-08-06T14:05:35Z</time>
      </trkpt>
      <trkpt lat="42.62841" lon="1.72643">
        <ele>2106.597</ele>
        <time>2021-08-06T14:05:37Z</time>
      </trkpt>
      <trkpt lat="42.62842" lon="1.72641">
        <ele>2105.815</ele>
        <time>2021-08-06T14:05:39Z</time>
      </trkpt>
      <trkpt lat="42.62844" lon="1.72639">
        <ele>2104.883</ele>
        <time>2021-08-06T14:05:41Z</time>
      </trkpt>
      <trkpt lat="42.62845" lon="1.72638">
        <ele>2103.536</ele>
        <time>2021-08-06T14:05:43Z</time>
      </trkpt>
      <trkpt lat="42.62847" lon="1.72636">
        <ele>2104.235</ele>
        <time>2021-08-06T14:05:45Z</time>
      </trkpt>
      <trkpt lat="42.62849" lon="1.72635">
        <ele>2104.114</ele>
        <time>2021-08-06T14:05:47Z</time>
      </trkpt>
      <trkpt lat="42.62851" lon="1.72634">
        <ele>2104.119</ele>
        <time>2021-08-06T14:05:49Z</time>
      </trkpt>
      <trkpt lat="42.62852" lon="1.72632">
        <ele>2103.956</ele>
        <time>2021-08-06T14:05:51Z</time>
      </trkpt>
      <trkpt lat="42.62853" lon="1.7263">
        <ele>2103.532</ele>
        <time>2021-08-06T14:05:53Z</time>
      </trkpt>
      <trkpt lat="42.62853" lon="1.72628">
        <ele>2103.118</ele>
        <time>2021-08-06T14:05:55Z</time>
      </trkpt>
      <trkpt lat="42.62855" lon="1.72627">
        <ele>2102.739</ele>
        <time>2021-08-06T14:05:57Z</time>
      </trkpt>
      <trkpt lat="42.62856" lon="1.72625">
        <ele>2102.083</ele>
        <time>2021-08-06T14:05:59Z</time>
      </trkpt>
      <trkpt lat="42.62858" lon="1.72624">
        <ele>2101.02</ele>
        <time>2021-08-06T14:06:01Z</time>
      </trkpt>
      <trkpt lat="42.6286" lon="1.72623">
        <ele>2101.078</ele>
        <time>2021-08-06T14:06:03Z</time>
      </trkpt>
      <trkpt lat="42.62861" lon="1.72622">
        <ele>2100.993</ele>
        <time>2021-08-06T14:06:05Z</time>
      </trkpt>
      <trkpt lat="42.62863" lon="1.72621">
        <ele>2101.54</ele>
        <time>2021-08-06T14:06:07Z</time>
      </trkpt>
      <trkpt lat="42.62865" lon="1.7262">
        <ele>2101.937</ele>
        <time>2021-08-06T14:06:09Z</time>
      </trkpt>
      <trkpt lat="42.62867" lon="1.72619">
        <ele>2101.479</ele>
        <time>2021-08-06T14:06:11Z</time>
      </trkpt>
      <trkpt lat="42.62868" lon="1.72618">
        <ele>2101.061</ele>
        <time>2021-08-06T14:06:13Z</time>
      </trkpt>
      <trkpt lat="42.6287" lon="1.72616">
        <ele>2101.026</ele>
        <time>2021-08-06T14:06:15Z</time>
      </trkpt>
      <trkpt lat="42.62871" lon="1.72615">
        <ele>2101.133</ele>
        <time>2021-08-06T14:06:17Z</time>
      </trkpt>
      <trkpt lat="42.62873" lon="1.72614">
        <ele>2101.252</ele>
        <time>2021-08-06T14:06:19Z</time>
      </trkpt>
      <trkpt lat="42.62875" lon="1.72613">
        <ele>2101.59</ele>
        <time>2021-08-06T14:06:21Z</time>
      </trkpt>
      <trkpt lat="42.62877" lon="1.72612">
        <ele>2102.149</ele>
        <time>2021-08-06T14:06:23Z</time>
      </trkpt>
      <trkpt lat="42.6288" lon="1.72612">
        <ele>2102.645</ele>
        <time>2021-08-06T14:06:25Z</time>
      </trkpt>
      <trkpt lat="42.62881" lon="1.72611">
        <ele>2103.732</ele>
        <time>2021-08-06T14:06:27Z</time>
      </trkpt>
      <trkpt lat="42.62882" lon="1.72609">
        <ele>2103.809</ele>
        <time>2021-08-06T14:06:29Z</time>
      </trkpt>
      <trkpt lat="42.62884" lon="1.72607">
        <ele>2104.278</ele>
        <time>2021-08-06T14:06:31Z</time>
      </trkpt>
      <trkpt lat="42.62885" lon="1.72605">
        <ele>2103.727</ele>
        <time>2021-08-06T14:06:33Z</time>
      </trkpt>
      <trkpt lat="42.62886" lon="1.72604">
        <ele>2102.59</ele>
        <time>2021-08-06T14:06:35Z</time>
      </trkpt>
      <trkpt lat="42.62888" lon="1.72602">
        <ele>2102.444</ele>
        <time>2021-08-06T14:06:37Z</time>
      </trkpt>
      <trkpt lat="42.6289" lon="1.726">
        <ele>2101.979</ele>
        <time>2021-08-06T14:06:39Z</time>
      </trkpt>
      <trkpt lat="42.62891" lon="1.72599">
        <ele>2101.13</ele>
        <time>2021-08-06T14:06:41Z</time>
      </trkpt>
      <trkpt lat="42.62893" lon="1.72598">
        <ele>2101.429</ele>
        <time>2021-08-06T14:06:43Z</time>
      </trkpt>
      <trkpt lat="42.62895" lon="1.72597">
        <ele>2100.665</ele>
        <time>2021-08-06T14:06:45Z</time>
      </trkpt>
      <trkpt lat="42.62896" lon="1.72595">
        <ele>2101.562</ele>
        <time>2021-08-06T14:06:47Z</time>
      </trkpt>
      <trkpt lat="42.62898" lon="1.72593">
        <ele>2101.22</ele>
        <time>2021-08-06T14:06:49Z</time>
      </trkpt>
      <trkpt lat="42.62901" lon="1.72593">
        <ele>2100.766</ele>
        <time>2021-08-06T14:06:51Z</time>
      </trkpt>
      <trkpt lat="42.62902" lon="1.72591">
        <ele>2100.474</ele>
        <time>2021-08-06T14:06:53Z</time>
      </trkpt>
      <trkpt lat="42.62904" lon="1.7259">
        <ele>2100.165</ele>
        <time>2021-08-06T14:06:55Z</time>
      </trkpt>
      <trkpt lat="42.62906" lon="1.72589">
        <ele>2100.621</ele>
        <time>2021-08-06T14:06:57Z</time>
      </trkpt>
      <trkpt lat="42.62908" lon="1.72589">
        <ele>2101.16</ele>
        <time>2021-08-06T14:06:59Z</time>
      </trkpt>
      <trkpt lat="42.6291" lon="1.72587">
        <ele>2101.044</ele>
        <time>2021-08-06T14:07:01Z</time>
      </trkpt>
      <trkpt lat="42.62912" lon="1.72586">
        <ele>2100.731</ele>
        <time>2021-08-06T14:07:03Z</time>
      </trkpt>
      <trkpt lat="42.62913" lon="1.72584">
        <ele>2100.646</ele>
        <time>2021-08-06T14:07:05Z</time>
      </trkpt>
      <trkpt lat="42.62916" lon="1.72585">
        <ele>2101.679</ele>
        <time>2021-08-06T14:07:07Z</time>
      </trkpt>
      <trkpt lat="42.62918" lon="1.72585">
        <ele>2102.119</ele>
        <time>2021-08-06T14:07:09Z</time>
      </trkpt>
      <trkpt lat="42.62921" lon="1.72585">
        <ele>2102.001</ele>
        <time>2021-08-06T14:07:11Z</time>
      </trkpt>
      <trkpt lat="42.62923" lon="1.72585">
        <ele>2101.597</ele>
        <time>2021-08-06T14:07:13Z</time>
      </trkpt>
      <trkpt lat="42.62925" lon="1.72584">
        <ele>2101.588</ele>
        <time>2021-08-06T14:07:15Z</time>
      </trkpt>
      <trkpt lat="42.62927" lon="1.72584">
        <ele>2101.871</ele>
        <time>2021-08-06T14:07:17Z</time>
      </trkpt>
      <trkpt lat="42.62928" lon="1.72583">
        <ele>2102.089</ele>
        <time>2021-08-06T14:07:19Z</time>
      </trkpt>
      <trkpt lat="42.6293" lon="1.72581">
        <ele>2101.59</ele>
        <time>2021-08-06T14:07:21Z</time>
      </trkpt>
      <trkpt lat="42.62931" lon="1.7258">
        <ele>2100.431</ele>
        <time>2021-08-06T14:07:23Z</time>
      </trkpt>
      <trkpt lat="42.62934" lon="1.72578">
        <ele>2100.661</ele>
        <time>2021-08-06T14:07:25Z</time>
      </trkpt>
      <trkpt lat="42.62936" lon="1.72577">
        <ele>2100.554</ele>
        <time>2021-08-06T14:07:27Z</time>
      </trkpt>
      <trkpt lat="42.62938" lon="1.72577">
        <ele>2101.436</ele>
        <time>2021-08-06T14:07:29Z</time>
      </trkpt>
      <trkpt lat="42.6294" lon="1.72577">
        <ele>2101.612</ele>
        <time>2021-08-06T14:07:31Z</time>
      </trkpt>
      <trkpt lat="42.62943" lon="1.72578">
        <ele>2102.153</ele>
        <time>2021-08-06T14:07:33Z</time>
      </trkpt>
      <trkpt lat="42.62945" lon="1.72579">
        <ele>2102.379</ele>
        <time>2021-08-06T14:07:35Z</time>
      </trkpt>
      <trkpt lat="42.62947" lon="1.72579">
        <ele>2102.606</ele>
        <time>2021-08-06T14:07:37Z</time>
      </trkpt>
      <trkpt lat="42.62949" lon="1.72579">
        <ele>2102.043</ele>
        <time>2021-08-06T14:07:39Z</time>
      </trkpt>
      <trkpt lat="42.62951" lon="1.72579">
        <ele>2101.135</ele>
        <time>2021-08-06T14:07:41Z</time>
      </trkpt>
      <trkpt lat="42.62953" lon="1.7258">
        <ele>2102.22</ele>
        <time>2021-08-06T14:07:43Z</time>
      </trkpt>
      <trkpt lat="42.62955" lon="1.72582">
        <ele>2101.938</ele>
        <time>2021-08-06T14:07:45Z</time>
      </trkpt>
      <trkpt lat="42.62957" lon="1.72584">
        <ele>2102.311</ele>
        <time>2021-08-06T14:07:47Z</time>
      </trkpt>
      <trkpt lat="42.62958" lon="1.72585">
        <ele>2102.717</ele>
        <time>2021-08-06T14:07:49Z</time>
      </trkpt>
      <trkpt lat="42.6296" lon="1.72586">
        <ele>2102.479</ele>
        <time>2021-08-06T14:07:51Z</time>
      </trkpt>
      <trkpt lat="42.62962" lon="1.72587">
        <ele>2101.875</ele>
        <time>2021-08-06T14:07:53Z</time>
      </trkpt>
      <trkpt lat="42.62964" lon="1.72586">
        <ele>2101.133</ele>
        <time>2021-08-06T14:07:55Z</time>
      </trkpt>
      <trkpt lat="42.62966" lon="1.72586">
        <ele>2100.882</ele>
        <time>2021-08-06T14:07:57Z</time>
      </trkpt>
      <trkpt lat="42.62968" lon="1.72587">
        <ele>2100.662</ele>
        <time>2021-08-06T14:07:59Z</time>
      </trkpt>
      <trkpt lat="42.62969" lon="1.72588">
        <ele>2100.634</ele>
        <time>2021-08-06T14:08:01Z</time>
      </trkpt>
      <trkpt lat="42.62971" lon="1.7259">
        <ele>2101.009</ele>
        <time>2021-08-06T14:08:03Z</time>
      </trkpt>
      <trkpt lat="42.62972" lon="1.72592">
        <ele>2101.604</ele>
        <time>2021-08-06T14:08:05Z</time>
      </trkpt>
      <trkpt lat="42.62974" lon="1.72592">
        <ele>2101.78</ele>
        <time>2021-08-06T14:08:07Z</time>
      </trkpt>
      <trkpt lat="42.62975" lon="1.72593">
        <ele>2102.02</ele>
        <time>2021-08-06T14:08:09Z</time>
      </trkpt>
      <trkpt lat="42.62977" lon="1.72593">
        <ele>2101.995</ele>
        <time>2021-08-06T14:08:11Z</time>
      </trkpt>
      <trkpt lat="42.62978" lon="1.72593">
        <ele>2103.079</ele>
        <time>2021-08-06T14:08:13Z</time>
      </trkpt>
      <trkpt lat="42.62979" lon="1.72594">
        <ele>2103.035</ele>
        <time>2021-08-06T14:08:15Z</time>
      </trkpt>
      <trkpt lat="42.62981" lon="1.72595">
        <ele>2102.908</ele>
        <time>2021-08-06T14:08:17Z</time>
      </trkpt>
      <trkpt lat="42.62982" lon="1.72595">
        <ele>2102.953</ele>
        <time>2021-08-06T14:08:19Z</time>
      </trkpt>
      <trkpt lat="42.62983" lon="1.72595">
        <ele>2103.093</ele>
        <time>2021-08-06T14:08:21Z</time>
      </trkpt>
      <trkpt lat="42.62985" lon="1.72595">
        <ele>2103.094</ele>
        <time>2021-08-06T14:08:23Z</time>
      </trkpt>
      <trkpt lat="42.62986" lon="1.72595">
        <ele>2102.841</ele>
        <time>2021-08-06T14:08:25Z</time>
      </trkpt>
      <trkpt lat="42.62988" lon="1.72596">
        <ele>2102.808</ele>
        <time>2021-08-06T14:08:27Z</time>
      </trkpt>
      <trkpt lat="42.62989" lon="1.72596">
        <ele>2103.085</ele>
        <time>2021-08-06T14:08:29Z</time>
      </trkpt>
      <trkpt lat="42.62991" lon="1.72597">
        <ele>2103.124</ele>
        <time>2021-08-06T14:08:31Z</time>
      </trkpt>
      <trkpt lat="42.62992" lon="1.72598">
        <ele>2103.544</ele>
        <time>2021-08-06T14:08:33Z</time>
      </trkpt>
      <trkpt lat="42.62993" lon="1.726">
        <ele>2103.659</ele>
        <time>2021-08-06T14:08:35Z</time>
      </trkpt>
      <trkpt lat="42.62995" lon="1.72599">
        <ele>2104.949</ele>
        <time>2021-08-06T14:08:37Z</time>
      </trkpt>
      <trkpt lat="42.62996" lon="1.72599">
        <ele>2104.627</ele>
        <time>2021-08-06T14:08:39Z</time>
      </trkpt>
      <trkpt lat="42.62996" lon="1.72602">
        <ele>2105.515</ele>
        <time>2021-08-06T14:08:41Z</time>
      </trkpt>
      <trkpt lat="42.62997" lon="1.72604">
        <ele>2104.551</ele>
        <time>2021-08-06T14:08:43Z</time>
      </trkpt>
      <trkpt lat="42.62999" lon="1.72604">
        <ele>2104.069</ele>
        <time>2021-08-06T14:08:45Z</time>
      </trkpt>
      <trkpt lat="42.63" lon="1.72605">
        <ele>2103.399</ele>
        <time>2021-08-06T14:08:47Z</time>
      </trkpt>
      <trkpt lat="42.63001" lon="1.72606">
        <ele>2104.303</ele>
        <time>2021-08-06T14:08:49Z</time>
      </trkpt>
      <trkpt lat="42.63003" lon="1.72606">
        <ele>2104.822</ele>
        <time>2021-08-06T14:08:51Z</time>
      </trkpt>
      <trkpt lat="42.63004" lon="1.72606">
        <ele>2105.119</ele>
        <time>2021-08-06T14:08:53Z</time>
      </trkpt>
      <trkpt lat="42.63006" lon="1.72605">
        <ele>2105.393</ele>
        <time>2021-08-06T14:08:55Z</time>
      </trkpt>
      <trkpt lat="42.63007" lon="1.72604">
        <ele>2105.007</ele>
        <time>2021-08-06T14:08:57Z</time>
      </trkpt>
      <trkpt lat="42.63009" lon="1.72603">
        <ele>2104.521</ele>
        <time>2021-08-06T14:08:59Z</time>
      </trkpt>
      <trkpt lat="42.6301" lon="1.72604">
        <ele>2105.19</ele>
        <time>2021-08-06T14:09:01Z</time>
      </trkpt>
      <trkpt lat="42.63011" lon="1.72604">
        <ele>2104.686</ele>
        <time>2021-08-06T14:09:03Z</time>
      </trkpt>
      <trkpt lat="42.63012" lon="1.72602">
        <ele>2105.662</ele>
        <time>2021-08-06T14:09:05Z</time>
      </trkpt>
      <trkpt lat="42.63012" lon="1.72601">
        <ele>2105.508</ele>
        <time>2021-08-06T14:09:07Z</time>
      </trkpt>
      <trkpt lat="42.63014" lon="1.726">
        <ele>2105.149</ele>
        <time>2021-08-06T14:09:09Z</time>
      </trkpt>
      <trkpt lat="42.63015" lon="1.72599">
        <ele>2104.476</ele>
        <time>2021-08-06T14:09:11Z</time>
      </trkpt>
      <trkpt lat="42.63016" lon="1.72597">
        <ele>2103.725</ele>
        <time>2021-08-06T14:09:13Z</time>
      </trkpt>
      <trkpt lat="42.63016" lon="1.72595">
        <ele>2103.183</ele>
        <time>2021-08-06T14:09:15Z</time>
      </trkpt>
      <trkpt lat="42.63017" lon="1.72593">
        <ele>2102.81</ele>
        <time>2021-08-06T14:09:17Z</time>
      </trkpt>
      <trkpt lat="42.63017" lon="1.72592">
        <ele>2103.098</ele>
        <time>2021-08-06T14:09:19Z</time>
      </trkpt>
      <trkpt lat="42.63018" lon="1.72591">
        <ele>2103.294</ele>
        <time>2021-08-06T14:09:21Z</time>
      </trkpt>
      <trkpt lat="42.63019" lon="1.72589">
        <ele>2103.562</ele>
        <time>2021-08-06T14:09:23Z</time>
      </trkpt>
      <trkpt lat="42.63021" lon="1.72588">
        <ele>2103.184</ele>
        <time>2021-08-06T14:09:25Z</time>
      </trkpt>
      <trkpt lat="42.63022" lon="1.72586">
        <ele>2102.744</ele>
        <time>2021-08-06T14:09:27Z</time>
      </trkpt>
      <trkpt lat="42.63023" lon="1.72585">
        <ele>2102.681</ele>
        <time>2021-08-06T14:09:29Z</time>
      </trkpt>
      <trkpt lat="42.63025" lon="1.72583">
        <ele>2101.984</ele>
        <time>2021-08-06T14:09:31Z</time>
      </trkpt>
      <trkpt lat="42.63026" lon="1.72582">
        <ele>2101.242</ele>
        <time>2021-08-06T14:09:33Z</time>
      </trkpt>
      <trkpt lat="42.63028" lon="1.72581">
        <ele>2100.586</ele>
        <time>2021-08-06T14:09:35Z</time>
      </trkpt>
      <trkpt lat="42.6303" lon="1.7258">
        <ele>2100.236</ele>
        <time>2021-08-06T14:09:37Z</time>
      </trkpt>
      <trkpt lat="42.63033" lon="1.7258">
        <ele>2100.159</ele>
        <time>2021-08-06T14:09:39Z</time>
      </trkpt>
      <trkpt lat="42.63033" lon="1.72581">
        <ele>2099.707</ele>
        <time>2021-08-06T14:09:41Z</time>
      </trkpt>
      <trkpt lat="42.63033" lon="1.72581">
        <ele>2099.697</ele>
        <time>2021-08-06T14:09:43Z</time>
      </trkpt>
      <trkpt lat="42.63033" lon="1.72581">
        <ele>2099.747</ele>
        <time>2021-08-06T14:09:45Z</time>
      </trkpt>
      <trkpt lat="42.63033" lon="1.72581">
        <ele>2099.75</ele>
        <time>2021-08-06T14:09:47Z</time>
      </trkpt>
      <trkpt lat="42.63033" lon="1.72581">
        <ele>2100.199</ele>
        <time>2021-08-06T14:09:49Z</time>
      </trkpt>
      <trkpt lat="42.63032" lon="1.72582">
        <ele>2100.671</ele>
        <time>2021-08-06T14:09:51Z</time>
      </trkpt>
      <trkpt lat="42.63031" lon="1.72583">
        <ele>2100.684</ele>
        <time>2021-08-06T14:09:53Z</time>
      </trkpt>
      <trkpt lat="42.6303" lon="1.72584">
        <ele>2100.81</ele>
        <time>2021-08-06T14:09:55Z</time>
      </trkpt>
      <trkpt lat="42.6303" lon="1.72587">
        <ele>2101.334</ele>
        <time>2021-08-06T14:09:57Z</time>
      </trkpt>
      <trkpt lat="42.63032" lon="1.72589">
        <ele>2101.177</ele>
        <time>2021-08-06T14:09:59Z</time>
      </trkpt>
      <trkpt lat="42.63033" lon="1.72591">
        <ele>2100.433</ele>
        <time>2021-08-06T14:10:01Z</time>
      </trkpt>
      <trkpt lat="42.63034" lon="1.72593">
        <ele>2101.384</ele>
        <time>2021-08-06T14:10:03Z</time>
      </trkpt>
      <trkpt lat="42.63035" lon="1.72594">
        <ele>2101.927</ele>
        <time>2021-08-06T14:10:05Z</time>
      </trkpt>
      <trkpt lat="42.63037" lon="1.72595">
        <ele>2101.955</ele>
        <time>2021-08-06T14:10:07Z</time>
      </trkpt>
      <trkpt lat="42.63038" lon="1.72596">
        <ele>2101.737</ele>
        <time>2021-08-06T14:10:09Z</time>
      </trkpt>
      <trkpt lat="42.6304" lon="1.72595">
        <ele>2102.888</ele>
        <time>2021-08-06T14:10:11Z</time>
      </trkpt>
      <trkpt lat="42.63041" lon="1.72595">
        <ele>2102.51</ele>
        <time>2021-08-06T14:10:13Z</time>
      </trkpt>
      <trkpt lat="42.63042" lon="1.72594">
        <ele>2103.236</ele>
        <time>2021-08-06T14:10:15Z</time>
      </trkpt>
      <trkpt lat="42.63044" lon="1.72594">
        <ele>2103.179</ele>
        <time>2021-08-06T14:10:17Z</time>
      </trkpt>
      <trkpt lat="42.63045" lon="1.72594">
        <ele>2103.534</ele>
        <time>2021-08-06T14:10:19Z</time>
      </trkpt>
      <trkpt lat="42.63046" lon="1.72594">
        <ele>2103.705</ele>
        <time>2021-08-06T14:10:21Z</time>
      </trkpt>
      <trkpt lat="42.63045" lon="1.72593">
        <ele>2104.351</ele>
        <time>2021-08-06T14:10:23Z</time>
      </trkpt>
      <trkpt lat="42.63044" lon="1.72592">
        <ele>2103.86</ele>
        <time>2021-08-06T14:10:25Z</time>
      </trkpt>
      <trkpt lat="42.63042" lon="1.72592">
        <ele>2103.993</ele>
        <time>2021-08-06T14:10:27Z</time>
      </trkpt>
      <trkpt lat="42.63041" lon="1.72592">
        <ele>2103.167</ele>
        <time>2021-08-06T14:10:29Z</time>
      </trkpt>
      <trkpt lat="42.6304" lon="1.72593">
        <ele>2102.912</ele>
        <time>2021-08-06T14:10:31Z</time>
      </trkpt>
      <trkpt lat="42.63038" lon="1.72591">
        <ele>2102.998</ele>
        <time>2021-08-06T14:10:33Z</time>
      </trkpt>
      <trkpt lat="42.63036" lon="1.7259">
        <ele>2103.294</ele>
        <time>2021-08-06T14:10:35Z</time>
      </trkpt>
      <trkpt lat="42.63034" lon="1.72588">
        <ele>2102.705</ele>
        <time>2021-08-06T14:10:37Z</time>
      </trkpt>
      <trkpt lat="42.63033" lon="1.72587">
        <ele>2102.521</ele>
        <time>2021-08-06T14:10:39Z</time>
      </trkpt>
      <trkpt lat="42.63031" lon="1.72585">
        <ele>2102.347</ele>
        <time>2021-08-06T14:10:41Z</time>
      </trkpt>
      <trkpt lat="42.63031" lon="1.72582">
        <ele>2102.65</ele>
        <time>2021-08-06T14:10:43Z</time>
      </trkpt>
      <trkpt lat="42.6303" lon="1.72579">
        <ele>2103.061</ele>
        <time>2021-08-06T14:10:45Z</time>
      </trkpt>
      <trkpt lat="42.6303" lon="1.72578">
        <ele>2103.029</ele>
        <time>2021-08-06T14:10:47Z</time>
      </trkpt>
      <trkpt lat="42.63031" lon="1.72575">
        <ele>2103.558</ele>
        <time>2021-08-06T14:10:49Z</time>
      </trkpt>
      <trkpt lat="42.63032" lon="1.72572">
        <ele>2103.881</ele>
        <time>2021-08-06T14:10:51Z</time>
      </trkpt>
      <trkpt lat="42.63032" lon="1.72569">
        <ele>2105.792</ele>
        <time>2021-08-06T14:10:53Z</time>
      </trkpt>
      <trkpt lat="42.63033" lon="1.7257">
        <ele>2104.791</ele>
        <time>2021-08-06T14:10:55Z</time>
      </trkpt>
      <trkpt lat="42.63036" lon="1.72571">
        <ele>2105.448</ele>
        <time>2021-08-06T14:10:57Z</time>
      </trkpt>
      <trkpt lat="42.63038" lon="1.72572">
        <ele>2105.914</ele>
        <time>2021-08-06T14:10:59Z</time>
      </trkpt>
      <trkpt lat="42.63041" lon="1.72573">
        <ele>2106.279</ele>
        <time>2021-08-06T14:11:01Z</time>
      </trkpt>
      <trkpt lat="42.63043" lon="1.72571">
        <ele>2106.964</ele>
        <time>2021-08-06T14:11:03Z</time>
      </trkpt>
      <trkpt lat="42.63044" lon="1.7257">
        <ele>2107.195</ele>
        <time>2021-08-06T14:11:05Z</time>
      </trkpt>
      <trkpt lat="42.63046" lon="1.72569">
        <ele>2107.61</ele>
        <time>2021-08-06T14:11:07Z</time>
      </trkpt>
      <trkpt lat="42.63047" lon="1.72569">
        <ele>2107.121</ele>
        <time>2021-08-06T14:11:09Z</time>
      </trkpt>
      <trkpt lat="42.63048" lon="1.7257">
        <ele>2106.427</ele>
        <time>2021-08-06T14:11:11Z</time>
      </trkpt>
      <trkpt lat="42.63049" lon="1.72569">
        <ele>2106.982</ele>
        <time>2021-08-06T14:11:13Z</time>
      </trkpt>
      <trkpt lat="42.6305" lon="1.72568">
        <ele>2106.491</ele>
        <time>2021-08-06T14:11:15Z</time>
      </trkpt>
      <trkpt lat="42.63051" lon="1.72567">
        <ele>2106.143</ele>
        <time>2021-08-06T14:11:17Z</time>
      </trkpt>
      <trkpt lat="42.63052" lon="1.72567">
        <ele>2105.495</ele>
        <time>2021-08-06T14:11:19Z</time>
      </trkpt>
      <trkpt lat="42.63053" lon="1.72565">
        <ele>2105.517</ele>
        <time>2021-08-06T14:11:21Z</time>
      </trkpt>
      <trkpt lat="42.63054" lon="1.72565">
        <ele>2104.759</ele>
        <time>2021-08-06T14:11:23Z</time>
      </trkpt>
      <trkpt lat="42.63055" lon="1.72564">
        <ele>2104.036</ele>
        <time>2021-08-06T14:11:25Z</time>
      </trkpt>
      <trkpt lat="42.63056" lon="1.72563">
        <ele>2102.538</ele>
        <time>2021-08-06T14:11:27Z</time>
      </trkpt>
      <trkpt lat="42.63057" lon="1.72562">
        <ele>2101.872</ele>
        <time>2021-08-06T14:11:29Z</time>
      </trkpt>
      <trkpt lat="42.63056" lon="1.72562">
        <ele>2101.713</ele>
        <time>2021-08-06T14:11:31Z</time>
      </trkpt>
      <trkpt lat="42.63055" lon="1.72562">
        <ele>2101.657</ele>
        <time>2021-08-06T14:11:33Z</time>
      </trkpt>
      <trkpt lat="42.63055" lon="1.72564">
        <ele>2102.433</ele>
        <time>2021-08-06T14:11:35Z</time>
      </trkpt>
      <trkpt lat="42.63056" lon="1.72562">
        <ele>2101.96</ele>
        <time>2021-08-06T14:11:37Z</time>
      </trkpt>
      <trkpt lat="42.63057" lon="1.72561">
        <ele>2102.12</ele>
        <time>2021-08-06T14:11:39Z</time>
      </trkpt>
      <trkpt lat="42.63058" lon="1.7256">
        <ele>2103.045</ele>
        <time>2021-08-06T14:11:41Z</time>
      </trkpt>
      <trkpt lat="42.63061" lon="1.72564">
        <ele>2101.736</ele>
        <time>2021-08-06T14:11:43Z</time>
      </trkpt>
      <trkpt lat="42.63064" lon="1.72564">
        <ele>2102.07</ele>
        <time>2021-08-06T14:11:45Z</time>
      </trkpt>
      <trkpt lat="42.63067" lon="1.72561">
        <ele>2104.233</ele>
        <time>2021-08-06T14:11:47Z</time>
      </trkpt>
      <trkpt lat="42.63069" lon="1.72559">
        <ele>2105.472</ele>
        <time>2021-08-06T14:11:49Z</time>
      </trkpt>
      <trkpt lat="42.63071" lon="1.72557">
        <ele>2107.568</ele>
        <time>2021-08-06T14:11:51Z</time>
      </trkpt>
      <trkpt lat="42.63074" lon="1.72555">
        <ele>2109.57</ele>
        <time>2021-08-06T14:11:53Z</time>
      </trkpt>
      <trkpt lat="42.63076" lon="1.72554">
        <ele>2108.047</ele>
        <time>2021-08-06T14:11:55Z</time>
      </trkpt>
      <trkpt lat="42.63074" lon="1.72555">
        <ele>2105.007</ele>
        <time>2021-08-06T14:11:57Z</time>
      </trkpt>
      <trkpt lat="42.63073" lon="1.72555">
        <ele>2104.989</ele>
        <time>2021-08-06T14:11:59Z</time>
      </trkpt>
      <trkpt lat="42.63073" lon="1.72555">
        <ele>2104.972</ele>
        <time>2021-08-06T14:12:01Z</time>
      </trkpt>
      <trkpt lat="42.63073" lon="1.72555">
        <ele>2104.967</ele>
        <time>2021-08-06T14:12:02Z</time>
      </trkpt>
      <trkpt lat="42.63073" lon="1.72555">
        <ele>2104.95</ele>
        <time>2021-08-06T14:12:05Z</time>
      </trkpt>
      <trkpt lat="42.63073" lon="1.72555">
        <ele>2103.822</ele>
        <time>2021-08-06T14:12:07Z</time>
      </trkpt>
      <trkpt lat="42.63074" lon="1.72555">
        <ele>2103.227</ele>
        <time>2021-08-06T14:12:09Z</time>
      </trkpt>
      <trkpt lat="42.63074" lon="1.72556">
        <ele>2102.821</ele>
        <time>2021-08-06T14:12:11Z</time>
      </trkpt>
      <trkpt lat="42.63075" lon="1.72555">
        <ele>2102.982</ele>
        <time>2021-08-06T14:12:13Z</time>
      </trkpt>
      <trkpt lat="42.63076" lon="1.72556">
        <ele>2102.344</ele>
        <time>2021-08-06T14:12:15Z</time>
      </trkpt>
      <trkpt lat="42.63078" lon="1.72556">
        <ele>2102.517</ele>
        <time>2021-08-06T14:12:17Z</time>
      </trkpt>
      <trkpt lat="42.63078" lon="1.72557">
        <ele>2102.692</ele>
        <time>2021-08-06T14:12:19Z</time>
      </trkpt>
      <trkpt lat="42.63079" lon="1.72558">
        <ele>2102.613</ele>
        <time>2021-08-06T14:12:21Z</time>
      </trkpt>
      <trkpt lat="42.6308" lon="1.72558">
        <ele>2102.029</ele>
        <time>2021-08-06T14:12:23Z</time>
      </trkpt>
      <trkpt lat="42.63081" lon="1.72559">
        <ele>2102.497</ele>
        <time>2021-08-06T14:12:25Z</time>
      </trkpt>
      <trkpt lat="42.63082" lon="1.7256">
        <ele>2102.145</ele>
        <time>2021-08-06T14:12:27Z</time>
      </trkpt>
      <trkpt lat="42.63084" lon="1.72559">
        <ele>2100.86</ele>
        <time>2021-08-06T14:12:29Z</time>
      </trkpt>
      <trkpt lat="42.63085" lon="1.72558">
        <ele>2099.737</ele>
        <time>2021-08-06T14:12:31Z</time>
      </trkpt>
      <trkpt lat="42.63087" lon="1.72558">
        <ele>2098.357</ele>
        <time>2021-08-06T14:12:33Z</time>
      </trkpt>
      <trkpt lat="42.63089" lon="1.72559">
        <ele>2098.754</ele>
        <time>2021-08-06T14:12:35Z</time>
      </trkpt>
      <trkpt lat="42.6309" lon="1.72558">
        <ele>2098.545</ele>
        <time>2021-08-06T14:12:37Z</time>
      </trkpt>
      <trkpt lat="42.63092" lon="1.72556">
        <ele>2098.769</ele>
        <time>2021-08-06T14:12:39Z</time>
      </trkpt>
      <trkpt lat="42.63094" lon="1.72556">
        <ele>2098.891</ele>
        <time>2021-08-06T14:12:41Z</time>
      </trkpt>
      <trkpt lat="42.63096" lon="1.72556">
        <ele>2098.443</ele>
        <time>2021-08-06T14:12:43Z</time>
      </trkpt>
      <trkpt lat="42.63097" lon="1.72557">
        <ele>2098.552</ele>
        <time>2021-08-06T14:12:45Z</time>
      </trkpt>
      <trkpt lat="42.63098" lon="1.72559">
        <ele>2098.534</ele>
        <time>2021-08-06T14:12:47Z</time>
      </trkpt>
      <trkpt lat="42.63099" lon="1.7256">
        <ele>2097.178</ele>
        <time>2021-08-06T14:12:49Z</time>
      </trkpt>
      <trkpt lat="42.63101" lon="1.72562">
        <ele>2096.338</ele>
        <time>2021-08-06T14:12:51Z</time>
      </trkpt>
      <trkpt lat="42.63099" lon="1.72565">
        <ele>2096.105</ele>
        <time>2021-08-06T14:12:53Z</time>
      </trkpt>
      <trkpt lat="42.631" lon="1.72566">
        <ele>2095.567</ele>
        <time>2021-08-06T14:12:55Z</time>
      </trkpt>
      <trkpt lat="42.63102" lon="1.72567">
        <ele>2095.929</ele>
        <time>2021-08-06T14:12:57Z</time>
      </trkpt>
      <trkpt lat="42.63103" lon="1.72569">
        <ele>2095.261</ele>
        <time>2021-08-06T14:12:59Z</time>
      </trkpt>
      <trkpt lat="42.63103" lon="1.7257">
        <ele>2095.177</ele>
        <time>2021-08-06T14:13:01Z</time>
      </trkpt>
      <trkpt lat="42.63105" lon="1.7257">
        <ele>2093.419</ele>
        <time>2021-08-06T14:13:03Z</time>
      </trkpt>
      <trkpt lat="42.63106" lon="1.72571">
        <ele>2093.027</ele>
        <time>2021-08-06T14:13:05Z</time>
      </trkpt>
      <trkpt lat="42.63107" lon="1.72572">
        <ele>2094.175</ele>
        <time>2021-08-06T14:13:07Z</time>
      </trkpt>
      <trkpt lat="42.63108" lon="1.72572">
        <ele>2094.953</ele>
        <time>2021-08-06T14:13:09Z</time>
      </trkpt>
      <trkpt lat="42.6311" lon="1.72571">
        <ele>2094.985</ele>
        <time>2021-08-06T14:13:11Z</time>
      </trkpt>
      <trkpt lat="42.63111" lon="1.72569">
        <ele>2093.242</ele>
        <time>2021-08-06T14:13:13Z</time>
      </trkpt>
      <trkpt lat="42.63112" lon="1.72567">
        <ele>2092.957</ele>
        <time>2021-08-06T14:13:15Z</time>
      </trkpt>
      <trkpt lat="42.63113" lon="1.72568">
        <ele>2091.921</ele>
        <time>2021-08-06T14:13:17Z</time>
      </trkpt>
      <trkpt lat="42.63115" lon="1.72567">
        <ele>2092.141</ele>
        <time>2021-08-06T14:13:19Z</time>
      </trkpt>
      <trkpt lat="42.63115" lon="1.72565">
        <ele>2090.208</ele>
        <time>2021-08-06T14:13:21Z</time>
      </trkpt>
      <trkpt lat="42.63116" lon="1.72564">
        <ele>2089.657</ele>
        <time>2021-08-06T14:13:23Z</time>
      </trkpt>
      <trkpt lat="42.63117" lon="1.72562">
        <ele>2089.399</ele>
        <time>2021-08-06T14:13:25Z</time>
      </trkpt>
      <trkpt lat="42.63118" lon="1.72559">
        <ele>2088.719</ele>
        <time>2021-08-06T14:13:27Z</time>
      </trkpt>
      <trkpt lat="42.63118" lon="1.72557">
        <ele>2088.023</ele>
        <time>2021-08-06T14:13:29Z</time>
      </trkpt>
      <trkpt lat="42.63119" lon="1.72555">
        <ele>2087.905</ele>
        <time>2021-08-06T14:13:31Z</time>
      </trkpt>
      <trkpt lat="42.63121" lon="1.72553">
        <ele>2089.572</ele>
        <time>2021-08-06T14:13:33Z</time>
      </trkpt>
      <trkpt lat="42.63121" lon="1.72551">
        <ele>2089.292</ele>
        <time>2021-08-06T14:13:35Z</time>
      </trkpt>
      <trkpt lat="42.63122" lon="1.72549">
        <ele>2089.697</ele>
        <time>2021-08-06T14:13:37Z</time>
      </trkpt>
      <trkpt lat="42.63123" lon="1.72548">
        <ele>2089.314</ele>
        <time>2021-08-06T14:13:39Z</time>
      </trkpt>
      <trkpt lat="42.63123" lon="1.72547">
        <ele>2088.842</ele>
        <time>2021-08-06T14:13:41Z</time>
      </trkpt>
      <trkpt lat="42.63124" lon="1.72547">
        <ele>2089.099</ele>
        <time>2021-08-06T14:13:43Z</time>
      </trkpt>
      <trkpt lat="42.63123" lon="1.72546">
        <ele>2088.328</ele>
        <time>2021-08-06T14:13:45Z</time>
      </trkpt>
      <trkpt lat="42.63123" lon="1.72545">
        <ele>2087.766</ele>
        <time>2021-08-06T14:13:47Z</time>
      </trkpt>
      <trkpt lat="42.63123" lon="1.72543">
        <ele>2086.873</ele>
        <time>2021-08-06T14:13:49Z</time>
      </trkpt>
      <trkpt lat="42.63124" lon="1.72543">
        <ele>2085.56</ele>
        <time>2021-08-06T14:13:51Z</time>
      </trkpt>
      <trkpt lat="42.63125" lon="1.72543">
        <ele>2085.452</ele>
        <time>2021-08-06T14:13:53Z</time>
      </trkpt>
      <trkpt lat="42.63124" lon="1.72543">
        <ele>2085.442</ele>
        <time>2021-08-06T14:13:55Z</time>
      </trkpt>
      <trkpt lat="42.63125" lon="1.72543">
        <ele>2085.263</ele>
        <time>2021-08-06T14:13:57Z</time>
      </trkpt>
      <trkpt lat="42.63126" lon="1.72543">
        <ele>2084.234</ele>
        <time>2021-08-06T14:13:59Z</time>
      </trkpt>
      <trkpt lat="42.63127" lon="1.72544">
        <ele>2083.522</ele>
        <time>2021-08-06T14:14:01Z</time>
      </trkpt>
      <trkpt lat="42.63129" lon="1.72544">
        <ele>2083.67</ele>
        <time>2021-08-06T14:14:03Z</time>
      </trkpt>
      <trkpt lat="42.6313" lon="1.72544">
        <ele>2084.153</ele>
        <time>2021-08-06T14:14:05Z</time>
      </trkpt>
      <trkpt lat="42.63131" lon="1.72543">
        <ele>2084.224</ele>
        <time>2021-08-06T14:14:07Z</time>
      </trkpt>
      <trkpt lat="42.63131" lon="1.72542">
        <ele>2083.754</ele>
        <time>2021-08-06T14:14:09Z</time>
      </trkpt>
      <trkpt lat="42.63132" lon="1.7254">
        <ele>2082.666</ele>
        <time>2021-08-06T14:14:11Z</time>
      </trkpt>
      <trkpt lat="42.63134" lon="1.72539">
        <ele>2081.993</ele>
        <time>2021-08-06T14:14:13Z</time>
      </trkpt>
      <trkpt lat="42.63135" lon="1.72537">
        <ele>2081.589</ele>
        <time>2021-08-06T14:14:15Z</time>
      </trkpt>
      <trkpt lat="42.63136" lon="1.72535">
        <ele>2080.973</ele>
        <time>2021-08-06T14:14:17Z</time>
      </trkpt>
      <trkpt lat="42.63138" lon="1.72534">
        <ele>2080.558</ele>
        <time>2021-08-06T14:14:19Z</time>
      </trkpt>
      <trkpt lat="42.63139" lon="1.72532">
        <ele>2080.788</ele>
        <time>2021-08-06T14:14:21Z</time>
      </trkpt>
      <trkpt lat="42.63141" lon="1.72531">
        <ele>2080.168</ele>
        <time>2021-08-06T14:14:23Z</time>
      </trkpt>
      <trkpt lat="42.63142" lon="1.72531">
        <ele>2078.354</ele>
        <time>2021-08-06T14:14:25Z</time>
      </trkpt>
      <trkpt lat="42.63144" lon="1.7253">
        <ele>2078.157</ele>
        <time>2021-08-06T14:14:27Z</time>
      </trkpt>
      <trkpt lat="42.63145" lon="1.72528">
        <ele>2078.674</ele>
        <time>2021-08-06T14:14:29Z</time>
      </trkpt>
      <trkpt lat="42.63146" lon="1.72527">
        <ele>2078.15</ele>
        <time>2021-08-06T14:14:31Z</time>
      </trkpt>
      <trkpt lat="42.63147" lon="1.72525">
        <ele>2077.739</ele>
        <time>2021-08-06T14:14:33Z</time>
      </trkpt>
      <trkpt lat="42.63149" lon="1.72523">
        <ele>2077.614</ele>
        <time>2021-08-06T14:14:35Z</time>
      </trkpt>
      <trkpt lat="42.63151" lon="1.72521">
        <ele>2078.161</ele>
        <time>2021-08-06T14:14:37Z</time>
      </trkpt>
      <trkpt lat="42.63153" lon="1.7252">
        <ele>2078.467</ele>
        <time>2021-08-06T14:14:39Z</time>
      </trkpt>
      <trkpt lat="42.63154" lon="1.72519">
        <ele>2078.695</ele>
        <time>2021-08-06T14:14:41Z</time>
      </trkpt>
      <trkpt lat="42.63156" lon="1.72518">
        <ele>2078.11</ele>
        <time>2021-08-06T14:14:43Z</time>
      </trkpt>
      <trkpt lat="42.63158" lon="1.72516">
        <ele>2077.712</ele>
        <time>2021-08-06T14:14:45Z</time>
      </trkpt>
      <trkpt lat="42.6316" lon="1.72516">
        <ele>2077.261</ele>
        <time>2021-08-06T14:14:47Z</time>
      </trkpt>
      <trkpt lat="42.63162" lon="1.72514">
        <ele>2076.914</ele>
        <time>2021-08-06T14:14:49Z</time>
      </trkpt>
      <trkpt lat="42.63163" lon="1.72513">
        <ele>2077.359</ele>
        <time>2021-08-06T14:14:51Z</time>
      </trkpt>
      <trkpt lat="42.63164" lon="1.72513">
        <ele>2076.58</ele>
        <time>2021-08-06T14:14:53Z</time>
      </trkpt>
      <trkpt lat="42.63165" lon="1.72511">
        <ele>2076.515</ele>
        <time>2021-08-06T14:14:55Z</time>
      </trkpt>
      <trkpt lat="42.63166" lon="1.72509">
        <ele>2076.326</ele>
        <time>2021-08-06T14:14:57Z</time>
      </trkpt>
      <trkpt lat="42.63168" lon="1.72508">
        <ele>2075.999</ele>
        <time>2021-08-06T14:14:59Z</time>
      </trkpt>
      <trkpt lat="42.63169" lon="1.72507">
        <ele>2075.173</ele>
        <time>2021-08-06T14:15:01Z</time>
      </trkpt>
      <trkpt lat="42.63171" lon="1.72508">
        <ele>2073.772</ele>
        <time>2021-08-06T14:15:03Z</time>
      </trkpt>
      <trkpt lat="42.63172" lon="1.72507">
        <ele>2075.188</ele>
        <time>2021-08-06T14:15:05Z</time>
      </trkpt>
      <trkpt lat="42.63174" lon="1.72505">
        <ele>2075.715</ele>
        <time>2021-08-06T14:15:07Z</time>
      </trkpt>
      <trkpt lat="42.63175" lon="1.72504">
        <ele>2075.954</ele>
        <time>2021-08-06T14:15:09Z</time>
      </trkpt>
      <trkpt lat="42.63177" lon="1.72503">
        <ele>2074.592</ele>
        <time>2021-08-06T14:15:11Z</time>
      </trkpt>
      <trkpt lat="42.63178" lon="1.72502">
        <ele>2075.026</ele>
        <time>2021-08-06T14:15:13Z</time>
      </trkpt>
      <trkpt lat="42.63177" lon="1.72499">
        <ele>2074.717</ele>
        <time>2021-08-06T14:15:15Z</time>
      </trkpt>
      <trkpt lat="42.63177" lon="1.72499">
        <ele>2074.011</ele>
        <time>2021-08-06T14:15:17Z</time>
      </trkpt>
      <trkpt lat="42.63177" lon="1.72498">
        <ele>2073.119</ele>
        <time>2021-08-06T14:15:19Z</time>
      </trkpt>
      <trkpt lat="42.63179" lon="1.72498">
        <ele>2072.822</ele>
        <time>2021-08-06T14:15:21Z</time>
      </trkpt>
      <trkpt lat="42.6318" lon="1.72497">
        <ele>2072.844</ele>
        <time>2021-08-06T14:15:23Z</time>
      </trkpt>
      <trkpt lat="42.63181" lon="1.72496">
        <ele>2072.888</ele>
        <time>2021-08-06T14:15:25Z</time>
      </trkpt>
      <trkpt lat="42.63183" lon="1.72495">
        <ele>2073.023</ele>
        <time>2021-08-06T14:15:27Z</time>
      </trkpt>
      <trkpt lat="42.63184" lon="1.72495">
        <ele>2072.968</ele>
        <time>2021-08-06T14:15:29Z</time>
      </trkpt>
      <trkpt lat="42.63185" lon="1.72494">
        <ele>2072.528</ele>
        <time>2021-08-06T14:15:31Z</time>
      </trkpt>
      <trkpt lat="42.63185" lon="1.72494">
        <ele>2072.504</ele>
        <time>2021-08-06T14:15:33Z</time>
      </trkpt>
      <trkpt lat="42.63185" lon="1.72493">
        <ele>2072.821</ele>
        <time>2021-08-06T14:15:35Z</time>
      </trkpt>
      <trkpt lat="42.63185" lon="1.72494">
        <ele>2068.991</ele>
        <time>2021-08-06T14:15:37Z</time>
      </trkpt>
      <trkpt lat="42.63187" lon="1.72494">
        <ele>2068.886</ele>
        <time>2021-08-06T14:15:39Z</time>
      </trkpt>
      <trkpt lat="42.63189" lon="1.72493">
        <ele>2068.55</ele>
        <time>2021-08-06T14:15:41Z</time>
      </trkpt>
      <trkpt lat="42.6319" lon="1.72492">
        <ele>2068.931</ele>
        <time>2021-08-06T14:15:43Z</time>
      </trkpt>
      <trkpt lat="42.63192" lon="1.72491">
        <ele>2068.994</ele>
        <time>2021-08-06T14:15:45Z</time>
      </trkpt>
      <trkpt lat="42.63193" lon="1.72491">
        <ele>2068.572</ele>
        <time>2021-08-06T14:15:47Z</time>
      </trkpt>
      <trkpt lat="42.63195" lon="1.72491">
        <ele>2068.135</ele>
        <time>2021-08-06T14:15:49Z</time>
      </trkpt>
      <trkpt lat="42.63196" lon="1.7249">
        <ele>2068.204</ele>
        <time>2021-08-06T14:15:51Z</time>
      </trkpt>
      <trkpt lat="42.63197" lon="1.72488">
        <ele>2067.814</ele>
        <time>2021-08-06T14:15:53Z</time>
      </trkpt>
      <trkpt lat="42.63198" lon="1.72487">
        <ele>2067.254</ele>
        <time>2021-08-06T14:15:55Z</time>
      </trkpt>
      <trkpt lat="42.63199" lon="1.72487">
        <ele>2066.691</ele>
        <time>2021-08-06T14:15:57Z</time>
      </trkpt>
      <trkpt lat="42.632" lon="1.72487">
        <ele>2066.738</ele>
        <time>2021-08-06T14:15:59Z</time>
      </trkpt>
      <trkpt lat="42.63201" lon="1.72486">
        <ele>2066.714</ele>
        <time>2021-08-06T14:16:01Z</time>
      </trkpt>
      <trkpt lat="42.63203" lon="1.72485">
        <ele>2066.22</ele>
        <time>2021-08-06T14:16:03Z</time>
      </trkpt>
      <trkpt lat="42.63204" lon="1.72484">
        <ele>2066.078</ele>
        <time>2021-08-06T14:16:05Z</time>
      </trkpt>
      <trkpt lat="42.63206" lon="1.72484">
        <ele>2065.885</ele>
        <time>2021-08-06T14:16:07Z</time>
      </trkpt>
      <trkpt lat="42.63207" lon="1.72484">
        <ele>2065.532</ele>
        <time>2021-08-06T14:16:09Z</time>
      </trkpt>
      <trkpt lat="42.63208" lon="1.72482">
        <ele>2065.157</ele>
        <time>2021-08-06T14:16:11Z</time>
      </trkpt>
      <trkpt lat="42.63209" lon="1.72481">
        <ele>2065.198</ele>
        <time>2021-08-06T14:16:13Z</time>
      </trkpt>
      <trkpt lat="42.6321" lon="1.72481">
        <ele>2063.952</ele>
        <time>2021-08-06T14:16:15Z</time>
      </trkpt>
      <trkpt lat="42.63211" lon="1.7248">
        <ele>2063.599</ele>
        <time>2021-08-06T14:16:17Z</time>
      </trkpt>
      <trkpt lat="42.63212" lon="1.72482">
        <ele>2061.594</ele>
        <time>2021-08-06T14:16:19Z</time>
      </trkpt>
      <trkpt lat="42.63212" lon="1.72482">
        <ele>2062.1</ele>
        <time>2021-08-06T14:16:21Z</time>
      </trkpt>
      <trkpt lat="42.63213" lon="1.72483">
        <ele>2061.484</ele>
        <time>2021-08-06T14:16:23Z</time>
      </trkpt>
      <trkpt lat="42.63215" lon="1.72484">
        <ele>2061.453</ele>
        <time>2021-08-06T14:16:25Z</time>
      </trkpt>
      <trkpt lat="42.63217" lon="1.72483">
        <ele>2062.493</ele>
        <time>2021-08-06T14:16:27Z</time>
      </trkpt>
      <trkpt lat="42.63219" lon="1.72482">
        <ele>2062.376</ele>
        <time>2021-08-06T14:16:29Z</time>
      </trkpt>
      <trkpt lat="42.63221" lon="1.72482">
        <ele>2061.697</ele>
        <time>2021-08-06T14:16:31Z</time>
      </trkpt>
      <trkpt lat="42.63223" lon="1.72482">
        <ele>2060.972</ele>
        <time>2021-08-06T14:16:33Z</time>
      </trkpt>
      <trkpt lat="42.63224" lon="1.72481">
        <ele>2060.093</ele>
        <time>2021-08-06T14:16:35Z</time>
      </trkpt>
      <trkpt lat="42.63225" lon="1.72481">
        <ele>2059.094</ele>
        <time>2021-08-06T14:16:37Z</time>
      </trkpt>
      <trkpt lat="42.63225" lon="1.7248">
        <ele>2059.198</ele>
        <time>2021-08-06T14:16:39Z</time>
      </trkpt>
      <trkpt lat="42.63226" lon="1.72479">
        <ele>2058.721</ele>
        <time>2021-08-06T14:16:41Z</time>
      </trkpt>
      <trkpt lat="42.63226" lon="1.72478">
        <ele>2057.861</ele>
        <time>2021-08-06T14:16:43Z</time>
      </trkpt>
      <trkpt lat="42.63226" lon="1.72476">
        <ele>2057.401</ele>
        <time>2021-08-06T14:16:45Z</time>
      </trkpt>
      <trkpt lat="42.63227" lon="1.72474">
        <ele>2057.367</ele>
        <time>2021-08-06T14:16:47Z</time>
      </trkpt>
      <trkpt lat="42.63228" lon="1.72473">
        <ele>2056.428</ele>
        <time>2021-08-06T14:16:49Z</time>
      </trkpt>
      <trkpt lat="42.63229" lon="1.72472">
        <ele>2056.365</ele>
        <time>2021-08-06T14:16:51Z</time>
      </trkpt>
      <trkpt lat="42.6323" lon="1.72472">
        <ele>2056.041</ele>
        <time>2021-08-06T14:16:53Z</time>
      </trkpt>
      <trkpt lat="42.63231" lon="1.72473">
        <ele>2054.775</ele>
        <time>2021-08-06T14:16:55Z</time>
      </trkpt>
      <trkpt lat="42.63232" lon="1.72475">
        <ele>2054.163</ele>
        <time>2021-08-06T14:16:57Z</time>
      </trkpt>
      <trkpt lat="42.63231" lon="1.72475">
        <ele>2054.163</ele>
        <time>2021-08-06T14:16:59Z</time>
      </trkpt>
      <trkpt lat="42.63231" lon="1.72475">
        <ele>2054.168</ele>
        <time>2021-08-06T14:17:01Z</time>
      </trkpt>
      <trkpt lat="42.63232" lon="1.72476">
        <ele>2054.024</ele>
        <time>2021-08-06T14:17:03Z</time>
      </trkpt>
      <trkpt lat="42.63233" lon="1.72476">
        <ele>2054.425</ele>
        <time>2021-08-06T14:17:05Z</time>
      </trkpt>
      <trkpt lat="42.63233" lon="1.72477">
        <ele>2051.502</ele>
        <time>2021-08-06T14:17:07Z</time>
      </trkpt>
      <trkpt lat="42.6323" lon="1.72475">
        <ele>2051.677</ele>
        <time>2021-08-06T14:17:09Z</time>
      </trkpt>
      <trkpt lat="42.63232" lon="1.72473">
        <ele>2050.965</ele>
        <time>2021-08-06T14:17:11Z</time>
      </trkpt>
      <trkpt lat="42.63233" lon="1.72474">
        <ele>2050.439</ele>
        <time>2021-08-06T14:17:13Z</time>
      </trkpt>
      <trkpt lat="42.63234" lon="1.72473">
        <ele>2051.582</ele>
        <time>2021-08-06T14:17:15Z</time>
      </trkpt>
      <trkpt lat="42.63235" lon="1.72472">
        <ele>2051.234</ele>
        <time>2021-08-06T14:17:17Z</time>
      </trkpt>
      <trkpt lat="42.63237" lon="1.72473">
        <ele>2050.05</ele>
        <time>2021-08-06T14:17:19Z</time>
      </trkpt>
      <trkpt lat="42.63238" lon="1.72471">
        <ele>2049.885</ele>
        <time>2021-08-06T14:17:21Z</time>
      </trkpt>
      <trkpt lat="42.63238" lon="1.7247">
        <ele>2050.041</ele>
        <time>2021-08-06T14:17:23Z</time>
      </trkpt>
      <trkpt lat="42.63239" lon="1.72468">
        <ele>2049.427</ele>
        <time>2021-08-06T14:17:25Z</time>
      </trkpt>
      <trkpt lat="42.6324" lon="1.72468">
        <ele>2049.563</ele>
        <time>2021-08-06T14:17:27Z</time>
      </trkpt>
      <trkpt lat="42.6324" lon="1.72468">
        <ele>2049.365</ele>
        <time>2021-08-06T14:17:29Z</time>
      </trkpt>
      <trkpt lat="42.6324" lon="1.72468">
        <ele>2049.367</ele>
        <time>2021-08-06T14:17:31Z</time>
      </trkpt>
      <trkpt lat="42.6324" lon="1.72468">
        <ele>2049.372</ele>
        <time>2021-08-06T14:17:33Z</time>
      </trkpt>
      <trkpt lat="42.6324" lon="1.72468">
        <ele>2049.37</ele>
        <time>2021-08-06T14:17:35Z</time>
      </trkpt>
      <trkpt lat="42.63241" lon="1.72468">
        <ele>2049.352</ele>
        <time>2021-08-06T14:17:37Z</time>
      </trkpt>
      <trkpt lat="42.63242" lon="1.72466">
        <ele>2050.006</ele>
        <time>2021-08-06T14:17:39Z</time>
      </trkpt>
      <trkpt lat="42.63243" lon="1.72464">
        <ele>2050.574</ele>
        <time>2021-08-06T14:17:41Z</time>
      </trkpt>
      <trkpt lat="42.63243" lon="1.72462">
        <ele>2049.927</ele>
        <time>2021-08-06T14:17:43Z</time>
      </trkpt>
      <trkpt lat="42.63244" lon="1.7246">
        <ele>2049.822</ele>
        <time>2021-08-06T14:17:45Z</time>
      </trkpt>
      <trkpt lat="42.63246" lon="1.72459">
        <ele>2049.424</ele>
        <time>2021-08-06T14:17:47Z</time>
      </trkpt>
      <trkpt lat="42.63247" lon="1.72459">
        <ele>2049.001</ele>
        <time>2021-08-06T14:17:49Z</time>
      </trkpt>
      <trkpt lat="42.63249" lon="1.72458">
        <ele>2049.045</ele>
        <time>2021-08-06T14:17:51Z</time>
      </trkpt>
      <trkpt lat="42.6325" lon="1.72457">
        <ele>2048.179</ele>
        <time>2021-08-06T14:17:53Z</time>
      </trkpt>
      <trkpt lat="42.6325" lon="1.72455">
        <ele>2048.629</ele>
        <time>2021-08-06T14:17:55Z</time>
      </trkpt>
      <trkpt lat="42.63248" lon="1.72453">
        <ele>2048.987</ele>
        <time>2021-08-06T14:17:57Z</time>
      </trkpt>
      <trkpt lat="42.63246" lon="1.72454">
        <ele>2047.845</ele>
        <time>2021-08-06T14:17:59Z</time>
      </trkpt>
      <trkpt lat="42.63245" lon="1.72454">
        <ele>2047.879</ele>
        <time>2021-08-06T14:18:01Z</time>
      </trkpt>
      <trkpt lat="42.63245" lon="1.72454">
        <ele>2047.893</ele>
        <time>2021-08-06T14:18:03Z</time>
      </trkpt>
      <trkpt lat="42.63245" lon="1.72454">
        <ele>2047.145</ele>
        <time>2021-08-06T14:18:05Z</time>
      </trkpt>
      <trkpt lat="42.63245" lon="1.72452">
        <ele>2046.717</ele>
        <time>2021-08-06T14:18:07Z</time>
      </trkpt>
      <trkpt lat="42.63243" lon="1.72445">
        <ele>2045.937</ele>
        <time>2021-08-06T14:18:09Z</time>
      </trkpt>
      <trkpt lat="42.63245" lon="1.72444">
        <ele>2046.471</ele>
        <time>2021-08-06T14:18:11Z</time>
      </trkpt>
      <trkpt lat="42.63247" lon="1.72444">
        <ele>2046.054</ele>
        <time>2021-08-06T14:18:13Z</time>
      </trkpt>
      <trkpt lat="42.63247" lon="1.72444">
        <ele>2046.058</ele>
        <time>2021-08-06T14:18:15Z</time>
      </trkpt>
      <trkpt lat="42.63247" lon="1.72444">
        <ele>2046.057</ele>
        <time>2021-08-06T14:18:17Z</time>
      </trkpt>
      <trkpt lat="42.63247" lon="1.72444">
        <ele>2046.053</ele>
        <time>2021-08-06T14:18:19Z</time>
      </trkpt>
      <trkpt lat="42.63247" lon="1.72444">
        <ele>2046.054</ele>
        <time>2021-08-06T14:18:21Z</time>
      </trkpt>
      <trkpt lat="42.63247" lon="1.72444">
        <ele>2046.06</ele>
        <time>2021-08-06T14:18:23Z</time>
      </trkpt>
      <trkpt lat="42.63247" lon="1.72444">
        <ele>2046.364</ele>
        <time>2021-08-06T14:18:25Z</time>
      </trkpt>
      <trkpt lat="42.63249" lon="1.72443">
        <ele>2045.479</ele>
        <time>2021-08-06T14:18:27Z</time>
      </trkpt>
      <trkpt lat="42.6325" lon="1.72441">
        <ele>2046.938</ele>
        <time>2021-08-06T14:18:29Z</time>
      </trkpt>
      <trkpt lat="42.63252" lon="1.72441">
        <ele>2047.669</ele>
        <time>2021-08-06T14:18:31Z</time>
      </trkpt>
      <trkpt lat="42.63254" lon="1.72439">
        <ele>2049.613</ele>
        <time>2021-08-06T14:18:33Z</time>
      </trkpt>
      <trkpt lat="42.63253" lon="1.72437">
        <ele>2049.313</ele>
        <time>2021-08-06T14:18:35Z</time>
      </trkpt>
      <trkpt lat="42.63251" lon="1.72437">
        <ele>2048.545</ele>
        <time>2021-08-06T14:18:37Z</time>
      </trkpt>
      <trkpt lat="42.6325" lon="1.72436">
        <ele>2048.116</ele>
        <time>2021-08-06T14:18:39Z</time>
      </trkpt>
      <trkpt lat="42.63249" lon="1.72436">
        <ele>2047.405</ele>
        <time>2021-08-06T14:18:41Z</time>
      </trkpt>
      <trkpt lat="42.63248" lon="1.72435">
        <ele>2046.807</ele>
        <time>2021-08-06T14:18:43Z</time>
      </trkpt>
      <trkpt lat="42.63249" lon="1.72433">
        <ele>2046.765</ele>
        <time>2021-08-06T14:18:45Z</time>
      </trkpt>
      <trkpt lat="42.63249" lon="1.72433">
        <ele>2047.12</ele>
        <time>2021-08-06T14:18:47Z</time>
      </trkpt>
      <trkpt lat="42.6325" lon="1.72433">
        <ele>2046.555</ele>
        <time>2021-08-06T14:18:49Z</time>
      </trkpt>
      <trkpt lat="42.63251" lon="1.72432">
        <ele>2046.073</ele>
        <time>2021-08-06T14:18:51Z</time>
      </trkpt>
      <trkpt lat="42.63251" lon="1.72431">
        <ele>2045.335</ele>
        <time>2021-08-06T14:18:53Z</time>
      </trkpt>
      <trkpt lat="42.63253" lon="1.72431">
        <ele>2045.033</ele>
        <time>2021-08-06T14:18:55Z</time>
      </trkpt>
      <trkpt lat="42.63253" lon="1.72431">
        <ele>2045.081</ele>
        <time>2021-08-06T14:18:57Z</time>
      </trkpt>
      <trkpt lat="42.63254" lon="1.72431">
        <ele>2044.181</ele>
        <time>2021-08-06T14:18:59Z</time>
      </trkpt>
      <trkpt lat="42.63255" lon="1.7243">
        <ele>2043.862</ele>
        <time>2021-08-06T14:19:01Z</time>
      </trkpt>
      <trkpt lat="42.63255" lon="1.72429">
        <ele>2044.548</ele>
        <time>2021-08-06T14:19:03Z</time>
      </trkpt>
      <trkpt lat="42.63255" lon="1.72429">
        <ele>2044.535</ele>
        <time>2021-08-06T14:19:05Z</time>
      </trkpt>
      <trkpt lat="42.63255" lon="1.72429">
        <ele>2044.527</ele>
        <time>2021-08-06T14:19:07Z</time>
      </trkpt>
      <trkpt lat="42.63255" lon="1.72429">
        <ele>2044.524</ele>
        <time>2021-08-06T14:19:09Z</time>
      </trkpt>
      <trkpt lat="42.63255" lon="1.72429">
        <ele>2044.524</ele>
        <time>2021-08-06T14:19:11Z</time>
      </trkpt>
      <trkpt lat="42.63256" lon="1.72429">
        <ele>2044.515</ele>
        <time>2021-08-06T14:19:13Z</time>
      </trkpt>
      <trkpt lat="42.63256" lon="1.72429">
        <ele>2044.366</ele>
        <time>2021-08-06T14:19:15Z</time>
      </trkpt>
      <trkpt lat="42.63257" lon="1.72429">
        <ele>2044.786</ele>
        <time>2021-08-06T14:19:17Z</time>
      </trkpt>
      <trkpt lat="42.63258" lon="1.72429">
        <ele>2043.914</ele>
        <time>2021-08-06T14:19:19Z</time>
      </trkpt>
      <trkpt lat="42.63259" lon="1.72428">
        <ele>2043.445</ele>
        <time>2021-08-06T14:19:21Z</time>
      </trkpt>
      <trkpt lat="42.6326" lon="1.72428">
        <ele>2042.734</ele>
        <time>2021-08-06T14:19:23Z</time>
      </trkpt>
      <trkpt lat="42.63261" lon="1.72428">
        <ele>2042.11</ele>
        <time>2021-08-06T14:19:25Z</time>
      </trkpt>
      <trkpt lat="42.63263" lon="1.72427">
        <ele>2041.369</ele>
        <time>2021-08-06T14:19:27Z</time>
      </trkpt>
      <trkpt lat="42.63264" lon="1.72427">
        <ele>2041.325</ele>
        <time>2021-08-06T14:19:29Z</time>
      </trkpt>
      <trkpt lat="42.63266" lon="1.72427">
        <ele>2040.526</ele>
        <time>2021-08-06T14:19:31Z</time>
      </trkpt>
      <trkpt lat="42.63267" lon="1.72426">
        <ele>2039.996</ele>
        <time>2021-08-06T14:19:33Z</time>
      </trkpt>
      <trkpt lat="42.63269" lon="1.72425">
        <ele>2040.248</ele>
        <time>2021-08-06T14:19:35Z</time>
      </trkpt>
      <trkpt lat="42.63269" lon="1.72424">
        <ele>2040.115</ele>
        <time>2021-08-06T14:19:37Z</time>
      </trkpt>
      <trkpt lat="42.6327" lon="1.72422">
        <ele>2039.221</ele>
        <time>2021-08-06T14:19:39Z</time>
      </trkpt>
      <trkpt lat="42.63271" lon="1.72421">
        <ele>2038.83</ele>
        <time>2021-08-06T14:19:41Z</time>
      </trkpt>
      <trkpt lat="42.63273" lon="1.72421">
        <ele>2038.516</ele>
        <time>2021-08-06T14:19:43Z</time>
      </trkpt>
      <trkpt lat="42.63275" lon="1.7242">
        <ele>2038.512</ele>
        <time>2021-08-06T14:19:45Z</time>
      </trkpt>
      <trkpt lat="42.63276" lon="1.7242">
        <ele>2038.438</ele>
        <time>2021-08-06T14:19:47Z</time>
      </trkpt>
      <trkpt lat="42.63277" lon="1.72419">
        <ele>2037.749</ele>
        <time>2021-08-06T14:19:49Z</time>
      </trkpt>
      <trkpt lat="42.63278" lon="1.72418">
        <ele>2035.776</ele>
        <time>2021-08-06T14:19:51Z</time>
      </trkpt>
      <trkpt lat="42.63279" lon="1.72417">
        <ele>2036.231</ele>
        <time>2021-08-06T14:19:53Z</time>
      </trkpt>
      <trkpt lat="42.6328" lon="1.72416">
        <ele>2035.782</ele>
        <time>2021-08-06T14:19:55Z</time>
      </trkpt>
      <trkpt lat="42.6328" lon="1.72414">
        <ele>2035.739</ele>
        <time>2021-08-06T14:19:57Z</time>
      </trkpt>
      <trkpt lat="42.6328" lon="1.72412">
        <ele>2035.159</ele>
        <time>2021-08-06T14:19:59Z</time>
      </trkpt>
      <trkpt lat="42.63279" lon="1.72411">
        <ele>2036.876</ele>
        <time>2021-08-06T14:20:01Z</time>
      </trkpt>
      <trkpt lat="42.63279" lon="1.72411">
        <ele>2037.174</ele>
        <time>2021-08-06T14:20:03Z</time>
      </trkpt>
      <trkpt lat="42.63279" lon="1.72412">
        <ele>2037.18</ele>
        <time>2021-08-06T14:20:05Z</time>
      </trkpt>
      <trkpt lat="42.63278" lon="1.72412">
        <ele>2037.176</ele>
        <time>2021-08-06T14:20:07Z</time>
      </trkpt>
      <trkpt lat="42.63278" lon="1.72412">
        <ele>2037.169</ele>
        <time>2021-08-06T14:20:09Z</time>
      </trkpt>
      <trkpt lat="42.63278" lon="1.72412">
        <ele>2037.168</ele>
        <time>2021-08-06T14:20:11Z</time>
      </trkpt>
      <trkpt lat="42.63278" lon="1.72412">
        <ele>2037.16</ele>
        <time>2021-08-06T14:20:13Z</time>
      </trkpt>
      <trkpt lat="42.63279" lon="1.72412">
        <ele>2037.038</ele>
        <time>2021-08-06T14:20:15Z</time>
      </trkpt>
      <trkpt lat="42.63279" lon="1.72412">
        <ele>2037.043</ele>
        <time>2021-08-06T14:20:17Z</time>
      </trkpt>
      <trkpt lat="42.63279" lon="1.72412">
        <ele>2037.041</ele>
        <time>2021-08-06T14:20:19Z</time>
      </trkpt>
      <trkpt lat="42.63279" lon="1.72412">
        <ele>2037.04</ele>
        <time>2021-08-06T14:20:21Z</time>
      </trkpt>
      <trkpt lat="42.63279" lon="1.72411">
        <ele>2036.637</ele>
        <time>2021-08-06T14:20:23Z</time>
      </trkpt>
      <trkpt lat="42.6328" lon="1.7241">
        <ele>2036.488</ele>
        <time>2021-08-06T14:20:25Z</time>
      </trkpt>
      <trkpt lat="42.63281" lon="1.72408">
        <ele>2036.326</ele>
        <time>2021-08-06T14:20:27Z</time>
      </trkpt>
      <trkpt lat="42.63281" lon="1.72405">
        <ele>2036.245</ele>
        <time>2021-08-06T14:20:29Z</time>
      </trkpt>
      <trkpt lat="42.63282" lon="1.72403">
        <ele>2035.922</ele>
        <time>2021-08-06T14:20:31Z</time>
      </trkpt>
      <trkpt lat="42.63283" lon="1.72401">
        <ele>2035.334</ele>
        <time>2021-08-06T14:20:33Z</time>
      </trkpt>
      <trkpt lat="42.63284" lon="1.724">
        <ele>2034.447</ele>
        <time>2021-08-06T14:20:35Z</time>
      </trkpt>
      <trkpt lat="42.63284" lon="1.72399">
        <ele>2033.552</ele>
        <time>2021-08-06T14:20:37Z</time>
      </trkpt>
      <trkpt lat="42.63285" lon="1.72397">
        <ele>2033.117</ele>
        <time>2021-08-06T14:20:39Z</time>
      </trkpt>
      <trkpt lat="42.63286" lon="1.72395">
        <ele>2031.737</ele>
        <time>2021-08-06T14:20:41Z</time>
      </trkpt>
      <trkpt lat="42.63286" lon="1.72394">
        <ele>2030.928</ele>
        <time>2021-08-06T14:20:43Z</time>
      </trkpt>
      <trkpt lat="42.63287" lon="1.72392">
        <ele>2029.708</ele>
        <time>2021-08-06T14:20:45Z</time>
      </trkpt>
      <trkpt lat="42.63288" lon="1.7239">
        <ele>2028.609</ele>
        <time>2021-08-06T14:20:47Z</time>
      </trkpt>
      <trkpt lat="42.6329" lon="1.7239">
        <ele>2027.939</ele>
        <time>2021-08-06T14:20:49Z</time>
      </trkpt>
      <trkpt lat="42.63291" lon="1.72388">
        <ele>2027.238</ele>
        <time>2021-08-06T14:20:51Z</time>
      </trkpt>
      <trkpt lat="42.63291" lon="1.72386">
        <ele>2026.328</ele>
        <time>2021-08-06T14:20:53Z</time>
      </trkpt>
      <trkpt lat="42.63292" lon="1.72384">
        <ele>2026.174</ele>
        <time>2021-08-06T14:20:55Z</time>
      </trkpt>
      <trkpt lat="42.63293" lon="1.72383">
        <ele>2025.756</ele>
        <time>2021-08-06T14:20:57Z</time>
      </trkpt>
      <trkpt lat="42.63294" lon="1.72383">
        <ele>2024.913</ele>
        <time>2021-08-06T14:20:59Z</time>
      </trkpt>
      <trkpt lat="42.63294" lon="1.72383">
        <ele>2024.917</ele>
        <time>2021-08-06T14:21:01Z</time>
      </trkpt>
      <trkpt lat="42.63294" lon="1.72383">
        <ele>2024.918</ele>
        <time>2021-08-06T14:21:03Z</time>
      </trkpt>
      <trkpt lat="42.63297" lon="1.72385">
        <ele>2024.754</ele>
        <time>2021-08-06T14:21:05Z</time>
      </trkpt>
      <trkpt lat="42.63299" lon="1.72384">
        <ele>2024.69</ele>
        <time>2021-08-06T14:21:07Z</time>
      </trkpt>
      <trkpt lat="42.63301" lon="1.72382">
        <ele>2025.294</ele>
        <time>2021-08-06T14:21:09Z</time>
      </trkpt>
      <trkpt lat="42.63302" lon="1.72381">
        <ele>2025.256</ele>
        <time>2021-08-06T14:21:11Z</time>
      </trkpt>
      <trkpt lat="42.63304" lon="1.72381">
        <ele>2025.816</ele>
        <time>2021-08-06T14:21:13Z</time>
      </trkpt>
      <trkpt lat="42.63305" lon="1.72381">
        <ele>2026.125</ele>
        <time>2021-08-06T14:21:15Z</time>
      </trkpt>
      <trkpt lat="42.63307" lon="1.72382">
        <ele>2025.566</ele>
        <time>2021-08-06T14:21:17Z</time>
      </trkpt>
      <trkpt lat="42.63308" lon="1.72383">
        <ele>2025.239</ele>
        <time>2021-08-06T14:21:19Z</time>
      </trkpt>
      <trkpt lat="42.63309" lon="1.72384">
        <ele>2025.465</ele>
        <time>2021-08-06T14:21:21Z</time>
      </trkpt>
      <trkpt lat="42.6331" lon="1.72384">
        <ele>2025.119</ele>
        <time>2021-08-06T14:21:23Z</time>
      </trkpt>
      <trkpt lat="42.63312" lon="1.72384">
        <ele>2023.81</ele>
        <time>2021-08-06T14:21:25Z</time>
      </trkpt>
      <trkpt lat="42.63313" lon="1.72384">
        <ele>2023.573</ele>
        <time>2021-08-06T14:21:27Z</time>
      </trkpt>
      <trkpt lat="42.63314" lon="1.72384">
        <ele>2023.859</ele>
        <time>2021-08-06T14:21:29Z</time>
      </trkpt>
      <trkpt lat="42.63316" lon="1.72385">
        <ele>2023.497</ele>
        <time>2021-08-06T14:21:31Z</time>
      </trkpt>
      <trkpt lat="42.63317" lon="1.72385">
        <ele>2023.302</ele>
        <time>2021-08-06T14:21:33Z</time>
      </trkpt>
      <trkpt lat="42.63319" lon="1.72384">
        <ele>2022.435</ele>
        <time>2021-08-06T14:21:35Z</time>
      </trkpt>
      <trkpt lat="42.6332" lon="1.72384">
        <ele>2021.947</ele>
        <time>2021-08-06T14:21:37Z</time>
      </trkpt>
      <trkpt lat="42.63321" lon="1.72386">
        <ele>2021.946</ele>
        <time>2021-08-06T14:21:39Z</time>
      </trkpt>
      <trkpt lat="42.63322" lon="1.72386">
        <ele>2020.947</ele>
        <time>2021-08-06T14:21:41Z</time>
      </trkpt>
      <trkpt lat="42.63324" lon="1.72386">
        <ele>2020.582</ele>
        <time>2021-08-06T14:21:43Z</time>
      </trkpt>
      <trkpt lat="42.63325" lon="1.72385">
        <ele>2020.356</ele>
        <time>2021-08-06T14:21:45Z</time>
      </trkpt>
      <trkpt lat="42.63327" lon="1.72386">
        <ele>2019.239</ele>
        <time>2021-08-06T14:21:47Z</time>
      </trkpt>
      <trkpt lat="42.63328" lon="1.72386">
        <ele>2019.762</ele>
        <time>2021-08-06T14:21:49Z</time>
      </trkpt>
      <trkpt lat="42.6333" lon="1.72385">
        <ele>2019.885</ele>
        <time>2021-08-06T14:21:51Z</time>
      </trkpt>
      <trkpt lat="42.63331" lon="1.72386">
        <ele>2019.776</ele>
        <time>2021-08-06T14:21:53Z</time>
      </trkpt>
      <trkpt lat="42.63332" lon="1.72387">
        <ele>2019.162</ele>
        <time>2021-08-06T14:21:55Z</time>
      </trkpt>
      <trkpt lat="42.63334" lon="1.72388">
        <ele>2018.474</ele>
        <time>2021-08-06T14:21:57Z</time>
      </trkpt>
      <trkpt lat="42.63335" lon="1.72389">
        <ele>2018.113</ele>
        <time>2021-08-06T14:21:59Z</time>
      </trkpt>
      <trkpt lat="42.63336" lon="1.7239">
        <ele>2017.071</ele>
        <time>2021-08-06T14:22:01Z</time>
      </trkpt>
      <trkpt lat="42.63338" lon="1.72389">
        <ele>2015.302</ele>
        <time>2021-08-06T14:22:03Z</time>
      </trkpt>
      <trkpt lat="42.63339" lon="1.7239">
        <ele>2015.2</ele>
        <time>2021-08-06T14:22:05Z</time>
      </trkpt>
      <trkpt lat="42.63341" lon="1.72388">
        <ele>2014.667</ele>
        <time>2021-08-06T14:22:07Z</time>
      </trkpt>
      <trkpt lat="42.63342" lon="1.72387">
        <ele>2013.617</ele>
        <time>2021-08-06T14:22:09Z</time>
      </trkpt>
      <trkpt lat="42.63344" lon="1.72386">
        <ele>2013.07</ele>
        <time>2021-08-06T14:22:11Z</time>
      </trkpt>
      <trkpt lat="42.63345" lon="1.72385">
        <ele>2012.694</ele>
        <time>2021-08-06T14:22:13Z</time>
      </trkpt>
      <trkpt lat="42.63347" lon="1.72384">
        <ele>2011.303</ele>
        <time>2021-08-06T14:22:15Z</time>
      </trkpt>
      <trkpt lat="42.63349" lon="1.72383">
        <ele>2011.24</ele>
        <time>2021-08-06T14:22:17Z</time>
      </trkpt>
      <trkpt lat="42.63351" lon="1.72382">
        <ele>2011.897</ele>
        <time>2021-08-06T14:22:19Z</time>
      </trkpt>
      <trkpt lat="42.63352" lon="1.72381">
        <ele>2011.678</ele>
        <time>2021-08-06T14:22:21Z</time>
      </trkpt>
      <trkpt lat="42.63354" lon="1.7238">
        <ele>2011.095</ele>
        <time>2021-08-06T14:22:23Z</time>
      </trkpt>
      <trkpt lat="42.63355" lon="1.72378">
        <ele>2010.851</ele>
        <time>2021-08-06T14:22:25Z</time>
      </trkpt>
      <trkpt lat="42.63356" lon="1.72376">
        <ele>2010.102</ele>
        <time>2021-08-06T14:22:27Z</time>
      </trkpt>
      <trkpt lat="42.63357" lon="1.72376">
        <ele>2010.316</ele>
        <time>2021-08-06T14:22:29Z</time>
      </trkpt>
      <trkpt lat="42.63358" lon="1.72375">
        <ele>2010.799</ele>
        <time>2021-08-06T14:22:31Z</time>
      </trkpt>
      <trkpt lat="42.63359" lon="1.72374">
        <ele>2010.88</ele>
        <time>2021-08-06T14:22:33Z</time>
      </trkpt>
      <trkpt lat="42.6336" lon="1.72374">
        <ele>2011.345</ele>
        <time>2021-08-06T14:22:35Z</time>
      </trkpt>
      <trkpt lat="42.63361" lon="1.72374">
        <ele>2011.125</ele>
        <time>2021-08-06T14:22:37Z</time>
      </trkpt>
      <trkpt lat="42.63363" lon="1.72373">
        <ele>2010.479</ele>
        <time>2021-08-06T14:22:39Z</time>
      </trkpt>
      <trkpt lat="42.63365" lon="1.72373">
        <ele>2011.058</ele>
        <time>2021-08-06T14:22:41Z</time>
      </trkpt>
      <trkpt lat="42.63366" lon="1.72374">
        <ele>2011.386</ele>
        <time>2021-08-06T14:22:43Z</time>
      </trkpt>
      <trkpt lat="42.63367" lon="1.72375">
        <ele>2010.998</ele>
        <time>2021-08-06T14:22:45Z</time>
      </trkpt>
      <trkpt lat="42.63369" lon="1.72375">
        <ele>2010.82</ele>
        <time>2021-08-06T14:22:47Z</time>
      </trkpt>
      <trkpt lat="42.63371" lon="1.72376">
        <ele>2011.257</ele>
        <time>2021-08-06T14:22:49Z</time>
      </trkpt>
      <trkpt lat="42.63373" lon="1.72377">
        <ele>2011.289</ele>
        <time>2021-08-06T14:22:51Z</time>
      </trkpt>
      <trkpt lat="42.63375" lon="1.72375">
        <ele>2010.954</ele>
        <time>2021-08-06T14:22:53Z</time>
      </trkpt>
      <trkpt lat="42.63376" lon="1.72374">
        <ele>2011.161</ele>
        <time>2021-08-06T14:22:55Z</time>
      </trkpt>
      <trkpt lat="42.63378" lon="1.72374">
        <ele>2011.135</ele>
        <time>2021-08-06T14:22:57Z</time>
      </trkpt>
      <trkpt lat="42.63381" lon="1.72373">
        <ele>2011.587</ele>
        <time>2021-08-06T14:22:59Z</time>
      </trkpt>
      <trkpt lat="42.63383" lon="1.72374">
        <ele>2012.523</ele>
        <time>2021-08-06T14:23:01Z</time>
      </trkpt>
      <trkpt lat="42.63384" lon="1.72375">
        <ele>2012.624</ele>
        <time>2021-08-06T14:23:03Z</time>
      </trkpt>
      <trkpt lat="42.63386" lon="1.72376">
        <ele>2013.315</ele>
        <time>2021-08-06T14:23:05Z</time>
      </trkpt>
      <trkpt lat="42.63387" lon="1.72376">
        <ele>2013.068</ele>
        <time>2021-08-06T14:23:07Z</time>
      </trkpt>
      <trkpt lat="42.63389" lon="1.72376">
        <ele>2013.33</ele>
        <time>2021-08-06T14:23:09Z</time>
      </trkpt>
      <trkpt lat="42.63391" lon="1.72376">
        <ele>2013.925</ele>
        <time>2021-08-06T14:23:11Z</time>
      </trkpt>
      <trkpt lat="42.63392" lon="1.72375">
        <ele>2013.788</ele>
        <time>2021-08-06T14:23:13Z</time>
      </trkpt>
      <trkpt lat="42.63394" lon="1.72374">
        <ele>2013.127</ele>
        <time>2021-08-06T14:23:15Z</time>
      </trkpt>
      <trkpt lat="42.63396" lon="1.72374">
        <ele>2014.491</ele>
        <time>2021-08-06T14:23:17Z</time>
      </trkpt>
      <trkpt lat="42.63398" lon="1.72374">
        <ele>2014.178</ele>
        <time>2021-08-06T14:23:19Z</time>
      </trkpt>
      <trkpt lat="42.634" lon="1.72374">
        <ele>2013.524</ele>
        <time>2021-08-06T14:23:21Z</time>
      </trkpt>
      <trkpt lat="42.63401" lon="1.72373">
        <ele>2013.603</ele>
        <time>2021-08-06T14:23:23Z</time>
      </trkpt>
      <trkpt lat="42.63402" lon="1.72372">
        <ele>2014.66</ele>
        <time>2021-08-06T14:23:25Z</time>
      </trkpt>
      <trkpt lat="42.63403" lon="1.72371">
        <ele>2015.547</ele>
        <time>2021-08-06T14:23:27Z</time>
      </trkpt>
      <trkpt lat="42.63404" lon="1.72369">
        <ele>2014.115</ele>
        <time>2021-08-06T14:23:29Z</time>
      </trkpt>
      <trkpt lat="42.63405" lon="1.72368">
        <ele>2013.765</ele>
        <time>2021-08-06T14:23:31Z</time>
      </trkpt>
      <trkpt lat="42.63406" lon="1.72366">
        <ele>2013.56</ele>
        <time>2021-08-06T14:23:33Z</time>
      </trkpt>
      <trkpt lat="42.63407" lon="1.72364">
        <ele>2013.198</ele>
        <time>2021-08-06T14:23:35Z</time>
      </trkpt>
      <trkpt lat="42.63408" lon="1.72362">
        <ele>2012.345</ele>
        <time>2021-08-06T14:23:37Z</time>
      </trkpt>
      <trkpt lat="42.63409" lon="1.7236">
        <ele>2011.234</ele>
        <time>2021-08-06T14:23:39Z</time>
      </trkpt>
      <trkpt lat="42.6341" lon="1.72359">
        <ele>2010.829</ele>
        <time>2021-08-06T14:23:41Z</time>
      </trkpt>
      <trkpt lat="42.63411" lon="1.72357">
        <ele>2010.587</ele>
        <time>2021-08-06T14:23:43Z</time>
      </trkpt>
      <trkpt lat="42.63412" lon="1.72355">
        <ele>2009.628</ele>
        <time>2021-08-06T14:23:45Z</time>
      </trkpt>
      <trkpt lat="42.63414" lon="1.72354">
        <ele>2009.446</ele>
        <time>2021-08-06T14:23:47Z</time>
      </trkpt>
      <trkpt lat="42.63415" lon="1.72353">
        <ele>2009.505</ele>
        <time>2021-08-06T14:23:49Z</time>
      </trkpt>
      <trkpt lat="42.63416" lon="1.72351">
        <ele>2009.472</ele>
        <time>2021-08-06T14:23:51Z</time>
      </trkpt>
      <trkpt lat="42.63418" lon="1.7235">
        <ele>2010.4</ele>
        <time>2021-08-06T14:23:53Z</time>
      </trkpt>
      <trkpt lat="42.63419" lon="1.72349">
        <ele>2009.841</ele>
        <time>2021-08-06T14:23:55Z</time>
      </trkpt>
      <trkpt lat="42.63421" lon="1.72348">
        <ele>2009.659</ele>
        <time>2021-08-06T14:23:57Z</time>
      </trkpt>
      <trkpt lat="42.63422" lon="1.72346">
        <ele>2009.031</ele>
        <time>2021-08-06T14:23:59Z</time>
      </trkpt>
      <trkpt lat="42.63423" lon="1.72344">
        <ele>2008.569</ele>
        <time>2021-08-06T14:24:01Z</time>
      </trkpt>
      <trkpt lat="42.63425" lon="1.72343">
        <ele>2007.24</ele>
        <time>2021-08-06T14:24:03Z</time>
      </trkpt>
      <trkpt lat="42.63426" lon="1.72342">
        <ele>2008.372</ele>
        <time>2021-08-06T14:24:05Z</time>
      </trkpt>
      <trkpt lat="42.63428" lon="1.72341">
        <ele>2008.937</ele>
        <time>2021-08-06T14:24:07Z</time>
      </trkpt>
      <trkpt lat="42.6343" lon="1.72341">
        <ele>2009.401</ele>
        <time>2021-08-06T14:24:09Z</time>
      </trkpt>
      <trkpt lat="42.63432" lon="1.7234">
        <ele>2009.722</ele>
        <time>2021-08-06T14:24:11Z</time>
      </trkpt>
      <trkpt lat="42.63434" lon="1.72339">
        <ele>2008.359</ele>
        <time>2021-08-06T14:24:13Z</time>
      </trkpt>
      <trkpt lat="42.63436" lon="1.72338">
        <ele>2009.099</ele>
        <time>2021-08-06T14:24:15Z</time>
      </trkpt>
      <trkpt lat="42.63438" lon="1.72336">
        <ele>2008.732</ele>
        <time>2021-08-06T14:24:17Z</time>
      </trkpt>
      <trkpt lat="42.6344" lon="1.72335">
        <ele>2009.643</ele>
        <time>2021-08-06T14:24:19Z</time>
      </trkpt>
      <trkpt lat="42.63442" lon="1.72333">
        <ele>2008.585</ele>
        <time>2021-08-06T14:24:21Z</time>
      </trkpt>
      <trkpt lat="42.63443" lon="1.72332">
        <ele>2007.684</ele>
        <time>2021-08-06T14:24:23Z</time>
      </trkpt>
      <trkpt lat="42.63446" lon="1.72331">
        <ele>2008.388</ele>
        <time>2021-08-06T14:24:25Z</time>
      </trkpt>
      <trkpt lat="42.63448" lon="1.7233">
        <ele>2008.347</ele>
        <time>2021-08-06T14:24:27Z</time>
      </trkpt>
      <trkpt lat="42.63449" lon="1.72328">
        <ele>2006.949</ele>
        <time>2021-08-06T14:24:29Z</time>
      </trkpt>
      <trkpt lat="42.63451" lon="1.72327">
        <ele>2007.545</ele>
        <time>2021-08-06T14:24:31Z</time>
      </trkpt>
      <trkpt lat="42.63453" lon="1.72326">
        <ele>2008.612</ele>
        <time>2021-08-06T14:24:33Z</time>
      </trkpt>
      <trkpt lat="42.63455" lon="1.72325">
        <ele>2008.444</ele>
        <time>2021-08-06T14:24:35Z</time>
      </trkpt>
      <trkpt lat="42.63457" lon="1.72323">
        <ele>2008.354</ele>
        <time>2021-08-06T14:24:37Z</time>
      </trkpt>
      <trkpt lat="42.63458" lon="1.72321">
        <ele>2008.264</ele>
        <time>2021-08-06T14:24:39Z</time>
      </trkpt>
      <trkpt lat="42.6346" lon="1.72321">
        <ele>2007.873</ele>
        <time>2021-08-06T14:24:41Z</time>
      </trkpt>
      <trkpt lat="42.63462" lon="1.7232">
        <ele>2007.604</ele>
        <time>2021-08-06T14:24:43Z</time>
      </trkpt>
      <trkpt lat="42.63463" lon="1.72318">
        <ele>2008.377</ele>
        <time>2021-08-06T14:24:45Z</time>
      </trkpt>
      <trkpt lat="42.63464" lon="1.72316">
        <ele>2008.435</ele>
        <time>2021-08-06T14:24:47Z</time>
      </trkpt>
      <trkpt lat="42.63466" lon="1.72314">
        <ele>2007.252</ele>
        <time>2021-08-06T14:24:49Z</time>
      </trkpt>
      <trkpt lat="42.63467" lon="1.72313">
        <ele>2007.162</ele>
        <time>2021-08-06T14:24:51Z</time>
      </trkpt>
      <trkpt lat="42.63469" lon="1.72311">
        <ele>2006.781</ele>
        <time>2021-08-06T14:24:53Z</time>
      </trkpt>
      <trkpt lat="42.6347" lon="1.72309">
        <ele>2006.625</ele>
        <time>2021-08-06T14:24:55Z</time>
      </trkpt>
      <trkpt lat="42.63471" lon="1.72307">
        <ele>2005.971</ele>
        <time>2021-08-06T14:24:57Z</time>
      </trkpt>
      <trkpt lat="42.63472" lon="1.72305">
        <ele>2005.44</ele>
        <time>2021-08-06T14:24:59Z</time>
      </trkpt>
      <trkpt lat="42.63473" lon="1.72304">
        <ele>2005.198</ele>
        <time>2021-08-06T14:25:01Z</time>
      </trkpt>
      <trkpt lat="42.63475" lon="1.72302">
        <ele>2005.268</ele>
        <time>2021-08-06T14:25:03Z</time>
      </trkpt>
      <trkpt lat="42.63477" lon="1.72301">
        <ele>2004.818</ele>
        <time>2021-08-06T14:25:05Z</time>
      </trkpt>
      <trkpt lat="42.63477" lon="1.72298">
        <ele>2004.872</ele>
        <time>2021-08-06T14:25:07Z</time>
      </trkpt>
      <trkpt lat="42.63478" lon="1.72296">
        <ele>2004.058</ele>
        <time>2021-08-06T14:25:09Z</time>
      </trkpt>
      <trkpt lat="42.6348" lon="1.72295">
        <ele>2004.266</ele>
        <time>2021-08-06T14:25:11Z</time>
      </trkpt>
      <trkpt lat="42.63482" lon="1.72293">
        <ele>2004.129</ele>
        <time>2021-08-06T14:25:13Z</time>
      </trkpt>
      <trkpt lat="42.63484" lon="1.72293">
        <ele>2003.939</ele>
        <time>2021-08-06T14:25:15Z</time>
      </trkpt>
      <trkpt lat="42.63485" lon="1.72291">
        <ele>2004.16</ele>
        <time>2021-08-06T14:25:17Z</time>
      </trkpt>
      <trkpt lat="42.63487" lon="1.72288">
        <ele>2005.366</ele>
        <time>2021-08-06T14:25:19Z</time>
      </trkpt>
      <trkpt lat="42.63488" lon="1.72285">
        <ele>2005.743</ele>
        <time>2021-08-06T14:25:21Z</time>
      </trkpt>
      <trkpt lat="42.63489" lon="1.72282">
        <ele>2006.302</ele>
        <time>2021-08-06T14:25:23Z</time>
      </trkpt>
      <trkpt lat="42.63491" lon="1.72278">
        <ele>2007.302</ele>
        <time>2021-08-06T14:25:25Z</time>
      </trkpt>
      <trkpt lat="42.63492" lon="1.72277">
        <ele>2005.488</ele>
        <time>2021-08-06T14:25:27Z</time>
      </trkpt>
      <trkpt lat="42.63493" lon="1.72276">
        <ele>2005.318</ele>
        <time>2021-08-06T14:25:29Z</time>
      </trkpt>
      <trkpt lat="42.63494" lon="1.72274">
        <ele>2005.156</ele>
        <time>2021-08-06T14:25:31Z</time>
      </trkpt>
      <trkpt lat="42.63494" lon="1.72272">
        <ele>2004.724</ele>
        <time>2021-08-06T14:25:33Z</time>
      </trkpt>
      <trkpt lat="42.63495" lon="1.7227">
        <ele>2005.199</ele>
        <time>2021-08-06T14:25:35Z</time>
      </trkpt>
      <trkpt lat="42.63496" lon="1.72268">
        <ele>2004.212</ele>
        <time>2021-08-06T14:25:37Z</time>
      </trkpt>
      <trkpt lat="42.63497" lon="1.72267">
        <ele>2003.784</ele>
        <time>2021-08-06T14:25:39Z</time>
      </trkpt>
      <trkpt lat="42.63497" lon="1.72265">
        <ele>2003.725</ele>
        <time>2021-08-06T14:25:41Z</time>
      </trkpt>
      <trkpt lat="42.63498" lon="1.72263">
        <ele>2003.102</ele>
        <time>2021-08-06T14:25:43Z</time>
      </trkpt>
      <trkpt lat="42.63499" lon="1.72262">
        <ele>2002.812</ele>
        <time>2021-08-06T14:25:45Z</time>
      </trkpt>
      <trkpt lat="42.635" lon="1.7226">
        <ele>2002.979</ele>
        <time>2021-08-06T14:25:47Z</time>
      </trkpt>
      <trkpt lat="42.63501" lon="1.72258">
        <ele>2000.544</ele>
        <time>2021-08-06T14:25:49Z</time>
      </trkpt>
      <trkpt lat="42.63502" lon="1.72257">
        <ele>2000.203</ele>
        <time>2021-08-06T14:25:51Z</time>
      </trkpt>
      <trkpt lat="42.63503" lon="1.72255">
        <ele>1999.52</ele>
        <time>2021-08-06T14:25:53Z</time>
      </trkpt>
      <trkpt lat="42.63504" lon="1.72254">
        <ele>1998.925</ele>
        <time>2021-08-06T14:25:55Z</time>
      </trkpt>
      <trkpt lat="42.63504" lon="1.72252">
        <ele>1998.376</ele>
        <time>2021-08-06T14:25:57Z</time>
      </trkpt>
      <trkpt lat="42.63506" lon="1.7225">
        <ele>1997.215</ele>
        <time>2021-08-06T14:25:59Z</time>
      </trkpt>
      <trkpt lat="42.63506" lon="1.72249">
        <ele>1996.852</ele>
        <time>2021-08-06T14:26:01Z</time>
      </trkpt>
      <trkpt lat="42.63507" lon="1.72246">
        <ele>1996.039</ele>
        <time>2021-08-06T14:26:03Z</time>
      </trkpt>
      <trkpt lat="42.63509" lon="1.72245">
        <ele>1996.148</ele>
        <time>2021-08-06T14:26:05Z</time>
      </trkpt>
      <trkpt lat="42.63511" lon="1.72244">
        <ele>1996.226</ele>
        <time>2021-08-06T14:26:07Z</time>
      </trkpt>
      <trkpt lat="42.63512" lon="1.72243">
        <ele>1995.871</ele>
        <time>2021-08-06T14:26:09Z</time>
      </trkpt>
      <trkpt lat="42.63513" lon="1.72241">
        <ele>1995.449</ele>
        <time>2021-08-06T14:26:11Z</time>
      </trkpt>
      <trkpt lat="42.63514" lon="1.72239">
        <ele>1995.017</ele>
        <time>2021-08-06T14:26:13Z</time>
      </trkpt>
      <trkpt lat="42.63515" lon="1.72237">
        <ele>1994.337</ele>
        <time>2021-08-06T14:26:15Z</time>
      </trkpt>
      <trkpt lat="42.63515" lon="1.72235">
        <ele>1993.829</ele>
        <time>2021-08-06T14:26:17Z</time>
      </trkpt>
      <trkpt lat="42.63516" lon="1.72233">
        <ele>1992.893</ele>
        <time>2021-08-06T14:26:19Z</time>
      </trkpt>
      <trkpt lat="42.63517" lon="1.72231">
        <ele>1992.571</ele>
        <time>2021-08-06T14:26:21Z</time>
      </trkpt>
      <trkpt lat="42.63519" lon="1.72229">
        <ele>1991.967</ele>
        <time>2021-08-06T14:26:23Z</time>
      </trkpt>
      <trkpt lat="42.6352" lon="1.72229">
        <ele>1992.602</ele>
        <time>2021-08-06T14:26:25Z</time>
      </trkpt>
      <trkpt lat="42.63521" lon="1.72228">
        <ele>1992.682</ele>
        <time>2021-08-06T14:26:27Z</time>
      </trkpt>
      <trkpt lat="42.63522" lon="1.72226">
        <ele>1992.758</ele>
        <time>2021-08-06T14:26:29Z</time>
      </trkpt>
      <trkpt lat="42.63523" lon="1.72224">
        <ele>1993.699</ele>
        <time>2021-08-06T14:26:31Z</time>
      </trkpt>
      <trkpt lat="42.63524" lon="1.72223">
        <ele>1993.092</ele>
        <time>2021-08-06T14:26:33Z</time>
      </trkpt>
      <trkpt lat="42.63526" lon="1.72222">
        <ele>1993.211</ele>
        <time>2021-08-06T14:26:35Z</time>
      </trkpt>
      <trkpt lat="42.63527" lon="1.7222">
        <ele>1993.363</ele>
        <time>2021-08-06T14:26:37Z</time>
      </trkpt>
      <trkpt lat="42.63529" lon="1.72218">
        <ele>1994.333</ele>
        <time>2021-08-06T14:26:39Z</time>
      </trkpt>
      <trkpt lat="42.6353" lon="1.72216">
        <ele>1994.47</ele>
        <time>2021-08-06T14:26:41Z</time>
      </trkpt>
      <trkpt lat="42.63529" lon="1.72214">
        <ele>1994.376</ele>
        <time>2021-08-06T14:26:43Z</time>
      </trkpt>
      <trkpt lat="42.6353" lon="1.72212">
        <ele>1994.242</ele>
        <time>2021-08-06T14:26:45Z</time>
      </trkpt>
      <trkpt lat="42.6353" lon="1.7221">
        <ele>1993.759</ele>
        <time>2021-08-06T14:26:47Z</time>
      </trkpt>
      <trkpt lat="42.63532" lon="1.72209">
        <ele>1993.919</ele>
        <time>2021-08-06T14:26:49Z</time>
      </trkpt>
      <trkpt lat="42.63533" lon="1.72208">
        <ele>1994.082</ele>
        <time>2021-08-06T14:26:51Z</time>
      </trkpt>
      <trkpt lat="42.63534" lon="1.72207">
        <ele>1993.786</ele>
        <time>2021-08-06T14:26:53Z</time>
      </trkpt>
      <trkpt lat="42.63534" lon="1.72204">
        <ele>1994.166</ele>
        <time>2021-08-06T14:26:55Z</time>
      </trkpt>
      <trkpt lat="42.63534" lon="1.72202">
        <ele>1994.131</ele>
        <time>2021-08-06T14:26:57Z</time>
      </trkpt>
      <trkpt lat="42.63534" lon="1.72201">
        <ele>1994.322</ele>
        <time>2021-08-06T14:26:59Z</time>
      </trkpt>
      <trkpt lat="42.63535" lon="1.722">
        <ele>1993.809</ele>
        <time>2021-08-06T14:27:01Z</time>
      </trkpt>
      <trkpt lat="42.63535" lon="1.72198">
        <ele>1993.65</ele>
        <time>2021-08-06T14:27:03Z</time>
      </trkpt>
      <trkpt lat="42.63535" lon="1.72197">
        <ele>1993.829</ele>
        <time>2021-08-06T14:27:05Z</time>
      </trkpt>
      <trkpt lat="42.63535" lon="1.72195">
        <ele>1993.278</ele>
        <time>2021-08-06T14:27:07Z</time>
      </trkpt>
      <trkpt lat="42.63535" lon="1.72193">
        <ele>1991.876</ele>
        <time>2021-08-06T14:27:09Z</time>
      </trkpt>
      <trkpt lat="42.63535" lon="1.72192">
        <ele>1990.707</ele>
        <time>2021-08-06T14:27:11Z</time>
      </trkpt>
      <trkpt lat="42.63536" lon="1.72191">
        <ele>1990.645</ele>
        <time>2021-08-06T14:27:13Z</time>
      </trkpt>
      <trkpt lat="42.63537" lon="1.72191">
        <ele>1988.697</ele>
        <time>2021-08-06T14:27:15Z</time>
      </trkpt>
      <trkpt lat="42.63537" lon="1.72192">
        <ele>1988.7</ele>
        <time>2021-08-06T14:27:17Z</time>
      </trkpt>
      <trkpt lat="42.63537" lon="1.72192">
        <ele>1988.7</ele>
        <time>2021-08-06T14:27:19Z</time>
      </trkpt>
      <trkpt lat="42.63537" lon="1.72192">
        <ele>1988.542</ele>
        <time>2021-08-06T14:27:21Z</time>
      </trkpt>
      <trkpt lat="42.63538" lon="1.7219">
        <ele>1987.849</ele>
        <time>2021-08-06T14:27:23Z</time>
      </trkpt>
      <trkpt lat="42.6354" lon="1.7219">
        <ele>1987.086</ele>
        <time>2021-08-06T14:27:25Z</time>
      </trkpt>
      <trkpt lat="42.63541" lon="1.7219">
        <ele>1985.673</ele>
        <time>2021-08-06T14:27:27Z</time>
      </trkpt>
      <trkpt lat="42.63543" lon="1.72189">
        <ele>1986.106</ele>
        <time>2021-08-06T14:27:29Z</time>
      </trkpt>
      <trkpt lat="42.63544" lon="1.72187">
        <ele>1985.625</ele>
        <time>2021-08-06T14:27:31Z</time>
      </trkpt>
      <trkpt lat="42.63544" lon="1.72185">
        <ele>1985.761</ele>
        <time>2021-08-06T14:27:33Z</time>
      </trkpt>
      <trkpt lat="42.63545" lon="1.72183">
        <ele>1985.025</ele>
        <time>2021-08-06T14:27:35Z</time>
      </trkpt>
      <trkpt lat="42.63546" lon="1.7218">
        <ele>1983.562</ele>
        <time>2021-08-06T14:27:37Z</time>
      </trkpt>
      <trkpt lat="42.63546" lon="1.72177">
        <ele>1981.671</ele>
        <time>2021-08-06T14:27:39Z</time>
      </trkpt>
      <trkpt lat="42.63547" lon="1.72175">
        <ele>1980.444</ele>
        <time>2021-08-06T14:27:41Z</time>
      </trkpt>
      <trkpt lat="42.63548" lon="1.72173">
        <ele>1979.565</ele>
        <time>2021-08-06T14:27:43Z</time>
      </trkpt>
      <trkpt lat="42.6355" lon="1.7217">
        <ele>1980.04</ele>
        <time>2021-08-06T14:27:45Z</time>
      </trkpt>
      <trkpt lat="42.63552" lon="1.72168">
        <ele>1979.55</ele>
        <time>2021-08-06T14:27:47Z</time>
      </trkpt>
      <trkpt lat="42.63553" lon="1.72166">
        <ele>1979.876</ele>
        <time>2021-08-06T14:27:49Z</time>
      </trkpt>
      <trkpt lat="42.63555" lon="1.72164">
        <ele>1979.85</ele>
        <time>2021-08-06T14:27:51Z</time>
      </trkpt>
      <trkpt lat="42.63557" lon="1.72162">
        <ele>1980.134</ele>
        <time>2021-08-06T14:27:53Z</time>
      </trkpt>
      <trkpt lat="42.63558" lon="1.7216">
        <ele>1979.076</ele>
        <time>2021-08-06T14:27:55Z</time>
      </trkpt>
      <trkpt lat="42.6356" lon="1.72158">
        <ele>1978.957</ele>
        <time>2021-08-06T14:27:57Z</time>
      </trkpt>
      <trkpt lat="42.63562" lon="1.72156">
        <ele>1978.591</ele>
        <time>2021-08-06T14:27:59Z</time>
      </trkpt>
      <trkpt lat="42.63563" lon="1.72154">
        <ele>1978.433</ele>
        <time>2021-08-06T14:28:01Z</time>
      </trkpt>
      <trkpt lat="42.63565" lon="1.72152">
        <ele>1977.526</ele>
        <time>2021-08-06T14:28:03Z</time>
      </trkpt>
      <trkpt lat="42.63567" lon="1.72152">
        <ele>1977.861</ele>
        <time>2021-08-06T14:28:05Z</time>
      </trkpt>
      <trkpt lat="42.63568" lon="1.72151">
        <ele>1978.066</ele>
        <time>2021-08-06T14:28:07Z</time>
      </trkpt>
      <trkpt lat="42.6357" lon="1.72149">
        <ele>1977.863</ele>
        <time>2021-08-06T14:28:09Z</time>
      </trkpt>
      <trkpt lat="42.63571" lon="1.72147">
        <ele>1976.684</ele>
        <time>2021-08-06T14:28:11Z</time>
      </trkpt>
      <trkpt lat="42.63573" lon="1.72146">
        <ele>1976.944</ele>
        <time>2021-08-06T14:28:13Z</time>
      </trkpt>
      <trkpt lat="42.63574" lon="1.72144">
        <ele>1976.625</ele>
        <time>2021-08-06T14:28:15Z</time>
      </trkpt>
      <trkpt lat="42.63575" lon="1.72143">
        <ele>1976.221</ele>
        <time>2021-08-06T14:28:17Z</time>
      </trkpt>
      <trkpt lat="42.63577" lon="1.72141">
        <ele>1976.697</ele>
        <time>2021-08-06T14:28:19Z</time>
      </trkpt>
      <trkpt lat="42.63578" lon="1.72139">
        <ele>1976.714</ele>
        <time>2021-08-06T14:28:21Z</time>
      </trkpt>
      <trkpt lat="42.63579" lon="1.72137">
        <ele>1975.974</ele>
        <time>2021-08-06T14:28:23Z</time>
      </trkpt>
      <trkpt lat="42.6358" lon="1.72134">
        <ele>1976.052</ele>
        <time>2021-08-06T14:28:25Z</time>
      </trkpt>
      <trkpt lat="42.63581" lon="1.72133">
        <ele>1975.795</ele>
        <time>2021-08-06T14:28:27Z</time>
      </trkpt>
      <trkpt lat="42.63582" lon="1.72131">
        <ele>1974.942</ele>
        <time>2021-08-06T14:28:29Z</time>
      </trkpt>
      <trkpt lat="42.63584" lon="1.72129">
        <ele>1975.059</ele>
        <time>2021-08-06T14:28:31Z</time>
      </trkpt>
      <trkpt lat="42.63586" lon="1.72127">
        <ele>1975.174</ele>
        <time>2021-08-06T14:28:33Z</time>
      </trkpt>
      <trkpt lat="42.63587" lon="1.72125">
        <ele>1974.362</ele>
        <time>2021-08-06T14:28:35Z</time>
      </trkpt>
      <trkpt lat="42.63588" lon="1.72122">
        <ele>1973.377</ele>
        <time>2021-08-06T14:28:37Z</time>
      </trkpt>
      <trkpt lat="42.6359" lon="1.72121">
        <ele>1973.522</ele>
        <time>2021-08-06T14:28:39Z</time>
      </trkpt>
      <trkpt lat="42.63592" lon="1.7212">
        <ele>1973.512</ele>
        <time>2021-08-06T14:28:41Z</time>
      </trkpt>
      <trkpt lat="42.63594" lon="1.72118">
        <ele>1972.963</ele>
        <time>2021-08-06T14:28:43Z</time>
      </trkpt>
      <trkpt lat="42.63595" lon="1.72116">
        <ele>1972.882</ele>
        <time>2021-08-06T14:28:45Z</time>
      </trkpt>
      <trkpt lat="42.63595" lon="1.72113">
        <ele>1972.398</ele>
        <time>2021-08-06T14:28:47Z</time>
      </trkpt>
      <trkpt lat="42.63595" lon="1.7211">
        <ele>1971.662</ele>
        <time>2021-08-06T14:28:49Z</time>
      </trkpt>
      <trkpt lat="42.63596" lon="1.72108">
        <ele>1970.56</ele>
        <time>2021-08-06T14:28:51Z</time>
      </trkpt>
      <trkpt lat="42.63597" lon="1.72105">
        <ele>1970.461</ele>
        <time>2021-08-06T14:28:53Z</time>
      </trkpt>
      <trkpt lat="42.63598" lon="1.72102">
        <ele>1970.379</ele>
        <time>2021-08-06T14:28:55Z</time>
      </trkpt>
      <trkpt lat="42.63599" lon="1.72099">
        <ele>1969.3</ele>
        <time>2021-08-06T14:28:57Z</time>
      </trkpt>
      <trkpt lat="42.636" lon="1.72097">
        <ele>1969.199</ele>
        <time>2021-08-06T14:28:59Z</time>
      </trkpt>
      <trkpt lat="42.63601" lon="1.72095">
        <ele>1968.477</ele>
        <time>2021-08-06T14:29:01Z</time>
      </trkpt>
      <trkpt lat="42.63602" lon="1.72093">
        <ele>1967.833</ele>
        <time>2021-08-06T14:29:03Z</time>
      </trkpt>
      <trkpt lat="42.63604" lon="1.72092">
        <ele>1967.713</ele>
        <time>2021-08-06T14:29:05Z</time>
      </trkpt>
      <trkpt lat="42.63605" lon="1.7209">
        <ele>1967.324</ele>
        <time>2021-08-06T14:29:07Z</time>
      </trkpt>
      <trkpt lat="42.63607" lon="1.72088">
        <ele>1966.114</ele>
        <time>2021-08-06T14:29:09Z</time>
      </trkpt>
      <trkpt lat="42.63608" lon="1.72086">
        <ele>1965.926</ele>
        <time>2021-08-06T14:29:11Z</time>
      </trkpt>
      <trkpt lat="42.63609" lon="1.72083">
        <ele>1965.898</ele>
        <time>2021-08-06T14:29:13Z</time>
      </trkpt>
      <trkpt lat="42.6361" lon="1.72081">
        <ele>1965.32</ele>
        <time>2021-08-06T14:29:15Z</time>
      </trkpt>
      <trkpt lat="42.6361" lon="1.72079">
        <ele>1964.598</ele>
        <time>2021-08-06T14:29:17Z</time>
      </trkpt>
      <trkpt lat="42.63611" lon="1.72076">
        <ele>1963.718</ele>
        <time>2021-08-06T14:29:19Z</time>
      </trkpt>
      <trkpt lat="42.63612" lon="1.72073">
        <ele>1963.476</ele>
        <time>2021-08-06T14:29:21Z</time>
      </trkpt>
      <trkpt lat="42.63613" lon="1.72071">
        <ele>1962.906</ele>
        <time>2021-08-06T14:29:23Z</time>
      </trkpt>
      <trkpt lat="42.63613" lon="1.72068">
        <ele>1962.733</ele>
        <time>2021-08-06T14:29:25Z</time>
      </trkpt>
      <trkpt lat="42.63616" lon="1.72066">
        <ele>1963.972</ele>
        <time>2021-08-06T14:29:27Z</time>
      </trkpt>
      <trkpt lat="42.63617" lon="1.72063">
        <ele>1963.467</ele>
        <time>2021-08-06T14:29:29Z</time>
      </trkpt>
      <trkpt lat="42.63617" lon="1.7206">
        <ele>1963.2</ele>
        <time>2021-08-06T14:29:31Z</time>
      </trkpt>
      <trkpt lat="42.63617" lon="1.72057">
        <ele>1962.379</ele>
        <time>2021-08-06T14:29:33Z</time>
      </trkpt>
      <trkpt lat="42.63618" lon="1.72055">
        <ele>1962.469</ele>
        <time>2021-08-06T14:29:35Z</time>
      </trkpt>
      <trkpt lat="42.6362" lon="1.72053">
        <ele>1962.046</ele>
        <time>2021-08-06T14:29:37Z</time>
      </trkpt>
      <trkpt lat="42.63621" lon="1.72051">
        <ele>1962.062</ele>
        <time>2021-08-06T14:29:39Z</time>
      </trkpt>
      <trkpt lat="42.63622" lon="1.72048">
        <ele>1962.193</ele>
        <time>2021-08-06T14:29:41Z</time>
      </trkpt>
      <trkpt lat="42.63623" lon="1.72046">
        <ele>1961.312</ele>
        <time>2021-08-06T14:29:43Z</time>
      </trkpt>
      <trkpt lat="42.63624" lon="1.72044">
        <ele>1961.796</ele>
        <time>2021-08-06T14:29:45Z</time>
      </trkpt>
      <trkpt lat="42.63625" lon="1.72041">
        <ele>1961.06</ele>
        <time>2021-08-06T14:29:47Z</time>
      </trkpt>
      <trkpt lat="42.63626" lon="1.72039">
        <ele>1961.368</ele>
        <time>2021-08-06T14:29:49Z</time>
      </trkpt>
      <trkpt lat="42.63628" lon="1.72038">
        <ele>1961.253</ele>
        <time>2021-08-06T14:29:51Z</time>
      </trkpt>
      <trkpt lat="42.63629" lon="1.72036">
        <ele>1960.428</ele>
        <time>2021-08-06T14:29:53Z</time>
      </trkpt>
      <trkpt lat="42.63631" lon="1.72034">
        <ele>1961.295</ele>
        <time>2021-08-06T14:29:55Z</time>
      </trkpt>
      <trkpt lat="42.63633" lon="1.72032">
        <ele>1961.634</ele>
        <time>2021-08-06T14:29:57Z</time>
      </trkpt>
      <trkpt lat="42.63634" lon="1.72031">
        <ele>1961.876</ele>
        <time>2021-08-06T14:29:59Z</time>
      </trkpt>
      <trkpt lat="42.63636" lon="1.7203">
        <ele>1961.648</ele>
        <time>2021-08-06T14:30:01Z</time>
      </trkpt>
      <trkpt lat="42.63638" lon="1.72028">
        <ele>1962.308</ele>
        <time>2021-08-06T14:30:03Z</time>
      </trkpt>
      <trkpt lat="42.6364" lon="1.72027">
        <ele>1962.24</ele>
        <time>2021-08-06T14:30:05Z</time>
      </trkpt>
      <trkpt lat="42.63642" lon="1.72025">
        <ele>1961.85</ele>
        <time>2021-08-06T14:30:07Z</time>
      </trkpt>
      <trkpt lat="42.63643" lon="1.72023">
        <ele>1961.194</ele>
        <time>2021-08-06T14:30:09Z</time>
      </trkpt>
      <trkpt lat="42.63644" lon="1.72021">
        <ele>1960.62</ele>
        <time>2021-08-06T14:30:11Z</time>
      </trkpt>
      <trkpt lat="42.63646" lon="1.72019">
        <ele>1960.517</ele>
        <time>2021-08-06T14:30:13Z</time>
      </trkpt>
      <trkpt lat="42.63647" lon="1.72017">
        <ele>1959.918</ele>
        <time>2021-08-06T14:30:15Z</time>
      </trkpt>
      <trkpt lat="42.63649" lon="1.72016">
        <ele>1959.942</ele>
        <time>2021-08-06T14:30:17Z</time>
      </trkpt>
      <trkpt lat="42.63651" lon="1.72014">
        <ele>1959.735</ele>
        <time>2021-08-06T14:30:19Z</time>
      </trkpt>
      <trkpt lat="42.63652" lon="1.72013">
        <ele>1959.606</ele>
        <time>2021-08-06T14:30:21Z</time>
      </trkpt>
      <trkpt lat="42.63653" lon="1.72011">
        <ele>1959.192</ele>
        <time>2021-08-06T14:30:23Z</time>
      </trkpt>
      <trkpt lat="42.63654" lon="1.72009">
        <ele>1958.371</ele>
        <time>2021-08-06T14:30:25Z</time>
      </trkpt>
      <trkpt lat="42.63653" lon="1.72007">
        <ele>1958.485</ele>
        <time>2021-08-06T14:30:27Z</time>
      </trkpt>
      <trkpt lat="42.63654" lon="1.72005">
        <ele>1959.117</ele>
        <time>2021-08-06T14:30:29Z</time>
      </trkpt>
      <trkpt lat="42.63655" lon="1.72002">
        <ele>1958.882</ele>
        <time>2021-08-06T14:30:31Z</time>
      </trkpt>
      <trkpt lat="42.63655" lon="1.72002">
        <ele>1958.834</ele>
        <time>2021-08-06T14:30:33Z</time>
      </trkpt>
      <trkpt lat="42.63657" lon="1.72002">
        <ele>1958.4</ele>
        <time>2021-08-06T14:30:35Z</time>
      </trkpt>
      <trkpt lat="42.63658" lon="1.72003">
        <ele>1958.602</ele>
        <time>2021-08-06T14:30:37Z</time>
      </trkpt>
      <trkpt lat="42.63659" lon="1.72004">
        <ele>1958.667</ele>
        <time>2021-08-06T14:30:39Z</time>
      </trkpt>
      <trkpt lat="42.6366" lon="1.72004">
        <ele>1958.21</ele>
        <time>2021-08-06T14:30:41Z</time>
      </trkpt>
      <trkpt lat="42.63662" lon="1.72002">
        <ele>1958.019</ele>
        <time>2021-08-06T14:30:43Z</time>
      </trkpt>
      <trkpt lat="42.63662" lon="1.72">
        <ele>1957.935</ele>
        <time>2021-08-06T14:30:45Z</time>
      </trkpt>
      <trkpt lat="42.63663" lon="1.71998">
        <ele>1956.956</ele>
        <time>2021-08-06T14:30:47Z</time>
      </trkpt>
      <trkpt lat="42.63665" lon="1.71996">
        <ele>1957.265</ele>
        <time>2021-08-06T14:30:49Z</time>
      </trkpt>
      <trkpt lat="42.63666" lon="1.71995">
        <ele>1956.935</ele>
        <time>2021-08-06T14:30:51Z</time>
      </trkpt>
      <trkpt lat="42.63667" lon="1.71993">
        <ele>1957.108</ele>
        <time>2021-08-06T14:30:53Z</time>
      </trkpt>
      <trkpt lat="42.63669" lon="1.71992">
        <ele>1957.573</ele>
        <time>2021-08-06T14:30:55Z</time>
      </trkpt>
      <trkpt lat="42.6367" lon="1.71992">
        <ele>1957.031</ele>
        <time>2021-08-06T14:30:57Z</time>
      </trkpt>
      <trkpt lat="42.63671" lon="1.71992">
        <ele>1956.194</ele>
        <time>2021-08-06T14:30:59Z</time>
      </trkpt>
      <trkpt lat="42.63672" lon="1.71991">
        <ele>1955.729</ele>
        <time>2021-08-06T14:31:01Z</time>
      </trkpt>
      <trkpt lat="42.63673" lon="1.71992">
        <ele>1955.255</ele>
        <time>2021-08-06T14:31:03Z</time>
      </trkpt>
      <trkpt lat="42.63675" lon="1.71992">
        <ele>1955.045</ele>
        <time>2021-08-06T14:31:05Z</time>
      </trkpt>
      <trkpt lat="42.63676" lon="1.71991">
        <ele>1955.623</ele>
        <time>2021-08-06T14:31:07Z</time>
      </trkpt>
      <trkpt lat="42.63677" lon="1.71991">
        <ele>1955.666</ele>
        <time>2021-08-06T14:31:09Z</time>
      </trkpt>
      <trkpt lat="42.63679" lon="1.7199">
        <ele>1955.093</ele>
        <time>2021-08-06T14:31:11Z</time>
      </trkpt>
      <trkpt lat="42.6368" lon="1.71989">
        <ele>1954.934</ele>
        <time>2021-08-06T14:31:13Z</time>
      </trkpt>
      <trkpt lat="42.63682" lon="1.71987">
        <ele>1954.629</ele>
        <time>2021-08-06T14:31:15Z</time>
      </trkpt>
      <trkpt lat="42.63683" lon="1.71987">
        <ele>1954.247</ele>
        <time>2021-08-06T14:31:17Z</time>
      </trkpt>
      <trkpt lat="42.63684" lon="1.71986">
        <ele>1953.493</ele>
        <time>2021-08-06T14:31:19Z</time>
      </trkpt>
      <trkpt lat="42.63686" lon="1.71986">
        <ele>1953.871</ele>
        <time>2021-08-06T14:31:21Z</time>
      </trkpt>
      <trkpt lat="42.63687" lon="1.71986">
        <ele>1953.525</ele>
        <time>2021-08-06T14:31:23Z</time>
      </trkpt>
      <trkpt lat="42.63689" lon="1.71986">
        <ele>1952.875</ele>
        <time>2021-08-06T14:31:25Z</time>
      </trkpt>
      <trkpt lat="42.63691" lon="1.71986">
        <ele>1952.496</ele>
        <time>2021-08-06T14:31:27Z</time>
      </trkpt>
      <trkpt lat="42.63694" lon="1.71986">
        <ele>1952.926</ele>
        <time>2021-08-06T14:31:29Z</time>
      </trkpt>
      <trkpt lat="42.63696" lon="1.71986">
        <ele>1952.669</ele>
        <time>2021-08-06T14:31:31Z</time>
      </trkpt>
      <trkpt lat="42.63699" lon="1.71985">
        <ele>1952.226</ele>
        <time>2021-08-06T14:31:33Z</time>
      </trkpt>
      <trkpt lat="42.63701" lon="1.71986">
        <ele>1951.118</ele>
        <time>2021-08-06T14:31:35Z</time>
      </trkpt>
      <trkpt lat="42.63704" lon="1.71987">
        <ele>1952.202</ele>
        <time>2021-08-06T14:31:37Z</time>
      </trkpt>
      <trkpt lat="42.63706" lon="1.71984">
        <ele>1953.538</ele>
        <time>2021-08-06T14:31:39Z</time>
      </trkpt>
      <trkpt lat="42.63708" lon="1.71981">
        <ele>1954.755</ele>
        <time>2021-08-06T14:31:41Z</time>
      </trkpt>
      <trkpt lat="42.63709" lon="1.71978">
        <ele>1957.551</ele>
        <time>2021-08-06T14:31:43Z</time>
      </trkpt>
      <trkpt lat="42.63709" lon="1.71977">
        <ele>1957.672</ele>
        <time>2021-08-06T14:31:45Z</time>
      </trkpt>
      <trkpt lat="42.63713" lon="1.71977">
        <ele>1957.235</ele>
        <time>2021-08-06T14:31:47Z</time>
      </trkpt>
      <trkpt lat="42.63714" lon="1.71976">
        <ele>1956.519</ele>
        <time>2021-08-06T14:31:49Z</time>
      </trkpt>
      <trkpt lat="42.63715" lon="1.71975">
        <ele>1956.902</ele>
        <time>2021-08-06T14:31:51Z</time>
      </trkpt>
      <trkpt lat="42.63716" lon="1.71973">
        <ele>1956.374</ele>
        <time>2021-08-06T14:31:53Z</time>
      </trkpt>
      <trkpt lat="42.63717" lon="1.71972">
        <ele>1956.016</ele>
        <time>2021-08-06T14:31:55Z</time>
      </trkpt>
      <trkpt lat="42.63718" lon="1.71972">
        <ele>1955.406</ele>
        <time>2021-08-06T14:31:57Z</time>
      </trkpt>
      <trkpt lat="42.63718" lon="1.71971">
        <ele>1955.385</ele>
        <time>2021-08-06T14:31:59Z</time>
      </trkpt>
      <trkpt lat="42.63719" lon="1.7197">
        <ele>1954.883</ele>
        <time>2021-08-06T14:32:01Z</time>
      </trkpt>
      <trkpt lat="42.63719" lon="1.71968">
        <ele>1954.552</ele>
        <time>2021-08-06T14:32:03Z</time>
      </trkpt>
      <trkpt lat="42.6372" lon="1.71967">
        <ele>1954.174</ele>
        <time>2021-08-06T14:32:05Z</time>
      </trkpt>
      <trkpt lat="42.6372" lon="1.71967">
        <ele>1953.937</ele>
        <time>2021-08-06T14:32:07Z</time>
      </trkpt>
      <trkpt lat="42.6372" lon="1.71967">
        <ele>1953.755</ele>
        <time>2021-08-06T14:32:09Z</time>
      </trkpt>
      <trkpt lat="42.63721" lon="1.71967">
        <ele>1953.222</ele>
        <time>2021-08-06T14:32:11Z</time>
      </trkpt>
      <trkpt lat="42.63721" lon="1.71966">
        <ele>1952.657</ele>
        <time>2021-08-06T14:32:13Z</time>
      </trkpt>
      <trkpt lat="42.63722" lon="1.71966">
        <ele>1951.853</ele>
        <time>2021-08-06T14:32:15Z</time>
      </trkpt>
      <trkpt lat="42.63723" lon="1.71966">
        <ele>1952.786</ele>
        <time>2021-08-06T14:32:17Z</time>
      </trkpt>
      <trkpt lat="42.63725" lon="1.71965">
        <ele>1953.271</ele>
        <time>2021-08-06T14:32:19Z</time>
      </trkpt>
      <trkpt lat="42.63725" lon="1.71964">
        <ele>1953.423</ele>
        <time>2021-08-06T14:32:21Z</time>
      </trkpt>
      <trkpt lat="42.63727" lon="1.71963">
        <ele>1952.675</ele>
        <time>2021-08-06T14:32:23Z</time>
      </trkpt>
      <trkpt lat="42.63728" lon="1.71962">
        <ele>1951.762</ele>
        <time>2021-08-06T14:32:25Z</time>
      </trkpt>
      <trkpt lat="42.63729" lon="1.71961">
        <ele>1951.124</ele>
        <time>2021-08-06T14:32:27Z</time>
      </trkpt>
      <trkpt lat="42.63731" lon="1.71959">
        <ele>1950.762</ele>
        <time>2021-08-06T14:32:29Z</time>
      </trkpt>
      <trkpt lat="42.63732" lon="1.71956">
        <ele>1950.803</ele>
        <time>2021-08-06T14:32:31Z</time>
      </trkpt>
      <trkpt lat="42.63732" lon="1.71954">
        <ele>1951.068</ele>
        <time>2021-08-06T14:32:33Z</time>
      </trkpt>
      <trkpt lat="42.63732" lon="1.71951">
        <ele>1950.448</ele>
        <time>2021-08-06T14:32:35Z</time>
      </trkpt>
      <trkpt lat="42.63731" lon="1.71949">
        <ele>1950.33</ele>
        <time>2021-08-06T14:32:37Z</time>
      </trkpt>
      <trkpt lat="42.6373" lon="1.71946">
        <ele>1949.862</ele>
        <time>2021-08-06T14:32:39Z</time>
      </trkpt>
      <trkpt lat="42.6373" lon="1.71942">
        <ele>1949.866</ele>
        <time>2021-08-06T14:32:41Z</time>
      </trkpt>
      <trkpt lat="42.6373" lon="1.71938">
        <ele>1950.064</ele>
        <time>2021-08-06T14:32:43Z</time>
      </trkpt>
      <trkpt lat="42.63731" lon="1.71935">
        <ele>1949.632</ele>
        <time>2021-08-06T14:32:45Z</time>
      </trkpt>
      <trkpt lat="42.63733" lon="1.71933">
        <ele>1949.496</ele>
        <time>2021-08-06T14:32:47Z</time>
      </trkpt>
      <trkpt lat="42.63734" lon="1.71933">
        <ele>1949.05</ele>
        <time>2021-08-06T14:32:49Z</time>
      </trkpt>
      <trkpt lat="42.63736" lon="1.71933">
        <ele>1948.394</ele>
        <time>2021-08-06T14:32:51Z</time>
      </trkpt>
      <trkpt lat="42.63738" lon="1.71932">
        <ele>1948.415</ele>
        <time>2021-08-06T14:32:53Z</time>
      </trkpt>
      <trkpt lat="42.6374" lon="1.71933">
        <ele>1948.674</ele>
        <time>2021-08-06T14:32:55Z</time>
      </trkpt>
      <trkpt lat="42.63741" lon="1.71932">
        <ele>1948.473</ele>
        <time>2021-08-06T14:32:57Z</time>
      </trkpt>
      <trkpt lat="42.63742" lon="1.7193">
        <ele>1947.69</ele>
        <time>2021-08-06T14:32:59Z</time>
      </trkpt>
      <trkpt lat="42.63743" lon="1.71929">
        <ele>1947.217</ele>
        <time>2021-08-06T14:33:01Z</time>
      </trkpt>
      <trkpt lat="42.63745" lon="1.71927">
        <ele>1946.848</ele>
        <time>2021-08-06T14:33:03Z</time>
      </trkpt>
      <trkpt lat="42.63746" lon="1.71925">
        <ele>1945.908</ele>
        <time>2021-08-06T14:33:05Z</time>
      </trkpt>
      <trkpt lat="42.63747" lon="1.71923">
        <ele>1945.117</ele>
        <time>2021-08-06T14:33:07Z</time>
      </trkpt>
      <trkpt lat="42.63749" lon="1.71921">
        <ele>1944.602</ele>
        <time>2021-08-06T14:33:09Z</time>
      </trkpt>
      <trkpt lat="42.6375" lon="1.7192">
        <ele>1944.479</ele>
        <time>2021-08-06T14:33:11Z</time>
      </trkpt>
      <trkpt lat="42.63752" lon="1.71918">
        <ele>1944.43</ele>
        <time>2021-08-06T14:33:13Z</time>
      </trkpt>
      <trkpt lat="42.63753" lon="1.71918">
        <ele>1944.17</ele>
        <time>2021-08-06T14:33:15Z</time>
      </trkpt>
      <trkpt lat="42.63755" lon="1.71919">
        <ele>1944.411</ele>
        <time>2021-08-06T14:33:17Z</time>
      </trkpt>
      <trkpt lat="42.63757" lon="1.7192">
        <ele>1945.171</ele>
        <time>2021-08-06T14:33:19Z</time>
      </trkpt>
      <trkpt lat="42.63758" lon="1.71921">
        <ele>1944.817</ele>
        <time>2021-08-06T14:33:21Z</time>
      </trkpt>
      <trkpt lat="42.6376" lon="1.71921">
        <ele>1943.832</ele>
        <time>2021-08-06T14:33:23Z</time>
      </trkpt>
      <trkpt lat="42.63761" lon="1.71922">
        <ele>1943.132</ele>
        <time>2021-08-06T14:33:25Z</time>
      </trkpt>
      <trkpt lat="42.63762" lon="1.71923">
        <ele>1943.747</ele>
        <time>2021-08-06T14:33:27Z</time>
      </trkpt>
      <trkpt lat="42.63763" lon="1.71922">
        <ele>1943.147</ele>
        <time>2021-08-06T14:33:29Z</time>
      </trkpt>
      <trkpt lat="42.63765" lon="1.71922">
        <ele>1942.695</ele>
        <time>2021-08-06T14:33:31Z</time>
      </trkpt>
      <trkpt lat="42.63767" lon="1.71921">
        <ele>1942.395</ele>
        <time>2021-08-06T14:33:33Z</time>
      </trkpt>
      <trkpt lat="42.63768" lon="1.71919">
        <ele>1942.472</ele>
        <time>2021-08-06T14:33:35Z</time>
      </trkpt>
      <trkpt lat="42.6377" lon="1.71919">
        <ele>1942.999</ele>
        <time>2021-08-06T14:33:37Z</time>
      </trkpt>
      <trkpt lat="42.63772" lon="1.71919">
        <ele>1943.515</ele>
        <time>2021-08-06T14:33:39Z</time>
      </trkpt>
      <trkpt lat="42.63773" lon="1.71919">
        <ele>1943.226</ele>
        <time>2021-08-06T14:33:41Z</time>
      </trkpt>
      <trkpt lat="42.63775" lon="1.71919">
        <ele>1944.189</ele>
        <time>2021-08-06T14:33:43Z</time>
      </trkpt>
      <trkpt lat="42.63777" lon="1.71919">
        <ele>1944.365</ele>
        <time>2021-08-06T14:33:45Z</time>
      </trkpt>
      <trkpt lat="42.63778" lon="1.71921">
        <ele>1943.566</ele>
        <time>2021-08-06T14:33:47Z</time>
      </trkpt>
      <trkpt lat="42.63778" lon="1.71921">
        <ele>1943.565</ele>
        <time>2021-08-06T14:33:49Z</time>
      </trkpt>
      <trkpt lat="42.63778" lon="1.71921">
        <ele>1943.561</ele>
        <time>2021-08-06T14:33:51Z</time>
      </trkpt>
      <trkpt lat="42.63777" lon="1.71921">
        <ele>1943.749</ele>
        <time>2021-08-06T14:33:53Z</time>
      </trkpt>
      <trkpt lat="42.63778" lon="1.71922">
        <ele>1943.439</ele>
        <time>2021-08-06T14:33:55Z</time>
      </trkpt>
      <trkpt lat="42.6378" lon="1.71921">
        <ele>1944.006</ele>
        <time>2021-08-06T14:33:57Z</time>
      </trkpt>
      <trkpt lat="42.63781" lon="1.71923">
        <ele>1943.796</ele>
        <time>2021-08-06T14:33:59Z</time>
      </trkpt>
      <trkpt lat="42.63781" lon="1.71923">
        <ele>1943.789</ele>
        <time>2021-08-06T14:34:01Z</time>
      </trkpt>
      <trkpt lat="42.63781" lon="1.71923">
        <ele>1943.79</ele>
        <time>2021-08-06T14:34:03Z</time>
      </trkpt>
      <trkpt lat="42.63781" lon="1.71924">
        <ele>1943.797</ele>
        <time>2021-08-06T14:34:05Z</time>
      </trkpt>
      <trkpt lat="42.63781" lon="1.71924">
        <ele>1943.802</ele>
        <time>2021-08-06T14:34:07Z</time>
      </trkpt>
      <trkpt lat="42.63781" lon="1.71923">
        <ele>1943.23</ele>
        <time>2021-08-06T14:34:09Z</time>
      </trkpt>
      <trkpt lat="42.63782" lon="1.71923">
        <ele>1943.001</ele>
        <time>2021-08-06T14:34:11Z</time>
      </trkpt>
      <trkpt lat="42.63782" lon="1.71922">
        <ele>1943.395</ele>
        <time>2021-08-06T14:34:13Z</time>
      </trkpt>
      <trkpt lat="42.63782" lon="1.71922">
        <ele>1943.476</ele>
        <time>2021-08-06T14:34:15Z</time>
      </trkpt>
      <trkpt lat="42.63781" lon="1.71922">
        <ele>1943.472</ele>
        <time>2021-08-06T14:34:17Z</time>
      </trkpt>
      <trkpt lat="42.63781" lon="1.71922">
        <ele>1943.461</ele>
        <time>2021-08-06T14:34:19Z</time>
      </trkpt>
      <trkpt lat="42.63782" lon="1.71922">
        <ele>1943.871</ele>
        <time>2021-08-06T14:34:21Z</time>
      </trkpt>
      <trkpt lat="42.63783" lon="1.7192">
        <ele>1943.864</ele>
        <time>2021-08-06T14:34:23Z</time>
      </trkpt>
      <trkpt lat="42.63782" lon="1.7192">
        <ele>1943.604</ele>
        <time>2021-08-06T14:34:25Z</time>
      </trkpt>
      <trkpt lat="42.63782" lon="1.7192">
        <ele>1943.61</ele>
        <time>2021-08-06T14:34:27Z</time>
      </trkpt>
      <trkpt lat="42.63781" lon="1.7192">
        <ele>1943.776</ele>
        <time>2021-08-06T14:34:29Z</time>
      </trkpt>
      <trkpt lat="42.63781" lon="1.7192">
        <ele>1943.779</ele>
        <time>2021-08-06T14:34:31Z</time>
      </trkpt>
      <trkpt lat="42.63781" lon="1.7192">
        <ele>1943.787</ele>
        <time>2021-08-06T14:34:33Z</time>
      </trkpt>
      <trkpt lat="42.63781" lon="1.7192">
        <ele>1943.783</ele>
        <time>2021-08-06T14:34:35Z</time>
      </trkpt>
      <trkpt lat="42.63781" lon="1.7192">
        <ele>1943.777</ele>
        <time>2021-08-06T14:34:37Z</time>
      </trkpt>
      <trkpt lat="42.63781" lon="1.7192">
        <ele>1943.78</ele>
        <time>2021-08-06T14:34:39Z</time>
      </trkpt>
      <trkpt lat="42.63781" lon="1.7192">
        <ele>1943.784</ele>
        <time>2021-08-06T14:34:41Z</time>
      </trkpt>
      <trkpt lat="42.63781" lon="1.7192">
        <ele>1943.791</ele>
        <time>2021-08-06T14:34:43Z</time>
      </trkpt>
      <trkpt lat="42.63781" lon="1.7192">
        <ele>1943.791</ele>
        <time>2021-08-06T14:34:45Z</time>
      </trkpt>
      <trkpt lat="42.63781" lon="1.7192">
        <ele>1943.784</ele>
        <time>2021-08-06T14:34:47Z</time>
      </trkpt>
      <trkpt lat="42.63781" lon="1.7192">
        <ele>1943.787</ele>
        <time>2021-08-06T14:34:49Z</time>
      </trkpt>
      <trkpt lat="42.63781" lon="1.7192">
        <ele>1943.778</ele>
        <time>2021-08-06T14:34:51Z</time>
      </trkpt>
      <trkpt lat="42.63781" lon="1.7192">
        <ele>1943.772</ele>
        <time>2021-08-06T14:34:53Z</time>
      </trkpt>
      <trkpt lat="42.63781" lon="1.7192">
        <ele>1943.766</ele>
        <time>2021-08-06T14:34:55Z</time>
      </trkpt>
      <trkpt lat="42.63781" lon="1.7192">
        <ele>1943.77</ele>
        <time>2021-08-06T14:34:57Z</time>
      </trkpt>
      <trkpt lat="42.63781" lon="1.7192">
        <ele>1943.78</ele>
        <time>2021-08-06T14:34:59Z</time>
      </trkpt>
      <trkpt lat="42.63781" lon="1.7192">
        <ele>1943.781</ele>
        <time>2021-08-06T14:35:01Z</time>
      </trkpt>
      <trkpt lat="42.63781" lon="1.7192">
        <ele>1943.782</ele>
        <time>2021-08-06T14:35:03Z</time>
      </trkpt>
      <trkpt lat="42.63781" lon="1.7192">
        <ele>1943.788</ele>
        <time>2021-08-06T14:35:05Z</time>
      </trkpt>
      <trkpt lat="42.63781" lon="1.7192">
        <ele>1943.782</ele>
        <time>2021-08-06T14:35:07Z</time>
      </trkpt>
      <trkpt lat="42.63781" lon="1.7192">
        <ele>1943.777</ele>
        <time>2021-08-06T14:35:09Z</time>
      </trkpt>
      <trkpt lat="42.63781" lon="1.7192">
        <ele>1943.776</ele>
        <time>2021-08-06T14:35:11Z</time>
      </trkpt>
      <trkpt lat="42.63781" lon="1.7192">
        <ele>1943.779</ele>
        <time>2021-08-06T14:35:13Z</time>
      </trkpt>
      <trkpt lat="42.63781" lon="1.7192">
        <ele>1943.781</ele>
        <time>2021-08-06T14:35:15Z</time>
      </trkpt>
      <trkpt lat="42.63781" lon="1.7192">
        <ele>1943.774</ele>
        <time>2021-08-06T14:35:17Z</time>
      </trkpt>
      <trkpt lat="42.63781" lon="1.7192">
        <ele>1943.774</ele>
        <time>2021-08-06T14:35:19Z</time>
      </trkpt>
      <trkpt lat="42.63781" lon="1.7192">
        <ele>1943.769</ele>
        <time>2021-08-06T14:35:21Z</time>
      </trkpt>
      <trkpt lat="42.63781" lon="1.7192">
        <ele>1943.75</ele>
        <time>2021-08-06T14:35:23Z</time>
      </trkpt>
      <trkpt lat="42.63781" lon="1.7192">
        <ele>1943.755</ele>
        <time>2021-08-06T14:35:25Z</time>
      </trkpt>
      <trkpt lat="42.63781" lon="1.7192">
        <ele>1943.753</ele>
        <time>2021-08-06T14:35:27Z</time>
      </trkpt>
      <trkpt lat="42.63781" lon="1.7192">
        <ele>1943.753</ele>
        <time>2021-08-06T14:35:29Z</time>
      </trkpt>
      <trkpt lat="42.63781" lon="1.7192">
        <ele>1943.755</ele>
        <time>2021-08-06T14:35:31Z</time>
      </trkpt>
      <trkpt lat="42.63781" lon="1.7192">
        <ele>1943.759</ele>
        <time>2021-08-06T14:35:33Z</time>
      </trkpt>
      <trkpt lat="42.63781" lon="1.7192">
        <ele>1943.767</ele>
        <time>2021-08-06T14:35:35Z</time>
      </trkpt>
      <trkpt lat="42.63781" lon="1.7192">
        <ele>1943.769</ele>
        <time>2021-08-06T14:35:37Z</time>
      </trkpt>
      <trkpt lat="42.63781" lon="1.7192">
        <ele>1943.772</ele>
        <time>2021-08-06T14:35:39Z</time>
      </trkpt>
      <trkpt lat="42.63781" lon="1.7192">
        <ele>1943.773</ele>
        <time>2021-08-06T14:35:41Z</time>
      </trkpt>
      <trkpt lat="42.63781" lon="1.7192">
        <ele>1943.408</ele>
        <time>2021-08-06T14:35:43Z</time>
      </trkpt>
      <trkpt lat="42.63781" lon="1.7192">
        <ele>1943.408</ele>
        <time>2021-08-06T14:35:45Z</time>
      </trkpt>
      <trkpt lat="42.63781" lon="1.7192">
        <ele>1943.409</ele>
        <time>2021-08-06T14:35:47Z</time>
      </trkpt>
      <trkpt lat="42.63781" lon="1.7192">
        <ele>1943.403</ele>
        <time>2021-08-06T14:35:49Z</time>
      </trkpt>
      <trkpt lat="42.63781" lon="1.7192">
        <ele>1943.404</ele>
        <time>2021-08-06T14:35:51Z</time>
      </trkpt>
      <trkpt lat="42.63781" lon="1.7192">
        <ele>1943.404</ele>
        <time>2021-08-06T14:35:53Z</time>
      </trkpt>
      <trkpt lat="42.63781" lon="1.7192">
        <ele>1943.392</ele>
        <time>2021-08-06T14:35:55Z</time>
      </trkpt>
      <trkpt lat="42.63781" lon="1.7192">
        <ele>1943.38</ele>
        <time>2021-08-06T14:35:57Z</time>
      </trkpt>
      <trkpt lat="42.63781" lon="1.7192">
        <ele>1943.376</ele>
        <time>2021-08-06T14:35:59Z</time>
      </trkpt>
      <trkpt lat="42.63781" lon="1.7192">
        <ele>1943.373</ele>
        <time>2021-08-06T14:36:01Z</time>
      </trkpt>
      <trkpt lat="42.63781" lon="1.7192">
        <ele>1943.372</ele>
        <time>2021-08-06T14:36:03Z</time>
      </trkpt>
      <trkpt lat="42.63781" lon="1.7192">
        <ele>1943.367</ele>
        <time>2021-08-06T14:36:05Z</time>
      </trkpt>
      <trkpt lat="42.63781" lon="1.7192">
        <ele>1943.364</ele>
        <time>2021-08-06T14:36:07Z</time>
      </trkpt>
      <trkpt lat="42.63781" lon="1.7192">
        <ele>1943.363</ele>
        <time>2021-08-06T14:36:09Z</time>
      </trkpt>
      <trkpt lat="42.63781" lon="1.7192">
        <ele>1943.365</ele>
        <time>2021-08-06T14:36:11Z</time>
      </trkpt>
      <trkpt lat="42.63781" lon="1.7192">
        <ele>1943.364</ele>
        <time>2021-08-06T14:36:13Z</time>
      </trkpt>
      <trkpt lat="42.63781" lon="1.7192">
        <ele>1943.366</ele>
        <time>2021-08-06T14:36:15Z</time>
      </trkpt>
      <trkpt lat="42.63781" lon="1.7192">
        <ele>1943.361</ele>
        <time>2021-08-06T14:36:17Z</time>
      </trkpt>
      <trkpt lat="42.63781" lon="1.7192">
        <ele>1943.354</ele>
        <time>2021-08-06T14:36:19Z</time>
      </trkpt>
      <trkpt lat="42.63781" lon="1.7192">
        <ele>1943.358</ele>
        <time>2021-08-06T14:36:21Z</time>
      </trkpt>
      <trkpt lat="42.63781" lon="1.7192">
        <ele>1943.358</ele>
        <time>2021-08-06T14:36:23Z</time>
      </trkpt>
      <trkpt lat="42.63781" lon="1.7192">
        <ele>1943.358</ele>
        <time>2021-08-06T14:36:25Z</time>
      </trkpt>
      <trkpt lat="42.63781" lon="1.7192">
        <ele>1943.355</ele>
        <time>2021-08-06T14:36:27Z</time>
      </trkpt>
      <trkpt lat="42.63781" lon="1.7192">
        <ele>1943.34</ele>
        <time>2021-08-06T14:36:29Z</time>
      </trkpt>
      <trkpt lat="42.63781" lon="1.7192">
        <ele>1943.34</ele>
        <time>2021-08-06T14:36:31Z</time>
      </trkpt>
      <trkpt lat="42.63781" lon="1.7192">
        <ele>1943.349</ele>
        <time>2021-08-06T14:36:33Z</time>
      </trkpt>
      <trkpt lat="42.63781" lon="1.7192">
        <ele>1943.363</ele>
        <time>2021-08-06T14:36:35Z</time>
      </trkpt>
      <trkpt lat="42.63781" lon="1.7192">
        <ele>1943.337</ele>
        <time>2021-08-06T14:36:37Z</time>
      </trkpt>
      <trkpt lat="42.63781" lon="1.7192">
        <ele>1943.331</ele>
        <time>2021-08-06T14:36:39Z</time>
      </trkpt>
      <trkpt lat="42.63781" lon="1.7192">
        <ele>1943.319</ele>
        <time>2021-08-06T14:36:41Z</time>
      </trkpt>
      <trkpt lat="42.63781" lon="1.7192">
        <ele>1943.312</ele>
        <time>2021-08-06T14:36:43Z</time>
      </trkpt>
      <trkpt lat="42.63781" lon="1.7192">
        <ele>1943.345</ele>
        <time>2021-08-06T14:36:45Z</time>
      </trkpt>
      <trkpt lat="42.63781" lon="1.7192">
        <ele>1943.325</ele>
        <time>2021-08-06T14:36:47Z</time>
      </trkpt>
      <trkpt lat="42.63781" lon="1.7192">
        <ele>1943.321</ele>
        <time>2021-08-06T14:36:49Z</time>
      </trkpt>
      <trkpt lat="42.63781" lon="1.7192">
        <ele>1943.326</ele>
        <time>2021-08-06T14:36:51Z</time>
      </trkpt>
      <trkpt lat="42.63781" lon="1.7192">
        <ele>1943.326</ele>
        <time>2021-08-06T14:36:53Z</time>
      </trkpt>
      <trkpt lat="42.63781" lon="1.7192">
        <ele>1943.329</ele>
        <time>2021-08-06T14:36:55Z</time>
      </trkpt>
      <trkpt lat="42.63781" lon="1.7192">
        <ele>1943.33</ele>
        <time>2021-08-06T14:36:57Z</time>
      </trkpt>
      <trkpt lat="42.63781" lon="1.7192">
        <ele>1943.325</ele>
        <time>2021-08-06T14:36:59Z</time>
      </trkpt>
      <trkpt lat="42.63781" lon="1.7192">
        <ele>1943.321</ele>
        <time>2021-08-06T14:37:01Z</time>
      </trkpt>
      <trkpt lat="42.63781" lon="1.7192">
        <ele>1943.32</ele>
        <time>2021-08-06T14:37:03Z</time>
      </trkpt>
      <trkpt lat="42.63781" lon="1.7192">
        <ele>1943.318</ele>
        <time>2021-08-06T14:37:05Z</time>
      </trkpt>
      <trkpt lat="42.63781" lon="1.7192">
        <ele>1943.313</ele>
        <time>2021-08-06T14:37:07Z</time>
      </trkpt>
      <trkpt lat="42.63781" lon="1.7192">
        <ele>1943.393</ele>
        <time>2021-08-06T14:37:09Z</time>
      </trkpt>
      <trkpt lat="42.63781" lon="1.7192">
        <ele>1943.406</ele>
        <time>2021-08-06T14:37:11Z</time>
      </trkpt>
      <trkpt lat="42.63781" lon="1.7192">
        <ele>1943.408</ele>
        <time>2021-08-06T14:37:13Z</time>
      </trkpt>
      <trkpt lat="42.63781" lon="1.7192">
        <ele>1943.405</ele>
        <time>2021-08-06T14:37:15Z</time>
      </trkpt>
      <trkpt lat="42.63781" lon="1.7192">
        <ele>1943.397</ele>
        <time>2021-08-06T14:37:17Z</time>
      </trkpt>
      <trkpt lat="42.63781" lon="1.7192">
        <ele>1943.394</ele>
        <time>2021-08-06T14:37:19Z</time>
      </trkpt>
      <trkpt lat="42.63781" lon="1.7192">
        <ele>1943.398</ele>
        <time>2021-08-06T14:37:21Z</time>
      </trkpt>
      <trkpt lat="42.63781" lon="1.7192">
        <ele>1943.395</ele>
        <time>2021-08-06T14:37:23Z</time>
      </trkpt>
      <trkpt lat="42.63781" lon="1.7192">
        <ele>1943.399</ele>
        <time>2021-08-06T14:37:25Z</time>
      </trkpt>
      <trkpt lat="42.63781" lon="1.7192">
        <ele>1943.4</ele>
        <time>2021-08-06T14:37:27Z</time>
      </trkpt>
      <trkpt lat="42.63781" lon="1.7192">
        <ele>1943.402</ele>
        <time>2021-08-06T14:37:29Z</time>
      </trkpt>
      <trkpt lat="42.63781" lon="1.7192">
        <ele>1943.403</ele>
        <time>2021-08-06T14:37:31Z</time>
      </trkpt>
      <trkpt lat="42.63781" lon="1.7192">
        <ele>1943.398</ele>
        <time>2021-08-06T14:37:33Z</time>
      </trkpt>
      <trkpt lat="42.63781" lon="1.7192">
        <ele>1943.381</ele>
        <time>2021-08-06T14:37:35Z</time>
      </trkpt>
      <trkpt lat="42.63781" lon="1.7192">
        <ele>1943.2</ele>
        <time>2021-08-06T14:37:37Z</time>
      </trkpt>
      <trkpt lat="42.63781" lon="1.71919">
        <ele>1942.943</ele>
        <time>2021-08-06T14:37:39Z</time>
      </trkpt>
      <trkpt lat="42.63781" lon="1.71919">
        <ele>1942.932</ele>
        <time>2021-08-06T14:37:41Z</time>
      </trkpt>
      <trkpt lat="42.63781" lon="1.71919">
        <ele>1942.915</ele>
        <time>2021-08-06T14:37:43Z</time>
      </trkpt>
      <trkpt lat="42.63781" lon="1.71919">
        <ele>1942.904</ele>
        <time>2021-08-06T14:37:45Z</time>
      </trkpt>
      <trkpt lat="42.63781" lon="1.71919">
        <ele>1942.892</ele>
        <time>2021-08-06T14:37:47Z</time>
      </trkpt>
      <trkpt lat="42.63781" lon="1.71919">
        <ele>1942.884</ele>
        <time>2021-08-06T14:37:49Z</time>
      </trkpt>
      <trkpt lat="42.63781" lon="1.71919">
        <ele>1942.886</ele>
        <time>2021-08-06T14:37:51Z</time>
      </trkpt>
      <trkpt lat="42.63781" lon="1.71919">
        <ele>1942.889</ele>
        <time>2021-08-06T14:37:53Z</time>
      </trkpt>
      <trkpt lat="42.63781" lon="1.71919">
        <ele>1943.269</ele>
        <time>2021-08-06T14:37:55Z</time>
      </trkpt>
      <trkpt lat="42.63781" lon="1.71919">
        <ele>1943.058</ele>
        <time>2021-08-06T14:37:57Z</time>
      </trkpt>
      <trkpt lat="42.63781" lon="1.71919">
        <ele>1943.047</ele>
        <time>2021-08-06T14:37:59Z</time>
      </trkpt>
      <trkpt lat="42.63781" lon="1.71919">
        <ele>1943.04</ele>
        <time>2021-08-06T14:38:01Z</time>
      </trkpt>
      <trkpt lat="42.63781" lon="1.71919">
        <ele>1943.047</ele>
        <time>2021-08-06T14:38:03Z</time>
      </trkpt>
      <trkpt lat="42.63781" lon="1.71919">
        <ele>1943.051</ele>
        <time>2021-08-06T14:38:05Z</time>
      </trkpt>
      <trkpt lat="42.63781" lon="1.71919">
        <ele>1943.039</ele>
        <time>2021-08-06T14:38:07Z</time>
      </trkpt>
      <trkpt lat="42.63781" lon="1.71919">
        <ele>1943.037</ele>
        <time>2021-08-06T14:38:09Z</time>
      </trkpt>
      <trkpt lat="42.63781" lon="1.71919">
        <ele>1943.028</ele>
        <time>2021-08-06T14:38:11Z</time>
      </trkpt>
      <trkpt lat="42.63781" lon="1.71919">
        <ele>1943.019</ele>
        <time>2021-08-06T14:38:13Z</time>
      </trkpt>
      <trkpt lat="42.63781" lon="1.71919">
        <ele>1943.007</ele>
        <time>2021-08-06T14:38:15Z</time>
      </trkpt>
      <trkpt lat="42.63781" lon="1.71919">
        <ele>1942.997</ele>
        <time>2021-08-06T14:38:17Z</time>
      </trkpt>
      <trkpt lat="42.63781" lon="1.71919">
        <ele>1942.988</ele>
        <time>2021-08-06T14:38:19Z</time>
      </trkpt>
      <trkpt lat="42.63781" lon="1.71919">
        <ele>1942.96</ele>
        <time>2021-08-06T14:38:21Z</time>
      </trkpt>
      <trkpt lat="42.63781" lon="1.71919">
        <ele>1942.959</ele>
        <time>2021-08-06T14:38:23Z</time>
      </trkpt>
      <trkpt lat="42.63781" lon="1.71919">
        <ele>1942.959</ele>
        <time>2021-08-06T14:38:25Z</time>
      </trkpt>
      <trkpt lat="42.63781" lon="1.71919">
        <ele>1942.96</ele>
        <time>2021-08-06T14:38:27Z</time>
      </trkpt>
      <trkpt lat="42.63781" lon="1.71919">
        <ele>1942.955</ele>
        <time>2021-08-06T14:38:29Z</time>
      </trkpt>
      <trkpt lat="42.63781" lon="1.71919">
        <ele>1942.965</ele>
        <time>2021-08-06T14:38:31Z</time>
      </trkpt>
      <trkpt lat="42.63781" lon="1.71919">
        <ele>1942.96</ele>
        <time>2021-08-06T14:38:33Z</time>
      </trkpt>
      <trkpt lat="42.63781" lon="1.71919">
        <ele>1942.948</ele>
        <time>2021-08-06T14:38:35Z</time>
      </trkpt>
      <trkpt lat="42.63781" lon="1.71919">
        <ele>1942.946</ele>
        <time>2021-08-06T14:38:37Z</time>
      </trkpt>
      <trkpt lat="42.63781" lon="1.71919">
        <ele>1942.809</ele>
        <time>2021-08-06T14:38:39Z</time>
      </trkpt>
      <trkpt lat="42.63781" lon="1.71919">
        <ele>1942.801</ele>
        <time>2021-08-06T14:38:41Z</time>
      </trkpt>
      <trkpt lat="42.63781" lon="1.71919">
        <ele>1942.8</ele>
        <time>2021-08-06T14:38:43Z</time>
      </trkpt>
      <trkpt lat="42.63781" lon="1.71919">
        <ele>1942.796</ele>
        <time>2021-08-06T14:38:45Z</time>
      </trkpt>
      <trkpt lat="42.63781" lon="1.71919">
        <ele>1942.8</ele>
        <time>2021-08-06T14:38:47Z</time>
      </trkpt>
      <trkpt lat="42.63781" lon="1.71919">
        <ele>1942.803</ele>
        <time>2021-08-06T14:38:49Z</time>
      </trkpt>
      <trkpt lat="42.63781" lon="1.71919">
        <ele>1942.786</ele>
        <time>2021-08-06T14:38:51Z</time>
      </trkpt>
      <trkpt lat="42.63782" lon="1.71919">
        <ele>1942.464</ele>
        <time>2021-08-06T14:38:53Z</time>
      </trkpt>
      <trkpt lat="42.63782" lon="1.71918">
        <ele>1942.276</ele>
        <time>2021-08-06T14:38:55Z</time>
      </trkpt>
      <trkpt lat="42.63783" lon="1.71917">
        <ele>1941.864</ele>
        <time>2021-08-06T14:38:57Z</time>
      </trkpt>
      <trkpt lat="42.63783" lon="1.71917">
        <ele>1942.015</ele>
        <time>2021-08-06T14:38:59Z</time>
      </trkpt>
      <trkpt lat="42.63783" lon="1.71917">
        <ele>1942.116</ele>
        <time>2021-08-06T14:39:01Z</time>
      </trkpt>
      <trkpt lat="42.63783" lon="1.71916">
        <ele>1942.11</ele>
        <time>2021-08-06T14:39:03Z</time>
      </trkpt>
      <trkpt lat="42.63783" lon="1.71916">
        <ele>1942.107</ele>
        <time>2021-08-06T14:39:05Z</time>
      </trkpt>
      <trkpt lat="42.63783" lon="1.71916">
        <ele>1942.101</ele>
        <time>2021-08-06T14:39:07Z</time>
      </trkpt>
      <trkpt lat="42.63783" lon="1.71916">
        <ele>1942.113</ele>
        <time>2021-08-06T14:39:09Z</time>
      </trkpt>
      <trkpt lat="42.63783" lon="1.71916">
        <ele>1942.122</ele>
        <time>2021-08-06T14:39:11Z</time>
      </trkpt>
      <trkpt lat="42.63783" lon="1.71916">
        <ele>1942.233</ele>
        <time>2021-08-06T14:39:13Z</time>
      </trkpt>
      <trkpt lat="42.63784" lon="1.71916">
        <ele>1941.794</ele>
        <time>2021-08-06T14:39:15Z</time>
      </trkpt>
      <trkpt lat="42.63784" lon="1.71916">
        <ele>1941.886</ele>
        <time>2021-08-06T14:39:17Z</time>
      </trkpt>
      <trkpt lat="42.63784" lon="1.71916">
        <ele>1941.871</ele>
        <time>2021-08-06T14:39:19Z</time>
      </trkpt>
      <trkpt lat="42.63784" lon="1.71916">
        <ele>1941.86</ele>
        <time>2021-08-06T14:39:21Z</time>
      </trkpt>
      <trkpt lat="42.63784" lon="1.71916">
        <ele>1941.853</ele>
        <time>2021-08-06T14:39:23Z</time>
      </trkpt>
      <trkpt lat="42.63784" lon="1.71916">
        <ele>1941.853</ele>
        <time>2021-08-06T14:39:25Z</time>
      </trkpt>
      <trkpt lat="42.63784" lon="1.71916">
        <ele>1941.85</ele>
        <time>2021-08-06T14:39:27Z</time>
      </trkpt>
      <trkpt lat="42.63784" lon="1.71916">
        <ele>1941.824</ele>
        <time>2021-08-06T14:39:29Z</time>
      </trkpt>
      <trkpt lat="42.63784" lon="1.71916">
        <ele>1941.811</ele>
        <time>2021-08-06T14:39:31Z</time>
      </trkpt>
      <trkpt lat="42.63784" lon="1.71916">
        <ele>1941.793</ele>
        <time>2021-08-06T14:39:33Z</time>
      </trkpt>
      <trkpt lat="42.63784" lon="1.71916">
        <ele>1941.796</ele>
        <time>2021-08-06T14:39:35Z</time>
      </trkpt>
      <trkpt lat="42.63784" lon="1.71916">
        <ele>1941.779</ele>
        <time>2021-08-06T14:39:37Z</time>
      </trkpt>
      <trkpt lat="42.63784" lon="1.71916">
        <ele>1941.783</ele>
        <time>2021-08-06T14:39:39Z</time>
      </trkpt>
      <trkpt lat="42.63784" lon="1.71916">
        <ele>1941.783</ele>
        <time>2021-08-06T14:39:41Z</time>
      </trkpt>
      <trkpt lat="42.63784" lon="1.71916">
        <ele>1941.691</ele>
        <time>2021-08-06T14:39:43Z</time>
      </trkpt>
      <trkpt lat="42.63784" lon="1.71916">
        <ele>1941.667</ele>
        <time>2021-08-06T14:39:45Z</time>
      </trkpt>
      <trkpt lat="42.63784" lon="1.71916">
        <ele>1941.662</ele>
        <time>2021-08-06T14:39:47Z</time>
      </trkpt>
      <trkpt lat="42.63784" lon="1.71916">
        <ele>1941.67</ele>
        <time>2021-08-06T14:39:49Z</time>
      </trkpt>
      <trkpt lat="42.63784" lon="1.71916">
        <ele>1941.655</ele>
        <time>2021-08-06T14:39:51Z</time>
      </trkpt>
      <trkpt lat="42.63784" lon="1.71916">
        <ele>1941.653</ele>
        <time>2021-08-06T14:39:53Z</time>
      </trkpt>
      <trkpt lat="42.63784" lon="1.71916">
        <ele>1941.636</ele>
        <time>2021-08-06T14:39:55Z</time>
      </trkpt>
      <trkpt lat="42.63784" lon="1.71916">
        <ele>1941.648</ele>
        <time>2021-08-06T14:39:57Z</time>
      </trkpt>
      <trkpt lat="42.63784" lon="1.71916">
        <ele>1941.631</ele>
        <time>2021-08-06T14:39:59Z</time>
      </trkpt>
      <trkpt lat="42.63784" lon="1.71916">
        <ele>1941.622</ele>
        <time>2021-08-06T14:40:01Z</time>
      </trkpt>
      <trkpt lat="42.63784" lon="1.71916">
        <ele>1941.62</ele>
        <time>2021-08-06T14:40:03Z</time>
      </trkpt>
      <trkpt lat="42.63784" lon="1.71916">
        <ele>1941.623</ele>
        <time>2021-08-06T14:40:05Z</time>
      </trkpt>
      <trkpt lat="42.63784" lon="1.71916">
        <ele>1941.616</ele>
        <time>2021-08-06T14:40:07Z</time>
      </trkpt>
      <trkpt lat="42.63784" lon="1.71916">
        <ele>1941.616</ele>
        <time>2021-08-06T14:40:09Z</time>
      </trkpt>
      <trkpt lat="42.63784" lon="1.71916">
        <ele>1941.615</ele>
        <time>2021-08-06T14:40:11Z</time>
      </trkpt>
      <trkpt lat="42.63784" lon="1.71916">
        <ele>1941.615</ele>
        <time>2021-08-06T14:40:13Z</time>
      </trkpt>
      <trkpt lat="42.63784" lon="1.71916">
        <ele>1941.616</ele>
        <time>2021-08-06T14:40:15Z</time>
      </trkpt>
      <trkpt lat="42.63784" lon="1.71916">
        <ele>1941.607</ele>
        <time>2021-08-06T14:40:17Z</time>
      </trkpt>
      <trkpt lat="42.63784" lon="1.71916">
        <ele>1941.608</ele>
        <time>2021-08-06T14:40:19Z</time>
      </trkpt>
      <trkpt lat="42.63784" lon="1.71916">
        <ele>1941.613</ele>
        <time>2021-08-06T14:40:21Z</time>
      </trkpt>
      <trkpt lat="42.63784" lon="1.71916">
        <ele>1941.606</ele>
        <time>2021-08-06T14:40:23Z</time>
      </trkpt>
      <trkpt lat="42.63784" lon="1.71916">
        <ele>1941.583</ele>
        <time>2021-08-06T14:40:25Z</time>
      </trkpt>
      <trkpt lat="42.63784" lon="1.71916">
        <ele>1941.577</ele>
        <time>2021-08-06T14:40:27Z</time>
      </trkpt>
      <trkpt lat="42.63785" lon="1.71916">
        <ele>1941.376</ele>
        <time>2021-08-06T14:40:29Z</time>
      </trkpt>
      <trkpt lat="42.63786" lon="1.71916">
        <ele>1941.401</ele>
        <time>2021-08-06T14:40:31Z</time>
      </trkpt>
      <trkpt lat="42.63787" lon="1.71915">
        <ele>1940.947</ele>
        <time>2021-08-06T14:40:33Z</time>
      </trkpt>
      <trkpt lat="42.63788" lon="1.71915">
        <ele>1940.848</ele>
        <time>2021-08-06T14:40:35Z</time>
      </trkpt>
      <trkpt lat="42.6379" lon="1.71915">
        <ele>1940.6</ele>
        <time>2021-08-06T14:40:37Z</time>
      </trkpt>
      <trkpt lat="42.63792" lon="1.71913">
        <ele>1940.984</ele>
        <time>2021-08-06T14:40:39Z</time>
      </trkpt>
      <trkpt lat="42.63793" lon="1.71912">
        <ele>1941.002</ele>
        <time>2021-08-06T14:40:41Z</time>
      </trkpt>
      <trkpt lat="42.63795" lon="1.71911">
        <ele>1940.626</ele>
        <time>2021-08-06T14:40:43Z</time>
      </trkpt>
      <trkpt lat="42.63797" lon="1.7191">
        <ele>1940.378</ele>
        <time>2021-08-06T14:40:45Z</time>
      </trkpt>
      <trkpt lat="42.63799" lon="1.71909">
        <ele>1939.602</ele>
        <time>2021-08-06T14:40:47Z</time>
      </trkpt>
      <trkpt lat="42.63801" lon="1.71907">
        <ele>1939.473</ele>
        <time>2021-08-06T14:40:49Z</time>
      </trkpt>
      <trkpt lat="42.63803" lon="1.71906">
        <ele>1939.797</ele>
        <time>2021-08-06T14:40:51Z</time>
      </trkpt>
      <trkpt lat="42.63805" lon="1.71906">
        <ele>1940.052</ele>
        <time>2021-08-06T14:40:53Z</time>
      </trkpt>
      <trkpt lat="42.63807" lon="1.71905">
        <ele>1940.255</ele>
        <time>2021-08-06T14:40:55Z</time>
      </trkpt>
      <trkpt lat="42.63809" lon="1.71904">
        <ele>1940.467</ele>
        <time>2021-08-06T14:40:57Z</time>
      </trkpt>
      <trkpt lat="42.6381" lon="1.71902">
        <ele>1941.065</ele>
        <time>2021-08-06T14:40:59Z</time>
      </trkpt>
      <trkpt lat="42.63811" lon="1.71901">
        <ele>1941.088</ele>
        <time>2021-08-06T14:41:01Z</time>
      </trkpt>
      <trkpt lat="42.63813" lon="1.719">
        <ele>1941.377</ele>
        <time>2021-08-06T14:41:03Z</time>
      </trkpt>
      <trkpt lat="42.63814" lon="1.719">
        <ele>1940.361</ele>
        <time>2021-08-06T14:41:05Z</time>
      </trkpt>
      <trkpt lat="42.63815" lon="1.71899">
        <ele>1940.879</ele>
        <time>2021-08-06T14:41:07Z</time>
      </trkpt>
      <trkpt lat="42.63817" lon="1.71898">
        <ele>1939.636</ele>
        <time>2021-08-06T14:41:09Z</time>
      </trkpt>
      <trkpt lat="42.63819" lon="1.71896">
        <ele>1939.431</ele>
        <time>2021-08-06T14:41:11Z</time>
      </trkpt>
      <trkpt lat="42.63821" lon="1.71895">
        <ele>1939.189</ele>
        <time>2021-08-06T14:41:13Z</time>
      </trkpt>
      <trkpt lat="42.63822" lon="1.71895">
        <ele>1939.143</ele>
        <time>2021-08-06T14:41:15Z</time>
      </trkpt>
      <trkpt lat="42.63823" lon="1.71894">
        <ele>1939.863</ele>
        <time>2021-08-06T14:41:17Z</time>
      </trkpt>
      <trkpt lat="42.63825" lon="1.71893">
        <ele>1939.948</ele>
        <time>2021-08-06T14:41:19Z</time>
      </trkpt>
      <trkpt lat="42.63826" lon="1.71892">
        <ele>1939.327</ele>
        <time>2021-08-06T14:41:21Z</time>
      </trkpt>
      <trkpt lat="42.63828" lon="1.71892">
        <ele>1939.661</ele>
        <time>2021-08-06T14:41:23Z</time>
      </trkpt>
      <trkpt lat="42.6383" lon="1.71891">
        <ele>1939.985</ele>
        <time>2021-08-06T14:41:25Z</time>
      </trkpt>
      <trkpt lat="42.63832" lon="1.71891">
        <ele>1940.787</ele>
        <time>2021-08-06T14:41:27Z</time>
      </trkpt>
      <trkpt lat="42.63835" lon="1.7189">
        <ele>1940.537</ele>
        <time>2021-08-06T14:41:29Z</time>
      </trkpt>
      <trkpt lat="42.63836" lon="1.71889">
        <ele>1940.429</ele>
        <time>2021-08-06T14:41:31Z</time>
      </trkpt>
      <trkpt lat="42.63837" lon="1.71888">
        <ele>1941.008</ele>
        <time>2021-08-06T14:41:33Z</time>
      </trkpt>
      <trkpt lat="42.63839" lon="1.71888">
        <ele>1940.642</ele>
        <time>2021-08-06T14:41:35Z</time>
      </trkpt>
      <trkpt lat="42.6384" lon="1.71886">
        <ele>1939.861</ele>
        <time>2021-08-06T14:41:37Z</time>
      </trkpt>
      <trkpt lat="42.63842" lon="1.71885">
        <ele>1939.377</ele>
        <time>2021-08-06T14:41:39Z</time>
      </trkpt>
      <trkpt lat="42.63844" lon="1.71883">
        <ele>1940.312</ele>
        <time>2021-08-06T14:41:41Z</time>
      </trkpt>
      <trkpt lat="42.63846" lon="1.71882">
        <ele>1940.005</ele>
        <time>2021-08-06T14:41:43Z</time>
      </trkpt>
      <trkpt lat="42.63848" lon="1.71882">
        <ele>1939.879</ele>
        <time>2021-08-06T14:41:45Z</time>
      </trkpt>
      <trkpt lat="42.6385" lon="1.71881">
        <ele>1939.545</ele>
        <time>2021-08-06T14:41:47Z</time>
      </trkpt>
      <trkpt lat="42.63852" lon="1.71881">
        <ele>1938.93</ele>
        <time>2021-08-06T14:41:49Z</time>
      </trkpt>
      <trkpt lat="42.63855" lon="1.7188">
        <ele>1939.227</ele>
        <time>2021-08-06T14:41:51Z</time>
      </trkpt>
      <trkpt lat="42.63857" lon="1.71881">
        <ele>1939.158</ele>
        <time>2021-08-06T14:41:53Z</time>
      </trkpt>
      <trkpt lat="42.63859" lon="1.71882">
        <ele>1937.799</ele>
        <time>2021-08-06T14:41:55Z</time>
      </trkpt>
      <trkpt lat="42.63862" lon="1.71883">
        <ele>1937.558</ele>
        <time>2021-08-06T14:41:57Z</time>
      </trkpt>
      <trkpt lat="42.63863" lon="1.71883">
        <ele>1937.483</ele>
        <time>2021-08-06T14:41:59Z</time>
      </trkpt>
      <trkpt lat="42.63865" lon="1.71882">
        <ele>1938.352</ele>
        <time>2021-08-06T14:42:01Z</time>
      </trkpt>
      <trkpt lat="42.63866" lon="1.71881">
        <ele>1938.746</ele>
        <time>2021-08-06T14:42:03Z</time>
      </trkpt>
      <trkpt lat="42.63868" lon="1.7188">
        <ele>1939.368</ele>
        <time>2021-08-06T14:42:05Z</time>
      </trkpt>
      <trkpt lat="42.63869" lon="1.71877">
        <ele>1939.882</ele>
        <time>2021-08-06T14:42:07Z</time>
      </trkpt>
      <trkpt lat="42.63869" lon="1.71874">
        <ele>1940.147</ele>
        <time>2021-08-06T14:42:09Z</time>
      </trkpt>
      <trkpt lat="42.6387" lon="1.71871">
        <ele>1940.048</ele>
        <time>2021-08-06T14:42:11Z</time>
      </trkpt>
      <trkpt lat="42.63871" lon="1.71869">
        <ele>1940.026</ele>
        <time>2021-08-06T14:42:13Z</time>
      </trkpt>
      <trkpt lat="42.63872" lon="1.71866">
        <ele>1939.666</ele>
        <time>2021-08-06T14:42:15Z</time>
      </trkpt>
      <trkpt lat="42.63874" lon="1.71864">
        <ele>1939.894</ele>
        <time>2021-08-06T14:42:17Z</time>
      </trkpt>
      <trkpt lat="42.63875" lon="1.71862">
        <ele>1939.462</ele>
        <time>2021-08-06T14:42:19Z</time>
      </trkpt>
      <trkpt lat="42.63877" lon="1.7186">
        <ele>1939.873</ele>
        <time>2021-08-06T14:42:21Z</time>
      </trkpt>
      <trkpt lat="42.63879" lon="1.71859">
        <ele>1938.704</ele>
        <time>2021-08-06T14:42:23Z</time>
      </trkpt>
      <trkpt lat="42.63881" lon="1.71859">
        <ele>1937.942</ele>
        <time>2021-08-06T14:42:25Z</time>
      </trkpt>
      <trkpt lat="42.63883" lon="1.71859">
        <ele>1936.829</ele>
        <time>2021-08-06T14:42:27Z</time>
      </trkpt>
      <trkpt lat="42.63884" lon="1.71859">
        <ele>1936.622</ele>
        <time>2021-08-06T14:42:29Z</time>
      </trkpt>
      <trkpt lat="42.63884" lon="1.71857">
        <ele>1935.791</ele>
        <time>2021-08-06T14:42:31Z</time>
      </trkpt>
      <trkpt lat="42.63885" lon="1.71856">
        <ele>1935.676</ele>
        <time>2021-08-06T14:42:33Z</time>
      </trkpt>
      <trkpt lat="42.63886" lon="1.71854">
        <ele>1936.067</ele>
        <time>2021-08-06T14:42:35Z</time>
      </trkpt>
      <trkpt lat="42.63888" lon="1.71852">
        <ele>1935.891</ele>
        <time>2021-08-06T14:42:37Z</time>
      </trkpt>
      <trkpt lat="42.63889" lon="1.7185">
        <ele>1935.868</ele>
        <time>2021-08-06T14:42:39Z</time>
      </trkpt>
      <trkpt lat="42.63891" lon="1.71848">
        <ele>1936.708</ele>
        <time>2021-08-06T14:42:41Z</time>
      </trkpt>
      <trkpt lat="42.63893" lon="1.71847">
        <ele>1937.436</ele>
        <time>2021-08-06T14:42:43Z</time>
      </trkpt>
      <trkpt lat="42.63896" lon="1.71847">
        <ele>1938.921</ele>
        <time>2021-08-06T14:42:45Z</time>
      </trkpt>
      <trkpt lat="42.63898" lon="1.71846">
        <ele>1938.715</ele>
        <time>2021-08-06T14:42:47Z</time>
      </trkpt>
      <trkpt lat="42.63899" lon="1.71844">
        <ele>1938.452</ele>
        <time>2021-08-06T14:42:49Z</time>
      </trkpt>
      <trkpt lat="42.63901" lon="1.71842">
        <ele>1937.491</ele>
        <time>2021-08-06T14:42:51Z</time>
      </trkpt>
      <trkpt lat="42.63903" lon="1.71841">
        <ele>1936.667</ele>
        <time>2021-08-06T14:42:53Z</time>
      </trkpt>
      <trkpt lat="42.63904" lon="1.7184">
        <ele>1936.745</ele>
        <time>2021-08-06T14:42:55Z</time>
      </trkpt>
      <trkpt lat="42.63905" lon="1.71837">
        <ele>1937.021</ele>
        <time>2021-08-06T14:42:57Z</time>
      </trkpt>
      <trkpt lat="42.63906" lon="1.71835">
        <ele>1937.093</ele>
        <time>2021-08-06T14:42:59Z</time>
      </trkpt>
      <trkpt lat="42.63907" lon="1.71833">
        <ele>1937.324</ele>
        <time>2021-08-06T14:43:01Z</time>
      </trkpt>
      <trkpt lat="42.63909" lon="1.71831">
        <ele>1937.065</ele>
        <time>2021-08-06T14:43:03Z</time>
      </trkpt>
      <trkpt lat="42.63909" lon="1.71829">
        <ele>1936.667</ele>
        <time>2021-08-06T14:43:05Z</time>
      </trkpt>
      <trkpt lat="42.6391" lon="1.71826">
        <ele>1935.894</ele>
        <time>2021-08-06T14:43:07Z</time>
      </trkpt>
      <trkpt lat="42.63912" lon="1.71823">
        <ele>1934.792</ele>
        <time>2021-08-06T14:43:09Z</time>
      </trkpt>
      <trkpt lat="42.63913" lon="1.7182">
        <ele>1933.904</ele>
        <time>2021-08-06T14:43:11Z</time>
      </trkpt>
      <trkpt lat="42.63913" lon="1.71817">
        <ele>1934.072</ele>
        <time>2021-08-06T14:43:13Z</time>
      </trkpt>
      <trkpt lat="42.63914" lon="1.71815">
        <ele>1933.865</ele>
        <time>2021-08-06T14:43:15Z</time>
      </trkpt>
      <trkpt lat="42.63916" lon="1.71812">
        <ele>1934.341</ele>
        <time>2021-08-06T14:43:17Z</time>
      </trkpt>
      <trkpt lat="42.63917" lon="1.71809">
        <ele>1934.539</ele>
        <time>2021-08-06T14:43:19Z</time>
      </trkpt>
      <trkpt lat="42.63918" lon="1.71806">
        <ele>1934.881</ele>
        <time>2021-08-06T14:43:21Z</time>
      </trkpt>
      <trkpt lat="42.63919" lon="1.71803">
        <ele>1935.053</ele>
        <time>2021-08-06T14:43:23Z</time>
      </trkpt>
      <trkpt lat="42.6392" lon="1.71801">
        <ele>1935.402</ele>
        <time>2021-08-06T14:43:25Z</time>
      </trkpt>
      <trkpt lat="42.63922" lon="1.71798">
        <ele>1934.596</ele>
        <time>2021-08-06T14:43:27Z</time>
      </trkpt>
      <trkpt lat="42.63922" lon="1.71795">
        <ele>1934.629</ele>
        <time>2021-08-06T14:43:29Z</time>
      </trkpt>
      <trkpt lat="42.63923" lon="1.71792">
        <ele>1934.249</ele>
        <time>2021-08-06T14:43:31Z</time>
      </trkpt>
      <trkpt lat="42.63923" lon="1.71788">
        <ele>1934.162</ele>
        <time>2021-08-06T14:43:33Z</time>
      </trkpt>
      <trkpt lat="42.63924" lon="1.71785">
        <ele>1933.586</ele>
        <time>2021-08-06T14:43:35Z</time>
      </trkpt>
      <trkpt lat="42.63925" lon="1.71782">
        <ele>1932.599</ele>
        <time>2021-08-06T14:43:37Z</time>
      </trkpt>
      <trkpt lat="42.63926" lon="1.71779">
        <ele>1932.387</ele>
        <time>2021-08-06T14:43:39Z</time>
      </trkpt>
      <trkpt lat="42.63927" lon="1.71776">
        <ele>1932.148</ele>
        <time>2021-08-06T14:43:41Z</time>
      </trkpt>
      <trkpt lat="42.63929" lon="1.71772">
        <ele>1932.199</ele>
        <time>2021-08-06T14:43:43Z</time>
      </trkpt>
      <trkpt lat="42.63932" lon="1.71769">
        <ele>1932.95</ele>
        <time>2021-08-06T14:43:45Z</time>
      </trkpt>
      <trkpt lat="42.63933" lon="1.71767">
        <ele>1932.947</ele>
        <time>2021-08-06T14:43:47Z</time>
      </trkpt>
      <trkpt lat="42.63935" lon="1.71764">
        <ele>1932.633</ele>
        <time>2021-08-06T14:43:49Z</time>
      </trkpt>
      <trkpt lat="42.63937" lon="1.71762">
        <ele>1932.316</ele>
        <time>2021-08-06T14:43:51Z</time>
      </trkpt>
      <trkpt lat="42.63939" lon="1.7176">
        <ele>1932.38</ele>
        <time>2021-08-06T14:43:53Z</time>
      </trkpt>
      <trkpt lat="42.63941" lon="1.71758">
        <ele>1932.406</ele>
        <time>2021-08-06T14:43:55Z</time>
      </trkpt>
      <trkpt lat="42.63942" lon="1.71755">
        <ele>1931.539</ele>
        <time>2021-08-06T14:43:57Z</time>
      </trkpt>
      <trkpt lat="42.63943" lon="1.71752">
        <ele>1931.267</ele>
        <time>2021-08-06T14:43:59Z</time>
      </trkpt>
      <trkpt lat="42.63945" lon="1.71749">
        <ele>1930.606</ele>
        <time>2021-08-06T14:44:01Z</time>
      </trkpt>
      <trkpt lat="42.63946" lon="1.71746">
        <ele>1929.864</ele>
        <time>2021-08-06T14:44:03Z</time>
      </trkpt>
      <trkpt lat="42.63947" lon="1.71743">
        <ele>1928.859</ele>
        <time>2021-08-06T14:44:05Z</time>
      </trkpt>
      <trkpt lat="42.63949" lon="1.7174">
        <ele>1928.904</ele>
        <time>2021-08-06T14:44:07Z</time>
      </trkpt>
      <trkpt lat="42.63951" lon="1.71738">
        <ele>1928.734</ele>
        <time>2021-08-06T14:44:09Z</time>
      </trkpt>
      <trkpt lat="42.63953" lon="1.71736">
        <ele>1928.462</ele>
        <time>2021-08-06T14:44:11Z</time>
      </trkpt>
      <trkpt lat="42.63956" lon="1.71734">
        <ele>1928.815</ele>
        <time>2021-08-06T14:44:13Z</time>
      </trkpt>
      <trkpt lat="42.63958" lon="1.71733">
        <ele>1929.062</ele>
        <time>2021-08-06T14:44:15Z</time>
      </trkpt>
      <trkpt lat="42.6396" lon="1.71731">
        <ele>1929.248</ele>
        <time>2021-08-06T14:44:17Z</time>
      </trkpt>
      <trkpt lat="42.63962" lon="1.7173">
        <ele>1929.307</ele>
        <time>2021-08-06T14:44:19Z</time>
      </trkpt>
      <trkpt lat="42.63964" lon="1.7173">
        <ele>1929.114</ele>
        <time>2021-08-06T14:44:21Z</time>
      </trkpt>
      <trkpt lat="42.63965" lon="1.71727">
        <ele>1929.934</ele>
        <time>2021-08-06T14:44:23Z</time>
      </trkpt>
      <trkpt lat="42.63966" lon="1.71725">
        <ele>1929.963</ele>
        <time>2021-08-06T14:44:25Z</time>
      </trkpt>
      <trkpt lat="42.63967" lon="1.71722">
        <ele>1929.959</ele>
        <time>2021-08-06T14:44:27Z</time>
      </trkpt>
      <trkpt lat="42.63967" lon="1.71719">
        <ele>1929.742</ele>
        <time>2021-08-06T14:44:29Z</time>
      </trkpt>
      <trkpt lat="42.63967" lon="1.71716">
        <ele>1929.136</ele>
        <time>2021-08-06T14:44:31Z</time>
      </trkpt>
      <trkpt lat="42.63968" lon="1.71713">
        <ele>1928.331</ele>
        <time>2021-08-06T14:44:33Z</time>
      </trkpt>
      <trkpt lat="42.63969" lon="1.7171">
        <ele>1927.952</ele>
        <time>2021-08-06T14:44:35Z</time>
      </trkpt>
      <trkpt lat="42.63969" lon="1.71707">
        <ele>1927.47</ele>
        <time>2021-08-06T14:44:37Z</time>
      </trkpt>
      <trkpt lat="42.6397" lon="1.71704">
        <ele>1926.731</ele>
        <time>2021-08-06T14:44:39Z</time>
      </trkpt>
      <trkpt lat="42.6397" lon="1.717">
        <ele>1926.287</ele>
        <time>2021-08-06T14:44:41Z</time>
      </trkpt>
      <trkpt lat="42.63971" lon="1.71697">
        <ele>1925.707</ele>
        <time>2021-08-06T14:44:43Z</time>
      </trkpt>
      <trkpt lat="42.63972" lon="1.71694">
        <ele>1925.795</ele>
        <time>2021-08-06T14:44:45Z</time>
      </trkpt>
      <trkpt lat="42.63973" lon="1.71691">
        <ele>1925.902</ele>
        <time>2021-08-06T14:44:47Z</time>
      </trkpt>
      <trkpt lat="42.63974" lon="1.71688">
        <ele>1926.21</ele>
        <time>2021-08-06T14:44:49Z</time>
      </trkpt>
      <trkpt lat="42.63974" lon="1.71684">
        <ele>1925.699</ele>
        <time>2021-08-06T14:44:51Z</time>
      </trkpt>
      <trkpt lat="42.63975" lon="1.71681">
        <ele>1924.997</ele>
        <time>2021-08-06T14:44:53Z</time>
      </trkpt>
      <trkpt lat="42.63976" lon="1.71678">
        <ele>1924.725</ele>
        <time>2021-08-06T14:44:55Z</time>
      </trkpt>
      <trkpt lat="42.63977" lon="1.71676">
        <ele>1924.536</ele>
        <time>2021-08-06T14:44:57Z</time>
      </trkpt>
      <trkpt lat="42.63979" lon="1.71673">
        <ele>1924.103</ele>
        <time>2021-08-06T14:44:59Z</time>
      </trkpt>
      <trkpt lat="42.6398" lon="1.7167">
        <ele>1924.594</ele>
        <time>2021-08-06T14:45:01Z</time>
      </trkpt>
      <trkpt lat="42.63982" lon="1.71669">
        <ele>1924.848</ele>
        <time>2021-08-06T14:45:03Z</time>
      </trkpt>
      <trkpt lat="42.63985" lon="1.71667">
        <ele>1924.958</ele>
        <time>2021-08-06T14:45:05Z</time>
      </trkpt>
      <trkpt lat="42.63986" lon="1.71664">
        <ele>1925.346</ele>
        <time>2021-08-06T14:45:07Z</time>
      </trkpt>
      <trkpt lat="42.63986" lon="1.71661">
        <ele>1925.252</ele>
        <time>2021-08-06T14:45:09Z</time>
      </trkpt>
      <trkpt lat="42.63987" lon="1.71658">
        <ele>1925.835</ele>
        <time>2021-08-06T14:45:11Z</time>
      </trkpt>
      <trkpt lat="42.63988" lon="1.71656">
        <ele>1925.372</ele>
        <time>2021-08-06T14:45:13Z</time>
      </trkpt>
      <trkpt lat="42.63989" lon="1.71653">
        <ele>1924.924</ele>
        <time>2021-08-06T14:45:15Z</time>
      </trkpt>
      <trkpt lat="42.6399" lon="1.71649">
        <ele>1925.028</ele>
        <time>2021-08-06T14:45:17Z</time>
      </trkpt>
      <trkpt lat="42.63992" lon="1.71646">
        <ele>1924.296</ele>
        <time>2021-08-06T14:45:19Z</time>
      </trkpt>
      <trkpt lat="42.63994" lon="1.71643">
        <ele>1923.84</ele>
        <time>2021-08-06T14:45:21Z</time>
      </trkpt>
      <trkpt lat="42.63995" lon="1.71639">
        <ele>1923.704</ele>
        <time>2021-08-06T14:45:23Z</time>
      </trkpt>
      <trkpt lat="42.63996" lon="1.71637">
        <ele>1922.757</ele>
        <time>2021-08-06T14:45:25Z</time>
      </trkpt>
      <trkpt lat="42.63997" lon="1.71634">
        <ele>1922.991</ele>
        <time>2021-08-06T14:45:27Z</time>
      </trkpt>
      <trkpt lat="42.63998" lon="1.71631">
        <ele>1923.066</ele>
        <time>2021-08-06T14:45:29Z</time>
      </trkpt>
      <trkpt lat="42.64" lon="1.71628">
        <ele>1922.738</ele>
        <time>2021-08-06T14:45:31Z</time>
      </trkpt>
      <trkpt lat="42.64001" lon="1.71626">
        <ele>1923.262</ele>
        <time>2021-08-06T14:45:33Z</time>
      </trkpt>
      <trkpt lat="42.64003" lon="1.71623">
        <ele>1922.747</ele>
        <time>2021-08-06T14:45:35Z</time>
      </trkpt>
      <trkpt lat="42.64004" lon="1.71621">
        <ele>1922.062</ele>
        <time>2021-08-06T14:45:37Z</time>
      </trkpt>
      <trkpt lat="42.64006" lon="1.71619">
        <ele>1921.686</ele>
        <time>2021-08-06T14:45:39Z</time>
      </trkpt>
      <trkpt lat="42.64008" lon="1.71617">
        <ele>1921.341</ele>
        <time>2021-08-06T14:45:41Z</time>
      </trkpt>
      <trkpt lat="42.6401" lon="1.71615">
        <ele>1921.159</ele>
        <time>2021-08-06T14:45:43Z</time>
      </trkpt>
      <trkpt lat="42.64012" lon="1.71613">
        <ele>1921.52</ele>
        <time>2021-08-06T14:45:45Z</time>
      </trkpt>
      <trkpt lat="42.64012" lon="1.7161">
        <ele>1921.932</ele>
        <time>2021-08-06T14:45:47Z</time>
      </trkpt>
      <trkpt lat="42.64013" lon="1.71607">
        <ele>1922.461</ele>
        <time>2021-08-06T14:45:49Z</time>
      </trkpt>
      <trkpt lat="42.64014" lon="1.71606">
        <ele>1922.474</ele>
        <time>2021-08-06T14:45:51Z</time>
      </trkpt>
      <trkpt lat="42.64016" lon="1.71605">
        <ele>1923.218</ele>
        <time>2021-08-06T14:45:53Z</time>
      </trkpt>
      <trkpt lat="42.64018" lon="1.71604">
        <ele>1922.753</ele>
        <time>2021-08-06T14:45:55Z</time>
      </trkpt>
      <trkpt lat="42.64022" lon="1.71603">
        <ele>1921.32</ele>
        <time>2021-08-06T14:45:57Z</time>
      </trkpt>
      <trkpt lat="42.64025" lon="1.716">
        <ele>1921.98</ele>
        <time>2021-08-06T14:45:59Z</time>
      </trkpt>
      <trkpt lat="42.64028" lon="1.71598">
        <ele>1920.044</ele>
        <time>2021-08-06T14:46:01Z</time>
      </trkpt>
      <trkpt lat="42.6403" lon="1.71596">
        <ele>1920.107</ele>
        <time>2021-08-06T14:46:03Z</time>
      </trkpt>
      <trkpt lat="42.64032" lon="1.71593">
        <ele>1924.385</ele>
        <time>2021-08-06T14:46:05Z</time>
      </trkpt>
      <trkpt lat="42.64032" lon="1.71589">
        <ele>1925.242</ele>
        <time>2021-08-06T14:46:07Z</time>
      </trkpt>
      <trkpt lat="42.64032" lon="1.71585">
        <ele>1927.065</ele>
        <time>2021-08-06T14:46:09Z</time>
      </trkpt>
      <trkpt lat="42.6403" lon="1.71582">
        <ele>1927.134</ele>
        <time>2021-08-06T14:46:11Z</time>
      </trkpt>
      <trkpt lat="42.64029" lon="1.7158">
        <ele>1927.102</ele>
        <time>2021-08-06T14:46:13Z</time>
      </trkpt>
      <trkpt lat="42.64028" lon="1.71577">
        <ele>1927.059</ele>
        <time>2021-08-06T14:46:15Z</time>
      </trkpt>
      <trkpt lat="42.64026" lon="1.71574">
        <ele>1927.586</ele>
        <time>2021-08-06T14:46:17Z</time>
      </trkpt>
      <trkpt lat="42.64025" lon="1.71572">
        <ele>1926.28</ele>
        <time>2021-08-06T14:46:19Z</time>
      </trkpt>
      <trkpt lat="42.64024" lon="1.71569">
        <ele>1925.825</ele>
        <time>2021-08-06T14:46:21Z</time>
      </trkpt>
      <trkpt lat="42.64024" lon="1.71567">
        <ele>1925.986</ele>
        <time>2021-08-06T14:46:23Z</time>
      </trkpt>
      <trkpt lat="42.64024" lon="1.71566">
        <ele>1924.714</ele>
        <time>2021-08-06T14:46:25Z</time>
      </trkpt>
      <trkpt lat="42.64025" lon="1.71564">
        <ele>1926.126</ele>
        <time>2021-08-06T14:46:27Z</time>
      </trkpt>
      <trkpt lat="42.64026" lon="1.71561">
        <ele>1925.848</ele>
        <time>2021-08-06T14:46:29Z</time>
      </trkpt>
      <trkpt lat="42.64026" lon="1.71559">
        <ele>1925.824</ele>
        <time>2021-08-06T14:46:31Z</time>
      </trkpt>
      <trkpt lat="42.64026" lon="1.71556">
        <ele>1925.26</ele>
        <time>2021-08-06T14:46:33Z</time>
      </trkpt>
      <trkpt lat="42.64025" lon="1.71554">
        <ele>1924.831</ele>
        <time>2021-08-06T14:46:35Z</time>
      </trkpt>
      <trkpt lat="42.64025" lon="1.71551">
        <ele>1923.949</ele>
        <time>2021-08-06T14:46:37Z</time>
      </trkpt>
      <trkpt lat="42.64026" lon="1.71549">
        <ele>1923.994</ele>
        <time>2021-08-06T14:46:39Z</time>
      </trkpt>
      <trkpt lat="42.64028" lon="1.71547">
        <ele>1923.567</ele>
        <time>2021-08-06T14:46:41Z</time>
      </trkpt>
      <trkpt lat="42.6403" lon="1.71546">
        <ele>1923.187</ele>
        <time>2021-08-06T14:46:43Z</time>
      </trkpt>
      <trkpt lat="42.64031" lon="1.71544">
        <ele>1922.49</ele>
        <time>2021-08-06T14:46:45Z</time>
      </trkpt>
      <trkpt lat="42.64032" lon="1.71541">
        <ele>1921.862</ele>
        <time>2021-08-06T14:46:47Z</time>
      </trkpt>
      <trkpt lat="42.64032" lon="1.71538">
        <ele>1920.717</ele>
        <time>2021-08-06T14:46:49Z</time>
      </trkpt>
      <trkpt lat="42.64033" lon="1.71535">
        <ele>1920.047</ele>
        <time>2021-08-06T14:46:51Z</time>
      </trkpt>
      <trkpt lat="42.64033" lon="1.71532">
        <ele>1918.994</ele>
        <time>2021-08-06T14:46:53Z</time>
      </trkpt>
      <trkpt lat="42.64033" lon="1.71529">
        <ele>1918.553</ele>
        <time>2021-08-06T14:46:55Z</time>
      </trkpt>
      <trkpt lat="42.64032" lon="1.71526">
        <ele>1918.23</ele>
        <time>2021-08-06T14:46:57Z</time>
      </trkpt>
      <trkpt lat="42.64032" lon="1.71522">
        <ele>1918.42</ele>
        <time>2021-08-06T14:46:59Z</time>
      </trkpt>
      <trkpt lat="42.64033" lon="1.71519">
        <ele>1918.426</ele>
        <time>2021-08-06T14:47:01Z</time>
      </trkpt>
      <trkpt lat="42.64033" lon="1.71515">
        <ele>1918.269</ele>
        <time>2021-08-06T14:47:03Z</time>
      </trkpt>
      <trkpt lat="42.64033" lon="1.71511">
        <ele>1917.952</ele>
        <time>2021-08-06T14:47:05Z</time>
      </trkpt>
      <trkpt lat="42.64033" lon="1.71508">
        <ele>1917.898</ele>
        <time>2021-08-06T14:47:07Z</time>
      </trkpt>
      <trkpt lat="42.64033" lon="1.71505">
        <ele>1916.657</ele>
        <time>2021-08-06T14:47:09Z</time>
      </trkpt>
      <trkpt lat="42.64033" lon="1.71502">
        <ele>1916.199</ele>
        <time>2021-08-06T14:47:11Z</time>
      </trkpt>
      <trkpt lat="42.64033" lon="1.71499">
        <ele>1915.695</ele>
        <time>2021-08-06T14:47:13Z</time>
      </trkpt>
      <trkpt lat="42.64034" lon="1.71495">
        <ele>1915.075</ele>
        <time>2021-08-06T14:47:15Z</time>
      </trkpt>
      <trkpt lat="42.64035" lon="1.71493">
        <ele>1915.748</ele>
        <time>2021-08-06T14:47:17Z</time>
      </trkpt>
      <trkpt lat="42.64036" lon="1.71489">
        <ele>1915.852</ele>
        <time>2021-08-06T14:47:19Z</time>
      </trkpt>
      <trkpt lat="42.64036" lon="1.71486">
        <ele>1915.971</ele>
        <time>2021-08-06T14:47:21Z</time>
      </trkpt>
      <trkpt lat="42.64036" lon="1.71482">
        <ele>1917.133</ele>
        <time>2021-08-06T14:47:23Z</time>
      </trkpt>
      <trkpt lat="42.64036" lon="1.71479">
        <ele>1916.919</ele>
        <time>2021-08-06T14:47:25Z</time>
      </trkpt>
      <trkpt lat="42.64036" lon="1.71476">
        <ele>1916.48</ele>
        <time>2021-08-06T14:47:27Z</time>
      </trkpt>
      <trkpt lat="42.64037" lon="1.71473">
        <ele>1916.47</ele>
        <time>2021-08-06T14:47:29Z</time>
      </trkpt>
      <trkpt lat="42.64038" lon="1.7147">
        <ele>1916.368</ele>
        <time>2021-08-06T14:47:31Z</time>
      </trkpt>
      <trkpt lat="42.64039" lon="1.71466">
        <ele>1916.476</ele>
        <time>2021-08-06T14:47:33Z</time>
      </trkpt>
      <trkpt lat="42.64039" lon="1.71463">
        <ele>1915.935</ele>
        <time>2021-08-06T14:47:35Z</time>
      </trkpt>
      <trkpt lat="42.6404" lon="1.7146">
        <ele>1916.262</ele>
        <time>2021-08-06T14:47:37Z</time>
      </trkpt>
      <trkpt lat="42.64041" lon="1.71457">
        <ele>1916.035</ele>
        <time>2021-08-06T14:47:39Z</time>
      </trkpt>
      <trkpt lat="42.64042" lon="1.71454">
        <ele>1916.093</ele>
        <time>2021-08-06T14:47:41Z</time>
      </trkpt>
      <trkpt lat="42.64043" lon="1.7145">
        <ele>1915.141</ele>
        <time>2021-08-06T14:47:43Z</time>
      </trkpt>
      <trkpt lat="42.64043" lon="1.71447">
        <ele>1914.785</ele>
        <time>2021-08-06T14:47:45Z</time>
      </trkpt>
      <trkpt lat="42.64044" lon="1.71444">
        <ele>1914.814</ele>
        <time>2021-08-06T14:47:47Z</time>
      </trkpt>
      <trkpt lat="42.64045" lon="1.7144">
        <ele>1915.486</ele>
        <time>2021-08-06T14:47:49Z</time>
      </trkpt>
      <trkpt lat="42.64045" lon="1.71437">
        <ele>1916.034</ele>
        <time>2021-08-06T14:47:51Z</time>
      </trkpt>
      <trkpt lat="42.64046" lon="1.71433">
        <ele>1916.441</ele>
        <time>2021-08-06T14:47:53Z</time>
      </trkpt>
      <trkpt lat="42.64046" lon="1.7143">
        <ele>1915.5</ele>
        <time>2021-08-06T14:47:55Z</time>
      </trkpt>
      <trkpt lat="42.64046" lon="1.71426">
        <ele>1915.053</ele>
        <time>2021-08-06T14:47:57Z</time>
      </trkpt>
      <trkpt lat="42.64045" lon="1.71422">
        <ele>1914.414</ele>
        <time>2021-08-06T14:47:59Z</time>
      </trkpt>
      <trkpt lat="42.64046" lon="1.71419">
        <ele>1914.736</ele>
        <time>2021-08-06T14:48:01Z</time>
      </trkpt>
      <trkpt lat="42.64046" lon="1.71416">
        <ele>1914.798</ele>
        <time>2021-08-06T14:48:03Z</time>
      </trkpt>
      <trkpt lat="42.64047" lon="1.71413">
        <ele>1917.276</ele>
        <time>2021-08-06T14:48:05Z</time>
      </trkpt>
      <trkpt lat="42.64049" lon="1.71412">
        <ele>1916.478</ele>
        <time>2021-08-06T14:48:07Z</time>
      </trkpt>
      <trkpt lat="42.6405" lon="1.71409">
        <ele>1915.908</ele>
        <time>2021-08-06T14:48:09Z</time>
      </trkpt>
      <trkpt lat="42.64051" lon="1.71408">
        <ele>1915.524</ele>
        <time>2021-08-06T14:48:11Z</time>
      </trkpt>
      <trkpt lat="42.64052" lon="1.71406">
        <ele>1914.999</ele>
        <time>2021-08-06T14:48:13Z</time>
      </trkpt>
      <trkpt lat="42.64052" lon="1.71403">
        <ele>1915.626</ele>
        <time>2021-08-06T14:48:15Z</time>
      </trkpt>
      <trkpt lat="42.64052" lon="1.71401">
        <ele>1915.067</ele>
        <time>2021-08-06T14:48:17Z</time>
      </trkpt>
      <trkpt lat="42.64053" lon="1.71399">
        <ele>1915.232</ele>
        <time>2021-08-06T14:48:19Z</time>
      </trkpt>
      <trkpt lat="42.64054" lon="1.71397">
        <ele>1915.089</ele>
        <time>2021-08-06T14:48:21Z</time>
      </trkpt>
      <trkpt lat="42.64055" lon="1.71395">
        <ele>1915.533</ele>
        <time>2021-08-06T14:48:23Z</time>
      </trkpt>
      <trkpt lat="42.64055" lon="1.71392">
        <ele>1916.47</ele>
        <time>2021-08-06T14:48:25Z</time>
      </trkpt>
      <trkpt lat="42.64056" lon="1.7139">
        <ele>1916.513</ele>
        <time>2021-08-06T14:48:27Z</time>
      </trkpt>
      <trkpt lat="42.64056" lon="1.71387">
        <ele>1915.357</ele>
        <time>2021-08-06T14:48:29Z</time>
      </trkpt>
      <trkpt lat="42.64056" lon="1.71385">
        <ele>1915.17</ele>
        <time>2021-08-06T14:48:31Z</time>
      </trkpt>
      <trkpt lat="42.64057" lon="1.71382">
        <ele>1914.776</ele>
        <time>2021-08-06T14:48:33Z</time>
      </trkpt>
      <trkpt lat="42.64058" lon="1.71378">
        <ele>1914.271</ele>
        <time>2021-08-06T14:48:35Z</time>
      </trkpt>
      <trkpt lat="42.64059" lon="1.71374">
        <ele>1915.045</ele>
        <time>2021-08-06T14:48:37Z</time>
      </trkpt>
      <trkpt lat="42.64059" lon="1.7137">
        <ele>1915.052</ele>
        <time>2021-08-06T14:48:39Z</time>
      </trkpt>
      <trkpt lat="42.6406" lon="1.71368">
        <ele>1914.586</ele>
        <time>2021-08-06T14:48:41Z</time>
      </trkpt>
      <trkpt lat="42.6406" lon="1.71365">
        <ele>1914.245</ele>
        <time>2021-08-06T14:48:43Z</time>
      </trkpt>
      <trkpt lat="42.64061" lon="1.71362">
        <ele>1914.492</ele>
        <time>2021-08-06T14:48:45Z</time>
      </trkpt>
      <trkpt lat="42.64061" lon="1.7136">
        <ele>1914.85</ele>
        <time>2021-08-06T14:48:47Z</time>
      </trkpt>
      <trkpt lat="42.64061" lon="1.71356">
        <ele>1914.07</ele>
        <time>2021-08-06T14:48:49Z</time>
      </trkpt>
      <trkpt lat="42.64061" lon="1.71353">
        <ele>1914.21</ele>
        <time>2021-08-06T14:48:51Z</time>
      </trkpt>
      <trkpt lat="42.64062" lon="1.7135">
        <ele>1913.988</ele>
        <time>2021-08-06T14:48:53Z</time>
      </trkpt>
      <trkpt lat="42.64062" lon="1.71348">
        <ele>1913.491</ele>
        <time>2021-08-06T14:48:55Z</time>
      </trkpt>
      <trkpt lat="42.64062" lon="1.71344">
        <ele>1912.488</ele>
        <time>2021-08-06T14:48:57Z</time>
      </trkpt>
      <trkpt lat="42.64064" lon="1.71342">
        <ele>1911.958</ele>
        <time>2021-08-06T14:48:59Z</time>
      </trkpt>
      <trkpt lat="42.64066" lon="1.71339">
        <ele>1912.956</ele>
        <time>2021-08-06T14:49:01Z</time>
      </trkpt>
      <trkpt lat="42.64069" lon="1.71336">
        <ele>1914.53</ele>
        <time>2021-08-06T14:49:03Z</time>
      </trkpt>
      <trkpt lat="42.64071" lon="1.71332">
        <ele>1915.193</ele>
        <time>2021-08-06T14:49:05Z</time>
      </trkpt>
      <trkpt lat="42.64072" lon="1.7133">
        <ele>1915.4</ele>
        <time>2021-08-06T14:49:07Z</time>
      </trkpt>
      <trkpt lat="42.64073" lon="1.71327">
        <ele>1915</ele>
        <time>2021-08-06T14:49:09Z</time>
      </trkpt>
      <trkpt lat="42.64074" lon="1.71324">
        <ele>1915.388</ele>
        <time>2021-08-06T14:49:11Z</time>
      </trkpt>
      <trkpt lat="42.64074" lon="1.7132">
        <ele>1914.664</ele>
        <time>2021-08-06T14:49:13Z</time>
      </trkpt>
      <trkpt lat="42.64075" lon="1.71317">
        <ele>1914.204</ele>
        <time>2021-08-06T14:49:15Z</time>
      </trkpt>
      <trkpt lat="42.64075" lon="1.71314">
        <ele>1914.202</ele>
        <time>2021-08-06T14:49:17Z</time>
      </trkpt>
      <trkpt lat="42.64076" lon="1.71311">
        <ele>1914.313</ele>
        <time>2021-08-06T14:49:19Z</time>
      </trkpt>
      <trkpt lat="42.64076" lon="1.71308">
        <ele>1913.622</ele>
        <time>2021-08-06T14:49:21Z</time>
      </trkpt>
      <trkpt lat="42.64077" lon="1.71304">
        <ele>1912.701</ele>
        <time>2021-08-06T14:49:23Z</time>
      </trkpt>
      <trkpt lat="42.64077" lon="1.71301">
        <ele>1912.126</ele>
        <time>2021-08-06T14:49:25Z</time>
      </trkpt>
      <trkpt lat="42.64079" lon="1.71299">
        <ele>1912.658</ele>
        <time>2021-08-06T14:49:27Z</time>
      </trkpt>
      <trkpt lat="42.64081" lon="1.71297">
        <ele>1912.95</ele>
        <time>2021-08-06T14:49:29Z</time>
      </trkpt>
      <trkpt lat="42.64082" lon="1.71294">
        <ele>1913.601</ele>
        <time>2021-08-06T14:49:31Z</time>
      </trkpt>
      <trkpt lat="42.64084" lon="1.71292">
        <ele>1913.574</ele>
        <time>2021-08-06T14:49:33Z</time>
      </trkpt>
      <trkpt lat="42.64085" lon="1.7129">
        <ele>1913.881</ele>
        <time>2021-08-06T14:49:35Z</time>
      </trkpt>
      <trkpt lat="42.64086" lon="1.71286">
        <ele>1913.514</ele>
        <time>2021-08-06T14:49:37Z</time>
      </trkpt>
      <trkpt lat="42.64087" lon="1.71283">
        <ele>1913.374</ele>
        <time>2021-08-06T14:49:39Z</time>
      </trkpt>
      <trkpt lat="42.64088" lon="1.71281">
        <ele>1912.708</ele>
        <time>2021-08-06T14:49:41Z</time>
      </trkpt>
      <trkpt lat="42.64088" lon="1.71278">
        <ele>1910.934</ele>
        <time>2021-08-06T14:49:43Z</time>
      </trkpt>
      <trkpt lat="42.64089" lon="1.71275">
        <ele>1910.51</ele>
        <time>2021-08-06T14:49:45Z</time>
      </trkpt>
      <trkpt lat="42.6409" lon="1.71271">
        <ele>1909.732</ele>
        <time>2021-08-06T14:49:47Z</time>
      </trkpt>
      <trkpt lat="42.6409" lon="1.71268">
        <ele>1909.32</ele>
        <time>2021-08-06T14:49:49Z</time>
      </trkpt>
      <trkpt lat="42.64091" lon="1.71265">
        <ele>1908.61</ele>
        <time>2021-08-06T14:49:51Z</time>
      </trkpt>
      <trkpt lat="42.64092" lon="1.71261">
        <ele>1908.56</ele>
        <time>2021-08-06T14:49:53Z</time>
      </trkpt>
      <trkpt lat="42.64094" lon="1.71259">
        <ele>1907.982</ele>
        <time>2021-08-06T14:49:55Z</time>
      </trkpt>
      <trkpt lat="42.64095" lon="1.71256">
        <ele>1908.17</ele>
        <time>2021-08-06T14:49:57Z</time>
      </trkpt>
      <trkpt lat="42.64097" lon="1.71253">
        <ele>1907.266</ele>
        <time>2021-08-06T14:49:59Z</time>
      </trkpt>
      <trkpt lat="42.64099" lon="1.7125">
        <ele>1907.085</ele>
        <time>2021-08-06T14:50:01Z</time>
      </trkpt>
      <trkpt lat="42.641" lon="1.71247">
        <ele>1906.301</ele>
        <time>2021-08-06T14:50:03Z</time>
      </trkpt>
      <trkpt lat="42.64102" lon="1.71244">
        <ele>1906.158</ele>
        <time>2021-08-06T14:50:05Z</time>
      </trkpt>
      <trkpt lat="42.64103" lon="1.71241">
        <ele>1906.062</ele>
        <time>2021-08-06T14:50:07Z</time>
      </trkpt>
      <trkpt lat="42.64104" lon="1.71238">
        <ele>1905.17</ele>
        <time>2021-08-06T14:50:09Z</time>
      </trkpt>
      <trkpt lat="42.64105" lon="1.71235">
        <ele>1904.985</ele>
        <time>2021-08-06T14:50:11Z</time>
      </trkpt>
      <trkpt lat="42.64106" lon="1.71232">
        <ele>1904.405</ele>
        <time>2021-08-06T14:50:13Z</time>
      </trkpt>
      <trkpt lat="42.64107" lon="1.71229">
        <ele>1903.817</ele>
        <time>2021-08-06T14:50:15Z</time>
      </trkpt>
      <trkpt lat="42.64108" lon="1.71226">
        <ele>1903.35</ele>
        <time>2021-08-06T14:50:17Z</time>
      </trkpt>
      <trkpt lat="42.64109" lon="1.71222">
        <ele>1903.721</ele>
        <time>2021-08-06T14:50:19Z</time>
      </trkpt>
      <trkpt lat="42.6411" lon="1.71219">
        <ele>1903.852</ele>
        <time>2021-08-06T14:50:21Z</time>
      </trkpt>
      <trkpt lat="42.6411" lon="1.71216">
        <ele>1903.714</ele>
        <time>2021-08-06T14:50:23Z</time>
      </trkpt>
      <trkpt lat="42.64111" lon="1.71213">
        <ele>1903.653</ele>
        <time>2021-08-06T14:50:25Z</time>
      </trkpt>
      <trkpt lat="42.64111" lon="1.7121">
        <ele>1903.734</ele>
        <time>2021-08-06T14:50:27Z</time>
      </trkpt>
      <trkpt lat="42.64111" lon="1.71207">
        <ele>1903.409</ele>
        <time>2021-08-06T14:50:29Z</time>
      </trkpt>
      <trkpt lat="42.64111" lon="1.71204">
        <ele>1904.131</ele>
        <time>2021-08-06T14:50:31Z</time>
      </trkpt>
      <trkpt lat="42.64111" lon="1.71201">
        <ele>1904.553</ele>
        <time>2021-08-06T14:50:33Z</time>
      </trkpt>
      <trkpt lat="42.64112" lon="1.71198">
        <ele>1904.395</ele>
        <time>2021-08-06T14:50:35Z</time>
      </trkpt>
      <trkpt lat="42.64113" lon="1.71195">
        <ele>1904.43</ele>
        <time>2021-08-06T14:50:37Z</time>
      </trkpt>
      <trkpt lat="42.64113" lon="1.71191">
        <ele>1903.539</ele>
        <time>2021-08-06T14:50:39Z</time>
      </trkpt>
      <trkpt lat="42.64114" lon="1.71188">
        <ele>1904.142</ele>
        <time>2021-08-06T14:50:41Z</time>
      </trkpt>
      <trkpt lat="42.64116" lon="1.71185">
        <ele>1905.112</ele>
        <time>2021-08-06T14:50:43Z</time>
      </trkpt>
      <trkpt lat="42.64117" lon="1.71182">
        <ele>1905.223</ele>
        <time>2021-08-06T14:50:45Z</time>
      </trkpt>
      <trkpt lat="42.64118" lon="1.71179">
        <ele>1905.29</ele>
        <time>2021-08-06T14:50:47Z</time>
      </trkpt>
      <trkpt lat="42.64118" lon="1.71175">
        <ele>1904.752</ele>
        <time>2021-08-06T14:50:49Z</time>
      </trkpt>
      <trkpt lat="42.64118" lon="1.71171">
        <ele>1903.953</ele>
        <time>2021-08-06T14:50:51Z</time>
      </trkpt>
      <trkpt lat="42.64118" lon="1.71168">
        <ele>1903.377</ele>
        <time>2021-08-06T14:50:53Z</time>
      </trkpt>
      <trkpt lat="42.64118" lon="1.71164">
        <ele>1902.543</ele>
        <time>2021-08-06T14:50:55Z</time>
      </trkpt>
      <trkpt lat="42.64119" lon="1.71161">
        <ele>1902.579</ele>
        <time>2021-08-06T14:50:57Z</time>
      </trkpt>
      <trkpt lat="42.6412" lon="1.71157">
        <ele>1902.086</ele>
        <time>2021-08-06T14:50:59Z</time>
      </trkpt>
      <trkpt lat="42.64121" lon="1.71154">
        <ele>1901.446</ele>
        <time>2021-08-06T14:51:01Z</time>
      </trkpt>
      <trkpt lat="42.64121" lon="1.71151">
        <ele>1901.213</ele>
        <time>2021-08-06T14:51:03Z</time>
      </trkpt>
      <trkpt lat="42.64123" lon="1.71148">
        <ele>1901.306</ele>
        <time>2021-08-06T14:51:05Z</time>
      </trkpt>
      <trkpt lat="42.64123" lon="1.71145">
        <ele>1901.17</ele>
        <time>2021-08-06T14:51:07Z</time>
      </trkpt>
      <trkpt lat="42.64125" lon="1.71143">
        <ele>1901.74</ele>
        <time>2021-08-06T14:51:09Z</time>
      </trkpt>
      <trkpt lat="42.64127" lon="1.71142">
        <ele>1901.736</ele>
        <time>2021-08-06T14:51:11Z</time>
      </trkpt>
      <trkpt lat="42.64129" lon="1.71141">
        <ele>1901.581</ele>
        <time>2021-08-06T14:51:13Z</time>
      </trkpt>
      <trkpt lat="42.64131" lon="1.7114">
        <ele>1901.333</ele>
        <time>2021-08-06T14:51:15Z</time>
      </trkpt>
      <trkpt lat="42.64132" lon="1.71139">
        <ele>1901.051</ele>
        <time>2021-08-06T14:51:17Z</time>
      </trkpt>
      <trkpt lat="42.64133" lon="1.71137">
        <ele>1900.811</ele>
        <time>2021-08-06T14:51:19Z</time>
      </trkpt>
      <trkpt lat="42.64134" lon="1.71134">
        <ele>1901.18</ele>
        <time>2021-08-06T14:51:21Z</time>
      </trkpt>
      <trkpt lat="42.64134" lon="1.71132">
        <ele>1901.203</ele>
        <time>2021-08-06T14:51:23Z</time>
      </trkpt>
      <trkpt lat="42.64134" lon="1.71129">
        <ele>1900.83</ele>
        <time>2021-08-06T14:51:25Z</time>
      </trkpt>
      <trkpt lat="42.64135" lon="1.71127">
        <ele>1900.394</ele>
        <time>2021-08-06T14:51:27Z</time>
      </trkpt>
      <trkpt lat="42.64137" lon="1.71125">
        <ele>1899.754</ele>
        <time>2021-08-06T14:51:29Z</time>
      </trkpt>
      <trkpt lat="42.64138" lon="1.71122">
        <ele>1898.976</ele>
        <time>2021-08-06T14:51:31Z</time>
      </trkpt>
      <trkpt lat="42.64139" lon="1.71119">
        <ele>1899.723</ele>
        <time>2021-08-06T14:51:33Z</time>
      </trkpt>
      <trkpt lat="42.6414" lon="1.71116">
        <ele>1899.975</ele>
        <time>2021-08-06T14:51:35Z</time>
      </trkpt>
      <trkpt lat="42.64141" lon="1.71113">
        <ele>1899.699</ele>
        <time>2021-08-06T14:51:37Z</time>
      </trkpt>
      <trkpt lat="42.64141" lon="1.7111">
        <ele>1900.924</ele>
        <time>2021-08-06T14:51:39Z</time>
      </trkpt>
      <trkpt lat="42.64141" lon="1.71107">
        <ele>1900.804</ele>
        <time>2021-08-06T14:51:41Z</time>
      </trkpt>
      <trkpt lat="42.64141" lon="1.71103">
        <ele>1900.714</ele>
        <time>2021-08-06T14:51:43Z</time>
      </trkpt>
      <trkpt lat="42.64141" lon="1.711">
        <ele>1900.881</ele>
        <time>2021-08-06T14:51:45Z</time>
      </trkpt>
      <trkpt lat="42.64141" lon="1.71098">
        <ele>1901.182</ele>
        <time>2021-08-06T14:51:47Z</time>
      </trkpt>
      <trkpt lat="42.64141" lon="1.71095">
        <ele>1901.263</ele>
        <time>2021-08-06T14:51:49Z</time>
      </trkpt>
      <trkpt lat="42.64141" lon="1.71092">
        <ele>1901.704</ele>
        <time>2021-08-06T14:51:51Z</time>
      </trkpt>
      <trkpt lat="42.64141" lon="1.7109">
        <ele>1900.896</ele>
        <time>2021-08-06T14:51:53Z</time>
      </trkpt>
      <trkpt lat="42.6414" lon="1.71088">
        <ele>1899.834</ele>
        <time>2021-08-06T14:51:55Z</time>
      </trkpt>
      <trkpt lat="42.64139" lon="1.71086">
        <ele>1899.278</ele>
        <time>2021-08-06T14:51:57Z</time>
      </trkpt>
      <trkpt lat="42.6414" lon="1.71084">
        <ele>1899.533</ele>
        <time>2021-08-06T14:51:59Z</time>
      </trkpt>
      <trkpt lat="42.6414" lon="1.71081">
        <ele>1899.031</ele>
        <time>2021-08-06T14:52:01Z</time>
      </trkpt>
      <trkpt lat="42.6414" lon="1.71079">
        <ele>1898.587</ele>
        <time>2021-08-06T14:52:03Z</time>
      </trkpt>
      <trkpt lat="42.64141" lon="1.71077">
        <ele>1899.261</ele>
        <time>2021-08-06T14:52:05Z</time>
      </trkpt>
      <trkpt lat="42.64141" lon="1.71074">
        <ele>1899.744</ele>
        <time>2021-08-06T14:52:07Z</time>
      </trkpt>
      <trkpt lat="42.64141" lon="1.71072">
        <ele>1899.894</ele>
        <time>2021-08-06T14:52:09Z</time>
      </trkpt>
      <trkpt lat="42.64141" lon="1.71069">
        <ele>1899.857</ele>
        <time>2021-08-06T14:52:11Z</time>
      </trkpt>
      <trkpt lat="42.64141" lon="1.71067">
        <ele>1899.257</ele>
        <time>2021-08-06T14:52:13Z</time>
      </trkpt>
      <trkpt lat="42.64141" lon="1.71064">
        <ele>1899.145</ele>
        <time>2021-08-06T14:52:15Z</time>
      </trkpt>
      <trkpt lat="42.64141" lon="1.71063">
        <ele>1899.569</ele>
        <time>2021-08-06T14:52:17Z</time>
      </trkpt>
      <trkpt lat="42.64141" lon="1.71062">
        <ele>1900.37</ele>
        <time>2021-08-06T14:52:19Z</time>
      </trkpt>
      <trkpt lat="42.64141" lon="1.71061">
        <ele>1900.843</ele>
        <time>2021-08-06T14:52:21Z</time>
      </trkpt>
      <trkpt lat="42.64142" lon="1.71058">
        <ele>1901.721</ele>
        <time>2021-08-06T14:52:23Z</time>
      </trkpt>
      <trkpt lat="42.64141" lon="1.71059">
        <ele>1901.093</ele>
        <time>2021-08-06T14:52:25Z</time>
      </trkpt>
      <trkpt lat="42.64139" lon="1.7106">
        <ele>1901.511</ele>
        <time>2021-08-06T14:52:27Z</time>
      </trkpt>
      <trkpt lat="42.64139" lon="1.7106">
        <ele>1901.5</ele>
        <time>2021-08-06T14:52:29Z</time>
      </trkpt>
      <trkpt lat="42.64139" lon="1.7106">
        <ele>1901.482</ele>
        <time>2021-08-06T14:52:31Z</time>
      </trkpt>
      <trkpt lat="42.64139" lon="1.7106">
        <ele>1901.439</ele>
        <time>2021-08-06T14:52:33Z</time>
      </trkpt>
      <trkpt lat="42.64139" lon="1.7106">
        <ele>1901.44</ele>
        <time>2021-08-06T14:52:35Z</time>
      </trkpt>
      <trkpt lat="42.64139" lon="1.7106">
        <ele>1901.422</ele>
        <time>2021-08-06T14:52:37Z</time>
      </trkpt>
      <trkpt lat="42.64139" lon="1.7106">
        <ele>1901.409</ele>
        <time>2021-08-06T14:52:39Z</time>
      </trkpt>
      <trkpt lat="42.64139" lon="1.7106">
        <ele>1901.391</ele>
        <time>2021-08-06T14:52:41Z</time>
      </trkpt>
      <trkpt lat="42.64139" lon="1.7106">
        <ele>1901.383</ele>
        <time>2021-08-06T14:52:43Z</time>
      </trkpt>
      <trkpt lat="42.64139" lon="1.7106">
        <ele>1901.371</ele>
        <time>2021-08-06T14:52:45Z</time>
      </trkpt>
      <trkpt lat="42.64139" lon="1.7106">
        <ele>1901.365</ele>
        <time>2021-08-06T14:52:47Z</time>
      </trkpt>
      <trkpt lat="42.64139" lon="1.7106">
        <ele>1901.359</ele>
        <time>2021-08-06T14:52:49Z</time>
      </trkpt>
      <trkpt lat="42.64139" lon="1.7106">
        <ele>1901.361</ele>
        <time>2021-08-06T14:52:51Z</time>
      </trkpt>
      <trkpt lat="42.64139" lon="1.7106">
        <ele>1901.337</ele>
        <time>2021-08-06T14:52:53Z</time>
      </trkpt>
      <trkpt lat="42.64139" lon="1.7106">
        <ele>1901.355</ele>
        <time>2021-08-06T14:52:55Z</time>
      </trkpt>
      <trkpt lat="42.64139" lon="1.7106">
        <ele>1901.358</ele>
        <time>2021-08-06T14:52:57Z</time>
      </trkpt>
      <trkpt lat="42.64139" lon="1.7106">
        <ele>1901.34</ele>
        <time>2021-08-06T14:52:59Z</time>
      </trkpt>
      <trkpt lat="42.64139" lon="1.7106">
        <ele>1901.317</ele>
        <time>2021-08-06T14:53:01Z</time>
      </trkpt>
      <trkpt lat="42.64139" lon="1.7106">
        <ele>1901.308</ele>
        <time>2021-08-06T14:53:03Z</time>
      </trkpt>
      <trkpt lat="42.64139" lon="1.7106">
        <ele>1901.296</ele>
        <time>2021-08-06T14:53:05Z</time>
      </trkpt>
      <trkpt lat="42.64139" lon="1.7106">
        <ele>1901.269</ele>
        <time>2021-08-06T14:53:07Z</time>
      </trkpt>
      <trkpt lat="42.64139" lon="1.71061">
        <ele>1900.72</ele>
        <time>2021-08-06T14:53:09Z</time>
      </trkpt>
      <trkpt lat="42.64138" lon="1.71064">
        <ele>1901.08</ele>
        <time>2021-08-06T14:53:11Z</time>
      </trkpt>
      <trkpt lat="42.64137" lon="1.71067">
        <ele>1901.345</ele>
        <time>2021-08-06T14:53:13Z</time>
      </trkpt>
      <trkpt lat="42.64138" lon="1.71069">
        <ele>1901.255</ele>
        <time>2021-08-06T14:53:15Z</time>
      </trkpt>
      <trkpt lat="42.64138" lon="1.71071">
        <ele>1901.336</ele>
        <time>2021-08-06T14:53:17Z</time>
      </trkpt>
      <trkpt lat="42.64138" lon="1.71073">
        <ele>1901.278</ele>
        <time>2021-08-06T14:53:19Z</time>
      </trkpt>
      <trkpt lat="42.64139" lon="1.71075">
        <ele>1901.588</ele>
        <time>2021-08-06T14:53:21Z</time>
      </trkpt>
      <trkpt lat="42.64139" lon="1.71077">
        <ele>1902.06</ele>
        <time>2021-08-06T14:53:23Z</time>
      </trkpt>
      <trkpt lat="42.64139" lon="1.71078">
        <ele>1902.363</ele>
        <time>2021-08-06T14:53:25Z</time>
      </trkpt>
      <trkpt lat="42.64139" lon="1.7108">
        <ele>1901.767</ele>
        <time>2021-08-06T14:53:27Z</time>
      </trkpt>
      <trkpt lat="42.64139" lon="1.71082">
        <ele>1901.329</ele>
        <time>2021-08-06T14:53:29Z</time>
      </trkpt>
      <trkpt lat="42.6414" lon="1.71085">
        <ele>1901.081</ele>
        <time>2021-08-06T14:53:31Z</time>
      </trkpt>
      <trkpt lat="42.6414" lon="1.71087">
        <ele>1900.501</ele>
        <time>2021-08-06T14:53:33Z</time>
      </trkpt>
      <trkpt lat="42.64139" lon="1.71092">
        <ele>1901.452</ele>
        <time>2021-08-06T14:53:35Z</time>
      </trkpt>
      <trkpt lat="42.6414" lon="1.71097">
        <ele>1903.68</ele>
        <time>2021-08-06T14:53:37Z</time>
      </trkpt>
      <trkpt lat="42.64142" lon="1.711">
        <ele>1904.755</ele>
        <time>2021-08-06T14:53:39Z</time>
      </trkpt>
      <trkpt lat="42.64141" lon="1.71104">
        <ele>1906.147</ele>
        <time>2021-08-06T14:53:41Z</time>
      </trkpt>
      <trkpt lat="42.6414" lon="1.71106">
        <ele>1907.565</ele>
        <time>2021-08-06T14:53:43Z</time>
      </trkpt>
      <trkpt lat="42.64139" lon="1.71106">
        <ele>1906.981</ele>
        <time>2021-08-06T14:53:45Z</time>
      </trkpt>
      <trkpt lat="42.6414" lon="1.71107">
        <ele>1905.933</ele>
        <time>2021-08-06T14:53:47Z</time>
      </trkpt>
      <trkpt lat="42.64141" lon="1.71109">
        <ele>1906.099</ele>
        <time>2021-08-06T14:53:49Z</time>
      </trkpt>
      <trkpt lat="42.6414" lon="1.7111">
        <ele>1906.167</ele>
        <time>2021-08-06T14:53:51Z</time>
      </trkpt>
      <trkpt lat="42.6414" lon="1.71111">
        <ele>1906.363</ele>
        <time>2021-08-06T14:53:53Z</time>
      </trkpt>
      <trkpt lat="42.6414" lon="1.71113">
        <ele>1906.859</ele>
        <time>2021-08-06T14:53:55Z</time>
      </trkpt>
      <trkpt lat="42.64141" lon="1.71113">
        <ele>1905.26</ele>
        <time>2021-08-06T14:53:57Z</time>
      </trkpt>
      <trkpt lat="42.64141" lon="1.71112">
        <ele>1905.213</ele>
        <time>2021-08-06T14:53:59Z</time>
      </trkpt>
      <trkpt lat="42.64141" lon="1.71112">
        <ele>1905.208</ele>
        <time>2021-08-06T14:54:01Z</time>
      </trkpt>
      <trkpt lat="42.64141" lon="1.71112">
        <ele>1905.205</ele>
        <time>2021-08-06T14:54:03Z</time>
      </trkpt>
      <trkpt lat="42.64141" lon="1.71112">
        <ele>1905.191</ele>
        <time>2021-08-06T14:54:05Z</time>
      </trkpt>
      <trkpt lat="42.64141" lon="1.71112">
        <ele>1905.188</ele>
        <time>2021-08-06T14:54:07Z</time>
      </trkpt>
      <trkpt lat="42.64141" lon="1.71112">
        <ele>1905.172</ele>
        <time>2021-08-06T14:54:09Z</time>
      </trkpt>
      <trkpt lat="42.64141" lon="1.71112">
        <ele>1905.174</ele>
        <time>2021-08-06T14:54:11Z</time>
      </trkpt>
      <trkpt lat="42.64141" lon="1.71113">
        <ele>1905.171</ele>
        <time>2021-08-06T14:54:13Z</time>
      </trkpt>
      <trkpt lat="42.64141" lon="1.71113">
        <ele>1905.167</ele>
        <time>2021-08-06T14:54:15Z</time>
      </trkpt>
      <trkpt lat="42.64141" lon="1.71113">
        <ele>1905.174</ele>
        <time>2021-08-06T14:54:17Z</time>
      </trkpt>
      <trkpt lat="42.64141" lon="1.71113">
        <ele>1905.171</ele>
        <time>2021-08-06T14:54:19Z</time>
      </trkpt>
      <trkpt lat="42.64141" lon="1.71113">
        <ele>1905.171</ele>
        <time>2021-08-06T14:54:21Z</time>
      </trkpt>
      <trkpt lat="42.64141" lon="1.71113">
        <ele>1905.159</ele>
        <time>2021-08-06T14:54:23Z</time>
      </trkpt>
      <trkpt lat="42.64141" lon="1.71113">
        <ele>1905.154</ele>
        <time>2021-08-06T14:54:25Z</time>
      </trkpt>
      <trkpt lat="42.64141" lon="1.71112">
        <ele>1904.999</ele>
        <time>2021-08-06T14:54:27Z</time>
      </trkpt>
      <trkpt lat="42.64141" lon="1.71112">
        <ele>1904.993</ele>
        <time>2021-08-06T14:54:29Z</time>
      </trkpt>
      <trkpt lat="42.64141" lon="1.71112">
        <ele>1904.988</ele>
        <time>2021-08-06T14:54:31Z</time>
      </trkpt>
      <trkpt lat="42.64141" lon="1.71112">
        <ele>1904.984</ele>
        <time>2021-08-06T14:54:33Z</time>
      </trkpt>
      <trkpt lat="42.64141" lon="1.71112">
        <ele>1904.979</ele>
        <time>2021-08-06T14:54:35Z</time>
      </trkpt>
      <trkpt lat="42.64141" lon="1.71112">
        <ele>1904.983</ele>
        <time>2021-08-06T14:54:37Z</time>
      </trkpt>
      <trkpt lat="42.64141" lon="1.71112">
        <ele>1904.978</ele>
        <time>2021-08-06T14:54:39Z</time>
      </trkpt>
      <trkpt lat="42.64141" lon="1.71112">
        <ele>1904.969</ele>
        <time>2021-08-06T14:54:41Z</time>
      </trkpt>
      <trkpt lat="42.64141" lon="1.71112">
        <ele>1904.967</ele>
        <time>2021-08-06T14:54:43Z</time>
      </trkpt>
      <trkpt lat="42.64141" lon="1.71112">
        <ele>1904.975</ele>
        <time>2021-08-06T14:54:45Z</time>
      </trkpt>
      <trkpt lat="42.64141" lon="1.71112">
        <ele>1904.973</ele>
        <time>2021-08-06T14:54:47Z</time>
      </trkpt>
      <trkpt lat="42.64141" lon="1.71112">
        <ele>1904.962</ele>
        <time>2021-08-06T14:54:49Z</time>
      </trkpt>
      <trkpt lat="42.64141" lon="1.71112">
        <ele>1904.955</ele>
        <time>2021-08-06T14:54:51Z</time>
      </trkpt>
      <trkpt lat="42.64141" lon="1.71112">
        <ele>1904.956</ele>
        <time>2021-08-06T14:54:53Z</time>
      </trkpt>
      <trkpt lat="42.64141" lon="1.71112">
        <ele>1904.959</ele>
        <time>2021-08-06T14:54:55Z</time>
      </trkpt>
      <trkpt lat="42.64141" lon="1.71112">
        <ele>1904.961</ele>
        <time>2021-08-06T14:54:57Z</time>
      </trkpt>
      <trkpt lat="42.64141" lon="1.71112">
        <ele>1904.954</ele>
        <time>2021-08-06T14:54:59Z</time>
      </trkpt>
      <trkpt lat="42.64141" lon="1.71112">
        <ele>1904.945</ele>
        <time>2021-08-06T14:55:01Z</time>
      </trkpt>
      <trkpt lat="42.64141" lon="1.71112">
        <ele>1904.947</ele>
        <time>2021-08-06T14:55:03Z</time>
      </trkpt>
      <trkpt lat="42.64141" lon="1.71112">
        <ele>1904.918</ele>
        <time>2021-08-06T14:55:05Z</time>
      </trkpt>
      <trkpt lat="42.64141" lon="1.71112">
        <ele>1904.911</ele>
        <time>2021-08-06T14:55:07Z</time>
      </trkpt>
      <trkpt lat="42.64141" lon="1.71112">
        <ele>1904.905</ele>
        <time>2021-08-06T14:55:09Z</time>
      </trkpt>
      <trkpt lat="42.64141" lon="1.71112">
        <ele>1904.907</ele>
        <time>2021-08-06T14:55:11Z</time>
      </trkpt>
      <trkpt lat="42.64141" lon="1.71112">
        <ele>1904.903</ele>
        <time>2021-08-06T14:55:13Z</time>
      </trkpt>
      <trkpt lat="42.64141" lon="1.71112">
        <ele>1904.899</ele>
        <time>2021-08-06T14:55:15Z</time>
      </trkpt>
      <trkpt lat="42.64141" lon="1.71112">
        <ele>1904.904</ele>
        <time>2021-08-06T14:55:17Z</time>
      </trkpt>
      <trkpt lat="42.64141" lon="1.71112">
        <ele>1904.907</ele>
        <time>2021-08-06T14:55:19Z</time>
      </trkpt>
      <trkpt lat="42.64141" lon="1.71112">
        <ele>1904.903</ele>
        <time>2021-08-06T14:55:21Z</time>
      </trkpt>
      <trkpt lat="42.64141" lon="1.71112">
        <ele>1904.89</ele>
        <time>2021-08-06T14:55:23Z</time>
      </trkpt>
      <trkpt lat="42.64141" lon="1.71112">
        <ele>1904.877</ele>
        <time>2021-08-06T14:55:25Z</time>
      </trkpt>
      <trkpt lat="42.64141" lon="1.71112">
        <ele>1904.885</ele>
        <time>2021-08-06T14:55:27Z</time>
      </trkpt>
      <trkpt lat="42.64141" lon="1.71112">
        <ele>1904.884</ele>
        <time>2021-08-06T14:55:29Z</time>
      </trkpt>
      <trkpt lat="42.64141" lon="1.71112">
        <ele>1904.877</ele>
        <time>2021-08-06T14:55:31Z</time>
      </trkpt>
      <trkpt lat="42.64141" lon="1.71112">
        <ele>1904.874</ele>
        <time>2021-08-06T14:55:33Z</time>
      </trkpt>
      <trkpt lat="42.64141" lon="1.71112">
        <ele>1904.867</ele>
        <time>2021-08-06T14:55:35Z</time>
      </trkpt>
      <trkpt lat="42.64141" lon="1.71112">
        <ele>1904.867</ele>
        <time>2021-08-06T14:55:37Z</time>
      </trkpt>
      <trkpt lat="42.64141" lon="1.71112">
        <ele>1904.866</ele>
        <time>2021-08-06T14:55:39Z</time>
      </trkpt>
      <trkpt lat="42.64141" lon="1.71112">
        <ele>1904.873</ele>
        <time>2021-08-06T14:55:41Z</time>
      </trkpt>
      <trkpt lat="42.64141" lon="1.71112">
        <ele>1904.868</ele>
        <time>2021-08-06T14:55:43Z</time>
      </trkpt>
      <trkpt lat="42.64141" lon="1.71112">
        <ele>1904.868</ele>
        <time>2021-08-06T14:55:45Z</time>
      </trkpt>
      <trkpt lat="42.64141" lon="1.71112">
        <ele>1904.866</ele>
        <time>2021-08-06T14:55:47Z</time>
      </trkpt>
      <trkpt lat="42.64141" lon="1.71112">
        <ele>1904.861</ele>
        <time>2021-08-06T14:55:49Z</time>
      </trkpt>
      <trkpt lat="42.64141" lon="1.71112">
        <ele>1904.864</ele>
        <time>2021-08-06T14:55:51Z</time>
      </trkpt>
      <trkpt lat="42.64141" lon="1.71112">
        <ele>1904.863</ele>
        <time>2021-08-06T14:55:53Z</time>
      </trkpt>
      <trkpt lat="42.64141" lon="1.71112">
        <ele>1904.859</ele>
        <time>2021-08-06T14:55:55Z</time>
      </trkpt>
      <trkpt lat="42.64141" lon="1.71112">
        <ele>1904.857</ele>
        <time>2021-08-06T14:55:57Z</time>
      </trkpt>
      <trkpt lat="42.64141" lon="1.71112">
        <ele>1904.855</ele>
        <time>2021-08-06T14:55:59Z</time>
      </trkpt>
      <trkpt lat="42.64141" lon="1.71112">
        <ele>1904.84</ele>
        <time>2021-08-06T14:56:01Z</time>
      </trkpt>
      <trkpt lat="42.64141" lon="1.71112">
        <ele>1904.831</ele>
        <time>2021-08-06T14:56:03Z</time>
      </trkpt>
      <trkpt lat="42.64141" lon="1.71112">
        <ele>1904.822</ele>
        <time>2021-08-06T14:56:05Z</time>
      </trkpt>
      <trkpt lat="42.64141" lon="1.71112">
        <ele>1904.811</ele>
        <time>2021-08-06T14:56:07Z</time>
      </trkpt>
      <trkpt lat="42.64141" lon="1.71112">
        <ele>1904.807</ele>
        <time>2021-08-06T14:56:09Z</time>
      </trkpt>
      <trkpt lat="42.64141" lon="1.71112">
        <ele>1904.347</ele>
        <time>2021-08-06T14:56:11Z</time>
      </trkpt>
      <trkpt lat="42.64141" lon="1.71112">
        <ele>1904.239</ele>
        <time>2021-08-06T14:56:13Z</time>
      </trkpt>
      <trkpt lat="42.64141" lon="1.71112">
        <ele>1904.243</ele>
        <time>2021-08-06T14:56:15Z</time>
      </trkpt>
      <trkpt lat="42.6414" lon="1.71112">
        <ele>1904.246</ele>
        <time>2021-08-06T14:56:17Z</time>
      </trkpt>
      <trkpt lat="42.6414" lon="1.71112">
        <ele>1904.243</ele>
        <time>2021-08-06T14:56:19Z</time>
      </trkpt>
      <trkpt lat="42.6414" lon="1.71112">
        <ele>1904.244</ele>
        <time>2021-08-06T14:56:21Z</time>
      </trkpt>
      <trkpt lat="42.64141" lon="1.71112">
        <ele>1904.234</ele>
        <time>2021-08-06T14:56:23Z</time>
      </trkpt>
      <trkpt lat="42.64141" lon="1.71112">
        <ele>1904.232</ele>
        <time>2021-08-06T14:56:25Z</time>
      </trkpt>
      <trkpt lat="42.64141" lon="1.71112">
        <ele>1904.225</ele>
        <time>2021-08-06T14:56:27Z</time>
      </trkpt>
      <trkpt lat="42.64141" lon="1.71112">
        <ele>1904.229</ele>
        <time>2021-08-06T14:56:29Z</time>
      </trkpt>
      <trkpt lat="42.64141" lon="1.71112">
        <ele>1904.228</ele>
        <time>2021-08-06T14:56:31Z</time>
      </trkpt>
      <trkpt lat="42.64141" lon="1.71112">
        <ele>1904.238</ele>
        <time>2021-08-06T14:56:33Z</time>
      </trkpt>
      <trkpt lat="42.64141" lon="1.71112">
        <ele>1904.233</ele>
        <time>2021-08-06T14:56:35Z</time>
      </trkpt>
      <trkpt lat="42.64141" lon="1.71112">
        <ele>1904.229</ele>
        <time>2021-08-06T14:56:37Z</time>
      </trkpt>
      <trkpt lat="42.64141" lon="1.71112">
        <ele>1904.235</ele>
        <time>2021-08-06T14:56:39Z</time>
      </trkpt>
      <trkpt lat="42.64141" lon="1.71112">
        <ele>1904.224</ele>
        <time>2021-08-06T14:56:41Z</time>
      </trkpt>
      <trkpt lat="42.64141" lon="1.71112">
        <ele>1904.219</ele>
        <time>2021-08-06T14:56:43Z</time>
      </trkpt>
      <trkpt lat="42.64141" lon="1.71112">
        <ele>1904.22</ele>
        <time>2021-08-06T14:56:45Z</time>
      </trkpt>
      <trkpt lat="42.64141" lon="1.71112">
        <ele>1904.212</ele>
        <time>2021-08-06T14:56:47Z</time>
      </trkpt>
      <trkpt lat="42.64141" lon="1.71112">
        <ele>1904.215</ele>
        <time>2021-08-06T14:56:49Z</time>
      </trkpt>
      <trkpt lat="42.64141" lon="1.71112">
        <ele>1904.208</ele>
        <time>2021-08-06T14:56:51Z</time>
      </trkpt>
      <trkpt lat="42.64141" lon="1.71112">
        <ele>1904.21</ele>
        <time>2021-08-06T14:56:53Z</time>
      </trkpt>
      <trkpt lat="42.64141" lon="1.71112">
        <ele>1904.208</ele>
        <time>2021-08-06T14:56:55Z</time>
      </trkpt>
      <trkpt lat="42.64141" lon="1.71112">
        <ele>1904.211</ele>
        <time>2021-08-06T14:56:57Z</time>
      </trkpt>
      <trkpt lat="42.64141" lon="1.71112">
        <ele>1904.209</ele>
        <time>2021-08-06T14:56:59Z</time>
      </trkpt>
      <trkpt lat="42.64141" lon="1.71112">
        <ele>1904.204</ele>
        <time>2021-08-06T14:57:01Z</time>
      </trkpt>
      <trkpt lat="42.6414" lon="1.71112">
        <ele>1904.211</ele>
        <time>2021-08-06T14:57:03Z</time>
      </trkpt>
      <trkpt lat="42.6414" lon="1.71112">
        <ele>1904.209</ele>
        <time>2021-08-06T14:57:05Z</time>
      </trkpt>
      <trkpt lat="42.6414" lon="1.71112">
        <ele>1904.215</ele>
        <time>2021-08-06T14:57:07Z</time>
      </trkpt>
      <trkpt lat="42.6414" lon="1.71112">
        <ele>1904.115</ele>
        <time>2021-08-06T14:57:09Z</time>
      </trkpt>
      <trkpt lat="42.6414" lon="1.71111">
        <ele>1904.116</ele>
        <time>2021-08-06T14:57:11Z</time>
      </trkpt>
      <trkpt lat="42.64141" lon="1.71111">
        <ele>1903.502</ele>
        <time>2021-08-06T14:57:13Z</time>
      </trkpt>
      <trkpt lat="42.64141" lon="1.7111">
        <ele>1903.14</ele>
        <time>2021-08-06T14:57:15Z</time>
      </trkpt>
      <trkpt lat="42.64141" lon="1.71109">
        <ele>1902.484</ele>
        <time>2021-08-06T14:57:17Z</time>
      </trkpt>
      <trkpt lat="42.64139" lon="1.71108">
        <ele>1901.232</ele>
        <time>2021-08-06T14:57:19Z</time>
      </trkpt>
      <trkpt lat="42.64138" lon="1.71112">
        <ele>1901.353</ele>
        <time>2021-08-06T14:57:21Z</time>
      </trkpt>
      <trkpt lat="42.64139" lon="1.71112">
        <ele>1901.675</ele>
        <time>2021-08-06T14:57:23Z</time>
      </trkpt>
      <trkpt lat="42.64139" lon="1.71112">
        <ele>1901.489</ele>
        <time>2021-08-06T14:57:25Z</time>
      </trkpt>
      <trkpt lat="42.64139" lon="1.71112">
        <ele>1901.493</ele>
        <time>2021-08-06T14:57:27Z</time>
      </trkpt>
      <trkpt lat="42.64139" lon="1.71112">
        <ele>1901.501</ele>
        <time>2021-08-06T14:57:29Z</time>
      </trkpt>
      <trkpt lat="42.64139" lon="1.71112">
        <ele>1901.636</ele>
        <time>2021-08-06T14:57:31Z</time>
      </trkpt>
      <trkpt lat="42.64141" lon="1.71115">
        <ele>1902.231</ele>
        <time>2021-08-06T14:57:33Z</time>
      </trkpt>
      <trkpt lat="42.6414" lon="1.71113">
        <ele>1901.762</ele>
        <time>2021-08-06T14:57:35Z</time>
      </trkpt>
      <trkpt lat="42.6414" lon="1.71112">
        <ele>1901.158</ele>
        <time>2021-08-06T14:57:37Z</time>
      </trkpt>
      <trkpt lat="42.6414" lon="1.71111">
        <ele>1901.481</ele>
        <time>2021-08-06T14:57:39Z</time>
      </trkpt>
      <trkpt lat="42.6414" lon="1.7111">
        <ele>1901.945</ele>
        <time>2021-08-06T14:57:41Z</time>
      </trkpt>
      <trkpt lat="42.6414" lon="1.71109">
        <ele>1902.673</ele>
        <time>2021-08-06T14:57:43Z</time>
      </trkpt>
      <trkpt lat="42.64139" lon="1.71107">
        <ele>1901.897</ele>
        <time>2021-08-06T14:57:45Z</time>
      </trkpt>
      <trkpt lat="42.6414" lon="1.71095">
        <ele>1902.165</ele>
        <time>2021-08-06T14:57:47Z</time>
      </trkpt>
      <trkpt lat="42.64139" lon="1.71095">
        <ele>1902.399</ele>
        <time>2021-08-06T14:57:49Z</time>
      </trkpt>
      <trkpt lat="42.64139" lon="1.71093">
        <ele>1902.669</ele>
        <time>2021-08-06T14:57:51Z</time>
      </trkpt>
      <trkpt lat="42.64139" lon="1.71093">
        <ele>1902.697</ele>
        <time>2021-08-06T14:57:53Z</time>
      </trkpt>
      <trkpt lat="42.64139" lon="1.71092">
        <ele>1902.74</ele>
        <time>2021-08-06T14:57:55Z</time>
      </trkpt>
      <trkpt lat="42.64138" lon="1.7109">
        <ele>1901.739</ele>
        <time>2021-08-06T14:57:57Z</time>
      </trkpt>
      <trkpt lat="42.64138" lon="1.71088">
        <ele>1901.059</ele>
        <time>2021-08-06T14:57:59Z</time>
      </trkpt>
      <trkpt lat="42.64138" lon="1.71085">
        <ele>1900.759</ele>
        <time>2021-08-06T14:58:01Z</time>
      </trkpt>
      <trkpt lat="42.64138" lon="1.71083">
        <ele>1901.159</ele>
        <time>2021-08-06T14:58:03Z</time>
      </trkpt>
      <trkpt lat="42.64137" lon="1.7108">
        <ele>1900.498</ele>
        <time>2021-08-06T14:58:05Z</time>
      </trkpt>
      <trkpt lat="42.64137" lon="1.71078">
        <ele>1900.141</ele>
        <time>2021-08-06T14:58:07Z</time>
      </trkpt>
      <trkpt lat="42.64137" lon="1.71074">
        <ele>1900.762</ele>
        <time>2021-08-06T14:58:09Z</time>
      </trkpt>
      <trkpt lat="42.64137" lon="1.7107">
        <ele>1901.357</ele>
        <time>2021-08-06T14:58:11Z</time>
      </trkpt>
      <trkpt lat="42.64137" lon="1.71066">
        <ele>1900.349</ele>
        <time>2021-08-06T14:58:13Z</time>
      </trkpt>
      <trkpt lat="42.64137" lon="1.71064">
        <ele>1899.87</ele>
        <time>2021-08-06T14:58:15Z</time>
      </trkpt>
      <trkpt lat="42.64138" lon="1.7106">
        <ele>1900.439</ele>
        <time>2021-08-06T14:58:17Z</time>
      </trkpt>
      <trkpt lat="42.64137" lon="1.71057">
        <ele>1900.38</ele>
        <time>2021-08-06T14:58:19Z</time>
      </trkpt>
      <trkpt lat="42.64137" lon="1.71055">
        <ele>1901.07</ele>
        <time>2021-08-06T14:58:21Z</time>
      </trkpt>
      <trkpt lat="42.64137" lon="1.71052">
        <ele>1901.689</ele>
        <time>2021-08-06T14:58:23Z</time>
      </trkpt>
      <trkpt lat="42.64136" lon="1.7105">
        <ele>1901.399</ele>
        <time>2021-08-06T14:58:25Z</time>
      </trkpt>
      <trkpt lat="42.64135" lon="1.71048">
        <ele>1901.303</ele>
        <time>2021-08-06T14:58:27Z</time>
      </trkpt>
      <trkpt lat="42.64134" lon="1.71046">
        <ele>1901.378</ele>
        <time>2021-08-06T14:58:29Z</time>
      </trkpt>
      <trkpt lat="42.64133" lon="1.71045">
        <ele>1900.325</ele>
        <time>2021-08-06T14:58:31Z</time>
      </trkpt>
      <trkpt lat="42.64131" lon="1.71043">
        <ele>1900.036</ele>
        <time>2021-08-06T14:58:33Z</time>
      </trkpt>
      <trkpt lat="42.6413" lon="1.7104">
        <ele>1899.991</ele>
        <time>2021-08-06T14:58:35Z</time>
      </trkpt>
      <trkpt lat="42.64129" lon="1.71038">
        <ele>1899.627</ele>
        <time>2021-08-06T14:58:37Z</time>
      </trkpt>
      <trkpt lat="42.64128" lon="1.71036">
        <ele>1898.706</ele>
        <time>2021-08-06T14:58:39Z</time>
      </trkpt>
      <trkpt lat="42.64127" lon="1.71033">
        <ele>1897.229</ele>
        <time>2021-08-06T14:58:41Z</time>
      </trkpt>
      <trkpt lat="42.64126" lon="1.71031">
        <ele>1896.626</ele>
        <time>2021-08-06T14:58:43Z</time>
      </trkpt>
      <trkpt lat="42.64124" lon="1.71029">
        <ele>1895.228</ele>
        <time>2021-08-06T14:58:45Z</time>
      </trkpt>
      <trkpt lat="42.64123" lon="1.71026">
        <ele>1895.157</ele>
        <time>2021-08-06T14:58:47Z</time>
      </trkpt>
      <trkpt lat="42.64122" lon="1.71024">
        <ele>1894.068</ele>
        <time>2021-08-06T14:58:49Z</time>
      </trkpt>
      <trkpt lat="42.6412" lon="1.71022">
        <ele>1894.294</ele>
        <time>2021-08-06T14:58:51Z</time>
      </trkpt>
      <trkpt lat="42.64119" lon="1.7102">
        <ele>1893.553</ele>
        <time>2021-08-06T14:58:53Z</time>
      </trkpt>
      <trkpt lat="42.64118" lon="1.71017">
        <ele>1892.361</ele>
        <time>2021-08-06T14:58:55Z</time>
      </trkpt>
      <trkpt lat="42.64117" lon="1.71015">
        <ele>1891.881</ele>
        <time>2021-08-06T14:58:57Z</time>
      </trkpt>
      <trkpt lat="42.64117" lon="1.71013">
        <ele>1890.995</ele>
        <time>2021-08-06T14:58:59Z</time>
      </trkpt>
      <trkpt lat="42.64115" lon="1.7101">
        <ele>1889.951</ele>
        <time>2021-08-06T14:59:01Z</time>
      </trkpt>
      <trkpt lat="42.64114" lon="1.71008">
        <ele>1889.783</ele>
        <time>2021-08-06T14:59:03Z</time>
      </trkpt>
      <trkpt lat="42.64113" lon="1.71005">
        <ele>1889.832</ele>
        <time>2021-08-06T14:59:05Z</time>
      </trkpt>
      <trkpt lat="42.64113" lon="1.71003">
        <ele>1889.418</ele>
        <time>2021-08-06T14:59:07Z</time>
      </trkpt>
      <trkpt lat="42.64112" lon="1.71">
        <ele>1890.423</ele>
        <time>2021-08-06T14:59:09Z</time>
      </trkpt>
      <trkpt lat="42.64112" lon="1.70996">
        <ele>1890.126</ele>
        <time>2021-08-06T14:59:11Z</time>
      </trkpt>
      <trkpt lat="42.64111" lon="1.70993">
        <ele>1889.511</ele>
        <time>2021-08-06T14:59:13Z</time>
      </trkpt>
      <trkpt lat="42.64111" lon="1.70991">
        <ele>1889.242</ele>
        <time>2021-08-06T14:59:15Z</time>
      </trkpt>
      <trkpt lat="42.6411" lon="1.70988">
        <ele>1889.214</ele>
        <time>2021-08-06T14:59:17Z</time>
      </trkpt>
      <trkpt lat="42.64109" lon="1.70986">
        <ele>1888.683</ele>
        <time>2021-08-06T14:59:19Z</time>
      </trkpt>
      <trkpt lat="42.64108" lon="1.70984">
        <ele>1888.513</ele>
        <time>2021-08-06T14:59:21Z</time>
      </trkpt>
      <trkpt lat="42.64107" lon="1.70981">
        <ele>1888.273</ele>
        <time>2021-08-06T14:59:23Z</time>
      </trkpt>
      <trkpt lat="42.64105" lon="1.70977">
        <ele>1886.531</ele>
        <time>2021-08-06T14:59:25Z</time>
      </trkpt>
      <trkpt lat="42.64104" lon="1.70974">
        <ele>1885.511</ele>
        <time>2021-08-06T14:59:27Z</time>
      </trkpt>
      <trkpt lat="42.64103" lon="1.70972">
        <ele>1885.922</ele>
        <time>2021-08-06T14:59:29Z</time>
      </trkpt>
      <trkpt lat="42.64103" lon="1.70969">
        <ele>1884.849</ele>
        <time>2021-08-06T14:59:31Z</time>
      </trkpt>
      <trkpt lat="42.64102" lon="1.70966">
        <ele>1884.216</ele>
        <time>2021-08-06T14:59:33Z</time>
      </trkpt>
      <trkpt lat="42.64101" lon="1.70964">
        <ele>1882.871</ele>
        <time>2021-08-06T14:59:35Z</time>
      </trkpt>
      <trkpt lat="42.64099" lon="1.70962">
        <ele>1882.899</ele>
        <time>2021-08-06T14:59:37Z</time>
      </trkpt>
      <trkpt lat="42.64099" lon="1.70959">
        <ele>1882.567</ele>
        <time>2021-08-06T14:59:39Z</time>
      </trkpt>
      <trkpt lat="42.64098" lon="1.70956">
        <ele>1881.771</ele>
        <time>2021-08-06T14:59:41Z</time>
      </trkpt>
      <trkpt lat="42.64098" lon="1.70953">
        <ele>1880.548</ele>
        <time>2021-08-06T14:59:43Z</time>
      </trkpt>
      <trkpt lat="42.64098" lon="1.7095">
        <ele>1880.127</ele>
        <time>2021-08-06T14:59:45Z</time>
      </trkpt>
      <trkpt lat="42.64098" lon="1.70947">
        <ele>1880.007</ele>
        <time>2021-08-06T14:59:47Z</time>
      </trkpt>
      <trkpt lat="42.64098" lon="1.70943">
        <ele>1879.285</ele>
        <time>2021-08-06T14:59:49Z</time>
      </trkpt>
      <trkpt lat="42.64098" lon="1.7094">
        <ele>1879.773</ele>
        <time>2021-08-06T14:59:51Z</time>
      </trkpt>
      <trkpt lat="42.64097" lon="1.70937">
        <ele>1878.645</ele>
        <time>2021-08-06T14:59:53Z</time>
      </trkpt>
      <trkpt lat="42.64097" lon="1.70934">
        <ele>1878.666</ele>
        <time>2021-08-06T14:59:55Z</time>
      </trkpt>
      <trkpt lat="42.64097" lon="1.70931">
        <ele>1879.41</ele>
        <time>2021-08-06T14:59:57Z</time>
      </trkpt>
      <trkpt lat="42.64097" lon="1.70927">
        <ele>1878.43</ele>
        <time>2021-08-06T14:59:59Z</time>
      </trkpt>
      <trkpt lat="42.64098" lon="1.70924">
        <ele>1878.873</ele>
        <time>2021-08-06T15:00:01Z</time>
      </trkpt>
      <trkpt lat="42.64098" lon="1.7092">
        <ele>1880.102</ele>
        <time>2021-08-06T15:00:03Z</time>
      </trkpt>
      <trkpt lat="42.64098" lon="1.70916">
        <ele>1879.398</ele>
        <time>2021-08-06T15:00:05Z</time>
      </trkpt>
      <trkpt lat="42.64099" lon="1.70913">
        <ele>1879.29</ele>
        <time>2021-08-06T15:00:07Z</time>
      </trkpt>
      <trkpt lat="42.641" lon="1.70909">
        <ele>1878.901</ele>
        <time>2021-08-06T15:00:09Z</time>
      </trkpt>
      <trkpt lat="42.64101" lon="1.70906">
        <ele>1877.835</ele>
        <time>2021-08-06T15:00:11Z</time>
      </trkpt>
      <trkpt lat="42.64101" lon="1.70903">
        <ele>1876.894</ele>
        <time>2021-08-06T15:00:13Z</time>
      </trkpt>
      <trkpt lat="42.64101" lon="1.70899">
        <ele>1875.734</ele>
        <time>2021-08-06T15:00:15Z</time>
      </trkpt>
      <trkpt lat="42.64101" lon="1.70896">
        <ele>1876.155</ele>
        <time>2021-08-06T15:00:17Z</time>
      </trkpt>
      <trkpt lat="42.64101" lon="1.70893">
        <ele>1875.443</ele>
        <time>2021-08-06T15:00:19Z</time>
      </trkpt>
      <trkpt lat="42.64101" lon="1.70889">
        <ele>1874.991</ele>
        <time>2021-08-06T15:00:21Z</time>
      </trkpt>
      <trkpt lat="42.641" lon="1.70885">
        <ele>1873.283</ele>
        <time>2021-08-06T15:00:23Z</time>
      </trkpt>
      <trkpt lat="42.64099" lon="1.70881">
        <ele>1873.567</ele>
        <time>2021-08-06T15:00:25Z</time>
      </trkpt>
      <trkpt lat="42.64099" lon="1.70878">
        <ele>1872.535</ele>
        <time>2021-08-06T15:00:27Z</time>
      </trkpt>
      <trkpt lat="42.64097" lon="1.70875">
        <ele>1871.228</ele>
        <time>2021-08-06T15:00:29Z</time>
      </trkpt>
      <trkpt lat="42.64096" lon="1.70873">
        <ele>1870.768</ele>
        <time>2021-08-06T15:00:31Z</time>
      </trkpt>
      <trkpt lat="42.64095" lon="1.7087">
        <ele>1869.931</ele>
        <time>2021-08-06T15:00:33Z</time>
      </trkpt>
      <trkpt lat="42.64093" lon="1.70867">
        <ele>1869.266</ele>
        <time>2021-08-06T15:00:35Z</time>
      </trkpt>
      <trkpt lat="42.64092" lon="1.70865">
        <ele>1868.817</ele>
        <time>2021-08-06T15:00:37Z</time>
      </trkpt>
      <trkpt lat="42.64091" lon="1.70862">
        <ele>1868.763</ele>
        <time>2021-08-06T15:00:39Z</time>
      </trkpt>
      <trkpt lat="42.64089" lon="1.70859">
        <ele>1868.349</ele>
        <time>2021-08-06T15:00:41Z</time>
      </trkpt>
      <trkpt lat="42.64088" lon="1.70856">
        <ele>1869.667</ele>
        <time>2021-08-06T15:00:43Z</time>
      </trkpt>
      <trkpt lat="42.64088" lon="1.70853">
        <ele>1869.722</ele>
        <time>2021-08-06T15:00:45Z</time>
      </trkpt>
      <trkpt lat="42.64087" lon="1.7085">
        <ele>1868.872</ele>
        <time>2021-08-06T15:00:47Z</time>
      </trkpt>
      <trkpt lat="42.64086" lon="1.70847">
        <ele>1867.762</ele>
        <time>2021-08-06T15:00:49Z</time>
      </trkpt>
      <trkpt lat="42.64086" lon="1.70843">
        <ele>1867.414</ele>
        <time>2021-08-06T15:00:51Z</time>
      </trkpt>
      <trkpt lat="42.64087" lon="1.7084">
        <ele>1867.799</ele>
        <time>2021-08-06T15:00:53Z</time>
      </trkpt>
      <trkpt lat="42.64086" lon="1.70837">
        <ele>1866.851</ele>
        <time>2021-08-06T15:00:55Z</time>
      </trkpt>
      <trkpt lat="42.64086" lon="1.70833">
        <ele>1866.236</ele>
        <time>2021-08-06T15:00:57Z</time>
      </trkpt>
      <trkpt lat="42.64086" lon="1.70831">
        <ele>1865.588</ele>
        <time>2021-08-06T15:00:59Z</time>
      </trkpt>
      <trkpt lat="42.64086" lon="1.70828">
        <ele>1864.729</ele>
        <time>2021-08-06T15:01:01Z</time>
      </trkpt>
      <trkpt lat="42.64086" lon="1.70825">
        <ele>1863.787</ele>
        <time>2021-08-06T15:01:03Z</time>
      </trkpt>
      <trkpt lat="42.64086" lon="1.70822">
        <ele>1863.074</ele>
        <time>2021-08-06T15:01:05Z</time>
      </trkpt>
      <trkpt lat="42.64085" lon="1.70818">
        <ele>1862.062</ele>
        <time>2021-08-06T15:01:07Z</time>
      </trkpt>
      <trkpt lat="42.64085" lon="1.70815">
        <ele>1861.423</ele>
        <time>2021-08-06T15:01:09Z</time>
      </trkpt>
      <trkpt lat="42.64084" lon="1.70812">
        <ele>1860.491</ele>
        <time>2021-08-06T15:01:11Z</time>
      </trkpt>
      <trkpt lat="42.64084" lon="1.7081">
        <ele>1860.632</ele>
        <time>2021-08-06T15:01:13Z</time>
      </trkpt>
      <trkpt lat="42.64083" lon="1.70807">
        <ele>1859.498</ele>
        <time>2021-08-06T15:01:15Z</time>
      </trkpt>
      <trkpt lat="42.64083" lon="1.70804">
        <ele>1859.835</ele>
        <time>2021-08-06T15:01:17Z</time>
      </trkpt>
      <trkpt lat="42.64082" lon="1.70802">
        <ele>1859.454</ele>
        <time>2021-08-06T15:01:19Z</time>
      </trkpt>
      <trkpt lat="42.64082" lon="1.708">
        <ele>1859.208</ele>
        <time>2021-08-06T15:01:21Z</time>
      </trkpt>
      <trkpt lat="42.64081" lon="1.70798">
        <ele>1859.574</ele>
        <time>2021-08-06T15:01:23Z</time>
      </trkpt>
      <trkpt lat="42.64082" lon="1.70795">
        <ele>1859.794</ele>
        <time>2021-08-06T15:01:25Z</time>
      </trkpt>
      <trkpt lat="42.64082" lon="1.70793">
        <ele>1860.646</ele>
        <time>2021-08-06T15:01:27Z</time>
      </trkpt>
      <trkpt lat="42.64082" lon="1.7079">
        <ele>1860.601</ele>
        <time>2021-08-06T15:01:29Z</time>
      </trkpt>
      <trkpt lat="42.64081" lon="1.70787">
        <ele>1860.766</ele>
        <time>2021-08-06T15:01:31Z</time>
      </trkpt>
      <trkpt lat="42.6408" lon="1.70785">
        <ele>1860.04</ele>
        <time>2021-08-06T15:01:33Z</time>
      </trkpt>
      <trkpt lat="42.64079" lon="1.70783">
        <ele>1859.394</ele>
        <time>2021-08-06T15:01:35Z</time>
      </trkpt>
      <trkpt lat="42.64079" lon="1.7078">
        <ele>1859.113</ele>
        <time>2021-08-06T15:01:37Z</time>
      </trkpt>
      <trkpt lat="42.64079" lon="1.70778">
        <ele>1858.328</ele>
        <time>2021-08-06T15:01:39Z</time>
      </trkpt>
      <trkpt lat="42.64079" lon="1.70776">
        <ele>1856.918</ele>
        <time>2021-08-06T15:01:41Z</time>
      </trkpt>
      <trkpt lat="42.64078" lon="1.70773">
        <ele>1856.669</ele>
        <time>2021-08-06T15:01:43Z</time>
      </trkpt>
      <trkpt lat="42.64079" lon="1.7077">
        <ele>1857.356</ele>
        <time>2021-08-06T15:01:45Z</time>
      </trkpt>
      <trkpt lat="42.64079" lon="1.70766">
        <ele>1857.053</ele>
        <time>2021-08-06T15:01:47Z</time>
      </trkpt>
      <trkpt lat="42.64079" lon="1.70765">
        <ele>1855.194</ele>
        <time>2021-08-06T15:01:49Z</time>
      </trkpt>
      <trkpt lat="42.64081" lon="1.70763">
        <ele>1853.945</ele>
        <time>2021-08-06T15:01:51Z</time>
      </trkpt>
      <trkpt lat="42.64083" lon="1.70762">
        <ele>1855.401</ele>
        <time>2021-08-06T15:01:53Z</time>
      </trkpt>
      <trkpt lat="42.64083" lon="1.70759">
        <ele>1856.183</ele>
        <time>2021-08-06T15:01:55Z</time>
      </trkpt>
      <trkpt lat="42.6408" lon="1.70757">
        <ele>1854.331</ele>
        <time>2021-08-06T15:01:57Z</time>
      </trkpt>
      <trkpt lat="42.64079" lon="1.70754">
        <ele>1854.338</ele>
        <time>2021-08-06T15:01:59Z</time>
      </trkpt>
      <trkpt lat="42.64079" lon="1.70752">
        <ele>1853.292</ele>
        <time>2021-08-06T15:02:01Z</time>
      </trkpt>
      <trkpt lat="42.64078" lon="1.7075">
        <ele>1853.531</ele>
        <time>2021-08-06T15:02:03Z</time>
      </trkpt>
      <trkpt lat="42.64076" lon="1.70747">
        <ele>1853.505</ele>
        <time>2021-08-06T15:02:05Z</time>
      </trkpt>
      <trkpt lat="42.64075" lon="1.70744">
        <ele>1852.399</ele>
        <time>2021-08-06T15:02:07Z</time>
      </trkpt>
      <trkpt lat="42.64074" lon="1.70742">
        <ele>1853.031</ele>
        <time>2021-08-06T15:02:09Z</time>
      </trkpt>
      <trkpt lat="42.64072" lon="1.7074">
        <ele>1852.361</ele>
        <time>2021-08-06T15:02:11Z</time>
      </trkpt>
      <trkpt lat="42.64072" lon="1.70737">
        <ele>1851.96</ele>
        <time>2021-08-06T15:02:13Z</time>
      </trkpt>
      <trkpt lat="42.64072" lon="1.70735">
        <ele>1851.573</ele>
        <time>2021-08-06T15:02:15Z</time>
      </trkpt>
      <trkpt lat="42.64071" lon="1.70733">
        <ele>1851.022</ele>
        <time>2021-08-06T15:02:17Z</time>
      </trkpt>
      <trkpt lat="42.64072" lon="1.70732">
        <ele>1849.867</ele>
        <time>2021-08-06T15:02:19Z</time>
      </trkpt>
      <trkpt lat="42.64072" lon="1.70729">
        <ele>1849.785</ele>
        <time>2021-08-06T15:02:21Z</time>
      </trkpt>
      <trkpt lat="42.64073" lon="1.70727">
        <ele>1849.4</ele>
        <time>2021-08-06T15:02:23Z</time>
      </trkpt>
      <trkpt lat="42.64074" lon="1.70724">
        <ele>1848.963</ele>
        <time>2021-08-06T15:02:25Z</time>
      </trkpt>
      <trkpt lat="42.64075" lon="1.70722">
        <ele>1847.618</ele>
        <time>2021-08-06T15:02:27Z</time>
      </trkpt>
      <trkpt lat="42.64076" lon="1.70719">
        <ele>1847.568</ele>
        <time>2021-08-06T15:02:29Z</time>
      </trkpt>
      <trkpt lat="42.64077" lon="1.70718">
        <ele>1847.62</ele>
        <time>2021-08-06T15:02:31Z</time>
      </trkpt>
      <trkpt lat="42.64078" lon="1.70716">
        <ele>1847.697</ele>
        <time>2021-08-06T15:02:33Z</time>
      </trkpt>
      <trkpt lat="42.64079" lon="1.70716">
        <ele>1847.319</ele>
        <time>2021-08-06T15:02:35Z</time>
      </trkpt>
      <trkpt lat="42.64081" lon="1.70716">
        <ele>1846.427</ele>
        <time>2021-08-06T15:02:37Z</time>
      </trkpt>
      <trkpt lat="42.64083" lon="1.70715">
        <ele>1846.281</ele>
        <time>2021-08-06T15:02:39Z</time>
      </trkpt>
      <trkpt lat="42.64082" lon="1.70713">
        <ele>1845.481</ele>
        <time>2021-08-06T15:02:41Z</time>
      </trkpt>
      <trkpt lat="42.64082" lon="1.70711">
        <ele>1844.707</ele>
        <time>2021-08-06T15:02:43Z</time>
      </trkpt>
      <trkpt lat="42.64083" lon="1.70709">
        <ele>1844.485</ele>
        <time>2021-08-06T15:02:45Z</time>
      </trkpt>
      <trkpt lat="42.64084" lon="1.70708">
        <ele>1843.563</ele>
        <time>2021-08-06T15:02:47Z</time>
      </trkpt>
      <trkpt lat="42.64085" lon="1.70706">
        <ele>1844.046</ele>
        <time>2021-08-06T15:02:49Z</time>
      </trkpt>
      <trkpt lat="42.64086" lon="1.70705">
        <ele>1844.19</ele>
        <time>2021-08-06T15:02:51Z</time>
      </trkpt>
      <trkpt lat="42.64086" lon="1.70702">
        <ele>1844.142</ele>
        <time>2021-08-06T15:02:53Z</time>
      </trkpt>
      <trkpt lat="42.64087" lon="1.707">
        <ele>1843.145</ele>
        <time>2021-08-06T15:02:55Z</time>
      </trkpt>
      <trkpt lat="42.64087" lon="1.70697">
        <ele>1842.328</ele>
        <time>2021-08-06T15:02:57Z</time>
      </trkpt>
      <trkpt lat="42.64089" lon="1.70693">
        <ele>1842.947</ele>
        <time>2021-08-06T15:02:59Z</time>
      </trkpt>
      <trkpt lat="42.64091" lon="1.70691">
        <ele>1843.99</ele>
        <time>2021-08-06T15:03:01Z</time>
      </trkpt>
      <trkpt lat="42.64093" lon="1.70688">
        <ele>1845.061</ele>
        <time>2021-08-06T15:03:03Z</time>
      </trkpt>
      <trkpt lat="42.64094" lon="1.70685">
        <ele>1845.858</ele>
        <time>2021-08-06T15:03:05Z</time>
      </trkpt>
      <trkpt lat="42.64094" lon="1.70682">
        <ele>1845.1</ele>
        <time>2021-08-06T15:03:07Z</time>
      </trkpt>
      <trkpt lat="42.64094" lon="1.7068">
        <ele>1844.247</ele>
        <time>2021-08-06T15:03:09Z</time>
      </trkpt>
      <trkpt lat="42.64094" lon="1.70677">
        <ele>1843.038</ele>
        <time>2021-08-06T15:03:11Z</time>
      </trkpt>
      <trkpt lat="42.64093" lon="1.70675">
        <ele>1841.958</ele>
        <time>2021-08-06T15:03:13Z</time>
      </trkpt>
      <trkpt lat="42.64092" lon="1.70672">
        <ele>1840.621</ele>
        <time>2021-08-06T15:03:15Z</time>
      </trkpt>
      <trkpt lat="42.64092" lon="1.7067">
        <ele>1839.703</ele>
        <time>2021-08-06T15:03:17Z</time>
      </trkpt>
      <trkpt lat="42.64093" lon="1.70667">
        <ele>1839.599</ele>
        <time>2021-08-06T15:03:19Z</time>
      </trkpt>
      <trkpt lat="42.64094" lon="1.70665">
        <ele>1839.601</ele>
        <time>2021-08-06T15:03:21Z</time>
      </trkpt>
      <trkpt lat="42.64095" lon="1.70664">
        <ele>1839.134</ele>
        <time>2021-08-06T15:03:23Z</time>
      </trkpt>
      <trkpt lat="42.64097" lon="1.70662">
        <ele>1839.055</ele>
        <time>2021-08-06T15:03:25Z</time>
      </trkpt>
      <trkpt lat="42.64098" lon="1.7066">
        <ele>1839.904</ele>
        <time>2021-08-06T15:03:27Z</time>
      </trkpt>
      <trkpt lat="42.64098" lon="1.70657">
        <ele>1838.658</ele>
        <time>2021-08-06T15:03:29Z</time>
      </trkpt>
      <trkpt lat="42.64099" lon="1.70654">
        <ele>1836.972</ele>
        <time>2021-08-06T15:03:31Z</time>
      </trkpt>
      <trkpt lat="42.64099" lon="1.70651">
        <ele>1836.203</ele>
        <time>2021-08-06T15:03:33Z</time>
      </trkpt>
      <trkpt lat="42.64099" lon="1.70649">
        <ele>1835.215</ele>
        <time>2021-08-06T15:03:35Z</time>
      </trkpt>
      <trkpt lat="42.641" lon="1.70646">
        <ele>1834.586</ele>
        <time>2021-08-06T15:03:37Z</time>
      </trkpt>
      <trkpt lat="42.641" lon="1.70643">
        <ele>1835.038</ele>
        <time>2021-08-06T15:03:39Z</time>
      </trkpt>
      <trkpt lat="42.641" lon="1.7064">
        <ele>1835.189</ele>
        <time>2021-08-06T15:03:41Z</time>
      </trkpt>
      <trkpt lat="42.64101" lon="1.70637">
        <ele>1835.685</ele>
        <time>2021-08-06T15:03:43Z</time>
      </trkpt>
      <trkpt lat="42.64101" lon="1.70635">
        <ele>1835.061</ele>
        <time>2021-08-06T15:03:45Z</time>
      </trkpt>
      <trkpt lat="42.64102" lon="1.70633">
        <ele>1834.69</ele>
        <time>2021-08-06T15:03:47Z</time>
      </trkpt>
      <trkpt lat="42.64103" lon="1.70631">
        <ele>1835.334</ele>
        <time>2021-08-06T15:03:49Z</time>
      </trkpt>
      <trkpt lat="42.64104" lon="1.70629">
        <ele>1834.297</ele>
        <time>2021-08-06T15:03:51Z</time>
      </trkpt>
      <trkpt lat="42.64105" lon="1.70626">
        <ele>1833.492</ele>
        <time>2021-08-06T15:03:53Z</time>
      </trkpt>
      <trkpt lat="42.64106" lon="1.70625">
        <ele>1831.758</ele>
        <time>2021-08-06T15:03:55Z</time>
      </trkpt>
      <trkpt lat="42.64106" lon="1.70623">
        <ele>1831.304</ele>
        <time>2021-08-06T15:03:57Z</time>
      </trkpt>
      <trkpt lat="42.64107" lon="1.70621">
        <ele>1831.362</ele>
        <time>2021-08-06T15:03:59Z</time>
      </trkpt>
      <trkpt lat="42.64108" lon="1.70621">
        <ele>1830.731</ele>
        <time>2021-08-06T15:04:01Z</time>
      </trkpt>
      <trkpt lat="42.64108" lon="1.70619">
        <ele>1829.99</ele>
        <time>2021-08-06T15:04:03Z</time>
      </trkpt>
      <trkpt lat="42.64108" lon="1.70616">
        <ele>1829.372</ele>
        <time>2021-08-06T15:04:05Z</time>
      </trkpt>
      <trkpt lat="42.6411" lon="1.70615">
        <ele>1830.546</ele>
        <time>2021-08-06T15:04:07Z</time>
      </trkpt>
      <trkpt lat="42.6411" lon="1.70613">
        <ele>1830.238</ele>
        <time>2021-08-06T15:04:09Z</time>
      </trkpt>
      <trkpt lat="42.64109" lon="1.70611">
        <ele>1829.251</ele>
        <time>2021-08-06T15:04:11Z</time>
      </trkpt>
      <trkpt lat="42.6411" lon="1.70609">
        <ele>1828.754</ele>
        <time>2021-08-06T15:04:13Z</time>
      </trkpt>
      <trkpt lat="42.64111" lon="1.70609">
        <ele>1827.891</ele>
        <time>2021-08-06T15:04:15Z</time>
      </trkpt>
      <trkpt lat="42.64113" lon="1.70607">
        <ele>1828.017</ele>
        <time>2021-08-06T15:04:17Z</time>
      </trkpt>
      <trkpt lat="42.64114" lon="1.70606">
        <ele>1826.953</ele>
        <time>2021-08-06T15:04:19Z</time>
      </trkpt>
      <trkpt lat="42.64114" lon="1.70606">
        <ele>1826.857</ele>
        <time>2021-08-06T15:04:21Z</time>
      </trkpt>
      <trkpt lat="42.64115" lon="1.70605">
        <ele>1826.768</ele>
        <time>2021-08-06T15:04:23Z</time>
      </trkpt>
      <trkpt lat="42.64115" lon="1.70604">
        <ele>1825.844</ele>
        <time>2021-08-06T15:04:25Z</time>
      </trkpt>
      <trkpt lat="42.64116" lon="1.70601">
        <ele>1824.763</ele>
        <time>2021-08-06T15:04:27Z</time>
      </trkpt>
      <trkpt lat="42.64115" lon="1.70599">
        <ele>1824.056</ele>
        <time>2021-08-06T15:04:29Z</time>
      </trkpt>
      <trkpt lat="42.64116" lon="1.70596">
        <ele>1823.716</ele>
        <time>2021-08-06T15:04:31Z</time>
      </trkpt>
      <trkpt lat="42.64117" lon="1.70594">
        <ele>1823.273</ele>
        <time>2021-08-06T15:04:33Z</time>
      </trkpt>
      <trkpt lat="42.64117" lon="1.70592">
        <ele>1821.423</ele>
        <time>2021-08-06T15:04:35Z</time>
      </trkpt>
      <trkpt lat="42.64119" lon="1.7059">
        <ele>1821.47</ele>
        <time>2021-08-06T15:04:37Z</time>
      </trkpt>
      <trkpt lat="42.64119" lon="1.70587">
        <ele>1820.942</ele>
        <time>2021-08-06T15:04:39Z</time>
      </trkpt>
      <trkpt lat="42.64119" lon="1.70585">
        <ele>1820.108</ele>
        <time>2021-08-06T15:04:41Z</time>
      </trkpt>
      <trkpt lat="42.64118" lon="1.70583">
        <ele>1819.422</ele>
        <time>2021-08-06T15:04:43Z</time>
      </trkpt>
      <trkpt lat="42.64119" lon="1.70581">
        <ele>1818.661</ele>
        <time>2021-08-06T15:04:45Z</time>
      </trkpt>
      <trkpt lat="42.64119" lon="1.70579">
        <ele>1819.18</ele>
        <time>2021-08-06T15:04:47Z</time>
      </trkpt>
      <trkpt lat="42.64119" lon="1.70577">
        <ele>1818.551</ele>
        <time>2021-08-06T15:04:49Z</time>
      </trkpt>
      <trkpt lat="42.64119" lon="1.70574">
        <ele>1817.284</ele>
        <time>2021-08-06T15:04:51Z</time>
      </trkpt>
      <trkpt lat="42.64119" lon="1.70572">
        <ele>1816.687</ele>
        <time>2021-08-06T15:04:53Z</time>
      </trkpt>
      <trkpt lat="42.6412" lon="1.7057">
        <ele>1815.432</ele>
        <time>2021-08-06T15:04:55Z</time>
      </trkpt>
      <trkpt lat="42.6412" lon="1.70568">
        <ele>1814.553</ele>
        <time>2021-08-06T15:04:57Z</time>
      </trkpt>
      <trkpt lat="42.6412" lon="1.70565">
        <ele>1814.138</ele>
        <time>2021-08-06T15:04:59Z</time>
      </trkpt>
      <trkpt lat="42.6412" lon="1.70563">
        <ele>1813.007</ele>
        <time>2021-08-06T15:05:01Z</time>
      </trkpt>
      <trkpt lat="42.64122" lon="1.7056">
        <ele>1812.997</ele>
        <time>2021-08-06T15:05:03Z</time>
      </trkpt>
      <trkpt lat="42.64123" lon="1.70558">
        <ele>1813.068</ele>
        <time>2021-08-06T15:05:05Z</time>
      </trkpt>
      <trkpt lat="42.64124" lon="1.70556">
        <ele>1813.938</ele>
        <time>2021-08-06T15:05:07Z</time>
      </trkpt>
      <trkpt lat="42.64125" lon="1.70554">
        <ele>1814.193</ele>
        <time>2021-08-06T15:05:09Z</time>
      </trkpt>
      <trkpt lat="42.64125" lon="1.70553">
        <ele>1812.916</ele>
        <time>2021-08-06T15:05:11Z</time>
      </trkpt>
      <trkpt lat="42.64126" lon="1.70552">
        <ele>1812.257</ele>
        <time>2021-08-06T15:05:13Z</time>
      </trkpt>
      <trkpt lat="42.64126" lon="1.70549">
        <ele>1811.692</ele>
        <time>2021-08-06T15:05:15Z</time>
      </trkpt>
      <trkpt lat="42.64127" lon="1.70546">
        <ele>1810.292</ele>
        <time>2021-08-06T15:05:17Z</time>
      </trkpt>
      <trkpt lat="42.64128" lon="1.70544">
        <ele>1809.389</ele>
        <time>2021-08-06T15:05:19Z</time>
      </trkpt>
      <trkpt lat="42.64129" lon="1.70542">
        <ele>1808.762</ele>
        <time>2021-08-06T15:05:21Z</time>
      </trkpt>
      <trkpt lat="42.6413" lon="1.7054">
        <ele>1808.736</ele>
        <time>2021-08-06T15:05:23Z</time>
      </trkpt>
      <trkpt lat="42.64131" lon="1.70537">
        <ele>1808.453</ele>
        <time>2021-08-06T15:05:25Z</time>
      </trkpt>
      <trkpt lat="42.64131" lon="1.70535">
        <ele>1807.41</ele>
        <time>2021-08-06T15:05:27Z</time>
      </trkpt>
      <trkpt lat="42.64133" lon="1.70534">
        <ele>1807.296</ele>
        <time>2021-08-06T15:05:29Z</time>
      </trkpt>
      <trkpt lat="42.64134" lon="1.70533">
        <ele>1807.118</ele>
        <time>2021-08-06T15:05:31Z</time>
      </trkpt>
      <trkpt lat="42.64136" lon="1.70531">
        <ele>1807.916</ele>
        <time>2021-08-06T15:05:33Z</time>
      </trkpt>
      <trkpt lat="42.64137" lon="1.70529">
        <ele>1807.549</ele>
        <time>2021-08-06T15:05:35Z</time>
      </trkpt>
      <trkpt lat="42.64138" lon="1.70528">
        <ele>1806.8</ele>
        <time>2021-08-06T15:05:37Z</time>
      </trkpt>
      <trkpt lat="42.6414" lon="1.70527">
        <ele>1806.494</ele>
        <time>2021-08-06T15:05:39Z</time>
      </trkpt>
      <trkpt lat="42.64141" lon="1.70527">
        <ele>1806.302</ele>
        <time>2021-08-06T15:05:41Z</time>
      </trkpt>
      <trkpt lat="42.64141" lon="1.70524">
        <ele>1806.846</ele>
        <time>2021-08-06T15:05:43Z</time>
      </trkpt>
      <trkpt lat="42.64141" lon="1.70523">
        <ele>1807.214</ele>
        <time>2021-08-06T15:05:45Z</time>
      </trkpt>
      <trkpt lat="42.64141" lon="1.70521">
        <ele>1806.682</ele>
        <time>2021-08-06T15:05:47Z</time>
      </trkpt>
      <trkpt lat="42.64141" lon="1.70519">
        <ele>1806.651</ele>
        <time>2021-08-06T15:05:49Z</time>
      </trkpt>
      <trkpt lat="42.64142" lon="1.70518">
        <ele>1805.432</ele>
        <time>2021-08-06T15:05:51Z</time>
      </trkpt>
      <trkpt lat="42.64143" lon="1.70517">
        <ele>1804.569</ele>
        <time>2021-08-06T15:05:53Z</time>
      </trkpt>
      <trkpt lat="42.64144" lon="1.70516">
        <ele>1803.986</ele>
        <time>2021-08-06T15:05:55Z</time>
      </trkpt>
      <trkpt lat="42.64145" lon="1.70514">
        <ele>1803.415</ele>
        <time>2021-08-06T15:05:57Z</time>
      </trkpt>
      <trkpt lat="42.64147" lon="1.70513">
        <ele>1803.013</ele>
        <time>2021-08-06T15:05:59Z</time>
      </trkpt>
      <trkpt lat="42.64148" lon="1.70512">
        <ele>1801.936</ele>
        <time>2021-08-06T15:06:01Z</time>
      </trkpt>
      <trkpt lat="42.6415" lon="1.70511">
        <ele>1801.594</ele>
        <time>2021-08-06T15:06:03Z</time>
      </trkpt>
      <trkpt lat="42.64152" lon="1.70511">
        <ele>1800.792</ele>
        <time>2021-08-06T15:06:05Z</time>
      </trkpt>
      <trkpt lat="42.64153" lon="1.70509">
        <ele>1799.987</ele>
        <time>2021-08-06T15:06:07Z</time>
      </trkpt>
      <trkpt lat="42.64155" lon="1.70508">
        <ele>1800.064</ele>
        <time>2021-08-06T15:06:09Z</time>
      </trkpt>
      <trkpt lat="42.64156" lon="1.70506">
        <ele>1800.583</ele>
        <time>2021-08-06T15:06:11Z</time>
      </trkpt>
      <trkpt lat="42.64156" lon="1.70506">
        <ele>1800.145</ele>
        <time>2021-08-06T15:06:13Z</time>
      </trkpt>
      <trkpt lat="42.64157" lon="1.70505">
        <ele>1800.56</ele>
        <time>2021-08-06T15:06:15Z</time>
      </trkpt>
      <trkpt lat="42.64157" lon="1.70503">
        <ele>1802.012</ele>
        <time>2021-08-06T15:06:17Z</time>
      </trkpt>
      <trkpt lat="42.64158" lon="1.705">
        <ele>1803.5</ele>
        <time>2021-08-06T15:06:19Z</time>
      </trkpt>
      <trkpt lat="42.64159" lon="1.70499">
        <ele>1803.735</ele>
        <time>2021-08-06T15:06:21Z</time>
      </trkpt>
      <trkpt lat="42.6416" lon="1.70499">
        <ele>1803.335</ele>
        <time>2021-08-06T15:06:23Z</time>
      </trkpt>
      <trkpt lat="42.64161" lon="1.70498">
        <ele>1801.861</ele>
        <time>2021-08-06T15:06:25Z</time>
      </trkpt>
      <trkpt lat="42.64162" lon="1.70498">
        <ele>1801.32</ele>
        <time>2021-08-06T15:06:27Z</time>
      </trkpt>
      <trkpt lat="42.64163" lon="1.70497">
        <ele>1801.161</ele>
        <time>2021-08-06T15:06:29Z</time>
      </trkpt>
      <trkpt lat="42.64164" lon="1.70496">
        <ele>1800.484</ele>
        <time>2021-08-06T15:06:31Z</time>
      </trkpt>
      <trkpt lat="42.64164" lon="1.70495">
        <ele>1799.303</ele>
        <time>2021-08-06T15:06:33Z</time>
      </trkpt>
      <trkpt lat="42.64165" lon="1.70493">
        <ele>1798.032</ele>
        <time>2021-08-06T15:06:35Z</time>
      </trkpt>
      <trkpt lat="42.64166" lon="1.70492">
        <ele>1797.354</ele>
        <time>2021-08-06T15:06:37Z</time>
      </trkpt>
      <trkpt lat="42.64167" lon="1.7049">
        <ele>1796.719</ele>
        <time>2021-08-06T15:06:39Z</time>
      </trkpt>
      <trkpt lat="42.64168" lon="1.70488">
        <ele>1796.083</ele>
        <time>2021-08-06T15:06:41Z</time>
      </trkpt>
      <trkpt lat="42.64168" lon="1.70486">
        <ele>1794.342</ele>
        <time>2021-08-06T15:06:43Z</time>
      </trkpt>
      <trkpt lat="42.64169" lon="1.70483">
        <ele>1794.241</ele>
        <time>2021-08-06T15:06:45Z</time>
      </trkpt>
      <trkpt lat="42.6417" lon="1.70481">
        <ele>1793.89</ele>
        <time>2021-08-06T15:06:47Z</time>
      </trkpt>
      <trkpt lat="42.64171" lon="1.70479">
        <ele>1792.817</ele>
        <time>2021-08-06T15:06:49Z</time>
      </trkpt>
      <trkpt lat="42.64171" lon="1.70476">
        <ele>1793.183</ele>
        <time>2021-08-06T15:06:51Z</time>
      </trkpt>
      <trkpt lat="42.64173" lon="1.70476">
        <ele>1792.191</ele>
        <time>2021-08-06T15:06:53Z</time>
      </trkpt>
      <trkpt lat="42.64175" lon="1.70475">
        <ele>1792.738</ele>
        <time>2021-08-06T15:06:55Z</time>
      </trkpt>
      <trkpt lat="42.64177" lon="1.70474">
        <ele>1791.877</ele>
        <time>2021-08-06T15:06:57Z</time>
      </trkpt>
      <trkpt lat="42.64178" lon="1.70474">
        <ele>1791.033</ele>
        <time>2021-08-06T15:06:59Z</time>
      </trkpt>
      <trkpt lat="42.64179" lon="1.70472">
        <ele>1790.863</ele>
        <time>2021-08-06T15:07:01Z</time>
      </trkpt>
      <trkpt lat="42.6418" lon="1.70471">
        <ele>1790.62</ele>
        <time>2021-08-06T15:07:03Z</time>
      </trkpt>
      <trkpt lat="42.64181" lon="1.70469">
        <ele>1791.197</ele>
        <time>2021-08-06T15:07:05Z</time>
      </trkpt>
      <trkpt lat="42.64182" lon="1.70468">
        <ele>1790.114</ele>
        <time>2021-08-06T15:07:07Z</time>
      </trkpt>
      <trkpt lat="42.64182" lon="1.70466">
        <ele>1789.95</ele>
        <time>2021-08-06T15:07:09Z</time>
      </trkpt>
      <trkpt lat="42.64182" lon="1.70464">
        <ele>1789.085</ele>
        <time>2021-08-06T15:07:11Z</time>
      </trkpt>
      <trkpt lat="42.64182" lon="1.70462">
        <ele>1788.333</ele>
        <time>2021-08-06T15:07:13Z</time>
      </trkpt>
      <trkpt lat="42.64184" lon="1.7046">
        <ele>1788.116</ele>
        <time>2021-08-06T15:07:15Z</time>
      </trkpt>
      <trkpt lat="42.64182" lon="1.70458">
        <ele>1787.617</ele>
        <time>2021-08-06T15:07:17Z</time>
      </trkpt>
      <trkpt lat="42.64181" lon="1.70457">
        <ele>1786.872</ele>
        <time>2021-08-06T15:07:19Z</time>
      </trkpt>
      <trkpt lat="42.64181" lon="1.70455">
        <ele>1786.061</ele>
        <time>2021-08-06T15:07:21Z</time>
      </trkpt>
      <trkpt lat="42.64181" lon="1.70453">
        <ele>1785.343</ele>
        <time>2021-08-06T15:07:23Z</time>
      </trkpt>
      <trkpt lat="42.64181" lon="1.70452">
        <ele>1785.368</ele>
        <time>2021-08-06T15:07:25Z</time>
      </trkpt>
      <trkpt lat="42.64182" lon="1.70451">
        <ele>1784.245</ele>
        <time>2021-08-06T15:07:27Z</time>
      </trkpt>
      <trkpt lat="42.64183" lon="1.70448">
        <ele>1784.654</ele>
        <time>2021-08-06T15:07:29Z</time>
      </trkpt>
      <trkpt lat="42.64183" lon="1.70446">
        <ele>1784.614</ele>
        <time>2021-08-06T15:07:31Z</time>
      </trkpt>
      <trkpt lat="42.64185" lon="1.70445">
        <ele>1784.484</ele>
        <time>2021-08-06T15:07:33Z</time>
      </trkpt>
      <trkpt lat="42.64187" lon="1.70445">
        <ele>1784.315</ele>
        <time>2021-08-06T15:07:35Z</time>
      </trkpt>
      <trkpt lat="42.64188" lon="1.70444">
        <ele>1784.471</ele>
        <time>2021-08-06T15:07:37Z</time>
      </trkpt>
      <trkpt lat="42.64189" lon="1.70443">
        <ele>1784.526</ele>
        <time>2021-08-06T15:07:39Z</time>
      </trkpt>
      <trkpt lat="42.64189" lon="1.7044">
        <ele>1784.671</ele>
        <time>2021-08-06T15:07:41Z</time>
      </trkpt>
      <trkpt lat="42.64187" lon="1.70438">
        <ele>1783.873</ele>
        <time>2021-08-06T15:07:43Z</time>
      </trkpt>
      <trkpt lat="42.64188" lon="1.70436">
        <ele>1783.06</ele>
        <time>2021-08-06T15:07:45Z</time>
      </trkpt>
      <trkpt lat="42.64189" lon="1.70435">
        <ele>1781.122</ele>
        <time>2021-08-06T15:07:47Z</time>
      </trkpt>
      <trkpt lat="42.64189" lon="1.70433">
        <ele>1780.665</ele>
        <time>2021-08-06T15:07:49Z</time>
      </trkpt>
      <trkpt lat="42.64187" lon="1.70432">
        <ele>1779.87</ele>
        <time>2021-08-06T15:07:51Z</time>
      </trkpt>
      <trkpt lat="42.64185" lon="1.70431">
        <ele>1779.479</ele>
        <time>2021-08-06T15:07:53Z</time>
      </trkpt>
      <trkpt lat="42.64185" lon="1.7043">
        <ele>1778.616</ele>
        <time>2021-08-06T15:07:55Z</time>
      </trkpt>
      <trkpt lat="42.64184" lon="1.70428">
        <ele>1777.483</ele>
        <time>2021-08-06T15:07:57Z</time>
      </trkpt>
      <trkpt lat="42.64185" lon="1.70426">
        <ele>1777.25</ele>
        <time>2021-08-06T15:07:59Z</time>
      </trkpt>
      <trkpt lat="42.64186" lon="1.70424">
        <ele>1777.527</ele>
        <time>2021-08-06T15:08:01Z</time>
      </trkpt>
      <trkpt lat="42.64187" lon="1.70423">
        <ele>1776.056</ele>
        <time>2021-08-06T15:08:03Z</time>
      </trkpt>
      <trkpt lat="42.64189" lon="1.70421">
        <ele>1774.76</ele>
        <time>2021-08-06T15:08:05Z</time>
      </trkpt>
      <trkpt lat="42.6419" lon="1.70421">
        <ele>1773.328</ele>
        <time>2021-08-06T15:08:07Z</time>
      </trkpt>
      <trkpt lat="42.64191" lon="1.70419">
        <ele>1772.315</ele>
        <time>2021-08-06T15:08:09Z</time>
      </trkpt>
      <trkpt lat="42.64192" lon="1.70417">
        <ele>1772.031</ele>
        <time>2021-08-06T15:08:11Z</time>
      </trkpt>
      <trkpt lat="42.64194" lon="1.70415">
        <ele>1771.559</ele>
        <time>2021-08-06T15:08:13Z</time>
      </trkpt>
      <trkpt lat="42.64194" lon="1.70413">
        <ele>1771.57</ele>
        <time>2021-08-06T15:08:15Z</time>
      </trkpt>
      <trkpt lat="42.64195" lon="1.70411">
        <ele>1771.115</ele>
        <time>2021-08-06T15:08:17Z</time>
      </trkpt>
      <trkpt lat="42.64195" lon="1.70409">
        <ele>1769.866</ele>
        <time>2021-08-06T15:08:19Z</time>
      </trkpt>
      <trkpt lat="42.64196" lon="1.70407">
        <ele>1768.761</ele>
        <time>2021-08-06T15:08:21Z</time>
      </trkpt>
      <trkpt lat="42.64198" lon="1.70406">
        <ele>1767.453</ele>
        <time>2021-08-06T15:08:23Z</time>
      </trkpt>
      <trkpt lat="42.64199" lon="1.70405">
        <ele>1767.147</ele>
        <time>2021-08-06T15:08:25Z</time>
      </trkpt>
      <trkpt lat="42.642" lon="1.70403">
        <ele>1765.995</ele>
        <time>2021-08-06T15:08:27Z</time>
      </trkpt>
      <trkpt lat="42.642" lon="1.70401">
        <ele>1764.799</ele>
        <time>2021-08-06T15:08:29Z</time>
      </trkpt>
      <trkpt lat="42.64201" lon="1.70398">
        <ele>1764.665</ele>
        <time>2021-08-06T15:08:31Z</time>
      </trkpt>
      <trkpt lat="42.64202" lon="1.70396">
        <ele>1763.823</ele>
        <time>2021-08-06T15:08:33Z</time>
      </trkpt>
      <trkpt lat="42.64204" lon="1.70393">
        <ele>1762.238</ele>
        <time>2021-08-06T15:08:35Z</time>
      </trkpt>
      <trkpt lat="42.64205" lon="1.7039">
        <ele>1761.872</ele>
        <time>2021-08-06T15:08:37Z</time>
      </trkpt>
      <trkpt lat="42.64206" lon="1.70388">
        <ele>1762.108</ele>
        <time>2021-08-06T15:08:39Z</time>
      </trkpt>
      <trkpt lat="42.64206" lon="1.70385">
        <ele>1761.068</ele>
        <time>2021-08-06T15:08:41Z</time>
      </trkpt>
      <trkpt lat="42.64205" lon="1.70382">
        <ele>1760.716</ele>
        <time>2021-08-06T15:08:43Z</time>
      </trkpt>
      <trkpt lat="42.64205" lon="1.70379">
        <ele>1759.411</ele>
        <time>2021-08-06T15:08:45Z</time>
      </trkpt>
      <trkpt lat="42.64207" lon="1.70376">
        <ele>1759.255</ele>
        <time>2021-08-06T15:08:47Z</time>
      </trkpt>
      <trkpt lat="42.64208" lon="1.70374">
        <ele>1758.62</ele>
        <time>2021-08-06T15:08:49Z</time>
      </trkpt>
      <trkpt lat="42.6421" lon="1.70372">
        <ele>1757.943</ele>
        <time>2021-08-06T15:08:51Z</time>
      </trkpt>
      <trkpt lat="42.64212" lon="1.7037">
        <ele>1757.434</ele>
        <time>2021-08-06T15:08:53Z</time>
      </trkpt>
      <trkpt lat="42.64214" lon="1.70367">
        <ele>1757.32</ele>
        <time>2021-08-06T15:08:55Z</time>
      </trkpt>
      <trkpt lat="42.64215" lon="1.70364">
        <ele>1756.759</ele>
        <time>2021-08-06T15:08:57Z</time>
      </trkpt>
      <trkpt lat="42.64216" lon="1.70362">
        <ele>1756.255</ele>
        <time>2021-08-06T15:08:59Z</time>
      </trkpt>
      <trkpt lat="42.64218" lon="1.70359">
        <ele>1755.632</ele>
        <time>2021-08-06T15:09:01Z</time>
      </trkpt>
      <trkpt lat="42.64219" lon="1.70357">
        <ele>1754.806</ele>
        <time>2021-08-06T15:09:03Z</time>
      </trkpt>
      <trkpt lat="42.64221" lon="1.70354">
        <ele>1754.559</ele>
        <time>2021-08-06T15:09:05Z</time>
      </trkpt>
      <trkpt lat="42.64222" lon="1.70351">
        <ele>1753.143</ele>
        <time>2021-08-06T15:09:07Z</time>
      </trkpt>
      <trkpt lat="42.64224" lon="1.70348">
        <ele>1752.499</ele>
        <time>2021-08-06T15:09:09Z</time>
      </trkpt>
      <trkpt lat="42.64226" lon="1.70346">
        <ele>1751.651</ele>
        <time>2021-08-06T15:09:11Z</time>
      </trkpt>
      <trkpt lat="42.64228" lon="1.70344">
        <ele>1751.736</ele>
        <time>2021-08-06T15:09:13Z</time>
      </trkpt>
      <trkpt lat="42.6423" lon="1.70341">
        <ele>1751.473</ele>
        <time>2021-08-06T15:09:15Z</time>
      </trkpt>
      <trkpt lat="42.64231" lon="1.70339">
        <ele>1750.694</ele>
        <time>2021-08-06T15:09:17Z</time>
      </trkpt>
      <trkpt lat="42.64234" lon="1.70337">
        <ele>1749.887</ele>
        <time>2021-08-06T15:09:19Z</time>
      </trkpt>
      <trkpt lat="42.64236" lon="1.70336">
        <ele>1749.643</ele>
        <time>2021-08-06T15:09:21Z</time>
      </trkpt>
      <trkpt lat="42.64238" lon="1.70335">
        <ele>1749.403</ele>
        <time>2021-08-06T15:09:23Z</time>
      </trkpt>
      <trkpt lat="42.6424" lon="1.70333">
        <ele>1749.929</ele>
        <time>2021-08-06T15:09:25Z</time>
      </trkpt>
      <trkpt lat="42.64242" lon="1.70332">
        <ele>1750.107</ele>
        <time>2021-08-06T15:09:27Z</time>
      </trkpt>
      <trkpt lat="42.64244" lon="1.7033">
        <ele>1750.383</ele>
        <time>2021-08-06T15:09:29Z</time>
      </trkpt>
      <trkpt lat="42.64246" lon="1.70329">
        <ele>1748.817</ele>
        <time>2021-08-06T15:09:31Z</time>
      </trkpt>
      <trkpt lat="42.64248" lon="1.70328">
        <ele>1748.106</ele>
        <time>2021-08-06T15:09:33Z</time>
      </trkpt>
      <trkpt lat="42.6425" lon="1.70327">
        <ele>1747.188</ele>
        <time>2021-08-06T15:09:35Z</time>
      </trkpt>
      <trkpt lat="42.64251" lon="1.70325">
        <ele>1747.016</ele>
        <time>2021-08-06T15:09:37Z</time>
      </trkpt>
      <trkpt lat="42.64254" lon="1.70323">
        <ele>1746.457</ele>
        <time>2021-08-06T15:09:39Z</time>
      </trkpt>
      <trkpt lat="42.64256" lon="1.70322">
        <ele>1746.666</ele>
        <time>2021-08-06T15:09:41Z</time>
      </trkpt>
      <trkpt lat="42.64258" lon="1.70321">
        <ele>1747.014</ele>
        <time>2021-08-06T15:09:43Z</time>
      </trkpt>
      <trkpt lat="42.6426" lon="1.7032">
        <ele>1746.974</ele>
        <time>2021-08-06T15:09:45Z</time>
      </trkpt>
      <trkpt lat="42.64263" lon="1.7032">
        <ele>1746.833</ele>
        <time>2021-08-06T15:09:47Z</time>
      </trkpt>
      <trkpt lat="42.64265" lon="1.7032">
        <ele>1746.773</ele>
        <time>2021-08-06T15:09:49Z</time>
      </trkpt>
      <trkpt lat="42.64268" lon="1.7032">
        <ele>1746.508</ele>
        <time>2021-08-06T15:09:51Z</time>
      </trkpt>
      <trkpt lat="42.6427" lon="1.7032">
        <ele>1746.726</ele>
        <time>2021-08-06T15:09:53Z</time>
      </trkpt>
      <trkpt lat="42.64272" lon="1.70321">
        <ele>1746.45</ele>
        <time>2021-08-06T15:09:55Z</time>
      </trkpt>
      <trkpt lat="42.64274" lon="1.70321">
        <ele>1746.589</ele>
        <time>2021-08-06T15:09:57Z</time>
      </trkpt>
      <trkpt lat="42.64276" lon="1.7032">
        <ele>1745.433</ele>
        <time>2021-08-06T15:09:59Z</time>
      </trkpt>
      <trkpt lat="42.64278" lon="1.70319">
        <ele>1744.518</ele>
        <time>2021-08-06T15:10:01Z</time>
      </trkpt>
      <trkpt lat="42.6428" lon="1.70318">
        <ele>1743.207</ele>
        <time>2021-08-06T15:10:03Z</time>
      </trkpt>
      <trkpt lat="42.64282" lon="1.70319">
        <ele>1743.467</ele>
        <time>2021-08-06T15:10:05Z</time>
      </trkpt>
      <trkpt lat="42.64284" lon="1.70319">
        <ele>1743.513</ele>
        <time>2021-08-06T15:10:07Z</time>
      </trkpt>
      <trkpt lat="42.64286" lon="1.70318">
        <ele>1742.451</ele>
        <time>2021-08-06T15:10:09Z</time>
      </trkpt>
      <trkpt lat="42.64289" lon="1.70317">
        <ele>1741.478</ele>
        <time>2021-08-06T15:10:11Z</time>
      </trkpt>
      <trkpt lat="42.64291" lon="1.70317">
        <ele>1741.524</ele>
        <time>2021-08-06T15:10:13Z</time>
      </trkpt>
      <trkpt lat="42.64293" lon="1.70316">
        <ele>1741.85</ele>
        <time>2021-08-06T15:10:15Z</time>
      </trkpt>
      <trkpt lat="42.64295" lon="1.70315">
        <ele>1741.354</ele>
        <time>2021-08-06T15:10:17Z</time>
      </trkpt>
      <trkpt lat="42.64297" lon="1.70315">
        <ele>1740.737</ele>
        <time>2021-08-06T15:10:19Z</time>
      </trkpt>
      <trkpt lat="42.64299" lon="1.70315">
        <ele>1740.778</ele>
        <time>2021-08-06T15:10:21Z</time>
      </trkpt>
      <trkpt lat="42.643" lon="1.70316">
        <ele>1740.531</ele>
        <time>2021-08-06T15:10:23Z</time>
      </trkpt>
      <trkpt lat="42.64302" lon="1.70316">
        <ele>1741.562</ele>
        <time>2021-08-06T15:10:25Z</time>
      </trkpt>
      <trkpt lat="42.64304" lon="1.70316">
        <ele>1741.347</ele>
        <time>2021-08-06T15:10:27Z</time>
      </trkpt>
      <trkpt lat="42.64306" lon="1.70318">
        <ele>1741.702</ele>
        <time>2021-08-06T15:10:29Z</time>
      </trkpt>
      <trkpt lat="42.64307" lon="1.70319">
        <ele>1742.242</ele>
        <time>2021-08-06T15:10:31Z</time>
      </trkpt>
      <trkpt lat="42.6431" lon="1.70319">
        <ele>1741.902</ele>
        <time>2021-08-06T15:10:33Z</time>
      </trkpt>
      <trkpt lat="42.64312" lon="1.70319">
        <ele>1741.263</ele>
        <time>2021-08-06T15:10:35Z</time>
      </trkpt>
      <trkpt lat="42.64314" lon="1.70317">
        <ele>1740.077</ele>
        <time>2021-08-06T15:10:37Z</time>
      </trkpt>
      <trkpt lat="42.64315" lon="1.70315">
        <ele>1739.378</ele>
        <time>2021-08-06T15:10:39Z</time>
      </trkpt>
      <trkpt lat="42.64317" lon="1.70313">
        <ele>1738.614</ele>
        <time>2021-08-06T15:10:41Z</time>
      </trkpt>
      <trkpt lat="42.64318" lon="1.70311">
        <ele>1737.288</ele>
        <time>2021-08-06T15:10:43Z</time>
      </trkpt>
      <trkpt lat="42.6432" lon="1.70308">
        <ele>1736.13</ele>
        <time>2021-08-06T15:10:45Z</time>
      </trkpt>
      <trkpt lat="42.64321" lon="1.70306">
        <ele>1736.171</ele>
        <time>2021-08-06T15:10:47Z</time>
      </trkpt>
      <trkpt lat="42.64323" lon="1.70306">
        <ele>1736.545</ele>
        <time>2021-08-06T15:10:49Z</time>
      </trkpt>
      <trkpt lat="42.64325" lon="1.70304">
        <ele>1736.34</ele>
        <time>2021-08-06T15:10:51Z</time>
      </trkpt>
      <trkpt lat="42.64327" lon="1.70303">
        <ele>1736.141</ele>
        <time>2021-08-06T15:10:53Z</time>
      </trkpt>
      <trkpt lat="42.64328" lon="1.70301">
        <ele>1736.028</ele>
        <time>2021-08-06T15:10:55Z</time>
      </trkpt>
      <trkpt lat="42.6433" lon="1.70299">
        <ele>1735.031</ele>
        <time>2021-08-06T15:10:57Z</time>
      </trkpt>
      <trkpt lat="42.64333" lon="1.70298">
        <ele>1734.402</ele>
        <time>2021-08-06T15:10:59Z</time>
      </trkpt>
      <trkpt lat="42.64335" lon="1.70297">
        <ele>1734.216</ele>
        <time>2021-08-06T15:11:01Z</time>
      </trkpt>
      <trkpt lat="42.64337" lon="1.70295">
        <ele>1733.426</ele>
        <time>2021-08-06T15:11:03Z</time>
      </trkpt>
      <trkpt lat="42.64338" lon="1.70293">
        <ele>1732.081</ele>
        <time>2021-08-06T15:11:05Z</time>
      </trkpt>
      <trkpt lat="42.6434" lon="1.70291">
        <ele>1732.014</ele>
        <time>2021-08-06T15:11:07Z</time>
      </trkpt>
      <trkpt lat="42.64342" lon="1.7029">
        <ele>1732.013</ele>
        <time>2021-08-06T15:11:09Z</time>
      </trkpt>
      <trkpt lat="42.64344" lon="1.70289">
        <ele>1731.215</ele>
        <time>2021-08-06T15:11:11Z</time>
      </trkpt>
      <trkpt lat="42.64346" lon="1.70288">
        <ele>1730.875</ele>
        <time>2021-08-06T15:11:13Z</time>
      </trkpt>
      <trkpt lat="42.64348" lon="1.70288">
        <ele>1730.379</ele>
        <time>2021-08-06T15:11:15Z</time>
      </trkpt>
      <trkpt lat="42.6435" lon="1.70289">
        <ele>1729.912</ele>
        <time>2021-08-06T15:11:17Z</time>
      </trkpt>
      <trkpt lat="42.64352" lon="1.70288">
        <ele>1730.734</ele>
        <time>2021-08-06T15:11:19Z</time>
      </trkpt>
      <trkpt lat="42.64354" lon="1.70286">
        <ele>1730.256</ele>
        <time>2021-08-06T15:11:21Z</time>
      </trkpt>
      <trkpt lat="42.64356" lon="1.70285">
        <ele>1730.299</ele>
        <time>2021-08-06T15:11:23Z</time>
      </trkpt>
      <trkpt lat="42.64357" lon="1.70285">
        <ele>1729.599</ele>
        <time>2021-08-06T15:11:25Z</time>
      </trkpt>
      <trkpt lat="42.6436" lon="1.70284">
        <ele>1728.98</ele>
        <time>2021-08-06T15:11:27Z</time>
      </trkpt>
      <trkpt lat="42.64362" lon="1.70283">
        <ele>1729.306</ele>
        <time>2021-08-06T15:11:29Z</time>
      </trkpt>
      <trkpt lat="42.64364" lon="1.70282">
        <ele>1728.35</ele>
        <time>2021-08-06T15:11:31Z</time>
      </trkpt>
      <trkpt lat="42.64366" lon="1.70281">
        <ele>1727.758</ele>
        <time>2021-08-06T15:11:33Z</time>
      </trkpt>
      <trkpt lat="42.64368" lon="1.7028">
        <ele>1727.51</ele>
        <time>2021-08-06T15:11:35Z</time>
      </trkpt>
      <trkpt lat="42.6437" lon="1.7028">
        <ele>1727.142</ele>
        <time>2021-08-06T15:11:37Z</time>
      </trkpt>
      <trkpt lat="42.64372" lon="1.70279">
        <ele>1726.593</ele>
        <time>2021-08-06T15:11:39Z</time>
      </trkpt>
      <trkpt lat="42.64374" lon="1.70278">
        <ele>1726.052</ele>
        <time>2021-08-06T15:11:41Z</time>
      </trkpt>
      <trkpt lat="42.64377" lon="1.70277">
        <ele>1725.52</ele>
        <time>2021-08-06T15:11:43Z</time>
      </trkpt>
      <trkpt lat="42.64379" lon="1.70276">
        <ele>1725.712</ele>
        <time>2021-08-06T15:11:45Z</time>
      </trkpt>
      <trkpt lat="42.64381" lon="1.70275">
        <ele>1725.402</ele>
        <time>2021-08-06T15:11:47Z</time>
      </trkpt>
      <trkpt lat="42.64383" lon="1.70275">
        <ele>1724.509</ele>
        <time>2021-08-06T15:11:49Z</time>
      </trkpt>
      <trkpt lat="42.64385" lon="1.70274">
        <ele>1725.011</ele>
        <time>2021-08-06T15:11:51Z</time>
      </trkpt>
      <trkpt lat="42.64388" lon="1.70274">
        <ele>1724.358</ele>
        <time>2021-08-06T15:11:53Z</time>
      </trkpt>
      <trkpt lat="42.6439" lon="1.70274">
        <ele>1724.38</ele>
        <time>2021-08-06T15:11:55Z</time>
      </trkpt>
      <trkpt lat="42.64392" lon="1.70275">
        <ele>1724.35</ele>
        <time>2021-08-06T15:11:57Z</time>
      </trkpt>
      <trkpt lat="42.64394" lon="1.70276">
        <ele>1724.576</ele>
        <time>2021-08-06T15:11:59Z</time>
      </trkpt>
      <trkpt lat="42.64396" lon="1.70274">
        <ele>1723.922</ele>
        <time>2021-08-06T15:12:01Z</time>
      </trkpt>
      <trkpt lat="42.64398" lon="1.70275">
        <ele>1724.089</ele>
        <time>2021-08-06T15:12:03Z</time>
      </trkpt>
      <trkpt lat="42.64401" lon="1.70275">
        <ele>1722.932</ele>
        <time>2021-08-06T15:12:05Z</time>
      </trkpt>
      <trkpt lat="42.64403" lon="1.70275">
        <ele>1722.822</ele>
        <time>2021-08-06T15:12:07Z</time>
      </trkpt>
      <trkpt lat="42.64405" lon="1.70276">
        <ele>1723.882</ele>
        <time>2021-08-06T15:12:09Z</time>
      </trkpt>
      <trkpt lat="42.64406" lon="1.70277">
        <ele>1723.369</ele>
        <time>2021-08-06T15:12:11Z</time>
      </trkpt>
      <trkpt lat="42.64408" lon="1.70278">
        <ele>1722.358</ele>
        <time>2021-08-06T15:12:13Z</time>
      </trkpt>
      <trkpt lat="42.6441" lon="1.70278">
        <ele>1722.699</ele>
        <time>2021-08-06T15:12:15Z</time>
      </trkpt>
      <trkpt lat="42.64412" lon="1.70279">
        <ele>1722.03</ele>
        <time>2021-08-06T15:12:17Z</time>
      </trkpt>
      <trkpt lat="42.64414" lon="1.70279">
        <ele>1721.937</ele>
        <time>2021-08-06T15:12:19Z</time>
      </trkpt>
      <trkpt lat="42.64416" lon="1.7028">
        <ele>1721.525</ele>
        <time>2021-08-06T15:12:21Z</time>
      </trkpt>
      <trkpt lat="42.64419" lon="1.7028">
        <ele>1719.696</ele>
        <time>2021-08-06T15:12:23Z</time>
      </trkpt>
      <trkpt lat="42.64421" lon="1.70279">
        <ele>1719.271</ele>
        <time>2021-08-06T15:12:25Z</time>
      </trkpt>
      <trkpt lat="42.64424" lon="1.70278">
        <ele>1718.922</ele>
        <time>2021-08-06T15:12:27Z</time>
      </trkpt>
      <trkpt lat="42.64427" lon="1.70278">
        <ele>1717.911</ele>
        <time>2021-08-06T15:12:29Z</time>
      </trkpt>
      <trkpt lat="42.64428" lon="1.70275">
        <ele>1717.252</ele>
        <time>2021-08-06T15:12:31Z</time>
      </trkpt>
      <trkpt lat="42.6443" lon="1.70274">
        <ele>1717.233</ele>
        <time>2021-08-06T15:12:33Z</time>
      </trkpt>
      <trkpt lat="42.64432" lon="1.70274">
        <ele>1718.269</ele>
        <time>2021-08-06T15:12:35Z</time>
      </trkpt>
      <trkpt lat="42.64434" lon="1.70273">
        <ele>1718.306</ele>
        <time>2021-08-06T15:12:37Z</time>
      </trkpt>
      <trkpt lat="42.64436" lon="1.70272">
        <ele>1716.883</ele>
        <time>2021-08-06T15:12:39Z</time>
      </trkpt>
      <trkpt lat="42.64438" lon="1.70271">
        <ele>1716.583</ele>
        <time>2021-08-06T15:12:41Z</time>
      </trkpt>
      <trkpt lat="42.6444" lon="1.7027">
        <ele>1717.64</ele>
        <time>2021-08-06T15:12:43Z</time>
      </trkpt>
      <trkpt lat="42.64443" lon="1.7027">
        <ele>1718.304</ele>
        <time>2021-08-06T15:12:45Z</time>
      </trkpt>
      <trkpt lat="42.64445" lon="1.70269">
        <ele>1719.968</ele>
        <time>2021-08-06T15:12:47Z</time>
      </trkpt>
      <trkpt lat="42.64448" lon="1.70267">
        <ele>1719.681</ele>
        <time>2021-08-06T15:12:49Z</time>
      </trkpt>
      <trkpt lat="42.6445" lon="1.70266">
        <ele>1718.386</ele>
        <time>2021-08-06T15:12:51Z</time>
      </trkpt>
      <trkpt lat="42.64452" lon="1.70265">
        <ele>1718.552</ele>
        <time>2021-08-06T15:12:53Z</time>
      </trkpt>
      <trkpt lat="42.64454" lon="1.70265">
        <ele>1718.836</ele>
        <time>2021-08-06T15:12:55Z</time>
      </trkpt>
      <trkpt lat="42.64456" lon="1.70265">
        <ele>1718.646</ele>
        <time>2021-08-06T15:12:57Z</time>
      </trkpt>
      <trkpt lat="42.64458" lon="1.70267">
        <ele>1718.516</ele>
        <time>2021-08-06T15:12:59Z</time>
      </trkpt>
      <trkpt lat="42.6446" lon="1.70267">
        <ele>1719.804</ele>
        <time>2021-08-06T15:13:01Z</time>
      </trkpt>
      <trkpt lat="42.64462" lon="1.70267">
        <ele>1719.869</ele>
        <time>2021-08-06T15:13:03Z</time>
      </trkpt>
      <trkpt lat="42.64464" lon="1.70267">
        <ele>1718.296</ele>
        <time>2021-08-06T15:13:05Z</time>
      </trkpt>
      <trkpt lat="42.64466" lon="1.70267">
        <ele>1717.414</ele>
        <time>2021-08-06T15:13:07Z</time>
      </trkpt>
      <trkpt lat="42.6447" lon="1.70265">
        <ele>1717.27</ele>
        <time>2021-08-06T15:13:09Z</time>
      </trkpt>
      <trkpt lat="42.64472" lon="1.70265">
        <ele>1717.485</ele>
        <time>2021-08-06T15:13:11Z</time>
      </trkpt>
      <trkpt lat="42.64474" lon="1.70265">
        <ele>1717.46</ele>
        <time>2021-08-06T15:13:13Z</time>
      </trkpt>
      <trkpt lat="42.64476" lon="1.70267">
        <ele>1717.82</ele>
        <time>2021-08-06T15:13:15Z</time>
      </trkpt>
      <trkpt lat="42.64478" lon="1.70267">
        <ele>1718.771</ele>
        <time>2021-08-06T15:13:17Z</time>
      </trkpt>
      <trkpt lat="42.6448" lon="1.70266">
        <ele>1718.285</ele>
        <time>2021-08-06T15:13:19Z</time>
      </trkpt>
      <trkpt lat="42.64482" lon="1.70267">
        <ele>1718.819</ele>
        <time>2021-08-06T15:13:21Z</time>
      </trkpt>
      <trkpt lat="42.64485" lon="1.70267">
        <ele>1718.989</ele>
        <time>2021-08-06T15:13:23Z</time>
      </trkpt>
      <trkpt lat="42.64487" lon="1.70266">
        <ele>1719.24</ele>
        <time>2021-08-06T15:13:25Z</time>
      </trkpt>
      <trkpt lat="42.64488" lon="1.70267">
        <ele>1719.464</ele>
        <time>2021-08-06T15:13:27Z</time>
      </trkpt>
      <trkpt lat="42.6449" lon="1.70268">
        <ele>1719.482</ele>
        <time>2021-08-06T15:13:29Z</time>
      </trkpt>
      <trkpt lat="42.64492" lon="1.70269">
        <ele>1719.442</ele>
        <time>2021-08-06T15:13:31Z</time>
      </trkpt>
      <trkpt lat="42.64494" lon="1.70268">
        <ele>1719.089</ele>
        <time>2021-08-06T15:13:33Z</time>
      </trkpt>
      <trkpt lat="42.64496" lon="1.70268">
        <ele>1718.581</ele>
        <time>2021-08-06T15:13:35Z</time>
      </trkpt>
      <trkpt lat="42.64498" lon="1.70269">
        <ele>1719.355</ele>
        <time>2021-08-06T15:13:37Z</time>
      </trkpt>
      <trkpt lat="42.645" lon="1.7027">
        <ele>1717.863</ele>
        <time>2021-08-06T15:13:39Z</time>
      </trkpt>
      <trkpt lat="42.64501" lon="1.7027">
        <ele>1718.254</ele>
        <time>2021-08-06T15:13:41Z</time>
      </trkpt>
      <trkpt lat="42.64502" lon="1.7027">
        <ele>1717.984</ele>
        <time>2021-08-06T15:13:43Z</time>
      </trkpt>
      <trkpt lat="42.64504" lon="1.70268">
        <ele>1716.883</ele>
        <time>2021-08-06T15:13:45Z</time>
      </trkpt>
      <trkpt lat="42.64505" lon="1.70265">
        <ele>1716.58</ele>
        <time>2021-08-06T15:13:47Z</time>
      </trkpt>
      <trkpt lat="42.64507" lon="1.70264">
        <ele>1717.494</ele>
        <time>2021-08-06T15:13:49Z</time>
      </trkpt>
      <trkpt lat="42.64509" lon="1.70266">
        <ele>1718.013</ele>
        <time>2021-08-06T15:13:51Z</time>
      </trkpt>
      <trkpt lat="42.64511" lon="1.70266">
        <ele>1717.722</ele>
        <time>2021-08-06T15:13:53Z</time>
      </trkpt>
      <trkpt lat="42.64513" lon="1.70265">
        <ele>1717.816</ele>
        <time>2021-08-06T15:13:55Z</time>
      </trkpt>
      <trkpt lat="42.64515" lon="1.70264">
        <ele>1717.556</ele>
        <time>2021-08-06T15:13:57Z</time>
      </trkpt>
      <trkpt lat="42.64516" lon="1.70264">
        <ele>1717.55</ele>
        <time>2021-08-06T15:13:59Z</time>
      </trkpt>
      <trkpt lat="42.64519" lon="1.70264">
        <ele>1717.628</ele>
        <time>2021-08-06T15:14:01Z</time>
      </trkpt>
      <trkpt lat="42.64521" lon="1.70264">
        <ele>1718.019</ele>
        <time>2021-08-06T15:14:03Z</time>
      </trkpt>
      <trkpt lat="42.64523" lon="1.70264">
        <ele>1717.971</ele>
        <time>2021-08-06T15:14:05Z</time>
      </trkpt>
      <trkpt lat="42.64526" lon="1.70265">
        <ele>1718.19</ele>
        <time>2021-08-06T15:14:07Z</time>
      </trkpt>
      <trkpt lat="42.64527" lon="1.70267">
        <ele>1718.033</ele>
        <time>2021-08-06T15:14:09Z</time>
      </trkpt>
      <trkpt lat="42.6453" lon="1.70268">
        <ele>1717.995</ele>
        <time>2021-08-06T15:14:11Z</time>
      </trkpt>
      <trkpt lat="42.64531" lon="1.70267">
        <ele>1718.626</ele>
        <time>2021-08-06T15:14:13Z</time>
      </trkpt>
      <trkpt lat="42.64533" lon="1.70267">
        <ele>1718.564</ele>
        <time>2021-08-06T15:14:15Z</time>
      </trkpt>
      <trkpt lat="42.64535" lon="1.70266">
        <ele>1718.902</ele>
        <time>2021-08-06T15:14:17Z</time>
      </trkpt>
      <trkpt lat="42.64536" lon="1.70266">
        <ele>1718.366</ele>
        <time>2021-08-06T15:14:19Z</time>
      </trkpt>
      <trkpt lat="42.64539" lon="1.70267">
        <ele>1718.172</ele>
        <time>2021-08-06T15:14:21Z</time>
      </trkpt>
      <trkpt lat="42.6454" lon="1.70268">
        <ele>1718.122</ele>
        <time>2021-08-06T15:14:23Z</time>
      </trkpt>
      <trkpt lat="42.64543" lon="1.70267">
        <ele>1719.43</ele>
        <time>2021-08-06T15:14:25Z</time>
      </trkpt>
      <trkpt lat="42.64545" lon="1.70266">
        <ele>1721.332</ele>
        <time>2021-08-06T15:14:27Z</time>
      </trkpt>
      <trkpt lat="42.64546" lon="1.70267">
        <ele>1721.67</ele>
        <time>2021-08-06T15:14:29Z</time>
      </trkpt>
      <trkpt lat="42.64548" lon="1.70267">
        <ele>1721.398</ele>
        <time>2021-08-06T15:14:31Z</time>
      </trkpt>
      <trkpt lat="42.64549" lon="1.70268">
        <ele>1720.918</ele>
        <time>2021-08-06T15:14:33Z</time>
      </trkpt>
      <trkpt lat="42.64551" lon="1.70268">
        <ele>1720.402</ele>
        <time>2021-08-06T15:14:35Z</time>
      </trkpt>
      <trkpt lat="42.64552" lon="1.70267">
        <ele>1719.678</ele>
        <time>2021-08-06T15:14:37Z</time>
      </trkpt>
      <trkpt lat="42.64553" lon="1.70267">
        <ele>1719.538</ele>
        <time>2021-08-06T15:14:39Z</time>
      </trkpt>
      <trkpt lat="42.64554" lon="1.70269">
        <ele>1719.533</ele>
        <time>2021-08-06T15:14:41Z</time>
      </trkpt>
      <trkpt lat="42.64555" lon="1.7027">
        <ele>1719.135</ele>
        <time>2021-08-06T15:14:43Z</time>
      </trkpt>
      <trkpt lat="42.64556" lon="1.70271">
        <ele>1719.322</ele>
        <time>2021-08-06T15:14:45Z</time>
      </trkpt>
      <trkpt lat="42.64557" lon="1.70271">
        <ele>1719.294</ele>
        <time>2021-08-06T15:14:47Z</time>
      </trkpt>
      <trkpt lat="42.64559" lon="1.70271">
        <ele>1719.604</ele>
        <time>2021-08-06T15:14:49Z</time>
      </trkpt>
      <trkpt lat="42.64561" lon="1.70269">
        <ele>1720.382</ele>
        <time>2021-08-06T15:14:51Z</time>
      </trkpt>
      <trkpt lat="42.64563" lon="1.7027">
        <ele>1719.707</ele>
        <time>2021-08-06T15:14:53Z</time>
      </trkpt>
      <trkpt lat="42.64565" lon="1.7027">
        <ele>1720.725</ele>
        <time>2021-08-06T15:14:55Z</time>
      </trkpt>
      <trkpt lat="42.64566" lon="1.70269">
        <ele>1720.74</ele>
        <time>2021-08-06T15:14:57Z</time>
      </trkpt>
      <trkpt lat="42.64568" lon="1.70268">
        <ele>1721.829</ele>
        <time>2021-08-06T15:14:59Z</time>
      </trkpt>
      <trkpt lat="42.64569" lon="1.70267">
        <ele>1722.317</ele>
        <time>2021-08-06T15:15:01Z</time>
      </trkpt>
      <trkpt lat="42.64571" lon="1.70268">
        <ele>1721.769</ele>
        <time>2021-08-06T15:15:03Z</time>
      </trkpt>
      <trkpt lat="42.64572" lon="1.70268">
        <ele>1722.373</ele>
        <time>2021-08-06T15:15:05Z</time>
      </trkpt>
      <trkpt lat="42.64574" lon="1.70269">
        <ele>1722.588</ele>
        <time>2021-08-06T15:15:07Z</time>
      </trkpt>
      <trkpt lat="42.64575" lon="1.70269">
        <ele>1722.513</ele>
        <time>2021-08-06T15:15:09Z</time>
      </trkpt>
      <trkpt lat="42.64577" lon="1.7027">
        <ele>1722.533</ele>
        <time>2021-08-06T15:15:11Z</time>
      </trkpt>
      <trkpt lat="42.64578" lon="1.70271">
        <ele>1722.826</ele>
        <time>2021-08-06T15:15:13Z</time>
      </trkpt>
      <trkpt lat="42.6458" lon="1.70271">
        <ele>1722.593</ele>
        <time>2021-08-06T15:15:15Z</time>
      </trkpt>
      <trkpt lat="42.64582" lon="1.70271">
        <ele>1722.673</ele>
        <time>2021-08-06T15:15:17Z</time>
      </trkpt>
      <trkpt lat="42.64585" lon="1.70271">
        <ele>1721.669</ele>
        <time>2021-08-06T15:15:19Z</time>
      </trkpt>
      <trkpt lat="42.64587" lon="1.70272">
        <ele>1722.17</ele>
        <time>2021-08-06T15:15:21Z</time>
      </trkpt>
      <trkpt lat="42.64589" lon="1.70273">
        <ele>1722.287</ele>
        <time>2021-08-06T15:15:23Z</time>
      </trkpt>
      <trkpt lat="42.64592" lon="1.70274">
        <ele>1722.914</ele>
        <time>2021-08-06T15:15:25Z</time>
      </trkpt>
      <trkpt lat="42.64595" lon="1.70274">
        <ele>1723.023</ele>
        <time>2021-08-06T15:15:27Z</time>
      </trkpt>
      <trkpt lat="42.64597" lon="1.70275">
        <ele>1722.858</ele>
        <time>2021-08-06T15:15:29Z</time>
      </trkpt>
      <trkpt lat="42.64599" lon="1.70274">
        <ele>1723.116</ele>
        <time>2021-08-06T15:15:31Z</time>
      </trkpt>
      <trkpt lat="42.64601" lon="1.70274">
        <ele>1723.729</ele>
        <time>2021-08-06T15:15:33Z</time>
      </trkpt>
      <trkpt lat="42.64604" lon="1.70274">
        <ele>1723.517</ele>
        <time>2021-08-06T15:15:35Z</time>
      </trkpt>
      <trkpt lat="42.64606" lon="1.70275">
        <ele>1722.806</ele>
        <time>2021-08-06T15:15:37Z</time>
      </trkpt>
      <trkpt lat="42.64608" lon="1.70274">
        <ele>1722.152</ele>
        <time>2021-08-06T15:15:39Z</time>
      </trkpt>
      <trkpt lat="42.6461" lon="1.70274">
        <ele>1722.125</ele>
        <time>2021-08-06T15:15:41Z</time>
      </trkpt>
      <trkpt lat="42.64613" lon="1.70273">
        <ele>1723.206</ele>
        <time>2021-08-06T15:15:43Z</time>
      </trkpt>
      <trkpt lat="42.64615" lon="1.70272">
        <ele>1723.957</ele>
        <time>2021-08-06T15:15:45Z</time>
      </trkpt>
      <trkpt lat="42.64617" lon="1.70272">
        <ele>1723.852</ele>
        <time>2021-08-06T15:15:47Z</time>
      </trkpt>
      <trkpt lat="42.6462" lon="1.70273">
        <ele>1723.816</ele>
        <time>2021-08-06T15:15:49Z</time>
      </trkpt>
      <trkpt lat="42.64622" lon="1.70273">
        <ele>1724.176</ele>
        <time>2021-08-06T15:15:51Z</time>
      </trkpt>
      <trkpt lat="42.64624" lon="1.70274">
        <ele>1724.423</ele>
        <time>2021-08-06T15:15:53Z</time>
      </trkpt>
      <trkpt lat="42.64627" lon="1.70274">
        <ele>1724.09</ele>
        <time>2021-08-06T15:15:55Z</time>
      </trkpt>
      <trkpt lat="42.64629" lon="1.70275">
        <ele>1724.204</ele>
        <time>2021-08-06T15:15:57Z</time>
      </trkpt>
      <trkpt lat="42.64632" lon="1.70274">
        <ele>1724.152</ele>
        <time>2021-08-06T15:15:59Z</time>
      </trkpt>
      <trkpt lat="42.64634" lon="1.70276">
        <ele>1723.999</ele>
        <time>2021-08-06T15:16:01Z</time>
      </trkpt>
      <trkpt lat="42.64637" lon="1.70277">
        <ele>1724.07</ele>
        <time>2021-08-06T15:16:03Z</time>
      </trkpt>
      <trkpt lat="42.64639" lon="1.70278">
        <ele>1724.571</ele>
        <time>2021-08-06T15:16:05Z</time>
      </trkpt>
      <trkpt lat="42.64642" lon="1.70278">
        <ele>1724.537</ele>
        <time>2021-08-06T15:16:07Z</time>
      </trkpt>
      <trkpt lat="42.64644" lon="1.7028">
        <ele>1724.278</ele>
        <time>2021-08-06T15:16:09Z</time>
      </trkpt>
      <trkpt lat="42.64645" lon="1.70282">
        <ele>1723.595</ele>
        <time>2021-08-06T15:16:11Z</time>
      </trkpt>
      <trkpt lat="42.64647" lon="1.70283">
        <ele>1723.183</ele>
        <time>2021-08-06T15:16:13Z</time>
      </trkpt>
      <trkpt lat="42.6465" lon="1.70285">
        <ele>1723.837</ele>
        <time>2021-08-06T15:16:15Z</time>
      </trkpt>
      <trkpt lat="42.64652" lon="1.70286">
        <ele>1724.127</ele>
        <time>2021-08-06T15:16:17Z</time>
      </trkpt>
      <trkpt lat="42.64653" lon="1.70287">
        <ele>1723.259</ele>
        <time>2021-08-06T15:16:19Z</time>
      </trkpt>
      <trkpt lat="42.64655" lon="1.70288">
        <ele>1722.634</ele>
        <time>2021-08-06T15:16:21Z</time>
      </trkpt>
      <trkpt lat="42.64657" lon="1.7029">
        <ele>1721.581</ele>
        <time>2021-08-06T15:16:23Z</time>
      </trkpt>
      <trkpt lat="42.64658" lon="1.70291">
        <ele>1720.76</ele>
        <time>2021-08-06T15:16:25Z</time>
      </trkpt>
      <trkpt lat="42.64661" lon="1.70292">
        <ele>1720.748</ele>
        <time>2021-08-06T15:16:27Z</time>
      </trkpt>
      <trkpt lat="42.64663" lon="1.70292">
        <ele>1720.482</ele>
        <time>2021-08-06T15:16:29Z</time>
      </trkpt>
      <trkpt lat="42.64665" lon="1.70292">
        <ele>1720.047</ele>
        <time>2021-08-06T15:16:31Z</time>
      </trkpt>
      <trkpt lat="42.64667" lon="1.70293">
        <ele>1719.227</ele>
        <time>2021-08-06T15:16:33Z</time>
      </trkpt>
      <trkpt lat="42.6467" lon="1.70294">
        <ele>1718.929</ele>
        <time>2021-08-06T15:16:35Z</time>
      </trkpt>
      <trkpt lat="42.64672" lon="1.70295">
        <ele>1718.491</ele>
        <time>2021-08-06T15:16:37Z</time>
      </trkpt>
      <trkpt lat="42.64674" lon="1.70295">
        <ele>1718.626</ele>
        <time>2021-08-06T15:16:39Z</time>
      </trkpt>
      <trkpt lat="42.64676" lon="1.70295">
        <ele>1718.734</ele>
        <time>2021-08-06T15:16:41Z</time>
      </trkpt>
      <trkpt lat="42.64678" lon="1.70296">
        <ele>1718.812</ele>
        <time>2021-08-06T15:16:43Z</time>
      </trkpt>
      <trkpt lat="42.6468" lon="1.70298">
        <ele>1719.023</ele>
        <time>2021-08-06T15:16:45Z</time>
      </trkpt>
      <trkpt lat="42.64681" lon="1.703">
        <ele>1718.731</ele>
        <time>2021-08-06T15:16:47Z</time>
      </trkpt>
      <trkpt lat="42.64683" lon="1.70301">
        <ele>1718.984</ele>
        <time>2021-08-06T15:16:49Z</time>
      </trkpt>
      <trkpt lat="42.64685" lon="1.70301">
        <ele>1718.444</ele>
        <time>2021-08-06T15:16:51Z</time>
      </trkpt>
      <trkpt lat="42.64687" lon="1.70301">
        <ele>1718.838</ele>
        <time>2021-08-06T15:16:53Z</time>
      </trkpt>
      <trkpt lat="42.64689" lon="1.703">
        <ele>1719.428</ele>
        <time>2021-08-06T15:16:55Z</time>
      </trkpt>
      <trkpt lat="42.64691" lon="1.70301">
        <ele>1719.615</ele>
        <time>2021-08-06T15:16:57Z</time>
      </trkpt>
      <trkpt lat="42.64691" lon="1.70302">
        <ele>1719.066</ele>
        <time>2021-08-06T15:16:59Z</time>
      </trkpt>
      <trkpt lat="42.64692" lon="1.70303">
        <ele>1719.523</ele>
        <time>2021-08-06T15:17:01Z</time>
      </trkpt>
      <trkpt lat="42.64694" lon="1.70304">
        <ele>1718.01</ele>
        <time>2021-08-06T15:17:03Z</time>
      </trkpt>
      <trkpt lat="42.64696" lon="1.70304">
        <ele>1717.366</ele>
        <time>2021-08-06T15:17:05Z</time>
      </trkpt>
      <trkpt lat="42.64698" lon="1.70304">
        <ele>1717.221</ele>
        <time>2021-08-06T15:17:07Z</time>
      </trkpt>
      <trkpt lat="42.64699" lon="1.70304">
        <ele>1718.107</ele>
        <time>2021-08-06T15:17:09Z</time>
      </trkpt>
      <trkpt lat="42.64701" lon="1.70303">
        <ele>1718.118</ele>
        <time>2021-08-06T15:17:11Z</time>
      </trkpt>
      <trkpt lat="42.64703" lon="1.70304">
        <ele>1717.339</ele>
        <time>2021-08-06T15:17:13Z</time>
      </trkpt>
      <trkpt lat="42.64704" lon="1.70303">
        <ele>1716.51</ele>
        <time>2021-08-06T15:17:15Z</time>
      </trkpt>
      <trkpt lat="42.64705" lon="1.70303">
        <ele>1716.828</ele>
        <time>2021-08-06T15:17:17Z</time>
      </trkpt>
      <trkpt lat="42.64707" lon="1.70304">
        <ele>1717.136</ele>
        <time>2021-08-06T15:17:19Z</time>
      </trkpt>
      <trkpt lat="42.64708" lon="1.70302">
        <ele>1716.715</ele>
        <time>2021-08-06T15:17:21Z</time>
      </trkpt>
      <trkpt lat="42.64709" lon="1.70299">
        <ele>1716.413</ele>
        <time>2021-08-06T15:17:23Z</time>
      </trkpt>
      <trkpt lat="42.64711" lon="1.70298">
        <ele>1717.186</ele>
        <time>2021-08-06T15:17:25Z</time>
      </trkpt>
      <trkpt lat="42.64712" lon="1.70297">
        <ele>1716.12</ele>
        <time>2021-08-06T15:17:27Z</time>
      </trkpt>
      <trkpt lat="42.64714" lon="1.70296">
        <ele>1715.083</ele>
        <time>2021-08-06T15:17:29Z</time>
      </trkpt>
      <trkpt lat="42.64716" lon="1.70296">
        <ele>1714.795</ele>
        <time>2021-08-06T15:17:31Z</time>
      </trkpt>
      <trkpt lat="42.64717" lon="1.70296">
        <ele>1714.264</ele>
        <time>2021-08-06T15:17:33Z</time>
      </trkpt>
      <trkpt lat="42.64719" lon="1.70295">
        <ele>1713.516</ele>
        <time>2021-08-06T15:17:35Z</time>
      </trkpt>
      <trkpt lat="42.64721" lon="1.70295">
        <ele>1713.139</ele>
        <time>2021-08-06T15:17:37Z</time>
      </trkpt>
      <trkpt lat="42.64723" lon="1.70295">
        <ele>1712.757</ele>
        <time>2021-08-06T15:17:39Z</time>
      </trkpt>
      <trkpt lat="42.64725" lon="1.70295">
        <ele>1712.676</ele>
        <time>2021-08-06T15:17:41Z</time>
      </trkpt>
      <trkpt lat="42.64727" lon="1.70296">
        <ele>1712.753</ele>
        <time>2021-08-06T15:17:43Z</time>
      </trkpt>
      <trkpt lat="42.6473" lon="1.70296">
        <ele>1711.801</ele>
        <time>2021-08-06T15:17:45Z</time>
      </trkpt>
      <trkpt lat="42.64732" lon="1.70296">
        <ele>1713.384</ele>
        <time>2021-08-06T15:17:47Z</time>
      </trkpt>
      <trkpt lat="42.64734" lon="1.70296">
        <ele>1712.902</ele>
        <time>2021-08-06T15:17:49Z</time>
      </trkpt>
      <trkpt lat="42.64736" lon="1.70297">
        <ele>1712.568</ele>
        <time>2021-08-06T15:17:51Z</time>
      </trkpt>
      <trkpt lat="42.64738" lon="1.70296">
        <ele>1712.157</ele>
        <time>2021-08-06T15:17:53Z</time>
      </trkpt>
      <trkpt lat="42.6474" lon="1.70297">
        <ele>1711.783</ele>
        <time>2021-08-06T15:17:55Z</time>
      </trkpt>
      <trkpt lat="42.64742" lon="1.70297">
        <ele>1711.964</ele>
        <time>2021-08-06T15:17:57Z</time>
      </trkpt>
      <trkpt lat="42.64744" lon="1.70298">
        <ele>1710.306</ele>
        <time>2021-08-06T15:17:59Z</time>
      </trkpt>
      <trkpt lat="42.64746" lon="1.70299">
        <ele>1710.136</ele>
        <time>2021-08-06T15:18:01Z</time>
      </trkpt>
      <trkpt lat="42.64748" lon="1.70301">
        <ele>1709.708</ele>
        <time>2021-08-06T15:18:03Z</time>
      </trkpt>
      <trkpt lat="42.64749" lon="1.70303">
        <ele>1708.73</ele>
        <time>2021-08-06T15:18:05Z</time>
      </trkpt>
      <trkpt lat="42.64749" lon="1.70306">
        <ele>1709.268</ele>
        <time>2021-08-06T15:18:07Z</time>
      </trkpt>
      <trkpt lat="42.64751" lon="1.70308">
        <ele>1708.348</ele>
        <time>2021-08-06T15:18:09Z</time>
      </trkpt>
      <trkpt lat="42.64753" lon="1.7031">
        <ele>1707.715</ele>
        <time>2021-08-06T15:18:11Z</time>
      </trkpt>
      <trkpt lat="42.64755" lon="1.70311">
        <ele>1706.923</ele>
        <time>2021-08-06T15:18:13Z</time>
      </trkpt>
      <trkpt lat="42.64757" lon="1.70311">
        <ele>1706.626</ele>
        <time>2021-08-06T15:18:15Z</time>
      </trkpt>
      <trkpt lat="42.6476" lon="1.7031">
        <ele>1706.591</ele>
        <time>2021-08-06T15:18:17Z</time>
      </trkpt>
      <trkpt lat="42.64762" lon="1.70311">
        <ele>1705.943</ele>
        <time>2021-08-06T15:18:19Z</time>
      </trkpt>
      <trkpt lat="42.64763" lon="1.70311">
        <ele>1705.635</ele>
        <time>2021-08-06T15:18:21Z</time>
      </trkpt>
      <trkpt lat="42.64765" lon="1.70313">
        <ele>1705.291</ele>
        <time>2021-08-06T15:18:23Z</time>
      </trkpt>
      <trkpt lat="42.64768" lon="1.70315">
        <ele>1705.274</ele>
        <time>2021-08-06T15:18:25Z</time>
      </trkpt>
      <trkpt lat="42.6477" lon="1.70316">
        <ele>1704.799</ele>
        <time>2021-08-06T15:18:27Z</time>
      </trkpt>
      <trkpt lat="42.64772" lon="1.70316">
        <ele>1704.445</ele>
        <time>2021-08-06T15:18:29Z</time>
      </trkpt>
      <trkpt lat="42.64774" lon="1.70317">
        <ele>1704.381</ele>
        <time>2021-08-06T15:18:31Z</time>
      </trkpt>
      <trkpt lat="42.64776" lon="1.70317">
        <ele>1704.124</ele>
        <time>2021-08-06T15:18:33Z</time>
      </trkpt>
      <trkpt lat="42.64778" lon="1.70317">
        <ele>1702.688</ele>
        <time>2021-08-06T15:18:35Z</time>
      </trkpt>
      <trkpt lat="42.6478" lon="1.70315">
        <ele>1702.338</ele>
        <time>2021-08-06T15:18:37Z</time>
      </trkpt>
      <trkpt lat="42.64782" lon="1.70313">
        <ele>1701.524</ele>
        <time>2021-08-06T15:18:39Z</time>
      </trkpt>
      <trkpt lat="42.64784" lon="1.70311">
        <ele>1700.949</ele>
        <time>2021-08-06T15:18:41Z</time>
      </trkpt>
      <trkpt lat="42.64786" lon="1.70309">
        <ele>1700.643</ele>
        <time>2021-08-06T15:18:43Z</time>
      </trkpt>
      <trkpt lat="42.64788" lon="1.70309">
        <ele>1701.333</ele>
        <time>2021-08-06T15:18:45Z</time>
      </trkpt>
      <trkpt lat="42.64791" lon="1.7031">
        <ele>1701.862</ele>
        <time>2021-08-06T15:18:47Z</time>
      </trkpt>
      <trkpt lat="42.64793" lon="1.7031">
        <ele>1702.005</ele>
        <time>2021-08-06T15:18:49Z</time>
      </trkpt>
      <trkpt lat="42.64795" lon="1.70311">
        <ele>1702.105</ele>
        <time>2021-08-06T15:18:51Z</time>
      </trkpt>
      <trkpt lat="42.64798" lon="1.70313">
        <ele>1701.874</ele>
        <time>2021-08-06T15:18:53Z</time>
      </trkpt>
      <trkpt lat="42.648" lon="1.70314">
        <ele>1700.811</ele>
        <time>2021-08-06T15:18:55Z</time>
      </trkpt>
      <trkpt lat="42.64803" lon="1.70315">
        <ele>1700.933</ele>
        <time>2021-08-06T15:18:57Z</time>
      </trkpt>
      <trkpt lat="42.64805" lon="1.70314">
        <ele>1701.297</ele>
        <time>2021-08-06T15:18:59Z</time>
      </trkpt>
      <trkpt lat="42.64808" lon="1.70314">
        <ele>1701.318</ele>
        <time>2021-08-06T15:19:01Z</time>
      </trkpt>
      <trkpt lat="42.6481" lon="1.70314">
        <ele>1701.037</ele>
        <time>2021-08-06T15:19:03Z</time>
      </trkpt>
      <trkpt lat="42.64812" lon="1.70315">
        <ele>1700.543</ele>
        <time>2021-08-06T15:19:05Z</time>
      </trkpt>
      <trkpt lat="42.64814" lon="1.70316">
        <ele>1700.989</ele>
        <time>2021-08-06T15:19:07Z</time>
      </trkpt>
      <trkpt lat="42.64816" lon="1.70318">
        <ele>1701.015</ele>
        <time>2021-08-06T15:19:09Z</time>
      </trkpt>
      <trkpt lat="42.64818" lon="1.70319">
        <ele>1700.607</ele>
        <time>2021-08-06T15:19:11Z</time>
      </trkpt>
      <trkpt lat="42.6482" lon="1.70321">
        <ele>1700.389</ele>
        <time>2021-08-06T15:19:13Z</time>
      </trkpt>
      <trkpt lat="42.64822" lon="1.70323">
        <ele>1699.883</ele>
        <time>2021-08-06T15:19:15Z</time>
      </trkpt>
      <trkpt lat="42.64824" lon="1.70323">
        <ele>1700.099</ele>
        <time>2021-08-06T15:19:17Z</time>
      </trkpt>
      <trkpt lat="42.64827" lon="1.70323">
        <ele>1699.871</ele>
        <time>2021-08-06T15:19:19Z</time>
      </trkpt>
      <trkpt lat="42.64829" lon="1.70324">
        <ele>1699.771</ele>
        <time>2021-08-06T15:19:21Z</time>
      </trkpt>
      <trkpt lat="42.64832" lon="1.70324">
        <ele>1700.434</ele>
        <time>2021-08-06T15:19:23Z</time>
      </trkpt>
      <trkpt lat="42.64835" lon="1.70325">
        <ele>1701.289</ele>
        <time>2021-08-06T15:19:25Z</time>
      </trkpt>
      <trkpt lat="42.64838" lon="1.70325">
        <ele>1700.478</ele>
        <time>2021-08-06T15:19:27Z</time>
      </trkpt>
      <trkpt lat="42.6484" lon="1.70325">
        <ele>1700.514</ele>
        <time>2021-08-06T15:19:29Z</time>
      </trkpt>
      <trkpt lat="42.64842" lon="1.70326">
        <ele>1699.874</ele>
        <time>2021-08-06T15:19:31Z</time>
      </trkpt>
      <trkpt lat="42.64844" lon="1.70327">
        <ele>1699.974</ele>
        <time>2021-08-06T15:19:33Z</time>
      </trkpt>
      <trkpt lat="42.64846" lon="1.70328">
        <ele>1699.499</ele>
        <time>2021-08-06T15:19:35Z</time>
      </trkpt>
      <trkpt lat="42.64848" lon="1.70329">
        <ele>1699.577</ele>
        <time>2021-08-06T15:19:37Z</time>
      </trkpt>
      <trkpt lat="42.6485" lon="1.7033">
        <ele>1699.884</ele>
        <time>2021-08-06T15:19:39Z</time>
      </trkpt>
      <trkpt lat="42.64852" lon="1.7033">
        <ele>1699.887</ele>
        <time>2021-08-06T15:19:41Z</time>
      </trkpt>
      <trkpt lat="42.64854" lon="1.70331">
        <ele>1699.936</ele>
        <time>2021-08-06T15:19:43Z</time>
      </trkpt>
      <trkpt lat="42.64857" lon="1.70331">
        <ele>1700.31</ele>
        <time>2021-08-06T15:19:45Z</time>
      </trkpt>
      <trkpt lat="42.6486" lon="1.70332">
        <ele>1700.353</ele>
        <time>2021-08-06T15:19:47Z</time>
      </trkpt>
      <trkpt lat="42.64862" lon="1.70332">
        <ele>1699.941</ele>
        <time>2021-08-06T15:19:49Z</time>
      </trkpt>
      <trkpt lat="42.64864" lon="1.70332">
        <ele>1701.57</ele>
        <time>2021-08-06T15:19:51Z</time>
      </trkpt>
      <trkpt lat="42.64866" lon="1.70333">
        <ele>1702.05</ele>
        <time>2021-08-06T15:19:53Z</time>
      </trkpt>
      <trkpt lat="42.64868" lon="1.70333">
        <ele>1701.878</ele>
        <time>2021-08-06T15:19:55Z</time>
      </trkpt>
      <trkpt lat="42.6487" lon="1.70331">
        <ele>1702.703</ele>
        <time>2021-08-06T15:19:57Z</time>
      </trkpt>
      <trkpt lat="42.64872" lon="1.70332">
        <ele>1701.14</ele>
        <time>2021-08-06T15:19:59Z</time>
      </trkpt>
      <trkpt lat="42.64874" lon="1.70332">
        <ele>1700.979</ele>
        <time>2021-08-06T15:20:01Z</time>
      </trkpt>
      <trkpt lat="42.64876" lon="1.70332">
        <ele>1701.404</ele>
        <time>2021-08-06T15:20:03Z</time>
      </trkpt>
      <trkpt lat="42.64878" lon="1.70333">
        <ele>1701.102</ele>
        <time>2021-08-06T15:20:05Z</time>
      </trkpt>
      <trkpt lat="42.6488" lon="1.70333">
        <ele>1701.297</ele>
        <time>2021-08-06T15:20:07Z</time>
      </trkpt>
      <trkpt lat="42.64882" lon="1.70333">
        <ele>1701.398</ele>
        <time>2021-08-06T15:20:09Z</time>
      </trkpt>
      <trkpt lat="42.64883" lon="1.70333">
        <ele>1701.12</ele>
        <time>2021-08-06T15:20:11Z</time>
      </trkpt>
      <trkpt lat="42.64886" lon="1.70334">
        <ele>1701.01</ele>
        <time>2021-08-06T15:20:13Z</time>
      </trkpt>
      <trkpt lat="42.64888" lon="1.70335">
        <ele>1700.035</ele>
        <time>2021-08-06T15:20:15Z</time>
      </trkpt>
      <trkpt lat="42.6489" lon="1.70335">
        <ele>1699.619</ele>
        <time>2021-08-06T15:20:17Z</time>
      </trkpt>
      <trkpt lat="42.64892" lon="1.70334">
        <ele>1699.643</ele>
        <time>2021-08-06T15:20:19Z</time>
      </trkpt>
      <trkpt lat="42.64894" lon="1.70334">
        <ele>1698.962</ele>
        <time>2021-08-06T15:20:21Z</time>
      </trkpt>
      <trkpt lat="42.64896" lon="1.70332">
        <ele>1698.378</ele>
        <time>2021-08-06T15:20:23Z</time>
      </trkpt>
      <trkpt lat="42.64898" lon="1.70331">
        <ele>1698.892</ele>
        <time>2021-08-06T15:20:25Z</time>
      </trkpt>
      <trkpt lat="42.649" lon="1.70329">
        <ele>1697.77</ele>
        <time>2021-08-06T15:20:27Z</time>
      </trkpt>
      <trkpt lat="42.64902" lon="1.70328">
        <ele>1697.672</ele>
        <time>2021-08-06T15:20:29Z</time>
      </trkpt>
      <trkpt lat="42.64904" lon="1.70329">
        <ele>1698.269</ele>
        <time>2021-08-06T15:20:31Z</time>
      </trkpt>
      <trkpt lat="42.64906" lon="1.70329">
        <ele>1698.307</ele>
        <time>2021-08-06T15:20:33Z</time>
      </trkpt>
      <trkpt lat="42.64909" lon="1.7033">
        <ele>1698.701</ele>
        <time>2021-08-06T15:20:35Z</time>
      </trkpt>
      <trkpt lat="42.64911" lon="1.70332">
        <ele>1699.193</ele>
        <time>2021-08-06T15:20:37Z</time>
      </trkpt>
      <trkpt lat="42.64913" lon="1.70335">
        <ele>1699.539</ele>
        <time>2021-08-06T15:20:39Z</time>
      </trkpt>
      <trkpt lat="42.64915" lon="1.70337">
        <ele>1699.499</ele>
        <time>2021-08-06T15:20:41Z</time>
      </trkpt>
      <trkpt lat="42.64917" lon="1.70338">
        <ele>1699.582</ele>
        <time>2021-08-06T15:20:43Z</time>
      </trkpt>
      <trkpt lat="42.64919" lon="1.7034">
        <ele>1699.476</ele>
        <time>2021-08-06T15:20:45Z</time>
      </trkpt>
      <trkpt lat="42.6492" lon="1.70342">
        <ele>1698.991</ele>
        <time>2021-08-06T15:20:47Z</time>
      </trkpt>
      <trkpt lat="42.64921" lon="1.70344">
        <ele>1699.272</ele>
        <time>2021-08-06T15:20:49Z</time>
      </trkpt>
      <trkpt lat="42.64923" lon="1.70346">
        <ele>1698.916</ele>
        <time>2021-08-06T15:20:51Z</time>
      </trkpt>
      <trkpt lat="42.64925" lon="1.70347">
        <ele>1700.116</ele>
        <time>2021-08-06T15:20:53Z</time>
      </trkpt>
      <trkpt lat="42.64927" lon="1.70349">
        <ele>1700.454</ele>
        <time>2021-08-06T15:20:55Z</time>
      </trkpt>
      <trkpt lat="42.64929" lon="1.7035">
        <ele>1700.849</ele>
        <time>2021-08-06T15:20:57Z</time>
      </trkpt>
      <trkpt lat="42.6493" lon="1.70351">
        <ele>1701.316</ele>
        <time>2021-08-06T15:20:59Z</time>
      </trkpt>
      <trkpt lat="42.64932" lon="1.70353">
        <ele>1701.59</ele>
        <time>2021-08-06T15:21:01Z</time>
      </trkpt>
      <trkpt lat="42.64934" lon="1.70353">
        <ele>1700.833</ele>
        <time>2021-08-06T15:21:03Z</time>
      </trkpt>
      <trkpt lat="42.64936" lon="1.70353">
        <ele>1700.493</ele>
        <time>2021-08-06T15:21:05Z</time>
      </trkpt>
      <trkpt lat="42.64937" lon="1.70353">
        <ele>1700.263</ele>
        <time>2021-08-06T15:21:07Z</time>
      </trkpt>
      <trkpt lat="42.64939" lon="1.70353">
        <ele>1699.909</ele>
        <time>2021-08-06T15:21:09Z</time>
      </trkpt>
      <trkpt lat="42.6494" lon="1.70353">
        <ele>1700.325</ele>
        <time>2021-08-06T15:21:11Z</time>
      </trkpt>
      <trkpt lat="42.6494" lon="1.70353">
        <ele>1700.153</ele>
        <time>2021-08-06T15:21:13Z</time>
      </trkpt>
      <trkpt lat="42.64941" lon="1.70354">
        <ele>1699.644</ele>
        <time>2021-08-06T15:21:15Z</time>
      </trkpt>
      <trkpt lat="42.64942" lon="1.70354">
        <ele>1700.087</ele>
        <time>2021-08-06T15:21:17Z</time>
      </trkpt>
      <trkpt lat="42.64944" lon="1.70355">
        <ele>1699.491</ele>
        <time>2021-08-06T15:21:19Z</time>
      </trkpt>
      <trkpt lat="42.64945" lon="1.70355">
        <ele>1698.965</ele>
        <time>2021-08-06T15:21:21Z</time>
      </trkpt>
    </trkseg>
  </trk>
</gpx>